<?xml version="1.0" encoding="UTF-8" standalone="no" ?>
<gpx xmlns="http://www.topografix.com/GPX/1/1" xmlns:xsi="http://www.w3.org/2001/XMLSchema-instance" xsi:schemaLocation="http://www.topografix.com/GPX/1/1 http://www.topografix.com/GPX/1/1/gpx.xsd" version="1.1" creator="VisuGPX - https://www.visugpx.com">
  <metadata>
    <name>2021-04-10 Golf</name>
  </metadata>
  <trk>
    <name><![CDATA[2021-04-10 Golf_1]]></name>
    <trkseg>
      <trkpt lat="47.25143" lon="6.035">
        <ele>281</ele>
        <time>2021-04-10T10:19:29Z</time>
      </trkpt>
      <trkpt lat="47.25144" lon="6.03502">
        <ele>281.8</ele>
        <time>2021-04-10T10:19:34Z</time>
      </trkpt>
      <trkpt lat="47.25145" lon="6.03503">
        <ele>282.2</ele>
        <time>2021-04-10T10:19:35Z</time>
      </trkpt>
      <trkpt lat="47.25146" lon="6.03505">
        <ele>282.4</ele>
        <time>2021-04-10T10:19:36Z</time>
      </trkpt>
      <trkpt lat="47.25148" lon="6.03507">
        <ele>282.6</ele>
        <time>2021-04-10T10:19:37Z</time>
      </trkpt>
      <trkpt lat="47.25156" lon="6.03518">
        <ele>283.2</ele>
        <time>2021-04-10T10:19:42Z</time>
      </trkpt>
      <trkpt lat="47.25158" lon="6.0352">
        <ele>283.2</ele>
        <time>2021-04-10T10:19:43Z</time>
      </trkpt>
      <trkpt lat="47.2516" lon="6.03522">
        <ele>283.4</ele>
        <time>2021-04-10T10:19:44Z</time>
      </trkpt>
      <trkpt lat="47.25161" lon="6.03525">
        <ele>283.4</ele>
        <time>2021-04-10T10:19:45Z</time>
      </trkpt>
      <trkpt lat="47.25176" lon="6.03546">
        <ele>284.2</ele>
        <time>2021-04-10T10:19:53Z</time>
      </trkpt>
      <trkpt lat="47.25186" lon="6.03561">
        <ele>284.6</ele>
        <time>2021-04-10T10:19:58Z</time>
      </trkpt>
      <trkpt lat="47.25195" lon="6.03573">
        <ele>284.8</ele>
        <time>2021-04-10T10:20:02Z</time>
      </trkpt>
      <trkpt lat="47.25197" lon="6.03576">
        <ele>285</ele>
        <time>2021-04-10T10:20:03Z</time>
      </trkpt>
      <trkpt lat="47.25213" lon="6.03598">
        <ele>285.6</ele>
        <time>2021-04-10T10:20:10Z</time>
      </trkpt>
      <trkpt lat="47.25222" lon="6.03609">
        <ele>285.8</ele>
        <time>2021-04-10T10:20:13Z</time>
      </trkpt>
      <trkpt lat="47.25233" lon="6.03626">
        <ele>286.6</ele>
        <time>2021-04-10T10:20:18Z</time>
      </trkpt>
      <trkpt lat="47.25235" lon="6.03629">
        <ele>286.8</ele>
        <time>2021-04-10T10:20:19Z</time>
      </trkpt>
      <trkpt lat="47.25245" lon="6.03638">
        <ele>287.2</ele>
        <time>2021-04-10T10:20:22Z</time>
      </trkpt>
      <trkpt lat="47.25248" lon="6.03641">
        <ele>287.6</ele>
        <time>2021-04-10T10:20:23Z</time>
      </trkpt>
      <trkpt lat="47.25251" lon="6.03644">
        <ele>287.6</ele>
        <time>2021-04-10T10:20:24Z</time>
      </trkpt>
      <trkpt lat="47.25253" lon="6.03648">
        <ele>287.8</ele>
        <time>2021-04-10T10:20:25Z</time>
      </trkpt>
      <trkpt lat="47.25256" lon="6.03651">
        <ele>288</ele>
        <time>2021-04-10T10:20:26Z</time>
      </trkpt>
      <trkpt lat="47.25258" lon="6.03654">
        <ele>288.4</ele>
        <time>2021-04-10T10:20:27Z</time>
      </trkpt>
      <trkpt lat="47.25261" lon="6.03657">
        <ele>288.4</ele>
        <time>2021-04-10T10:20:28Z</time>
      </trkpt>
      <trkpt lat="47.25263" lon="6.0366">
        <ele>288.6</ele>
        <time>2021-04-10T10:20:29Z</time>
      </trkpt>
      <trkpt lat="47.25265" lon="6.03664">
        <ele>288.8</ele>
        <time>2021-04-10T10:20:30Z</time>
      </trkpt>
      <trkpt lat="47.25267" lon="6.03668">
        <ele>288.8</ele>
        <time>2021-04-10T10:20:31Z</time>
      </trkpt>
      <trkpt lat="47.2527" lon="6.03671">
        <ele>288.8</ele>
        <time>2021-04-10T10:20:32Z</time>
      </trkpt>
      <trkpt lat="47.25272" lon="6.03674">
        <ele>288.8</ele>
        <time>2021-04-10T10:20:33Z</time>
      </trkpt>
      <trkpt lat="47.25275" lon="6.03678">
        <ele>289</ele>
        <time>2021-04-10T10:20:34Z</time>
      </trkpt>
      <trkpt lat="47.25277" lon="6.03681">
        <ele>289</ele>
        <time>2021-04-10T10:20:35Z</time>
      </trkpt>
      <trkpt lat="47.2528" lon="6.03684">
        <ele>289</ele>
        <time>2021-04-10T10:20:36Z</time>
      </trkpt>
      <trkpt lat="47.25283" lon="6.03688">
        <ele>289.2</ele>
        <time>2021-04-10T10:20:37Z</time>
      </trkpt>
      <trkpt lat="47.25286" lon="6.03691">
        <ele>289.2</ele>
        <time>2021-04-10T10:20:38Z</time>
      </trkpt>
      <trkpt lat="47.25288" lon="6.03695">
        <ele>289.4</ele>
        <time>2021-04-10T10:20:39Z</time>
      </trkpt>
      <trkpt lat="47.25291" lon="6.03699">
        <ele>289.4</ele>
        <time>2021-04-10T10:20:40Z</time>
      </trkpt>
      <trkpt lat="47.25294" lon="6.03703">
        <ele>289.6</ele>
        <time>2021-04-10T10:20:41Z</time>
      </trkpt>
      <trkpt lat="47.25297" lon="6.03706">
        <ele>289.8</ele>
        <time>2021-04-10T10:20:42Z</time>
      </trkpt>
      <trkpt lat="47.25299" lon="6.0371">
        <ele>290</ele>
        <time>2021-04-10T10:20:43Z</time>
      </trkpt>
      <trkpt lat="47.25301" lon="6.03713">
        <ele>290.2</ele>
        <time>2021-04-10T10:20:44Z</time>
      </trkpt>
      <trkpt lat="47.25304" lon="6.03717">
        <ele>290.4</ele>
        <time>2021-04-10T10:20:45Z</time>
      </trkpt>
      <trkpt lat="47.25306" lon="6.0372">
        <ele>290.4</ele>
        <time>2021-04-10T10:20:46Z</time>
      </trkpt>
      <trkpt lat="47.25308" lon="6.03724">
        <ele>290.4</ele>
        <time>2021-04-10T10:20:47Z</time>
      </trkpt>
      <trkpt lat="47.25311" lon="6.03728">
        <ele>290.6</ele>
        <time>2021-04-10T10:20:48Z</time>
      </trkpt>
      <trkpt lat="47.25313" lon="6.03731">
        <ele>290.6</ele>
        <time>2021-04-10T10:20:49Z</time>
      </trkpt>
      <trkpt lat="47.25315" lon="6.03735">
        <ele>290.8</ele>
        <time>2021-04-10T10:20:50Z</time>
      </trkpt>
      <trkpt lat="47.25317" lon="6.03739">
        <ele>290.8</ele>
        <time>2021-04-10T10:20:51Z</time>
      </trkpt>
      <trkpt lat="47.25319" lon="6.03742">
        <ele>291</ele>
        <time>2021-04-10T10:20:52Z</time>
      </trkpt>
      <trkpt lat="47.25322" lon="6.03746">
        <ele>291</ele>
        <time>2021-04-10T10:20:53Z</time>
      </trkpt>
      <trkpt lat="47.25325" lon="6.0375">
        <ele>291</ele>
        <time>2021-04-10T10:20:54Z</time>
      </trkpt>
      <trkpt lat="47.25328" lon="6.03753">
        <ele>291.2</ele>
        <time>2021-04-10T10:20:55Z</time>
      </trkpt>
      <trkpt lat="47.2533" lon="6.03757">
        <ele>291.2</ele>
        <time>2021-04-10T10:20:56Z</time>
      </trkpt>
      <trkpt lat="47.25333" lon="6.0376">
        <ele>291.4</ele>
        <time>2021-04-10T10:20:57Z</time>
      </trkpt>
      <trkpt lat="47.25336" lon="6.03764">
        <ele>291.6</ele>
        <time>2021-04-10T10:20:58Z</time>
      </trkpt>
      <trkpt lat="47.25339" lon="6.03768">
        <ele>291.8</ele>
        <time>2021-04-10T10:20:59Z</time>
      </trkpt>
      <trkpt lat="47.25342" lon="6.03771">
        <ele>291.8</ele>
        <time>2021-04-10T10:21:00Z</time>
      </trkpt>
      <trkpt lat="47.25344" lon="6.03775">
        <ele>292</ele>
        <time>2021-04-10T10:21:01Z</time>
      </trkpt>
      <trkpt lat="47.25347" lon="6.03778">
        <ele>292</ele>
        <time>2021-04-10T10:21:02Z</time>
      </trkpt>
      <trkpt lat="47.2535" lon="6.03782">
        <ele>292.2</ele>
        <time>2021-04-10T10:21:03Z</time>
      </trkpt>
      <trkpt lat="47.25352" lon="6.03785">
        <ele>292.4</ele>
        <time>2021-04-10T10:21:04Z</time>
      </trkpt>
      <trkpt lat="47.25355" lon="6.03789">
        <ele>292.6</ele>
        <time>2021-04-10T10:21:05Z</time>
      </trkpt>
      <trkpt lat="47.25357" lon="6.03792">
        <ele>292.8</ele>
        <time>2021-04-10T10:21:06Z</time>
      </trkpt>
      <trkpt lat="47.2536" lon="6.03796">
        <ele>292.8</ele>
        <time>2021-04-10T10:21:07Z</time>
      </trkpt>
      <trkpt lat="47.25362" lon="6.03799">
        <ele>293</ele>
        <time>2021-04-10T10:21:08Z</time>
      </trkpt>
      <trkpt lat="47.25365" lon="6.03802">
        <ele>293.2</ele>
        <time>2021-04-10T10:21:09Z</time>
      </trkpt>
      <trkpt lat="47.25368" lon="6.03806">
        <ele>293.2</ele>
        <time>2021-04-10T10:21:10Z</time>
      </trkpt>
      <trkpt lat="47.2537" lon="6.03809">
        <ele>293.4</ele>
        <time>2021-04-10T10:21:11Z</time>
      </trkpt>
      <trkpt lat="47.25373" lon="6.03812">
        <ele>293.4</ele>
        <time>2021-04-10T10:21:12Z</time>
      </trkpt>
      <trkpt lat="47.25375" lon="6.03816">
        <ele>293.6</ele>
        <time>2021-04-10T10:21:13Z</time>
      </trkpt>
      <trkpt lat="47.25378" lon="6.03819">
        <ele>293.6</ele>
        <time>2021-04-10T10:21:14Z</time>
      </trkpt>
      <trkpt lat="47.2538" lon="6.03822">
        <ele>293.6</ele>
        <time>2021-04-10T10:21:15Z</time>
      </trkpt>
      <trkpt lat="47.25383" lon="6.03825">
        <ele>293.8</ele>
        <time>2021-04-10T10:21:16Z</time>
      </trkpt>
      <trkpt lat="47.25386" lon="6.03829">
        <ele>294</ele>
        <time>2021-04-10T10:21:17Z</time>
      </trkpt>
      <trkpt lat="47.25388" lon="6.03832">
        <ele>294</ele>
        <time>2021-04-10T10:21:18Z</time>
      </trkpt>
      <trkpt lat="47.2539" lon="6.03835">
        <ele>294.2</ele>
        <time>2021-04-10T10:21:19Z</time>
      </trkpt>
      <trkpt lat="47.25392" lon="6.03838">
        <ele>294.2</ele>
        <time>2021-04-10T10:21:20Z</time>
      </trkpt>
      <trkpt lat="47.25394" lon="6.03841">
        <ele>294.2</ele>
        <time>2021-04-10T10:21:21Z</time>
      </trkpt>
      <trkpt lat="47.25397" lon="6.03844">
        <ele>294.4</ele>
        <time>2021-04-10T10:21:22Z</time>
      </trkpt>
      <trkpt lat="47.25399" lon="6.03847">
        <ele>294.4</ele>
        <time>2021-04-10T10:21:23Z</time>
      </trkpt>
      <trkpt lat="47.25402" lon="6.0385">
        <ele>294.6</ele>
        <time>2021-04-10T10:21:24Z</time>
      </trkpt>
      <trkpt lat="47.25405" lon="6.03853">
        <ele>294.6</ele>
        <time>2021-04-10T10:21:25Z</time>
      </trkpt>
      <trkpt lat="47.25407" lon="6.03857">
        <ele>294.8</ele>
        <time>2021-04-10T10:21:26Z</time>
      </trkpt>
      <trkpt lat="47.2541" lon="6.0386">
        <ele>295.2</ele>
        <time>2021-04-10T10:21:27Z</time>
      </trkpt>
      <trkpt lat="47.25413" lon="6.03863">
        <ele>295.4</ele>
        <time>2021-04-10T10:21:28Z</time>
      </trkpt>
      <trkpt lat="47.25415" lon="6.03867">
        <ele>295.6</ele>
        <time>2021-04-10T10:21:29Z</time>
      </trkpt>
      <trkpt lat="47.25417" lon="6.03871">
        <ele>295.8</ele>
        <time>2021-04-10T10:21:30Z</time>
      </trkpt>
      <trkpt lat="47.2542" lon="6.03874">
        <ele>295.8</ele>
        <time>2021-04-10T10:21:31Z</time>
      </trkpt>
      <trkpt lat="47.25422" lon="6.03877">
        <ele>295.8</ele>
        <time>2021-04-10T10:21:32Z</time>
      </trkpt>
      <trkpt lat="47.25425" lon="6.0388">
        <ele>296</ele>
        <time>2021-04-10T10:21:33Z</time>
      </trkpt>
      <trkpt lat="47.25427" lon="6.03884">
        <ele>296.2</ele>
        <time>2021-04-10T10:21:34Z</time>
      </trkpt>
      <trkpt lat="47.25429" lon="6.03887">
        <ele>296.2</ele>
        <time>2021-04-10T10:21:35Z</time>
      </trkpt>
      <trkpt lat="47.25431" lon="6.0389">
        <ele>296.4</ele>
        <time>2021-04-10T10:21:36Z</time>
      </trkpt>
      <trkpt lat="47.25433" lon="6.03892">
        <ele>296.4</ele>
        <time>2021-04-10T10:21:37Z</time>
      </trkpt>
      <trkpt lat="47.25435" lon="6.03895">
        <ele>296.6</ele>
        <time>2021-04-10T10:21:38Z</time>
      </trkpt>
      <trkpt lat="47.25438" lon="6.03898">
        <ele>296.6</ele>
        <time>2021-04-10T10:21:39Z</time>
      </trkpt>
      <trkpt lat="47.2544" lon="6.03902">
        <ele>296.6</ele>
        <time>2021-04-10T10:21:40Z</time>
      </trkpt>
      <trkpt lat="47.25443" lon="6.03905">
        <ele>296.6</ele>
        <time>2021-04-10T10:21:41Z</time>
      </trkpt>
      <trkpt lat="47.25445" lon="6.03908">
        <ele>296.8</ele>
        <time>2021-04-10T10:21:42Z</time>
      </trkpt>
      <trkpt lat="47.25447" lon="6.03912">
        <ele>296.8</ele>
        <time>2021-04-10T10:21:43Z</time>
      </trkpt>
      <trkpt lat="47.2545" lon="6.03915">
        <ele>297</ele>
        <time>2021-04-10T10:21:44Z</time>
      </trkpt>
      <trkpt lat="47.25452" lon="6.03918">
        <ele>297</ele>
        <time>2021-04-10T10:21:45Z</time>
      </trkpt>
      <trkpt lat="47.25454" lon="6.03921">
        <ele>297</ele>
        <time>2021-04-10T10:21:46Z</time>
      </trkpt>
      <trkpt lat="47.25457" lon="6.03924">
        <ele>297.2</ele>
        <time>2021-04-10T10:21:47Z</time>
      </trkpt>
      <trkpt lat="47.25459" lon="6.03927">
        <ele>297.2</ele>
        <time>2021-04-10T10:21:48Z</time>
      </trkpt>
      <trkpt lat="47.25461" lon="6.0393">
        <ele>297.2</ele>
        <time>2021-04-10T10:21:49Z</time>
      </trkpt>
      <trkpt lat="47.25464" lon="6.03934">
        <ele>297.4</ele>
        <time>2021-04-10T10:21:50Z</time>
      </trkpt>
      <trkpt lat="47.25466" lon="6.03937">
        <ele>297.4</ele>
        <time>2021-04-10T10:21:51Z</time>
      </trkpt>
      <trkpt lat="47.25468" lon="6.03941">
        <ele>297.6</ele>
        <time>2021-04-10T10:21:52Z</time>
      </trkpt>
      <trkpt lat="47.25481" lon="6.0396">
        <ele>298.2</ele>
        <time>2021-04-10T10:21:58Z</time>
      </trkpt>
      <trkpt lat="47.25485" lon="6.03965">
        <ele>298.4</ele>
        <time>2021-04-10T10:22:00Z</time>
      </trkpt>
      <trkpt lat="47.25487" lon="6.03967">
        <ele>298.4</ele>
        <time>2021-04-10T10:22:01Z</time>
      </trkpt>
      <trkpt lat="47.25507" lon="6.0399">
        <ele>299.2</ele>
        <time>2021-04-10T10:22:09Z</time>
      </trkpt>
      <trkpt lat="47.25509" lon="6.03994">
        <ele>299.4</ele>
        <time>2021-04-10T10:22:10Z</time>
      </trkpt>
      <trkpt lat="47.25525" lon="6.04014">
        <ele>300</ele>
        <time>2021-04-10T10:22:16Z</time>
      </trkpt>
      <trkpt lat="47.25532" lon="6.04022">
        <ele>300.4</ele>
        <time>2021-04-10T10:22:19Z</time>
      </trkpt>
      <trkpt lat="47.25535" lon="6.04025">
        <ele>300.4</ele>
        <time>2021-04-10T10:22:20Z</time>
      </trkpt>
      <trkpt lat="47.25536" lon="6.04028">
        <ele>300.6</ele>
        <time>2021-04-10T10:22:21Z</time>
      </trkpt>
      <trkpt lat="47.25538" lon="6.04032">
        <ele>300.6</ele>
        <time>2021-04-10T10:22:22Z</time>
      </trkpt>
      <trkpt lat="47.25541" lon="6.04034">
        <ele>300.8</ele>
        <time>2021-04-10T10:22:23Z</time>
      </trkpt>
      <trkpt lat="47.25543" lon="6.04038">
        <ele>301</ele>
        <time>2021-04-10T10:22:24Z</time>
      </trkpt>
      <trkpt lat="47.25546" lon="6.04041">
        <ele>301.2</ele>
        <time>2021-04-10T10:22:25Z</time>
      </trkpt>
      <trkpt lat="47.25548" lon="6.04045">
        <ele>301.2</ele>
        <time>2021-04-10T10:22:26Z</time>
      </trkpt>
      <trkpt lat="47.25551" lon="6.04049">
        <ele>301.2</ele>
        <time>2021-04-10T10:22:27Z</time>
      </trkpt>
      <trkpt lat="47.25552" lon="6.04051">
        <ele>301.4</ele>
        <time>2021-04-10T10:22:28Z</time>
      </trkpt>
      <trkpt lat="47.25554" lon="6.04054">
        <ele>301.4</ele>
        <time>2021-04-10T10:22:29Z</time>
      </trkpt>
      <trkpt lat="47.25557" lon="6.04058">
        <ele>301.6</ele>
        <time>2021-04-10T10:22:30Z</time>
      </trkpt>
      <trkpt lat="47.25559" lon="6.0406">
        <ele>301.6</ele>
        <time>2021-04-10T10:22:31Z</time>
      </trkpt>
      <trkpt lat="47.25562" lon="6.04064">
        <ele>301.8</ele>
        <time>2021-04-10T10:22:32Z</time>
      </trkpt>
      <trkpt lat="47.25564" lon="6.04066">
        <ele>301.8</ele>
        <time>2021-04-10T10:22:33Z</time>
      </trkpt>
      <trkpt lat="47.25566" lon="6.04069">
        <ele>302</ele>
        <time>2021-04-10T10:22:34Z</time>
      </trkpt>
      <trkpt lat="47.25569" lon="6.04074">
        <ele>302.2</ele>
        <time>2021-04-10T10:22:35Z</time>
      </trkpt>
      <trkpt lat="47.25571" lon="6.04077">
        <ele>302.2</ele>
        <time>2021-04-10T10:22:36Z</time>
      </trkpt>
      <trkpt lat="47.25573" lon="6.04079">
        <ele>302.4</ele>
        <time>2021-04-10T10:22:37Z</time>
      </trkpt>
      <trkpt lat="47.25576" lon="6.04082">
        <ele>302.4</ele>
        <time>2021-04-10T10:22:38Z</time>
      </trkpt>
      <trkpt lat="47.25579" lon="6.04086">
        <ele>302.4</ele>
        <time>2021-04-10T10:22:39Z</time>
      </trkpt>
      <trkpt lat="47.25581" lon="6.04091">
        <ele>302.6</ele>
        <time>2021-04-10T10:22:40Z</time>
      </trkpt>
      <trkpt lat="47.25583" lon="6.04094">
        <ele>302.6</ele>
        <time>2021-04-10T10:22:41Z</time>
      </trkpt>
      <trkpt lat="47.25585" lon="6.04098">
        <ele>302.6</ele>
        <time>2021-04-10T10:22:42Z</time>
      </trkpt>
      <trkpt lat="47.25587" lon="6.04101">
        <ele>302.8</ele>
        <time>2021-04-10T10:22:43Z</time>
      </trkpt>
      <trkpt lat="47.25589" lon="6.04104">
        <ele>302.8</ele>
        <time>2021-04-10T10:22:44Z</time>
      </trkpt>
      <trkpt lat="47.25591" lon="6.04107">
        <ele>303</ele>
        <time>2021-04-10T10:22:45Z</time>
      </trkpt>
      <trkpt lat="47.25593" lon="6.04109">
        <ele>303</ele>
        <time>2021-04-10T10:22:46Z</time>
      </trkpt>
      <trkpt lat="47.25597" lon="6.04112">
        <ele>303</ele>
        <time>2021-04-10T10:22:47Z</time>
      </trkpt>
      <trkpt lat="47.25599" lon="6.04114">
        <ele>303.2</ele>
        <time>2021-04-10T10:22:48Z</time>
      </trkpt>
      <trkpt lat="47.256" lon="6.04117">
        <ele>303.2</ele>
        <time>2021-04-10T10:22:49Z</time>
      </trkpt>
      <trkpt lat="47.25602" lon="6.0412">
        <ele>303.4</ele>
        <time>2021-04-10T10:22:50Z</time>
      </trkpt>
      <trkpt lat="47.25604" lon="6.04123">
        <ele>303.6</ele>
        <time>2021-04-10T10:22:51Z</time>
      </trkpt>
      <trkpt lat="47.25605" lon="6.04126">
        <ele>303.6</ele>
        <time>2021-04-10T10:22:52Z</time>
      </trkpt>
      <trkpt lat="47.25607" lon="6.04129">
        <ele>303.8</ele>
        <time>2021-04-10T10:22:53Z</time>
      </trkpt>
      <trkpt lat="47.25609" lon="6.04131">
        <ele>303.8</ele>
        <time>2021-04-10T10:22:54Z</time>
      </trkpt>
      <trkpt lat="47.25621" lon="6.0415">
        <ele>304</ele>
        <time>2021-04-10T10:23:00Z</time>
      </trkpt>
      <trkpt lat="47.25634" lon="6.0417">
        <ele>304.4</ele>
        <time>2021-04-10T10:23:07Z</time>
      </trkpt>
      <trkpt lat="47.25636" lon="6.04173">
        <ele>304.6</ele>
        <time>2021-04-10T10:23:08Z</time>
      </trkpt>
      <trkpt lat="47.25638" lon="6.04176">
        <ele>304.6</ele>
        <time>2021-04-10T10:23:09Z</time>
      </trkpt>
      <trkpt lat="47.2564" lon="6.04179">
        <ele>304.6</ele>
        <time>2021-04-10T10:23:10Z</time>
      </trkpt>
      <trkpt lat="47.25642" lon="6.04182">
        <ele>304.6</ele>
        <time>2021-04-10T10:23:11Z</time>
      </trkpt>
      <trkpt lat="47.25644" lon="6.04185">
        <ele>304.8</ele>
        <time>2021-04-10T10:23:12Z</time>
      </trkpt>
      <trkpt lat="47.2565" lon="6.04194">
        <ele>305.2</ele>
        <time>2021-04-10T10:23:15Z</time>
      </trkpt>
      <trkpt lat="47.25674" lon="6.04226">
        <ele>305.4</ele>
        <time>2021-04-10T10:23:25Z</time>
      </trkpt>
      <trkpt lat="47.25691" lon="6.04251">
        <ele>305.6</ele>
        <time>2021-04-10T10:23:33Z</time>
      </trkpt>
      <trkpt lat="47.25714" lon="6.04283">
        <ele>306.2</ele>
        <time>2021-04-10T10:23:42Z</time>
      </trkpt>
      <trkpt lat="47.25736" lon="6.04308">
        <ele>306.4</ele>
        <time>2021-04-10T10:23:50Z</time>
      </trkpt>
      <trkpt lat="47.25739" lon="6.04312">
        <ele>306.4</ele>
        <time>2021-04-10T10:23:51Z</time>
      </trkpt>
      <trkpt lat="47.25742" lon="6.04315">
        <ele>306.6</ele>
        <time>2021-04-10T10:23:52Z</time>
      </trkpt>
      <trkpt lat="47.25744" lon="6.04318">
        <ele>306.6</ele>
        <time>2021-04-10T10:23:53Z</time>
      </trkpt>
      <trkpt lat="47.25748" lon="6.04321">
        <ele>306.6</ele>
        <time>2021-04-10T10:23:54Z</time>
      </trkpt>
      <trkpt lat="47.2575" lon="6.04324">
        <ele>306.8</ele>
        <time>2021-04-10T10:23:55Z</time>
      </trkpt>
      <trkpt lat="47.25753" lon="6.04327">
        <ele>306.8</ele>
        <time>2021-04-10T10:23:56Z</time>
      </trkpt>
      <trkpt lat="47.25758" lon="6.04333">
        <ele>307</ele>
        <time>2021-04-10T10:23:58Z</time>
      </trkpt>
      <trkpt lat="47.25768" lon="6.04348">
        <ele>307.2</ele>
        <time>2021-04-10T10:24:02Z</time>
      </trkpt>
      <trkpt lat="47.2577" lon="6.04351">
        <ele>307.2</ele>
        <time>2021-04-10T10:24:03Z</time>
      </trkpt>
      <trkpt lat="47.25772" lon="6.04354">
        <ele>307.4</ele>
        <time>2021-04-10T10:24:04Z</time>
      </trkpt>
      <trkpt lat="47.25775" lon="6.04357">
        <ele>307.4</ele>
        <time>2021-04-10T10:24:05Z</time>
      </trkpt>
      <trkpt lat="47.25776" lon="6.04361">
        <ele>307.4</ele>
        <time>2021-04-10T10:24:06Z</time>
      </trkpt>
      <trkpt lat="47.2579" lon="6.04382">
        <ele>307.4</ele>
        <time>2021-04-10T10:24:12Z</time>
      </trkpt>
      <trkpt lat="47.25815" lon="6.04416">
        <ele>307.4</ele>
        <time>2021-04-10T10:24:21Z</time>
      </trkpt>
      <trkpt lat="47.25826" lon="6.04436">
        <ele>307.6</ele>
        <time>2021-04-10T10:24:26Z</time>
      </trkpt>
      <trkpt lat="47.25849" lon="6.04467">
        <ele>308.8</ele>
        <time>2021-04-10T10:24:35Z</time>
      </trkpt>
      <trkpt lat="47.25862" lon="6.04486">
        <ele>309.4</ele>
        <time>2021-04-10T10:24:40Z</time>
      </trkpt>
      <trkpt lat="47.25865" lon="6.04493">
        <ele>309.6</ele>
        <time>2021-04-10T10:24:42Z</time>
      </trkpt>
      <trkpt lat="47.25867" lon="6.04497">
        <ele>309.8</ele>
        <time>2021-04-10T10:24:43Z</time>
      </trkpt>
      <trkpt lat="47.25868" lon="6.045">
        <ele>309.8</ele>
        <time>2021-04-10T10:24:44Z</time>
      </trkpt>
      <trkpt lat="47.2587" lon="6.04503">
        <ele>310</ele>
        <time>2021-04-10T10:24:45Z</time>
      </trkpt>
      <trkpt lat="47.25872" lon="6.04506">
        <ele>310</ele>
        <time>2021-04-10T10:24:46Z</time>
      </trkpt>
      <trkpt lat="47.25874" lon="6.04508">
        <ele>310.2</ele>
        <time>2021-04-10T10:24:47Z</time>
      </trkpt>
      <trkpt lat="47.25875" lon="6.0451">
        <ele>310.2</ele>
        <time>2021-04-10T10:24:48Z</time>
      </trkpt>
      <trkpt lat="47.25875" lon="6.04511">
        <ele>310.4</ele>
        <time>2021-04-10T10:24:49Z</time>
      </trkpt>
      <trkpt lat="47.25875" lon="6.04511">
        <ele>310.4</ele>
        <time>2021-04-10T10:24:50Z</time>
      </trkpt>
      <trkpt lat="47.25875" lon="6.04511">
        <ele>310.4</ele>
        <time>2021-04-10T10:24:51Z</time>
      </trkpt>
      <trkpt lat="47.25877" lon="6.04514">
        <ele>310.6</ele>
        <time>2021-04-10T10:25:01Z</time>
      </trkpt>
      <trkpt lat="47.25879" lon="6.04517">
        <ele>310.6</ele>
        <time>2021-04-10T10:25:02Z</time>
      </trkpt>
      <trkpt lat="47.2589" lon="6.0453">
        <ele>310.8</ele>
        <time>2021-04-10T10:25:07Z</time>
      </trkpt>
      <trkpt lat="47.25893" lon="6.04533">
        <ele>310.8</ele>
        <time>2021-04-10T10:25:08Z</time>
      </trkpt>
      <trkpt lat="47.25905" lon="6.0455">
        <ele>311.2</ele>
        <time>2021-04-10T10:25:13Z</time>
      </trkpt>
      <trkpt lat="47.25915" lon="6.04564">
        <ele>311.8</ele>
        <time>2021-04-10T10:25:17Z</time>
      </trkpt>
      <trkpt lat="47.25931" lon="6.04583">
        <ele>312.2</ele>
        <time>2021-04-10T10:25:23Z</time>
      </trkpt>
      <trkpt lat="47.25958" lon="6.0462">
        <ele>313.2</ele>
        <time>2021-04-10T10:25:33Z</time>
      </trkpt>
      <trkpt lat="47.2596" lon="6.04624">
        <ele>313.4</ele>
        <time>2021-04-10T10:25:34Z</time>
      </trkpt>
      <trkpt lat="47.25983" lon="6.04655">
        <ele>314.2</ele>
        <time>2021-04-10T10:25:42Z</time>
      </trkpt>
      <trkpt lat="47.25986" lon="6.04659">
        <ele>314.4</ele>
        <time>2021-04-10T10:25:43Z</time>
      </trkpt>
      <trkpt lat="47.25991" lon="6.04666">
        <ele>314.6</ele>
        <time>2021-04-10T10:25:45Z</time>
      </trkpt>
      <trkpt lat="47.25993" lon="6.0467">
        <ele>314.6</ele>
        <time>2021-04-10T10:25:46Z</time>
      </trkpt>
      <trkpt lat="47.25995" lon="6.04673">
        <ele>314.8</ele>
        <time>2021-04-10T10:25:47Z</time>
      </trkpt>
      <trkpt lat="47.25998" lon="6.04676">
        <ele>314.8</ele>
        <time>2021-04-10T10:25:48Z</time>
      </trkpt>
      <trkpt lat="47.26001" lon="6.0468">
        <ele>315</ele>
        <time>2021-04-10T10:25:49Z</time>
      </trkpt>
      <trkpt lat="47.26004" lon="6.04683">
        <ele>315</ele>
        <time>2021-04-10T10:25:50Z</time>
      </trkpt>
      <trkpt lat="47.26006" lon="6.04686">
        <ele>315.2</ele>
        <time>2021-04-10T10:25:51Z</time>
      </trkpt>
      <trkpt lat="47.26009" lon="6.0469">
        <ele>315.2</ele>
        <time>2021-04-10T10:25:52Z</time>
      </trkpt>
      <trkpt lat="47.26011" lon="6.04693">
        <ele>315.4</ele>
        <time>2021-04-10T10:25:53Z</time>
      </trkpt>
      <trkpt lat="47.26016" lon="6.047">
        <ele>315.6</ele>
        <time>2021-04-10T10:25:55Z</time>
      </trkpt>
      <trkpt lat="47.26019" lon="6.04704">
        <ele>315.6</ele>
        <time>2021-04-10T10:25:56Z</time>
      </trkpt>
      <trkpt lat="47.26021" lon="6.04707">
        <ele>315.6</ele>
        <time>2021-04-10T10:25:57Z</time>
      </trkpt>
      <trkpt lat="47.26024" lon="6.04711">
        <ele>315.8</ele>
        <time>2021-04-10T10:25:58Z</time>
      </trkpt>
      <trkpt lat="47.26033" lon="6.04723">
        <ele>316</ele>
        <time>2021-04-10T10:26:02Z</time>
      </trkpt>
      <trkpt lat="47.26036" lon="6.04728">
        <ele>316.2</ele>
        <time>2021-04-10T10:26:04Z</time>
      </trkpt>
      <trkpt lat="47.26038" lon="6.04731">
        <ele>316.4</ele>
        <time>2021-04-10T10:26:05Z</time>
      </trkpt>
      <trkpt lat="47.2604" lon="6.04734">
        <ele>316.4</ele>
        <time>2021-04-10T10:26:06Z</time>
      </trkpt>
      <trkpt lat="47.26042" lon="6.04737">
        <ele>316.6</ele>
        <time>2021-04-10T10:26:07Z</time>
      </trkpt>
      <trkpt lat="47.26044" lon="6.0474">
        <ele>316.6</ele>
        <time>2021-04-10T10:26:08Z</time>
      </trkpt>
      <trkpt lat="47.26046" lon="6.04743">
        <ele>316.6</ele>
        <time>2021-04-10T10:26:09Z</time>
      </trkpt>
      <trkpt lat="47.26049" lon="6.04746">
        <ele>316.8</ele>
        <time>2021-04-10T10:26:10Z</time>
      </trkpt>
      <trkpt lat="47.26054" lon="6.04752">
        <ele>317</ele>
        <time>2021-04-10T10:26:12Z</time>
      </trkpt>
      <trkpt lat="47.26057" lon="6.04757">
        <ele>317.2</ele>
        <time>2021-04-10T10:26:14Z</time>
      </trkpt>
      <trkpt lat="47.26061" lon="6.04763">
        <ele>317.4</ele>
        <time>2021-04-10T10:26:16Z</time>
      </trkpt>
      <trkpt lat="47.26079" lon="6.04788">
        <ele>318.2</ele>
        <time>2021-04-10T10:26:24Z</time>
      </trkpt>
      <trkpt lat="47.26086" lon="6.04798">
        <ele>318.4</ele>
        <time>2021-04-10T10:26:27Z</time>
      </trkpt>
      <trkpt lat="47.26102" lon="6.04819">
        <ele>318.8</ele>
        <time>2021-04-10T10:26:33Z</time>
      </trkpt>
      <trkpt lat="47.2612" lon="6.04843">
        <ele>319.2</ele>
        <time>2021-04-10T10:26:40Z</time>
      </trkpt>
      <trkpt lat="47.26122" lon="6.04847">
        <ele>319.2</ele>
        <time>2021-04-10T10:26:41Z</time>
      </trkpt>
      <trkpt lat="47.26129" lon="6.04859">
        <ele>319.6</ele>
        <time>2021-04-10T10:26:44Z</time>
      </trkpt>
      <trkpt lat="47.26141" lon="6.04876">
        <ele>319.8</ele>
        <time>2021-04-10T10:26:49Z</time>
      </trkpt>
      <trkpt lat="47.26163" lon="6.04906">
        <ele>320.6</ele>
        <time>2021-04-10T10:26:57Z</time>
      </trkpt>
      <trkpt lat="47.26184" lon="6.04934">
        <ele>321.4</ele>
        <time>2021-04-10T10:27:05Z</time>
      </trkpt>
      <trkpt lat="47.26186" lon="6.04938">
        <ele>321.4</ele>
        <time>2021-04-10T10:27:06Z</time>
      </trkpt>
      <trkpt lat="47.26188" lon="6.04942">
        <ele>321.6</ele>
        <time>2021-04-10T10:27:07Z</time>
      </trkpt>
      <trkpt lat="47.2619" lon="6.04945">
        <ele>321.6</ele>
        <time>2021-04-10T10:27:08Z</time>
      </trkpt>
      <trkpt lat="47.26192" lon="6.04949">
        <ele>321.6</ele>
        <time>2021-04-10T10:27:09Z</time>
      </trkpt>
      <trkpt lat="47.26193" lon="6.04953">
        <ele>321.8</ele>
        <time>2021-04-10T10:27:10Z</time>
      </trkpt>
      <trkpt lat="47.26194" lon="6.04956">
        <ele>321.8</ele>
        <time>2021-04-10T10:27:11Z</time>
      </trkpt>
      <trkpt lat="47.26194" lon="6.04959">
        <ele>321.8</ele>
        <time>2021-04-10T10:27:12Z</time>
      </trkpt>
      <trkpt lat="47.26194" lon="6.04962">
        <ele>321.8</ele>
        <time>2021-04-10T10:27:13Z</time>
      </trkpt>
      <trkpt lat="47.26194" lon="6.04967">
        <ele>322</ele>
        <time>2021-04-10T10:27:14Z</time>
      </trkpt>
      <trkpt lat="47.26198" lon="6.04984">
        <ele>322</ele>
        <time>2021-04-10T10:27:18Z</time>
      </trkpt>
      <trkpt lat="47.26199" lon="6.04987">
        <ele>322.2</ele>
        <time>2021-04-10T10:27:19Z</time>
      </trkpt>
      <trkpt lat="47.262" lon="6.0499">
        <ele>322.2</ele>
        <time>2021-04-10T10:27:20Z</time>
      </trkpt>
      <trkpt lat="47.26202" lon="6.04992">
        <ele>322.2</ele>
        <time>2021-04-10T10:27:21Z</time>
      </trkpt>
      <trkpt lat="47.26203" lon="6.04994">
        <ele>322.2</ele>
        <time>2021-04-10T10:27:22Z</time>
      </trkpt>
      <trkpt lat="47.26204" lon="6.04997">
        <ele>322.2</ele>
        <time>2021-04-10T10:27:23Z</time>
      </trkpt>
      <trkpt lat="47.26205" lon="6.05006">
        <ele>322.2</ele>
        <time>2021-04-10T10:27:26Z</time>
      </trkpt>
      <trkpt lat="47.26204" lon="6.05009">
        <ele>322.2</ele>
        <time>2021-04-10T10:27:27Z</time>
      </trkpt>
      <trkpt lat="47.26203" lon="6.05013">
        <ele>322.2</ele>
        <time>2021-04-10T10:27:28Z</time>
      </trkpt>
      <trkpt lat="47.26202" lon="6.05017">
        <ele>322</ele>
        <time>2021-04-10T10:27:29Z</time>
      </trkpt>
      <trkpt lat="47.26201" lon="6.05023">
        <ele>322</ele>
        <time>2021-04-10T10:27:30Z</time>
      </trkpt>
      <trkpt lat="47.26201" lon="6.05027">
        <ele>322</ele>
        <time>2021-04-10T10:27:31Z</time>
      </trkpt>
      <trkpt lat="47.26202" lon="6.05033">
        <ele>322</ele>
        <time>2021-04-10T10:27:32Z</time>
      </trkpt>
      <trkpt lat="47.26204" lon="6.05039">
        <ele>322</ele>
        <time>2021-04-10T10:27:33Z</time>
      </trkpt>
      <trkpt lat="47.26205" lon="6.05045">
        <ele>321.8</ele>
        <time>2021-04-10T10:27:34Z</time>
      </trkpt>
      <trkpt lat="47.26208" lon="6.05065">
        <ele>321.6</ele>
        <time>2021-04-10T10:27:37Z</time>
      </trkpt>
      <trkpt lat="47.2621" lon="6.05079">
        <ele>321.6</ele>
        <time>2021-04-10T10:27:39Z</time>
      </trkpt>
      <trkpt lat="47.26211" lon="6.05087">
        <ele>321.6</ele>
        <time>2021-04-10T10:27:40Z</time>
      </trkpt>
      <trkpt lat="47.26217" lon="6.05124">
        <ele>321.2</ele>
        <time>2021-04-10T10:27:45Z</time>
      </trkpt>
      <trkpt lat="47.26219" lon="6.05139">
        <ele>321</ele>
        <time>2021-04-10T10:27:47Z</time>
      </trkpt>
      <trkpt lat="47.26223" lon="6.05163">
        <ele>320.8</ele>
        <time>2021-04-10T10:27:50Z</time>
      </trkpt>
      <trkpt lat="47.26224" lon="6.0517">
        <ele>320.6</ele>
        <time>2021-04-10T10:27:51Z</time>
      </trkpt>
      <trkpt lat="47.26232" lon="6.05197">
        <ele>319.8</ele>
        <time>2021-04-10T10:27:55Z</time>
      </trkpt>
      <trkpt lat="47.26235" lon="6.05202">
        <ele>319.8</ele>
        <time>2021-04-10T10:27:56Z</time>
      </trkpt>
      <trkpt lat="47.26238" lon="6.05207">
        <ele>319.4</ele>
        <time>2021-04-10T10:27:57Z</time>
      </trkpt>
      <trkpt lat="47.26256" lon="6.05239">
        <ele>318.6</ele>
        <time>2021-04-10T10:28:02Z</time>
      </trkpt>
      <trkpt lat="47.2626" lon="6.05247">
        <ele>318.4</ele>
        <time>2021-04-10T10:28:03Z</time>
      </trkpt>
      <trkpt lat="47.26274" lon="6.05274">
        <ele>317.4</ele>
        <time>2021-04-10T10:28:06Z</time>
      </trkpt>
      <trkpt lat="47.26278" lon="6.05284">
        <ele>316.8</ele>
        <time>2021-04-10T10:28:07Z</time>
      </trkpt>
      <trkpt lat="47.26287" lon="6.05308">
        <ele>316</ele>
        <time>2021-04-10T10:28:09Z</time>
      </trkpt>
      <trkpt lat="47.26295" lon="6.05333">
        <ele>314.8</ele>
        <time>2021-04-10T10:28:11Z</time>
      </trkpt>
      <trkpt lat="47.26299" lon="6.05345">
        <ele>314.4</ele>
        <time>2021-04-10T10:28:12Z</time>
      </trkpt>
      <trkpt lat="47.26302" lon="6.05357">
        <ele>313.4</ele>
        <time>2021-04-10T10:28:13Z</time>
      </trkpt>
      <trkpt lat="47.26305" lon="6.05368">
        <ele>313.2</ele>
        <time>2021-04-10T10:28:14Z</time>
      </trkpt>
      <trkpt lat="47.26307" lon="6.05379">
        <ele>312.2</ele>
        <time>2021-04-10T10:28:15Z</time>
      </trkpt>
      <trkpt lat="47.26309" lon="6.0539">
        <ele>311</ele>
        <time>2021-04-10T10:28:16Z</time>
      </trkpt>
      <trkpt lat="47.26311" lon="6.05402">
        <ele>310.8</ele>
        <time>2021-04-10T10:28:17Z</time>
      </trkpt>
      <trkpt lat="47.26312" lon="6.05415">
        <ele>309.8</ele>
        <time>2021-04-10T10:28:18Z</time>
      </trkpt>
      <trkpt lat="47.26311" lon="6.05441">
        <ele>308.4</ele>
        <time>2021-04-10T10:28:20Z</time>
      </trkpt>
      <trkpt lat="47.26311" lon="6.05454">
        <ele>308.2</ele>
        <time>2021-04-10T10:28:21Z</time>
      </trkpt>
      <trkpt lat="47.26312" lon="6.05467">
        <ele>307.2</ele>
        <time>2021-04-10T10:28:22Z</time>
      </trkpt>
      <trkpt lat="47.26316" lon="6.05494">
        <ele>306.2</ele>
        <time>2021-04-10T10:28:24Z</time>
      </trkpt>
      <trkpt lat="47.26319" lon="6.0552">
        <ele>305</ele>
        <time>2021-04-10T10:28:26Z</time>
      </trkpt>
      <trkpt lat="47.2632" lon="6.05531">
        <ele>304.4</ele>
        <time>2021-04-10T10:28:27Z</time>
      </trkpt>
      <trkpt lat="47.26321" lon="6.05541">
        <ele>304</ele>
        <time>2021-04-10T10:28:28Z</time>
      </trkpt>
      <trkpt lat="47.26321" lon="6.0555">
        <ele>303.4</ele>
        <time>2021-04-10T10:28:29Z</time>
      </trkpt>
      <trkpt lat="47.2632" lon="6.05557">
        <ele>303</ele>
        <time>2021-04-10T10:28:30Z</time>
      </trkpt>
      <trkpt lat="47.26319" lon="6.05564">
        <ele>302.4</ele>
        <time>2021-04-10T10:28:31Z</time>
      </trkpt>
      <trkpt lat="47.26319" lon="6.05569">
        <ele>302</ele>
        <time>2021-04-10T10:28:32Z</time>
      </trkpt>
      <trkpt lat="47.26319" lon="6.05573">
        <ele>301.6</ele>
        <time>2021-04-10T10:28:33Z</time>
      </trkpt>
      <trkpt lat="47.2632" lon="6.05577">
        <ele>301.2</ele>
        <time>2021-04-10T10:28:34Z</time>
      </trkpt>
      <trkpt lat="47.2632" lon="6.05581">
        <ele>301.2</ele>
        <time>2021-04-10T10:28:35Z</time>
      </trkpt>
      <trkpt lat="47.26319" lon="6.05584">
        <ele>301</ele>
        <time>2021-04-10T10:28:36Z</time>
      </trkpt>
      <trkpt lat="47.26292" lon="6.05599">
        <ele>300.4</ele>
        <time>2021-04-10T10:28:43Z</time>
      </trkpt>
      <trkpt lat="47.26283" lon="6.05605">
        <ele>300.4</ele>
        <time>2021-04-10T10:28:45Z</time>
      </trkpt>
      <trkpt lat="47.26279" lon="6.05611">
        <ele>300.4</ele>
        <time>2021-04-10T10:28:46Z</time>
      </trkpt>
      <trkpt lat="47.26278" lon="6.05617">
        <ele>300</ele>
        <time>2021-04-10T10:28:47Z</time>
      </trkpt>
      <trkpt lat="47.26278" lon="6.05623">
        <ele>300</ele>
        <time>2021-04-10T10:28:48Z</time>
      </trkpt>
      <trkpt lat="47.26277" lon="6.05629">
        <ele>299.8</ele>
        <time>2021-04-10T10:28:49Z</time>
      </trkpt>
      <trkpt lat="47.26277" lon="6.05634">
        <ele>299.8</ele>
        <time>2021-04-10T10:28:50Z</time>
      </trkpt>
      <trkpt lat="47.26278" lon="6.05639">
        <ele>299.8</ele>
        <time>2021-04-10T10:28:51Z</time>
      </trkpt>
      <trkpt lat="47.26278" lon="6.05645">
        <ele>299.6</ele>
        <time>2021-04-10T10:28:52Z</time>
      </trkpt>
      <trkpt lat="47.26279" lon="6.0565">
        <ele>299.6</ele>
        <time>2021-04-10T10:28:53Z</time>
      </trkpt>
      <trkpt lat="47.26279" lon="6.05655">
        <ele>299.6</ele>
        <time>2021-04-10T10:28:54Z</time>
      </trkpt>
      <trkpt lat="47.26279" lon="6.05661">
        <ele>299.6</ele>
        <time>2021-04-10T10:28:55Z</time>
      </trkpt>
      <trkpt lat="47.26279" lon="6.05666">
        <ele>299.6</ele>
        <time>2021-04-10T10:28:56Z</time>
      </trkpt>
      <trkpt lat="47.26279" lon="6.0567">
        <ele>299.4</ele>
        <time>2021-04-10T10:28:57Z</time>
      </trkpt>
      <trkpt lat="47.26278" lon="6.05674">
        <ele>299.4</ele>
        <time>2021-04-10T10:28:58Z</time>
      </trkpt>
      <trkpt lat="47.26276" lon="6.05677">
        <ele>299.4</ele>
        <time>2021-04-10T10:28:59Z</time>
      </trkpt>
      <trkpt lat="47.26275" lon="6.0568">
        <ele>299.4</ele>
        <time>2021-04-10T10:29:00Z</time>
      </trkpt>
      <trkpt lat="47.26275" lon="6.0569">
        <ele>299.4</ele>
        <time>2021-04-10T10:29:02Z</time>
      </trkpt>
      <trkpt lat="47.26275" lon="6.05696">
        <ele>299</ele>
        <time>2021-04-10T10:29:03Z</time>
      </trkpt>
      <trkpt lat="47.26275" lon="6.05702">
        <ele>299.2</ele>
        <time>2021-04-10T10:29:04Z</time>
      </trkpt>
      <trkpt lat="47.26275" lon="6.05708">
        <ele>299</ele>
        <time>2021-04-10T10:29:05Z</time>
      </trkpt>
      <trkpt lat="47.26279" lon="6.05741">
        <ele>298.8</ele>
        <time>2021-04-10T10:29:10Z</time>
      </trkpt>
      <trkpt lat="47.26281" lon="6.05763">
        <ele>298.2</ele>
        <time>2021-04-10T10:29:13Z</time>
      </trkpt>
      <trkpt lat="47.26282" lon="6.0577">
        <ele>297.8</ele>
        <time>2021-04-10T10:29:14Z</time>
      </trkpt>
      <trkpt lat="47.26282" lon="6.058">
        <ele>297.4</ele>
        <time>2021-04-10T10:29:18Z</time>
      </trkpt>
      <trkpt lat="47.26278" lon="6.05816">
        <ele>297.2</ele>
        <time>2021-04-10T10:29:20Z</time>
      </trkpt>
      <trkpt lat="47.26272" lon="6.05831">
        <ele>296.8</ele>
        <time>2021-04-10T10:29:22Z</time>
      </trkpt>
      <trkpt lat="47.26264" lon="6.05846">
        <ele>296.2</ele>
        <time>2021-04-10T10:29:24Z</time>
      </trkpt>
      <trkpt lat="47.26259" lon="6.05854">
        <ele>296</ele>
        <time>2021-04-10T10:29:25Z</time>
      </trkpt>
      <trkpt lat="47.26245" lon="6.05878">
        <ele>294.8</ele>
        <time>2021-04-10T10:29:28Z</time>
      </trkpt>
      <trkpt lat="47.26241" lon="6.05887">
        <ele>294.4</ele>
        <time>2021-04-10T10:29:29Z</time>
      </trkpt>
      <trkpt lat="47.26237" lon="6.05897">
        <ele>293.8</ele>
        <time>2021-04-10T10:29:30Z</time>
      </trkpt>
      <trkpt lat="47.26235" lon="6.05908">
        <ele>293</ele>
        <time>2021-04-10T10:29:31Z</time>
      </trkpt>
      <trkpt lat="47.26234" lon="6.0592">
        <ele>292</ele>
        <time>2021-04-10T10:29:32Z</time>
      </trkpt>
      <trkpt lat="47.26234" lon="6.05932">
        <ele>291.8</ele>
        <time>2021-04-10T10:29:33Z</time>
      </trkpt>
      <trkpt lat="47.26235" lon="6.05945">
        <ele>291</ele>
        <time>2021-04-10T10:29:34Z</time>
      </trkpt>
      <trkpt lat="47.26237" lon="6.05957">
        <ele>290.8</ele>
        <time>2021-04-10T10:29:35Z</time>
      </trkpt>
      <trkpt lat="47.26239" lon="6.05969">
        <ele>290.4</ele>
        <time>2021-04-10T10:29:36Z</time>
      </trkpt>
      <trkpt lat="47.26242" lon="6.05995">
        <ele>290</ele>
        <time>2021-04-10T10:29:38Z</time>
      </trkpt>
      <trkpt lat="47.26244" lon="6.06008">
        <ele>289.4</ele>
        <time>2021-04-10T10:29:39Z</time>
      </trkpt>
      <trkpt lat="47.26247" lon="6.06034">
        <ele>287.8</ele>
        <time>2021-04-10T10:29:41Z</time>
      </trkpt>
      <trkpt lat="47.26249" lon="6.06045">
        <ele>287.4</ele>
        <time>2021-04-10T10:29:42Z</time>
      </trkpt>
      <trkpt lat="47.2625" lon="6.06055">
        <ele>286.8</ele>
        <time>2021-04-10T10:29:43Z</time>
      </trkpt>
      <trkpt lat="47.26251" lon="6.06063">
        <ele>286.6</ele>
        <time>2021-04-10T10:29:44Z</time>
      </trkpt>
      <trkpt lat="47.26252" lon="6.06071">
        <ele>285.8</ele>
        <time>2021-04-10T10:29:45Z</time>
      </trkpt>
      <trkpt lat="47.26254" lon="6.06077">
        <ele>285.4</ele>
        <time>2021-04-10T10:29:46Z</time>
      </trkpt>
      <trkpt lat="47.26256" lon="6.06083">
        <ele>285</ele>
        <time>2021-04-10T10:29:47Z</time>
      </trkpt>
      <trkpt lat="47.26258" lon="6.06089">
        <ele>284.2</ele>
        <time>2021-04-10T10:29:48Z</time>
      </trkpt>
      <trkpt lat="47.2626" lon="6.06095">
        <ele>284</ele>
        <time>2021-04-10T10:29:49Z</time>
      </trkpt>
      <trkpt lat="47.26261" lon="6.06101">
        <ele>283.4</ele>
        <time>2021-04-10T10:29:50Z</time>
      </trkpt>
      <trkpt lat="47.26261" lon="6.06101">
        <ele>283.2</ele>
        <time>2021-04-10T10:29:51Z</time>
      </trkpt>
      <trkpt lat="47.26262" lon="6.06115">
        <ele>283</ele>
        <time>2021-04-10T10:29:52Z</time>
      </trkpt>
      <trkpt lat="47.26263" lon="6.06122">
        <ele>282.8</ele>
        <time>2021-04-10T10:29:53Z</time>
      </trkpt>
      <trkpt lat="47.26264" lon="6.06129">
        <ele>282.6</ele>
        <time>2021-04-10T10:29:54Z</time>
      </trkpt>
      <trkpt lat="47.26269" lon="6.06141">
        <ele>282.4</ele>
        <time>2021-04-10T10:29:56Z</time>
      </trkpt>
      <trkpt lat="47.26273" lon="6.06145">
        <ele>282.4</ele>
        <time>2021-04-10T10:29:57Z</time>
      </trkpt>
      <trkpt lat="47.26278" lon="6.06149">
        <ele>282.2</ele>
        <time>2021-04-10T10:29:58Z</time>
      </trkpt>
      <trkpt lat="47.26282" lon="6.06153">
        <ele>282</ele>
        <time>2021-04-10T10:29:59Z</time>
      </trkpt>
      <trkpt lat="47.26287" lon="6.06157">
        <ele>282</ele>
        <time>2021-04-10T10:30:00Z</time>
      </trkpt>
      <trkpt lat="47.26293" lon="6.06167">
        <ele>281.6</ele>
        <time>2021-04-10T10:30:02Z</time>
      </trkpt>
      <trkpt lat="47.26295" lon="6.06173">
        <ele>281.4</ele>
        <time>2021-04-10T10:30:03Z</time>
      </trkpt>
      <trkpt lat="47.26297" lon="6.06178">
        <ele>281.4</ele>
        <time>2021-04-10T10:30:04Z</time>
      </trkpt>
      <trkpt lat="47.26299" lon="6.06183">
        <ele>281.2</ele>
        <time>2021-04-10T10:30:05Z</time>
      </trkpt>
      <trkpt lat="47.26301" lon="6.06188">
        <ele>281</ele>
        <time>2021-04-10T10:30:06Z</time>
      </trkpt>
      <trkpt lat="47.26315" lon="6.06225">
        <ele>280.2</ele>
        <time>2021-04-10T10:30:11Z</time>
      </trkpt>
      <trkpt lat="47.26318" lon="6.06234">
        <ele>279.8</ele>
        <time>2021-04-10T10:30:12Z</time>
      </trkpt>
      <trkpt lat="47.26321" lon="6.06243">
        <ele>279.4</ele>
        <time>2021-04-10T10:30:13Z</time>
      </trkpt>
      <trkpt lat="47.26327" lon="6.06272">
        <ele>278.8</ele>
        <time>2021-04-10T10:30:16Z</time>
      </trkpt>
      <trkpt lat="47.26329" lon="6.06283">
        <ele>278.4</ele>
        <time>2021-04-10T10:30:17Z</time>
      </trkpt>
      <trkpt lat="47.26337" lon="6.06327">
        <ele>277.4</ele>
        <time>2021-04-10T10:30:21Z</time>
      </trkpt>
      <trkpt lat="47.26341" lon="6.06351">
        <ele>276.8</ele>
        <time>2021-04-10T10:30:23Z</time>
      </trkpt>
      <trkpt lat="47.26343" lon="6.06363">
        <ele>276.2</ele>
        <time>2021-04-10T10:30:24Z</time>
      </trkpt>
      <trkpt lat="47.26351" lon="6.06401">
        <ele>275.4</ele>
        <time>2021-04-10T10:30:27Z</time>
      </trkpt>
      <trkpt lat="47.26353" lon="6.06414">
        <ele>275</ele>
        <time>2021-04-10T10:30:28Z</time>
      </trkpt>
      <trkpt lat="47.26358" lon="6.06439">
        <ele>274.4</ele>
        <time>2021-04-10T10:30:30Z</time>
      </trkpt>
      <trkpt lat="47.2636" lon="6.0645">
        <ele>274.2</ele>
        <time>2021-04-10T10:30:31Z</time>
      </trkpt>
      <trkpt lat="47.2636" lon="6.0645">
        <ele>274</ele>
        <time>2021-04-10T10:30:32Z</time>
      </trkpt>
      <trkpt lat="47.26361" lon="6.06471">
        <ele>273.4</ele>
        <time>2021-04-10T10:30:33Z</time>
      </trkpt>
      <trkpt lat="47.26361" lon="6.06481">
        <ele>273</ele>
        <time>2021-04-10T10:30:34Z</time>
      </trkpt>
      <trkpt lat="47.26363" lon="6.06492">
        <ele>272.2</ele>
        <time>2021-04-10T10:30:35Z</time>
      </trkpt>
      <trkpt lat="47.26366" lon="6.06501">
        <ele>271.8</ele>
        <time>2021-04-10T10:30:36Z</time>
      </trkpt>
      <trkpt lat="47.26368" lon="6.06508">
        <ele>271.2</ele>
        <time>2021-04-10T10:30:37Z</time>
      </trkpt>
      <trkpt lat="47.26369" lon="6.06515">
        <ele>270.8</ele>
        <time>2021-04-10T10:30:38Z</time>
      </trkpt>
      <trkpt lat="47.2637" lon="6.06522">
        <ele>270</ele>
        <time>2021-04-10T10:30:39Z</time>
      </trkpt>
      <trkpt lat="47.26372" lon="6.0653">
        <ele>269.8</ele>
        <time>2021-04-10T10:30:40Z</time>
      </trkpt>
      <trkpt lat="47.26373" lon="6.06539">
        <ele>269.4</ele>
        <time>2021-04-10T10:30:41Z</time>
      </trkpt>
      <trkpt lat="47.2638" lon="6.06576">
        <ele>268.6</ele>
        <time>2021-04-10T10:30:45Z</time>
      </trkpt>
      <trkpt lat="47.26382" lon="6.06586">
        <ele>268.2</ele>
        <time>2021-04-10T10:30:46Z</time>
      </trkpt>
      <trkpt lat="47.26384" lon="6.06594">
        <ele>267.6</ele>
        <time>2021-04-10T10:30:47Z</time>
      </trkpt>
      <trkpt lat="47.26385" lon="6.06601">
        <ele>267</ele>
        <time>2021-04-10T10:30:48Z</time>
      </trkpt>
      <trkpt lat="47.26385" lon="6.06607">
        <ele>266.6</ele>
        <time>2021-04-10T10:30:49Z</time>
      </trkpt>
      <trkpt lat="47.26386" lon="6.06612">
        <ele>266</ele>
        <time>2021-04-10T10:30:50Z</time>
      </trkpt>
      <trkpt lat="47.26386" lon="6.06617">
        <ele>265.2</ele>
        <time>2021-04-10T10:30:51Z</time>
      </trkpt>
      <trkpt lat="47.26386" lon="6.06623">
        <ele>264.8</ele>
        <time>2021-04-10T10:30:52Z</time>
      </trkpt>
      <trkpt lat="47.26385" lon="6.06629">
        <ele>264.4</ele>
        <time>2021-04-10T10:30:53Z</time>
      </trkpt>
      <trkpt lat="47.26384" lon="6.06641">
        <ele>263.6</ele>
        <time>2021-04-10T10:30:55Z</time>
      </trkpt>
      <trkpt lat="47.26382" lon="6.06645">
        <ele>263.4</ele>
        <time>2021-04-10T10:30:56Z</time>
      </trkpt>
      <trkpt lat="47.26381" lon="6.0665">
        <ele>263</ele>
        <time>2021-04-10T10:30:57Z</time>
      </trkpt>
      <trkpt lat="47.26379" lon="6.06661">
        <ele>262.4</ele>
        <time>2021-04-10T10:30:59Z</time>
      </trkpt>
      <trkpt lat="47.26381" lon="6.06667">
        <ele>261.4</ele>
        <time>2021-04-10T10:31:00Z</time>
      </trkpt>
      <trkpt lat="47.26383" lon="6.06671">
        <ele>261.2</ele>
        <time>2021-04-10T10:31:01Z</time>
      </trkpt>
      <trkpt lat="47.26384" lon="6.06675">
        <ele>261</ele>
        <time>2021-04-10T10:31:02Z</time>
      </trkpt>
      <trkpt lat="47.26385" lon="6.06678">
        <ele>260.8</ele>
        <time>2021-04-10T10:31:03Z</time>
      </trkpt>
      <trkpt lat="47.26386" lon="6.06683">
        <ele>260.4</ele>
        <time>2021-04-10T10:31:04Z</time>
      </trkpt>
      <trkpt lat="47.26384" lon="6.06693">
        <ele>260.2</ele>
        <time>2021-04-10T10:31:06Z</time>
      </trkpt>
      <trkpt lat="47.26383" lon="6.06698">
        <ele>260</ele>
        <time>2021-04-10T10:31:07Z</time>
      </trkpt>
      <trkpt lat="47.26381" lon="6.06703">
        <ele>260</ele>
        <time>2021-04-10T10:31:08Z</time>
      </trkpt>
      <trkpt lat="47.26375" lon="6.06724">
        <ele>259.6</ele>
        <time>2021-04-10T10:31:11Z</time>
      </trkpt>
      <trkpt lat="47.26371" lon="6.06737">
        <ele>259.2</ele>
        <time>2021-04-10T10:31:13Z</time>
      </trkpt>
      <trkpt lat="47.2637" lon="6.06742">
        <ele>259</ele>
        <time>2021-04-10T10:31:14Z</time>
      </trkpt>
      <trkpt lat="47.26369" lon="6.06748">
        <ele>258.8</ele>
        <time>2021-04-10T10:31:15Z</time>
      </trkpt>
      <trkpt lat="47.26368" lon="6.06752">
        <ele>258.6</ele>
        <time>2021-04-10T10:31:16Z</time>
      </trkpt>
      <trkpt lat="47.26368" lon="6.06756">
        <ele>258.6</ele>
        <time>2021-04-10T10:31:17Z</time>
      </trkpt>
      <trkpt lat="47.2637" lon="6.06759">
        <ele>258.4</ele>
        <time>2021-04-10T10:31:18Z</time>
      </trkpt>
      <trkpt lat="47.26382" lon="6.06768">
        <ele>258</ele>
        <time>2021-04-10T10:31:21Z</time>
      </trkpt>
      <trkpt lat="47.26386" lon="6.06771">
        <ele>257.8</ele>
        <time>2021-04-10T10:31:22Z</time>
      </trkpt>
      <trkpt lat="47.26408" lon="6.06789">
        <ele>256.4</ele>
        <time>2021-04-10T10:31:26Z</time>
      </trkpt>
      <trkpt lat="47.26414" lon="6.06793">
        <ele>256</ele>
        <time>2021-04-10T10:31:27Z</time>
      </trkpt>
      <trkpt lat="47.26433" lon="6.06805">
        <ele>255.6</ele>
        <time>2021-04-10T10:31:30Z</time>
      </trkpt>
      <trkpt lat="47.26439" lon="6.06809">
        <ele>255.2</ele>
        <time>2021-04-10T10:31:31Z</time>
      </trkpt>
      <trkpt lat="47.26445" lon="6.06812">
        <ele>255</ele>
        <time>2021-04-10T10:31:32Z</time>
      </trkpt>
      <trkpt lat="47.26451" lon="6.06816">
        <ele>254.8</ele>
        <time>2021-04-10T10:31:33Z</time>
      </trkpt>
      <trkpt lat="47.26469" lon="6.0683">
        <ele>254.4</ele>
        <time>2021-04-10T10:31:36Z</time>
      </trkpt>
      <trkpt lat="47.26481" lon="6.06845">
        <ele>253.8</ele>
        <time>2021-04-10T10:31:38Z</time>
      </trkpt>
      <trkpt lat="47.26488" lon="6.06855">
        <ele>253.8</ele>
        <time>2021-04-10T10:31:39Z</time>
      </trkpt>
      <trkpt lat="47.26498" lon="6.06868">
        <ele>253.2</ele>
        <time>2021-04-10T10:31:41Z</time>
      </trkpt>
      <trkpt lat="47.26503" lon="6.06875">
        <ele>252.8</ele>
        <time>2021-04-10T10:31:42Z</time>
      </trkpt>
      <trkpt lat="47.26509" lon="6.06883">
        <ele>252.6</ele>
        <time>2021-04-10T10:31:43Z</time>
      </trkpt>
      <trkpt lat="47.26519" lon="6.06901">
        <ele>252</ele>
        <time>2021-04-10T10:31:45Z</time>
      </trkpt>
      <trkpt lat="47.26528" lon="6.06921">
        <ele>251.6</ele>
        <time>2021-04-10T10:31:47Z</time>
      </trkpt>
      <trkpt lat="47.26534" lon="6.06939">
        <ele>251.2</ele>
        <time>2021-04-10T10:31:49Z</time>
      </trkpt>
      <trkpt lat="47.26538" lon="6.06949">
        <ele>251</ele>
        <time>2021-04-10T10:31:50Z</time>
      </trkpt>
      <trkpt lat="47.26546" lon="6.0697">
        <ele>250.6</ele>
        <time>2021-04-10T10:31:52Z</time>
      </trkpt>
      <trkpt lat="47.26562" lon="6.07013">
        <ele>249.4</ele>
        <time>2021-04-10T10:31:56Z</time>
      </trkpt>
      <trkpt lat="47.26572" lon="6.07042">
        <ele>249</ele>
        <time>2021-04-10T10:31:59Z</time>
      </trkpt>
      <trkpt lat="47.26575" lon="6.07051">
        <ele>248.8</ele>
        <time>2021-04-10T10:32:00Z</time>
      </trkpt>
      <trkpt lat="47.26578" lon="6.0706">
        <ele>248.8</ele>
        <time>2021-04-10T10:32:01Z</time>
      </trkpt>
      <trkpt lat="47.26581" lon="6.07069">
        <ele>248.8</ele>
        <time>2021-04-10T10:32:02Z</time>
      </trkpt>
      <trkpt lat="47.26584" lon="6.07077">
        <ele>248.6</ele>
        <time>2021-04-10T10:32:03Z</time>
      </trkpt>
      <trkpt lat="47.26586" lon="6.07084">
        <ele>248.6</ele>
        <time>2021-04-10T10:32:04Z</time>
      </trkpt>
      <trkpt lat="47.26588" lon="6.0709">
        <ele>248.6</ele>
        <time>2021-04-10T10:32:05Z</time>
      </trkpt>
      <trkpt lat="47.26589" lon="6.07094">
        <ele>248.6</ele>
        <time>2021-04-10T10:32:06Z</time>
      </trkpt>
      <trkpt lat="47.26588" lon="6.07097">
        <ele>248.6</ele>
        <time>2021-04-10T10:32:07Z</time>
      </trkpt>
      <trkpt lat="47.26587" lon="6.07098">
        <ele>248.6</ele>
        <time>2021-04-10T10:32:08Z</time>
      </trkpt>
      <trkpt lat="47.26586" lon="6.071">
        <ele>248.6</ele>
        <time>2021-04-10T10:32:09Z</time>
      </trkpt>
      <trkpt lat="47.26587" lon="6.07101">
        <ele>248.6</ele>
        <time>2021-04-10T10:32:10Z</time>
      </trkpt>
      <trkpt lat="47.26588" lon="6.07103">
        <ele>248.6</ele>
        <time>2021-04-10T10:32:11Z</time>
      </trkpt>
      <trkpt lat="47.26595" lon="6.07115">
        <ele>248.4</ele>
        <time>2021-04-10T10:32:15Z</time>
      </trkpt>
      <trkpt lat="47.26595" lon="6.07119">
        <ele>248.2</ele>
        <time>2021-04-10T10:32:16Z</time>
      </trkpt>
      <trkpt lat="47.26593" lon="6.07123">
        <ele>248.2</ele>
        <time>2021-04-10T10:32:17Z</time>
      </trkpt>
      <trkpt lat="47.2659" lon="6.07124">
        <ele>248</ele>
        <time>2021-04-10T10:32:18Z</time>
      </trkpt>
      <trkpt lat="47.26587" lon="6.07125">
        <ele>248</ele>
        <time>2021-04-10T10:32:19Z</time>
      </trkpt>
      <trkpt lat="47.26585" lon="6.07127">
        <ele>248</ele>
        <time>2021-04-10T10:32:20Z</time>
      </trkpt>
      <trkpt lat="47.26584" lon="6.0713">
        <ele>248</ele>
        <time>2021-04-10T10:32:21Z</time>
      </trkpt>
      <trkpt lat="47.26583" lon="6.07134">
        <ele>248</ele>
        <time>2021-04-10T10:32:22Z</time>
      </trkpt>
      <trkpt lat="47.26582" lon="6.07142">
        <ele>248</ele>
        <time>2021-04-10T10:32:24Z</time>
      </trkpt>
      <trkpt lat="47.26587" lon="6.07148">
        <ele>248</ele>
        <time>2021-04-10T10:32:26Z</time>
      </trkpt>
      <trkpt lat="47.26589" lon="6.07151">
        <ele>248.2</ele>
        <time>2021-04-10T10:32:27Z</time>
      </trkpt>
      <trkpt lat="47.2659" lon="6.07155">
        <ele>248.2</ele>
        <time>2021-04-10T10:32:28Z</time>
      </trkpt>
      <trkpt lat="47.26594" lon="6.07167">
        <ele>248.4</ele>
        <time>2021-04-10T10:32:31Z</time>
      </trkpt>
      <trkpt lat="47.26606" lon="6.07208">
        <ele>248.8</ele>
        <time>2021-04-10T10:32:39Z</time>
      </trkpt>
      <trkpt lat="47.26617" lon="6.07246">
        <ele>249.2</ele>
        <time>2021-04-10T10:32:46Z</time>
      </trkpt>
      <trkpt lat="47.26618" lon="6.0725">
        <ele>249.2</ele>
        <time>2021-04-10T10:32:47Z</time>
      </trkpt>
      <trkpt lat="47.26622" lon="6.0726">
        <ele>249.2</ele>
        <time>2021-04-10T10:32:49Z</time>
      </trkpt>
      <trkpt lat="47.26627" lon="6.07276">
        <ele>249.2</ele>
        <time>2021-04-10T10:32:52Z</time>
      </trkpt>
      <trkpt lat="47.26629" lon="6.07281">
        <ele>249.2</ele>
        <time>2021-04-10T10:32:53Z</time>
      </trkpt>
      <trkpt lat="47.26631" lon="6.07286">
        <ele>249.2</ele>
        <time>2021-04-10T10:32:54Z</time>
      </trkpt>
      <trkpt lat="47.26642" lon="6.07318">
        <ele>249.2</ele>
        <time>2021-04-10T10:33:01Z</time>
      </trkpt>
      <trkpt lat="47.26644" lon="6.07321">
        <ele>249.2</ele>
        <time>2021-04-10T10:33:02Z</time>
      </trkpt>
      <trkpt lat="47.26647" lon="6.07323">
        <ele>249.2</ele>
        <time>2021-04-10T10:33:03Z</time>
      </trkpt>
      <trkpt lat="47.2665" lon="6.07324">
        <ele>249.2</ele>
        <time>2021-04-10T10:33:04Z</time>
      </trkpt>
      <trkpt lat="47.26652" lon="6.07324">
        <ele>249.6</ele>
        <time>2021-04-10T10:33:05Z</time>
      </trkpt>
      <trkpt lat="47.26654" lon="6.07322">
        <ele>249.6</ele>
        <time>2021-04-10T10:33:06Z</time>
      </trkpt>
      <trkpt lat="47.26656" lon="6.07321">
        <ele>249.8</ele>
        <time>2021-04-10T10:33:07Z</time>
      </trkpt>
      <trkpt lat="47.26657" lon="6.07321">
        <ele>249.8</ele>
        <time>2021-04-10T10:33:08Z</time>
      </trkpt>
      <trkpt lat="47.26659" lon="6.07322">
        <ele>250.2</ele>
        <time>2021-04-10T10:33:09Z</time>
      </trkpt>
      <trkpt lat="47.2666" lon="6.07324">
        <ele>250.6</ele>
        <time>2021-04-10T10:33:10Z</time>
      </trkpt>
      <trkpt lat="47.26663" lon="6.07335">
        <ele>251.2</ele>
        <time>2021-04-10T10:33:14Z</time>
      </trkpt>
      <trkpt lat="47.26668" lon="6.07346">
        <ele>251.6</ele>
        <time>2021-04-10T10:33:17Z</time>
      </trkpt>
      <trkpt lat="47.26671" lon="6.07358">
        <ele>251.8</ele>
        <time>2021-04-10T10:33:20Z</time>
      </trkpt>
      <trkpt lat="47.26672" lon="6.07363">
        <ele>251.8</ele>
        <time>2021-04-10T10:33:21Z</time>
      </trkpt>
      <trkpt lat="47.26674" lon="6.07367">
        <ele>251.8</ele>
        <time>2021-04-10T10:33:22Z</time>
      </trkpt>
      <trkpt lat="47.26676" lon="6.07372">
        <ele>251.8</ele>
        <time>2021-04-10T10:33:23Z</time>
      </trkpt>
      <trkpt lat="47.26679" lon="6.07376">
        <ele>251.8</ele>
        <time>2021-04-10T10:33:24Z</time>
      </trkpt>
      <trkpt lat="47.26681" lon="6.07381">
        <ele>251.8</ele>
        <time>2021-04-10T10:33:25Z</time>
      </trkpt>
      <trkpt lat="47.26683" lon="6.07386">
        <ele>251.8</ele>
        <time>2021-04-10T10:33:26Z</time>
      </trkpt>
      <trkpt lat="47.26686" lon="6.07391">
        <ele>251.8</ele>
        <time>2021-04-10T10:33:27Z</time>
      </trkpt>
      <trkpt lat="47.26689" lon="6.07397">
        <ele>252</ele>
        <time>2021-04-10T10:33:28Z</time>
      </trkpt>
      <trkpt lat="47.26706" lon="6.07433">
        <ele>252.2</ele>
        <time>2021-04-10T10:33:35Z</time>
      </trkpt>
      <trkpt lat="47.26722" lon="6.07465">
        <ele>252.2</ele>
        <time>2021-04-10T10:33:42Z</time>
      </trkpt>
      <trkpt lat="47.26724" lon="6.07469">
        <ele>252.2</ele>
        <time>2021-04-10T10:33:43Z</time>
      </trkpt>
      <trkpt lat="47.26727" lon="6.07474">
        <ele>252.2</ele>
        <time>2021-04-10T10:33:44Z</time>
      </trkpt>
      <trkpt lat="47.26751" lon="6.07515">
        <ele>252.2</ele>
        <time>2021-04-10T10:33:52Z</time>
      </trkpt>
      <trkpt lat="47.26767" lon="6.07539">
        <ele>252</ele>
        <time>2021-04-10T10:33:57Z</time>
      </trkpt>
      <trkpt lat="47.26782" lon="6.07558">
        <ele>252</ele>
        <time>2021-04-10T10:34:01Z</time>
      </trkpt>
      <trkpt lat="47.2682" lon="6.07599">
        <ele>252.2</ele>
        <time>2021-04-10T10:34:10Z</time>
      </trkpt>
      <trkpt lat="47.26863" lon="6.07644">
        <ele>252</ele>
        <time>2021-04-10T10:34:20Z</time>
      </trkpt>
      <trkpt lat="47.26873" lon="6.07654">
        <ele>251.8</ele>
        <time>2021-04-10T10:34:22Z</time>
      </trkpt>
      <trkpt lat="47.26883" lon="6.07663">
        <ele>251.8</ele>
        <time>2021-04-10T10:34:24Z</time>
      </trkpt>
      <trkpt lat="47.26892" lon="6.07675">
        <ele>251.8</ele>
        <time>2021-04-10T10:34:26Z</time>
      </trkpt>
      <trkpt lat="47.26938" lon="6.07729">
        <ele>251.6</ele>
        <time>2021-04-10T10:34:35Z</time>
      </trkpt>
      <trkpt lat="47.26977" lon="6.07785">
        <ele>251.8</ele>
        <time>2021-04-10T10:34:43Z</time>
      </trkpt>
      <trkpt lat="47.26982" lon="6.07792">
        <ele>251.8</ele>
        <time>2021-04-10T10:34:44Z</time>
      </trkpt>
      <trkpt lat="47.27019" lon="6.0786">
        <ele>251.8</ele>
        <time>2021-04-10T10:34:53Z</time>
      </trkpt>
      <trkpt lat="47.27027" lon="6.07876">
        <ele>251.8</ele>
        <time>2021-04-10T10:34:55Z</time>
      </trkpt>
      <trkpt lat="47.27056" lon="6.07942">
        <ele>251.8</ele>
        <time>2021-04-10T10:35:03Z</time>
      </trkpt>
      <trkpt lat="47.27081" lon="6.08012">
        <ele>251.8</ele>
        <time>2021-04-10T10:35:11Z</time>
      </trkpt>
      <trkpt lat="47.27099" lon="6.08076">
        <ele>251.8</ele>
        <time>2021-04-10T10:35:18Z</time>
      </trkpt>
      <trkpt lat="47.27101" lon="6.08085">
        <ele>251.8</ele>
        <time>2021-04-10T10:35:19Z</time>
      </trkpt>
      <trkpt lat="47.27103" lon="6.08093">
        <ele>251.8</ele>
        <time>2021-04-10T10:35:20Z</time>
      </trkpt>
      <trkpt lat="47.27105" lon="6.08102">
        <ele>251.8</ele>
        <time>2021-04-10T10:35:21Z</time>
      </trkpt>
      <trkpt lat="47.27107" lon="6.08111">
        <ele>251.8</ele>
        <time>2021-04-10T10:35:22Z</time>
      </trkpt>
      <trkpt lat="47.27109" lon="6.0812">
        <ele>251.8</ele>
        <time>2021-04-10T10:35:23Z</time>
      </trkpt>
      <trkpt lat="47.27111" lon="6.08129">
        <ele>252</ele>
        <time>2021-04-10T10:35:24Z</time>
      </trkpt>
      <trkpt lat="47.27112" lon="6.08137">
        <ele>252</ele>
        <time>2021-04-10T10:35:25Z</time>
      </trkpt>
      <trkpt lat="47.27114" lon="6.08146">
        <ele>252</ele>
        <time>2021-04-10T10:35:26Z</time>
      </trkpt>
      <trkpt lat="47.27115" lon="6.08155">
        <ele>252</ele>
        <time>2021-04-10T10:35:27Z</time>
      </trkpt>
      <trkpt lat="47.27117" lon="6.08164">
        <ele>252</ele>
        <time>2021-04-10T10:35:28Z</time>
      </trkpt>
      <trkpt lat="47.27118" lon="6.08173">
        <ele>252</ele>
        <time>2021-04-10T10:35:29Z</time>
      </trkpt>
      <trkpt lat="47.2712" lon="6.08181">
        <ele>252</ele>
        <time>2021-04-10T10:35:30Z</time>
      </trkpt>
      <trkpt lat="47.27121" lon="6.0819">
        <ele>252.2</ele>
        <time>2021-04-10T10:35:31Z</time>
      </trkpt>
      <trkpt lat="47.27123" lon="6.08208">
        <ele>252.2</ele>
        <time>2021-04-10T10:35:33Z</time>
      </trkpt>
      <trkpt lat="47.27124" lon="6.08216">
        <ele>252.2</ele>
        <time>2021-04-10T10:35:34Z</time>
      </trkpt>
      <trkpt lat="47.27125" lon="6.08225">
        <ele>252.2</ele>
        <time>2021-04-10T10:35:35Z</time>
      </trkpt>
      <trkpt lat="47.27126" lon="6.08234">
        <ele>252.4</ele>
        <time>2021-04-10T10:35:36Z</time>
      </trkpt>
      <trkpt lat="47.27131" lon="6.08278">
        <ele>252.6</ele>
        <time>2021-04-10T10:35:41Z</time>
      </trkpt>
      <trkpt lat="47.27138" lon="6.08359">
        <ele>252.2</ele>
        <time>2021-04-10T10:35:50Z</time>
      </trkpt>
      <trkpt lat="47.27139" lon="6.08377">
        <ele>252</ele>
        <time>2021-04-10T10:35:52Z</time>
      </trkpt>
      <trkpt lat="47.2714" lon="6.08385">
        <ele>252</ele>
        <time>2021-04-10T10:35:53Z</time>
      </trkpt>
      <trkpt lat="47.27139" lon="6.0841">
        <ele>252</ele>
        <time>2021-04-10T10:35:56Z</time>
      </trkpt>
      <trkpt lat="47.27138" lon="6.08417">
        <ele>252</ele>
        <time>2021-04-10T10:35:57Z</time>
      </trkpt>
      <trkpt lat="47.27136" lon="6.08424">
        <ele>252</ele>
        <time>2021-04-10T10:35:58Z</time>
      </trkpt>
      <trkpt lat="47.27134" lon="6.0843">
        <ele>252</ele>
        <time>2021-04-10T10:35:59Z</time>
      </trkpt>
      <trkpt lat="47.27132" lon="6.08436">
        <ele>252.2</ele>
        <time>2021-04-10T10:36:00Z</time>
      </trkpt>
      <trkpt lat="47.2713" lon="6.08442">
        <ele>252.2</ele>
        <time>2021-04-10T10:36:01Z</time>
      </trkpt>
      <trkpt lat="47.27128" lon="6.08447">
        <ele>252.2</ele>
        <time>2021-04-10T10:36:02Z</time>
      </trkpt>
      <trkpt lat="47.27125" lon="6.08452">
        <ele>252.2</ele>
        <time>2021-04-10T10:36:03Z</time>
      </trkpt>
      <trkpt lat="47.27122" lon="6.08456">
        <ele>252.2</ele>
        <time>2021-04-10T10:36:04Z</time>
      </trkpt>
      <trkpt lat="47.27118" lon="6.08459">
        <ele>252.2</ele>
        <time>2021-04-10T10:36:05Z</time>
      </trkpt>
      <trkpt lat="47.27113" lon="6.08463">
        <ele>252.2</ele>
        <time>2021-04-10T10:36:06Z</time>
      </trkpt>
      <trkpt lat="47.2711" lon="6.08465">
        <ele>252.2</ele>
        <time>2021-04-10T10:36:07Z</time>
      </trkpt>
      <trkpt lat="47.27107" lon="6.08467">
        <ele>252.2</ele>
        <time>2021-04-10T10:36:08Z</time>
      </trkpt>
      <trkpt lat="47.27103" lon="6.0847">
        <ele>252</ele>
        <time>2021-04-10T10:36:09Z</time>
      </trkpt>
      <trkpt lat="47.271" lon="6.08471">
        <ele>252</ele>
        <time>2021-04-10T10:36:10Z</time>
      </trkpt>
      <trkpt lat="47.27096" lon="6.08473">
        <ele>251.8</ele>
        <time>2021-04-10T10:36:11Z</time>
      </trkpt>
      <trkpt lat="47.27092" lon="6.08474">
        <ele>251.8</ele>
        <time>2021-04-10T10:36:12Z</time>
      </trkpt>
      <trkpt lat="47.27089" lon="6.08475">
        <ele>251.8</ele>
        <time>2021-04-10T10:36:13Z</time>
      </trkpt>
      <trkpt lat="47.27085" lon="6.08476">
        <ele>251.8</ele>
        <time>2021-04-10T10:36:14Z</time>
      </trkpt>
      <trkpt lat="47.27082" lon="6.08477">
        <ele>251.8</ele>
        <time>2021-04-10T10:36:15Z</time>
      </trkpt>
      <trkpt lat="47.27079" lon="6.08478">
        <ele>251.8</ele>
        <time>2021-04-10T10:36:16Z</time>
      </trkpt>
      <trkpt lat="47.27076" lon="6.08478">
        <ele>251.8</ele>
        <time>2021-04-10T10:36:17Z</time>
      </trkpt>
      <trkpt lat="47.27073" lon="6.08479">
        <ele>252</ele>
        <time>2021-04-10T10:36:18Z</time>
      </trkpt>
      <trkpt lat="47.2707" lon="6.08479">
        <ele>252.4</ele>
        <time>2021-04-10T10:36:19Z</time>
      </trkpt>
      <trkpt lat="47.27061" lon="6.0848">
        <ele>253.6</ele>
        <time>2021-04-10T10:36:22Z</time>
      </trkpt>
      <trkpt lat="47.27051" lon="6.08481">
        <ele>254.2</ele>
        <time>2021-04-10T10:36:25Z</time>
      </trkpt>
      <trkpt lat="47.27038" lon="6.08484">
        <ele>254.6</ele>
        <time>2021-04-10T10:36:29Z</time>
      </trkpt>
      <trkpt lat="47.27029" lon="6.08486">
        <ele>254.8</ele>
        <time>2021-04-10T10:36:32Z</time>
      </trkpt>
      <trkpt lat="47.27025" lon="6.08487">
        <ele>254.8</ele>
        <time>2021-04-10T10:36:33Z</time>
      </trkpt>
      <trkpt lat="47.27022" lon="6.08488">
        <ele>254.8</ele>
        <time>2021-04-10T10:36:34Z</time>
      </trkpt>
      <trkpt lat="47.27018" lon="6.08488">
        <ele>254.8</ele>
        <time>2021-04-10T10:36:35Z</time>
      </trkpt>
      <trkpt lat="47.27016" lon="6.08489">
        <ele>255</ele>
        <time>2021-04-10T10:36:36Z</time>
      </trkpt>
      <trkpt lat="47.27013" lon="6.08489">
        <ele>255</ele>
        <time>2021-04-10T10:36:37Z</time>
      </trkpt>
      <trkpt lat="47.27009" lon="6.0849">
        <ele>255.2</ele>
        <time>2021-04-10T10:36:38Z</time>
      </trkpt>
      <trkpt lat="47.27006" lon="6.08491">
        <ele>255.2</ele>
        <time>2021-04-10T10:36:39Z</time>
      </trkpt>
      <trkpt lat="47.27002" lon="6.08492">
        <ele>255.4</ele>
        <time>2021-04-10T10:36:40Z</time>
      </trkpt>
      <trkpt lat="47.26998" lon="6.08493">
        <ele>255.4</ele>
        <time>2021-04-10T10:36:41Z</time>
      </trkpt>
      <trkpt lat="47.26995" lon="6.08494">
        <ele>255.6</ele>
        <time>2021-04-10T10:36:42Z</time>
      </trkpt>
      <trkpt lat="47.26991" lon="6.08495">
        <ele>255.6</ele>
        <time>2021-04-10T10:36:43Z</time>
      </trkpt>
      <trkpt lat="47.26987" lon="6.08496">
        <ele>255.8</ele>
        <time>2021-04-10T10:36:44Z</time>
      </trkpt>
      <trkpt lat="47.26984" lon="6.08497">
        <ele>256</ele>
        <time>2021-04-10T10:36:45Z</time>
      </trkpt>
      <trkpt lat="47.2698" lon="6.08498">
        <ele>256</ele>
        <time>2021-04-10T10:36:46Z</time>
      </trkpt>
      <trkpt lat="47.26976" lon="6.08499">
        <ele>256</ele>
        <time>2021-04-10T10:36:47Z</time>
      </trkpt>
      <trkpt lat="47.26972" lon="6.085">
        <ele>256.2</ele>
        <time>2021-04-10T10:36:48Z</time>
      </trkpt>
      <trkpt lat="47.26968" lon="6.08501">
        <ele>256.2</ele>
        <time>2021-04-10T10:36:49Z</time>
      </trkpt>
      <trkpt lat="47.26963" lon="6.08502">
        <ele>256.2</ele>
        <time>2021-04-10T10:36:50Z</time>
      </trkpt>
      <trkpt lat="47.2696" lon="6.08503">
        <ele>256.2</ele>
        <time>2021-04-10T10:36:51Z</time>
      </trkpt>
      <trkpt lat="47.26939" lon="6.08508">
        <ele>256.2</ele>
        <time>2021-04-10T10:36:56Z</time>
      </trkpt>
      <trkpt lat="47.26905" lon="6.08517">
        <ele>255.6</ele>
        <time>2021-04-10T10:37:03Z</time>
      </trkpt>
      <trkpt lat="47.269" lon="6.08518">
        <ele>255.6</ele>
        <time>2021-04-10T10:37:04Z</time>
      </trkpt>
      <trkpt lat="47.2689" lon="6.08523">
        <ele>255.2</ele>
        <time>2021-04-10T10:37:06Z</time>
      </trkpt>
      <trkpt lat="47.2688" lon="6.08531">
        <ele>254.8</ele>
        <time>2021-04-10T10:37:08Z</time>
      </trkpt>
      <trkpt lat="47.26875" lon="6.08535">
        <ele>254.6</ele>
        <time>2021-04-10T10:37:09Z</time>
      </trkpt>
      <trkpt lat="47.26853" lon="6.08562">
        <ele>253.8</ele>
        <time>2021-04-10T10:37:14Z</time>
      </trkpt>
      <trkpt lat="47.26849" lon="6.0857">
        <ele>253.8</ele>
        <time>2021-04-10T10:37:15Z</time>
      </trkpt>
      <trkpt lat="47.26838" lon="6.08603">
        <ele>253.6</ele>
        <time>2021-04-10T10:37:19Z</time>
      </trkpt>
      <trkpt lat="47.26833" lon="6.08629">
        <ele>253</ele>
        <time>2021-04-10T10:37:22Z</time>
      </trkpt>
      <trkpt lat="47.26832" lon="6.08647">
        <ele>252.4</ele>
        <time>2021-04-10T10:37:24Z</time>
      </trkpt>
      <trkpt lat="47.26833" lon="6.08664">
        <ele>251.8</ele>
        <time>2021-04-10T10:37:26Z</time>
      </trkpt>
      <trkpt lat="47.26833" lon="6.08673">
        <ele>251.6</ele>
        <time>2021-04-10T10:37:27Z</time>
      </trkpt>
      <trkpt lat="47.26834" lon="6.08681">
        <ele>251.6</ele>
        <time>2021-04-10T10:37:28Z</time>
      </trkpt>
      <trkpt lat="47.26835" lon="6.08696">
        <ele>251.4</ele>
        <time>2021-04-10T10:37:30Z</time>
      </trkpt>
      <trkpt lat="47.26835" lon="6.08703">
        <ele>251.2</ele>
        <time>2021-04-10T10:37:31Z</time>
      </trkpt>
      <trkpt lat="47.26836" lon="6.08711">
        <ele>251.2</ele>
        <time>2021-04-10T10:37:32Z</time>
      </trkpt>
      <trkpt lat="47.26837" lon="6.08717">
        <ele>251.2</ele>
        <time>2021-04-10T10:37:33Z</time>
      </trkpt>
      <trkpt lat="47.26837" lon="6.08723">
        <ele>251</ele>
        <time>2021-04-10T10:37:34Z</time>
      </trkpt>
      <trkpt lat="47.26838" lon="6.08729">
        <ele>251</ele>
        <time>2021-04-10T10:37:35Z</time>
      </trkpt>
      <trkpt lat="47.26838" lon="6.08736">
        <ele>251</ele>
        <time>2021-04-10T10:37:36Z</time>
      </trkpt>
      <trkpt lat="47.26839" lon="6.08742">
        <ele>251</ele>
        <time>2021-04-10T10:37:37Z</time>
      </trkpt>
      <trkpt lat="47.26841" lon="6.08774">
        <ele>250.8</ele>
        <time>2021-04-10T10:37:42Z</time>
      </trkpt>
      <trkpt lat="47.2684" lon="6.08781">
        <ele>250.8</ele>
        <time>2021-04-10T10:37:43Z</time>
      </trkpt>
      <trkpt lat="47.26838" lon="6.08786">
        <ele>250.8</ele>
        <time>2021-04-10T10:37:44Z</time>
      </trkpt>
      <trkpt lat="47.26834" lon="6.08791">
        <ele>250.8</ele>
        <time>2021-04-10T10:37:45Z</time>
      </trkpt>
      <trkpt lat="47.26831" lon="6.08793">
        <ele>250.8</ele>
        <time>2021-04-10T10:37:46Z</time>
      </trkpt>
      <trkpt lat="47.26823" lon="6.08799">
        <ele>250.8</ele>
        <time>2021-04-10T10:37:48Z</time>
      </trkpt>
      <trkpt lat="47.26819" lon="6.08802">
        <ele>250.6</ele>
        <time>2021-04-10T10:37:49Z</time>
      </trkpt>
      <trkpt lat="47.26794" lon="6.08824">
        <ele>250.6</ele>
        <time>2021-04-10T10:37:55Z</time>
      </trkpt>
      <trkpt lat="47.26764" lon="6.0886">
        <ele>250.8</ele>
        <time>2021-04-10T10:38:03Z</time>
      </trkpt>
      <trkpt lat="47.2676" lon="6.08863">
        <ele>250.8</ele>
        <time>2021-04-10T10:38:04Z</time>
      </trkpt>
      <trkpt lat="47.26757" lon="6.08867">
        <ele>251</ele>
        <time>2021-04-10T10:38:05Z</time>
      </trkpt>
      <trkpt lat="47.26749" lon="6.08872">
        <ele>251</ele>
        <time>2021-04-10T10:38:07Z</time>
      </trkpt>
      <trkpt lat="47.26746" lon="6.08874">
        <ele>251</ele>
        <time>2021-04-10T10:38:08Z</time>
      </trkpt>
      <trkpt lat="47.26743" lon="6.08876">
        <ele>251.2</ele>
        <time>2021-04-10T10:38:09Z</time>
      </trkpt>
      <trkpt lat="47.2674" lon="6.08879">
        <ele>251.2</ele>
        <time>2021-04-10T10:38:10Z</time>
      </trkpt>
      <trkpt lat="47.26738" lon="6.08882">
        <ele>251.2</ele>
        <time>2021-04-10T10:38:11Z</time>
      </trkpt>
      <trkpt lat="47.26735" lon="6.08886">
        <ele>251.2</ele>
        <time>2021-04-10T10:38:12Z</time>
      </trkpt>
      <trkpt lat="47.26733" lon="6.08889">
        <ele>251.2</ele>
        <time>2021-04-10T10:38:13Z</time>
      </trkpt>
      <trkpt lat="47.26731" lon="6.08893">
        <ele>251.4</ele>
        <time>2021-04-10T10:38:14Z</time>
      </trkpt>
      <trkpt lat="47.2673" lon="6.08896">
        <ele>251.4</ele>
        <time>2021-04-10T10:38:15Z</time>
      </trkpt>
      <trkpt lat="47.26727" lon="6.08905">
        <ele>252</ele>
        <time>2021-04-10T10:38:18Z</time>
      </trkpt>
      <trkpt lat="47.26725" lon="6.08908">
        <ele>252.2</ele>
        <time>2021-04-10T10:38:19Z</time>
      </trkpt>
      <trkpt lat="47.26724" lon="6.0891">
        <ele>252.4</ele>
        <time>2021-04-10T10:38:20Z</time>
      </trkpt>
      <trkpt lat="47.26722" lon="6.08913">
        <ele>252.8</ele>
        <time>2021-04-10T10:38:21Z</time>
      </trkpt>
      <trkpt lat="47.26721" lon="6.08916">
        <ele>252.8</ele>
        <time>2021-04-10T10:38:22Z</time>
      </trkpt>
      <trkpt lat="47.26719" lon="6.08918">
        <ele>253.2</ele>
        <time>2021-04-10T10:38:23Z</time>
      </trkpt>
      <trkpt lat="47.26718" lon="6.0892">
        <ele>253.4</ele>
        <time>2021-04-10T10:38:24Z</time>
      </trkpt>
      <trkpt lat="47.26717" lon="6.08922">
        <ele>253.8</ele>
        <time>2021-04-10T10:38:25Z</time>
      </trkpt>
      <trkpt lat="47.26716" lon="6.08923">
        <ele>254</ele>
        <time>2021-04-10T10:38:26Z</time>
      </trkpt>
      <trkpt lat="47.26714" lon="6.08925">
        <ele>254.4</ele>
        <time>2021-04-10T10:38:27Z</time>
      </trkpt>
      <trkpt lat="47.26712" lon="6.08926">
        <ele>254.8</ele>
        <time>2021-04-10T10:38:28Z</time>
      </trkpt>
      <trkpt lat="47.26709" lon="6.08927">
        <ele>255</ele>
        <time>2021-04-10T10:38:29Z</time>
      </trkpt>
      <trkpt lat="47.26707" lon="6.08928">
        <ele>255.4</ele>
        <time>2021-04-10T10:38:30Z</time>
      </trkpt>
      <trkpt lat="47.26705" lon="6.08928">
        <ele>255.6</ele>
        <time>2021-04-10T10:38:31Z</time>
      </trkpt>
      <trkpt lat="47.26703" lon="6.08929">
        <ele>256</ele>
        <time>2021-04-10T10:38:32Z</time>
      </trkpt>
      <trkpt lat="47.26701" lon="6.08929">
        <ele>256.4</ele>
        <time>2021-04-10T10:38:33Z</time>
      </trkpt>
      <trkpt lat="47.26699" lon="6.08929">
        <ele>256.8</ele>
        <time>2021-04-10T10:38:34Z</time>
      </trkpt>
      <trkpt lat="47.26697" lon="6.08929">
        <ele>257</ele>
        <time>2021-04-10T10:38:35Z</time>
      </trkpt>
      <trkpt lat="47.26696" lon="6.08929">
        <ele>257.2</ele>
        <time>2021-04-10T10:38:36Z</time>
      </trkpt>
      <trkpt lat="47.26694" lon="6.08929">
        <ele>257.6</ele>
        <time>2021-04-10T10:38:37Z</time>
      </trkpt>
      <trkpt lat="47.26692" lon="6.08928">
        <ele>257.6</ele>
        <time>2021-04-10T10:38:38Z</time>
      </trkpt>
      <trkpt lat="47.26691" lon="6.08928">
        <ele>257.8</ele>
        <time>2021-04-10T10:38:39Z</time>
      </trkpt>
      <trkpt lat="47.26689" lon="6.08928">
        <ele>258.2</ele>
        <time>2021-04-10T10:38:40Z</time>
      </trkpt>
      <trkpt lat="47.26688" lon="6.08928">
        <ele>258.6</ele>
        <time>2021-04-10T10:38:41Z</time>
      </trkpt>
      <trkpt lat="47.26685" lon="6.08928">
        <ele>258.8</ele>
        <time>2021-04-10T10:38:42Z</time>
      </trkpt>
      <trkpt lat="47.26684" lon="6.08928">
        <ele>259.2</ele>
        <time>2021-04-10T10:38:43Z</time>
      </trkpt>
      <trkpt lat="47.26682" lon="6.08927">
        <ele>259.4</ele>
        <time>2021-04-10T10:38:44Z</time>
      </trkpt>
      <trkpt lat="47.26681" lon="6.08927">
        <ele>259.8</ele>
        <time>2021-04-10T10:38:45Z</time>
      </trkpt>
      <trkpt lat="47.26679" lon="6.08927">
        <ele>259.8</ele>
        <time>2021-04-10T10:38:46Z</time>
      </trkpt>
      <trkpt lat="47.26678" lon="6.08927">
        <ele>260</ele>
        <time>2021-04-10T10:38:47Z</time>
      </trkpt>
      <trkpt lat="47.26676" lon="6.08927">
        <ele>260.4</ele>
        <time>2021-04-10T10:38:48Z</time>
      </trkpt>
      <trkpt lat="47.26675" lon="6.08927">
        <ele>260.6</ele>
        <time>2021-04-10T10:38:49Z</time>
      </trkpt>
      <trkpt lat="47.26674" lon="6.08927">
        <ele>260.8</ele>
        <time>2021-04-10T10:38:50Z</time>
      </trkpt>
      <trkpt lat="47.26672" lon="6.08927">
        <ele>260.8</ele>
        <time>2021-04-10T10:38:51Z</time>
      </trkpt>
      <trkpt lat="47.26671" lon="6.08927">
        <ele>261.2</ele>
        <time>2021-04-10T10:38:52Z</time>
      </trkpt>
      <trkpt lat="47.26669" lon="6.08927">
        <ele>261.4</ele>
        <time>2021-04-10T10:38:53Z</time>
      </trkpt>
      <trkpt lat="47.26668" lon="6.08927">
        <ele>261.8</ele>
        <time>2021-04-10T10:38:54Z</time>
      </trkpt>
      <trkpt lat="47.26666" lon="6.08927">
        <ele>261.8</ele>
        <time>2021-04-10T10:38:55Z</time>
      </trkpt>
      <trkpt lat="47.26664" lon="6.08927">
        <ele>262</ele>
        <time>2021-04-10T10:38:56Z</time>
      </trkpt>
      <trkpt lat="47.26662" lon="6.08927">
        <ele>262.2</ele>
        <time>2021-04-10T10:38:57Z</time>
      </trkpt>
      <trkpt lat="47.2666" lon="6.08926">
        <ele>262.4</ele>
        <time>2021-04-10T10:38:58Z</time>
      </trkpt>
      <trkpt lat="47.26658" lon="6.08926">
        <ele>262.6</ele>
        <time>2021-04-10T10:38:59Z</time>
      </trkpt>
      <trkpt lat="47.26656" lon="6.08926">
        <ele>262.6</ele>
        <time>2021-04-10T10:39:00Z</time>
      </trkpt>
      <trkpt lat="47.26655" lon="6.08925">
        <ele>262.8</ele>
        <time>2021-04-10T10:39:01Z</time>
      </trkpt>
      <trkpt lat="47.26654" lon="6.08925">
        <ele>263</ele>
        <time>2021-04-10T10:39:02Z</time>
      </trkpt>
      <trkpt lat="47.26652" lon="6.08925">
        <ele>263.2</ele>
        <time>2021-04-10T10:39:03Z</time>
      </trkpt>
      <trkpt lat="47.26651" lon="6.08925">
        <ele>263.4</ele>
        <time>2021-04-10T10:39:04Z</time>
      </trkpt>
      <trkpt lat="47.2665" lon="6.08925">
        <ele>263.6</ele>
        <time>2021-04-10T10:39:05Z</time>
      </trkpt>
      <trkpt lat="47.26649" lon="6.08925">
        <ele>264</ele>
        <time>2021-04-10T10:39:06Z</time>
      </trkpt>
      <trkpt lat="47.26648" lon="6.08925">
        <ele>264.2</ele>
        <time>2021-04-10T10:39:07Z</time>
      </trkpt>
      <trkpt lat="47.26647" lon="6.08925">
        <ele>264.4</ele>
        <time>2021-04-10T10:39:08Z</time>
      </trkpt>
      <trkpt lat="47.26646" lon="6.08925">
        <ele>264.6</ele>
        <time>2021-04-10T10:39:09Z</time>
      </trkpt>
      <trkpt lat="47.26644" lon="6.08925">
        <ele>264.6</ele>
        <time>2021-04-10T10:39:10Z</time>
      </trkpt>
      <trkpt lat="47.26643" lon="6.08925">
        <ele>264.8</ele>
        <time>2021-04-10T10:39:11Z</time>
      </trkpt>
      <trkpt lat="47.26641" lon="6.08925">
        <ele>265.2</ele>
        <time>2021-04-10T10:39:12Z</time>
      </trkpt>
      <trkpt lat="47.2664" lon="6.08925">
        <ele>265.4</ele>
        <time>2021-04-10T10:39:13Z</time>
      </trkpt>
      <trkpt lat="47.26638" lon="6.08924">
        <ele>265.4</ele>
        <time>2021-04-10T10:39:14Z</time>
      </trkpt>
      <trkpt lat="47.26636" lon="6.08924">
        <ele>265.6</ele>
        <time>2021-04-10T10:39:15Z</time>
      </trkpt>
      <trkpt lat="47.26635" lon="6.08924">
        <ele>265.6</ele>
        <time>2021-04-10T10:39:16Z</time>
      </trkpt>
      <trkpt lat="47.26633" lon="6.08924">
        <ele>265.8</ele>
        <time>2021-04-10T10:39:17Z</time>
      </trkpt>
      <trkpt lat="47.26631" lon="6.08924">
        <ele>266</ele>
        <time>2021-04-10T10:39:18Z</time>
      </trkpt>
      <trkpt lat="47.2663" lon="6.08924">
        <ele>266</ele>
        <time>2021-04-10T10:39:19Z</time>
      </trkpt>
      <trkpt lat="47.26627" lon="6.08924">
        <ele>266.2</ele>
        <time>2021-04-10T10:39:20Z</time>
      </trkpt>
      <trkpt lat="47.26626" lon="6.08924">
        <ele>266.4</ele>
        <time>2021-04-10T10:39:21Z</time>
      </trkpt>
      <trkpt lat="47.26624" lon="6.08924">
        <ele>266.6</ele>
        <time>2021-04-10T10:39:22Z</time>
      </trkpt>
      <trkpt lat="47.26622" lon="6.08924">
        <ele>266.8</ele>
        <time>2021-04-10T10:39:23Z</time>
      </trkpt>
      <trkpt lat="47.26621" lon="6.08924">
        <ele>266.8</ele>
        <time>2021-04-10T10:39:24Z</time>
      </trkpt>
      <trkpt lat="47.26619" lon="6.08924">
        <ele>267.2</ele>
        <time>2021-04-10T10:39:25Z</time>
      </trkpt>
      <trkpt lat="47.26617" lon="6.08924">
        <ele>267.4</ele>
        <time>2021-04-10T10:39:26Z</time>
      </trkpt>
      <trkpt lat="47.26615" lon="6.08924">
        <ele>267.6</ele>
        <time>2021-04-10T10:39:27Z</time>
      </trkpt>
      <trkpt lat="47.26614" lon="6.08924">
        <ele>267.6</ele>
        <time>2021-04-10T10:39:28Z</time>
      </trkpt>
      <trkpt lat="47.26612" lon="6.08924">
        <ele>267.8</ele>
        <time>2021-04-10T10:39:29Z</time>
      </trkpt>
      <trkpt lat="47.2661" lon="6.08924">
        <ele>267.8</ele>
        <time>2021-04-10T10:39:30Z</time>
      </trkpt>
      <trkpt lat="47.26609" lon="6.08924">
        <ele>268.2</ele>
        <time>2021-04-10T10:39:31Z</time>
      </trkpt>
      <trkpt lat="47.26607" lon="6.08924">
        <ele>268.4</ele>
        <time>2021-04-10T10:39:32Z</time>
      </trkpt>
      <trkpt lat="47.26606" lon="6.08923">
        <ele>268.6</ele>
        <time>2021-04-10T10:39:33Z</time>
      </trkpt>
      <trkpt lat="47.26604" lon="6.08923">
        <ele>268.8</ele>
        <time>2021-04-10T10:39:34Z</time>
      </trkpt>
      <trkpt lat="47.26603" lon="6.08923">
        <ele>269</ele>
        <time>2021-04-10T10:39:35Z</time>
      </trkpt>
      <trkpt lat="47.26601" lon="6.08924">
        <ele>269.2</ele>
        <time>2021-04-10T10:39:36Z</time>
      </trkpt>
      <trkpt lat="47.266" lon="6.08924">
        <ele>269.4</ele>
        <time>2021-04-10T10:39:37Z</time>
      </trkpt>
      <trkpt lat="47.26599" lon="6.08924">
        <ele>269.6</ele>
        <time>2021-04-10T10:39:38Z</time>
      </trkpt>
      <trkpt lat="47.26597" lon="6.08924">
        <ele>270</ele>
        <time>2021-04-10T10:39:39Z</time>
      </trkpt>
      <trkpt lat="47.26596" lon="6.08924">
        <ele>270</ele>
        <time>2021-04-10T10:39:40Z</time>
      </trkpt>
      <trkpt lat="47.26595" lon="6.08925">
        <ele>270.2</ele>
        <time>2021-04-10T10:39:41Z</time>
      </trkpt>
      <trkpt lat="47.26593" lon="6.08924">
        <ele>270.2</ele>
        <time>2021-04-10T10:39:42Z</time>
      </trkpt>
      <trkpt lat="47.26592" lon="6.08925">
        <ele>270.6</ele>
        <time>2021-04-10T10:39:43Z</time>
      </trkpt>
      <trkpt lat="47.2659" lon="6.08925">
        <ele>270.8</ele>
        <time>2021-04-10T10:39:44Z</time>
      </trkpt>
      <trkpt lat="47.26589" lon="6.08924">
        <ele>270.8</ele>
        <time>2021-04-10T10:39:45Z</time>
      </trkpt>
      <trkpt lat="47.26587" lon="6.08924">
        <ele>271</ele>
        <time>2021-04-10T10:39:46Z</time>
      </trkpt>
      <trkpt lat="47.26586" lon="6.08924">
        <ele>271</ele>
        <time>2021-04-10T10:39:47Z</time>
      </trkpt>
      <trkpt lat="47.26585" lon="6.08924">
        <ele>271.2</ele>
        <time>2021-04-10T10:39:48Z</time>
      </trkpt>
      <trkpt lat="47.26583" lon="6.08924">
        <ele>271.4</ele>
        <time>2021-04-10T10:39:49Z</time>
      </trkpt>
      <trkpt lat="47.26582" lon="6.08924">
        <ele>271.6</ele>
        <time>2021-04-10T10:39:50Z</time>
      </trkpt>
      <trkpt lat="47.26581" lon="6.08924">
        <ele>271.8</ele>
        <time>2021-04-10T10:39:51Z</time>
      </trkpt>
      <trkpt lat="47.26579" lon="6.08924">
        <ele>272</ele>
        <time>2021-04-10T10:39:52Z</time>
      </trkpt>
      <trkpt lat="47.26578" lon="6.08924">
        <ele>272</ele>
        <time>2021-04-10T10:39:53Z</time>
      </trkpt>
      <trkpt lat="47.26577" lon="6.08924">
        <ele>272.2</ele>
        <time>2021-04-10T10:39:54Z</time>
      </trkpt>
      <trkpt lat="47.26575" lon="6.08924">
        <ele>272.6</ele>
        <time>2021-04-10T10:39:55Z</time>
      </trkpt>
      <trkpt lat="47.26573" lon="6.08924">
        <ele>272.8</ele>
        <time>2021-04-10T10:39:56Z</time>
      </trkpt>
      <trkpt lat="47.26572" lon="6.08924">
        <ele>273</ele>
        <time>2021-04-10T10:39:57Z</time>
      </trkpt>
      <trkpt lat="47.2657" lon="6.08924">
        <ele>273.2</ele>
        <time>2021-04-10T10:39:58Z</time>
      </trkpt>
      <trkpt lat="47.26569" lon="6.08924">
        <ele>273.6</ele>
        <time>2021-04-10T10:39:59Z</time>
      </trkpt>
      <trkpt lat="47.26567" lon="6.08924">
        <ele>273.6</ele>
        <time>2021-04-10T10:40:00Z</time>
      </trkpt>
      <trkpt lat="47.26566" lon="6.08924">
        <ele>273.8</ele>
        <time>2021-04-10T10:40:01Z</time>
      </trkpt>
      <trkpt lat="47.26564" lon="6.08924">
        <ele>273.8</ele>
        <time>2021-04-10T10:40:02Z</time>
      </trkpt>
      <trkpt lat="47.26563" lon="6.08924">
        <ele>274</ele>
        <time>2021-04-10T10:40:03Z</time>
      </trkpt>
      <trkpt lat="47.26561" lon="6.08923">
        <ele>274</ele>
        <time>2021-04-10T10:40:04Z</time>
      </trkpt>
      <trkpt lat="47.2656" lon="6.08923">
        <ele>274</ele>
        <time>2021-04-10T10:40:05Z</time>
      </trkpt>
      <trkpt lat="47.26558" lon="6.08922">
        <ele>274.4</ele>
        <time>2021-04-10T10:40:06Z</time>
      </trkpt>
      <trkpt lat="47.26557" lon="6.08922">
        <ele>274.4</ele>
        <time>2021-04-10T10:40:07Z</time>
      </trkpt>
      <trkpt lat="47.26555" lon="6.08922">
        <ele>274.8</ele>
        <time>2021-04-10T10:40:08Z</time>
      </trkpt>
      <trkpt lat="47.26554" lon="6.08922">
        <ele>274.8</ele>
        <time>2021-04-10T10:40:09Z</time>
      </trkpt>
      <trkpt lat="47.26552" lon="6.08922">
        <ele>275</ele>
        <time>2021-04-10T10:40:10Z</time>
      </trkpt>
      <trkpt lat="47.26551" lon="6.08922">
        <ele>275.2</ele>
        <time>2021-04-10T10:40:11Z</time>
      </trkpt>
      <trkpt lat="47.26549" lon="6.08922">
        <ele>275.6</ele>
        <time>2021-04-10T10:40:12Z</time>
      </trkpt>
      <trkpt lat="47.26548" lon="6.08923">
        <ele>275.8</ele>
        <time>2021-04-10T10:40:13Z</time>
      </trkpt>
      <trkpt lat="47.26546" lon="6.08923">
        <ele>276</ele>
        <time>2021-04-10T10:40:14Z</time>
      </trkpt>
      <trkpt lat="47.26545" lon="6.08923">
        <ele>276.2</ele>
        <time>2021-04-10T10:40:15Z</time>
      </trkpt>
      <trkpt lat="47.26543" lon="6.08923">
        <ele>276.4</ele>
        <time>2021-04-10T10:40:16Z</time>
      </trkpt>
      <trkpt lat="47.26542" lon="6.08923">
        <ele>276.8</ele>
        <time>2021-04-10T10:40:17Z</time>
      </trkpt>
      <trkpt lat="47.2654" lon="6.08922">
        <ele>277</ele>
        <time>2021-04-10T10:40:18Z</time>
      </trkpt>
      <trkpt lat="47.26539" lon="6.08922">
        <ele>277.2</ele>
        <time>2021-04-10T10:40:19Z</time>
      </trkpt>
      <trkpt lat="47.26537" lon="6.08922">
        <ele>277.2</ele>
        <time>2021-04-10T10:40:20Z</time>
      </trkpt>
      <trkpt lat="47.26536" lon="6.08922">
        <ele>277.4</ele>
        <time>2021-04-10T10:40:21Z</time>
      </trkpt>
      <trkpt lat="47.26534" lon="6.08922">
        <ele>277.6</ele>
        <time>2021-04-10T10:40:22Z</time>
      </trkpt>
      <trkpt lat="47.26533" lon="6.08922">
        <ele>277.6</ele>
        <time>2021-04-10T10:40:23Z</time>
      </trkpt>
      <trkpt lat="47.26531" lon="6.08921">
        <ele>277.8</ele>
        <time>2021-04-10T10:40:24Z</time>
      </trkpt>
      <trkpt lat="47.2653" lon="6.08921">
        <ele>278</ele>
        <time>2021-04-10T10:40:25Z</time>
      </trkpt>
      <trkpt lat="47.26528" lon="6.08921">
        <ele>278.2</ele>
        <time>2021-04-10T10:40:26Z</time>
      </trkpt>
      <trkpt lat="47.26527" lon="6.08921">
        <ele>278.4</ele>
        <time>2021-04-10T10:40:27Z</time>
      </trkpt>
      <trkpt lat="47.26525" lon="6.08921">
        <ele>278.6</ele>
        <time>2021-04-10T10:40:28Z</time>
      </trkpt>
      <trkpt lat="47.26523" lon="6.08921">
        <ele>279</ele>
        <time>2021-04-10T10:40:29Z</time>
      </trkpt>
      <trkpt lat="47.26522" lon="6.08921">
        <ele>279.2</ele>
        <time>2021-04-10T10:40:30Z</time>
      </trkpt>
      <trkpt lat="47.2652" lon="6.08921">
        <ele>279.2</ele>
        <time>2021-04-10T10:40:31Z</time>
      </trkpt>
      <trkpt lat="47.26519" lon="6.08921">
        <ele>279.2</ele>
        <time>2021-04-10T10:40:32Z</time>
      </trkpt>
      <trkpt lat="47.26517" lon="6.08921">
        <ele>279.4</ele>
        <time>2021-04-10T10:40:33Z</time>
      </trkpt>
      <trkpt lat="47.26516" lon="6.08921">
        <ele>279.4</ele>
        <time>2021-04-10T10:40:34Z</time>
      </trkpt>
      <trkpt lat="47.26514" lon="6.08921">
        <ele>279.6</ele>
        <time>2021-04-10T10:40:35Z</time>
      </trkpt>
      <trkpt lat="47.26513" lon="6.08921">
        <ele>279.6</ele>
        <time>2021-04-10T10:40:36Z</time>
      </trkpt>
      <trkpt lat="47.26511" lon="6.08921">
        <ele>279.8</ele>
        <time>2021-04-10T10:40:37Z</time>
      </trkpt>
      <trkpt lat="47.2651" lon="6.08921">
        <ele>279.8</ele>
        <time>2021-04-10T10:40:38Z</time>
      </trkpt>
      <trkpt lat="47.26508" lon="6.0892">
        <ele>280</ele>
        <time>2021-04-10T10:40:39Z</time>
      </trkpt>
      <trkpt lat="47.26507" lon="6.0892">
        <ele>280</ele>
        <time>2021-04-10T10:40:40Z</time>
      </trkpt>
      <trkpt lat="47.26505" lon="6.08919">
        <ele>280.2</ele>
        <time>2021-04-10T10:40:41Z</time>
      </trkpt>
      <trkpt lat="47.26504" lon="6.08919">
        <ele>280.6</ele>
        <time>2021-04-10T10:40:42Z</time>
      </trkpt>
      <trkpt lat="47.26502" lon="6.08919">
        <ele>280.8</ele>
        <time>2021-04-10T10:40:43Z</time>
      </trkpt>
      <trkpt lat="47.265" lon="6.08919">
        <ele>281</ele>
        <time>2021-04-10T10:40:44Z</time>
      </trkpt>
      <trkpt lat="47.26499" lon="6.08919">
        <ele>281</ele>
        <time>2021-04-10T10:40:45Z</time>
      </trkpt>
      <trkpt lat="47.26497" lon="6.08918">
        <ele>281</ele>
        <time>2021-04-10T10:40:46Z</time>
      </trkpt>
      <trkpt lat="47.26496" lon="6.08918">
        <ele>281.2</ele>
        <time>2021-04-10T10:40:47Z</time>
      </trkpt>
      <trkpt lat="47.26495" lon="6.08918">
        <ele>281.4</ele>
        <time>2021-04-10T10:40:48Z</time>
      </trkpt>
      <trkpt lat="47.26493" lon="6.08918">
        <ele>281.4</ele>
        <time>2021-04-10T10:40:49Z</time>
      </trkpt>
      <trkpt lat="47.26491" lon="6.08918">
        <ele>281.4</ele>
        <time>2021-04-10T10:40:50Z</time>
      </trkpt>
      <trkpt lat="47.2649" lon="6.08918">
        <ele>281.6</ele>
        <time>2021-04-10T10:40:51Z</time>
      </trkpt>
      <trkpt lat="47.26488" lon="6.08917">
        <ele>281.6</ele>
        <time>2021-04-10T10:40:52Z</time>
      </trkpt>
      <trkpt lat="47.26486" lon="6.08917">
        <ele>282.2</ele>
        <time>2021-04-10T10:40:53Z</time>
      </trkpt>
      <trkpt lat="47.26485" lon="6.08917">
        <ele>282.2</ele>
        <time>2021-04-10T10:40:54Z</time>
      </trkpt>
      <trkpt lat="47.26483" lon="6.08917">
        <ele>282.6</ele>
        <time>2021-04-10T10:40:55Z</time>
      </trkpt>
      <trkpt lat="47.26481" lon="6.08917">
        <ele>282.8</ele>
        <time>2021-04-10T10:40:56Z</time>
      </trkpt>
      <trkpt lat="47.2648" lon="6.08916">
        <ele>283</ele>
        <time>2021-04-10T10:40:57Z</time>
      </trkpt>
      <trkpt lat="47.26478" lon="6.08916">
        <ele>283.2</ele>
        <time>2021-04-10T10:40:58Z</time>
      </trkpt>
      <trkpt lat="47.26477" lon="6.08916">
        <ele>283.4</ele>
        <time>2021-04-10T10:40:59Z</time>
      </trkpt>
      <trkpt lat="47.26475" lon="6.08916">
        <ele>283.6</ele>
        <time>2021-04-10T10:41:00Z</time>
      </trkpt>
      <trkpt lat="47.26473" lon="6.08915">
        <ele>283.8</ele>
        <time>2021-04-10T10:41:01Z</time>
      </trkpt>
      <trkpt lat="47.26472" lon="6.08915">
        <ele>283.8</ele>
        <time>2021-04-10T10:41:02Z</time>
      </trkpt>
      <trkpt lat="47.2647" lon="6.08914">
        <ele>283.8</ele>
        <time>2021-04-10T10:41:03Z</time>
      </trkpt>
      <trkpt lat="47.26469" lon="6.08914">
        <ele>283.8</ele>
        <time>2021-04-10T10:41:04Z</time>
      </trkpt>
      <trkpt lat="47.26468" lon="6.08914">
        <ele>284</ele>
        <time>2021-04-10T10:41:05Z</time>
      </trkpt>
      <trkpt lat="47.26466" lon="6.08914">
        <ele>284</ele>
        <time>2021-04-10T10:41:06Z</time>
      </trkpt>
      <trkpt lat="47.26465" lon="6.08914">
        <ele>284</ele>
        <time>2021-04-10T10:41:07Z</time>
      </trkpt>
      <trkpt lat="47.26463" lon="6.08913">
        <ele>284.2</ele>
        <time>2021-04-10T10:41:08Z</time>
      </trkpt>
      <trkpt lat="47.26462" lon="6.08913">
        <ele>284.2</ele>
        <time>2021-04-10T10:41:09Z</time>
      </trkpt>
      <trkpt lat="47.2646" lon="6.08912">
        <ele>284.4</ele>
        <time>2021-04-10T10:41:10Z</time>
      </trkpt>
      <trkpt lat="47.26459" lon="6.08912">
        <ele>285</ele>
        <time>2021-04-10T10:41:11Z</time>
      </trkpt>
      <trkpt lat="47.26457" lon="6.08911">
        <ele>285</ele>
        <time>2021-04-10T10:41:12Z</time>
      </trkpt>
      <trkpt lat="47.26455" lon="6.08911">
        <ele>285.4</ele>
        <time>2021-04-10T10:41:13Z</time>
      </trkpt>
      <trkpt lat="47.26453" lon="6.08911">
        <ele>285.6</ele>
        <time>2021-04-10T10:41:14Z</time>
      </trkpt>
      <trkpt lat="47.26451" lon="6.0891">
        <ele>285.6</ele>
        <time>2021-04-10T10:41:15Z</time>
      </trkpt>
      <trkpt lat="47.2645" lon="6.0891">
        <ele>285.8</ele>
        <time>2021-04-10T10:41:16Z</time>
      </trkpt>
      <trkpt lat="47.26449" lon="6.08909">
        <ele>286</ele>
        <time>2021-04-10T10:41:17Z</time>
      </trkpt>
      <trkpt lat="47.26447" lon="6.08909">
        <ele>286.2</ele>
        <time>2021-04-10T10:41:18Z</time>
      </trkpt>
      <trkpt lat="47.26446" lon="6.08908">
        <ele>286.4</ele>
        <time>2021-04-10T10:41:19Z</time>
      </trkpt>
      <trkpt lat="47.26444" lon="6.08907">
        <ele>286.6</ele>
        <time>2021-04-10T10:41:20Z</time>
      </trkpt>
      <trkpt lat="47.26443" lon="6.08907">
        <ele>286.8</ele>
        <time>2021-04-10T10:41:21Z</time>
      </trkpt>
      <trkpt lat="47.26441" lon="6.08906">
        <ele>287.2</ele>
        <time>2021-04-10T10:41:22Z</time>
      </trkpt>
      <trkpt lat="47.26439" lon="6.08906">
        <ele>287.2</ele>
        <time>2021-04-10T10:41:23Z</time>
      </trkpt>
      <trkpt lat="47.26438" lon="6.08906">
        <ele>287.4</ele>
        <time>2021-04-10T10:41:24Z</time>
      </trkpt>
      <trkpt lat="47.26436" lon="6.08906">
        <ele>287.6</ele>
        <time>2021-04-10T10:41:25Z</time>
      </trkpt>
      <trkpt lat="47.26434" lon="6.08907">
        <ele>287.8</ele>
        <time>2021-04-10T10:41:26Z</time>
      </trkpt>
      <trkpt lat="47.26433" lon="6.08907">
        <ele>288</ele>
        <time>2021-04-10T10:41:27Z</time>
      </trkpt>
      <trkpt lat="47.26431" lon="6.08908">
        <ele>288.2</ele>
        <time>2021-04-10T10:41:28Z</time>
      </trkpt>
      <trkpt lat="47.2643" lon="6.0891">
        <ele>288.6</ele>
        <time>2021-04-10T10:41:29Z</time>
      </trkpt>
      <trkpt lat="47.26429" lon="6.08911">
        <ele>288.6</ele>
        <time>2021-04-10T10:41:30Z</time>
      </trkpt>
      <trkpt lat="47.26429" lon="6.08913">
        <ele>288.8</ele>
        <time>2021-04-10T10:41:31Z</time>
      </trkpt>
      <trkpt lat="47.26428" lon="6.08916">
        <ele>289</ele>
        <time>2021-04-10T10:41:32Z</time>
      </trkpt>
      <trkpt lat="47.26428" lon="6.08918">
        <ele>289.2</ele>
        <time>2021-04-10T10:41:33Z</time>
      </trkpt>
      <trkpt lat="47.26429" lon="6.08921">
        <ele>289.2</ele>
        <time>2021-04-10T10:41:34Z</time>
      </trkpt>
      <trkpt lat="47.2643" lon="6.08923">
        <ele>289.4</ele>
        <time>2021-04-10T10:41:35Z</time>
      </trkpt>
      <trkpt lat="47.2643" lon="6.08925">
        <ele>289.4</ele>
        <time>2021-04-10T10:41:36Z</time>
      </trkpt>
      <trkpt lat="47.26431" lon="6.08927">
        <ele>289.6</ele>
        <time>2021-04-10T10:41:37Z</time>
      </trkpt>
      <trkpt lat="47.26432" lon="6.08929">
        <ele>289.6</ele>
        <time>2021-04-10T10:41:38Z</time>
      </trkpt>
      <trkpt lat="47.26433" lon="6.0893">
        <ele>289.8</ele>
        <time>2021-04-10T10:41:39Z</time>
      </trkpt>
      <trkpt lat="47.26435" lon="6.08931">
        <ele>289.8</ele>
        <time>2021-04-10T10:41:40Z</time>
      </trkpt>
      <trkpt lat="47.26436" lon="6.08932">
        <ele>290</ele>
        <time>2021-04-10T10:41:41Z</time>
      </trkpt>
      <trkpt lat="47.26438" lon="6.08934">
        <ele>290</ele>
        <time>2021-04-10T10:41:42Z</time>
      </trkpt>
      <trkpt lat="47.26439" lon="6.08935">
        <ele>290.2</ele>
        <time>2021-04-10T10:41:43Z</time>
      </trkpt>
      <trkpt lat="47.2644" lon="6.08936">
        <ele>290.6</ele>
        <time>2021-04-10T10:41:44Z</time>
      </trkpt>
      <trkpt lat="47.26441" lon="6.08936">
        <ele>290.8</ele>
        <time>2021-04-10T10:41:45Z</time>
      </trkpt>
      <trkpt lat="47.26442" lon="6.08937">
        <ele>291</ele>
        <time>2021-04-10T10:41:46Z</time>
      </trkpt>
      <trkpt lat="47.26444" lon="6.08938">
        <ele>291</ele>
        <time>2021-04-10T10:41:47Z</time>
      </trkpt>
      <trkpt lat="47.26445" lon="6.0894">
        <ele>291.2</ele>
        <time>2021-04-10T10:41:48Z</time>
      </trkpt>
      <trkpt lat="47.26446" lon="6.08942">
        <ele>291.4</ele>
        <time>2021-04-10T10:41:49Z</time>
      </trkpt>
      <trkpt lat="47.26448" lon="6.08944">
        <ele>291.6</ele>
        <time>2021-04-10T10:41:50Z</time>
      </trkpt>
      <trkpt lat="47.2645" lon="6.08945">
        <ele>291.6</ele>
        <time>2021-04-10T10:41:51Z</time>
      </trkpt>
      <trkpt lat="47.26451" lon="6.08947">
        <ele>291.8</ele>
        <time>2021-04-10T10:41:52Z</time>
      </trkpt>
      <trkpt lat="47.26453" lon="6.08948">
        <ele>291.8</ele>
        <time>2021-04-10T10:41:53Z</time>
      </trkpt>
      <trkpt lat="47.26454" lon="6.08949">
        <ele>292</ele>
        <time>2021-04-10T10:41:54Z</time>
      </trkpt>
      <trkpt lat="47.26456" lon="6.0895">
        <ele>292</ele>
        <time>2021-04-10T10:41:55Z</time>
      </trkpt>
      <trkpt lat="47.26458" lon="6.08952">
        <ele>292.2</ele>
        <time>2021-04-10T10:41:56Z</time>
      </trkpt>
      <trkpt lat="47.26459" lon="6.08953">
        <ele>292.2</ele>
        <time>2021-04-10T10:41:57Z</time>
      </trkpt>
      <trkpt lat="47.26461" lon="6.08954">
        <ele>292.4</ele>
        <time>2021-04-10T10:41:58Z</time>
      </trkpt>
      <trkpt lat="47.26462" lon="6.08956">
        <ele>292.6</ele>
        <time>2021-04-10T10:41:59Z</time>
      </trkpt>
      <trkpt lat="47.26464" lon="6.08957">
        <ele>292.6</ele>
        <time>2021-04-10T10:42:00Z</time>
      </trkpt>
      <trkpt lat="47.26465" lon="6.08959">
        <ele>292.6</ele>
        <time>2021-04-10T10:42:01Z</time>
      </trkpt>
      <trkpt lat="47.26467" lon="6.0896">
        <ele>292.8</ele>
        <time>2021-04-10T10:42:02Z</time>
      </trkpt>
      <trkpt lat="47.26468" lon="6.08961">
        <ele>293</ele>
        <time>2021-04-10T10:42:03Z</time>
      </trkpt>
      <trkpt lat="47.26469" lon="6.08962">
        <ele>293</ele>
        <time>2021-04-10T10:42:04Z</time>
      </trkpt>
      <trkpt lat="47.26471" lon="6.08964">
        <ele>293.2</ele>
        <time>2021-04-10T10:42:05Z</time>
      </trkpt>
      <trkpt lat="47.26472" lon="6.08965">
        <ele>293.4</ele>
        <time>2021-04-10T10:42:06Z</time>
      </trkpt>
      <trkpt lat="47.26473" lon="6.08967">
        <ele>293.6</ele>
        <time>2021-04-10T10:42:07Z</time>
      </trkpt>
      <trkpt lat="47.26475" lon="6.08969">
        <ele>293.6</ele>
        <time>2021-04-10T10:42:08Z</time>
      </trkpt>
      <trkpt lat="47.26476" lon="6.0897">
        <ele>294</ele>
        <time>2021-04-10T10:42:09Z</time>
      </trkpt>
      <trkpt lat="47.26478" lon="6.08972">
        <ele>294.2</ele>
        <time>2021-04-10T10:42:10Z</time>
      </trkpt>
      <trkpt lat="47.26479" lon="6.08973">
        <ele>294.4</ele>
        <time>2021-04-10T10:42:11Z</time>
      </trkpt>
      <trkpt lat="47.2648" lon="6.08975">
        <ele>294.4</ele>
        <time>2021-04-10T10:42:12Z</time>
      </trkpt>
      <trkpt lat="47.26481" lon="6.08976">
        <ele>295</ele>
        <time>2021-04-10T10:42:13Z</time>
      </trkpt>
      <trkpt lat="47.26482" lon="6.08978">
        <ele>295.2</ele>
        <time>2021-04-10T10:42:14Z</time>
      </trkpt>
      <trkpt lat="47.26483" lon="6.08979">
        <ele>295.4</ele>
        <time>2021-04-10T10:42:15Z</time>
      </trkpt>
      <trkpt lat="47.26483" lon="6.08981">
        <ele>295.8</ele>
        <time>2021-04-10T10:42:16Z</time>
      </trkpt>
      <trkpt lat="47.26485" lon="6.08982">
        <ele>296</ele>
        <time>2021-04-10T10:42:17Z</time>
      </trkpt>
      <trkpt lat="47.26486" lon="6.08984">
        <ele>296.2</ele>
        <time>2021-04-10T10:42:18Z</time>
      </trkpt>
      <trkpt lat="47.26487" lon="6.08986">
        <ele>296.2</ele>
        <time>2021-04-10T10:42:19Z</time>
      </trkpt>
      <trkpt lat="47.26488" lon="6.08988">
        <ele>296.6</ele>
        <time>2021-04-10T10:42:20Z</time>
      </trkpt>
      <trkpt lat="47.26488" lon="6.08991">
        <ele>296.8</ele>
        <time>2021-04-10T10:42:21Z</time>
      </trkpt>
      <trkpt lat="47.26489" lon="6.08993">
        <ele>297</ele>
        <time>2021-04-10T10:42:22Z</time>
      </trkpt>
      <trkpt lat="47.26489" lon="6.08996">
        <ele>297</ele>
        <time>2021-04-10T10:42:23Z</time>
      </trkpt>
      <trkpt lat="47.26489" lon="6.08999">
        <ele>297.2</ele>
        <time>2021-04-10T10:42:24Z</time>
      </trkpt>
      <trkpt lat="47.26488" lon="6.09001">
        <ele>297.4</ele>
        <time>2021-04-10T10:42:25Z</time>
      </trkpt>
      <trkpt lat="47.26487" lon="6.09003">
        <ele>297.4</ele>
        <time>2021-04-10T10:42:26Z</time>
      </trkpt>
      <trkpt lat="47.26486" lon="6.09005">
        <ele>297.8</ele>
        <time>2021-04-10T10:42:27Z</time>
      </trkpt>
      <trkpt lat="47.26484" lon="6.09007">
        <ele>297.8</ele>
        <time>2021-04-10T10:42:28Z</time>
      </trkpt>
      <trkpt lat="47.26483" lon="6.09007">
        <ele>298.2</ele>
        <time>2021-04-10T10:42:29Z</time>
      </trkpt>
      <trkpt lat="47.26481" lon="6.09008">
        <ele>298.2</ele>
        <time>2021-04-10T10:42:30Z</time>
      </trkpt>
      <trkpt lat="47.26479" lon="6.09007">
        <ele>298.6</ele>
        <time>2021-04-10T10:42:31Z</time>
      </trkpt>
      <trkpt lat="47.26478" lon="6.09007">
        <ele>298.6</ele>
        <time>2021-04-10T10:42:32Z</time>
      </trkpt>
      <trkpt lat="47.26475" lon="6.09006">
        <ele>299</ele>
        <time>2021-04-10T10:42:33Z</time>
      </trkpt>
      <trkpt lat="47.26474" lon="6.09005">
        <ele>299.2</ele>
        <time>2021-04-10T10:42:34Z</time>
      </trkpt>
      <trkpt lat="47.26472" lon="6.09005">
        <ele>299.4</ele>
        <time>2021-04-10T10:42:35Z</time>
      </trkpt>
      <trkpt lat="47.2647" lon="6.09003">
        <ele>299.8</ele>
        <time>2021-04-10T10:42:36Z</time>
      </trkpt>
      <trkpt lat="47.26469" lon="6.09003">
        <ele>300</ele>
        <time>2021-04-10T10:42:37Z</time>
      </trkpt>
      <trkpt lat="47.26468" lon="6.09002">
        <ele>300</ele>
        <time>2021-04-10T10:42:38Z</time>
      </trkpt>
      <trkpt lat="47.26466" lon="6.09002">
        <ele>300.2</ele>
        <time>2021-04-10T10:42:39Z</time>
      </trkpt>
      <trkpt lat="47.26464" lon="6.09001">
        <ele>300.4</ele>
        <time>2021-04-10T10:42:40Z</time>
      </trkpt>
      <trkpt lat="47.26462" lon="6.09">
        <ele>300.4</ele>
        <time>2021-04-10T10:42:41Z</time>
      </trkpt>
      <trkpt lat="47.26461" lon="6.09">
        <ele>300.6</ele>
        <time>2021-04-10T10:42:42Z</time>
      </trkpt>
      <trkpt lat="47.26459" lon="6.09">
        <ele>300.6</ele>
        <time>2021-04-10T10:42:43Z</time>
      </trkpt>
      <trkpt lat="47.26458" lon="6.09">
        <ele>300.8</ele>
        <time>2021-04-10T10:42:44Z</time>
      </trkpt>
      <trkpt lat="47.26455" lon="6.09">
        <ele>301.2</ele>
        <time>2021-04-10T10:42:45Z</time>
      </trkpt>
      <trkpt lat="47.26453" lon="6.09">
        <ele>301.4</ele>
        <time>2021-04-10T10:42:46Z</time>
      </trkpt>
      <trkpt lat="47.2645" lon="6.09">
        <ele>301.8</ele>
        <time>2021-04-10T10:42:47Z</time>
      </trkpt>
      <trkpt lat="47.26448" lon="6.09001">
        <ele>302</ele>
        <time>2021-04-10T10:42:48Z</time>
      </trkpt>
      <trkpt lat="47.26447" lon="6.09001">
        <ele>302.2</ele>
        <time>2021-04-10T10:42:49Z</time>
      </trkpt>
      <trkpt lat="47.26445" lon="6.09001">
        <ele>302.2</ele>
        <time>2021-04-10T10:42:50Z</time>
      </trkpt>
      <trkpt lat="47.26443" lon="6.09001">
        <ele>302.4</ele>
        <time>2021-04-10T10:42:51Z</time>
      </trkpt>
      <trkpt lat="47.26441" lon="6.09002">
        <ele>302.4</ele>
        <time>2021-04-10T10:42:52Z</time>
      </trkpt>
      <trkpt lat="47.2644" lon="6.09003">
        <ele>302.6</ele>
        <time>2021-04-10T10:42:53Z</time>
      </trkpt>
      <trkpt lat="47.26438" lon="6.09005">
        <ele>302.6</ele>
        <time>2021-04-10T10:42:54Z</time>
      </trkpt>
      <trkpt lat="47.26436" lon="6.09006">
        <ele>302.8</ele>
        <time>2021-04-10T10:42:55Z</time>
      </trkpt>
      <trkpt lat="47.26435" lon="6.09007">
        <ele>303</ele>
        <time>2021-04-10T10:42:56Z</time>
      </trkpt>
      <trkpt lat="47.26434" lon="6.09009">
        <ele>303</ele>
        <time>2021-04-10T10:42:57Z</time>
      </trkpt>
      <trkpt lat="47.26433" lon="6.0901">
        <ele>303</ele>
        <time>2021-04-10T10:42:58Z</time>
      </trkpt>
      <trkpt lat="47.26431" lon="6.09011">
        <ele>303</ele>
        <time>2021-04-10T10:42:59Z</time>
      </trkpt>
      <trkpt lat="47.26429" lon="6.09013">
        <ele>303.2</ele>
        <time>2021-04-10T10:43:00Z</time>
      </trkpt>
      <trkpt lat="47.26428" lon="6.09014">
        <ele>303.2</ele>
        <time>2021-04-10T10:43:01Z</time>
      </trkpt>
      <trkpt lat="47.26426" lon="6.09016">
        <ele>303.4</ele>
        <time>2021-04-10T10:43:02Z</time>
      </trkpt>
      <trkpt lat="47.26425" lon="6.09017">
        <ele>303.4</ele>
        <time>2021-04-10T10:43:03Z</time>
      </trkpt>
      <trkpt lat="47.26425" lon="6.09018">
        <ele>303.6</ele>
        <time>2021-04-10T10:43:04Z</time>
      </trkpt>
      <trkpt lat="47.26425" lon="6.09018">
        <ele>303.8</ele>
        <time>2021-04-10T10:43:07Z</time>
      </trkpt>
      <trkpt lat="47.26425" lon="6.09018">
        <ele>303.8</ele>
        <time>2021-04-10T10:43:28Z</time>
      </trkpt>
      <trkpt lat="47.26425" lon="6.09018">
        <ele>303.8</ele>
        <time>2021-04-10T10:43:32Z</time>
      </trkpt>
      <trkpt lat="47.26425" lon="6.09018">
        <ele>303.2</ele>
        <time>2021-04-10T10:44:37Z</time>
      </trkpt>
      <trkpt lat="47.26424" lon="6.09018">
        <ele>303.2</ele>
        <time>2021-04-10T10:44:38Z</time>
      </trkpt>
      <trkpt lat="47.26424" lon="6.0902">
        <ele>303.2</ele>
        <time>2021-04-10T10:44:39Z</time>
      </trkpt>
      <trkpt lat="47.26423" lon="6.09022">
        <ele>303.2</ele>
        <time>2021-04-10T10:44:40Z</time>
      </trkpt>
      <trkpt lat="47.26421" lon="6.09024">
        <ele>303.2</ele>
        <time>2021-04-10T10:44:41Z</time>
      </trkpt>
      <trkpt lat="47.2642" lon="6.09026">
        <ele>303.2</ele>
        <time>2021-04-10T10:44:42Z</time>
      </trkpt>
      <trkpt lat="47.26419" lon="6.09027">
        <ele>303.2</ele>
        <time>2021-04-10T10:44:43Z</time>
      </trkpt>
      <trkpt lat="47.2641" lon="6.09041">
        <ele>303.4</ele>
        <time>2021-04-10T10:44:49Z</time>
      </trkpt>
      <trkpt lat="47.26403" lon="6.09052">
        <ele>304.2</ele>
        <time>2021-04-10T10:44:54Z</time>
      </trkpt>
      <trkpt lat="47.26395" lon="6.09063">
        <ele>304.4</ele>
        <time>2021-04-10T10:44:59Z</time>
      </trkpt>
      <trkpt lat="47.26391" lon="6.09067">
        <ele>304.6</ele>
        <time>2021-04-10T10:45:01Z</time>
      </trkpt>
      <trkpt lat="47.2639" lon="6.0907">
        <ele>304.6</ele>
        <time>2021-04-10T10:45:02Z</time>
      </trkpt>
      <trkpt lat="47.26388" lon="6.09072">
        <ele>304.6</ele>
        <time>2021-04-10T10:45:03Z</time>
      </trkpt>
      <trkpt lat="47.26379" lon="6.09083">
        <ele>304.8</ele>
        <time>2021-04-10T10:45:08Z</time>
      </trkpt>
      <trkpt lat="47.26372" lon="6.09094">
        <ele>305.2</ele>
        <time>2021-04-10T10:45:13Z</time>
      </trkpt>
      <trkpt lat="47.26365" lon="6.09103">
        <ele>305.6</ele>
        <time>2021-04-10T10:45:17Z</time>
      </trkpt>
      <trkpt lat="47.26359" lon="6.09111">
        <ele>305.8</ele>
        <time>2021-04-10T10:45:21Z</time>
      </trkpt>
      <trkpt lat="47.26356" lon="6.09115">
        <ele>306</ele>
        <time>2021-04-10T10:45:23Z</time>
      </trkpt>
      <trkpt lat="47.26353" lon="6.0912">
        <ele>306.2</ele>
        <time>2021-04-10T10:45:25Z</time>
      </trkpt>
      <trkpt lat="47.26352" lon="6.09123">
        <ele>306.2</ele>
        <time>2021-04-10T10:45:26Z</time>
      </trkpt>
      <trkpt lat="47.26352" lon="6.09125">
        <ele>306.2</ele>
        <time>2021-04-10T10:45:27Z</time>
      </trkpt>
      <trkpt lat="47.26351" lon="6.09128">
        <ele>306.4</ele>
        <time>2021-04-10T10:45:28Z</time>
      </trkpt>
      <trkpt lat="47.2635" lon="6.0913">
        <ele>306.4</ele>
        <time>2021-04-10T10:45:29Z</time>
      </trkpt>
      <trkpt lat="47.26349" lon="6.09133">
        <ele>306.4</ele>
        <time>2021-04-10T10:45:30Z</time>
      </trkpt>
      <trkpt lat="47.26348" lon="6.09136">
        <ele>306.4</ele>
        <time>2021-04-10T10:45:31Z</time>
      </trkpt>
      <trkpt lat="47.26345" lon="6.09151">
        <ele>307.2</ele>
        <time>2021-04-10T10:45:36Z</time>
      </trkpt>
      <trkpt lat="47.26344" lon="6.09154">
        <ele>307.4</ele>
        <time>2021-04-10T10:45:37Z</time>
      </trkpt>
      <trkpt lat="47.26338" lon="6.09178">
        <ele>308</ele>
        <time>2021-04-10T10:45:45Z</time>
      </trkpt>
      <trkpt lat="47.26337" lon="6.09183">
        <ele>308.2</ele>
        <time>2021-04-10T10:45:47Z</time>
      </trkpt>
      <trkpt lat="47.26335" lon="6.09189">
        <ele>308.4</ele>
        <time>2021-04-10T10:45:49Z</time>
      </trkpt>
      <trkpt lat="47.26335" lon="6.09192">
        <ele>308.6</ele>
        <time>2021-04-10T10:45:50Z</time>
      </trkpt>
      <trkpt lat="47.26335" lon="6.09195">
        <ele>308.6</ele>
        <time>2021-04-10T10:45:51Z</time>
      </trkpt>
      <trkpt lat="47.26333" lon="6.09203">
        <ele>309</ele>
        <time>2021-04-10T10:45:54Z</time>
      </trkpt>
      <trkpt lat="47.26332" lon="6.09209">
        <ele>309.4</ele>
        <time>2021-04-10T10:45:56Z</time>
      </trkpt>
      <trkpt lat="47.26331" lon="6.09212">
        <ele>309.6</ele>
        <time>2021-04-10T10:45:57Z</time>
      </trkpt>
      <trkpt lat="47.26331" lon="6.09215">
        <ele>309.8</ele>
        <time>2021-04-10T10:45:58Z</time>
      </trkpt>
      <trkpt lat="47.26331" lon="6.09218">
        <ele>309.8</ele>
        <time>2021-04-10T10:45:59Z</time>
      </trkpt>
      <trkpt lat="47.2633" lon="6.09221">
        <ele>310</ele>
        <time>2021-04-10T10:46:00Z</time>
      </trkpt>
      <trkpt lat="47.2633" lon="6.09224">
        <ele>310.2</ele>
        <time>2021-04-10T10:46:01Z</time>
      </trkpt>
      <trkpt lat="47.26329" lon="6.09227">
        <ele>310.4</ele>
        <time>2021-04-10T10:46:02Z</time>
      </trkpt>
      <trkpt lat="47.26328" lon="6.09231">
        <ele>310.4</ele>
        <time>2021-04-10T10:46:03Z</time>
      </trkpt>
      <trkpt lat="47.26327" lon="6.09233">
        <ele>310.6</ele>
        <time>2021-04-10T10:46:04Z</time>
      </trkpt>
      <trkpt lat="47.26327" lon="6.09236">
        <ele>310.6</ele>
        <time>2021-04-10T10:46:05Z</time>
      </trkpt>
      <trkpt lat="47.26326" lon="6.09239">
        <ele>310.8</ele>
        <time>2021-04-10T10:46:06Z</time>
      </trkpt>
      <trkpt lat="47.26325" lon="6.09242">
        <ele>310.8</ele>
        <time>2021-04-10T10:46:07Z</time>
      </trkpt>
      <trkpt lat="47.26324" lon="6.09246">
        <ele>311</ele>
        <time>2021-04-10T10:46:08Z</time>
      </trkpt>
      <trkpt lat="47.26324" lon="6.09249">
        <ele>311.2</ele>
        <time>2021-04-10T10:46:09Z</time>
      </trkpt>
      <trkpt lat="47.26323" lon="6.09252">
        <ele>311.2</ele>
        <time>2021-04-10T10:46:10Z</time>
      </trkpt>
      <trkpt lat="47.26322" lon="6.09255">
        <ele>311.4</ele>
        <time>2021-04-10T10:46:11Z</time>
      </trkpt>
      <trkpt lat="47.2632" lon="6.09258">
        <ele>311.4</ele>
        <time>2021-04-10T10:46:12Z</time>
      </trkpt>
      <trkpt lat="47.26319" lon="6.09261">
        <ele>311.6</ele>
        <time>2021-04-10T10:46:13Z</time>
      </trkpt>
      <trkpt lat="47.26318" lon="6.09264">
        <ele>311.6</ele>
        <time>2021-04-10T10:46:14Z</time>
      </trkpt>
      <trkpt lat="47.26318" lon="6.09266">
        <ele>311.8</ele>
        <time>2021-04-10T10:46:15Z</time>
      </trkpt>
      <trkpt lat="47.26317" lon="6.09269">
        <ele>312</ele>
        <time>2021-04-10T10:46:16Z</time>
      </trkpt>
      <trkpt lat="47.26316" lon="6.09272">
        <ele>312.2</ele>
        <time>2021-04-10T10:46:17Z</time>
      </trkpt>
      <trkpt lat="47.26315" lon="6.09275">
        <ele>312.2</ele>
        <time>2021-04-10T10:46:18Z</time>
      </trkpt>
      <trkpt lat="47.26314" lon="6.09277">
        <ele>312.4</ele>
        <time>2021-04-10T10:46:19Z</time>
      </trkpt>
      <trkpt lat="47.26313" lon="6.0928">
        <ele>312.6</ele>
        <time>2021-04-10T10:46:20Z</time>
      </trkpt>
      <trkpt lat="47.26312" lon="6.09282">
        <ele>312.6</ele>
        <time>2021-04-10T10:46:21Z</time>
      </trkpt>
      <trkpt lat="47.26311" lon="6.09285">
        <ele>312.6</ele>
        <time>2021-04-10T10:46:22Z</time>
      </trkpt>
      <trkpt lat="47.2631" lon="6.09288">
        <ele>312.6</ele>
        <time>2021-04-10T10:46:23Z</time>
      </trkpt>
      <trkpt lat="47.26309" lon="6.0929">
        <ele>312.8</ele>
        <time>2021-04-10T10:46:24Z</time>
      </trkpt>
      <trkpt lat="47.26309" lon="6.09293">
        <ele>313</ele>
        <time>2021-04-10T10:46:25Z</time>
      </trkpt>
      <trkpt lat="47.26308" lon="6.09296">
        <ele>313.2</ele>
        <time>2021-04-10T10:46:26Z</time>
      </trkpt>
      <trkpt lat="47.26307" lon="6.09299">
        <ele>313.2</ele>
        <time>2021-04-10T10:46:27Z</time>
      </trkpt>
      <trkpt lat="47.26306" lon="6.09302">
        <ele>313.4</ele>
        <time>2021-04-10T10:46:28Z</time>
      </trkpt>
      <trkpt lat="47.26305" lon="6.09305">
        <ele>313.6</ele>
        <time>2021-04-10T10:46:29Z</time>
      </trkpt>
      <trkpt lat="47.26304" lon="6.09307">
        <ele>313.6</ele>
        <time>2021-04-10T10:46:30Z</time>
      </trkpt>
      <trkpt lat="47.26303" lon="6.0931">
        <ele>314</ele>
        <time>2021-04-10T10:46:31Z</time>
      </trkpt>
      <trkpt lat="47.26302" lon="6.09312">
        <ele>314</ele>
        <time>2021-04-10T10:46:32Z</time>
      </trkpt>
      <trkpt lat="47.26301" lon="6.09315">
        <ele>314.2</ele>
        <time>2021-04-10T10:46:33Z</time>
      </trkpt>
      <trkpt lat="47.263" lon="6.09318">
        <ele>314.6</ele>
        <time>2021-04-10T10:46:34Z</time>
      </trkpt>
      <trkpt lat="47.263" lon="6.09321">
        <ele>314.6</ele>
        <time>2021-04-10T10:46:35Z</time>
      </trkpt>
      <trkpt lat="47.26299" lon="6.09323">
        <ele>314.8</ele>
        <time>2021-04-10T10:46:36Z</time>
      </trkpt>
      <trkpt lat="47.26298" lon="6.09326">
        <ele>314.8</ele>
        <time>2021-04-10T10:46:37Z</time>
      </trkpt>
      <trkpt lat="47.26297" lon="6.09329">
        <ele>315</ele>
        <time>2021-04-10T10:46:38Z</time>
      </trkpt>
      <trkpt lat="47.26296" lon="6.09331">
        <ele>315.2</ele>
        <time>2021-04-10T10:46:39Z</time>
      </trkpt>
      <trkpt lat="47.26295" lon="6.09334">
        <ele>315.4</ele>
        <time>2021-04-10T10:46:40Z</time>
      </trkpt>
      <trkpt lat="47.26295" lon="6.09337">
        <ele>315.6</ele>
        <time>2021-04-10T10:46:41Z</time>
      </trkpt>
      <trkpt lat="47.26294" lon="6.09339">
        <ele>315.8</ele>
        <time>2021-04-10T10:46:42Z</time>
      </trkpt>
      <trkpt lat="47.26294" lon="6.09342">
        <ele>316</ele>
        <time>2021-04-10T10:46:43Z</time>
      </trkpt>
      <trkpt lat="47.26293" lon="6.09344">
        <ele>316.2</ele>
        <time>2021-04-10T10:46:44Z</time>
      </trkpt>
      <trkpt lat="47.26292" lon="6.09347">
        <ele>316.4</ele>
        <time>2021-04-10T10:46:45Z</time>
      </trkpt>
      <trkpt lat="47.26291" lon="6.09349">
        <ele>316.6</ele>
        <time>2021-04-10T10:46:46Z</time>
      </trkpt>
      <trkpt lat="47.26291" lon="6.09352">
        <ele>316.8</ele>
        <time>2021-04-10T10:46:47Z</time>
      </trkpt>
      <trkpt lat="47.2629" lon="6.09354">
        <ele>316.8</ele>
        <time>2021-04-10T10:46:48Z</time>
      </trkpt>
      <trkpt lat="47.26289" lon="6.09357">
        <ele>317</ele>
        <time>2021-04-10T10:46:49Z</time>
      </trkpt>
      <trkpt lat="47.26289" lon="6.0936">
        <ele>317.2</ele>
        <time>2021-04-10T10:46:50Z</time>
      </trkpt>
      <trkpt lat="47.26288" lon="6.09363">
        <ele>317.4</ele>
        <time>2021-04-10T10:46:51Z</time>
      </trkpt>
      <trkpt lat="47.26287" lon="6.09366">
        <ele>317.6</ele>
        <time>2021-04-10T10:46:52Z</time>
      </trkpt>
      <trkpt lat="47.26286" lon="6.09369">
        <ele>317.8</ele>
        <time>2021-04-10T10:46:53Z</time>
      </trkpt>
      <trkpt lat="47.26285" lon="6.09372">
        <ele>318.2</ele>
        <time>2021-04-10T10:46:54Z</time>
      </trkpt>
      <trkpt lat="47.26285" lon="6.09374">
        <ele>318.4</ele>
        <time>2021-04-10T10:46:55Z</time>
      </trkpt>
      <trkpt lat="47.26284" lon="6.09376">
        <ele>318.6</ele>
        <time>2021-04-10T10:46:56Z</time>
      </trkpt>
      <trkpt lat="47.26283" lon="6.09379">
        <ele>318.8</ele>
        <time>2021-04-10T10:46:57Z</time>
      </trkpt>
      <trkpt lat="47.26282" lon="6.09382">
        <ele>319.4</ele>
        <time>2021-04-10T10:46:58Z</time>
      </trkpt>
      <trkpt lat="47.26281" lon="6.09384">
        <ele>319.8</ele>
        <time>2021-04-10T10:46:59Z</time>
      </trkpt>
      <trkpt lat="47.26281" lon="6.09387">
        <ele>319.8</ele>
        <time>2021-04-10T10:47:00Z</time>
      </trkpt>
      <trkpt lat="47.2628" lon="6.0939">
        <ele>320</ele>
        <time>2021-04-10T10:47:01Z</time>
      </trkpt>
      <trkpt lat="47.26279" lon="6.09393">
        <ele>320.2</ele>
        <time>2021-04-10T10:47:02Z</time>
      </trkpt>
      <trkpt lat="47.26279" lon="6.09396">
        <ele>320.2</ele>
        <time>2021-04-10T10:47:03Z</time>
      </trkpt>
      <trkpt lat="47.26278" lon="6.09398">
        <ele>320.4</ele>
        <time>2021-04-10T10:47:04Z</time>
      </trkpt>
      <trkpt lat="47.26277" lon="6.09401">
        <ele>320.4</ele>
        <time>2021-04-10T10:47:05Z</time>
      </trkpt>
      <trkpt lat="47.26276" lon="6.09403">
        <ele>320.4</ele>
        <time>2021-04-10T10:47:06Z</time>
      </trkpt>
      <trkpt lat="47.26275" lon="6.09406">
        <ele>320.8</ele>
        <time>2021-04-10T10:47:07Z</time>
      </trkpt>
      <trkpt lat="47.26273" lon="6.09408">
        <ele>321</ele>
        <time>2021-04-10T10:47:08Z</time>
      </trkpt>
      <trkpt lat="47.26272" lon="6.09409">
        <ele>321.2</ele>
        <time>2021-04-10T10:47:09Z</time>
      </trkpt>
      <trkpt lat="47.2627" lon="6.09411">
        <ele>321.2</ele>
        <time>2021-04-10T10:47:10Z</time>
      </trkpt>
      <trkpt lat="47.26268" lon="6.09412">
        <ele>321.4</ele>
        <time>2021-04-10T10:47:11Z</time>
      </trkpt>
      <trkpt lat="47.26266" lon="6.09413">
        <ele>321.4</ele>
        <time>2021-04-10T10:47:12Z</time>
      </trkpt>
      <trkpt lat="47.26264" lon="6.09414">
        <ele>321.6</ele>
        <time>2021-04-10T10:47:13Z</time>
      </trkpt>
      <trkpt lat="47.26262" lon="6.09415">
        <ele>321.6</ele>
        <time>2021-04-10T10:47:14Z</time>
      </trkpt>
      <trkpt lat="47.26261" lon="6.09415">
        <ele>321.6</ele>
        <time>2021-04-10T10:47:15Z</time>
      </trkpt>
      <trkpt lat="47.26258" lon="6.09415">
        <ele>322</ele>
        <time>2021-04-10T10:47:16Z</time>
      </trkpt>
      <trkpt lat="47.26256" lon="6.09415">
        <ele>322.2</ele>
        <time>2021-04-10T10:47:17Z</time>
      </trkpt>
      <trkpt lat="47.26254" lon="6.09415">
        <ele>322.4</ele>
        <time>2021-04-10T10:47:18Z</time>
      </trkpt>
      <trkpt lat="47.26253" lon="6.09415">
        <ele>322.8</ele>
        <time>2021-04-10T10:47:19Z</time>
      </trkpt>
      <trkpt lat="47.26251" lon="6.09414">
        <ele>323</ele>
        <time>2021-04-10T10:47:20Z</time>
      </trkpt>
      <trkpt lat="47.26249" lon="6.09415">
        <ele>323.2</ele>
        <time>2021-04-10T10:47:21Z</time>
      </trkpt>
      <trkpt lat="47.26247" lon="6.09414">
        <ele>323.4</ele>
        <time>2021-04-10T10:47:22Z</time>
      </trkpt>
      <trkpt lat="47.26245" lon="6.09415">
        <ele>323.8</ele>
        <time>2021-04-10T10:47:23Z</time>
      </trkpt>
      <trkpt lat="47.26244" lon="6.09415">
        <ele>324</ele>
        <time>2021-04-10T10:47:24Z</time>
      </trkpt>
      <trkpt lat="47.26242" lon="6.09414">
        <ele>324.2</ele>
        <time>2021-04-10T10:47:25Z</time>
      </trkpt>
      <trkpt lat="47.2624" lon="6.09414">
        <ele>324.6</ele>
        <time>2021-04-10T10:47:26Z</time>
      </trkpt>
      <trkpt lat="47.26238" lon="6.09414">
        <ele>324.6</ele>
        <time>2021-04-10T10:47:27Z</time>
      </trkpt>
      <trkpt lat="47.26236" lon="6.09413">
        <ele>325</ele>
        <time>2021-04-10T10:47:28Z</time>
      </trkpt>
      <trkpt lat="47.26234" lon="6.09413">
        <ele>325</ele>
        <time>2021-04-10T10:47:29Z</time>
      </trkpt>
      <trkpt lat="47.26232" lon="6.09412">
        <ele>325.2</ele>
        <time>2021-04-10T10:47:30Z</time>
      </trkpt>
      <trkpt lat="47.2623" lon="6.09411">
        <ele>325.4</ele>
        <time>2021-04-10T10:47:31Z</time>
      </trkpt>
      <trkpt lat="47.26228" lon="6.09411">
        <ele>325.8</ele>
        <time>2021-04-10T10:47:32Z</time>
      </trkpt>
      <trkpt lat="47.26227" lon="6.0941">
        <ele>326</ele>
        <time>2021-04-10T10:47:33Z</time>
      </trkpt>
      <trkpt lat="47.26225" lon="6.09409">
        <ele>326.2</ele>
        <time>2021-04-10T10:47:34Z</time>
      </trkpt>
      <trkpt lat="47.26223" lon="6.09409">
        <ele>326.4</ele>
        <time>2021-04-10T10:47:35Z</time>
      </trkpt>
      <trkpt lat="47.26221" lon="6.09408">
        <ele>326.6</ele>
        <time>2021-04-10T10:47:36Z</time>
      </trkpt>
      <trkpt lat="47.2622" lon="6.09408">
        <ele>326.8</ele>
        <time>2021-04-10T10:47:37Z</time>
      </trkpt>
      <trkpt lat="47.26218" lon="6.09407">
        <ele>327</ele>
        <time>2021-04-10T10:47:38Z</time>
      </trkpt>
      <trkpt lat="47.26217" lon="6.09407">
        <ele>327.2</ele>
        <time>2021-04-10T10:47:39Z</time>
      </trkpt>
      <trkpt lat="47.26215" lon="6.09407">
        <ele>327.2</ele>
        <time>2021-04-10T10:47:40Z</time>
      </trkpt>
      <trkpt lat="47.26213" lon="6.09407">
        <ele>327.4</ele>
        <time>2021-04-10T10:47:41Z</time>
      </trkpt>
      <trkpt lat="47.26211" lon="6.09407">
        <ele>327.6</ele>
        <time>2021-04-10T10:47:42Z</time>
      </trkpt>
      <trkpt lat="47.26209" lon="6.09407">
        <ele>327.8</ele>
        <time>2021-04-10T10:47:43Z</time>
      </trkpt>
      <trkpt lat="47.26207" lon="6.09406">
        <ele>328</ele>
        <time>2021-04-10T10:47:44Z</time>
      </trkpt>
      <trkpt lat="47.26205" lon="6.09406">
        <ele>328</ele>
        <time>2021-04-10T10:47:45Z</time>
      </trkpt>
      <trkpt lat="47.26203" lon="6.09406">
        <ele>328.2</ele>
        <time>2021-04-10T10:47:46Z</time>
      </trkpt>
      <trkpt lat="47.26201" lon="6.09406">
        <ele>328.4</ele>
        <time>2021-04-10T10:47:47Z</time>
      </trkpt>
      <trkpt lat="47.262" lon="6.09406">
        <ele>328.8</ele>
        <time>2021-04-10T10:47:48Z</time>
      </trkpt>
      <trkpt lat="47.26198" lon="6.09405">
        <ele>329</ele>
        <time>2021-04-10T10:47:49Z</time>
      </trkpt>
      <trkpt lat="47.26196" lon="6.09404">
        <ele>329.4</ele>
        <time>2021-04-10T10:47:50Z</time>
      </trkpt>
      <trkpt lat="47.26195" lon="6.09403">
        <ele>329.6</ele>
        <time>2021-04-10T10:47:51Z</time>
      </trkpt>
      <trkpt lat="47.26193" lon="6.09402">
        <ele>329.8</ele>
        <time>2021-04-10T10:47:52Z</time>
      </trkpt>
      <trkpt lat="47.26192" lon="6.09401">
        <ele>330.2</ele>
        <time>2021-04-10T10:47:53Z</time>
      </trkpt>
      <trkpt lat="47.2619" lon="6.094">
        <ele>330.2</ele>
        <time>2021-04-10T10:47:54Z</time>
      </trkpt>
      <trkpt lat="47.26188" lon="6.09399">
        <ele>330.4</ele>
        <time>2021-04-10T10:47:55Z</time>
      </trkpt>
      <trkpt lat="47.26186" lon="6.09399">
        <ele>330.6</ele>
        <time>2021-04-10T10:47:56Z</time>
      </trkpt>
      <trkpt lat="47.26184" lon="6.09398">
        <ele>330.8</ele>
        <time>2021-04-10T10:47:57Z</time>
      </trkpt>
      <trkpt lat="47.26182" lon="6.09398">
        <ele>330.8</ele>
        <time>2021-04-10T10:47:58Z</time>
      </trkpt>
      <trkpt lat="47.26181" lon="6.09397">
        <ele>331</ele>
        <time>2021-04-10T10:47:59Z</time>
      </trkpt>
      <trkpt lat="47.26179" lon="6.09397">
        <ele>331.2</ele>
        <time>2021-04-10T10:48:00Z</time>
      </trkpt>
      <trkpt lat="47.26178" lon="6.09397">
        <ele>331.2</ele>
        <time>2021-04-10T10:48:01Z</time>
      </trkpt>
      <trkpt lat="47.26175" lon="6.09396">
        <ele>331.6</ele>
        <time>2021-04-10T10:48:02Z</time>
      </trkpt>
      <trkpt lat="47.26174" lon="6.09396">
        <ele>331.8</ele>
        <time>2021-04-10T10:48:03Z</time>
      </trkpt>
      <trkpt lat="47.26172" lon="6.09396">
        <ele>332</ele>
        <time>2021-04-10T10:48:04Z</time>
      </trkpt>
      <trkpt lat="47.26171" lon="6.09396">
        <ele>332</ele>
        <time>2021-04-10T10:48:05Z</time>
      </trkpt>
      <trkpt lat="47.26169" lon="6.09396">
        <ele>332.4</ele>
        <time>2021-04-10T10:48:06Z</time>
      </trkpt>
      <trkpt lat="47.26167" lon="6.09397">
        <ele>332.4</ele>
        <time>2021-04-10T10:48:07Z</time>
      </trkpt>
      <trkpt lat="47.26165" lon="6.09397">
        <ele>332.8</ele>
        <time>2021-04-10T10:48:08Z</time>
      </trkpt>
      <trkpt lat="47.26163" lon="6.09398">
        <ele>332.8</ele>
        <time>2021-04-10T10:48:09Z</time>
      </trkpt>
      <trkpt lat="47.26162" lon="6.09399">
        <ele>333.2</ele>
        <time>2021-04-10T10:48:10Z</time>
      </trkpt>
      <trkpt lat="47.26161" lon="6.094">
        <ele>333.4</ele>
        <time>2021-04-10T10:48:11Z</time>
      </trkpt>
      <trkpt lat="47.2616" lon="6.094">
        <ele>333.4</ele>
        <time>2021-04-10T10:48:12Z</time>
      </trkpt>
      <trkpt lat="47.2616" lon="6.094">
        <ele>333.8</ele>
        <time>2021-04-10T10:48:19Z</time>
      </trkpt>
      <trkpt lat="47.2616" lon="6.094">
        <ele>333.8</ele>
        <time>2021-04-10T10:48:53Z</time>
      </trkpt>
      <trkpt lat="47.2616" lon="6.094">
        <ele>334</ele>
        <time>2021-04-10T10:49:04Z</time>
      </trkpt>
      <trkpt lat="47.2616" lon="6.094">
        <ele>333.6</ele>
        <time>2021-04-10T10:50:13Z</time>
      </trkpt>
      <trkpt lat="47.2616" lon="6.09401">
        <ele>334.4</ele>
        <time>2021-04-10T10:50:35Z</time>
      </trkpt>
      <trkpt lat="47.2616" lon="6.09403">
        <ele>334.4</ele>
        <time>2021-04-10T10:50:36Z</time>
      </trkpt>
      <trkpt lat="47.2616" lon="6.09405">
        <ele>334.4</ele>
        <time>2021-04-10T10:50:37Z</time>
      </trkpt>
      <trkpt lat="47.26159" lon="6.09407">
        <ele>334.4</ele>
        <time>2021-04-10T10:50:38Z</time>
      </trkpt>
      <trkpt lat="47.26158" lon="6.09412">
        <ele>334.6</ele>
        <time>2021-04-10T10:50:40Z</time>
      </trkpt>
      <trkpt lat="47.26157" lon="6.09423">
        <ele>334.6</ele>
        <time>2021-04-10T10:50:44Z</time>
      </trkpt>
      <trkpt lat="47.26158" lon="6.09425">
        <ele>334.8</ele>
        <time>2021-04-10T10:50:45Z</time>
      </trkpt>
      <trkpt lat="47.26159" lon="6.09427">
        <ele>334.8</ele>
        <time>2021-04-10T10:50:46Z</time>
      </trkpt>
      <trkpt lat="47.26162" lon="6.09431">
        <ele>335</ele>
        <time>2021-04-10T10:50:48Z</time>
      </trkpt>
      <trkpt lat="47.26164" lon="6.09433">
        <ele>335.2</ele>
        <time>2021-04-10T10:50:49Z</time>
      </trkpt>
      <trkpt lat="47.26166" lon="6.09435">
        <ele>335.2</ele>
        <time>2021-04-10T10:50:50Z</time>
      </trkpt>
      <trkpt lat="47.2617" lon="6.09436">
        <ele>335.4</ele>
        <time>2021-04-10T10:50:52Z</time>
      </trkpt>
      <trkpt lat="47.26174" lon="6.09438">
        <ele>335.6</ele>
        <time>2021-04-10T10:50:54Z</time>
      </trkpt>
      <trkpt lat="47.26176" lon="6.09438">
        <ele>336</ele>
        <time>2021-04-10T10:50:55Z</time>
      </trkpt>
      <trkpt lat="47.26178" lon="6.09439">
        <ele>336</ele>
        <time>2021-04-10T10:50:56Z</time>
      </trkpt>
      <trkpt lat="47.26179" lon="6.0944">
        <ele>336.2</ele>
        <time>2021-04-10T10:50:57Z</time>
      </trkpt>
      <trkpt lat="47.26181" lon="6.09441">
        <ele>336.4</ele>
        <time>2021-04-10T10:50:58Z</time>
      </trkpt>
      <trkpt lat="47.26185" lon="6.09444">
        <ele>336.4</ele>
        <time>2021-04-10T10:50:59Z</time>
      </trkpt>
      <trkpt lat="47.26196" lon="6.09449">
        <ele>337</ele>
        <time>2021-04-10T10:51:04Z</time>
      </trkpt>
      <trkpt lat="47.26199" lon="6.09453">
        <ele>337.4</ele>
        <time>2021-04-10T10:51:06Z</time>
      </trkpt>
      <trkpt lat="47.26201" lon="6.09454">
        <ele>337.4</ele>
        <time>2021-04-10T10:51:07Z</time>
      </trkpt>
      <trkpt lat="47.26202" lon="6.09456">
        <ele>337.6</ele>
        <time>2021-04-10T10:51:08Z</time>
      </trkpt>
      <trkpt lat="47.26204" lon="6.09457">
        <ele>337.8</ele>
        <time>2021-04-10T10:51:09Z</time>
      </trkpt>
      <trkpt lat="47.26205" lon="6.09458">
        <ele>337.8</ele>
        <time>2021-04-10T10:51:10Z</time>
      </trkpt>
      <trkpt lat="47.26207" lon="6.09459">
        <ele>338</ele>
        <time>2021-04-10T10:51:11Z</time>
      </trkpt>
      <trkpt lat="47.26209" lon="6.0946">
        <ele>338</ele>
        <time>2021-04-10T10:51:12Z</time>
      </trkpt>
      <trkpt lat="47.26211" lon="6.09461">
        <ele>338.2</ele>
        <time>2021-04-10T10:51:13Z</time>
      </trkpt>
      <trkpt lat="47.26213" lon="6.09463">
        <ele>338.6</ele>
        <time>2021-04-10T10:51:14Z</time>
      </trkpt>
      <trkpt lat="47.26215" lon="6.09465">
        <ele>338.6</ele>
        <time>2021-04-10T10:51:15Z</time>
      </trkpt>
      <trkpt lat="47.26216" lon="6.09466">
        <ele>338.8</ele>
        <time>2021-04-10T10:51:16Z</time>
      </trkpt>
      <trkpt lat="47.26218" lon="6.09468">
        <ele>338.8</ele>
        <time>2021-04-10T10:51:17Z</time>
      </trkpt>
      <trkpt lat="47.26221" lon="6.0947">
        <ele>339.2</ele>
        <time>2021-04-10T10:51:18Z</time>
      </trkpt>
      <trkpt lat="47.26223" lon="6.09472">
        <ele>339.2</ele>
        <time>2021-04-10T10:51:19Z</time>
      </trkpt>
      <trkpt lat="47.26225" lon="6.09474">
        <ele>339.4</ele>
        <time>2021-04-10T10:51:20Z</time>
      </trkpt>
      <trkpt lat="47.26226" lon="6.09477">
        <ele>339.6</ele>
        <time>2021-04-10T10:51:21Z</time>
      </trkpt>
      <trkpt lat="47.26227" lon="6.0948">
        <ele>339.8</ele>
        <time>2021-04-10T10:51:22Z</time>
      </trkpt>
      <trkpt lat="47.26229" lon="6.09484">
        <ele>340</ele>
        <time>2021-04-10T10:51:23Z</time>
      </trkpt>
      <trkpt lat="47.2623" lon="6.09486">
        <ele>340.2</ele>
        <time>2021-04-10T10:51:24Z</time>
      </trkpt>
      <trkpt lat="47.26231" lon="6.09489">
        <ele>340.2</ele>
        <time>2021-04-10T10:51:25Z</time>
      </trkpt>
      <trkpt lat="47.26232" lon="6.09492">
        <ele>340.4</ele>
        <time>2021-04-10T10:51:26Z</time>
      </trkpt>
      <trkpt lat="47.26233" lon="6.09495">
        <ele>340.6</ele>
        <time>2021-04-10T10:51:27Z</time>
      </trkpt>
      <trkpt lat="47.26235" lon="6.09497">
        <ele>340.6</ele>
        <time>2021-04-10T10:51:28Z</time>
      </trkpt>
      <trkpt lat="47.26237" lon="6.095">
        <ele>340.6</ele>
        <time>2021-04-10T10:51:29Z</time>
      </trkpt>
      <trkpt lat="47.26238" lon="6.09503">
        <ele>340.8</ele>
        <time>2021-04-10T10:51:30Z</time>
      </trkpt>
      <trkpt lat="47.2624" lon="6.09506">
        <ele>340.8</ele>
        <time>2021-04-10T10:51:31Z</time>
      </trkpt>
      <trkpt lat="47.26242" lon="6.09509">
        <ele>341</ele>
        <time>2021-04-10T10:51:32Z</time>
      </trkpt>
      <trkpt lat="47.26244" lon="6.09511">
        <ele>341</ele>
        <time>2021-04-10T10:51:33Z</time>
      </trkpt>
      <trkpt lat="47.26245" lon="6.09513">
        <ele>341.2</ele>
        <time>2021-04-10T10:51:34Z</time>
      </trkpt>
      <trkpt lat="47.26246" lon="6.09515">
        <ele>341.4</ele>
        <time>2021-04-10T10:51:35Z</time>
      </trkpt>
      <trkpt lat="47.26247" lon="6.09517">
        <ele>341.6</ele>
        <time>2021-04-10T10:51:36Z</time>
      </trkpt>
      <trkpt lat="47.26248" lon="6.09519">
        <ele>341.6</ele>
        <time>2021-04-10T10:51:37Z</time>
      </trkpt>
      <trkpt lat="47.2625" lon="6.09521">
        <ele>342</ele>
        <time>2021-04-10T10:51:38Z</time>
      </trkpt>
      <trkpt lat="47.26253" lon="6.09523">
        <ele>342</ele>
        <time>2021-04-10T10:51:39Z</time>
      </trkpt>
      <trkpt lat="47.26254" lon="6.09526">
        <ele>342.4</ele>
        <time>2021-04-10T10:51:40Z</time>
      </trkpt>
      <trkpt lat="47.26254" lon="6.09529">
        <ele>342.4</ele>
        <time>2021-04-10T10:51:41Z</time>
      </trkpt>
      <trkpt lat="47.26255" lon="6.09533">
        <ele>342.6</ele>
        <time>2021-04-10T10:51:42Z</time>
      </trkpt>
      <trkpt lat="47.26256" lon="6.09537">
        <ele>342.6</ele>
        <time>2021-04-10T10:51:43Z</time>
      </trkpt>
      <trkpt lat="47.26255" lon="6.09541">
        <ele>342.8</ele>
        <time>2021-04-10T10:51:44Z</time>
      </trkpt>
      <trkpt lat="47.26255" lon="6.09544">
        <ele>343</ele>
        <time>2021-04-10T10:51:45Z</time>
      </trkpt>
      <trkpt lat="47.26256" lon="6.09548">
        <ele>343</ele>
        <time>2021-04-10T10:51:46Z</time>
      </trkpt>
      <trkpt lat="47.26257" lon="6.09551">
        <ele>343.2</ele>
        <time>2021-04-10T10:51:47Z</time>
      </trkpt>
      <trkpt lat="47.26258" lon="6.09554">
        <ele>343.4</ele>
        <time>2021-04-10T10:51:48Z</time>
      </trkpt>
      <trkpt lat="47.26259" lon="6.09557">
        <ele>343.6</ele>
        <time>2021-04-10T10:51:49Z</time>
      </trkpt>
      <trkpt lat="47.2626" lon="6.0956">
        <ele>343.8</ele>
        <time>2021-04-10T10:51:50Z</time>
      </trkpt>
      <trkpt lat="47.2626" lon="6.09562">
        <ele>343.8</ele>
        <time>2021-04-10T10:51:51Z</time>
      </trkpt>
      <trkpt lat="47.26261" lon="6.09565">
        <ele>344</ele>
        <time>2021-04-10T10:51:52Z</time>
      </trkpt>
      <trkpt lat="47.26261" lon="6.09568">
        <ele>344.2</ele>
        <time>2021-04-10T10:51:53Z</time>
      </trkpt>
      <trkpt lat="47.26262" lon="6.0957">
        <ele>344.2</ele>
        <time>2021-04-10T10:51:54Z</time>
      </trkpt>
      <trkpt lat="47.26262" lon="6.09572">
        <ele>344.4</ele>
        <time>2021-04-10T10:51:55Z</time>
      </trkpt>
      <trkpt lat="47.26264" lon="6.09574">
        <ele>344.6</ele>
        <time>2021-04-10T10:51:56Z</time>
      </trkpt>
      <trkpt lat="47.26264" lon="6.09578">
        <ele>344.8</ele>
        <time>2021-04-10T10:51:57Z</time>
      </trkpt>
      <trkpt lat="47.26265" lon="6.0958">
        <ele>345</ele>
        <time>2021-04-10T10:51:58Z</time>
      </trkpt>
      <trkpt lat="47.26265" lon="6.09583">
        <ele>345.2</ele>
        <time>2021-04-10T10:51:59Z</time>
      </trkpt>
      <trkpt lat="47.26267" lon="6.09584">
        <ele>345.4</ele>
        <time>2021-04-10T10:52:00Z</time>
      </trkpt>
      <trkpt lat="47.26267" lon="6.09587">
        <ele>345.6</ele>
        <time>2021-04-10T10:52:01Z</time>
      </trkpt>
      <trkpt lat="47.26267" lon="6.0959">
        <ele>345.6</ele>
        <time>2021-04-10T10:52:02Z</time>
      </trkpt>
      <trkpt lat="47.26267" lon="6.09592">
        <ele>345.8</ele>
        <time>2021-04-10T10:52:03Z</time>
      </trkpt>
      <trkpt lat="47.26268" lon="6.09594">
        <ele>345.8</ele>
        <time>2021-04-10T10:52:04Z</time>
      </trkpt>
      <trkpt lat="47.26268" lon="6.09597">
        <ele>346</ele>
        <time>2021-04-10T10:52:05Z</time>
      </trkpt>
      <trkpt lat="47.26269" lon="6.096">
        <ele>346.2</ele>
        <time>2021-04-10T10:52:06Z</time>
      </trkpt>
      <trkpt lat="47.2627" lon="6.09603">
        <ele>346.4</ele>
        <time>2021-04-10T10:52:07Z</time>
      </trkpt>
      <trkpt lat="47.26273" lon="6.09605">
        <ele>346.4</ele>
        <time>2021-04-10T10:52:08Z</time>
      </trkpt>
      <trkpt lat="47.26273" lon="6.09607">
        <ele>346.4</ele>
        <time>2021-04-10T10:52:09Z</time>
      </trkpt>
      <trkpt lat="47.26275" lon="6.0961">
        <ele>346.6</ele>
        <time>2021-04-10T10:52:10Z</time>
      </trkpt>
      <trkpt lat="47.26275" lon="6.09612">
        <ele>346.6</ele>
        <time>2021-04-10T10:52:11Z</time>
      </trkpt>
      <trkpt lat="47.26275" lon="6.09615">
        <ele>347</ele>
        <time>2021-04-10T10:52:12Z</time>
      </trkpt>
      <trkpt lat="47.26274" lon="6.09618">
        <ele>347</ele>
        <time>2021-04-10T10:52:13Z</time>
      </trkpt>
      <trkpt lat="47.26275" lon="6.0962">
        <ele>347.2</ele>
        <time>2021-04-10T10:52:14Z</time>
      </trkpt>
      <trkpt lat="47.26275" lon="6.09621">
        <ele>347.2</ele>
        <time>2021-04-10T10:52:15Z</time>
      </trkpt>
      <trkpt lat="47.26274" lon="6.09622">
        <ele>347.6</ele>
        <time>2021-04-10T10:52:16Z</time>
      </trkpt>
      <trkpt lat="47.26274" lon="6.09624">
        <ele>347.8</ele>
        <time>2021-04-10T10:52:17Z</time>
      </trkpt>
      <trkpt lat="47.26275" lon="6.09626">
        <ele>348</ele>
        <time>2021-04-10T10:52:18Z</time>
      </trkpt>
      <trkpt lat="47.26275" lon="6.09629">
        <ele>348.2</ele>
        <time>2021-04-10T10:52:19Z</time>
      </trkpt>
      <trkpt lat="47.26276" lon="6.09631">
        <ele>348.4</ele>
        <time>2021-04-10T10:52:20Z</time>
      </trkpt>
      <trkpt lat="47.26276" lon="6.09633">
        <ele>348.6</ele>
        <time>2021-04-10T10:52:21Z</time>
      </trkpt>
      <trkpt lat="47.26277" lon="6.09635">
        <ele>348.6</ele>
        <time>2021-04-10T10:52:22Z</time>
      </trkpt>
      <trkpt lat="47.26279" lon="6.09637">
        <ele>348.8</ele>
        <time>2021-04-10T10:52:23Z</time>
      </trkpt>
      <trkpt lat="47.26279" lon="6.09639">
        <ele>349</ele>
        <time>2021-04-10T10:52:24Z</time>
      </trkpt>
      <trkpt lat="47.26279" lon="6.09641">
        <ele>349.2</ele>
        <time>2021-04-10T10:52:25Z</time>
      </trkpt>
      <trkpt lat="47.26279" lon="6.09643">
        <ele>349.4</ele>
        <time>2021-04-10T10:52:26Z</time>
      </trkpt>
      <trkpt lat="47.26279" lon="6.09645">
        <ele>349.4</ele>
        <time>2021-04-10T10:52:27Z</time>
      </trkpt>
      <trkpt lat="47.26279" lon="6.09647">
        <ele>349.6</ele>
        <time>2021-04-10T10:52:28Z</time>
      </trkpt>
      <trkpt lat="47.26281" lon="6.0965">
        <ele>349.6</ele>
        <time>2021-04-10T10:52:29Z</time>
      </trkpt>
      <trkpt lat="47.26282" lon="6.09653">
        <ele>349.8</ele>
        <time>2021-04-10T10:52:30Z</time>
      </trkpt>
      <trkpt lat="47.26284" lon="6.09655">
        <ele>349.8</ele>
        <time>2021-04-10T10:52:31Z</time>
      </trkpt>
      <trkpt lat="47.26285" lon="6.09657">
        <ele>350</ele>
        <time>2021-04-10T10:52:32Z</time>
      </trkpt>
      <trkpt lat="47.26285" lon="6.09661">
        <ele>350.2</ele>
        <time>2021-04-10T10:52:33Z</time>
      </trkpt>
      <trkpt lat="47.26285" lon="6.09663">
        <ele>350.2</ele>
        <time>2021-04-10T10:52:34Z</time>
      </trkpt>
      <trkpt lat="47.26284" lon="6.09665">
        <ele>350.4</ele>
        <time>2021-04-10T10:52:35Z</time>
      </trkpt>
      <trkpt lat="47.26284" lon="6.09667">
        <ele>350.4</ele>
        <time>2021-04-10T10:52:36Z</time>
      </trkpt>
      <trkpt lat="47.26284" lon="6.0967">
        <ele>350.6</ele>
        <time>2021-04-10T10:52:37Z</time>
      </trkpt>
      <trkpt lat="47.26284" lon="6.09673">
        <ele>350.6</ele>
        <time>2021-04-10T10:52:38Z</time>
      </trkpt>
      <trkpt lat="47.26284" lon="6.09677">
        <ele>350.8</ele>
        <time>2021-04-10T10:52:39Z</time>
      </trkpt>
      <trkpt lat="47.26284" lon="6.09679">
        <ele>350.8</ele>
        <time>2021-04-10T10:52:40Z</time>
      </trkpt>
      <trkpt lat="47.26286" lon="6.09681">
        <ele>351</ele>
        <time>2021-04-10T10:52:41Z</time>
      </trkpt>
      <trkpt lat="47.26289" lon="6.09684">
        <ele>351.2</ele>
        <time>2021-04-10T10:52:42Z</time>
      </trkpt>
      <trkpt lat="47.26289" lon="6.09687">
        <ele>351.4</ele>
        <time>2021-04-10T10:52:43Z</time>
      </trkpt>
      <trkpt lat="47.26291" lon="6.0969">
        <ele>351.6</ele>
        <time>2021-04-10T10:52:44Z</time>
      </trkpt>
      <trkpt lat="47.26292" lon="6.09692">
        <ele>351.8</ele>
        <time>2021-04-10T10:52:45Z</time>
      </trkpt>
      <trkpt lat="47.26293" lon="6.09696">
        <ele>352</ele>
        <time>2021-04-10T10:52:46Z</time>
      </trkpt>
      <trkpt lat="47.26294" lon="6.09698">
        <ele>352</ele>
        <time>2021-04-10T10:52:47Z</time>
      </trkpt>
      <trkpt lat="47.26294" lon="6.097">
        <ele>352.4</ele>
        <time>2021-04-10T10:52:48Z</time>
      </trkpt>
      <trkpt lat="47.26295" lon="6.09702">
        <ele>352.4</ele>
        <time>2021-04-10T10:52:49Z</time>
      </trkpt>
      <trkpt lat="47.26297" lon="6.09705">
        <ele>352.6</ele>
        <time>2021-04-10T10:52:50Z</time>
      </trkpt>
      <trkpt lat="47.263" lon="6.09707">
        <ele>353</ele>
        <time>2021-04-10T10:52:51Z</time>
      </trkpt>
      <trkpt lat="47.26302" lon="6.0971">
        <ele>353.2</ele>
        <time>2021-04-10T10:52:52Z</time>
      </trkpt>
      <trkpt lat="47.26307" lon="6.09713">
        <ele>353.6</ele>
        <time>2021-04-10T10:52:53Z</time>
      </trkpt>
      <trkpt lat="47.26308" lon="6.09716">
        <ele>353.8</ele>
        <time>2021-04-10T10:52:54Z</time>
      </trkpt>
      <trkpt lat="47.2631" lon="6.09717">
        <ele>354</ele>
        <time>2021-04-10T10:52:55Z</time>
      </trkpt>
      <trkpt lat="47.26309" lon="6.09719">
        <ele>354</ele>
        <time>2021-04-10T10:52:56Z</time>
      </trkpt>
      <trkpt lat="47.26308" lon="6.09721">
        <ele>354.4</ele>
        <time>2021-04-10T10:52:57Z</time>
      </trkpt>
      <trkpt lat="47.26307" lon="6.09723">
        <ele>354.6</ele>
        <time>2021-04-10T10:52:58Z</time>
      </trkpt>
      <trkpt lat="47.26306" lon="6.09727">
        <ele>354.8</ele>
        <time>2021-04-10T10:52:59Z</time>
      </trkpt>
      <trkpt lat="47.26305" lon="6.09728">
        <ele>354.8</ele>
        <time>2021-04-10T10:53:00Z</time>
      </trkpt>
      <trkpt lat="47.26305" lon="6.0973">
        <ele>355</ele>
        <time>2021-04-10T10:53:01Z</time>
      </trkpt>
      <trkpt lat="47.26305" lon="6.09731">
        <ele>355</ele>
        <time>2021-04-10T10:53:02Z</time>
      </trkpt>
      <trkpt lat="47.26305" lon="6.09733">
        <ele>355.2</ele>
        <time>2021-04-10T10:53:03Z</time>
      </trkpt>
      <trkpt lat="47.26305" lon="6.09736">
        <ele>355.6</ele>
        <time>2021-04-10T10:53:04Z</time>
      </trkpt>
      <trkpt lat="47.26305" lon="6.09737">
        <ele>355.6</ele>
        <time>2021-04-10T10:53:05Z</time>
      </trkpt>
      <trkpt lat="47.26305" lon="6.09739">
        <ele>355.8</ele>
        <time>2021-04-10T10:53:06Z</time>
      </trkpt>
      <trkpt lat="47.26305" lon="6.09741">
        <ele>356</ele>
        <time>2021-04-10T10:53:07Z</time>
      </trkpt>
      <trkpt lat="47.26305" lon="6.09743">
        <ele>356.2</ele>
        <time>2021-04-10T10:53:08Z</time>
      </trkpt>
      <trkpt lat="47.26305" lon="6.09745">
        <ele>356.4</ele>
        <time>2021-04-10T10:53:09Z</time>
      </trkpt>
      <trkpt lat="47.26306" lon="6.09747">
        <ele>356.4</ele>
        <time>2021-04-10T10:53:10Z</time>
      </trkpt>
      <trkpt lat="47.26306" lon="6.09749">
        <ele>356.8</ele>
        <time>2021-04-10T10:53:11Z</time>
      </trkpt>
      <trkpt lat="47.26307" lon="6.09752">
        <ele>356.8</ele>
        <time>2021-04-10T10:53:12Z</time>
      </trkpt>
      <trkpt lat="47.26308" lon="6.09754">
        <ele>357</ele>
        <time>2021-04-10T10:53:13Z</time>
      </trkpt>
      <trkpt lat="47.2631" lon="6.09756">
        <ele>357.2</ele>
        <time>2021-04-10T10:53:14Z</time>
      </trkpt>
      <trkpt lat="47.26311" lon="6.09759">
        <ele>357.2</ele>
        <time>2021-04-10T10:53:15Z</time>
      </trkpt>
      <trkpt lat="47.26311" lon="6.09763">
        <ele>357.4</ele>
        <time>2021-04-10T10:53:16Z</time>
      </trkpt>
      <trkpt lat="47.26312" lon="6.09765">
        <ele>357.6</ele>
        <time>2021-04-10T10:53:17Z</time>
      </trkpt>
      <trkpt lat="47.26313" lon="6.09766">
        <ele>358</ele>
        <time>2021-04-10T10:53:18Z</time>
      </trkpt>
      <trkpt lat="47.26314" lon="6.09768">
        <ele>358</ele>
        <time>2021-04-10T10:53:19Z</time>
      </trkpt>
      <trkpt lat="47.26315" lon="6.0977">
        <ele>358.2</ele>
        <time>2021-04-10T10:53:20Z</time>
      </trkpt>
      <trkpt lat="47.26317" lon="6.09772">
        <ele>358.4</ele>
        <time>2021-04-10T10:53:21Z</time>
      </trkpt>
      <trkpt lat="47.26319" lon="6.09775">
        <ele>358.2</ele>
        <time>2021-04-10T10:53:22Z</time>
      </trkpt>
      <trkpt lat="47.26321" lon="6.09777">
        <ele>358.4</ele>
        <time>2021-04-10T10:53:23Z</time>
      </trkpt>
      <trkpt lat="47.2632" lon="6.0978">
        <ele>358.6</ele>
        <time>2021-04-10T10:53:24Z</time>
      </trkpt>
      <trkpt lat="47.2632" lon="6.09782">
        <ele>358.6</ele>
        <time>2021-04-10T10:53:25Z</time>
      </trkpt>
      <trkpt lat="47.26321" lon="6.09785">
        <ele>359</ele>
        <time>2021-04-10T10:53:26Z</time>
      </trkpt>
      <trkpt lat="47.26322" lon="6.09787">
        <ele>359</ele>
        <time>2021-04-10T10:53:27Z</time>
      </trkpt>
      <trkpt lat="47.26325" lon="6.09789">
        <ele>359</ele>
        <time>2021-04-10T10:53:28Z</time>
      </trkpt>
      <trkpt lat="47.26326" lon="6.09792">
        <ele>359.4</ele>
        <time>2021-04-10T10:53:29Z</time>
      </trkpt>
      <trkpt lat="47.26327" lon="6.09796">
        <ele>359.6</ele>
        <time>2021-04-10T10:53:30Z</time>
      </trkpt>
      <trkpt lat="47.26328" lon="6.09799">
        <ele>359.8</ele>
        <time>2021-04-10T10:53:31Z</time>
      </trkpt>
      <trkpt lat="47.2633" lon="6.098">
        <ele>359.8</ele>
        <time>2021-04-10T10:53:32Z</time>
      </trkpt>
      <trkpt lat="47.2633" lon="6.09803">
        <ele>360</ele>
        <time>2021-04-10T10:53:33Z</time>
      </trkpt>
      <trkpt lat="47.2633" lon="6.09807">
        <ele>360.2</ele>
        <time>2021-04-10T10:53:34Z</time>
      </trkpt>
      <trkpt lat="47.26331" lon="6.0981">
        <ele>360.2</ele>
        <time>2021-04-10T10:53:35Z</time>
      </trkpt>
      <trkpt lat="47.26331" lon="6.09813">
        <ele>360.4</ele>
        <time>2021-04-10T10:53:36Z</time>
      </trkpt>
      <trkpt lat="47.26331" lon="6.09816">
        <ele>360.6</ele>
        <time>2021-04-10T10:53:37Z</time>
      </trkpt>
      <trkpt lat="47.26332" lon="6.09819">
        <ele>360.6</ele>
        <time>2021-04-10T10:53:38Z</time>
      </trkpt>
      <trkpt lat="47.26333" lon="6.09821">
        <ele>360.8</ele>
        <time>2021-04-10T10:53:39Z</time>
      </trkpt>
      <trkpt lat="47.26333" lon="6.09823">
        <ele>360.8</ele>
        <time>2021-04-10T10:53:40Z</time>
      </trkpt>
      <trkpt lat="47.26333" lon="6.09826">
        <ele>361</ele>
        <time>2021-04-10T10:53:41Z</time>
      </trkpt>
      <trkpt lat="47.26334" lon="6.09829">
        <ele>361</ele>
        <time>2021-04-10T10:53:42Z</time>
      </trkpt>
      <trkpt lat="47.26337" lon="6.0983">
        <ele>361.2</ele>
        <time>2021-04-10T10:53:43Z</time>
      </trkpt>
      <trkpt lat="47.26338" lon="6.09831">
        <ele>361.4</ele>
        <time>2021-04-10T10:53:44Z</time>
      </trkpt>
      <trkpt lat="47.26338" lon="6.09833">
        <ele>361.6</ele>
        <time>2021-04-10T10:53:45Z</time>
      </trkpt>
      <trkpt lat="47.26337" lon="6.09834">
        <ele>361.6</ele>
        <time>2021-04-10T10:53:46Z</time>
      </trkpt>
      <trkpt lat="47.26337" lon="6.09835">
        <ele>361.8</ele>
        <time>2021-04-10T10:53:47Z</time>
      </trkpt>
      <trkpt lat="47.26337" lon="6.09837">
        <ele>362</ele>
        <time>2021-04-10T10:53:48Z</time>
      </trkpt>
      <trkpt lat="47.26337" lon="6.09838">
        <ele>362</ele>
        <time>2021-04-10T10:53:49Z</time>
      </trkpt>
      <trkpt lat="47.26337" lon="6.0984">
        <ele>362.2</ele>
        <time>2021-04-10T10:53:50Z</time>
      </trkpt>
      <trkpt lat="47.26337" lon="6.09841">
        <ele>362.4</ele>
        <time>2021-04-10T10:53:51Z</time>
      </trkpt>
      <trkpt lat="47.26337" lon="6.09843">
        <ele>362.4</ele>
        <time>2021-04-10T10:53:52Z</time>
      </trkpt>
      <trkpt lat="47.26336" lon="6.09845">
        <ele>362.6</ele>
        <time>2021-04-10T10:53:53Z</time>
      </trkpt>
      <trkpt lat="47.26337" lon="6.09846">
        <ele>362.8</ele>
        <time>2021-04-10T10:53:54Z</time>
      </trkpt>
      <trkpt lat="47.26337" lon="6.09848">
        <ele>362.8</ele>
        <time>2021-04-10T10:53:55Z</time>
      </trkpt>
      <trkpt lat="47.26337" lon="6.0985">
        <ele>363</ele>
        <time>2021-04-10T10:53:56Z</time>
      </trkpt>
      <trkpt lat="47.26337" lon="6.09851">
        <ele>363.2</ele>
        <time>2021-04-10T10:53:57Z</time>
      </trkpt>
      <trkpt lat="47.26337" lon="6.09853">
        <ele>363.4</ele>
        <time>2021-04-10T10:53:58Z</time>
      </trkpt>
      <trkpt lat="47.26337" lon="6.09855">
        <ele>363.4</ele>
        <time>2021-04-10T10:53:59Z</time>
      </trkpt>
      <trkpt lat="47.26337" lon="6.09856">
        <ele>363.8</ele>
        <time>2021-04-10T10:54:00Z</time>
      </trkpt>
      <trkpt lat="47.26337" lon="6.09858">
        <ele>363.8</ele>
        <time>2021-04-10T10:54:01Z</time>
      </trkpt>
      <trkpt lat="47.26338" lon="6.0986">
        <ele>364.2</ele>
        <time>2021-04-10T10:54:02Z</time>
      </trkpt>
      <trkpt lat="47.26339" lon="6.09862">
        <ele>364.6</ele>
        <time>2021-04-10T10:54:03Z</time>
      </trkpt>
      <trkpt lat="47.2634" lon="6.09864">
        <ele>364.8</ele>
        <time>2021-04-10T10:54:04Z</time>
      </trkpt>
      <trkpt lat="47.26339" lon="6.09866">
        <ele>365</ele>
        <time>2021-04-10T10:54:05Z</time>
      </trkpt>
      <trkpt lat="47.2634" lon="6.09868">
        <ele>364.8</ele>
        <time>2021-04-10T10:54:06Z</time>
      </trkpt>
      <trkpt lat="47.2634" lon="6.0987">
        <ele>365</ele>
        <time>2021-04-10T10:54:07Z</time>
      </trkpt>
      <trkpt lat="47.26341" lon="6.09872">
        <ele>365</ele>
        <time>2021-04-10T10:54:08Z</time>
      </trkpt>
      <trkpt lat="47.26342" lon="6.09874">
        <ele>365.4</ele>
        <time>2021-04-10T10:54:09Z</time>
      </trkpt>
      <trkpt lat="47.26342" lon="6.09877">
        <ele>365.4</ele>
        <time>2021-04-10T10:54:10Z</time>
      </trkpt>
      <trkpt lat="47.26343" lon="6.0988">
        <ele>365.6</ele>
        <time>2021-04-10T10:54:11Z</time>
      </trkpt>
      <trkpt lat="47.26343" lon="6.09883">
        <ele>365.8</ele>
        <time>2021-04-10T10:54:12Z</time>
      </trkpt>
      <trkpt lat="47.26346" lon="6.09886">
        <ele>366</ele>
        <time>2021-04-10T10:54:13Z</time>
      </trkpt>
      <trkpt lat="47.26348" lon="6.09888">
        <ele>366.2</ele>
        <time>2021-04-10T10:54:14Z</time>
      </trkpt>
      <trkpt lat="47.26348" lon="6.09888">
        <ele>366.2</ele>
        <time>2021-04-10T10:54:15Z</time>
      </trkpt>
      <trkpt lat="47.26348" lon="6.09891">
        <ele>366.4</ele>
        <time>2021-04-10T10:54:16Z</time>
      </trkpt>
      <trkpt lat="47.26349" lon="6.09894">
        <ele>366.4</ele>
        <time>2021-04-10T10:54:17Z</time>
      </trkpt>
      <trkpt lat="47.26349" lon="6.09897">
        <ele>366.6</ele>
        <time>2021-04-10T10:54:18Z</time>
      </trkpt>
      <trkpt lat="47.26349" lon="6.09899">
        <ele>366.6</ele>
        <time>2021-04-10T10:54:19Z</time>
      </trkpt>
      <trkpt lat="47.2635" lon="6.09901">
        <ele>366.8</ele>
        <time>2021-04-10T10:54:20Z</time>
      </trkpt>
      <trkpt lat="47.26353" lon="6.09905">
        <ele>367</ele>
        <time>2021-04-10T10:54:21Z</time>
      </trkpt>
      <trkpt lat="47.26355" lon="6.09909">
        <ele>367</ele>
        <time>2021-04-10T10:54:22Z</time>
      </trkpt>
      <trkpt lat="47.26355" lon="6.0991">
        <ele>367.2</ele>
        <time>2021-04-10T10:54:23Z</time>
      </trkpt>
      <trkpt lat="47.26355" lon="6.0991">
        <ele>367.2</ele>
        <time>2021-04-10T10:54:24Z</time>
      </trkpt>
      <trkpt lat="47.26357" lon="6.09913">
        <ele>367.4</ele>
        <time>2021-04-10T10:54:25Z</time>
      </trkpt>
      <trkpt lat="47.2636" lon="6.09916">
        <ele>367.6</ele>
        <time>2021-04-10T10:54:26Z</time>
      </trkpt>
      <trkpt lat="47.26361" lon="6.0992">
        <ele>367.8</ele>
        <time>2021-04-10T10:54:27Z</time>
      </trkpt>
      <trkpt lat="47.26363" lon="6.09923">
        <ele>368</ele>
        <time>2021-04-10T10:54:28Z</time>
      </trkpt>
      <trkpt lat="47.26363" lon="6.09924">
        <ele>368.2</ele>
        <time>2021-04-10T10:54:29Z</time>
      </trkpt>
      <trkpt lat="47.26363" lon="6.09924">
        <ele>368.4</ele>
        <time>2021-04-10T10:54:30Z</time>
      </trkpt>
      <trkpt lat="47.26364" lon="6.09925">
        <ele>368.4</ele>
        <time>2021-04-10T10:54:31Z</time>
      </trkpt>
      <trkpt lat="47.26364" lon="6.09929">
        <ele>368.6</ele>
        <time>2021-04-10T10:54:32Z</time>
      </trkpt>
      <trkpt lat="47.26364" lon="6.09932">
        <ele>368.8</ele>
        <time>2021-04-10T10:54:33Z</time>
      </trkpt>
      <trkpt lat="47.26365" lon="6.09935">
        <ele>369</ele>
        <time>2021-04-10T10:54:34Z</time>
      </trkpt>
      <trkpt lat="47.26368" lon="6.09937">
        <ele>369</ele>
        <time>2021-04-10T10:54:35Z</time>
      </trkpt>
      <trkpt lat="47.26372" lon="6.09941">
        <ele>369.2</ele>
        <time>2021-04-10T10:54:36Z</time>
      </trkpt>
      <trkpt lat="47.26372" lon="6.09944">
        <ele>369.2</ele>
        <time>2021-04-10T10:54:37Z</time>
      </trkpt>
      <trkpt lat="47.26373" lon="6.09946">
        <ele>369.4</ele>
        <time>2021-04-10T10:54:38Z</time>
      </trkpt>
      <trkpt lat="47.26374" lon="6.09949">
        <ele>369.6</ele>
        <time>2021-04-10T10:54:39Z</time>
      </trkpt>
      <trkpt lat="47.26374" lon="6.09952">
        <ele>369.8</ele>
        <time>2021-04-10T10:54:40Z</time>
      </trkpt>
      <trkpt lat="47.26375" lon="6.09954">
        <ele>370</ele>
        <time>2021-04-10T10:54:41Z</time>
      </trkpt>
      <trkpt lat="47.26375" lon="6.09956">
        <ele>370</ele>
        <time>2021-04-10T10:54:42Z</time>
      </trkpt>
      <trkpt lat="47.26374" lon="6.09958">
        <ele>370.2</ele>
        <time>2021-04-10T10:54:43Z</time>
      </trkpt>
      <trkpt lat="47.26374" lon="6.09961">
        <ele>370.4</ele>
        <time>2021-04-10T10:54:44Z</time>
      </trkpt>
      <trkpt lat="47.26374" lon="6.09964">
        <ele>370.6</ele>
        <time>2021-04-10T10:54:45Z</time>
      </trkpt>
      <trkpt lat="47.26374" lon="6.09967">
        <ele>370.6</ele>
        <time>2021-04-10T10:54:46Z</time>
      </trkpt>
      <trkpt lat="47.26375" lon="6.09971">
        <ele>370.6</ele>
        <time>2021-04-10T10:54:47Z</time>
      </trkpt>
      <trkpt lat="47.26374" lon="6.09973">
        <ele>370.8</ele>
        <time>2021-04-10T10:54:48Z</time>
      </trkpt>
      <trkpt lat="47.26374" lon="6.09975">
        <ele>370.8</ele>
        <time>2021-04-10T10:54:49Z</time>
      </trkpt>
      <trkpt lat="47.26374" lon="6.09976">
        <ele>371.2</ele>
        <time>2021-04-10T10:54:50Z</time>
      </trkpt>
      <trkpt lat="47.26374" lon="6.09977">
        <ele>371.2</ele>
        <time>2021-04-10T10:54:51Z</time>
      </trkpt>
      <trkpt lat="47.26374" lon="6.09978">
        <ele>371.4</ele>
        <time>2021-04-10T10:54:52Z</time>
      </trkpt>
      <trkpt lat="47.26376" lon="6.0998">
        <ele>371.4</ele>
        <time>2021-04-10T10:54:53Z</time>
      </trkpt>
      <trkpt lat="47.26377" lon="6.09981">
        <ele>371.6</ele>
        <time>2021-04-10T10:54:54Z</time>
      </trkpt>
      <trkpt lat="47.26377" lon="6.09983">
        <ele>371.6</ele>
        <time>2021-04-10T10:54:55Z</time>
      </trkpt>
      <trkpt lat="47.26378" lon="6.09984">
        <ele>371.8</ele>
        <time>2021-04-10T10:54:56Z</time>
      </trkpt>
      <trkpt lat="47.26378" lon="6.09986">
        <ele>371.8</ele>
        <time>2021-04-10T10:54:57Z</time>
      </trkpt>
      <trkpt lat="47.26378" lon="6.09988">
        <ele>372</ele>
        <time>2021-04-10T10:54:58Z</time>
      </trkpt>
      <trkpt lat="47.26378" lon="6.09989">
        <ele>372</ele>
        <time>2021-04-10T10:54:59Z</time>
      </trkpt>
      <trkpt lat="47.26379" lon="6.0999">
        <ele>372.2</ele>
        <time>2021-04-10T10:55:00Z</time>
      </trkpt>
      <trkpt lat="47.26379" lon="6.09991">
        <ele>372.4</ele>
        <time>2021-04-10T10:55:01Z</time>
      </trkpt>
      <trkpt lat="47.26379" lon="6.09992">
        <ele>372.4</ele>
        <time>2021-04-10T10:55:02Z</time>
      </trkpt>
      <trkpt lat="47.2638" lon="6.09994">
        <ele>372.4</ele>
        <time>2021-04-10T10:55:03Z</time>
      </trkpt>
      <trkpt lat="47.26381" lon="6.09996">
        <ele>372.4</ele>
        <time>2021-04-10T10:55:04Z</time>
      </trkpt>
      <trkpt lat="47.26381" lon="6.09999">
        <ele>372.6</ele>
        <time>2021-04-10T10:55:05Z</time>
      </trkpt>
      <trkpt lat="47.26382" lon="6.10001">
        <ele>372.8</ele>
        <time>2021-04-10T10:55:06Z</time>
      </trkpt>
      <trkpt lat="47.26381" lon="6.10003">
        <ele>372.8</ele>
        <time>2021-04-10T10:55:07Z</time>
      </trkpt>
      <trkpt lat="47.26381" lon="6.10005">
        <ele>373</ele>
        <time>2021-04-10T10:55:08Z</time>
      </trkpt>
      <trkpt lat="47.26381" lon="6.10008">
        <ele>373</ele>
        <time>2021-04-10T10:55:09Z</time>
      </trkpt>
      <trkpt lat="47.26382" lon="6.10012">
        <ele>373.2</ele>
        <time>2021-04-10T10:55:10Z</time>
      </trkpt>
      <trkpt lat="47.26382" lon="6.10014">
        <ele>373.2</ele>
        <time>2021-04-10T10:55:11Z</time>
      </trkpt>
      <trkpt lat="47.26383" lon="6.10016">
        <ele>373.6</ele>
        <time>2021-04-10T10:55:12Z</time>
      </trkpt>
      <trkpt lat="47.26384" lon="6.10019">
        <ele>373.6</ele>
        <time>2021-04-10T10:55:13Z</time>
      </trkpt>
      <trkpt lat="47.26384" lon="6.10021">
        <ele>373.8</ele>
        <time>2021-04-10T10:55:14Z</time>
      </trkpt>
      <trkpt lat="47.26384" lon="6.10023">
        <ele>374</ele>
        <time>2021-04-10T10:55:15Z</time>
      </trkpt>
      <trkpt lat="47.26385" lon="6.10026">
        <ele>374</ele>
        <time>2021-04-10T10:55:16Z</time>
      </trkpt>
      <trkpt lat="47.26386" lon="6.10029">
        <ele>374.2</ele>
        <time>2021-04-10T10:55:17Z</time>
      </trkpt>
      <trkpt lat="47.26387" lon="6.1003">
        <ele>374.4</ele>
        <time>2021-04-10T10:55:18Z</time>
      </trkpt>
      <trkpt lat="47.26388" lon="6.10032">
        <ele>374.4</ele>
        <time>2021-04-10T10:55:19Z</time>
      </trkpt>
      <trkpt lat="47.26389" lon="6.10034">
        <ele>374.6</ele>
        <time>2021-04-10T10:55:20Z</time>
      </trkpt>
      <trkpt lat="47.26391" lon="6.10035">
        <ele>374.6</ele>
        <time>2021-04-10T10:55:21Z</time>
      </trkpt>
      <trkpt lat="47.26392" lon="6.10039">
        <ele>374.8</ele>
        <time>2021-04-10T10:55:22Z</time>
      </trkpt>
      <trkpt lat="47.26393" lon="6.10042">
        <ele>374.8</ele>
        <time>2021-04-10T10:55:23Z</time>
      </trkpt>
      <trkpt lat="47.26393" lon="6.10045">
        <ele>375</ele>
        <time>2021-04-10T10:55:24Z</time>
      </trkpt>
      <trkpt lat="47.26393" lon="6.10049">
        <ele>375.2</ele>
        <time>2021-04-10T10:55:25Z</time>
      </trkpt>
      <trkpt lat="47.26392" lon="6.10052">
        <ele>375.4</ele>
        <time>2021-04-10T10:55:26Z</time>
      </trkpt>
      <trkpt lat="47.26394" lon="6.10054">
        <ele>375.6</ele>
        <time>2021-04-10T10:55:27Z</time>
      </trkpt>
      <trkpt lat="47.26395" lon="6.10056">
        <ele>375.8</ele>
        <time>2021-04-10T10:55:28Z</time>
      </trkpt>
      <trkpt lat="47.26395" lon="6.10059">
        <ele>375.8</ele>
        <time>2021-04-10T10:55:29Z</time>
      </trkpt>
      <trkpt lat="47.26395" lon="6.10061">
        <ele>376.2</ele>
        <time>2021-04-10T10:55:30Z</time>
      </trkpt>
      <trkpt lat="47.26395" lon="6.10063">
        <ele>376.4</ele>
        <time>2021-04-10T10:55:31Z</time>
      </trkpt>
      <trkpt lat="47.26396" lon="6.10065">
        <ele>376.6</ele>
        <time>2021-04-10T10:55:32Z</time>
      </trkpt>
      <trkpt lat="47.26399" lon="6.10066">
        <ele>376.8</ele>
        <time>2021-04-10T10:55:33Z</time>
      </trkpt>
      <trkpt lat="47.26399" lon="6.10069">
        <ele>376.8</ele>
        <time>2021-04-10T10:55:34Z</time>
      </trkpt>
      <trkpt lat="47.26397" lon="6.10074">
        <ele>377</ele>
        <time>2021-04-10T10:55:35Z</time>
      </trkpt>
      <trkpt lat="47.26397" lon="6.10075">
        <ele>377.2</ele>
        <time>2021-04-10T10:55:36Z</time>
      </trkpt>
      <trkpt lat="47.26397" lon="6.10076">
        <ele>377.6</ele>
        <time>2021-04-10T10:55:37Z</time>
      </trkpt>
      <trkpt lat="47.26397" lon="6.10078">
        <ele>377.8</ele>
        <time>2021-04-10T10:55:38Z</time>
      </trkpt>
      <trkpt lat="47.26398" lon="6.10079">
        <ele>378</ele>
        <time>2021-04-10T10:55:39Z</time>
      </trkpt>
      <trkpt lat="47.26398" lon="6.1008">
        <ele>378.2</ele>
        <time>2021-04-10T10:55:40Z</time>
      </trkpt>
      <trkpt lat="47.26399" lon="6.10081">
        <ele>378.4</ele>
        <time>2021-04-10T10:55:41Z</time>
      </trkpt>
      <trkpt lat="47.26399" lon="6.10083">
        <ele>378.4</ele>
        <time>2021-04-10T10:55:42Z</time>
      </trkpt>
      <trkpt lat="47.264" lon="6.10084">
        <ele>378.6</ele>
        <time>2021-04-10T10:55:43Z</time>
      </trkpt>
      <trkpt lat="47.264" lon="6.10086">
        <ele>378.8</ele>
        <time>2021-04-10T10:55:44Z</time>
      </trkpt>
      <trkpt lat="47.264" lon="6.10088">
        <ele>379</ele>
        <time>2021-04-10T10:55:45Z</time>
      </trkpt>
      <trkpt lat="47.26401" lon="6.1009">
        <ele>379</ele>
        <time>2021-04-10T10:55:46Z</time>
      </trkpt>
      <trkpt lat="47.26402" lon="6.10092">
        <ele>379</ele>
        <time>2021-04-10T10:55:47Z</time>
      </trkpt>
      <trkpt lat="47.26402" lon="6.10093">
        <ele>379.2</ele>
        <time>2021-04-10T10:55:48Z</time>
      </trkpt>
      <trkpt lat="47.26403" lon="6.10095">
        <ele>379.4</ele>
        <time>2021-04-10T10:55:49Z</time>
      </trkpt>
      <trkpt lat="47.26404" lon="6.10098">
        <ele>379.6</ele>
        <time>2021-04-10T10:55:50Z</time>
      </trkpt>
      <trkpt lat="47.26404" lon="6.10101">
        <ele>379.8</ele>
        <time>2021-04-10T10:55:51Z</time>
      </trkpt>
      <trkpt lat="47.26404" lon="6.10102">
        <ele>379.8</ele>
        <time>2021-04-10T10:55:52Z</time>
      </trkpt>
      <trkpt lat="47.26403" lon="6.10103">
        <ele>380.2</ele>
        <time>2021-04-10T10:55:53Z</time>
      </trkpt>
      <trkpt lat="47.26403" lon="6.10103">
        <ele>380.4</ele>
        <time>2021-04-10T10:55:54Z</time>
      </trkpt>
      <trkpt lat="47.26403" lon="6.10106">
        <ele>380.6</ele>
        <time>2021-04-10T10:55:55Z</time>
      </trkpt>
      <trkpt lat="47.26404" lon="6.10109">
        <ele>380.6</ele>
        <time>2021-04-10T10:55:56Z</time>
      </trkpt>
      <trkpt lat="47.26404" lon="6.10111">
        <ele>381</ele>
        <time>2021-04-10T10:55:57Z</time>
      </trkpt>
      <trkpt lat="47.26406" lon="6.10113">
        <ele>381</ele>
        <time>2021-04-10T10:55:58Z</time>
      </trkpt>
      <trkpt lat="47.26407" lon="6.10116">
        <ele>381.2</ele>
        <time>2021-04-10T10:55:59Z</time>
      </trkpt>
      <trkpt lat="47.26407" lon="6.10119">
        <ele>381.4</ele>
        <time>2021-04-10T10:56:00Z</time>
      </trkpt>
      <trkpt lat="47.2641" lon="6.10122">
        <ele>381.6</ele>
        <time>2021-04-10T10:56:01Z</time>
      </trkpt>
      <trkpt lat="47.26411" lon="6.10125">
        <ele>381.8</ele>
        <time>2021-04-10T10:56:02Z</time>
      </trkpt>
      <trkpt lat="47.26414" lon="6.10127">
        <ele>381.8</ele>
        <time>2021-04-10T10:56:03Z</time>
      </trkpt>
      <trkpt lat="47.26414" lon="6.10129">
        <ele>382</ele>
        <time>2021-04-10T10:56:04Z</time>
      </trkpt>
      <trkpt lat="47.26415" lon="6.10132">
        <ele>382.2</ele>
        <time>2021-04-10T10:56:05Z</time>
      </trkpt>
      <trkpt lat="47.26415" lon="6.10134">
        <ele>382.6</ele>
        <time>2021-04-10T10:56:06Z</time>
      </trkpt>
      <trkpt lat="47.26416" lon="6.10137">
        <ele>382.6</ele>
        <time>2021-04-10T10:56:07Z</time>
      </trkpt>
      <trkpt lat="47.26418" lon="6.10139">
        <ele>382.8</ele>
        <time>2021-04-10T10:56:08Z</time>
      </trkpt>
      <trkpt lat="47.26419" lon="6.10142">
        <ele>383</ele>
        <time>2021-04-10T10:56:09Z</time>
      </trkpt>
      <trkpt lat="47.2642" lon="6.10144">
        <ele>383.2</ele>
        <time>2021-04-10T10:56:10Z</time>
      </trkpt>
      <trkpt lat="47.2642" lon="6.10147">
        <ele>383.4</ele>
        <time>2021-04-10T10:56:11Z</time>
      </trkpt>
      <trkpt lat="47.26421" lon="6.10148">
        <ele>383.4</ele>
        <time>2021-04-10T10:56:12Z</time>
      </trkpt>
      <trkpt lat="47.2642" lon="6.10152">
        <ele>383.6</ele>
        <time>2021-04-10T10:56:13Z</time>
      </trkpt>
      <trkpt lat="47.26422" lon="6.10154">
        <ele>383.8</ele>
        <time>2021-04-10T10:56:14Z</time>
      </trkpt>
      <trkpt lat="47.26423" lon="6.10156">
        <ele>384.2</ele>
        <time>2021-04-10T10:56:15Z</time>
      </trkpt>
      <trkpt lat="47.26424" lon="6.10159">
        <ele>384.2</ele>
        <time>2021-04-10T10:56:16Z</time>
      </trkpt>
      <trkpt lat="47.26426" lon="6.10161">
        <ele>384.6</ele>
        <time>2021-04-10T10:56:17Z</time>
      </trkpt>
      <trkpt lat="47.26428" lon="6.10163">
        <ele>384.6</ele>
        <time>2021-04-10T10:56:18Z</time>
      </trkpt>
      <trkpt lat="47.26427" lon="6.10166">
        <ele>385</ele>
        <time>2021-04-10T10:56:19Z</time>
      </trkpt>
      <trkpt lat="47.26427" lon="6.10169">
        <ele>385.2</ele>
        <time>2021-04-10T10:56:20Z</time>
      </trkpt>
      <trkpt lat="47.26428" lon="6.10172">
        <ele>385.4</ele>
        <time>2021-04-10T10:56:21Z</time>
      </trkpt>
      <trkpt lat="47.26427" lon="6.10175">
        <ele>385.4</ele>
        <time>2021-04-10T10:56:22Z</time>
      </trkpt>
      <trkpt lat="47.26428" lon="6.10177">
        <ele>385.6</ele>
        <time>2021-04-10T10:56:23Z</time>
      </trkpt>
      <trkpt lat="47.2643" lon="6.10178">
        <ele>386</ele>
        <time>2021-04-10T10:56:24Z</time>
      </trkpt>
      <trkpt lat="47.26432" lon="6.10181">
        <ele>386.2</ele>
        <time>2021-04-10T10:56:25Z</time>
      </trkpt>
      <trkpt lat="47.26432" lon="6.10185">
        <ele>386.4</ele>
        <time>2021-04-10T10:56:26Z</time>
      </trkpt>
      <trkpt lat="47.26433" lon="6.10187">
        <ele>386.4</ele>
        <time>2021-04-10T10:56:27Z</time>
      </trkpt>
      <trkpt lat="47.26433" lon="6.10189">
        <ele>386.4</ele>
        <time>2021-04-10T10:56:28Z</time>
      </trkpt>
      <trkpt lat="47.26432" lon="6.10191">
        <ele>386.6</ele>
        <time>2021-04-10T10:56:29Z</time>
      </trkpt>
      <trkpt lat="47.26433" lon="6.10194">
        <ele>386.6</ele>
        <time>2021-04-10T10:56:30Z</time>
      </trkpt>
      <trkpt lat="47.26433" lon="6.10196">
        <ele>386.8</ele>
        <time>2021-04-10T10:56:31Z</time>
      </trkpt>
      <trkpt lat="47.26433" lon="6.10198">
        <ele>386.8</ele>
        <time>2021-04-10T10:56:32Z</time>
      </trkpt>
      <trkpt lat="47.26434" lon="6.10199">
        <ele>387</ele>
        <time>2021-04-10T10:56:33Z</time>
      </trkpt>
      <trkpt lat="47.26433" lon="6.102">
        <ele>387.2</ele>
        <time>2021-04-10T10:56:34Z</time>
      </trkpt>
      <trkpt lat="47.26434" lon="6.10201">
        <ele>387.4</ele>
        <time>2021-04-10T10:56:35Z</time>
      </trkpt>
      <trkpt lat="47.26434" lon="6.10203">
        <ele>387.4</ele>
        <time>2021-04-10T10:56:36Z</time>
      </trkpt>
      <trkpt lat="47.26435" lon="6.10205">
        <ele>387.6</ele>
        <time>2021-04-10T10:56:37Z</time>
      </trkpt>
      <trkpt lat="47.26436" lon="6.10207">
        <ele>387.8</ele>
        <time>2021-04-10T10:56:38Z</time>
      </trkpt>
      <trkpt lat="47.26436" lon="6.1021">
        <ele>388</ele>
        <time>2021-04-10T10:56:39Z</time>
      </trkpt>
      <trkpt lat="47.26436" lon="6.10212">
        <ele>388.2</ele>
        <time>2021-04-10T10:56:40Z</time>
      </trkpt>
      <trkpt lat="47.26436" lon="6.10214">
        <ele>388.4</ele>
        <time>2021-04-10T10:56:41Z</time>
      </trkpt>
      <trkpt lat="47.26436" lon="6.10217">
        <ele>388.6</ele>
        <time>2021-04-10T10:56:42Z</time>
      </trkpt>
      <trkpt lat="47.26436" lon="6.1022">
        <ele>388.6</ele>
        <time>2021-04-10T10:56:43Z</time>
      </trkpt>
      <trkpt lat="47.26437" lon="6.10222">
        <ele>388.8</ele>
        <time>2021-04-10T10:56:44Z</time>
      </trkpt>
      <trkpt lat="47.26438" lon="6.10224">
        <ele>388.8</ele>
        <time>2021-04-10T10:56:45Z</time>
      </trkpt>
      <trkpt lat="47.26438" lon="6.10226">
        <ele>389</ele>
        <time>2021-04-10T10:56:46Z</time>
      </trkpt>
      <trkpt lat="47.26437" lon="6.10229">
        <ele>389.2</ele>
        <time>2021-04-10T10:56:47Z</time>
      </trkpt>
      <trkpt lat="47.26437" lon="6.10231">
        <ele>389.2</ele>
        <time>2021-04-10T10:56:48Z</time>
      </trkpt>
      <trkpt lat="47.26437" lon="6.10234">
        <ele>389.6</ele>
        <time>2021-04-10T10:56:49Z</time>
      </trkpt>
      <trkpt lat="47.26436" lon="6.10235">
        <ele>389.6</ele>
        <time>2021-04-10T10:56:50Z</time>
      </trkpt>
      <trkpt lat="47.26435" lon="6.10236">
        <ele>389.6</ele>
        <time>2021-04-10T10:56:51Z</time>
      </trkpt>
      <trkpt lat="47.26436" lon="6.10239">
        <ele>389.8</ele>
        <time>2021-04-10T10:56:52Z</time>
      </trkpt>
      <trkpt lat="47.26436" lon="6.1024">
        <ele>389.8</ele>
        <time>2021-04-10T10:56:53Z</time>
      </trkpt>
      <trkpt lat="47.26436" lon="6.10243">
        <ele>389.8</ele>
        <time>2021-04-10T10:56:54Z</time>
      </trkpt>
      <trkpt lat="47.26436" lon="6.10245">
        <ele>390</ele>
        <time>2021-04-10T10:56:55Z</time>
      </trkpt>
      <trkpt lat="47.26435" lon="6.10247">
        <ele>390.2</ele>
        <time>2021-04-10T10:56:56Z</time>
      </trkpt>
      <trkpt lat="47.26435" lon="6.10248">
        <ele>390.2</ele>
        <time>2021-04-10T10:56:57Z</time>
      </trkpt>
      <trkpt lat="47.26434" lon="6.10251">
        <ele>390.4</ele>
        <time>2021-04-10T10:56:58Z</time>
      </trkpt>
      <trkpt lat="47.26434" lon="6.10253">
        <ele>390.6</ele>
        <time>2021-04-10T10:56:59Z</time>
      </trkpt>
      <trkpt lat="47.26433" lon="6.10256">
        <ele>390.8</ele>
        <time>2021-04-10T10:57:00Z</time>
      </trkpt>
      <trkpt lat="47.26433" lon="6.10259">
        <ele>391</ele>
        <time>2021-04-10T10:57:01Z</time>
      </trkpt>
      <trkpt lat="47.26433" lon="6.10262">
        <ele>391.2</ele>
        <time>2021-04-10T10:57:02Z</time>
      </trkpt>
      <trkpt lat="47.26433" lon="6.10264">
        <ele>391.4</ele>
        <time>2021-04-10T10:57:03Z</time>
      </trkpt>
      <trkpt lat="47.26433" lon="6.10267">
        <ele>391.6</ele>
        <time>2021-04-10T10:57:04Z</time>
      </trkpt>
      <trkpt lat="47.26432" lon="6.1027">
        <ele>391.8</ele>
        <time>2021-04-10T10:57:05Z</time>
      </trkpt>
      <trkpt lat="47.26431" lon="6.10272">
        <ele>391.8</ele>
        <time>2021-04-10T10:57:06Z</time>
      </trkpt>
      <trkpt lat="47.2643" lon="6.10274">
        <ele>392</ele>
        <time>2021-04-10T10:57:07Z</time>
      </trkpt>
      <trkpt lat="47.26428" lon="6.10276">
        <ele>392</ele>
        <time>2021-04-10T10:57:08Z</time>
      </trkpt>
      <trkpt lat="47.26426" lon="6.10282">
        <ele>392.4</ele>
        <time>2021-04-10T10:57:09Z</time>
      </trkpt>
      <trkpt lat="47.26425" lon="6.10285">
        <ele>392.4</ele>
        <time>2021-04-10T10:57:10Z</time>
      </trkpt>
      <trkpt lat="47.26425" lon="6.10286">
        <ele>392.6</ele>
        <time>2021-04-10T10:57:11Z</time>
      </trkpt>
      <trkpt lat="47.26424" lon="6.10288">
        <ele>392.8</ele>
        <time>2021-04-10T10:57:12Z</time>
      </trkpt>
      <trkpt lat="47.26421" lon="6.1029">
        <ele>393</ele>
        <time>2021-04-10T10:57:13Z</time>
      </trkpt>
      <trkpt lat="47.26421" lon="6.10293">
        <ele>393.2</ele>
        <time>2021-04-10T10:57:14Z</time>
      </trkpt>
      <trkpt lat="47.2642" lon="6.10296">
        <ele>393.2</ele>
        <time>2021-04-10T10:57:15Z</time>
      </trkpt>
      <trkpt lat="47.26419" lon="6.10298">
        <ele>393.4</ele>
        <time>2021-04-10T10:57:16Z</time>
      </trkpt>
      <trkpt lat="47.26419" lon="6.103">
        <ele>393.4</ele>
        <time>2021-04-10T10:57:17Z</time>
      </trkpt>
      <trkpt lat="47.26418" lon="6.10301">
        <ele>393.6</ele>
        <time>2021-04-10T10:57:18Z</time>
      </trkpt>
      <trkpt lat="47.26418" lon="6.10301">
        <ele>393.6</ele>
        <time>2021-04-10T10:57:19Z</time>
      </trkpt>
      <trkpt lat="47.26417" lon="6.10303">
        <ele>393.6</ele>
        <time>2021-04-10T10:57:20Z</time>
      </trkpt>
      <trkpt lat="47.26416" lon="6.10305">
        <ele>393.8</ele>
        <time>2021-04-10T10:57:21Z</time>
      </trkpt>
      <trkpt lat="47.26415" lon="6.10307">
        <ele>394</ele>
        <time>2021-04-10T10:57:22Z</time>
      </trkpt>
      <trkpt lat="47.26414" lon="6.10309">
        <ele>394.2</ele>
        <time>2021-04-10T10:57:23Z</time>
      </trkpt>
      <trkpt lat="47.26413" lon="6.1031">
        <ele>394.4</ele>
        <time>2021-04-10T10:57:24Z</time>
      </trkpt>
      <trkpt lat="47.26411" lon="6.10311">
        <ele>394.6</ele>
        <time>2021-04-10T10:57:25Z</time>
      </trkpt>
      <trkpt lat="47.2641" lon="6.10313">
        <ele>394.6</ele>
        <time>2021-04-10T10:57:26Z</time>
      </trkpt>
      <trkpt lat="47.26408" lon="6.10314">
        <ele>394.8</ele>
        <time>2021-04-10T10:57:27Z</time>
      </trkpt>
      <trkpt lat="47.26406" lon="6.10315">
        <ele>394.8</ele>
        <time>2021-04-10T10:57:28Z</time>
      </trkpt>
      <trkpt lat="47.26405" lon="6.10316">
        <ele>395</ele>
        <time>2021-04-10T10:57:29Z</time>
      </trkpt>
      <trkpt lat="47.26404" lon="6.10317">
        <ele>395</ele>
        <time>2021-04-10T10:57:30Z</time>
      </trkpt>
      <trkpt lat="47.26402" lon="6.1032">
        <ele>395.2</ele>
        <time>2021-04-10T10:57:31Z</time>
      </trkpt>
      <trkpt lat="47.264" lon="6.10322">
        <ele>395.4</ele>
        <time>2021-04-10T10:57:32Z</time>
      </trkpt>
      <trkpt lat="47.26399" lon="6.10323">
        <ele>395.4</ele>
        <time>2021-04-10T10:57:33Z</time>
      </trkpt>
      <trkpt lat="47.26398" lon="6.10324">
        <ele>395.6</ele>
        <time>2021-04-10T10:57:34Z</time>
      </trkpt>
      <trkpt lat="47.26397" lon="6.10325">
        <ele>395.6</ele>
        <time>2021-04-10T10:57:35Z</time>
      </trkpt>
      <trkpt lat="47.26396" lon="6.10325">
        <ele>395.8</ele>
        <time>2021-04-10T10:57:36Z</time>
      </trkpt>
      <trkpt lat="47.26394" lon="6.10326">
        <ele>395.8</ele>
        <time>2021-04-10T10:57:37Z</time>
      </trkpt>
      <trkpt lat="47.26391" lon="6.10327">
        <ele>396</ele>
        <time>2021-04-10T10:57:38Z</time>
      </trkpt>
      <trkpt lat="47.26389" lon="6.10327">
        <ele>396</ele>
        <time>2021-04-10T10:57:39Z</time>
      </trkpt>
      <trkpt lat="47.26388" lon="6.10328">
        <ele>396.2</ele>
        <time>2021-04-10T10:57:40Z</time>
      </trkpt>
      <trkpt lat="47.26386" lon="6.10329">
        <ele>396.2</ele>
        <time>2021-04-10T10:57:41Z</time>
      </trkpt>
      <trkpt lat="47.26383" lon="6.10329">
        <ele>396.2</ele>
        <time>2021-04-10T10:57:42Z</time>
      </trkpt>
      <trkpt lat="47.26381" lon="6.1033">
        <ele>396.4</ele>
        <time>2021-04-10T10:57:43Z</time>
      </trkpt>
      <trkpt lat="47.2638" lon="6.10331">
        <ele>396.4</ele>
        <time>2021-04-10T10:57:44Z</time>
      </trkpt>
      <trkpt lat="47.26378" lon="6.10332">
        <ele>396.6</ele>
        <time>2021-04-10T10:57:45Z</time>
      </trkpt>
      <trkpt lat="47.26376" lon="6.10333">
        <ele>396.6</ele>
        <time>2021-04-10T10:57:46Z</time>
      </trkpt>
      <trkpt lat="47.26374" lon="6.10333">
        <ele>396.6</ele>
        <time>2021-04-10T10:57:47Z</time>
      </trkpt>
      <trkpt lat="47.26371" lon="6.10333">
        <ele>396.6</ele>
        <time>2021-04-10T10:57:48Z</time>
      </trkpt>
      <trkpt lat="47.26369" lon="6.10334">
        <ele>396.8</ele>
        <time>2021-04-10T10:57:49Z</time>
      </trkpt>
      <trkpt lat="47.26368" lon="6.10335">
        <ele>396.8</ele>
        <time>2021-04-10T10:57:50Z</time>
      </trkpt>
      <trkpt lat="47.26366" lon="6.10334">
        <ele>397</ele>
        <time>2021-04-10T10:57:51Z</time>
      </trkpt>
      <trkpt lat="47.26365" lon="6.10334">
        <ele>397</ele>
        <time>2021-04-10T10:57:52Z</time>
      </trkpt>
      <trkpt lat="47.26364" lon="6.10333">
        <ele>397</ele>
        <time>2021-04-10T10:57:53Z</time>
      </trkpt>
      <trkpt lat="47.26362" lon="6.10332">
        <ele>397.4</ele>
        <time>2021-04-10T10:57:54Z</time>
      </trkpt>
      <trkpt lat="47.26361" lon="6.10331">
        <ele>397.4</ele>
        <time>2021-04-10T10:57:55Z</time>
      </trkpt>
      <trkpt lat="47.2636" lon="6.1033">
        <ele>397.6</ele>
        <time>2021-04-10T10:57:56Z</time>
      </trkpt>
      <trkpt lat="47.26359" lon="6.1033">
        <ele>397.6</ele>
        <time>2021-04-10T10:57:57Z</time>
      </trkpt>
      <trkpt lat="47.26357" lon="6.10329">
        <ele>397.8</ele>
        <time>2021-04-10T10:57:58Z</time>
      </trkpt>
      <trkpt lat="47.26356" lon="6.10329">
        <ele>397.8</ele>
        <time>2021-04-10T10:57:59Z</time>
      </trkpt>
      <trkpt lat="47.26353" lon="6.10328">
        <ele>398.2</ele>
        <time>2021-04-10T10:58:00Z</time>
      </trkpt>
      <trkpt lat="47.2635" lon="6.10325">
        <ele>398.4</ele>
        <time>2021-04-10T10:58:02Z</time>
      </trkpt>
      <trkpt lat="47.26348" lon="6.10324">
        <ele>398.6</ele>
        <time>2021-04-10T10:58:03Z</time>
      </trkpt>
      <trkpt lat="47.26347" lon="6.10323">
        <ele>398.6</ele>
        <time>2021-04-10T10:58:04Z</time>
      </trkpt>
      <trkpt lat="47.26345" lon="6.10322">
        <ele>398.8</ele>
        <time>2021-04-10T10:58:05Z</time>
      </trkpt>
      <trkpt lat="47.26344" lon="6.1032">
        <ele>399</ele>
        <time>2021-04-10T10:58:06Z</time>
      </trkpt>
      <trkpt lat="47.26343" lon="6.10318">
        <ele>399.2</ele>
        <time>2021-04-10T10:58:07Z</time>
      </trkpt>
      <trkpt lat="47.26341" lon="6.10317">
        <ele>399.4</ele>
        <time>2021-04-10T10:58:08Z</time>
      </trkpt>
      <trkpt lat="47.26339" lon="6.10316">
        <ele>399.8</ele>
        <time>2021-04-10T10:58:09Z</time>
      </trkpt>
      <trkpt lat="47.26338" lon="6.10314">
        <ele>400.2</ele>
        <time>2021-04-10T10:58:10Z</time>
      </trkpt>
      <trkpt lat="47.26337" lon="6.10312">
        <ele>400.4</ele>
        <time>2021-04-10T10:58:11Z</time>
      </trkpt>
      <trkpt lat="47.26335" lon="6.1031">
        <ele>400.6</ele>
        <time>2021-04-10T10:58:12Z</time>
      </trkpt>
      <trkpt lat="47.26335" lon="6.10308">
        <ele>400.8</ele>
        <time>2021-04-10T10:58:13Z</time>
      </trkpt>
      <trkpt lat="47.26334" lon="6.10307">
        <ele>401</ele>
        <time>2021-04-10T10:58:14Z</time>
      </trkpt>
      <trkpt lat="47.26333" lon="6.10304">
        <ele>401.2</ele>
        <time>2021-04-10T10:58:15Z</time>
      </trkpt>
      <trkpt lat="47.26333" lon="6.10302">
        <ele>401.4</ele>
        <time>2021-04-10T10:58:16Z</time>
      </trkpt>
      <trkpt lat="47.26331" lon="6.103">
        <ele>401.6</ele>
        <time>2021-04-10T10:58:17Z</time>
      </trkpt>
      <trkpt lat="47.26331" lon="6.10298">
        <ele>401.6</ele>
        <time>2021-04-10T10:58:18Z</time>
      </trkpt>
      <trkpt lat="47.2633" lon="6.10296">
        <ele>401.8</ele>
        <time>2021-04-10T10:58:19Z</time>
      </trkpt>
      <trkpt lat="47.26329" lon="6.10294">
        <ele>401.8</ele>
        <time>2021-04-10T10:58:20Z</time>
      </trkpt>
      <trkpt lat="47.26327" lon="6.10292">
        <ele>402</ele>
        <time>2021-04-10T10:58:21Z</time>
      </trkpt>
      <trkpt lat="47.26327" lon="6.1029">
        <ele>402.2</ele>
        <time>2021-04-10T10:58:22Z</time>
      </trkpt>
      <trkpt lat="47.26326" lon="6.10288">
        <ele>402.2</ele>
        <time>2021-04-10T10:58:23Z</time>
      </trkpt>
      <trkpt lat="47.26324" lon="6.10285">
        <ele>402.2</ele>
        <time>2021-04-10T10:58:24Z</time>
      </trkpt>
      <trkpt lat="47.26324" lon="6.10283">
        <ele>402.4</ele>
        <time>2021-04-10T10:58:25Z</time>
      </trkpt>
      <trkpt lat="47.26323" lon="6.1028">
        <ele>402.4</ele>
        <time>2021-04-10T10:58:26Z</time>
      </trkpt>
      <trkpt lat="47.26321" lon="6.10278">
        <ele>402.6</ele>
        <time>2021-04-10T10:58:27Z</time>
      </trkpt>
      <trkpt lat="47.2632" lon="6.10276">
        <ele>402.8</ele>
        <time>2021-04-10T10:58:28Z</time>
      </trkpt>
      <trkpt lat="47.2632" lon="6.10274">
        <ele>402.8</ele>
        <time>2021-04-10T10:58:29Z</time>
      </trkpt>
      <trkpt lat="47.26319" lon="6.10271">
        <ele>403</ele>
        <time>2021-04-10T10:58:30Z</time>
      </trkpt>
      <trkpt lat="47.26319" lon="6.10269">
        <ele>403.2</ele>
        <time>2021-04-10T10:58:31Z</time>
      </trkpt>
      <trkpt lat="47.26317" lon="6.10267">
        <ele>403.4</ele>
        <time>2021-04-10T10:58:32Z</time>
      </trkpt>
      <trkpt lat="47.26316" lon="6.10264">
        <ele>403.4</ele>
        <time>2021-04-10T10:58:33Z</time>
      </trkpt>
      <trkpt lat="47.26316" lon="6.10261">
        <ele>403.6</ele>
        <time>2021-04-10T10:58:34Z</time>
      </trkpt>
      <trkpt lat="47.26315" lon="6.10259">
        <ele>403.6</ele>
        <time>2021-04-10T10:58:35Z</time>
      </trkpt>
      <trkpt lat="47.26315" lon="6.10256">
        <ele>403.8</ele>
        <time>2021-04-10T10:58:36Z</time>
      </trkpt>
      <trkpt lat="47.26315" lon="6.10253">
        <ele>404</ele>
        <time>2021-04-10T10:58:37Z</time>
      </trkpt>
      <trkpt lat="47.26314" lon="6.10251">
        <ele>404.2</ele>
        <time>2021-04-10T10:58:38Z</time>
      </trkpt>
      <trkpt lat="47.26314" lon="6.1025">
        <ele>404.4</ele>
        <time>2021-04-10T10:58:39Z</time>
      </trkpt>
      <trkpt lat="47.26313" lon="6.10247">
        <ele>404.6</ele>
        <time>2021-04-10T10:58:40Z</time>
      </trkpt>
      <trkpt lat="47.26312" lon="6.10245">
        <ele>404.8</ele>
        <time>2021-04-10T10:58:41Z</time>
      </trkpt>
      <trkpt lat="47.26312" lon="6.10243">
        <ele>405</ele>
        <time>2021-04-10T10:58:42Z</time>
      </trkpt>
      <trkpt lat="47.26312" lon="6.10241">
        <ele>405.2</ele>
        <time>2021-04-10T10:58:43Z</time>
      </trkpt>
      <trkpt lat="47.26311" lon="6.10237">
        <ele>405.2</ele>
        <time>2021-04-10T10:58:44Z</time>
      </trkpt>
      <trkpt lat="47.2631" lon="6.10235">
        <ele>405.6</ele>
        <time>2021-04-10T10:58:45Z</time>
      </trkpt>
      <trkpt lat="47.26309" lon="6.10233">
        <ele>405.8</ele>
        <time>2021-04-10T10:58:46Z</time>
      </trkpt>
      <trkpt lat="47.26309" lon="6.1023">
        <ele>405.8</ele>
        <time>2021-04-10T10:58:47Z</time>
      </trkpt>
      <trkpt lat="47.26309" lon="6.10228">
        <ele>406</ele>
        <time>2021-04-10T10:58:48Z</time>
      </trkpt>
      <trkpt lat="47.26308" lon="6.10226">
        <ele>406</ele>
        <time>2021-04-10T10:58:49Z</time>
      </trkpt>
      <trkpt lat="47.26307" lon="6.10224">
        <ele>406</ele>
        <time>2021-04-10T10:58:50Z</time>
      </trkpt>
      <trkpt lat="47.26307" lon="6.10221">
        <ele>406.2</ele>
        <time>2021-04-10T10:58:51Z</time>
      </trkpt>
      <trkpt lat="47.26307" lon="6.10218">
        <ele>406.4</ele>
        <time>2021-04-10T10:58:52Z</time>
      </trkpt>
      <trkpt lat="47.26306" lon="6.10216">
        <ele>406.6</ele>
        <time>2021-04-10T10:58:53Z</time>
      </trkpt>
      <trkpt lat="47.26306" lon="6.10214">
        <ele>406.8</ele>
        <time>2021-04-10T10:58:54Z</time>
      </trkpt>
      <trkpt lat="47.26306" lon="6.10211">
        <ele>406.8</ele>
        <time>2021-04-10T10:58:55Z</time>
      </trkpt>
      <trkpt lat="47.26306" lon="6.10208">
        <ele>406.8</ele>
        <time>2021-04-10T10:58:56Z</time>
      </trkpt>
      <trkpt lat="47.26305" lon="6.10205">
        <ele>407</ele>
        <time>2021-04-10T10:58:57Z</time>
      </trkpt>
      <trkpt lat="47.26305" lon="6.10203">
        <ele>407.2</ele>
        <time>2021-04-10T10:58:58Z</time>
      </trkpt>
      <trkpt lat="47.26305" lon="6.10201">
        <ele>407.2</ele>
        <time>2021-04-10T10:58:59Z</time>
      </trkpt>
      <trkpt lat="47.26304" lon="6.10199">
        <ele>407.2</ele>
        <time>2021-04-10T10:59:00Z</time>
      </trkpt>
      <trkpt lat="47.26302" lon="6.10196">
        <ele>407.4</ele>
        <time>2021-04-10T10:59:01Z</time>
      </trkpt>
      <trkpt lat="47.26301" lon="6.10193">
        <ele>407.6</ele>
        <time>2021-04-10T10:59:02Z</time>
      </trkpt>
      <trkpt lat="47.263" lon="6.1019">
        <ele>407.8</ele>
        <time>2021-04-10T10:59:03Z</time>
      </trkpt>
      <trkpt lat="47.263" lon="6.10188">
        <ele>407.8</ele>
        <time>2021-04-10T10:59:04Z</time>
      </trkpt>
      <trkpt lat="47.26299" lon="6.10186">
        <ele>408.2</ele>
        <time>2021-04-10T10:59:05Z</time>
      </trkpt>
      <trkpt lat="47.26299" lon="6.10183">
        <ele>408.6</ele>
        <time>2021-04-10T10:59:06Z</time>
      </trkpt>
      <trkpt lat="47.26299" lon="6.10179">
        <ele>408.8</ele>
        <time>2021-04-10T10:59:07Z</time>
      </trkpt>
      <trkpt lat="47.26297" lon="6.10176">
        <ele>409</ele>
        <time>2021-04-10T10:59:08Z</time>
      </trkpt>
      <trkpt lat="47.26297" lon="6.10172">
        <ele>409</ele>
        <time>2021-04-10T10:59:09Z</time>
      </trkpt>
      <trkpt lat="47.26297" lon="6.10169">
        <ele>409.2</ele>
        <time>2021-04-10T10:59:10Z</time>
      </trkpt>
      <trkpt lat="47.26296" lon="6.10165">
        <ele>409.4</ele>
        <time>2021-04-10T10:59:11Z</time>
      </trkpt>
      <trkpt lat="47.26295" lon="6.10161">
        <ele>409.6</ele>
        <time>2021-04-10T10:59:12Z</time>
      </trkpt>
      <trkpt lat="47.26294" lon="6.10159">
        <ele>409.8</ele>
        <time>2021-04-10T10:59:13Z</time>
      </trkpt>
      <trkpt lat="47.26293" lon="6.10156">
        <ele>410</ele>
        <time>2021-04-10T10:59:14Z</time>
      </trkpt>
      <trkpt lat="47.26292" lon="6.10153">
        <ele>410</ele>
        <time>2021-04-10T10:59:15Z</time>
      </trkpt>
      <trkpt lat="47.26291" lon="6.1015">
        <ele>410.2</ele>
        <time>2021-04-10T10:59:16Z</time>
      </trkpt>
      <trkpt lat="47.2629" lon="6.10147">
        <ele>410.6</ele>
        <time>2021-04-10T10:59:17Z</time>
      </trkpt>
      <trkpt lat="47.26289" lon="6.10144">
        <ele>410.8</ele>
        <time>2021-04-10T10:59:18Z</time>
      </trkpt>
      <trkpt lat="47.26288" lon="6.1014">
        <ele>411</ele>
        <time>2021-04-10T10:59:19Z</time>
      </trkpt>
      <trkpt lat="47.26287" lon="6.10138">
        <ele>411</ele>
        <time>2021-04-10T10:59:20Z</time>
      </trkpt>
      <trkpt lat="47.26287" lon="6.10135">
        <ele>411.2</ele>
        <time>2021-04-10T10:59:21Z</time>
      </trkpt>
      <trkpt lat="47.26285" lon="6.10133">
        <ele>411.2</ele>
        <time>2021-04-10T10:59:22Z</time>
      </trkpt>
      <trkpt lat="47.26284" lon="6.10131">
        <ele>411.4</ele>
        <time>2021-04-10T10:59:23Z</time>
      </trkpt>
      <trkpt lat="47.26282" lon="6.10128">
        <ele>411.6</ele>
        <time>2021-04-10T10:59:24Z</time>
      </trkpt>
      <trkpt lat="47.26281" lon="6.10126">
        <ele>411.6</ele>
        <time>2021-04-10T10:59:25Z</time>
      </trkpt>
      <trkpt lat="47.26279" lon="6.10124">
        <ele>411.8</ele>
        <time>2021-04-10T10:59:26Z</time>
      </trkpt>
      <trkpt lat="47.26278" lon="6.10122">
        <ele>411.8</ele>
        <time>2021-04-10T10:59:27Z</time>
      </trkpt>
      <trkpt lat="47.26277" lon="6.1012">
        <ele>412</ele>
        <time>2021-04-10T10:59:28Z</time>
      </trkpt>
      <trkpt lat="47.26276" lon="6.10118">
        <ele>412</ele>
        <time>2021-04-10T10:59:29Z</time>
      </trkpt>
      <trkpt lat="47.26275" lon="6.10116">
        <ele>412.2</ele>
        <time>2021-04-10T10:59:30Z</time>
      </trkpt>
      <trkpt lat="47.26274" lon="6.10114">
        <ele>412.2</ele>
        <time>2021-04-10T10:59:31Z</time>
      </trkpt>
      <trkpt lat="47.26272" lon="6.10112">
        <ele>412.2</ele>
        <time>2021-04-10T10:59:32Z</time>
      </trkpt>
      <trkpt lat="47.2627" lon="6.1011">
        <ele>412.4</ele>
        <time>2021-04-10T10:59:33Z</time>
      </trkpt>
      <trkpt lat="47.26269" lon="6.10108">
        <ele>412.4</ele>
        <time>2021-04-10T10:59:34Z</time>
      </trkpt>
      <trkpt lat="47.26267" lon="6.10107">
        <ele>412.6</ele>
        <time>2021-04-10T10:59:35Z</time>
      </trkpt>
      <trkpt lat="47.26266" lon="6.10106">
        <ele>412.6</ele>
        <time>2021-04-10T10:59:36Z</time>
      </trkpt>
      <trkpt lat="47.26264" lon="6.10106">
        <ele>412.6</ele>
        <time>2021-04-10T10:59:37Z</time>
      </trkpt>
      <trkpt lat="47.26262" lon="6.10104">
        <ele>412.8</ele>
        <time>2021-04-10T10:59:38Z</time>
      </trkpt>
      <trkpt lat="47.2626" lon="6.10102">
        <ele>413</ele>
        <time>2021-04-10T10:59:39Z</time>
      </trkpt>
      <trkpt lat="47.26258" lon="6.10101">
        <ele>412.8</ele>
        <time>2021-04-10T10:59:40Z</time>
      </trkpt>
      <trkpt lat="47.26256" lon="6.101">
        <ele>413</ele>
        <time>2021-04-10T10:59:41Z</time>
      </trkpt>
      <trkpt lat="47.26254" lon="6.10097">
        <ele>413</ele>
        <time>2021-04-10T10:59:42Z</time>
      </trkpt>
      <trkpt lat="47.26252" lon="6.10096">
        <ele>412.8</ele>
        <time>2021-04-10T10:59:43Z</time>
      </trkpt>
      <trkpt lat="47.2625" lon="6.10094">
        <ele>412.8</ele>
        <time>2021-04-10T10:59:44Z</time>
      </trkpt>
      <trkpt lat="47.26248" lon="6.10092">
        <ele>412.8</ele>
        <time>2021-04-10T10:59:45Z</time>
      </trkpt>
      <trkpt lat="47.26238" lon="6.10082">
        <ele>413</ele>
        <time>2021-04-10T10:59:50Z</time>
      </trkpt>
      <trkpt lat="47.26223" lon="6.10064">
        <ele>413.8</ele>
        <time>2021-04-10T10:59:56Z</time>
      </trkpt>
      <trkpt lat="47.26218" lon="6.10061">
        <ele>414</ele>
        <time>2021-04-10T10:59:58Z</time>
      </trkpt>
      <trkpt lat="47.26211" lon="6.10054">
        <ele>414.2</ele>
        <time>2021-04-10T11:00:02Z</time>
      </trkpt>
      <trkpt lat="47.2621" lon="6.10053">
        <ele>414.2</ele>
        <time>2021-04-10T11:00:03Z</time>
      </trkpt>
      <trkpt lat="47.26206" lon="6.1005">
        <ele>414</ele>
        <time>2021-04-10T11:00:05Z</time>
      </trkpt>
      <trkpt lat="47.26204" lon="6.10048">
        <ele>414</ele>
        <time>2021-04-10T11:00:06Z</time>
      </trkpt>
      <trkpt lat="47.26202" lon="6.10047">
        <ele>414</ele>
        <time>2021-04-10T11:00:07Z</time>
      </trkpt>
      <trkpt lat="47.26193" lon="6.10041">
        <ele>414</ele>
        <time>2021-04-10T11:00:11Z</time>
      </trkpt>
      <trkpt lat="47.2619" lon="6.10037">
        <ele>414</ele>
        <time>2021-04-10T11:00:13Z</time>
      </trkpt>
      <trkpt lat="47.26189" lon="6.10035">
        <ele>414</ele>
        <time>2021-04-10T11:00:14Z</time>
      </trkpt>
      <trkpt lat="47.26188" lon="6.10034">
        <ele>414</ele>
        <time>2021-04-10T11:00:15Z</time>
      </trkpt>
      <trkpt lat="47.26186" lon="6.10033">
        <ele>414</ele>
        <time>2021-04-10T11:00:16Z</time>
      </trkpt>
      <trkpt lat="47.26185" lon="6.10033">
        <ele>414</ele>
        <time>2021-04-10T11:00:17Z</time>
      </trkpt>
      <trkpt lat="47.26183" lon="6.10033">
        <ele>414.2</ele>
        <time>2021-04-10T11:00:18Z</time>
      </trkpt>
      <trkpt lat="47.26181" lon="6.10032">
        <ele>414.2</ele>
        <time>2021-04-10T11:00:19Z</time>
      </trkpt>
      <trkpt lat="47.26179" lon="6.10033">
        <ele>414.2</ele>
        <time>2021-04-10T11:00:20Z</time>
      </trkpt>
      <trkpt lat="47.26176" lon="6.10033">
        <ele>414.2</ele>
        <time>2021-04-10T11:00:21Z</time>
      </trkpt>
      <trkpt lat="47.26174" lon="6.10035">
        <ele>414.2</ele>
        <time>2021-04-10T11:00:22Z</time>
      </trkpt>
      <trkpt lat="47.26173" lon="6.10036">
        <ele>414.4</ele>
        <time>2021-04-10T11:00:23Z</time>
      </trkpt>
      <trkpt lat="47.26172" lon="6.10037">
        <ele>414.6</ele>
        <time>2021-04-10T11:00:24Z</time>
      </trkpt>
      <trkpt lat="47.2617" lon="6.10038">
        <ele>414.6</ele>
        <time>2021-04-10T11:00:25Z</time>
      </trkpt>
      <trkpt lat="47.26169" lon="6.1004">
        <ele>414.8</ele>
        <time>2021-04-10T11:00:26Z</time>
      </trkpt>
      <trkpt lat="47.26167" lon="6.10041">
        <ele>415</ele>
        <time>2021-04-10T11:00:27Z</time>
      </trkpt>
      <trkpt lat="47.26166" lon="6.10042">
        <ele>415.2</ele>
        <time>2021-04-10T11:00:28Z</time>
      </trkpt>
      <trkpt lat="47.26164" lon="6.10044">
        <ele>415.4</ele>
        <time>2021-04-10T11:00:29Z</time>
      </trkpt>
      <trkpt lat="47.26157" lon="6.1005">
        <ele>415.8</ele>
        <time>2021-04-10T11:00:32Z</time>
      </trkpt>
      <trkpt lat="47.26153" lon="6.10053">
        <ele>416</ele>
        <time>2021-04-10T11:00:33Z</time>
      </trkpt>
      <trkpt lat="47.26145" lon="6.10063">
        <ele>416.4</ele>
        <time>2021-04-10T11:00:36Z</time>
      </trkpt>
      <trkpt lat="47.26143" lon="6.10065">
        <ele>416.6</ele>
        <time>2021-04-10T11:00:37Z</time>
      </trkpt>
      <trkpt lat="47.2614" lon="6.10068">
        <ele>416.8</ele>
        <time>2021-04-10T11:00:38Z</time>
      </trkpt>
      <trkpt lat="47.26135" lon="6.10073">
        <ele>417.2</ele>
        <time>2021-04-10T11:00:40Z</time>
      </trkpt>
      <trkpt lat="47.26135" lon="6.10075">
        <ele>417.2</ele>
        <time>2021-04-10T11:00:41Z</time>
      </trkpt>
      <trkpt lat="47.26135" lon="6.10077">
        <ele>417.4</ele>
        <time>2021-04-10T11:00:42Z</time>
      </trkpt>
      <trkpt lat="47.26134" lon="6.10079">
        <ele>417.6</ele>
        <time>2021-04-10T11:00:43Z</time>
      </trkpt>
      <trkpt lat="47.26134" lon="6.10081">
        <ele>417.8</ele>
        <time>2021-04-10T11:00:44Z</time>
      </trkpt>
      <trkpt lat="47.26133" lon="6.10085">
        <ele>418</ele>
        <time>2021-04-10T11:00:45Z</time>
      </trkpt>
      <trkpt lat="47.26132" lon="6.10086">
        <ele>418.4</ele>
        <time>2021-04-10T11:00:46Z</time>
      </trkpt>
      <trkpt lat="47.2613" lon="6.10088">
        <ele>418.6</ele>
        <time>2021-04-10T11:00:47Z</time>
      </trkpt>
      <trkpt lat="47.26129" lon="6.10088">
        <ele>418.6</ele>
        <time>2021-04-10T11:00:48Z</time>
      </trkpt>
      <trkpt lat="47.26128" lon="6.10089">
        <ele>418.8</ele>
        <time>2021-04-10T11:00:49Z</time>
      </trkpt>
      <trkpt lat="47.26127" lon="6.10091">
        <ele>419</ele>
        <time>2021-04-10T11:00:50Z</time>
      </trkpt>
      <trkpt lat="47.26125" lon="6.10092">
        <ele>419.2</ele>
        <time>2021-04-10T11:00:51Z</time>
      </trkpt>
      <trkpt lat="47.26123" lon="6.10093">
        <ele>419.2</ele>
        <time>2021-04-10T11:00:52Z</time>
      </trkpt>
      <trkpt lat="47.26121" lon="6.10095">
        <ele>419.4</ele>
        <time>2021-04-10T11:00:53Z</time>
      </trkpt>
      <trkpt lat="47.26121" lon="6.10097">
        <ele>419.6</ele>
        <time>2021-04-10T11:00:54Z</time>
      </trkpt>
      <trkpt lat="47.2612" lon="6.10099">
        <ele>419.8</ele>
        <time>2021-04-10T11:00:55Z</time>
      </trkpt>
      <trkpt lat="47.26119" lon="6.10101">
        <ele>420</ele>
        <time>2021-04-10T11:00:56Z</time>
      </trkpt>
      <trkpt lat="47.26118" lon="6.10104">
        <ele>420.2</ele>
        <time>2021-04-10T11:00:57Z</time>
      </trkpt>
      <trkpt lat="47.26118" lon="6.10106">
        <ele>420.4</ele>
        <time>2021-04-10T11:00:58Z</time>
      </trkpt>
      <trkpt lat="47.26117" lon="6.1011">
        <ele>420.6</ele>
        <time>2021-04-10T11:00:59Z</time>
      </trkpt>
      <trkpt lat="47.26117" lon="6.1011">
        <ele>420.8</ele>
        <time>2021-04-10T11:01:00Z</time>
      </trkpt>
      <trkpt lat="47.26117" lon="6.10113">
        <ele>420.8</ele>
        <time>2021-04-10T11:01:01Z</time>
      </trkpt>
      <trkpt lat="47.26116" lon="6.10116">
        <ele>421</ele>
        <time>2021-04-10T11:01:02Z</time>
      </trkpt>
      <trkpt lat="47.26116" lon="6.10119">
        <ele>421</ele>
        <time>2021-04-10T11:01:03Z</time>
      </trkpt>
      <trkpt lat="47.26115" lon="6.10121">
        <ele>421.4</ele>
        <time>2021-04-10T11:01:04Z</time>
      </trkpt>
      <trkpt lat="47.26115" lon="6.10125">
        <ele>421.6</ele>
        <time>2021-04-10T11:01:05Z</time>
      </trkpt>
      <trkpt lat="47.26115" lon="6.10129">
        <ele>421.8</ele>
        <time>2021-04-10T11:01:06Z</time>
      </trkpt>
      <trkpt lat="47.26114" lon="6.10132">
        <ele>422</ele>
        <time>2021-04-10T11:01:07Z</time>
      </trkpt>
      <trkpt lat="47.26114" lon="6.10134">
        <ele>422</ele>
        <time>2021-04-10T11:01:08Z</time>
      </trkpt>
      <trkpt lat="47.26114" lon="6.10137">
        <ele>422.4</ele>
        <time>2021-04-10T11:01:09Z</time>
      </trkpt>
      <trkpt lat="47.26114" lon="6.1014">
        <ele>422.6</ele>
        <time>2021-04-10T11:01:10Z</time>
      </trkpt>
      <trkpt lat="47.26113" lon="6.10143">
        <ele>422.8</ele>
        <time>2021-04-10T11:01:11Z</time>
      </trkpt>
      <trkpt lat="47.26112" lon="6.10146">
        <ele>423</ele>
        <time>2021-04-10T11:01:12Z</time>
      </trkpt>
      <trkpt lat="47.26112" lon="6.10149">
        <ele>423.2</ele>
        <time>2021-04-10T11:01:13Z</time>
      </trkpt>
      <trkpt lat="47.26112" lon="6.10152">
        <ele>423.4</ele>
        <time>2021-04-10T11:01:14Z</time>
      </trkpt>
      <trkpt lat="47.26112" lon="6.10154">
        <ele>423.6</ele>
        <time>2021-04-10T11:01:15Z</time>
      </trkpt>
      <trkpt lat="47.26111" lon="6.10158">
        <ele>423.8</ele>
        <time>2021-04-10T11:01:16Z</time>
      </trkpt>
      <trkpt lat="47.26111" lon="6.10162">
        <ele>423.8</ele>
        <time>2021-04-10T11:01:17Z</time>
      </trkpt>
      <trkpt lat="47.2611" lon="6.10165">
        <ele>424.2</ele>
        <time>2021-04-10T11:01:18Z</time>
      </trkpt>
      <trkpt lat="47.2611" lon="6.10168">
        <ele>424.2</ele>
        <time>2021-04-10T11:01:19Z</time>
      </trkpt>
      <trkpt lat="47.26108" lon="6.10171">
        <ele>424.4</ele>
        <time>2021-04-10T11:01:20Z</time>
      </trkpt>
      <trkpt lat="47.26107" lon="6.10174">
        <ele>424.4</ele>
        <time>2021-04-10T11:01:21Z</time>
      </trkpt>
      <trkpt lat="47.26107" lon="6.10179">
        <ele>424.4</ele>
        <time>2021-04-10T11:01:22Z</time>
      </trkpt>
      <trkpt lat="47.26108" lon="6.10183">
        <ele>424.4</ele>
        <time>2021-04-10T11:01:23Z</time>
      </trkpt>
      <trkpt lat="47.26107" lon="6.10186">
        <ele>424.4</ele>
        <time>2021-04-10T11:01:24Z</time>
      </trkpt>
      <trkpt lat="47.26107" lon="6.10191">
        <ele>424.2</ele>
        <time>2021-04-10T11:01:25Z</time>
      </trkpt>
      <trkpt lat="47.26107" lon="6.10195">
        <ele>424.2</ele>
        <time>2021-04-10T11:01:26Z</time>
      </trkpt>
      <trkpt lat="47.26107" lon="6.10198">
        <ele>424.4</ele>
        <time>2021-04-10T11:01:27Z</time>
      </trkpt>
      <trkpt lat="47.26108" lon="6.10202">
        <ele>424.4</ele>
        <time>2021-04-10T11:01:28Z</time>
      </trkpt>
      <trkpt lat="47.26108" lon="6.10206">
        <ele>424.4</ele>
        <time>2021-04-10T11:01:29Z</time>
      </trkpt>
      <trkpt lat="47.26106" lon="6.10211">
        <ele>424.4</ele>
        <time>2021-04-10T11:01:30Z</time>
      </trkpt>
      <trkpt lat="47.26103" lon="6.10217">
        <ele>424.4</ele>
        <time>2021-04-10T11:01:31Z</time>
      </trkpt>
      <trkpt lat="47.26101" lon="6.10224">
        <ele>424.4</ele>
        <time>2021-04-10T11:01:32Z</time>
      </trkpt>
      <trkpt lat="47.261" lon="6.1023">
        <ele>424.4</ele>
        <time>2021-04-10T11:01:33Z</time>
      </trkpt>
      <trkpt lat="47.26099" lon="6.10235">
        <ele>424.4</ele>
        <time>2021-04-10T11:01:34Z</time>
      </trkpt>
      <trkpt lat="47.26098" lon="6.10238">
        <ele>424.6</ele>
        <time>2021-04-10T11:01:35Z</time>
      </trkpt>
      <trkpt lat="47.26097" lon="6.1024">
        <ele>424.6</ele>
        <time>2021-04-10T11:01:36Z</time>
      </trkpt>
      <trkpt lat="47.26096" lon="6.10251">
        <ele>424.6</ele>
        <time>2021-04-10T11:01:39Z</time>
      </trkpt>
      <trkpt lat="47.26096" lon="6.10255">
        <ele>424.6</ele>
        <time>2021-04-10T11:01:40Z</time>
      </trkpt>
      <trkpt lat="47.26095" lon="6.10258">
        <ele>424.8</ele>
        <time>2021-04-10T11:01:41Z</time>
      </trkpt>
      <trkpt lat="47.26095" lon="6.10262">
        <ele>424.8</ele>
        <time>2021-04-10T11:01:42Z</time>
      </trkpt>
      <trkpt lat="47.26096" lon="6.10266">
        <ele>424.8</ele>
        <time>2021-04-10T11:01:43Z</time>
      </trkpt>
      <trkpt lat="47.26097" lon="6.10268">
        <ele>425</ele>
        <time>2021-04-10T11:01:44Z</time>
      </trkpt>
      <trkpt lat="47.26096" lon="6.10271">
        <ele>425.4</ele>
        <time>2021-04-10T11:01:45Z</time>
      </trkpt>
      <trkpt lat="47.26096" lon="6.10276">
        <ele>425.6</ele>
        <time>2021-04-10T11:01:46Z</time>
      </trkpt>
      <trkpt lat="47.26095" lon="6.10279">
        <ele>425.8</ele>
        <time>2021-04-10T11:01:47Z</time>
      </trkpt>
      <trkpt lat="47.26093" lon="6.10283">
        <ele>425.8</ele>
        <time>2021-04-10T11:01:48Z</time>
      </trkpt>
      <trkpt lat="47.2609" lon="6.10295">
        <ele>426.2</ele>
        <time>2021-04-10T11:01:51Z</time>
      </trkpt>
      <trkpt lat="47.26087" lon="6.10305">
        <ele>426.6</ele>
        <time>2021-04-10T11:01:55Z</time>
      </trkpt>
      <trkpt lat="47.26087" lon="6.10307">
        <ele>427</ele>
        <time>2021-04-10T11:01:56Z</time>
      </trkpt>
      <trkpt lat="47.26085" lon="6.10309">
        <ele>427.2</ele>
        <time>2021-04-10T11:01:57Z</time>
      </trkpt>
      <trkpt lat="47.26084" lon="6.10311">
        <ele>427.6</ele>
        <time>2021-04-10T11:01:58Z</time>
      </trkpt>
      <trkpt lat="47.26083" lon="6.10313">
        <ele>427.8</ele>
        <time>2021-04-10T11:01:59Z</time>
      </trkpt>
      <trkpt lat="47.26082" lon="6.10315">
        <ele>428.2</ele>
        <time>2021-04-10T11:02:00Z</time>
      </trkpt>
      <trkpt lat="47.2608" lon="6.10318">
        <ele>428.4</ele>
        <time>2021-04-10T11:02:01Z</time>
      </trkpt>
      <trkpt lat="47.26078" lon="6.10321">
        <ele>428.8</ele>
        <time>2021-04-10T11:02:02Z</time>
      </trkpt>
      <trkpt lat="47.26077" lon="6.10324">
        <ele>429</ele>
        <time>2021-04-10T11:02:03Z</time>
      </trkpt>
      <trkpt lat="47.26076" lon="6.10327">
        <ele>429.2</ele>
        <time>2021-04-10T11:02:04Z</time>
      </trkpt>
      <trkpt lat="47.26074" lon="6.10329">
        <ele>429.2</ele>
        <time>2021-04-10T11:02:05Z</time>
      </trkpt>
      <trkpt lat="47.26072" lon="6.10332">
        <ele>429.4</ele>
        <time>2021-04-10T11:02:06Z</time>
      </trkpt>
      <trkpt lat="47.2607" lon="6.10335">
        <ele>429.6</ele>
        <time>2021-04-10T11:02:07Z</time>
      </trkpt>
      <trkpt lat="47.26069" lon="6.10337">
        <ele>429.6</ele>
        <time>2021-04-10T11:02:08Z</time>
      </trkpt>
      <trkpt lat="47.26067" lon="6.10339">
        <ele>429.6</ele>
        <time>2021-04-10T11:02:09Z</time>
      </trkpt>
      <trkpt lat="47.26065" lon="6.10342">
        <ele>429.8</ele>
        <time>2021-04-10T11:02:10Z</time>
      </trkpt>
      <trkpt lat="47.26063" lon="6.10344">
        <ele>429.8</ele>
        <time>2021-04-10T11:02:11Z</time>
      </trkpt>
      <trkpt lat="47.26063" lon="6.10346">
        <ele>430</ele>
        <time>2021-04-10T11:02:12Z</time>
      </trkpt>
      <trkpt lat="47.26062" lon="6.10348">
        <ele>430</ele>
        <time>2021-04-10T11:02:13Z</time>
      </trkpt>
      <trkpt lat="47.2606" lon="6.1035">
        <ele>430</ele>
        <time>2021-04-10T11:02:14Z</time>
      </trkpt>
      <trkpt lat="47.26059" lon="6.1035">
        <ele>430.2</ele>
        <time>2021-04-10T11:02:15Z</time>
      </trkpt>
      <trkpt lat="47.26058" lon="6.10352">
        <ele>430.2</ele>
        <time>2021-04-10T11:02:16Z</time>
      </trkpt>
      <trkpt lat="47.26056" lon="6.10353">
        <ele>430.4</ele>
        <time>2021-04-10T11:02:17Z</time>
      </trkpt>
      <trkpt lat="47.26054" lon="6.10354">
        <ele>430.6</ele>
        <time>2021-04-10T11:02:18Z</time>
      </trkpt>
      <trkpt lat="47.26051" lon="6.10354">
        <ele>430.6</ele>
        <time>2021-04-10T11:02:19Z</time>
      </trkpt>
      <trkpt lat="47.26047" lon="6.10357">
        <ele>430.8</ele>
        <time>2021-04-10T11:02:20Z</time>
      </trkpt>
      <trkpt lat="47.26045" lon="6.10358">
        <ele>431</ele>
        <time>2021-04-10T11:02:21Z</time>
      </trkpt>
      <trkpt lat="47.26043" lon="6.10358">
        <ele>431.2</ele>
        <time>2021-04-10T11:02:22Z</time>
      </trkpt>
      <trkpt lat="47.26041" lon="6.10358">
        <ele>431.4</ele>
        <time>2021-04-10T11:02:23Z</time>
      </trkpt>
      <trkpt lat="47.26037" lon="6.10359">
        <ele>431.4</ele>
        <time>2021-04-10T11:02:24Z</time>
      </trkpt>
      <trkpt lat="47.26035" lon="6.10359">
        <ele>431.6</ele>
        <time>2021-04-10T11:02:25Z</time>
      </trkpt>
      <trkpt lat="47.26034" lon="6.10359">
        <ele>431.8</ele>
        <time>2021-04-10T11:02:26Z</time>
      </trkpt>
      <trkpt lat="47.26032" lon="6.10358">
        <ele>432</ele>
        <time>2021-04-10T11:02:27Z</time>
      </trkpt>
      <trkpt lat="47.26031" lon="6.10357">
        <ele>432.2</ele>
        <time>2021-04-10T11:02:28Z</time>
      </trkpt>
      <trkpt lat="47.26029" lon="6.10356">
        <ele>432.2</ele>
        <time>2021-04-10T11:02:29Z</time>
      </trkpt>
      <trkpt lat="47.26027" lon="6.10355">
        <ele>432.4</ele>
        <time>2021-04-10T11:02:30Z</time>
      </trkpt>
      <trkpt lat="47.26025" lon="6.10354">
        <ele>432.4</ele>
        <time>2021-04-10T11:02:31Z</time>
      </trkpt>
      <trkpt lat="47.26024" lon="6.10353">
        <ele>432.6</ele>
        <time>2021-04-10T11:02:32Z</time>
      </trkpt>
      <trkpt lat="47.26022" lon="6.10352">
        <ele>432.6</ele>
        <time>2021-04-10T11:02:33Z</time>
      </trkpt>
      <trkpt lat="47.26021" lon="6.10352">
        <ele>433</ele>
        <time>2021-04-10T11:02:34Z</time>
      </trkpt>
      <trkpt lat="47.26019" lon="6.10351">
        <ele>433</ele>
        <time>2021-04-10T11:02:35Z</time>
      </trkpt>
      <trkpt lat="47.26018" lon="6.1035">
        <ele>433.4</ele>
        <time>2021-04-10T11:02:36Z</time>
      </trkpt>
      <trkpt lat="47.26017" lon="6.10349">
        <ele>433.6</ele>
        <time>2021-04-10T11:02:37Z</time>
      </trkpt>
      <trkpt lat="47.26016" lon="6.10348">
        <ele>434</ele>
        <time>2021-04-10T11:02:38Z</time>
      </trkpt>
      <trkpt lat="47.26015" lon="6.10348">
        <ele>434</ele>
        <time>2021-04-10T11:02:39Z</time>
      </trkpt>
      <trkpt lat="47.26014" lon="6.10347">
        <ele>434.4</ele>
        <time>2021-04-10T11:02:40Z</time>
      </trkpt>
      <trkpt lat="47.26013" lon="6.10345">
        <ele>434.6</ele>
        <time>2021-04-10T11:02:41Z</time>
      </trkpt>
      <trkpt lat="47.26011" lon="6.10344">
        <ele>434.6</ele>
        <time>2021-04-10T11:02:42Z</time>
      </trkpt>
      <trkpt lat="47.26009" lon="6.10343">
        <ele>434.8</ele>
        <time>2021-04-10T11:02:43Z</time>
      </trkpt>
      <trkpt lat="47.26007" lon="6.10341">
        <ele>435</ele>
        <time>2021-04-10T11:02:44Z</time>
      </trkpt>
      <trkpt lat="47.26007" lon="6.1034">
        <ele>435</ele>
        <time>2021-04-10T11:02:45Z</time>
      </trkpt>
      <trkpt lat="47.26005" lon="6.10339">
        <ele>435.2</ele>
        <time>2021-04-10T11:02:46Z</time>
      </trkpt>
      <trkpt lat="47.26004" lon="6.10338">
        <ele>435.2</ele>
        <time>2021-04-10T11:02:47Z</time>
      </trkpt>
      <trkpt lat="47.26003" lon="6.10337">
        <ele>435.4</ele>
        <time>2021-04-10T11:02:48Z</time>
      </trkpt>
      <trkpt lat="47.26002" lon="6.10335">
        <ele>435.6</ele>
        <time>2021-04-10T11:02:49Z</time>
      </trkpt>
      <trkpt lat="47.26001" lon="6.10334">
        <ele>435.6</ele>
        <time>2021-04-10T11:02:50Z</time>
      </trkpt>
      <trkpt lat="47.25999" lon="6.10332">
        <ele>435.8</ele>
        <time>2021-04-10T11:02:51Z</time>
      </trkpt>
      <trkpt lat="47.25996" lon="6.1033">
        <ele>435.8</ele>
        <time>2021-04-10T11:02:52Z</time>
      </trkpt>
      <trkpt lat="47.25995" lon="6.10329">
        <ele>435.8</ele>
        <time>2021-04-10T11:02:53Z</time>
      </trkpt>
      <trkpt lat="47.25994" lon="6.10327">
        <ele>436</ele>
        <time>2021-04-10T11:02:54Z</time>
      </trkpt>
      <trkpt lat="47.25993" lon="6.10325">
        <ele>436.2</ele>
        <time>2021-04-10T11:02:55Z</time>
      </trkpt>
      <trkpt lat="47.25992" lon="6.10324">
        <ele>436.6</ele>
        <time>2021-04-10T11:02:56Z</time>
      </trkpt>
      <trkpt lat="47.25991" lon="6.10323">
        <ele>436.6</ele>
        <time>2021-04-10T11:02:57Z</time>
      </trkpt>
      <trkpt lat="47.25989" lon="6.10322">
        <ele>437</ele>
        <time>2021-04-10T11:02:58Z</time>
      </trkpt>
      <trkpt lat="47.25987" lon="6.10321">
        <ele>437.2</ele>
        <time>2021-04-10T11:02:59Z</time>
      </trkpt>
      <trkpt lat="47.25985" lon="6.10318">
        <ele>437.2</ele>
        <time>2021-04-10T11:03:00Z</time>
      </trkpt>
      <trkpt lat="47.25983" lon="6.10317">
        <ele>437.4</ele>
        <time>2021-04-10T11:03:01Z</time>
      </trkpt>
      <trkpt lat="47.25981" lon="6.10315">
        <ele>437.6</ele>
        <time>2021-04-10T11:03:02Z</time>
      </trkpt>
      <trkpt lat="47.25979" lon="6.10313">
        <ele>438</ele>
        <time>2021-04-10T11:03:03Z</time>
      </trkpt>
      <trkpt lat="47.25977" lon="6.10311">
        <ele>437.8</ele>
        <time>2021-04-10T11:03:04Z</time>
      </trkpt>
      <trkpt lat="47.25975" lon="6.10309">
        <ele>438.4</ele>
        <time>2021-04-10T11:03:05Z</time>
      </trkpt>
      <trkpt lat="47.25974" lon="6.10307">
        <ele>438.2</ele>
        <time>2021-04-10T11:03:06Z</time>
      </trkpt>
      <trkpt lat="47.25972" lon="6.10305">
        <ele>438.4</ele>
        <time>2021-04-10T11:03:07Z</time>
      </trkpt>
      <trkpt lat="47.2597" lon="6.10305">
        <ele>438.6</ele>
        <time>2021-04-10T11:03:08Z</time>
      </trkpt>
      <trkpt lat="47.25969" lon="6.10304">
        <ele>438.6</ele>
        <time>2021-04-10T11:03:09Z</time>
      </trkpt>
      <trkpt lat="47.25967" lon="6.10303">
        <ele>438.8</ele>
        <time>2021-04-10T11:03:10Z</time>
      </trkpt>
      <trkpt lat="47.25965" lon="6.10302">
        <ele>438.8</ele>
        <time>2021-04-10T11:03:11Z</time>
      </trkpt>
      <trkpt lat="47.25962" lon="6.10301">
        <ele>439</ele>
        <time>2021-04-10T11:03:12Z</time>
      </trkpt>
      <trkpt lat="47.25962" lon="6.10299">
        <ele>439</ele>
        <time>2021-04-10T11:03:13Z</time>
      </trkpt>
      <trkpt lat="47.25961" lon="6.10298">
        <ele>439</ele>
        <time>2021-04-10T11:03:14Z</time>
      </trkpt>
      <trkpt lat="47.25961" lon="6.10298">
        <ele>439.2</ele>
        <time>2021-04-10T11:03:15Z</time>
      </trkpt>
      <trkpt lat="47.25961" lon="6.10297">
        <ele>439.2</ele>
        <time>2021-04-10T11:03:16Z</time>
      </trkpt>
      <trkpt lat="47.2596" lon="6.10296">
        <ele>439.4</ele>
        <time>2021-04-10T11:03:17Z</time>
      </trkpt>
      <trkpt lat="47.25958" lon="6.10296">
        <ele>439.4</ele>
        <time>2021-04-10T11:03:18Z</time>
      </trkpt>
      <trkpt lat="47.25957" lon="6.10295">
        <ele>439.6</ele>
        <time>2021-04-10T11:03:19Z</time>
      </trkpt>
      <trkpt lat="47.25956" lon="6.10295">
        <ele>439.6</ele>
        <time>2021-04-10T11:03:20Z</time>
      </trkpt>
      <trkpt lat="47.25955" lon="6.10294">
        <ele>439.8</ele>
        <time>2021-04-10T11:03:21Z</time>
      </trkpt>
      <trkpt lat="47.25954" lon="6.10292">
        <ele>440</ele>
        <time>2021-04-10T11:03:22Z</time>
      </trkpt>
      <trkpt lat="47.25953" lon="6.10291">
        <ele>440.2</ele>
        <time>2021-04-10T11:03:23Z</time>
      </trkpt>
      <trkpt lat="47.25952" lon="6.10291">
        <ele>440.4</ele>
        <time>2021-04-10T11:03:24Z</time>
      </trkpt>
      <trkpt lat="47.25951" lon="6.10291">
        <ele>440.6</ele>
        <time>2021-04-10T11:03:25Z</time>
      </trkpt>
      <trkpt lat="47.2595" lon="6.1029">
        <ele>440.8</ele>
        <time>2021-04-10T11:03:26Z</time>
      </trkpt>
      <trkpt lat="47.25949" lon="6.10289">
        <ele>441</ele>
        <time>2021-04-10T11:03:27Z</time>
      </trkpt>
      <trkpt lat="47.25948" lon="6.10288">
        <ele>441.4</ele>
        <time>2021-04-10T11:03:28Z</time>
      </trkpt>
      <trkpt lat="47.25946" lon="6.10287">
        <ele>441.4</ele>
        <time>2021-04-10T11:03:29Z</time>
      </trkpt>
      <trkpt lat="47.25945" lon="6.10286">
        <ele>441.6</ele>
        <time>2021-04-10T11:03:30Z</time>
      </trkpt>
      <trkpt lat="47.25943" lon="6.10285">
        <ele>441.8</ele>
        <time>2021-04-10T11:03:31Z</time>
      </trkpt>
      <trkpt lat="47.2594" lon="6.10284">
        <ele>442</ele>
        <time>2021-04-10T11:03:32Z</time>
      </trkpt>
      <trkpt lat="47.25938" lon="6.10284">
        <ele>442.2</ele>
        <time>2021-04-10T11:03:33Z</time>
      </trkpt>
      <trkpt lat="47.25935" lon="6.10284">
        <ele>442.4</ele>
        <time>2021-04-10T11:03:34Z</time>
      </trkpt>
      <trkpt lat="47.25933" lon="6.10283">
        <ele>442.6</ele>
        <time>2021-04-10T11:03:35Z</time>
      </trkpt>
      <trkpt lat="47.25931" lon="6.10282">
        <ele>442.8</ele>
        <time>2021-04-10T11:03:36Z</time>
      </trkpt>
      <trkpt lat="47.2593" lon="6.10282">
        <ele>443</ele>
        <time>2021-04-10T11:03:37Z</time>
      </trkpt>
      <trkpt lat="47.25929" lon="6.10282">
        <ele>443.2</ele>
        <time>2021-04-10T11:03:38Z</time>
      </trkpt>
      <trkpt lat="47.25927" lon="6.10281">
        <ele>443.4</ele>
        <time>2021-04-10T11:03:39Z</time>
      </trkpt>
      <trkpt lat="47.25925" lon="6.1028">
        <ele>443.4</ele>
        <time>2021-04-10T11:03:40Z</time>
      </trkpt>
      <trkpt lat="47.25923" lon="6.10279">
        <ele>443.6</ele>
        <time>2021-04-10T11:03:41Z</time>
      </trkpt>
      <trkpt lat="47.25922" lon="6.10278">
        <ele>443.8</ele>
        <time>2021-04-10T11:03:42Z</time>
      </trkpt>
      <trkpt lat="47.2592" lon="6.10278">
        <ele>444</ele>
        <time>2021-04-10T11:03:43Z</time>
      </trkpt>
      <trkpt lat="47.25918" lon="6.10279">
        <ele>444.2</ele>
        <time>2021-04-10T11:03:44Z</time>
      </trkpt>
      <trkpt lat="47.25916" lon="6.10279">
        <ele>444.2</ele>
        <time>2021-04-10T11:03:45Z</time>
      </trkpt>
      <trkpt lat="47.25914" lon="6.10278">
        <ele>444.2</ele>
        <time>2021-04-10T11:03:46Z</time>
      </trkpt>
      <trkpt lat="47.25911" lon="6.10278">
        <ele>444.4</ele>
        <time>2021-04-10T11:03:47Z</time>
      </trkpt>
      <trkpt lat="47.2591" lon="6.10278">
        <ele>444.4</ele>
        <time>2021-04-10T11:03:48Z</time>
      </trkpt>
      <trkpt lat="47.25909" lon="6.10277">
        <ele>444.6</ele>
        <time>2021-04-10T11:03:49Z</time>
      </trkpt>
      <trkpt lat="47.25908" lon="6.10276">
        <ele>444.8</ele>
        <time>2021-04-10T11:03:50Z</time>
      </trkpt>
      <trkpt lat="47.25907" lon="6.10275">
        <ele>444.8</ele>
        <time>2021-04-10T11:03:51Z</time>
      </trkpt>
      <trkpt lat="47.25906" lon="6.10274">
        <ele>445</ele>
        <time>2021-04-10T11:03:52Z</time>
      </trkpt>
      <trkpt lat="47.25905" lon="6.10274">
        <ele>445</ele>
        <time>2021-04-10T11:03:53Z</time>
      </trkpt>
      <trkpt lat="47.25904" lon="6.10273">
        <ele>445</ele>
        <time>2021-04-10T11:03:54Z</time>
      </trkpt>
      <trkpt lat="47.25903" lon="6.10273">
        <ele>445.2</ele>
        <time>2021-04-10T11:03:55Z</time>
      </trkpt>
      <trkpt lat="47.25901" lon="6.10272">
        <ele>445.2</ele>
        <time>2021-04-10T11:03:56Z</time>
      </trkpt>
      <trkpt lat="47.25899" lon="6.10272">
        <ele>445.4</ele>
        <time>2021-04-10T11:03:57Z</time>
      </trkpt>
      <trkpt lat="47.25898" lon="6.10272">
        <ele>445.4</ele>
        <time>2021-04-10T11:03:58Z</time>
      </trkpt>
      <trkpt lat="47.25896" lon="6.10272">
        <ele>445.4</ele>
        <time>2021-04-10T11:03:59Z</time>
      </trkpt>
      <trkpt lat="47.25894" lon="6.10272">
        <ele>445.6</ele>
        <time>2021-04-10T11:04:00Z</time>
      </trkpt>
      <trkpt lat="47.25892" lon="6.10273">
        <ele>445.6</ele>
        <time>2021-04-10T11:04:01Z</time>
      </trkpt>
      <trkpt lat="47.25891" lon="6.10273">
        <ele>445.8</ele>
        <time>2021-04-10T11:04:02Z</time>
      </trkpt>
      <trkpt lat="47.2589" lon="6.10272">
        <ele>446</ele>
        <time>2021-04-10T11:04:03Z</time>
      </trkpt>
      <trkpt lat="47.25889" lon="6.10272">
        <ele>446</ele>
        <time>2021-04-10T11:04:04Z</time>
      </trkpt>
      <trkpt lat="47.25888" lon="6.10272">
        <ele>446.2</ele>
        <time>2021-04-10T11:04:05Z</time>
      </trkpt>
      <trkpt lat="47.25887" lon="6.10271">
        <ele>446.4</ele>
        <time>2021-04-10T11:04:06Z</time>
      </trkpt>
      <trkpt lat="47.25885" lon="6.10272">
        <ele>446.6</ele>
        <time>2021-04-10T11:04:07Z</time>
      </trkpt>
      <trkpt lat="47.25883" lon="6.10272">
        <ele>446.6</ele>
        <time>2021-04-10T11:04:08Z</time>
      </trkpt>
      <trkpt lat="47.25881" lon="6.10272">
        <ele>446.8</ele>
        <time>2021-04-10T11:04:09Z</time>
      </trkpt>
      <trkpt lat="47.25879" lon="6.10272">
        <ele>447</ele>
        <time>2021-04-10T11:04:10Z</time>
      </trkpt>
      <trkpt lat="47.25878" lon="6.10272">
        <ele>447.2</ele>
        <time>2021-04-10T11:04:11Z</time>
      </trkpt>
      <trkpt lat="47.25876" lon="6.10273">
        <ele>447.6</ele>
        <time>2021-04-10T11:04:12Z</time>
      </trkpt>
      <trkpt lat="47.25874" lon="6.10273">
        <ele>447.6</ele>
        <time>2021-04-10T11:04:13Z</time>
      </trkpt>
      <trkpt lat="47.25873" lon="6.10273">
        <ele>447.8</ele>
        <time>2021-04-10T11:04:14Z</time>
      </trkpt>
      <trkpt lat="47.25871" lon="6.10273">
        <ele>448</ele>
        <time>2021-04-10T11:04:15Z</time>
      </trkpt>
      <trkpt lat="47.2587" lon="6.10272">
        <ele>448.2</ele>
        <time>2021-04-10T11:04:16Z</time>
      </trkpt>
      <trkpt lat="47.2587" lon="6.10271">
        <ele>448.4</ele>
        <time>2021-04-10T11:04:17Z</time>
      </trkpt>
      <trkpt lat="47.25869" lon="6.1027">
        <ele>448.4</ele>
        <time>2021-04-10T11:04:18Z</time>
      </trkpt>
      <trkpt lat="47.25868" lon="6.10269">
        <ele>448.6</ele>
        <time>2021-04-10T11:04:19Z</time>
      </trkpt>
      <trkpt lat="47.25867" lon="6.10269">
        <ele>448.6</ele>
        <time>2021-04-10T11:04:20Z</time>
      </trkpt>
      <trkpt lat="47.25866" lon="6.10268">
        <ele>448.8</ele>
        <time>2021-04-10T11:04:21Z</time>
      </trkpt>
      <trkpt lat="47.25864" lon="6.10268">
        <ele>449</ele>
        <time>2021-04-10T11:04:22Z</time>
      </trkpt>
      <trkpt lat="47.25862" lon="6.10268">
        <ele>449</ele>
        <time>2021-04-10T11:04:23Z</time>
      </trkpt>
      <trkpt lat="47.2586" lon="6.10269">
        <ele>449.2</ele>
        <time>2021-04-10T11:04:24Z</time>
      </trkpt>
      <trkpt lat="47.25858" lon="6.10269">
        <ele>449.2</ele>
        <time>2021-04-10T11:04:25Z</time>
      </trkpt>
      <trkpt lat="47.25857" lon="6.10268">
        <ele>449.4</ele>
        <time>2021-04-10T11:04:26Z</time>
      </trkpt>
      <trkpt lat="47.25856" lon="6.10268">
        <ele>449.4</ele>
        <time>2021-04-10T11:04:27Z</time>
      </trkpt>
      <trkpt lat="47.25855" lon="6.10268">
        <ele>449.8</ele>
        <time>2021-04-10T11:04:28Z</time>
      </trkpt>
      <trkpt lat="47.25852" lon="6.10267">
        <ele>449.8</ele>
        <time>2021-04-10T11:04:29Z</time>
      </trkpt>
      <trkpt lat="47.25849" lon="6.10267">
        <ele>450</ele>
        <time>2021-04-10T11:04:30Z</time>
      </trkpt>
      <trkpt lat="47.25848" lon="6.10267">
        <ele>450</ele>
        <time>2021-04-10T11:04:31Z</time>
      </trkpt>
      <trkpt lat="47.25846" lon="6.10267">
        <ele>450.2</ele>
        <time>2021-04-10T11:04:32Z</time>
      </trkpt>
      <trkpt lat="47.25843" lon="6.10267">
        <ele>450.2</ele>
        <time>2021-04-10T11:04:33Z</time>
      </trkpt>
      <trkpt lat="47.2584" lon="6.10268">
        <ele>450.4</ele>
        <time>2021-04-10T11:04:34Z</time>
      </trkpt>
      <trkpt lat="47.25837" lon="6.10269">
        <ele>450.6</ele>
        <time>2021-04-10T11:04:35Z</time>
      </trkpt>
      <trkpt lat="47.25835" lon="6.1027">
        <ele>450.6</ele>
        <time>2021-04-10T11:04:36Z</time>
      </trkpt>
      <trkpt lat="47.25833" lon="6.1027">
        <ele>450.8</ele>
        <time>2021-04-10T11:04:37Z</time>
      </trkpt>
      <trkpt lat="47.2583" lon="6.1027">
        <ele>450.8</ele>
        <time>2021-04-10T11:04:38Z</time>
      </trkpt>
      <trkpt lat="47.25829" lon="6.1027">
        <ele>451</ele>
        <time>2021-04-10T11:04:39Z</time>
      </trkpt>
      <trkpt lat="47.25828" lon="6.1027">
        <ele>451</ele>
        <time>2021-04-10T11:04:40Z</time>
      </trkpt>
      <trkpt lat="47.25826" lon="6.1027">
        <ele>451.2</ele>
        <time>2021-04-10T11:04:41Z</time>
      </trkpt>
      <trkpt lat="47.25823" lon="6.1027">
        <ele>451.2</ele>
        <time>2021-04-10T11:04:42Z</time>
      </trkpt>
      <trkpt lat="47.25822" lon="6.1027">
        <ele>451.4</ele>
        <time>2021-04-10T11:04:43Z</time>
      </trkpt>
      <trkpt lat="47.25819" lon="6.1027">
        <ele>451.4</ele>
        <time>2021-04-10T11:04:44Z</time>
      </trkpt>
      <trkpt lat="47.25816" lon="6.1027">
        <ele>451.6</ele>
        <time>2021-04-10T11:04:45Z</time>
      </trkpt>
      <trkpt lat="47.25813" lon="6.1027">
        <ele>451.6</ele>
        <time>2021-04-10T11:04:46Z</time>
      </trkpt>
      <trkpt lat="47.2581" lon="6.10269">
        <ele>451.8</ele>
        <time>2021-04-10T11:04:47Z</time>
      </trkpt>
      <trkpt lat="47.25808" lon="6.10269">
        <ele>452</ele>
        <time>2021-04-10T11:04:48Z</time>
      </trkpt>
      <trkpt lat="47.25807" lon="6.10269">
        <ele>452.4</ele>
        <time>2021-04-10T11:04:49Z</time>
      </trkpt>
      <trkpt lat="47.25805" lon="6.10269">
        <ele>452.6</ele>
        <time>2021-04-10T11:04:50Z</time>
      </trkpt>
      <trkpt lat="47.25803" lon="6.10269">
        <ele>452.6</ele>
        <time>2021-04-10T11:04:51Z</time>
      </trkpt>
      <trkpt lat="47.25802" lon="6.10269">
        <ele>452.8</ele>
        <time>2021-04-10T11:04:52Z</time>
      </trkpt>
      <trkpt lat="47.258" lon="6.10268">
        <ele>453</ele>
        <time>2021-04-10T11:04:53Z</time>
      </trkpt>
      <trkpt lat="47.258" lon="6.10266">
        <ele>453</ele>
        <time>2021-04-10T11:04:54Z</time>
      </trkpt>
      <trkpt lat="47.25799" lon="6.10264">
        <ele>453.2</ele>
        <time>2021-04-10T11:04:55Z</time>
      </trkpt>
      <trkpt lat="47.25798" lon="6.10262">
        <ele>453.2</ele>
        <time>2021-04-10T11:04:56Z</time>
      </trkpt>
      <trkpt lat="47.25797" lon="6.1026">
        <ele>453.4</ele>
        <time>2021-04-10T11:04:57Z</time>
      </trkpt>
      <trkpt lat="47.25796" lon="6.10259">
        <ele>453.6</ele>
        <time>2021-04-10T11:04:58Z</time>
      </trkpt>
      <trkpt lat="47.25795" lon="6.10257">
        <ele>453.8</ele>
        <time>2021-04-10T11:04:59Z</time>
      </trkpt>
      <trkpt lat="47.25794" lon="6.10256">
        <ele>453.8</ele>
        <time>2021-04-10T11:05:00Z</time>
      </trkpt>
      <trkpt lat="47.25794" lon="6.10254">
        <ele>454</ele>
        <time>2021-04-10T11:05:01Z</time>
      </trkpt>
      <trkpt lat="47.25794" lon="6.10253">
        <ele>454</ele>
        <time>2021-04-10T11:05:02Z</time>
      </trkpt>
      <trkpt lat="47.25793" lon="6.10251">
        <ele>454.2</ele>
        <time>2021-04-10T11:05:03Z</time>
      </trkpt>
      <trkpt lat="47.25791" lon="6.10249">
        <ele>454.4</ele>
        <time>2021-04-10T11:05:04Z</time>
      </trkpt>
      <trkpt lat="47.2579" lon="6.10246">
        <ele>454.6</ele>
        <time>2021-04-10T11:05:05Z</time>
      </trkpt>
      <trkpt lat="47.2579" lon="6.10243">
        <ele>454.8</ele>
        <time>2021-04-10T11:05:06Z</time>
      </trkpt>
      <trkpt lat="47.2579" lon="6.10241">
        <ele>455</ele>
        <time>2021-04-10T11:05:07Z</time>
      </trkpt>
      <trkpt lat="47.25791" lon="6.10238">
        <ele>455.2</ele>
        <time>2021-04-10T11:05:08Z</time>
      </trkpt>
      <trkpt lat="47.25791" lon="6.10236">
        <ele>455.4</ele>
        <time>2021-04-10T11:05:09Z</time>
      </trkpt>
      <trkpt lat="47.25791" lon="6.10233">
        <ele>455.6</ele>
        <time>2021-04-10T11:05:10Z</time>
      </trkpt>
      <trkpt lat="47.25791" lon="6.1023">
        <ele>455.6</ele>
        <time>2021-04-10T11:05:11Z</time>
      </trkpt>
      <trkpt lat="47.25792" lon="6.10228">
        <ele>456</ele>
        <time>2021-04-10T11:05:12Z</time>
      </trkpt>
      <trkpt lat="47.25792" lon="6.10226">
        <ele>456.2</ele>
        <time>2021-04-10T11:05:13Z</time>
      </trkpt>
      <trkpt lat="47.25793" lon="6.10224">
        <ele>456.4</ele>
        <time>2021-04-10T11:05:14Z</time>
      </trkpt>
      <trkpt lat="47.25793" lon="6.10222">
        <ele>456.6</ele>
        <time>2021-04-10T11:05:15Z</time>
      </trkpt>
      <trkpt lat="47.25794" lon="6.10221">
        <ele>456.8</ele>
        <time>2021-04-10T11:05:16Z</time>
      </trkpt>
      <trkpt lat="47.25794" lon="6.1022">
        <ele>457</ele>
        <time>2021-04-10T11:05:17Z</time>
      </trkpt>
      <trkpt lat="47.25795" lon="6.10219">
        <ele>457.2</ele>
        <time>2021-04-10T11:05:18Z</time>
      </trkpt>
      <trkpt lat="47.25795" lon="6.10217">
        <ele>457.4</ele>
        <time>2021-04-10T11:05:19Z</time>
      </trkpt>
      <trkpt lat="47.25796" lon="6.10215">
        <ele>457.4</ele>
        <time>2021-04-10T11:05:20Z</time>
      </trkpt>
      <trkpt lat="47.25798" lon="6.10214">
        <ele>457.6</ele>
        <time>2021-04-10T11:05:21Z</time>
      </trkpt>
      <trkpt lat="47.25799" lon="6.10212">
        <ele>457.8</ele>
        <time>2021-04-10T11:05:22Z</time>
      </trkpt>
      <trkpt lat="47.258" lon="6.1021">
        <ele>457.8</ele>
        <time>2021-04-10T11:05:23Z</time>
      </trkpt>
      <trkpt lat="47.25801" lon="6.10209">
        <ele>458</ele>
        <time>2021-04-10T11:05:24Z</time>
      </trkpt>
      <trkpt lat="47.25803" lon="6.10207">
        <ele>458.2</ele>
        <time>2021-04-10T11:05:25Z</time>
      </trkpt>
      <trkpt lat="47.25804" lon="6.10205">
        <ele>458.2</ele>
        <time>2021-04-10T11:05:26Z</time>
      </trkpt>
      <trkpt lat="47.25805" lon="6.10203">
        <ele>458.4</ele>
        <time>2021-04-10T11:05:27Z</time>
      </trkpt>
      <trkpt lat="47.25807" lon="6.102">
        <ele>458.4</ele>
        <time>2021-04-10T11:05:28Z</time>
      </trkpt>
      <trkpt lat="47.25808" lon="6.10198">
        <ele>458.6</ele>
        <time>2021-04-10T11:05:29Z</time>
      </trkpt>
      <trkpt lat="47.25809" lon="6.10196">
        <ele>458.8</ele>
        <time>2021-04-10T11:05:30Z</time>
      </trkpt>
      <trkpt lat="47.2581" lon="6.10194">
        <ele>458.8</ele>
        <time>2021-04-10T11:05:31Z</time>
      </trkpt>
      <trkpt lat="47.25811" lon="6.10192">
        <ele>459</ele>
        <time>2021-04-10T11:05:32Z</time>
      </trkpt>
      <trkpt lat="47.25811" lon="6.1019">
        <ele>459</ele>
        <time>2021-04-10T11:05:33Z</time>
      </trkpt>
      <trkpt lat="47.25813" lon="6.10188">
        <ele>459</ele>
        <time>2021-04-10T11:05:34Z</time>
      </trkpt>
      <trkpt lat="47.25814" lon="6.10186">
        <ele>459.2</ele>
        <time>2021-04-10T11:05:35Z</time>
      </trkpt>
      <trkpt lat="47.25815" lon="6.10184">
        <ele>459.4</ele>
        <time>2021-04-10T11:05:36Z</time>
      </trkpt>
      <trkpt lat="47.25816" lon="6.10182">
        <ele>459.6</ele>
        <time>2021-04-10T11:05:37Z</time>
      </trkpt>
      <trkpt lat="47.25817" lon="6.10181">
        <ele>459.6</ele>
        <time>2021-04-10T11:05:38Z</time>
      </trkpt>
      <trkpt lat="47.25819" lon="6.10178">
        <ele>459.8</ele>
        <time>2021-04-10T11:05:39Z</time>
      </trkpt>
      <trkpt lat="47.2582" lon="6.10176">
        <ele>459.8</ele>
        <time>2021-04-10T11:05:40Z</time>
      </trkpt>
      <trkpt lat="47.25821" lon="6.10173">
        <ele>460</ele>
        <time>2021-04-10T11:05:41Z</time>
      </trkpt>
      <trkpt lat="47.25822" lon="6.10171">
        <ele>460</ele>
        <time>2021-04-10T11:05:42Z</time>
      </trkpt>
      <trkpt lat="47.25823" lon="6.10169">
        <ele>460</ele>
        <time>2021-04-10T11:05:43Z</time>
      </trkpt>
      <trkpt lat="47.25824" lon="6.10166">
        <ele>460</ele>
        <time>2021-04-10T11:05:44Z</time>
      </trkpt>
      <trkpt lat="47.25826" lon="6.10164">
        <ele>460.2</ele>
        <time>2021-04-10T11:05:45Z</time>
      </trkpt>
      <trkpt lat="47.25827" lon="6.10162">
        <ele>460.4</ele>
        <time>2021-04-10T11:05:46Z</time>
      </trkpt>
      <trkpt lat="47.25828" lon="6.1016">
        <ele>460.4</ele>
        <time>2021-04-10T11:05:47Z</time>
      </trkpt>
      <trkpt lat="47.25829" lon="6.10159">
        <ele>460.6</ele>
        <time>2021-04-10T11:05:48Z</time>
      </trkpt>
      <trkpt lat="47.2583" lon="6.10158">
        <ele>460.6</ele>
        <time>2021-04-10T11:05:49Z</time>
      </trkpt>
      <trkpt lat="47.25831" lon="6.10157">
        <ele>460.8</ele>
        <time>2021-04-10T11:05:50Z</time>
      </trkpt>
      <trkpt lat="47.25831" lon="6.10155">
        <ele>460.8</ele>
        <time>2021-04-10T11:05:51Z</time>
      </trkpt>
      <trkpt lat="47.25833" lon="6.10154">
        <ele>461</ele>
        <time>2021-04-10T11:05:52Z</time>
      </trkpt>
      <trkpt lat="47.25833" lon="6.10152">
        <ele>461.2</ele>
        <time>2021-04-10T11:05:53Z</time>
      </trkpt>
      <trkpt lat="47.25834" lon="6.1015">
        <ele>461.2</ele>
        <time>2021-04-10T11:05:54Z</time>
      </trkpt>
      <trkpt lat="47.25835" lon="6.10148">
        <ele>461.6</ele>
        <time>2021-04-10T11:05:55Z</time>
      </trkpt>
      <trkpt lat="47.25836" lon="6.10146">
        <ele>461.6</ele>
        <time>2021-04-10T11:05:56Z</time>
      </trkpt>
      <trkpt lat="47.25837" lon="6.10145">
        <ele>462</ele>
        <time>2021-04-10T11:05:57Z</time>
      </trkpt>
      <trkpt lat="47.25838" lon="6.10143">
        <ele>462.2</ele>
        <time>2021-04-10T11:05:58Z</time>
      </trkpt>
      <trkpt lat="47.25838" lon="6.10141">
        <ele>462.4</ele>
        <time>2021-04-10T11:05:59Z</time>
      </trkpt>
      <trkpt lat="47.25839" lon="6.10139">
        <ele>462.6</ele>
        <time>2021-04-10T11:06:00Z</time>
      </trkpt>
      <trkpt lat="47.25841" lon="6.10136">
        <ele>463</ele>
        <time>2021-04-10T11:06:01Z</time>
      </trkpt>
      <trkpt lat="47.25843" lon="6.10134">
        <ele>463.2</ele>
        <time>2021-04-10T11:06:02Z</time>
      </trkpt>
      <trkpt lat="47.25844" lon="6.10133">
        <ele>463.4</ele>
        <time>2021-04-10T11:06:03Z</time>
      </trkpt>
      <trkpt lat="47.25845" lon="6.1013">
        <ele>463.4</ele>
        <time>2021-04-10T11:06:04Z</time>
      </trkpt>
      <trkpt lat="47.25846" lon="6.10129">
        <ele>463.6</ele>
        <time>2021-04-10T11:06:05Z</time>
      </trkpt>
      <trkpt lat="47.25847" lon="6.10126">
        <ele>464</ele>
        <time>2021-04-10T11:06:06Z</time>
      </trkpt>
      <trkpt lat="47.25848" lon="6.10124">
        <ele>464.2</ele>
        <time>2021-04-10T11:06:07Z</time>
      </trkpt>
      <trkpt lat="47.25849" lon="6.10121">
        <ele>464.4</ele>
        <time>2021-04-10T11:06:08Z</time>
      </trkpt>
      <trkpt lat="47.2585" lon="6.10118">
        <ele>464.4</ele>
        <time>2021-04-10T11:06:09Z</time>
      </trkpt>
      <trkpt lat="47.25852" lon="6.10116">
        <ele>464.6</ele>
        <time>2021-04-10T11:06:10Z</time>
      </trkpt>
      <trkpt lat="47.25853" lon="6.10114">
        <ele>464.6</ele>
        <time>2021-04-10T11:06:11Z</time>
      </trkpt>
      <trkpt lat="47.25854" lon="6.10111">
        <ele>465</ele>
        <time>2021-04-10T11:06:12Z</time>
      </trkpt>
      <trkpt lat="47.25855" lon="6.10109">
        <ele>465.2</ele>
        <time>2021-04-10T11:06:13Z</time>
      </trkpt>
      <trkpt lat="47.25856" lon="6.10108">
        <ele>465.4</ele>
        <time>2021-04-10T11:06:14Z</time>
      </trkpt>
      <trkpt lat="47.25856" lon="6.10106">
        <ele>465.4</ele>
        <time>2021-04-10T11:06:15Z</time>
      </trkpt>
      <trkpt lat="47.25856" lon="6.10104">
        <ele>465.6</ele>
        <time>2021-04-10T11:06:16Z</time>
      </trkpt>
      <trkpt lat="47.25857" lon="6.10101">
        <ele>465.8</ele>
        <time>2021-04-10T11:06:17Z</time>
      </trkpt>
      <trkpt lat="47.25858" lon="6.10098">
        <ele>465.8</ele>
        <time>2021-04-10T11:06:18Z</time>
      </trkpt>
      <trkpt lat="47.25858" lon="6.10096">
        <ele>466</ele>
        <time>2021-04-10T11:06:19Z</time>
      </trkpt>
      <trkpt lat="47.25859" lon="6.10095">
        <ele>466.2</ele>
        <time>2021-04-10T11:06:20Z</time>
      </trkpt>
      <trkpt lat="47.25859" lon="6.10093">
        <ele>466.2</ele>
        <time>2021-04-10T11:06:21Z</time>
      </trkpt>
      <trkpt lat="47.2586" lon="6.1009">
        <ele>466.2</ele>
        <time>2021-04-10T11:06:22Z</time>
      </trkpt>
      <trkpt lat="47.25862" lon="6.10087">
        <ele>466.4</ele>
        <time>2021-04-10T11:06:23Z</time>
      </trkpt>
      <trkpt lat="47.25863" lon="6.10085">
        <ele>466.4</ele>
        <time>2021-04-10T11:06:24Z</time>
      </trkpt>
      <trkpt lat="47.25864" lon="6.10083">
        <ele>466.6</ele>
        <time>2021-04-10T11:06:25Z</time>
      </trkpt>
      <trkpt lat="47.25866" lon="6.10081">
        <ele>466.8</ele>
        <time>2021-04-10T11:06:26Z</time>
      </trkpt>
      <trkpt lat="47.25867" lon="6.1008">
        <ele>466.8</ele>
        <time>2021-04-10T11:06:27Z</time>
      </trkpt>
      <trkpt lat="47.25868" lon="6.10078">
        <ele>467</ele>
        <time>2021-04-10T11:06:28Z</time>
      </trkpt>
      <trkpt lat="47.2587" lon="6.10075">
        <ele>467</ele>
        <time>2021-04-10T11:06:29Z</time>
      </trkpt>
      <trkpt lat="47.25872" lon="6.10073">
        <ele>467.2</ele>
        <time>2021-04-10T11:06:30Z</time>
      </trkpt>
      <trkpt lat="47.25873" lon="6.10071">
        <ele>467.4</ele>
        <time>2021-04-10T11:06:31Z</time>
      </trkpt>
      <trkpt lat="47.25873" lon="6.1007">
        <ele>467.6</ele>
        <time>2021-04-10T11:06:32Z</time>
      </trkpt>
      <trkpt lat="47.25873" lon="6.10067">
        <ele>467.6</ele>
        <time>2021-04-10T11:06:33Z</time>
      </trkpt>
      <trkpt lat="47.25873" lon="6.10065">
        <ele>467.6</ele>
        <time>2021-04-10T11:06:34Z</time>
      </trkpt>
      <trkpt lat="47.25875" lon="6.10062">
        <ele>468</ele>
        <time>2021-04-10T11:06:35Z</time>
      </trkpt>
      <trkpt lat="47.25875" lon="6.1006">
        <ele>468</ele>
        <time>2021-04-10T11:06:36Z</time>
      </trkpt>
      <trkpt lat="47.25876" lon="6.10058">
        <ele>468.2</ele>
        <time>2021-04-10T11:06:37Z</time>
      </trkpt>
      <trkpt lat="47.25877" lon="6.10056">
        <ele>468.2</ele>
        <time>2021-04-10T11:06:38Z</time>
      </trkpt>
      <trkpt lat="47.25878" lon="6.10055">
        <ele>468.6</ele>
        <time>2021-04-10T11:06:39Z</time>
      </trkpt>
      <trkpt lat="47.25878" lon="6.10053">
        <ele>468.6</ele>
        <time>2021-04-10T11:06:40Z</time>
      </trkpt>
      <trkpt lat="47.25878" lon="6.10051">
        <ele>469</ele>
        <time>2021-04-10T11:06:41Z</time>
      </trkpt>
      <trkpt lat="47.25878" lon="6.1005">
        <ele>469.2</ele>
        <time>2021-04-10T11:06:42Z</time>
      </trkpt>
      <trkpt lat="47.25879" lon="6.10048">
        <ele>469.2</ele>
        <time>2021-04-10T11:06:43Z</time>
      </trkpt>
      <trkpt lat="47.2588" lon="6.10047">
        <ele>469.4</ele>
        <time>2021-04-10T11:06:44Z</time>
      </trkpt>
      <trkpt lat="47.25881" lon="6.10047">
        <ele>469.4</ele>
        <time>2021-04-10T11:06:45Z</time>
      </trkpt>
      <trkpt lat="47.25881" lon="6.10046">
        <ele>469.6</ele>
        <time>2021-04-10T11:06:46Z</time>
      </trkpt>
      <trkpt lat="47.25881" lon="6.10045">
        <ele>469.8</ele>
        <time>2021-04-10T11:06:47Z</time>
      </trkpt>
      <trkpt lat="47.25881" lon="6.10043">
        <ele>469.8</ele>
        <time>2021-04-10T11:06:48Z</time>
      </trkpt>
      <trkpt lat="47.25882" lon="6.10041">
        <ele>469.8</ele>
        <time>2021-04-10T11:06:49Z</time>
      </trkpt>
      <trkpt lat="47.25882" lon="6.1004">
        <ele>470</ele>
        <time>2021-04-10T11:06:50Z</time>
      </trkpt>
      <trkpt lat="47.25883" lon="6.10039">
        <ele>470.2</ele>
        <time>2021-04-10T11:06:51Z</time>
      </trkpt>
      <trkpt lat="47.25883" lon="6.10038">
        <ele>470.2</ele>
        <time>2021-04-10T11:06:52Z</time>
      </trkpt>
      <trkpt lat="47.25883" lon="6.10037">
        <ele>470.6</ele>
        <time>2021-04-10T11:06:53Z</time>
      </trkpt>
      <trkpt lat="47.25885" lon="6.10036">
        <ele>470.8</ele>
        <time>2021-04-10T11:06:54Z</time>
      </trkpt>
      <trkpt lat="47.25886" lon="6.10034">
        <ele>471</ele>
        <time>2021-04-10T11:06:55Z</time>
      </trkpt>
      <trkpt lat="47.25888" lon="6.10032">
        <ele>471.2</ele>
        <time>2021-04-10T11:06:56Z</time>
      </trkpt>
      <trkpt lat="47.25889" lon="6.10031">
        <ele>471.2</ele>
        <time>2021-04-10T11:06:57Z</time>
      </trkpt>
      <trkpt lat="47.2589" lon="6.10029">
        <ele>471.4</ele>
        <time>2021-04-10T11:06:58Z</time>
      </trkpt>
      <trkpt lat="47.25892" lon="6.10027">
        <ele>471.6</ele>
        <time>2021-04-10T11:06:59Z</time>
      </trkpt>
      <trkpt lat="47.25893" lon="6.10025">
        <ele>471.6</ele>
        <time>2021-04-10T11:07:00Z</time>
      </trkpt>
      <trkpt lat="47.25895" lon="6.10023">
        <ele>471.8</ele>
        <time>2021-04-10T11:07:01Z</time>
      </trkpt>
      <trkpt lat="47.25895" lon="6.10022">
        <ele>472</ele>
        <time>2021-04-10T11:07:02Z</time>
      </trkpt>
      <trkpt lat="47.25896" lon="6.1002">
        <ele>472</ele>
        <time>2021-04-10T11:07:03Z</time>
      </trkpt>
      <trkpt lat="47.25898" lon="6.10019">
        <ele>472.2</ele>
        <time>2021-04-10T11:07:04Z</time>
      </trkpt>
      <trkpt lat="47.25899" lon="6.10017">
        <ele>472.4</ele>
        <time>2021-04-10T11:07:05Z</time>
      </trkpt>
      <trkpt lat="47.25901" lon="6.10015">
        <ele>472.6</ele>
        <time>2021-04-10T11:07:06Z</time>
      </trkpt>
      <trkpt lat="47.25903" lon="6.10012">
        <ele>472.6</ele>
        <time>2021-04-10T11:07:07Z</time>
      </trkpt>
      <trkpt lat="47.25905" lon="6.1001">
        <ele>472.8</ele>
        <time>2021-04-10T11:07:08Z</time>
      </trkpt>
      <trkpt lat="47.25907" lon="6.10007">
        <ele>472.8</ele>
        <time>2021-04-10T11:07:09Z</time>
      </trkpt>
      <trkpt lat="47.25908" lon="6.10005">
        <ele>473</ele>
        <time>2021-04-10T11:07:10Z</time>
      </trkpt>
      <trkpt lat="47.25909" lon="6.10003">
        <ele>473</ele>
        <time>2021-04-10T11:07:11Z</time>
      </trkpt>
      <trkpt lat="47.2591" lon="6.10002">
        <ele>473.2</ele>
        <time>2021-04-10T11:07:12Z</time>
      </trkpt>
      <trkpt lat="47.25911" lon="6.1">
        <ele>473.6</ele>
        <time>2021-04-10T11:07:13Z</time>
      </trkpt>
      <trkpt lat="47.25912" lon="6.09998">
        <ele>473.8</ele>
        <time>2021-04-10T11:07:14Z</time>
      </trkpt>
      <trkpt lat="47.25913" lon="6.09995">
        <ele>474.2</ele>
        <time>2021-04-10T11:07:15Z</time>
      </trkpt>
      <trkpt lat="47.25915" lon="6.09992">
        <ele>474.4</ele>
        <time>2021-04-10T11:07:16Z</time>
      </trkpt>
      <trkpt lat="47.25916" lon="6.09989">
        <ele>474.6</ele>
        <time>2021-04-10T11:07:17Z</time>
      </trkpt>
      <trkpt lat="47.25918" lon="6.09988">
        <ele>474.6</ele>
        <time>2021-04-10T11:07:18Z</time>
      </trkpt>
      <trkpt lat="47.25919" lon="6.09985">
        <ele>474.8</ele>
        <time>2021-04-10T11:07:19Z</time>
      </trkpt>
      <trkpt lat="47.25921" lon="6.09983">
        <ele>475</ele>
        <time>2021-04-10T11:07:20Z</time>
      </trkpt>
      <trkpt lat="47.25923" lon="6.09981">
        <ele>475.2</ele>
        <time>2021-04-10T11:07:21Z</time>
      </trkpt>
      <trkpt lat="47.25923" lon="6.09978">
        <ele>475.2</ele>
        <time>2021-04-10T11:07:22Z</time>
      </trkpt>
      <trkpt lat="47.25921" lon="6.09976">
        <ele>475.2</ele>
        <time>2021-04-10T11:07:23Z</time>
      </trkpt>
      <trkpt lat="47.2592" lon="6.09974">
        <ele>475.4</ele>
        <time>2021-04-10T11:07:24Z</time>
      </trkpt>
      <trkpt lat="47.25921" lon="6.09972">
        <ele>475.6</ele>
        <time>2021-04-10T11:07:25Z</time>
      </trkpt>
      <trkpt lat="47.25923" lon="6.09969">
        <ele>475.8</ele>
        <time>2021-04-10T11:07:26Z</time>
      </trkpt>
      <trkpt lat="47.25924" lon="6.09967">
        <ele>475.8</ele>
        <time>2021-04-10T11:07:27Z</time>
      </trkpt>
      <trkpt lat="47.25924" lon="6.09965">
        <ele>476</ele>
        <time>2021-04-10T11:07:28Z</time>
      </trkpt>
      <trkpt lat="47.25924" lon="6.09963">
        <ele>476</ele>
        <time>2021-04-10T11:07:29Z</time>
      </trkpt>
      <trkpt lat="47.25924" lon="6.09961">
        <ele>476.4</ele>
        <time>2021-04-10T11:07:30Z</time>
      </trkpt>
      <trkpt lat="47.25925" lon="6.09959">
        <ele>476.4</ele>
        <time>2021-04-10T11:07:31Z</time>
      </trkpt>
      <trkpt lat="47.25925" lon="6.09956">
        <ele>476.6</ele>
        <time>2021-04-10T11:07:32Z</time>
      </trkpt>
      <trkpt lat="47.25925" lon="6.09954">
        <ele>476.8</ele>
        <time>2021-04-10T11:07:33Z</time>
      </trkpt>
      <trkpt lat="47.25924" lon="6.09951">
        <ele>476.8</ele>
        <time>2021-04-10T11:07:34Z</time>
      </trkpt>
      <trkpt lat="47.25923" lon="6.09949">
        <ele>477.2</ele>
        <time>2021-04-10T11:07:35Z</time>
      </trkpt>
      <trkpt lat="47.25922" lon="6.09946">
        <ele>477.2</ele>
        <time>2021-04-10T11:07:36Z</time>
      </trkpt>
      <trkpt lat="47.25921" lon="6.09944">
        <ele>477.4</ele>
        <time>2021-04-10T11:07:37Z</time>
      </trkpt>
      <trkpt lat="47.2592" lon="6.09941">
        <ele>477.4</ele>
        <time>2021-04-10T11:07:38Z</time>
      </trkpt>
      <trkpt lat="47.25919" lon="6.09939">
        <ele>477.6</ele>
        <time>2021-04-10T11:07:39Z</time>
      </trkpt>
      <trkpt lat="47.25919" lon="6.09936">
        <ele>477.8</ele>
        <time>2021-04-10T11:07:40Z</time>
      </trkpt>
      <trkpt lat="47.25919" lon="6.09933">
        <ele>477.8</ele>
        <time>2021-04-10T11:07:41Z</time>
      </trkpt>
      <trkpt lat="47.25918" lon="6.09931">
        <ele>478</ele>
        <time>2021-04-10T11:07:42Z</time>
      </trkpt>
      <trkpt lat="47.25917" lon="6.09928">
        <ele>478.2</ele>
        <time>2021-04-10T11:07:43Z</time>
      </trkpt>
      <trkpt lat="47.25916" lon="6.09927">
        <ele>478.4</ele>
        <time>2021-04-10T11:07:44Z</time>
      </trkpt>
      <trkpt lat="47.25915" lon="6.09925">
        <ele>478.6</ele>
        <time>2021-04-10T11:07:45Z</time>
      </trkpt>
      <trkpt lat="47.25914" lon="6.09923">
        <ele>478.8</ele>
        <time>2021-04-10T11:07:46Z</time>
      </trkpt>
      <trkpt lat="47.25914" lon="6.09921">
        <ele>478.8</ele>
        <time>2021-04-10T11:07:47Z</time>
      </trkpt>
      <trkpt lat="47.25913" lon="6.09919">
        <ele>479</ele>
        <time>2021-04-10T11:07:48Z</time>
      </trkpt>
      <trkpt lat="47.25912" lon="6.09917">
        <ele>479.2</ele>
        <time>2021-04-10T11:07:49Z</time>
      </trkpt>
      <trkpt lat="47.25911" lon="6.09915">
        <ele>479.2</ele>
        <time>2021-04-10T11:07:50Z</time>
      </trkpt>
      <trkpt lat="47.2591" lon="6.09913">
        <ele>479.4</ele>
        <time>2021-04-10T11:07:51Z</time>
      </trkpt>
      <trkpt lat="47.25909" lon="6.09911">
        <ele>479.6</ele>
        <time>2021-04-10T11:07:52Z</time>
      </trkpt>
      <trkpt lat="47.25908" lon="6.09909">
        <ele>479.8</ele>
        <time>2021-04-10T11:07:53Z</time>
      </trkpt>
      <trkpt lat="47.25907" lon="6.09908">
        <ele>479.8</ele>
        <time>2021-04-10T11:07:54Z</time>
      </trkpt>
      <trkpt lat="47.25906" lon="6.09906">
        <ele>480</ele>
        <time>2021-04-10T11:07:55Z</time>
      </trkpt>
      <trkpt lat="47.25905" lon="6.09905">
        <ele>480.2</ele>
        <time>2021-04-10T11:07:56Z</time>
      </trkpt>
      <trkpt lat="47.25904" lon="6.09904">
        <ele>480.4</ele>
        <time>2021-04-10T11:07:57Z</time>
      </trkpt>
      <trkpt lat="47.25904" lon="6.09904">
        <ele>480.4</ele>
        <time>2021-04-10T11:07:58Z</time>
      </trkpt>
      <trkpt lat="47.25903" lon="6.09902">
        <ele>480.6</ele>
        <time>2021-04-10T11:07:59Z</time>
      </trkpt>
      <trkpt lat="47.25903" lon="6.09902">
        <ele>480.8</ele>
        <time>2021-04-10T11:08:00Z</time>
      </trkpt>
      <trkpt lat="47.25903" lon="6.09902">
        <ele>481</ele>
        <time>2021-04-10T11:08:01Z</time>
      </trkpt>
      <trkpt lat="47.25903" lon="6.09902">
        <ele>481.2</ele>
        <time>2021-04-10T11:08:06Z</time>
      </trkpt>
      <trkpt lat="47.25903" lon="6.09902">
        <ele>481</ele>
        <time>2021-04-10T11:08:19Z</time>
      </trkpt>
      <trkpt lat="47.25903" lon="6.09901">
        <ele>481.8</ele>
        <time>2021-04-10T11:09:51Z</time>
      </trkpt>
      <trkpt lat="47.25899" lon="6.09895">
        <ele>481.8</ele>
        <time>2021-04-10T11:09:55Z</time>
      </trkpt>
      <trkpt lat="47.25897" lon="6.09891">
        <ele>481.8</ele>
        <time>2021-04-10T11:09:57Z</time>
      </trkpt>
      <trkpt lat="47.25896" lon="6.09889">
        <ele>482</ele>
        <time>2021-04-10T11:09:58Z</time>
      </trkpt>
      <trkpt lat="47.25892" lon="6.09881">
        <ele>482.4</ele>
        <time>2021-04-10T11:10:02Z</time>
      </trkpt>
      <trkpt lat="47.2589" lon="6.09878">
        <ele>482.8</ele>
        <time>2021-04-10T11:10:04Z</time>
      </trkpt>
      <trkpt lat="47.25889" lon="6.09876">
        <ele>483</ele>
        <time>2021-04-10T11:10:05Z</time>
      </trkpt>
      <trkpt lat="47.25888" lon="6.09874">
        <ele>483.2</ele>
        <time>2021-04-10T11:10:06Z</time>
      </trkpt>
      <trkpt lat="47.25886" lon="6.09873">
        <ele>483.4</ele>
        <time>2021-04-10T11:10:07Z</time>
      </trkpt>
      <trkpt lat="47.25884" lon="6.09869">
        <ele>483.8</ele>
        <time>2021-04-10T11:10:09Z</time>
      </trkpt>
      <trkpt lat="47.25881" lon="6.09863">
        <ele>484.2</ele>
        <time>2021-04-10T11:10:12Z</time>
      </trkpt>
      <trkpt lat="47.25877" lon="6.09856">
        <ele>484.6</ele>
        <time>2021-04-10T11:10:15Z</time>
      </trkpt>
      <trkpt lat="47.25873" lon="6.09853">
        <ele>485</ele>
        <time>2021-04-10T11:10:17Z</time>
      </trkpt>
      <trkpt lat="47.25872" lon="6.09851">
        <ele>485.2</ele>
        <time>2021-04-10T11:10:18Z</time>
      </trkpt>
      <trkpt lat="47.25871" lon="6.09849">
        <ele>485.4</ele>
        <time>2021-04-10T11:10:19Z</time>
      </trkpt>
      <trkpt lat="47.2587" lon="6.09847">
        <ele>485.6</ele>
        <time>2021-04-10T11:10:20Z</time>
      </trkpt>
      <trkpt lat="47.25869" lon="6.09844">
        <ele>485.8</ele>
        <time>2021-04-10T11:10:21Z</time>
      </trkpt>
      <trkpt lat="47.25868" lon="6.09843">
        <ele>485.8</ele>
        <time>2021-04-10T11:10:22Z</time>
      </trkpt>
      <trkpt lat="47.25867" lon="6.09841">
        <ele>486</ele>
        <time>2021-04-10T11:10:23Z</time>
      </trkpt>
      <trkpt lat="47.25865" lon="6.09839">
        <ele>486.2</ele>
        <time>2021-04-10T11:10:24Z</time>
      </trkpt>
      <trkpt lat="47.25863" lon="6.09838">
        <ele>486.4</ele>
        <time>2021-04-10T11:10:25Z</time>
      </trkpt>
      <trkpt lat="47.25862" lon="6.09836">
        <ele>486.6</ele>
        <time>2021-04-10T11:10:26Z</time>
      </trkpt>
      <trkpt lat="47.25861" lon="6.09834">
        <ele>486.8</ele>
        <time>2021-04-10T11:10:27Z</time>
      </trkpt>
      <trkpt lat="47.25859" lon="6.09832">
        <ele>486.8</ele>
        <time>2021-04-10T11:10:28Z</time>
      </trkpt>
      <trkpt lat="47.25858" lon="6.09831">
        <ele>487.2</ele>
        <time>2021-04-10T11:10:29Z</time>
      </trkpt>
      <trkpt lat="47.25856" lon="6.09828">
        <ele>487.2</ele>
        <time>2021-04-10T11:10:30Z</time>
      </trkpt>
      <trkpt lat="47.25855" lon="6.09826">
        <ele>487.4</ele>
        <time>2021-04-10T11:10:31Z</time>
      </trkpt>
      <trkpt lat="47.25854" lon="6.09825">
        <ele>487.8</ele>
        <time>2021-04-10T11:10:32Z</time>
      </trkpt>
      <trkpt lat="47.25852" lon="6.09823">
        <ele>488</ele>
        <time>2021-04-10T11:10:33Z</time>
      </trkpt>
      <trkpt lat="47.25851" lon="6.09821">
        <ele>488.2</ele>
        <time>2021-04-10T11:10:34Z</time>
      </trkpt>
      <trkpt lat="47.2585" lon="6.09819">
        <ele>488.2</ele>
        <time>2021-04-10T11:10:35Z</time>
      </trkpt>
      <trkpt lat="47.25848" lon="6.09818">
        <ele>488.6</ele>
        <time>2021-04-10T11:10:36Z</time>
      </trkpt>
      <trkpt lat="47.25846" lon="6.09817">
        <ele>488.6</ele>
        <time>2021-04-10T11:10:37Z</time>
      </trkpt>
      <trkpt lat="47.25845" lon="6.09815">
        <ele>488.8</ele>
        <time>2021-04-10T11:10:38Z</time>
      </trkpt>
      <trkpt lat="47.25843" lon="6.09812">
        <ele>488.8</ele>
        <time>2021-04-10T11:10:39Z</time>
      </trkpt>
      <trkpt lat="47.25842" lon="6.0981">
        <ele>489.2</ele>
        <time>2021-04-10T11:10:40Z</time>
      </trkpt>
      <trkpt lat="47.25841" lon="6.09808">
        <ele>489.4</ele>
        <time>2021-04-10T11:10:41Z</time>
      </trkpt>
      <trkpt lat="47.2584" lon="6.09806">
        <ele>489.4</ele>
        <time>2021-04-10T11:10:42Z</time>
      </trkpt>
      <trkpt lat="47.25838" lon="6.09804">
        <ele>489.6</ele>
        <time>2021-04-10T11:10:43Z</time>
      </trkpt>
      <trkpt lat="47.25836" lon="6.09803">
        <ele>489.8</ele>
        <time>2021-04-10T11:10:44Z</time>
      </trkpt>
      <trkpt lat="47.25835" lon="6.09801">
        <ele>490</ele>
        <time>2021-04-10T11:10:45Z</time>
      </trkpt>
      <trkpt lat="47.25833" lon="6.09799">
        <ele>490.2</ele>
        <time>2021-04-10T11:10:46Z</time>
      </trkpt>
      <trkpt lat="47.25832" lon="6.09797">
        <ele>490.4</ele>
        <time>2021-04-10T11:10:47Z</time>
      </trkpt>
      <trkpt lat="47.2583" lon="6.09796">
        <ele>490.4</ele>
        <time>2021-04-10T11:10:48Z</time>
      </trkpt>
      <trkpt lat="47.25829" lon="6.09794">
        <ele>490.6</ele>
        <time>2021-04-10T11:10:49Z</time>
      </trkpt>
      <trkpt lat="47.25827" lon="6.09793">
        <ele>490.8</ele>
        <time>2021-04-10T11:10:50Z</time>
      </trkpt>
      <trkpt lat="47.25826" lon="6.09791">
        <ele>491</ele>
        <time>2021-04-10T11:10:51Z</time>
      </trkpt>
      <trkpt lat="47.25824" lon="6.09789">
        <ele>491.4</ele>
        <time>2021-04-10T11:10:52Z</time>
      </trkpt>
      <trkpt lat="47.25822" lon="6.09788">
        <ele>491.6</ele>
        <time>2021-04-10T11:10:53Z</time>
      </trkpt>
      <trkpt lat="47.25821" lon="6.09786">
        <ele>491.8</ele>
        <time>2021-04-10T11:10:54Z</time>
      </trkpt>
      <trkpt lat="47.25819" lon="6.09785">
        <ele>492</ele>
        <time>2021-04-10T11:10:55Z</time>
      </trkpt>
      <trkpt lat="47.25817" lon="6.09783">
        <ele>492</ele>
        <time>2021-04-10T11:10:56Z</time>
      </trkpt>
      <trkpt lat="47.25816" lon="6.09782">
        <ele>492.2</ele>
        <time>2021-04-10T11:10:57Z</time>
      </trkpt>
      <trkpt lat="47.25814" lon="6.09781">
        <ele>492.2</ele>
        <time>2021-04-10T11:10:58Z</time>
      </trkpt>
      <trkpt lat="47.25812" lon="6.09779">
        <ele>492.4</ele>
        <time>2021-04-10T11:10:59Z</time>
      </trkpt>
      <trkpt lat="47.25811" lon="6.09778">
        <ele>492.4</ele>
        <time>2021-04-10T11:11:00Z</time>
      </trkpt>
      <trkpt lat="47.25809" lon="6.09777">
        <ele>492.8</ele>
        <time>2021-04-10T11:11:01Z</time>
      </trkpt>
      <trkpt lat="47.25807" lon="6.09775">
        <ele>493</ele>
        <time>2021-04-10T11:11:02Z</time>
      </trkpt>
      <trkpt lat="47.25805" lon="6.09774">
        <ele>493.2</ele>
        <time>2021-04-10T11:11:03Z</time>
      </trkpt>
      <trkpt lat="47.25804" lon="6.09773">
        <ele>493.2</ele>
        <time>2021-04-10T11:11:04Z</time>
      </trkpt>
      <trkpt lat="47.25802" lon="6.09771">
        <ele>493.6</ele>
        <time>2021-04-10T11:11:05Z</time>
      </trkpt>
      <trkpt lat="47.258" lon="6.09769">
        <ele>493.8</ele>
        <time>2021-04-10T11:11:06Z</time>
      </trkpt>
      <trkpt lat="47.25798" lon="6.09768">
        <ele>494</ele>
        <time>2021-04-10T11:11:07Z</time>
      </trkpt>
      <trkpt lat="47.25797" lon="6.09767">
        <ele>494</ele>
        <time>2021-04-10T11:11:08Z</time>
      </trkpt>
      <trkpt lat="47.25795" lon="6.09766">
        <ele>494.2</ele>
        <time>2021-04-10T11:11:09Z</time>
      </trkpt>
      <trkpt lat="47.25794" lon="6.09764">
        <ele>494.4</ele>
        <time>2021-04-10T11:11:10Z</time>
      </trkpt>
      <trkpt lat="47.25792" lon="6.09763">
        <ele>494.6</ele>
        <time>2021-04-10T11:11:11Z</time>
      </trkpt>
      <trkpt lat="47.25791" lon="6.09763">
        <ele>494.8</ele>
        <time>2021-04-10T11:11:12Z</time>
      </trkpt>
      <trkpt lat="47.25789" lon="6.09762">
        <ele>494.8</ele>
        <time>2021-04-10T11:11:13Z</time>
      </trkpt>
      <trkpt lat="47.25787" lon="6.0976">
        <ele>495</ele>
        <time>2021-04-10T11:11:14Z</time>
      </trkpt>
      <trkpt lat="47.25786" lon="6.09758">
        <ele>495</ele>
        <time>2021-04-10T11:11:15Z</time>
      </trkpt>
      <trkpt lat="47.25784" lon="6.09757">
        <ele>495</ele>
        <time>2021-04-10T11:11:16Z</time>
      </trkpt>
      <trkpt lat="47.25783" lon="6.09755">
        <ele>495.2</ele>
        <time>2021-04-10T11:11:17Z</time>
      </trkpt>
      <trkpt lat="47.25782" lon="6.09754">
        <ele>495.2</ele>
        <time>2021-04-10T11:11:18Z</time>
      </trkpt>
      <trkpt lat="47.2578" lon="6.09752">
        <ele>495.6</ele>
        <time>2021-04-10T11:11:19Z</time>
      </trkpt>
      <trkpt lat="47.25778" lon="6.09751">
        <ele>495.6</ele>
        <time>2021-04-10T11:11:20Z</time>
      </trkpt>
      <trkpt lat="47.25776" lon="6.0975">
        <ele>496</ele>
        <time>2021-04-10T11:11:21Z</time>
      </trkpt>
      <trkpt lat="47.25775" lon="6.09748">
        <ele>496</ele>
        <time>2021-04-10T11:11:22Z</time>
      </trkpt>
      <trkpt lat="47.25773" lon="6.09747">
        <ele>496.2</ele>
        <time>2021-04-10T11:11:23Z</time>
      </trkpt>
      <trkpt lat="47.25772" lon="6.09746">
        <ele>496.4</ele>
        <time>2021-04-10T11:11:24Z</time>
      </trkpt>
      <trkpt lat="47.2577" lon="6.09745">
        <ele>496.6</ele>
        <time>2021-04-10T11:11:25Z</time>
      </trkpt>
      <trkpt lat="47.25769" lon="6.09745">
        <ele>496.8</ele>
        <time>2021-04-10T11:11:26Z</time>
      </trkpt>
      <trkpt lat="47.25769" lon="6.09744">
        <ele>497</ele>
        <time>2021-04-10T11:11:27Z</time>
      </trkpt>
      <trkpt lat="47.25768" lon="6.09743">
        <ele>497</ele>
        <time>2021-04-10T11:11:28Z</time>
      </trkpt>
      <trkpt lat="47.25767" lon="6.09742">
        <ele>497.2</ele>
        <time>2021-04-10T11:11:29Z</time>
      </trkpt>
      <trkpt lat="47.25766" lon="6.09741">
        <ele>497.4</ele>
        <time>2021-04-10T11:11:30Z</time>
      </trkpt>
      <trkpt lat="47.25765" lon="6.0974">
        <ele>497.4</ele>
        <time>2021-04-10T11:11:31Z</time>
      </trkpt>
      <trkpt lat="47.25764" lon="6.09739">
        <ele>497.6</ele>
        <time>2021-04-10T11:11:32Z</time>
      </trkpt>
      <trkpt lat="47.25763" lon="6.09738">
        <ele>497.6</ele>
        <time>2021-04-10T11:11:33Z</time>
      </trkpt>
      <trkpt lat="47.25762" lon="6.09736">
        <ele>498</ele>
        <time>2021-04-10T11:11:34Z</time>
      </trkpt>
      <trkpt lat="47.25761" lon="6.09735">
        <ele>498</ele>
        <time>2021-04-10T11:11:35Z</time>
      </trkpt>
      <trkpt lat="47.25761" lon="6.09734">
        <ele>498</ele>
        <time>2021-04-10T11:11:36Z</time>
      </trkpt>
      <trkpt lat="47.2576" lon="6.09732">
        <ele>498.2</ele>
        <time>2021-04-10T11:11:37Z</time>
      </trkpt>
      <trkpt lat="47.25759" lon="6.0973">
        <ele>498.2</ele>
        <time>2021-04-10T11:11:38Z</time>
      </trkpt>
      <trkpt lat="47.25757" lon="6.09729">
        <ele>498.2</ele>
        <time>2021-04-10T11:11:39Z</time>
      </trkpt>
      <trkpt lat="47.25756" lon="6.09727">
        <ele>498.2</ele>
        <time>2021-04-10T11:11:40Z</time>
      </trkpt>
      <trkpt lat="47.25755" lon="6.09726">
        <ele>498.4</ele>
        <time>2021-04-10T11:11:41Z</time>
      </trkpt>
      <trkpt lat="47.25754" lon="6.09724">
        <ele>498.6</ele>
        <time>2021-04-10T11:11:42Z</time>
      </trkpt>
      <trkpt lat="47.25753" lon="6.09721">
        <ele>498.8</ele>
        <time>2021-04-10T11:11:43Z</time>
      </trkpt>
      <trkpt lat="47.25751" lon="6.0972">
        <ele>499</ele>
        <time>2021-04-10T11:11:44Z</time>
      </trkpt>
      <trkpt lat="47.2575" lon="6.09718">
        <ele>499</ele>
        <time>2021-04-10T11:11:45Z</time>
      </trkpt>
      <trkpt lat="47.25748" lon="6.09716">
        <ele>499.2</ele>
        <time>2021-04-10T11:11:46Z</time>
      </trkpt>
      <trkpt lat="47.25747" lon="6.09714">
        <ele>499.2</ele>
        <time>2021-04-10T11:11:47Z</time>
      </trkpt>
      <trkpt lat="47.25745" lon="6.09712">
        <ele>499.2</ele>
        <time>2021-04-10T11:11:48Z</time>
      </trkpt>
      <trkpt lat="47.25744" lon="6.0971">
        <ele>499.4</ele>
        <time>2021-04-10T11:11:49Z</time>
      </trkpt>
      <trkpt lat="47.25743" lon="6.09709">
        <ele>499.4</ele>
        <time>2021-04-10T11:11:50Z</time>
      </trkpt>
      <trkpt lat="47.25742" lon="6.09709">
        <ele>499.4</ele>
        <time>2021-04-10T11:11:51Z</time>
      </trkpt>
      <trkpt lat="47.25742" lon="6.09708">
        <ele>499.4</ele>
        <time>2021-04-10T11:11:52Z</time>
      </trkpt>
      <trkpt lat="47.2574" lon="6.09706">
        <ele>499.4</ele>
        <time>2021-04-10T11:11:53Z</time>
      </trkpt>
      <trkpt lat="47.25738" lon="6.09703">
        <ele>499.6</ele>
        <time>2021-04-10T11:11:54Z</time>
      </trkpt>
      <trkpt lat="47.25737" lon="6.09701">
        <ele>499.6</ele>
        <time>2021-04-10T11:11:55Z</time>
      </trkpt>
      <trkpt lat="47.25735" lon="6.09698">
        <ele>499.8</ele>
        <time>2021-04-10T11:11:56Z</time>
      </trkpt>
      <trkpt lat="47.25732" lon="6.09695">
        <ele>499.8</ele>
        <time>2021-04-10T11:11:57Z</time>
      </trkpt>
      <trkpt lat="47.25727" lon="6.0969">
        <ele>499.8</ele>
        <time>2021-04-10T11:11:59Z</time>
      </trkpt>
      <trkpt lat="47.25725" lon="6.09687">
        <ele>500</ele>
        <time>2021-04-10T11:12:00Z</time>
      </trkpt>
      <trkpt lat="47.25718" lon="6.09681">
        <ele>500.4</ele>
        <time>2021-04-10T11:12:03Z</time>
      </trkpt>
      <trkpt lat="47.25716" lon="6.09679">
        <ele>500.4</ele>
        <time>2021-04-10T11:12:04Z</time>
      </trkpt>
      <trkpt lat="47.2571" lon="6.09672">
        <ele>500.8</ele>
        <time>2021-04-10T11:12:07Z</time>
      </trkpt>
      <trkpt lat="47.25705" lon="6.09669">
        <ele>500.8</ele>
        <time>2021-04-10T11:12:09Z</time>
      </trkpt>
      <trkpt lat="47.257" lon="6.09665">
        <ele>500.8</ele>
        <time>2021-04-10T11:12:11Z</time>
      </trkpt>
      <trkpt lat="47.25698" lon="6.09665">
        <ele>501</ele>
        <time>2021-04-10T11:12:12Z</time>
      </trkpt>
      <trkpt lat="47.25688" lon="6.09658">
        <ele>501.4</ele>
        <time>2021-04-10T11:12:16Z</time>
      </trkpt>
      <trkpt lat="47.25683" lon="6.09657">
        <ele>501.4</ele>
        <time>2021-04-10T11:12:18Z</time>
      </trkpt>
      <trkpt lat="47.25682" lon="6.09657">
        <ele>501.4</ele>
        <time>2021-04-10T11:12:19Z</time>
      </trkpt>
      <trkpt lat="47.25678" lon="6.09656">
        <ele>501.6</ele>
        <time>2021-04-10T11:12:21Z</time>
      </trkpt>
      <trkpt lat="47.25677" lon="6.09656">
        <ele>501.6</ele>
        <time>2021-04-10T11:12:22Z</time>
      </trkpt>
      <trkpt lat="47.25671" lon="6.09657">
        <ele>501.6</ele>
        <time>2021-04-10T11:12:24Z</time>
      </trkpt>
      <trkpt lat="47.25664" lon="6.09658">
        <ele>502</ele>
        <time>2021-04-10T11:12:27Z</time>
      </trkpt>
      <trkpt lat="47.25657" lon="6.09661">
        <ele>502.6</ele>
        <time>2021-04-10T11:12:30Z</time>
      </trkpt>
      <trkpt lat="47.2565" lon="6.09664">
        <ele>503</ele>
        <time>2021-04-10T11:12:33Z</time>
      </trkpt>
      <trkpt lat="47.25648" lon="6.09665">
        <ele>503.2</ele>
        <time>2021-04-10T11:12:34Z</time>
      </trkpt>
      <trkpt lat="47.25644" lon="6.09668">
        <ele>503.4</ele>
        <time>2021-04-10T11:12:36Z</time>
      </trkpt>
      <trkpt lat="47.25642" lon="6.09669">
        <ele>503.6</ele>
        <time>2021-04-10T11:12:37Z</time>
      </trkpt>
      <trkpt lat="47.25641" lon="6.09671">
        <ele>503.6</ele>
        <time>2021-04-10T11:12:38Z</time>
      </trkpt>
      <trkpt lat="47.25639" lon="6.09673">
        <ele>503.6</ele>
        <time>2021-04-10T11:12:39Z</time>
      </trkpt>
      <trkpt lat="47.25638" lon="6.09675">
        <ele>503.6</ele>
        <time>2021-04-10T11:12:40Z</time>
      </trkpt>
      <trkpt lat="47.25636" lon="6.09676">
        <ele>503.8</ele>
        <time>2021-04-10T11:12:41Z</time>
      </trkpt>
      <trkpt lat="47.25635" lon="6.09678">
        <ele>503.8</ele>
        <time>2021-04-10T11:12:42Z</time>
      </trkpt>
      <trkpt lat="47.25634" lon="6.0968">
        <ele>504</ele>
        <time>2021-04-10T11:12:43Z</time>
      </trkpt>
      <trkpt lat="47.25633" lon="6.09681">
        <ele>504.2</ele>
        <time>2021-04-10T11:12:44Z</time>
      </trkpt>
      <trkpt lat="47.25631" lon="6.09684">
        <ele>504.2</ele>
        <time>2021-04-10T11:12:45Z</time>
      </trkpt>
      <trkpt lat="47.2563" lon="6.09685">
        <ele>504.4</ele>
        <time>2021-04-10T11:12:46Z</time>
      </trkpt>
      <trkpt lat="47.25629" lon="6.09688">
        <ele>504.6</ele>
        <time>2021-04-10T11:12:47Z</time>
      </trkpt>
      <trkpt lat="47.25628" lon="6.09693">
        <ele>504.8</ele>
        <time>2021-04-10T11:12:48Z</time>
      </trkpt>
      <trkpt lat="47.25626" lon="6.09697">
        <ele>504.8</ele>
        <time>2021-04-10T11:12:49Z</time>
      </trkpt>
      <trkpt lat="47.25625" lon="6.09703">
        <ele>505</ele>
        <time>2021-04-10T11:12:50Z</time>
      </trkpt>
      <trkpt lat="47.25623" lon="6.09706">
        <ele>505</ele>
        <time>2021-04-10T11:12:51Z</time>
      </trkpt>
      <trkpt lat="47.25622" lon="6.09709">
        <ele>505.2</ele>
        <time>2021-04-10T11:12:52Z</time>
      </trkpt>
      <trkpt lat="47.25622" lon="6.09711">
        <ele>505.4</ele>
        <time>2021-04-10T11:12:53Z</time>
      </trkpt>
      <trkpt lat="47.2562" lon="6.09714">
        <ele>505.6</ele>
        <time>2021-04-10T11:12:54Z</time>
      </trkpt>
      <trkpt lat="47.2562" lon="6.09717">
        <ele>505.6</ele>
        <time>2021-04-10T11:12:55Z</time>
      </trkpt>
      <trkpt lat="47.25619" lon="6.09721">
        <ele>505.8</ele>
        <time>2021-04-10T11:12:56Z</time>
      </trkpt>
      <trkpt lat="47.25618" lon="6.09724">
        <ele>506</ele>
        <time>2021-04-10T11:12:57Z</time>
      </trkpt>
      <trkpt lat="47.25616" lon="6.09726">
        <ele>506</ele>
        <time>2021-04-10T11:12:58Z</time>
      </trkpt>
      <trkpt lat="47.25615" lon="6.09728">
        <ele>506</ele>
        <time>2021-04-10T11:12:59Z</time>
      </trkpt>
      <trkpt lat="47.25614" lon="6.09731">
        <ele>506.2</ele>
        <time>2021-04-10T11:13:00Z</time>
      </trkpt>
      <trkpt lat="47.25613" lon="6.09734">
        <ele>506.2</ele>
        <time>2021-04-10T11:13:01Z</time>
      </trkpt>
      <trkpt lat="47.25612" lon="6.09738">
        <ele>506.4</ele>
        <time>2021-04-10T11:13:02Z</time>
      </trkpt>
      <trkpt lat="47.25611" lon="6.09742">
        <ele>506.4</ele>
        <time>2021-04-10T11:13:03Z</time>
      </trkpt>
      <trkpt lat="47.2561" lon="6.09747">
        <ele>506.6</ele>
        <time>2021-04-10T11:13:04Z</time>
      </trkpt>
      <trkpt lat="47.25608" lon="6.0975">
        <ele>506.6</ele>
        <time>2021-04-10T11:13:05Z</time>
      </trkpt>
      <trkpt lat="47.25606" lon="6.09753">
        <ele>506.8</ele>
        <time>2021-04-10T11:13:06Z</time>
      </trkpt>
      <trkpt lat="47.25605" lon="6.09757">
        <ele>506.8</ele>
        <time>2021-04-10T11:13:07Z</time>
      </trkpt>
      <trkpt lat="47.25604" lon="6.09759">
        <ele>506.8</ele>
        <time>2021-04-10T11:13:08Z</time>
      </trkpt>
      <trkpt lat="47.25602" lon="6.09763">
        <ele>506.8</ele>
        <time>2021-04-10T11:13:09Z</time>
      </trkpt>
      <trkpt lat="47.25601" lon="6.09765">
        <ele>507</ele>
        <time>2021-04-10T11:13:10Z</time>
      </trkpt>
      <trkpt lat="47.256" lon="6.09767">
        <ele>507</ele>
        <time>2021-04-10T11:13:11Z</time>
      </trkpt>
      <trkpt lat="47.25599" lon="6.0977">
        <ele>507.4</ele>
        <time>2021-04-10T11:13:12Z</time>
      </trkpt>
      <trkpt lat="47.25599" lon="6.09771">
        <ele>507.6</ele>
        <time>2021-04-10T11:13:13Z</time>
      </trkpt>
      <trkpt lat="47.25597" lon="6.09773">
        <ele>507.6</ele>
        <time>2021-04-10T11:13:14Z</time>
      </trkpt>
      <trkpt lat="47.25596" lon="6.09776">
        <ele>507.8</ele>
        <time>2021-04-10T11:13:15Z</time>
      </trkpt>
      <trkpt lat="47.25595" lon="6.09778">
        <ele>507.8</ele>
        <time>2021-04-10T11:13:16Z</time>
      </trkpt>
      <trkpt lat="47.25594" lon="6.09781">
        <ele>508</ele>
        <time>2021-04-10T11:13:17Z</time>
      </trkpt>
      <trkpt lat="47.25593" lon="6.09784">
        <ele>508</ele>
        <time>2021-04-10T11:13:18Z</time>
      </trkpt>
      <trkpt lat="47.25592" lon="6.09786">
        <ele>508.2</ele>
        <time>2021-04-10T11:13:19Z</time>
      </trkpt>
      <trkpt lat="47.25591" lon="6.09788">
        <ele>508.2</ele>
        <time>2021-04-10T11:13:20Z</time>
      </trkpt>
      <trkpt lat="47.2559" lon="6.0979">
        <ele>508.4</ele>
        <time>2021-04-10T11:13:21Z</time>
      </trkpt>
      <trkpt lat="47.25589" lon="6.09792">
        <ele>508.6</ele>
        <time>2021-04-10T11:13:22Z</time>
      </trkpt>
      <trkpt lat="47.25588" lon="6.09794">
        <ele>508.8</ele>
        <time>2021-04-10T11:13:23Z</time>
      </trkpt>
      <trkpt lat="47.25587" lon="6.09796">
        <ele>509</ele>
        <time>2021-04-10T11:13:24Z</time>
      </trkpt>
      <trkpt lat="47.25586" lon="6.09797">
        <ele>509</ele>
        <time>2021-04-10T11:13:25Z</time>
      </trkpt>
      <trkpt lat="47.25585" lon="6.09801">
        <ele>509.2</ele>
        <time>2021-04-10T11:13:26Z</time>
      </trkpt>
      <trkpt lat="47.25584" lon="6.09805">
        <ele>509.2</ele>
        <time>2021-04-10T11:13:27Z</time>
      </trkpt>
      <trkpt lat="47.25582" lon="6.09807">
        <ele>509.4</ele>
        <time>2021-04-10T11:13:28Z</time>
      </trkpt>
      <trkpt lat="47.25581" lon="6.09809">
        <ele>509.4</ele>
        <time>2021-04-10T11:13:29Z</time>
      </trkpt>
      <trkpt lat="47.25579" lon="6.09814">
        <ele>509.6</ele>
        <time>2021-04-10T11:13:30Z</time>
      </trkpt>
      <trkpt lat="47.25578" lon="6.09817">
        <ele>509.8</ele>
        <time>2021-04-10T11:13:31Z</time>
      </trkpt>
      <trkpt lat="47.25576" lon="6.0982">
        <ele>510</ele>
        <time>2021-04-10T11:13:32Z</time>
      </trkpt>
      <trkpt lat="47.25574" lon="6.09823">
        <ele>510</ele>
        <time>2021-04-10T11:13:33Z</time>
      </trkpt>
      <trkpt lat="47.25572" lon="6.09826">
        <ele>510</ele>
        <time>2021-04-10T11:13:34Z</time>
      </trkpt>
      <trkpt lat="47.25571" lon="6.09829">
        <ele>510.2</ele>
        <time>2021-04-10T11:13:35Z</time>
      </trkpt>
      <trkpt lat="47.2557" lon="6.09831">
        <ele>510.2</ele>
        <time>2021-04-10T11:13:36Z</time>
      </trkpt>
      <trkpt lat="47.25568" lon="6.09834">
        <ele>510.4</ele>
        <time>2021-04-10T11:13:37Z</time>
      </trkpt>
      <trkpt lat="47.25567" lon="6.09837">
        <ele>510.4</ele>
        <time>2021-04-10T11:13:38Z</time>
      </trkpt>
      <trkpt lat="47.25566" lon="6.0984">
        <ele>510.4</ele>
        <time>2021-04-10T11:13:39Z</time>
      </trkpt>
      <trkpt lat="47.25564" lon="6.09842">
        <ele>510.4</ele>
        <time>2021-04-10T11:13:40Z</time>
      </trkpt>
      <trkpt lat="47.25562" lon="6.09846">
        <ele>510.6</ele>
        <time>2021-04-10T11:13:41Z</time>
      </trkpt>
      <trkpt lat="47.2556" lon="6.0985">
        <ele>510.6</ele>
        <time>2021-04-10T11:13:42Z</time>
      </trkpt>
      <trkpt lat="47.25559" lon="6.09853">
        <ele>510.6</ele>
        <time>2021-04-10T11:13:43Z</time>
      </trkpt>
      <trkpt lat="47.25558" lon="6.09857">
        <ele>510.8</ele>
        <time>2021-04-10T11:13:44Z</time>
      </trkpt>
      <trkpt lat="47.25557" lon="6.09859">
        <ele>510.8</ele>
        <time>2021-04-10T11:13:45Z</time>
      </trkpt>
      <trkpt lat="47.25555" lon="6.09863">
        <ele>510.8</ele>
        <time>2021-04-10T11:13:46Z</time>
      </trkpt>
      <trkpt lat="47.25553" lon="6.09867">
        <ele>510.8</ele>
        <time>2021-04-10T11:13:47Z</time>
      </trkpt>
      <trkpt lat="47.25547" lon="6.0988">
        <ele>511</ele>
        <time>2021-04-10T11:13:51Z</time>
      </trkpt>
      <trkpt lat="47.25546" lon="6.09883">
        <ele>511.2</ele>
        <time>2021-04-10T11:13:52Z</time>
      </trkpt>
      <trkpt lat="47.25545" lon="6.09886">
        <ele>511.4</ele>
        <time>2021-04-10T11:13:53Z</time>
      </trkpt>
      <trkpt lat="47.25545" lon="6.09888">
        <ele>511.6</ele>
        <time>2021-04-10T11:13:54Z</time>
      </trkpt>
      <trkpt lat="47.25544" lon="6.09891">
        <ele>511.8</ele>
        <time>2021-04-10T11:13:55Z</time>
      </trkpt>
      <trkpt lat="47.25542" lon="6.09896">
        <ele>511.8</ele>
        <time>2021-04-10T11:13:56Z</time>
      </trkpt>
      <trkpt lat="47.25538" lon="6.09901">
        <ele>512</ele>
        <time>2021-04-10T11:13:57Z</time>
      </trkpt>
      <trkpt lat="47.25536" lon="6.09903">
        <ele>512.2</ele>
        <time>2021-04-10T11:13:58Z</time>
      </trkpt>
      <trkpt lat="47.25534" lon="6.09906">
        <ele>512.2</ele>
        <time>2021-04-10T11:13:59Z</time>
      </trkpt>
      <trkpt lat="47.25532" lon="6.09908">
        <ele>512.4</ele>
        <time>2021-04-10T11:14:00Z</time>
      </trkpt>
      <trkpt lat="47.2553" lon="6.09911">
        <ele>512.6</ele>
        <time>2021-04-10T11:14:01Z</time>
      </trkpt>
      <trkpt lat="47.25528" lon="6.09914">
        <ele>512.8</ele>
        <time>2021-04-10T11:14:02Z</time>
      </trkpt>
      <trkpt lat="47.25525" lon="6.09919">
        <ele>513</ele>
        <time>2021-04-10T11:14:04Z</time>
      </trkpt>
      <trkpt lat="47.25522" lon="6.09923">
        <ele>513</ele>
        <time>2021-04-10T11:14:05Z</time>
      </trkpt>
      <trkpt lat="47.25521" lon="6.09926">
        <ele>513</ele>
        <time>2021-04-10T11:14:06Z</time>
      </trkpt>
      <trkpt lat="47.2552" lon="6.09929">
        <ele>513.2</ele>
        <time>2021-04-10T11:14:07Z</time>
      </trkpt>
      <trkpt lat="47.25519" lon="6.09932">
        <ele>513.2</ele>
        <time>2021-04-10T11:14:08Z</time>
      </trkpt>
      <trkpt lat="47.25516" lon="6.09935">
        <ele>513.2</ele>
        <time>2021-04-10T11:14:09Z</time>
      </trkpt>
      <trkpt lat="47.25515" lon="6.09937">
        <ele>513.2</ele>
        <time>2021-04-10T11:14:10Z</time>
      </trkpt>
      <trkpt lat="47.25513" lon="6.09938">
        <ele>513.4</ele>
        <time>2021-04-10T11:14:11Z</time>
      </trkpt>
      <trkpt lat="47.25511" lon="6.09941">
        <ele>513.6</ele>
        <time>2021-04-10T11:14:12Z</time>
      </trkpt>
      <trkpt lat="47.25508" lon="6.09946">
        <ele>513.8</ele>
        <time>2021-04-10T11:14:13Z</time>
      </trkpt>
      <trkpt lat="47.25506" lon="6.09948">
        <ele>513.8</ele>
        <time>2021-04-10T11:14:14Z</time>
      </trkpt>
      <trkpt lat="47.25504" lon="6.09949">
        <ele>514</ele>
        <time>2021-04-10T11:14:15Z</time>
      </trkpt>
      <trkpt lat="47.25502" lon="6.09951">
        <ele>514</ele>
        <time>2021-04-10T11:14:16Z</time>
      </trkpt>
      <trkpt lat="47.255" lon="6.09953">
        <ele>514.2</ele>
        <time>2021-04-10T11:14:17Z</time>
      </trkpt>
      <trkpt lat="47.25499" lon="6.09954">
        <ele>514.4</ele>
        <time>2021-04-10T11:14:18Z</time>
      </trkpt>
      <trkpt lat="47.25496" lon="6.09957">
        <ele>514.4</ele>
        <time>2021-04-10T11:14:19Z</time>
      </trkpt>
      <trkpt lat="47.25494" lon="6.09958">
        <ele>514.6</ele>
        <time>2021-04-10T11:14:20Z</time>
      </trkpt>
      <trkpt lat="47.25492" lon="6.09959">
        <ele>514.8</ele>
        <time>2021-04-10T11:14:21Z</time>
      </trkpt>
      <trkpt lat="47.2549" lon="6.09961">
        <ele>514.8</ele>
        <time>2021-04-10T11:14:22Z</time>
      </trkpt>
      <trkpt lat="47.25488" lon="6.09962">
        <ele>514.8</ele>
        <time>2021-04-10T11:14:23Z</time>
      </trkpt>
      <trkpt lat="47.25485" lon="6.09964">
        <ele>514.8</ele>
        <time>2021-04-10T11:14:24Z</time>
      </trkpt>
      <trkpt lat="47.25483" lon="6.09965">
        <ele>515</ele>
        <time>2021-04-10T11:14:25Z</time>
      </trkpt>
      <trkpt lat="47.25481" lon="6.09967">
        <ele>515</ele>
        <time>2021-04-10T11:14:26Z</time>
      </trkpt>
      <trkpt lat="47.25479" lon="6.0997">
        <ele>515.2</ele>
        <time>2021-04-10T11:14:27Z</time>
      </trkpt>
      <trkpt lat="47.25476" lon="6.09971">
        <ele>515.2</ele>
        <time>2021-04-10T11:14:28Z</time>
      </trkpt>
      <trkpt lat="47.25474" lon="6.09975">
        <ele>515.4</ele>
        <time>2021-04-10T11:14:29Z</time>
      </trkpt>
      <trkpt lat="47.25471" lon="6.09979">
        <ele>515.4</ele>
        <time>2021-04-10T11:14:30Z</time>
      </trkpt>
      <trkpt lat="47.2547" lon="6.09981">
        <ele>515.6</ele>
        <time>2021-04-10T11:14:31Z</time>
      </trkpt>
      <trkpt lat="47.25467" lon="6.09983">
        <ele>515.8</ele>
        <time>2021-04-10T11:14:32Z</time>
      </trkpt>
      <trkpt lat="47.25465" lon="6.09985">
        <ele>516</ele>
        <time>2021-04-10T11:14:33Z</time>
      </trkpt>
      <trkpt lat="47.25464" lon="6.09988">
        <ele>516</ele>
        <time>2021-04-10T11:14:34Z</time>
      </trkpt>
      <trkpt lat="47.25462" lon="6.0999">
        <ele>516.2</ele>
        <time>2021-04-10T11:14:35Z</time>
      </trkpt>
      <trkpt lat="47.25461" lon="6.09993">
        <ele>516.4</ele>
        <time>2021-04-10T11:14:36Z</time>
      </trkpt>
      <trkpt lat="47.25459" lon="6.09997">
        <ele>516.4</ele>
        <time>2021-04-10T11:14:37Z</time>
      </trkpt>
      <trkpt lat="47.25457" lon="6.09999">
        <ele>516.4</ele>
        <time>2021-04-10T11:14:38Z</time>
      </trkpt>
      <trkpt lat="47.25456" lon="6.10002">
        <ele>516.4</ele>
        <time>2021-04-10T11:14:39Z</time>
      </trkpt>
      <trkpt lat="47.25455" lon="6.10003">
        <ele>516.6</ele>
        <time>2021-04-10T11:14:40Z</time>
      </trkpt>
      <trkpt lat="47.25453" lon="6.10007">
        <ele>516.6</ele>
        <time>2021-04-10T11:14:41Z</time>
      </trkpt>
      <trkpt lat="47.25451" lon="6.1001">
        <ele>516.6</ele>
        <time>2021-04-10T11:14:42Z</time>
      </trkpt>
      <trkpt lat="47.2545" lon="6.10013">
        <ele>516.6</ele>
        <time>2021-04-10T11:14:43Z</time>
      </trkpt>
      <trkpt lat="47.25448" lon="6.10016">
        <ele>516.8</ele>
        <time>2021-04-10T11:14:44Z</time>
      </trkpt>
      <trkpt lat="47.25446" lon="6.10021">
        <ele>516.8</ele>
        <time>2021-04-10T11:14:45Z</time>
      </trkpt>
      <trkpt lat="47.25443" lon="6.10029">
        <ele>517</ele>
        <time>2021-04-10T11:14:46Z</time>
      </trkpt>
      <trkpt lat="47.25437" lon="6.10042">
        <ele>517.2</ele>
        <time>2021-04-10T11:14:49Z</time>
      </trkpt>
      <trkpt lat="47.25436" lon="6.10044">
        <ele>517.4</ele>
        <time>2021-04-10T11:14:50Z</time>
      </trkpt>
      <trkpt lat="47.25436" lon="6.10048">
        <ele>517.4</ele>
        <time>2021-04-10T11:14:51Z</time>
      </trkpt>
      <trkpt lat="47.25435" lon="6.10052">
        <ele>517.6</ele>
        <time>2021-04-10T11:14:52Z</time>
      </trkpt>
      <trkpt lat="47.25435" lon="6.1006">
        <ele>517.8</ele>
        <time>2021-04-10T11:14:54Z</time>
      </trkpt>
      <trkpt lat="47.25434" lon="6.10064">
        <ele>517.8</ele>
        <time>2021-04-10T11:14:55Z</time>
      </trkpt>
      <trkpt lat="47.25434" lon="6.10066">
        <ele>517.8</ele>
        <time>2021-04-10T11:14:56Z</time>
      </trkpt>
      <trkpt lat="47.25433" lon="6.1007">
        <ele>517.8</ele>
        <time>2021-04-10T11:14:57Z</time>
      </trkpt>
      <trkpt lat="47.25432" lon="6.10077">
        <ele>518</ele>
        <time>2021-04-10T11:14:58Z</time>
      </trkpt>
      <trkpt lat="47.25431" lon="6.10081">
        <ele>518.2</ele>
        <time>2021-04-10T11:14:59Z</time>
      </trkpt>
      <trkpt lat="47.25431" lon="6.10085">
        <ele>518.2</ele>
        <time>2021-04-10T11:15:00Z</time>
      </trkpt>
      <trkpt lat="47.25427" lon="6.10103">
        <ele>518.4</ele>
        <time>2021-04-10T11:15:03Z</time>
      </trkpt>
      <trkpt lat="47.25427" lon="6.10109">
        <ele>518.6</ele>
        <time>2021-04-10T11:15:04Z</time>
      </trkpt>
      <trkpt lat="47.25423" lon="6.10131">
        <ele>519.2</ele>
        <time>2021-04-10T11:15:09Z</time>
      </trkpt>
      <trkpt lat="47.25422" lon="6.10132">
        <ele>519.2</ele>
        <time>2021-04-10T11:15:10Z</time>
      </trkpt>
      <trkpt lat="47.25421" lon="6.10135">
        <ele>519.6</ele>
        <time>2021-04-10T11:15:11Z</time>
      </trkpt>
      <trkpt lat="47.2542" lon="6.10142">
        <ele>519.8</ele>
        <time>2021-04-10T11:15:13Z</time>
      </trkpt>
      <trkpt lat="47.2542" lon="6.10149">
        <ele>519.8</ele>
        <time>2021-04-10T11:15:14Z</time>
      </trkpt>
      <trkpt lat="47.2542" lon="6.10154">
        <ele>520</ele>
        <time>2021-04-10T11:15:15Z</time>
      </trkpt>
      <trkpt lat="47.25419" lon="6.10159">
        <ele>520</ele>
        <time>2021-04-10T11:15:16Z</time>
      </trkpt>
      <trkpt lat="47.25419" lon="6.10164">
        <ele>520.2</ele>
        <time>2021-04-10T11:15:17Z</time>
      </trkpt>
      <trkpt lat="47.25418" lon="6.1017">
        <ele>520.2</ele>
        <time>2021-04-10T11:15:18Z</time>
      </trkpt>
      <trkpt lat="47.25418" lon="6.10174">
        <ele>520.4</ele>
        <time>2021-04-10T11:15:19Z</time>
      </trkpt>
      <trkpt lat="47.2542" lon="6.10178">
        <ele>520.4</ele>
        <time>2021-04-10T11:15:20Z</time>
      </trkpt>
      <trkpt lat="47.25419" lon="6.10184">
        <ele>520.4</ele>
        <time>2021-04-10T11:15:21Z</time>
      </trkpt>
      <trkpt lat="47.25418" lon="6.10189">
        <ele>520.6</ele>
        <time>2021-04-10T11:15:22Z</time>
      </trkpt>
      <trkpt lat="47.25417" lon="6.10195">
        <ele>520.6</ele>
        <time>2021-04-10T11:15:23Z</time>
      </trkpt>
      <trkpt lat="47.25416" lon="6.10198">
        <ele>520.8</ele>
        <time>2021-04-10T11:15:24Z</time>
      </trkpt>
      <trkpt lat="47.25415" lon="6.10201">
        <ele>521</ele>
        <time>2021-04-10T11:15:25Z</time>
      </trkpt>
      <trkpt lat="47.25414" lon="6.10206">
        <ele>521</ele>
        <time>2021-04-10T11:15:26Z</time>
      </trkpt>
      <trkpt lat="47.25412" lon="6.10211">
        <ele>521</ele>
        <time>2021-04-10T11:15:27Z</time>
      </trkpt>
      <trkpt lat="47.25411" lon="6.10217">
        <ele>521.2</ele>
        <time>2021-04-10T11:15:28Z</time>
      </trkpt>
      <trkpt lat="47.25414" lon="6.10224">
        <ele>521.2</ele>
        <time>2021-04-10T11:15:29Z</time>
      </trkpt>
      <trkpt lat="47.25414" lon="6.10228">
        <ele>521.2</ele>
        <time>2021-04-10T11:15:30Z</time>
      </trkpt>
      <trkpt lat="47.25414" lon="6.10231">
        <ele>521.4</ele>
        <time>2021-04-10T11:15:31Z</time>
      </trkpt>
      <trkpt lat="47.25414" lon="6.10235">
        <ele>521.4</ele>
        <time>2021-04-10T11:15:32Z</time>
      </trkpt>
      <trkpt lat="47.25414" lon="6.10238">
        <ele>521.6</ele>
        <time>2021-04-10T11:15:33Z</time>
      </trkpt>
      <trkpt lat="47.25414" lon="6.10242">
        <ele>521.6</ele>
        <time>2021-04-10T11:15:34Z</time>
      </trkpt>
      <trkpt lat="47.25414" lon="6.10246">
        <ele>521.8</ele>
        <time>2021-04-10T11:15:35Z</time>
      </trkpt>
      <trkpt lat="47.25414" lon="6.10251">
        <ele>521.8</ele>
        <time>2021-04-10T11:15:36Z</time>
      </trkpt>
      <trkpt lat="47.25415" lon="6.10253">
        <ele>521.8</ele>
        <time>2021-04-10T11:15:37Z</time>
      </trkpt>
      <trkpt lat="47.25414" lon="6.10257">
        <ele>522</ele>
        <time>2021-04-10T11:15:38Z</time>
      </trkpt>
      <trkpt lat="47.25417" lon="6.1026">
        <ele>522.2</ele>
        <time>2021-04-10T11:15:39Z</time>
      </trkpt>
      <trkpt lat="47.25417" lon="6.10263">
        <ele>522.4</ele>
        <time>2021-04-10T11:15:40Z</time>
      </trkpt>
      <trkpt lat="47.25417" lon="6.10266">
        <ele>522.6</ele>
        <time>2021-04-10T11:15:41Z</time>
      </trkpt>
      <trkpt lat="47.25418" lon="6.10269">
        <ele>522.8</ele>
        <time>2021-04-10T11:15:42Z</time>
      </trkpt>
      <trkpt lat="47.25418" lon="6.10272">
        <ele>522.8</ele>
        <time>2021-04-10T11:15:43Z</time>
      </trkpt>
      <trkpt lat="47.25417" lon="6.10275">
        <ele>523</ele>
        <time>2021-04-10T11:15:44Z</time>
      </trkpt>
      <trkpt lat="47.25418" lon="6.10277">
        <ele>523</ele>
        <time>2021-04-10T11:15:45Z</time>
      </trkpt>
      <trkpt lat="47.25418" lon="6.1028">
        <ele>523.2</ele>
        <time>2021-04-10T11:15:46Z</time>
      </trkpt>
      <trkpt lat="47.25419" lon="6.10282">
        <ele>523.2</ele>
        <time>2021-04-10T11:15:47Z</time>
      </trkpt>
      <trkpt lat="47.25419" lon="6.10286">
        <ele>523.4</ele>
        <time>2021-04-10T11:15:48Z</time>
      </trkpt>
      <trkpt lat="47.25419" lon="6.1029">
        <ele>523.4</ele>
        <time>2021-04-10T11:15:49Z</time>
      </trkpt>
      <trkpt lat="47.2542" lon="6.10293">
        <ele>523.6</ele>
        <time>2021-04-10T11:15:50Z</time>
      </trkpt>
      <trkpt lat="47.25421" lon="6.10297">
        <ele>523.8</ele>
        <time>2021-04-10T11:15:51Z</time>
      </trkpt>
      <trkpt lat="47.25421" lon="6.10299">
        <ele>524</ele>
        <time>2021-04-10T11:15:52Z</time>
      </trkpt>
      <trkpt lat="47.25421" lon="6.10302">
        <ele>524</ele>
        <time>2021-04-10T11:15:53Z</time>
      </trkpt>
      <trkpt lat="47.25422" lon="6.10305">
        <ele>524.2</ele>
        <time>2021-04-10T11:15:54Z</time>
      </trkpt>
      <trkpt lat="47.25423" lon="6.10308">
        <ele>524.2</ele>
        <time>2021-04-10T11:15:55Z</time>
      </trkpt>
      <trkpt lat="47.25423" lon="6.10311">
        <ele>524.4</ele>
        <time>2021-04-10T11:15:56Z</time>
      </trkpt>
      <trkpt lat="47.25424" lon="6.10315">
        <ele>524.6</ele>
        <time>2021-04-10T11:15:57Z</time>
      </trkpt>
      <trkpt lat="47.25423" lon="6.10319">
        <ele>524.8</ele>
        <time>2021-04-10T11:15:58Z</time>
      </trkpt>
      <trkpt lat="47.25423" lon="6.10323">
        <ele>525</ele>
        <time>2021-04-10T11:15:59Z</time>
      </trkpt>
      <trkpt lat="47.25424" lon="6.10326">
        <ele>525.2</ele>
        <time>2021-04-10T11:16:00Z</time>
      </trkpt>
      <trkpt lat="47.25424" lon="6.10329">
        <ele>525.4</ele>
        <time>2021-04-10T11:16:01Z</time>
      </trkpt>
      <trkpt lat="47.25424" lon="6.10332">
        <ele>525.8</ele>
        <time>2021-04-10T11:16:02Z</time>
      </trkpt>
      <trkpt lat="47.25424" lon="6.10334">
        <ele>525.8</ele>
        <time>2021-04-10T11:16:03Z</time>
      </trkpt>
      <trkpt lat="47.25425" lon="6.10336">
        <ele>526</ele>
        <time>2021-04-10T11:16:04Z</time>
      </trkpt>
      <trkpt lat="47.25426" lon="6.10338">
        <ele>526</ele>
        <time>2021-04-10T11:16:05Z</time>
      </trkpt>
      <trkpt lat="47.25426" lon="6.1034">
        <ele>526.2</ele>
        <time>2021-04-10T11:16:06Z</time>
      </trkpt>
      <trkpt lat="47.25426" lon="6.10342">
        <ele>526.4</ele>
        <time>2021-04-10T11:16:07Z</time>
      </trkpt>
      <trkpt lat="47.25426" lon="6.10345">
        <ele>526.4</ele>
        <time>2021-04-10T11:16:08Z</time>
      </trkpt>
      <trkpt lat="47.25427" lon="6.10347">
        <ele>526.6</ele>
        <time>2021-04-10T11:16:09Z</time>
      </trkpt>
      <trkpt lat="47.25427" lon="6.1035">
        <ele>526.8</ele>
        <time>2021-04-10T11:16:10Z</time>
      </trkpt>
      <trkpt lat="47.25428" lon="6.10353">
        <ele>527</ele>
        <time>2021-04-10T11:16:11Z</time>
      </trkpt>
      <trkpt lat="47.25428" lon="6.10356">
        <ele>527.2</ele>
        <time>2021-04-10T11:16:12Z</time>
      </trkpt>
      <trkpt lat="47.25429" lon="6.10358">
        <ele>527.2</ele>
        <time>2021-04-10T11:16:13Z</time>
      </trkpt>
      <trkpt lat="47.2543" lon="6.10361">
        <ele>527.4</ele>
        <time>2021-04-10T11:16:14Z</time>
      </trkpt>
      <trkpt lat="47.25431" lon="6.10363">
        <ele>527.6</ele>
        <time>2021-04-10T11:16:15Z</time>
      </trkpt>
      <trkpt lat="47.25431" lon="6.10364">
        <ele>527.8</ele>
        <time>2021-04-10T11:16:16Z</time>
      </trkpt>
      <trkpt lat="47.25431" lon="6.10367">
        <ele>528.2</ele>
        <time>2021-04-10T11:16:17Z</time>
      </trkpt>
      <trkpt lat="47.25431" lon="6.10371">
        <ele>528.4</ele>
        <time>2021-04-10T11:16:18Z</time>
      </trkpt>
      <trkpt lat="47.25432" lon="6.10373">
        <ele>528.4</ele>
        <time>2021-04-10T11:16:19Z</time>
      </trkpt>
      <trkpt lat="47.25433" lon="6.10375">
        <ele>528.6</ele>
        <time>2021-04-10T11:16:20Z</time>
      </trkpt>
      <trkpt lat="47.25433" lon="6.10377">
        <ele>528.6</ele>
        <time>2021-04-10T11:16:21Z</time>
      </trkpt>
      <trkpt lat="47.25433" lon="6.10379">
        <ele>528.6</ele>
        <time>2021-04-10T11:16:22Z</time>
      </trkpt>
      <trkpt lat="47.25433" lon="6.10382">
        <ele>528.8</ele>
        <time>2021-04-10T11:16:23Z</time>
      </trkpt>
      <trkpt lat="47.25433" lon="6.10384">
        <ele>529</ele>
        <time>2021-04-10T11:16:24Z</time>
      </trkpt>
      <trkpt lat="47.25434" lon="6.10387">
        <ele>529.2</ele>
        <time>2021-04-10T11:16:25Z</time>
      </trkpt>
      <trkpt lat="47.25434" lon="6.10389">
        <ele>529.4</ele>
        <time>2021-04-10T11:16:26Z</time>
      </trkpt>
      <trkpt lat="47.25434" lon="6.10391">
        <ele>529.4</ele>
        <time>2021-04-10T11:16:27Z</time>
      </trkpt>
      <trkpt lat="47.25435" lon="6.10394">
        <ele>529.6</ele>
        <time>2021-04-10T11:16:28Z</time>
      </trkpt>
      <trkpt lat="47.25435" lon="6.10397">
        <ele>529.8</ele>
        <time>2021-04-10T11:16:29Z</time>
      </trkpt>
      <trkpt lat="47.25435" lon="6.10399">
        <ele>529.8</ele>
        <time>2021-04-10T11:16:30Z</time>
      </trkpt>
      <trkpt lat="47.25435" lon="6.10401">
        <ele>529.8</ele>
        <time>2021-04-10T11:16:31Z</time>
      </trkpt>
      <trkpt lat="47.25436" lon="6.10404">
        <ele>530</ele>
        <time>2021-04-10T11:16:32Z</time>
      </trkpt>
      <trkpt lat="47.25435" lon="6.10406">
        <ele>530.2</ele>
        <time>2021-04-10T11:16:33Z</time>
      </trkpt>
      <trkpt lat="47.25435" lon="6.10409">
        <ele>530.2</ele>
        <time>2021-04-10T11:16:34Z</time>
      </trkpt>
      <trkpt lat="47.25435" lon="6.10411">
        <ele>530.4</ele>
        <time>2021-04-10T11:16:35Z</time>
      </trkpt>
      <trkpt lat="47.25435" lon="6.10414">
        <ele>530.4</ele>
        <time>2021-04-10T11:16:36Z</time>
      </trkpt>
      <trkpt lat="47.25434" lon="6.10416">
        <ele>530.6</ele>
        <time>2021-04-10T11:16:37Z</time>
      </trkpt>
      <trkpt lat="47.25433" lon="6.10418">
        <ele>530.6</ele>
        <time>2021-04-10T11:16:38Z</time>
      </trkpt>
      <trkpt lat="47.25431" lon="6.10419">
        <ele>530.6</ele>
        <time>2021-04-10T11:16:39Z</time>
      </trkpt>
      <trkpt lat="47.2543" lon="6.1042">
        <ele>530.8</ele>
        <time>2021-04-10T11:16:40Z</time>
      </trkpt>
      <trkpt lat="47.25428" lon="6.1042">
        <ele>530.8</ele>
        <time>2021-04-10T11:16:41Z</time>
      </trkpt>
      <trkpt lat="47.25426" lon="6.10419">
        <ele>531</ele>
        <time>2021-04-10T11:16:42Z</time>
      </trkpt>
      <trkpt lat="47.25425" lon="6.10419">
        <ele>531.2</ele>
        <time>2021-04-10T11:16:43Z</time>
      </trkpt>
      <trkpt lat="47.25423" lon="6.10418">
        <ele>531.6</ele>
        <time>2021-04-10T11:16:44Z</time>
      </trkpt>
      <trkpt lat="47.25422" lon="6.10417">
        <ele>531.8</ele>
        <time>2021-04-10T11:16:45Z</time>
      </trkpt>
      <trkpt lat="47.25421" lon="6.10416">
        <ele>532</ele>
        <time>2021-04-10T11:16:46Z</time>
      </trkpt>
      <trkpt lat="47.25419" lon="6.10415">
        <ele>532.2</ele>
        <time>2021-04-10T11:16:47Z</time>
      </trkpt>
      <trkpt lat="47.25418" lon="6.10413">
        <ele>532.4</ele>
        <time>2021-04-10T11:16:48Z</time>
      </trkpt>
      <trkpt lat="47.25417" lon="6.10412">
        <ele>532.8</ele>
        <time>2021-04-10T11:16:49Z</time>
      </trkpt>
      <trkpt lat="47.25415" lon="6.1041">
        <ele>532.8</ele>
        <time>2021-04-10T11:16:50Z</time>
      </trkpt>
      <trkpt lat="47.25415" lon="6.10408">
        <ele>533</ele>
        <time>2021-04-10T11:16:51Z</time>
      </trkpt>
      <trkpt lat="47.25413" lon="6.10406">
        <ele>533</ele>
        <time>2021-04-10T11:16:52Z</time>
      </trkpt>
      <trkpt lat="47.25412" lon="6.10405">
        <ele>533.2</ele>
        <time>2021-04-10T11:16:53Z</time>
      </trkpt>
      <trkpt lat="47.25411" lon="6.10403">
        <ele>533.2</ele>
        <time>2021-04-10T11:16:54Z</time>
      </trkpt>
      <trkpt lat="47.2541" lon="6.10402">
        <ele>533.4</ele>
        <time>2021-04-10T11:16:55Z</time>
      </trkpt>
      <trkpt lat="47.25408" lon="6.104">
        <ele>533.4</ele>
        <time>2021-04-10T11:16:56Z</time>
      </trkpt>
      <trkpt lat="47.25407" lon="6.10399">
        <ele>533.6</ele>
        <time>2021-04-10T11:16:57Z</time>
      </trkpt>
      <trkpt lat="47.25406" lon="6.10397">
        <ele>533.8</ele>
        <time>2021-04-10T11:16:58Z</time>
      </trkpt>
      <trkpt lat="47.25405" lon="6.10395">
        <ele>533.8</ele>
        <time>2021-04-10T11:16:59Z</time>
      </trkpt>
      <trkpt lat="47.25404" lon="6.10394">
        <ele>533.8</ele>
        <time>2021-04-10T11:17:00Z</time>
      </trkpt>
      <trkpt lat="47.25402" lon="6.10393">
        <ele>534</ele>
        <time>2021-04-10T11:17:01Z</time>
      </trkpt>
      <trkpt lat="47.25402" lon="6.10391">
        <ele>534.2</ele>
        <time>2021-04-10T11:17:02Z</time>
      </trkpt>
      <trkpt lat="47.25401" lon="6.1039">
        <ele>534.2</ele>
        <time>2021-04-10T11:17:03Z</time>
      </trkpt>
      <trkpt lat="47.254" lon="6.10388">
        <ele>534.4</ele>
        <time>2021-04-10T11:17:04Z</time>
      </trkpt>
      <trkpt lat="47.25398" lon="6.10387">
        <ele>534.6</ele>
        <time>2021-04-10T11:17:05Z</time>
      </trkpt>
      <trkpt lat="47.25397" lon="6.10385">
        <ele>534.8</ele>
        <time>2021-04-10T11:17:06Z</time>
      </trkpt>
      <trkpt lat="47.25396" lon="6.10384">
        <ele>535</ele>
        <time>2021-04-10T11:17:07Z</time>
      </trkpt>
      <trkpt lat="47.25396" lon="6.10383">
        <ele>535.2</ele>
        <time>2021-04-10T11:17:08Z</time>
      </trkpt>
      <trkpt lat="47.25394" lon="6.10381">
        <ele>535.4</ele>
        <time>2021-04-10T11:17:09Z</time>
      </trkpt>
      <trkpt lat="47.25393" lon="6.10379">
        <ele>535.6</ele>
        <time>2021-04-10T11:17:10Z</time>
      </trkpt>
      <trkpt lat="47.25391" lon="6.10377">
        <ele>535.8</ele>
        <time>2021-04-10T11:17:11Z</time>
      </trkpt>
      <trkpt lat="47.2539" lon="6.10376">
        <ele>535.8</ele>
        <time>2021-04-10T11:17:12Z</time>
      </trkpt>
      <trkpt lat="47.25389" lon="6.10375">
        <ele>536</ele>
        <time>2021-04-10T11:17:13Z</time>
      </trkpt>
      <trkpt lat="47.25388" lon="6.10375">
        <ele>536</ele>
        <time>2021-04-10T11:17:14Z</time>
      </trkpt>
      <trkpt lat="47.25388" lon="6.10374">
        <ele>536.4</ele>
        <time>2021-04-10T11:17:15Z</time>
      </trkpt>
      <trkpt lat="47.25387" lon="6.10374">
        <ele>536.4</ele>
        <time>2021-04-10T11:17:16Z</time>
      </trkpt>
      <trkpt lat="47.25387" lon="6.10374">
        <ele>536.6</ele>
        <time>2021-04-10T11:17:17Z</time>
      </trkpt>
      <trkpt lat="47.25387" lon="6.10373">
        <ele>536.8</ele>
        <time>2021-04-10T11:17:18Z</time>
      </trkpt>
      <trkpt lat="47.25386" lon="6.10373">
        <ele>536.8</ele>
        <time>2021-04-10T11:17:19Z</time>
      </trkpt>
      <trkpt lat="47.25386" lon="6.10373">
        <ele>537.2</ele>
        <time>2021-04-10T11:17:22Z</time>
      </trkpt>
      <trkpt lat="47.25386" lon="6.10373">
        <ele>537.8</ele>
        <time>2021-04-10T11:17:30Z</time>
      </trkpt>
      <trkpt lat="47.25386" lon="6.10373">
        <ele>537.6</ele>
        <time>2021-04-10T11:17:54Z</time>
      </trkpt>
      <trkpt lat="47.25379" lon="6.10369">
        <ele>537.6</ele>
        <time>2021-04-10T11:17:57Z</time>
      </trkpt>
      <trkpt lat="47.25374" lon="6.10366">
        <ele>538</ele>
        <time>2021-04-10T11:18:00Z</time>
      </trkpt>
      <trkpt lat="47.25374" lon="6.10366">
        <ele>538</ele>
        <time>2021-04-10T11:18:01Z</time>
      </trkpt>
      <trkpt lat="47.2537" lon="6.10364">
        <ele>538.4</ele>
        <time>2021-04-10T11:18:03Z</time>
      </trkpt>
      <trkpt lat="47.25367" lon="6.10362">
        <ele>539.2</ele>
        <time>2021-04-10T11:18:05Z</time>
      </trkpt>
      <trkpt lat="47.25364" lon="6.10361">
        <ele>539.6</ele>
        <time>2021-04-10T11:18:07Z</time>
      </trkpt>
      <trkpt lat="47.25362" lon="6.1036">
        <ele>539.8</ele>
        <time>2021-04-10T11:18:08Z</time>
      </trkpt>
      <trkpt lat="47.25361" lon="6.10359">
        <ele>540.2</ele>
        <time>2021-04-10T11:18:09Z</time>
      </trkpt>
      <trkpt lat="47.25359" lon="6.1036">
        <ele>540.2</ele>
        <time>2021-04-10T11:18:10Z</time>
      </trkpt>
      <trkpt lat="47.25357" lon="6.1036">
        <ele>540.6</ele>
        <time>2021-04-10T11:18:11Z</time>
      </trkpt>
      <trkpt lat="47.25356" lon="6.1036">
        <ele>540.8</ele>
        <time>2021-04-10T11:18:12Z</time>
      </trkpt>
      <trkpt lat="47.25354" lon="6.1036">
        <ele>541</ele>
        <time>2021-04-10T11:18:13Z</time>
      </trkpt>
      <trkpt lat="47.25354" lon="6.1036">
        <ele>541.2</ele>
        <time>2021-04-10T11:18:14Z</time>
      </trkpt>
      <trkpt lat="47.25352" lon="6.10359">
        <ele>541.4</ele>
        <time>2021-04-10T11:18:15Z</time>
      </trkpt>
      <trkpt lat="47.25349" lon="6.10358">
        <ele>541.6</ele>
        <time>2021-04-10T11:18:16Z</time>
      </trkpt>
      <trkpt lat="47.25349" lon="6.10358">
        <ele>541.6</ele>
        <time>2021-04-10T11:18:17Z</time>
      </trkpt>
      <trkpt lat="47.25346" lon="6.10357">
        <ele>541.8</ele>
        <time>2021-04-10T11:18:18Z</time>
      </trkpt>
      <trkpt lat="47.25344" lon="6.10357">
        <ele>541.8</ele>
        <time>2021-04-10T11:18:19Z</time>
      </trkpt>
      <trkpt lat="47.25343" lon="6.10356">
        <ele>542</ele>
        <time>2021-04-10T11:18:20Z</time>
      </trkpt>
      <trkpt lat="47.2534" lon="6.10356">
        <ele>542.2</ele>
        <time>2021-04-10T11:18:21Z</time>
      </trkpt>
      <trkpt lat="47.25339" lon="6.10355">
        <ele>542.4</ele>
        <time>2021-04-10T11:18:22Z</time>
      </trkpt>
      <trkpt lat="47.25339" lon="6.10355">
        <ele>542.4</ele>
        <time>2021-04-10T11:18:23Z</time>
      </trkpt>
      <trkpt lat="47.25338" lon="6.10355">
        <ele>542.6</ele>
        <time>2021-04-10T11:18:24Z</time>
      </trkpt>
      <trkpt lat="47.25335" lon="6.10355">
        <ele>542.8</ele>
        <time>2021-04-10T11:18:25Z</time>
      </trkpt>
      <trkpt lat="47.25334" lon="6.10355">
        <ele>542.8</ele>
        <time>2021-04-10T11:18:26Z</time>
      </trkpt>
      <trkpt lat="47.25332" lon="6.10356">
        <ele>542.8</ele>
        <time>2021-04-10T11:18:27Z</time>
      </trkpt>
      <trkpt lat="47.2533" lon="6.10357">
        <ele>543</ele>
        <time>2021-04-10T11:18:28Z</time>
      </trkpt>
      <trkpt lat="47.25329" lon="6.10358">
        <ele>543.2</ele>
        <time>2021-04-10T11:18:29Z</time>
      </trkpt>
      <trkpt lat="47.25327" lon="6.10358">
        <ele>543.4</ele>
        <time>2021-04-10T11:18:30Z</time>
      </trkpt>
      <trkpt lat="47.25325" lon="6.10359">
        <ele>543.4</ele>
        <time>2021-04-10T11:18:31Z</time>
      </trkpt>
      <trkpt lat="47.25324" lon="6.10359">
        <ele>543.6</ele>
        <time>2021-04-10T11:18:32Z</time>
      </trkpt>
      <trkpt lat="47.25323" lon="6.1036">
        <ele>543.8</ele>
        <time>2021-04-10T11:18:33Z</time>
      </trkpt>
      <trkpt lat="47.25322" lon="6.1036">
        <ele>543.8</ele>
        <time>2021-04-10T11:18:34Z</time>
      </trkpt>
      <trkpt lat="47.25322" lon="6.1036">
        <ele>544</ele>
        <time>2021-04-10T11:18:35Z</time>
      </trkpt>
      <trkpt lat="47.25321" lon="6.1036">
        <ele>544.2</ele>
        <time>2021-04-10T11:18:36Z</time>
      </trkpt>
      <trkpt lat="47.25321" lon="6.1036">
        <ele>544.2</ele>
        <time>2021-04-10T11:18:37Z</time>
      </trkpt>
      <trkpt lat="47.25319" lon="6.10361">
        <ele>544.4</ele>
        <time>2021-04-10T11:18:38Z</time>
      </trkpt>
      <trkpt lat="47.25319" lon="6.10361">
        <ele>544.8</ele>
        <time>2021-04-10T11:18:39Z</time>
      </trkpt>
      <trkpt lat="47.25319" lon="6.10361">
        <ele>544.8</ele>
        <time>2021-04-10T11:18:40Z</time>
      </trkpt>
      <trkpt lat="47.25314" lon="6.10361">
        <ele>544.8</ele>
        <time>2021-04-10T11:18:41Z</time>
      </trkpt>
      <trkpt lat="47.25313" lon="6.10362">
        <ele>545</ele>
        <time>2021-04-10T11:18:42Z</time>
      </trkpt>
      <trkpt lat="47.25311" lon="6.10363">
        <ele>545.4</ele>
        <time>2021-04-10T11:18:43Z</time>
      </trkpt>
      <trkpt lat="47.25307" lon="6.10364">
        <ele>545.4</ele>
        <time>2021-04-10T11:18:44Z</time>
      </trkpt>
      <trkpt lat="47.25304" lon="6.10364">
        <ele>545.6</ele>
        <time>2021-04-10T11:18:45Z</time>
      </trkpt>
      <trkpt lat="47.25301" lon="6.10365">
        <ele>545.8</ele>
        <time>2021-04-10T11:18:46Z</time>
      </trkpt>
      <trkpt lat="47.25298" lon="6.10367">
        <ele>545.8</ele>
        <time>2021-04-10T11:18:47Z</time>
      </trkpt>
      <trkpt lat="47.25295" lon="6.10367">
        <ele>546</ele>
        <time>2021-04-10T11:18:48Z</time>
      </trkpt>
      <trkpt lat="47.25293" lon="6.10367">
        <ele>546</ele>
        <time>2021-04-10T11:18:49Z</time>
      </trkpt>
      <trkpt lat="47.25291" lon="6.10367">
        <ele>546</ele>
        <time>2021-04-10T11:18:50Z</time>
      </trkpt>
      <trkpt lat="47.2529" lon="6.10368">
        <ele>546.2</ele>
        <time>2021-04-10T11:18:51Z</time>
      </trkpt>
      <trkpt lat="47.25287" lon="6.10368">
        <ele>546.2</ele>
        <time>2021-04-10T11:18:52Z</time>
      </trkpt>
      <trkpt lat="47.25286" lon="6.10367">
        <ele>546.4</ele>
        <time>2021-04-10T11:18:53Z</time>
      </trkpt>
      <trkpt lat="47.25286" lon="6.10367">
        <ele>546.6</ele>
        <time>2021-04-10T11:18:54Z</time>
      </trkpt>
      <trkpt lat="47.25284" lon="6.10365">
        <ele>546.8</ele>
        <time>2021-04-10T11:18:55Z</time>
      </trkpt>
      <trkpt lat="47.25283" lon="6.10364">
        <ele>546.8</ele>
        <time>2021-04-10T11:18:56Z</time>
      </trkpt>
      <trkpt lat="47.25283" lon="6.10364">
        <ele>546.8</ele>
        <time>2021-04-10T11:18:57Z</time>
      </trkpt>
      <trkpt lat="47.25282" lon="6.10362">
        <ele>547</ele>
        <time>2021-04-10T11:18:58Z</time>
      </trkpt>
      <trkpt lat="47.25281" lon="6.1036">
        <ele>547.2</ele>
        <time>2021-04-10T11:18:59Z</time>
      </trkpt>
      <trkpt lat="47.25281" lon="6.1036">
        <ele>547.4</ele>
        <time>2021-04-10T11:19:00Z</time>
      </trkpt>
      <trkpt lat="47.25279" lon="6.10357">
        <ele>547.2</ele>
        <time>2021-04-10T11:19:01Z</time>
      </trkpt>
      <trkpt lat="47.25278" lon="6.10355">
        <ele>547.6</ele>
        <time>2021-04-10T11:19:02Z</time>
      </trkpt>
      <trkpt lat="47.25278" lon="6.10355">
        <ele>547.4</ele>
        <time>2021-04-10T11:19:03Z</time>
      </trkpt>
      <trkpt lat="47.25278" lon="6.10352">
        <ele>547.6</ele>
        <time>2021-04-10T11:19:04Z</time>
      </trkpt>
      <trkpt lat="47.25278" lon="6.10351">
        <ele>547.8</ele>
        <time>2021-04-10T11:19:05Z</time>
      </trkpt>
      <trkpt lat="47.25277" lon="6.10349">
        <ele>548</ele>
        <time>2021-04-10T11:19:06Z</time>
      </trkpt>
      <trkpt lat="47.25276" lon="6.10347">
        <ele>548.2</ele>
        <time>2021-04-10T11:19:07Z</time>
      </trkpt>
      <trkpt lat="47.25276" lon="6.10344">
        <ele>548.4</ele>
        <time>2021-04-10T11:19:08Z</time>
      </trkpt>
      <trkpt lat="47.25276" lon="6.10342">
        <ele>548.6</ele>
        <time>2021-04-10T11:19:09Z</time>
      </trkpt>
      <trkpt lat="47.25276" lon="6.1034">
        <ele>548.8</ele>
        <time>2021-04-10T11:19:10Z</time>
      </trkpt>
      <trkpt lat="47.25277" lon="6.10338">
        <ele>549.2</ele>
        <time>2021-04-10T11:19:11Z</time>
      </trkpt>
      <trkpt lat="47.25278" lon="6.10335">
        <ele>549.4</ele>
        <time>2021-04-10T11:19:12Z</time>
      </trkpt>
      <trkpt lat="47.25278" lon="6.10333">
        <ele>549.8</ele>
        <time>2021-04-10T11:19:13Z</time>
      </trkpt>
      <trkpt lat="47.25279" lon="6.10332">
        <ele>549.8</ele>
        <time>2021-04-10T11:19:14Z</time>
      </trkpt>
      <trkpt lat="47.2528" lon="6.10331">
        <ele>550</ele>
        <time>2021-04-10T11:19:15Z</time>
      </trkpt>
      <trkpt lat="47.2528" lon="6.10329">
        <ele>550</ele>
        <time>2021-04-10T11:19:16Z</time>
      </trkpt>
      <trkpt lat="47.2528" lon="6.10329">
        <ele>550</ele>
        <time>2021-04-10T11:19:17Z</time>
      </trkpt>
      <trkpt lat="47.25282" lon="6.10324">
        <ele>550.2</ele>
        <time>2021-04-10T11:19:18Z</time>
      </trkpt>
      <trkpt lat="47.25282" lon="6.10321">
        <ele>550.2</ele>
        <time>2021-04-10T11:19:19Z</time>
      </trkpt>
      <trkpt lat="47.25283" lon="6.10317">
        <ele>550.4</ele>
        <time>2021-04-10T11:19:20Z</time>
      </trkpt>
      <trkpt lat="47.25281" lon="6.10314">
        <ele>550.4</ele>
        <time>2021-04-10T11:19:21Z</time>
      </trkpt>
      <trkpt lat="47.2528" lon="6.10313">
        <ele>550.6</ele>
        <time>2021-04-10T11:19:22Z</time>
      </trkpt>
      <trkpt lat="47.2528" lon="6.10311">
        <ele>550.6</ele>
        <time>2021-04-10T11:19:23Z</time>
      </trkpt>
      <trkpt lat="47.2528" lon="6.10307">
        <ele>550.6</ele>
        <time>2021-04-10T11:19:24Z</time>
      </trkpt>
      <trkpt lat="47.2528" lon="6.10304">
        <ele>550.8</ele>
        <time>2021-04-10T11:19:25Z</time>
      </trkpt>
      <trkpt lat="47.25279" lon="6.103">
        <ele>550.8</ele>
        <time>2021-04-10T11:19:26Z</time>
      </trkpt>
      <trkpt lat="47.25279" lon="6.10293">
        <ele>551</ele>
        <time>2021-04-10T11:19:27Z</time>
      </trkpt>
      <trkpt lat="47.25278" lon="6.1029">
        <ele>551</ele>
        <time>2021-04-10T11:19:28Z</time>
      </trkpt>
      <trkpt lat="47.25278" lon="6.10287">
        <ele>551.2</ele>
        <time>2021-04-10T11:19:29Z</time>
      </trkpt>
      <trkpt lat="47.25277" lon="6.10284">
        <ele>551.2</ele>
        <time>2021-04-10T11:19:30Z</time>
      </trkpt>
      <trkpt lat="47.25276" lon="6.1028">
        <ele>551.4</ele>
        <time>2021-04-10T11:19:31Z</time>
      </trkpt>
      <trkpt lat="47.25275" lon="6.10277">
        <ele>551.4</ele>
        <time>2021-04-10T11:19:32Z</time>
      </trkpt>
      <trkpt lat="47.25274" lon="6.10275">
        <ele>551.8</ele>
        <time>2021-04-10T11:19:33Z</time>
      </trkpt>
      <trkpt lat="47.25273" lon="6.10271">
        <ele>552</ele>
        <time>2021-04-10T11:19:34Z</time>
      </trkpt>
      <trkpt lat="47.25272" lon="6.10269">
        <ele>552.2</ele>
        <time>2021-04-10T11:19:35Z</time>
      </trkpt>
      <trkpt lat="47.2527" lon="6.10266">
        <ele>552.4</ele>
        <time>2021-04-10T11:19:36Z</time>
      </trkpt>
      <trkpt lat="47.2527" lon="6.10266">
        <ele>552.4</ele>
        <time>2021-04-10T11:19:37Z</time>
      </trkpt>
      <trkpt lat="47.25269" lon="6.10261">
        <ele>552.6</ele>
        <time>2021-04-10T11:19:38Z</time>
      </trkpt>
      <trkpt lat="47.25269" lon="6.10259">
        <ele>552.6</ele>
        <time>2021-04-10T11:19:39Z</time>
      </trkpt>
      <trkpt lat="47.25267" lon="6.10256">
        <ele>552.6</ele>
        <time>2021-04-10T11:19:40Z</time>
      </trkpt>
      <trkpt lat="47.25264" lon="6.10253">
        <ele>552.8</ele>
        <time>2021-04-10T11:19:41Z</time>
      </trkpt>
      <trkpt lat="47.25263" lon="6.10251">
        <ele>552.8</ele>
        <time>2021-04-10T11:19:42Z</time>
      </trkpt>
      <trkpt lat="47.25261" lon="6.1025">
        <ele>553</ele>
        <time>2021-04-10T11:19:43Z</time>
      </trkpt>
      <trkpt lat="47.25259" lon="6.10249">
        <ele>553.2</ele>
        <time>2021-04-10T11:19:44Z</time>
      </trkpt>
      <trkpt lat="47.25257" lon="6.10249">
        <ele>553.2</ele>
        <time>2021-04-10T11:19:45Z</time>
      </trkpt>
      <trkpt lat="47.25257" lon="6.10249">
        <ele>553.4</ele>
        <time>2021-04-10T11:19:46Z</time>
      </trkpt>
      <trkpt lat="47.25256" lon="6.10247">
        <ele>553.6</ele>
        <time>2021-04-10T11:19:47Z</time>
      </trkpt>
      <trkpt lat="47.25256" lon="6.10246">
        <ele>553.8</ele>
        <time>2021-04-10T11:19:48Z</time>
      </trkpt>
      <trkpt lat="47.25255" lon="6.10245">
        <ele>554</ele>
        <time>2021-04-10T11:19:49Z</time>
      </trkpt>
      <trkpt lat="47.25253" lon="6.10244">
        <ele>554</ele>
        <time>2021-04-10T11:19:50Z</time>
      </trkpt>
      <trkpt lat="47.25252" lon="6.10242">
        <ele>554.4</ele>
        <time>2021-04-10T11:19:51Z</time>
      </trkpt>
      <trkpt lat="47.2525" lon="6.10241">
        <ele>554.4</ele>
        <time>2021-04-10T11:19:52Z</time>
      </trkpt>
      <trkpt lat="47.25249" lon="6.10241">
        <ele>554.8</ele>
        <time>2021-04-10T11:19:53Z</time>
      </trkpt>
      <trkpt lat="47.25249" lon="6.10241">
        <ele>555</ele>
        <time>2021-04-10T11:19:54Z</time>
      </trkpt>
      <trkpt lat="47.25247" lon="6.10239">
        <ele>555</ele>
        <time>2021-04-10T11:19:55Z</time>
      </trkpt>
      <trkpt lat="47.25245" lon="6.10238">
        <ele>555.2</ele>
        <time>2021-04-10T11:19:56Z</time>
      </trkpt>
      <trkpt lat="47.25245" lon="6.10238">
        <ele>555.2</ele>
        <time>2021-04-10T11:19:57Z</time>
      </trkpt>
      <trkpt lat="47.25245" lon="6.10237">
        <ele>555.4</ele>
        <time>2021-04-10T11:19:58Z</time>
      </trkpt>
      <trkpt lat="47.25243" lon="6.10236">
        <ele>555.6</ele>
        <time>2021-04-10T11:19:59Z</time>
      </trkpt>
      <trkpt lat="47.25242" lon="6.10236">
        <ele>555.8</ele>
        <time>2021-04-10T11:20:00Z</time>
      </trkpt>
      <trkpt lat="47.25242" lon="6.10236">
        <ele>555.8</ele>
        <time>2021-04-10T11:20:01Z</time>
      </trkpt>
      <trkpt lat="47.25241" lon="6.10235">
        <ele>556</ele>
        <time>2021-04-10T11:20:02Z</time>
      </trkpt>
      <trkpt lat="47.2524" lon="6.10233">
        <ele>556.2</ele>
        <time>2021-04-10T11:20:03Z</time>
      </trkpt>
      <trkpt lat="47.25239" lon="6.10232">
        <ele>556.4</ele>
        <time>2021-04-10T11:20:04Z</time>
      </trkpt>
      <trkpt lat="47.25238" lon="6.10231">
        <ele>556.6</ele>
        <time>2021-04-10T11:20:05Z</time>
      </trkpt>
      <trkpt lat="47.25236" lon="6.1023">
        <ele>556.6</ele>
        <time>2021-04-10T11:20:06Z</time>
      </trkpt>
      <trkpt lat="47.25235" lon="6.10229">
        <ele>556.6</ele>
        <time>2021-04-10T11:20:07Z</time>
      </trkpt>
      <trkpt lat="47.25235" lon="6.10229">
        <ele>556.8</ele>
        <time>2021-04-10T11:20:08Z</time>
      </trkpt>
      <trkpt lat="47.25233" lon="6.10227">
        <ele>557</ele>
        <time>2021-04-10T11:20:09Z</time>
      </trkpt>
      <trkpt lat="47.25231" lon="6.10226">
        <ele>557.2</ele>
        <time>2021-04-10T11:20:10Z</time>
      </trkpt>
      <trkpt lat="47.2523" lon="6.10225">
        <ele>557.4</ele>
        <time>2021-04-10T11:20:11Z</time>
      </trkpt>
      <trkpt lat="47.25229" lon="6.10225">
        <ele>557.8</ele>
        <time>2021-04-10T11:20:12Z</time>
      </trkpt>
      <trkpt lat="47.25227" lon="6.10224">
        <ele>557.8</ele>
        <time>2021-04-10T11:20:13Z</time>
      </trkpt>
      <trkpt lat="47.25227" lon="6.10224">
        <ele>558.2</ele>
        <time>2021-04-10T11:20:14Z</time>
      </trkpt>
      <trkpt lat="47.25224" lon="6.10222">
        <ele>558.2</ele>
        <time>2021-04-10T11:20:15Z</time>
      </trkpt>
      <trkpt lat="47.25222" lon="6.1022">
        <ele>558.6</ele>
        <time>2021-04-10T11:20:16Z</time>
      </trkpt>
      <trkpt lat="47.25222" lon="6.1022">
        <ele>558.6</ele>
        <time>2021-04-10T11:20:17Z</time>
      </trkpt>
      <trkpt lat="47.25218" lon="6.10219">
        <ele>558.8</ele>
        <time>2021-04-10T11:20:18Z</time>
      </trkpt>
      <trkpt lat="47.25217" lon="6.10218">
        <ele>558.8</ele>
        <time>2021-04-10T11:20:19Z</time>
      </trkpt>
      <trkpt lat="47.25215" lon="6.10217">
        <ele>559</ele>
        <time>2021-04-10T11:20:20Z</time>
      </trkpt>
      <trkpt lat="47.25214" lon="6.10217">
        <ele>559</ele>
        <time>2021-04-10T11:20:21Z</time>
      </trkpt>
      <trkpt lat="47.25212" lon="6.10215">
        <ele>559.2</ele>
        <time>2021-04-10T11:20:22Z</time>
      </trkpt>
      <trkpt lat="47.25211" lon="6.10214">
        <ele>559.4</ele>
        <time>2021-04-10T11:20:23Z</time>
      </trkpt>
      <trkpt lat="47.25209" lon="6.10214">
        <ele>559.6</ele>
        <time>2021-04-10T11:20:24Z</time>
      </trkpt>
      <trkpt lat="47.25208" lon="6.10213">
        <ele>559.8</ele>
        <time>2021-04-10T11:20:25Z</time>
      </trkpt>
      <trkpt lat="47.25206" lon="6.10212">
        <ele>560</ele>
        <time>2021-04-10T11:20:26Z</time>
      </trkpt>
      <trkpt lat="47.25205" lon="6.10211">
        <ele>560.2</ele>
        <time>2021-04-10T11:20:27Z</time>
      </trkpt>
      <trkpt lat="47.25204" lon="6.1021">
        <ele>560.2</ele>
        <time>2021-04-10T11:20:28Z</time>
      </trkpt>
      <trkpt lat="47.25201" lon="6.10209">
        <ele>560.4</ele>
        <time>2021-04-10T11:20:29Z</time>
      </trkpt>
      <trkpt lat="47.25199" lon="6.10207">
        <ele>560.4</ele>
        <time>2021-04-10T11:20:30Z</time>
      </trkpt>
      <trkpt lat="47.25199" lon="6.10207">
        <ele>560.6</ele>
        <time>2021-04-10T11:20:31Z</time>
      </trkpt>
      <trkpt lat="47.25196" lon="6.10205">
        <ele>560.6</ele>
        <time>2021-04-10T11:20:32Z</time>
      </trkpt>
      <trkpt lat="47.25195" lon="6.10204">
        <ele>560.8</ele>
        <time>2021-04-10T11:20:33Z</time>
      </trkpt>
      <trkpt lat="47.25194" lon="6.10203">
        <ele>560.8</ele>
        <time>2021-04-10T11:20:34Z</time>
      </trkpt>
      <trkpt lat="47.25193" lon="6.10201">
        <ele>560.8</ele>
        <time>2021-04-10T11:20:35Z</time>
      </trkpt>
      <trkpt lat="47.25193" lon="6.102">
        <ele>560.8</ele>
        <time>2021-04-10T11:20:36Z</time>
      </trkpt>
      <trkpt lat="47.25191" lon="6.10198">
        <ele>560.8</ele>
        <time>2021-04-10T11:20:37Z</time>
      </trkpt>
      <trkpt lat="47.2519" lon="6.10197">
        <ele>561.2</ele>
        <time>2021-04-10T11:20:38Z</time>
      </trkpt>
      <trkpt lat="47.25186" lon="6.10196">
        <ele>561.2</ele>
        <time>2021-04-10T11:20:39Z</time>
      </trkpt>
      <trkpt lat="47.25186" lon="6.10195">
        <ele>561.2</ele>
        <time>2021-04-10T11:20:40Z</time>
      </trkpt>
      <trkpt lat="47.25184" lon="6.10194">
        <ele>561.4</ele>
        <time>2021-04-10T11:20:41Z</time>
      </trkpt>
      <trkpt lat="47.25183" lon="6.10193">
        <ele>561.4</ele>
        <time>2021-04-10T11:20:42Z</time>
      </trkpt>
      <trkpt lat="47.25181" lon="6.10192">
        <ele>561.8</ele>
        <time>2021-04-10T11:20:43Z</time>
      </trkpt>
      <trkpt lat="47.25179" lon="6.1019">
        <ele>562</ele>
        <time>2021-04-10T11:20:44Z</time>
      </trkpt>
      <trkpt lat="47.25178" lon="6.10189">
        <ele>562.4</ele>
        <time>2021-04-10T11:20:45Z</time>
      </trkpt>
      <trkpt lat="47.25176" lon="6.10188">
        <ele>562.6</ele>
        <time>2021-04-10T11:20:46Z</time>
      </trkpt>
      <trkpt lat="47.25175" lon="6.10186">
        <ele>562.8</ele>
        <time>2021-04-10T11:20:47Z</time>
      </trkpt>
      <trkpt lat="47.25173" lon="6.10185">
        <ele>563</ele>
        <time>2021-04-10T11:20:48Z</time>
      </trkpt>
      <trkpt lat="47.25172" lon="6.10185">
        <ele>563.2</ele>
        <time>2021-04-10T11:20:49Z</time>
      </trkpt>
      <trkpt lat="47.2517" lon="6.10183">
        <ele>563.2</ele>
        <time>2021-04-10T11:20:50Z</time>
      </trkpt>
      <trkpt lat="47.2517" lon="6.10183">
        <ele>563.6</ele>
        <time>2021-04-10T11:20:51Z</time>
      </trkpt>
      <trkpt lat="47.25167" lon="6.10181">
        <ele>563.8</ele>
        <time>2021-04-10T11:20:52Z</time>
      </trkpt>
      <trkpt lat="47.25167" lon="6.1018">
        <ele>563.8</ele>
        <time>2021-04-10T11:20:53Z</time>
      </trkpt>
      <trkpt lat="47.25167" lon="6.1018">
        <ele>564</ele>
        <time>2021-04-10T11:20:54Z</time>
      </trkpt>
      <trkpt lat="47.25164" lon="6.10177">
        <ele>564</ele>
        <time>2021-04-10T11:20:55Z</time>
      </trkpt>
      <trkpt lat="47.25163" lon="6.10176">
        <ele>564.2</ele>
        <time>2021-04-10T11:20:56Z</time>
      </trkpt>
      <trkpt lat="47.25162" lon="6.10175">
        <ele>564.2</ele>
        <time>2021-04-10T11:20:57Z</time>
      </trkpt>
      <trkpt lat="47.25161" lon="6.10174">
        <ele>564.4</ele>
        <time>2021-04-10T11:20:58Z</time>
      </trkpt>
      <trkpt lat="47.2516" lon="6.10173">
        <ele>564.4</ele>
        <time>2021-04-10T11:20:59Z</time>
      </trkpt>
      <trkpt lat="47.25158" lon="6.10172">
        <ele>564.4</ele>
        <time>2021-04-10T11:21:00Z</time>
      </trkpt>
      <trkpt lat="47.25157" lon="6.1017">
        <ele>564.6</ele>
        <time>2021-04-10T11:21:01Z</time>
      </trkpt>
      <trkpt lat="47.25157" lon="6.10168">
        <ele>564.6</ele>
        <time>2021-04-10T11:21:02Z</time>
      </trkpt>
      <trkpt lat="47.25155" lon="6.10167">
        <ele>564.8</ele>
        <time>2021-04-10T11:21:03Z</time>
      </trkpt>
      <trkpt lat="47.25154" lon="6.10166">
        <ele>564.8</ele>
        <time>2021-04-10T11:21:04Z</time>
      </trkpt>
      <trkpt lat="47.25152" lon="6.10165">
        <ele>565</ele>
        <time>2021-04-10T11:21:05Z</time>
      </trkpt>
      <trkpt lat="47.2515" lon="6.10162">
        <ele>565</ele>
        <time>2021-04-10T11:21:06Z</time>
      </trkpt>
      <trkpt lat="47.25149" lon="6.10159">
        <ele>565.2</ele>
        <time>2021-04-10T11:21:07Z</time>
      </trkpt>
      <trkpt lat="47.25149" lon="6.10159">
        <ele>565.4</ele>
        <time>2021-04-10T11:21:08Z</time>
      </trkpt>
      <trkpt lat="47.25148" lon="6.10156">
        <ele>566</ele>
        <time>2021-04-10T11:21:09Z</time>
      </trkpt>
      <trkpt lat="47.25145" lon="6.10155">
        <ele>566.4</ele>
        <time>2021-04-10T11:21:10Z</time>
      </trkpt>
      <trkpt lat="47.25143" lon="6.10154">
        <ele>566.4</ele>
        <time>2021-04-10T11:21:11Z</time>
      </trkpt>
      <trkpt lat="47.25141" lon="6.10153">
        <ele>566.6</ele>
        <time>2021-04-10T11:21:12Z</time>
      </trkpt>
      <trkpt lat="47.25139" lon="6.10151">
        <ele>566.8</ele>
        <time>2021-04-10T11:21:13Z</time>
      </trkpt>
      <trkpt lat="47.25138" lon="6.10148">
        <ele>567.2</ele>
        <time>2021-04-10T11:21:14Z</time>
      </trkpt>
      <trkpt lat="47.25136" lon="6.10147">
        <ele>567.2</ele>
        <time>2021-04-10T11:21:15Z</time>
      </trkpt>
      <trkpt lat="47.25135" lon="6.10145">
        <ele>567.4</ele>
        <time>2021-04-10T11:21:16Z</time>
      </trkpt>
      <trkpt lat="47.25135" lon="6.10145">
        <ele>567.4</ele>
        <time>2021-04-10T11:21:17Z</time>
      </trkpt>
      <trkpt lat="47.25136" lon="6.10139">
        <ele>567.6</ele>
        <time>2021-04-10T11:21:18Z</time>
      </trkpt>
      <trkpt lat="47.25135" lon="6.10137">
        <ele>567.6</ele>
        <time>2021-04-10T11:21:19Z</time>
      </trkpt>
      <trkpt lat="47.25134" lon="6.10136">
        <ele>567.6</ele>
        <time>2021-04-10T11:21:20Z</time>
      </trkpt>
      <trkpt lat="47.25134" lon="6.10136">
        <ele>567.8</ele>
        <time>2021-04-10T11:21:21Z</time>
      </trkpt>
      <trkpt lat="47.2513" lon="6.10135">
        <ele>568</ele>
        <time>2021-04-10T11:21:22Z</time>
      </trkpt>
      <trkpt lat="47.25129" lon="6.10133">
        <ele>568.2</ele>
        <time>2021-04-10T11:21:23Z</time>
      </trkpt>
      <trkpt lat="47.25127" lon="6.10132">
        <ele>568.4</ele>
        <time>2021-04-10T11:21:24Z</time>
      </trkpt>
      <trkpt lat="47.25126" lon="6.10131">
        <ele>568.6</ele>
        <time>2021-04-10T11:21:25Z</time>
      </trkpt>
      <trkpt lat="47.25125" lon="6.10129">
        <ele>568.6</ele>
        <time>2021-04-10T11:21:26Z</time>
      </trkpt>
      <trkpt lat="47.25123" lon="6.10127">
        <ele>568.8</ele>
        <time>2021-04-10T11:21:27Z</time>
      </trkpt>
      <trkpt lat="47.25123" lon="6.10127">
        <ele>568.8</ele>
        <time>2021-04-10T11:21:28Z</time>
      </trkpt>
      <trkpt lat="47.25121" lon="6.10124">
        <ele>568.8</ele>
        <time>2021-04-10T11:21:29Z</time>
      </trkpt>
      <trkpt lat="47.2512" lon="6.10122">
        <ele>569</ele>
        <time>2021-04-10T11:21:30Z</time>
      </trkpt>
      <trkpt lat="47.2512" lon="6.10122">
        <ele>569</ele>
        <time>2021-04-10T11:21:31Z</time>
      </trkpt>
      <trkpt lat="47.25119" lon="6.10118">
        <ele>569</ele>
        <time>2021-04-10T11:21:32Z</time>
      </trkpt>
      <trkpt lat="47.25119" lon="6.10117">
        <ele>569.2</ele>
        <time>2021-04-10T11:21:33Z</time>
      </trkpt>
      <trkpt lat="47.25119" lon="6.10117">
        <ele>569.2</ele>
        <time>2021-04-10T11:21:34Z</time>
      </trkpt>
      <trkpt lat="47.25116" lon="6.10112">
        <ele>569.2</ele>
        <time>2021-04-10T11:21:35Z</time>
      </trkpt>
      <trkpt lat="47.25114" lon="6.1011">
        <ele>569.4</ele>
        <time>2021-04-10T11:21:36Z</time>
      </trkpt>
      <trkpt lat="47.25114" lon="6.1011">
        <ele>569.4</ele>
        <time>2021-04-10T11:21:37Z</time>
      </trkpt>
      <trkpt lat="47.25112" lon="6.10106">
        <ele>569.4</ele>
        <time>2021-04-10T11:21:38Z</time>
      </trkpt>
      <trkpt lat="47.25112" lon="6.10104">
        <ele>569.4</ele>
        <time>2021-04-10T11:21:39Z</time>
      </trkpt>
      <trkpt lat="47.25112" lon="6.10104">
        <ele>569.4</ele>
        <time>2021-04-10T11:21:40Z</time>
      </trkpt>
      <trkpt lat="47.25109" lon="6.101">
        <ele>569.4</ele>
        <time>2021-04-10T11:21:41Z</time>
      </trkpt>
      <trkpt lat="47.25108" lon="6.10098">
        <ele>569.4</ele>
        <time>2021-04-10T11:21:42Z</time>
      </trkpt>
      <trkpt lat="47.25106" lon="6.10096">
        <ele>569.4</ele>
        <time>2021-04-10T11:21:43Z</time>
      </trkpt>
      <trkpt lat="47.25106" lon="6.10095">
        <ele>569.4</ele>
        <time>2021-04-10T11:21:44Z</time>
      </trkpt>
      <trkpt lat="47.25104" lon="6.10094">
        <ele>569.4</ele>
        <time>2021-04-10T11:21:45Z</time>
      </trkpt>
      <trkpt lat="47.25103" lon="6.10092">
        <ele>569.4</ele>
        <time>2021-04-10T11:21:46Z</time>
      </trkpt>
      <trkpt lat="47.25101" lon="6.1009">
        <ele>569.2</ele>
        <time>2021-04-10T11:21:47Z</time>
      </trkpt>
      <trkpt lat="47.25097" lon="6.10081">
        <ele>569</ele>
        <time>2021-04-10T11:21:51Z</time>
      </trkpt>
      <trkpt lat="47.25096" lon="6.10079">
        <ele>569</ele>
        <time>2021-04-10T11:21:52Z</time>
      </trkpt>
      <trkpt lat="47.25095" lon="6.10075">
        <ele>569</ele>
        <time>2021-04-10T11:21:53Z</time>
      </trkpt>
      <trkpt lat="47.25095" lon="6.10075">
        <ele>569</ele>
        <time>2021-04-10T11:21:54Z</time>
      </trkpt>
      <trkpt lat="47.25092" lon="6.10071">
        <ele>569</ele>
        <time>2021-04-10T11:21:55Z</time>
      </trkpt>
      <trkpt lat="47.25085" lon="6.10054">
        <ele>569</ele>
        <time>2021-04-10T11:21:59Z</time>
      </trkpt>
      <trkpt lat="47.25078" lon="6.10045">
        <ele>568.8</ele>
        <time>2021-04-10T11:22:02Z</time>
      </trkpt>
      <trkpt lat="47.25078" lon="6.10045">
        <ele>568.8</ele>
        <time>2021-04-10T11:22:03Z</time>
      </trkpt>
      <trkpt lat="47.25072" lon="6.10028">
        <ele>568.8</ele>
        <time>2021-04-10T11:22:06Z</time>
      </trkpt>
      <trkpt lat="47.2507" lon="6.10024">
        <ele>568.8</ele>
        <time>2021-04-10T11:22:07Z</time>
      </trkpt>
      <trkpt lat="47.25062" lon="6.09996">
        <ele>568.8</ele>
        <time>2021-04-10T11:22:13Z</time>
      </trkpt>
      <trkpt lat="47.2506" lon="6.09992">
        <ele>568.8</ele>
        <time>2021-04-10T11:22:14Z</time>
      </trkpt>
      <trkpt lat="47.25059" lon="6.09987">
        <ele>568.8</ele>
        <time>2021-04-10T11:22:15Z</time>
      </trkpt>
      <trkpt lat="47.25059" lon="6.09982">
        <ele>568.8</ele>
        <time>2021-04-10T11:22:16Z</time>
      </trkpt>
      <trkpt lat="47.25059" lon="6.09982">
        <ele>569</ele>
        <time>2021-04-10T11:22:17Z</time>
      </trkpt>
      <trkpt lat="47.25053" lon="6.09976">
        <ele>568.8</ele>
        <time>2021-04-10T11:22:18Z</time>
      </trkpt>
      <trkpt lat="47.25048" lon="6.09966">
        <ele>569</ele>
        <time>2021-04-10T11:22:20Z</time>
      </trkpt>
      <trkpt lat="47.25045" lon="6.09963">
        <ele>569</ele>
        <time>2021-04-10T11:22:21Z</time>
      </trkpt>
      <trkpt lat="47.25045" lon="6.09959">
        <ele>569</ele>
        <time>2021-04-10T11:22:22Z</time>
      </trkpt>
      <trkpt lat="47.25043" lon="6.09954">
        <ele>568.8</ele>
        <time>2021-04-10T11:22:23Z</time>
      </trkpt>
      <trkpt lat="47.25038" lon="6.09938">
        <ele>568.8</ele>
        <time>2021-04-10T11:22:26Z</time>
      </trkpt>
      <trkpt lat="47.25034" lon="6.09931">
        <ele>568.8</ele>
        <time>2021-04-10T11:22:27Z</time>
      </trkpt>
      <trkpt lat="47.25026" lon="6.0992">
        <ele>568.6</ele>
        <time>2021-04-10T11:22:30Z</time>
      </trkpt>
      <trkpt lat="47.25024" lon="6.09918">
        <ele>568.6</ele>
        <time>2021-04-10T11:22:31Z</time>
      </trkpt>
      <trkpt lat="47.25021" lon="6.09915">
        <ele>568.6</ele>
        <time>2021-04-10T11:22:32Z</time>
      </trkpt>
      <trkpt lat="47.25009" lon="6.09907">
        <ele>568.6</ele>
        <time>2021-04-10T11:22:36Z</time>
      </trkpt>
      <trkpt lat="47.25006" lon="6.09906">
        <ele>568.6</ele>
        <time>2021-04-10T11:22:37Z</time>
      </trkpt>
      <trkpt lat="47.24994" lon="6.099">
        <ele>568.6</ele>
        <time>2021-04-10T11:22:41Z</time>
      </trkpt>
      <trkpt lat="47.24991" lon="6.09899">
        <ele>568.6</ele>
        <time>2021-04-10T11:22:42Z</time>
      </trkpt>
      <trkpt lat="47.24988" lon="6.09898">
        <ele>568.6</ele>
        <time>2021-04-10T11:22:43Z</time>
      </trkpt>
      <trkpt lat="47.24985" lon="6.09896">
        <ele>568.4</ele>
        <time>2021-04-10T11:22:44Z</time>
      </trkpt>
      <trkpt lat="47.24976" lon="6.09891">
        <ele>568.4</ele>
        <time>2021-04-10T11:22:47Z</time>
      </trkpt>
      <trkpt lat="47.24974" lon="6.09889">
        <ele>568.4</ele>
        <time>2021-04-10T11:22:48Z</time>
      </trkpt>
      <trkpt lat="47.24974" lon="6.09889">
        <ele>568.4</ele>
        <time>2021-04-10T11:22:49Z</time>
      </trkpt>
      <trkpt lat="47.24967" lon="6.09884">
        <ele>568.4</ele>
        <time>2021-04-10T11:22:50Z</time>
      </trkpt>
      <trkpt lat="47.24963" lon="6.09881">
        <ele>568.2</ele>
        <time>2021-04-10T11:22:51Z</time>
      </trkpt>
      <trkpt lat="47.2496" lon="6.0988">
        <ele>568.2</ele>
        <time>2021-04-10T11:22:52Z</time>
      </trkpt>
      <trkpt lat="47.24951" lon="6.09872">
        <ele>568.2</ele>
        <time>2021-04-10T11:22:56Z</time>
      </trkpt>
      <trkpt lat="47.24949" lon="6.09869">
        <ele>568.2</ele>
        <time>2021-04-10T11:22:57Z</time>
      </trkpt>
      <trkpt lat="47.24946" lon="6.09866">
        <ele>568.2</ele>
        <time>2021-04-10T11:22:58Z</time>
      </trkpt>
      <trkpt lat="47.24944" lon="6.09862">
        <ele>568.2</ele>
        <time>2021-04-10T11:22:59Z</time>
      </trkpt>
      <trkpt lat="47.24942" lon="6.09861">
        <ele>568.4</ele>
        <time>2021-04-10T11:23:00Z</time>
      </trkpt>
      <trkpt lat="47.2494" lon="6.09861">
        <ele>568.4</ele>
        <time>2021-04-10T11:23:01Z</time>
      </trkpt>
      <trkpt lat="47.24937" lon="6.09861">
        <ele>568.6</ele>
        <time>2021-04-10T11:23:02Z</time>
      </trkpt>
      <trkpt lat="47.24937" lon="6.09861">
        <ele>568.6</ele>
        <time>2021-04-10T11:23:03Z</time>
      </trkpt>
      <trkpt lat="47.24937" lon="6.09861">
        <ele>568.6</ele>
        <time>2021-04-10T11:23:04Z</time>
      </trkpt>
      <trkpt lat="47.24936" lon="6.09861">
        <ele>568.8</ele>
        <time>2021-04-10T11:23:07Z</time>
      </trkpt>
      <trkpt lat="47.24936" lon="6.09861">
        <ele>568.8</ele>
        <time>2021-04-10T11:23:16Z</time>
      </trkpt>
      <trkpt lat="47.24936" lon="6.09862">
        <ele>569</ele>
        <time>2021-04-10T11:23:47Z</time>
      </trkpt>
      <trkpt lat="47.24935" lon="6.09866">
        <ele>568.8</ele>
        <time>2021-04-10T11:23:49Z</time>
      </trkpt>
      <trkpt lat="47.24933" lon="6.09869">
        <ele>568.8</ele>
        <time>2021-04-10T11:23:50Z</time>
      </trkpt>
      <trkpt lat="47.24927" lon="6.09896">
        <ele>568.4</ele>
        <time>2021-04-10T11:23:56Z</time>
      </trkpt>
      <trkpt lat="47.24917" lon="6.0993">
        <ele>567.8</ele>
        <time>2021-04-10T11:24:02Z</time>
      </trkpt>
      <trkpt lat="47.24907" lon="6.09957">
        <ele>567</ele>
        <time>2021-04-10T11:24:06Z</time>
      </trkpt>
      <trkpt lat="47.24905" lon="6.09963">
        <ele>566.6</ele>
        <time>2021-04-10T11:24:08Z</time>
      </trkpt>
      <trkpt lat="47.24893" lon="6.1">
        <ele>566</ele>
        <time>2021-04-10T11:24:11Z</time>
      </trkpt>
      <trkpt lat="47.24887" lon="6.10021">
        <ele>565.6</ele>
        <time>2021-04-10T11:24:13Z</time>
      </trkpt>
      <trkpt lat="47.24881" lon="6.10043">
        <ele>564.4</ele>
        <time>2021-04-10T11:24:15Z</time>
      </trkpt>
      <trkpt lat="47.24868" lon="6.10086">
        <ele>563.2</ele>
        <time>2021-04-10T11:24:19Z</time>
      </trkpt>
      <trkpt lat="47.24865" lon="6.10096">
        <ele>563</ele>
        <time>2021-04-10T11:24:20Z</time>
      </trkpt>
      <trkpt lat="47.24854" lon="6.10127">
        <ele>562.2</ele>
        <time>2021-04-10T11:24:23Z</time>
      </trkpt>
      <trkpt lat="47.24851" lon="6.10137">
        <ele>562</ele>
        <time>2021-04-10T11:24:24Z</time>
      </trkpt>
      <trkpt lat="47.24844" lon="6.10154">
        <ele>561.2</ele>
        <time>2021-04-10T11:24:26Z</time>
      </trkpt>
      <trkpt lat="47.24841" lon="6.10162">
        <ele>560.8</ele>
        <time>2021-04-10T11:24:27Z</time>
      </trkpt>
      <trkpt lat="47.24841" lon="6.10162">
        <ele>560.4</ele>
        <time>2021-04-10T11:24:28Z</time>
      </trkpt>
      <trkpt lat="47.24837" lon="6.10172">
        <ele>560.2</ele>
        <time>2021-04-10T11:24:29Z</time>
      </trkpt>
      <trkpt lat="47.24836" lon="6.10175">
        <ele>559.6</ele>
        <time>2021-04-10T11:24:30Z</time>
      </trkpt>
      <trkpt lat="47.24836" lon="6.10175">
        <ele>559.4</ele>
        <time>2021-04-10T11:24:31Z</time>
      </trkpt>
      <trkpt lat="47.24836" lon="6.10176">
        <ele>558.4</ele>
        <time>2021-04-10T11:24:32Z</time>
      </trkpt>
      <trkpt lat="47.24836" lon="6.10176">
        <ele>557.8</ele>
        <time>2021-04-10T11:24:34Z</time>
      </trkpt>
      <trkpt lat="47.24836" lon="6.10176">
        <ele>557.4</ele>
        <time>2021-04-10T11:24:37Z</time>
      </trkpt>
      <trkpt lat="47.24836" lon="6.10176">
        <ele>556.6</ele>
        <time>2021-04-10T11:25:16Z</time>
      </trkpt>
      <trkpt lat="47.24835" lon="6.10182">
        <ele>556.4</ele>
        <time>2021-04-10T11:25:26Z</time>
      </trkpt>
      <trkpt lat="47.24834" lon="6.10186">
        <ele>556.4</ele>
        <time>2021-04-10T11:25:27Z</time>
      </trkpt>
      <trkpt lat="47.2483" lon="6.10198">
        <ele>556.4</ele>
        <time>2021-04-10T11:25:29Z</time>
      </trkpt>
      <trkpt lat="47.24825" lon="6.10217">
        <ele>556.4</ele>
        <time>2021-04-10T11:25:32Z</time>
      </trkpt>
      <trkpt lat="47.2482" lon="6.10236">
        <ele>556</ele>
        <time>2021-04-10T11:25:35Z</time>
      </trkpt>
      <trkpt lat="47.24817" lon="6.10249">
        <ele>556</ele>
        <time>2021-04-10T11:25:37Z</time>
      </trkpt>
      <trkpt lat="47.24816" lon="6.10258">
        <ele>555.8</ele>
        <time>2021-04-10T11:25:39Z</time>
      </trkpt>
      <trkpt lat="47.24815" lon="6.10261">
        <ele>555.8</ele>
        <time>2021-04-10T11:25:40Z</time>
      </trkpt>
      <trkpt lat="47.24814" lon="6.10264">
        <ele>555.8</ele>
        <time>2021-04-10T11:25:41Z</time>
      </trkpt>
      <trkpt lat="47.24814" lon="6.10267">
        <ele>555.8</ele>
        <time>2021-04-10T11:25:42Z</time>
      </trkpt>
      <trkpt lat="47.24813" lon="6.1027">
        <ele>555.6</ele>
        <time>2021-04-10T11:25:43Z</time>
      </trkpt>
      <trkpt lat="47.24812" lon="6.10274">
        <ele>555.4</ele>
        <time>2021-04-10T11:25:44Z</time>
      </trkpt>
      <trkpt lat="47.24805" lon="6.10296">
        <ele>554.8</ele>
        <time>2021-04-10T11:25:49Z</time>
      </trkpt>
      <trkpt lat="47.24795" lon="6.10335">
        <ele>554.6</ele>
        <time>2021-04-10T11:25:55Z</time>
      </trkpt>
      <trkpt lat="47.24793" lon="6.1035">
        <ele>554.2</ele>
        <time>2021-04-10T11:25:57Z</time>
      </trkpt>
      <trkpt lat="47.24791" lon="6.10364">
        <ele>554.2</ele>
        <time>2021-04-10T11:25:59Z</time>
      </trkpt>
      <trkpt lat="47.24789" lon="6.10391">
        <ele>553.2</ele>
        <time>2021-04-10T11:26:02Z</time>
      </trkpt>
      <trkpt lat="47.24789" lon="6.10418">
        <ele>552.6</ele>
        <time>2021-04-10T11:26:05Z</time>
      </trkpt>
      <trkpt lat="47.2479" lon="6.10435">
        <ele>552.2</ele>
        <time>2021-04-10T11:26:07Z</time>
      </trkpt>
      <trkpt lat="47.24791" lon="6.10443">
        <ele>551.8</ele>
        <time>2021-04-10T11:26:08Z</time>
      </trkpt>
      <trkpt lat="47.24791" lon="6.1045">
        <ele>551.6</ele>
        <time>2021-04-10T11:26:09Z</time>
      </trkpt>
      <trkpt lat="47.24791" lon="6.10458">
        <ele>551.4</ele>
        <time>2021-04-10T11:26:10Z</time>
      </trkpt>
      <trkpt lat="47.24791" lon="6.10465">
        <ele>551</ele>
        <time>2021-04-10T11:26:11Z</time>
      </trkpt>
      <trkpt lat="47.24792" lon="6.10473">
        <ele>550.8</ele>
        <time>2021-04-10T11:26:12Z</time>
      </trkpt>
      <trkpt lat="47.24792" lon="6.10473">
        <ele>550.2</ele>
        <time>2021-04-10T11:26:13Z</time>
      </trkpt>
      <trkpt lat="47.24793" lon="6.1049">
        <ele>550</ele>
        <time>2021-04-10T11:26:14Z</time>
      </trkpt>
      <trkpt lat="47.24793" lon="6.10499">
        <ele>549.4</ele>
        <time>2021-04-10T11:26:15Z</time>
      </trkpt>
      <trkpt lat="47.24792" lon="6.10526">
        <ele>548</ele>
        <time>2021-04-10T11:26:18Z</time>
      </trkpt>
      <trkpt lat="47.24791" lon="6.10534">
        <ele>547.4</ele>
        <time>2021-04-10T11:26:19Z</time>
      </trkpt>
      <trkpt lat="47.2479" lon="6.10541">
        <ele>547</ele>
        <time>2021-04-10T11:26:20Z</time>
      </trkpt>
      <trkpt lat="47.24788" lon="6.10554">
        <ele>545.8</ele>
        <time>2021-04-10T11:26:22Z</time>
      </trkpt>
      <trkpt lat="47.24786" lon="6.10562">
        <ele>545.4</ele>
        <time>2021-04-10T11:26:23Z</time>
      </trkpt>
      <trkpt lat="47.24784" lon="6.10568">
        <ele>544</ele>
        <time>2021-04-10T11:26:24Z</time>
      </trkpt>
      <trkpt lat="47.24781" lon="6.10575">
        <ele>543.4</ele>
        <time>2021-04-10T11:26:25Z</time>
      </trkpt>
      <trkpt lat="47.24778" lon="6.10581">
        <ele>542.4</ele>
        <time>2021-04-10T11:26:26Z</time>
      </trkpt>
      <trkpt lat="47.24774" lon="6.10586">
        <ele>542</ele>
        <time>2021-04-10T11:26:27Z</time>
      </trkpt>
      <trkpt lat="47.24769" lon="6.1059">
        <ele>541.2</ele>
        <time>2021-04-10T11:26:28Z</time>
      </trkpt>
      <trkpt lat="47.24762" lon="6.10594">
        <ele>540.8</ele>
        <time>2021-04-10T11:26:29Z</time>
      </trkpt>
      <trkpt lat="47.24756" lon="6.10598">
        <ele>540.4</ele>
        <time>2021-04-10T11:26:30Z</time>
      </trkpt>
      <trkpt lat="47.24749" lon="6.10602">
        <ele>540</ele>
        <time>2021-04-10T11:26:31Z</time>
      </trkpt>
      <trkpt lat="47.24735" lon="6.10611">
        <ele>539</ele>
        <time>2021-04-10T11:26:33Z</time>
      </trkpt>
      <trkpt lat="47.24726" lon="6.10617">
        <ele>538.8</ele>
        <time>2021-04-10T11:26:34Z</time>
      </trkpt>
      <trkpt lat="47.24718" lon="6.10622">
        <ele>537.8</ele>
        <time>2021-04-10T11:26:36Z</time>
      </trkpt>
      <trkpt lat="47.24702" lon="6.10633">
        <ele>535.8</ele>
        <time>2021-04-10T11:26:37Z</time>
      </trkpt>
      <trkpt lat="47.24695" lon="6.10637">
        <ele>534.2</ele>
        <time>2021-04-10T11:26:39Z</time>
      </trkpt>
      <trkpt lat="47.24688" lon="6.10647">
        <ele>533.2</ele>
        <time>2021-04-10T11:26:40Z</time>
      </trkpt>
      <trkpt lat="47.24686" lon="6.10652">
        <ele>532.6</ele>
        <time>2021-04-10T11:26:41Z</time>
      </trkpt>
      <trkpt lat="47.24685" lon="6.10657">
        <ele>531.6</ele>
        <time>2021-04-10T11:26:42Z</time>
      </trkpt>
      <trkpt lat="47.24684" lon="6.10663">
        <ele>531.2</ele>
        <time>2021-04-10T11:26:43Z</time>
      </trkpt>
      <trkpt lat="47.24682" lon="6.10669">
        <ele>530.6</ele>
        <time>2021-04-10T11:26:44Z</time>
      </trkpt>
      <trkpt lat="47.24681" lon="6.10675">
        <ele>530.4</ele>
        <time>2021-04-10T11:26:45Z</time>
      </trkpt>
      <trkpt lat="47.24672" lon="6.10706">
        <ele>529.6</ele>
        <time>2021-04-10T11:26:50Z</time>
      </trkpt>
      <trkpt lat="47.2467" lon="6.10716">
        <ele>529.4</ele>
        <time>2021-04-10T11:26:51Z</time>
      </trkpt>
      <trkpt lat="47.2466" lon="6.10753">
        <ele>528.2</ele>
        <time>2021-04-10T11:26:55Z</time>
      </trkpt>
      <trkpt lat="47.24655" lon="6.10769">
        <ele>527</ele>
        <time>2021-04-10T11:26:57Z</time>
      </trkpt>
      <trkpt lat="47.24653" lon="6.10777">
        <ele>526.6</ele>
        <time>2021-04-10T11:26:58Z</time>
      </trkpt>
      <trkpt lat="47.24652" lon="6.10783">
        <ele>525.8</ele>
        <time>2021-04-10T11:26:59Z</time>
      </trkpt>
      <trkpt lat="47.24649" lon="6.10793">
        <ele>525</ele>
        <time>2021-04-10T11:27:00Z</time>
      </trkpt>
      <trkpt lat="47.24648" lon="6.10801">
        <ele>524.4</ele>
        <time>2021-04-10T11:27:01Z</time>
      </trkpt>
      <trkpt lat="47.24646" lon="6.10808">
        <ele>523.4</ele>
        <time>2021-04-10T11:27:02Z</time>
      </trkpt>
      <trkpt lat="47.24645" lon="6.10814">
        <ele>523.2</ele>
        <time>2021-04-10T11:27:03Z</time>
      </trkpt>
      <trkpt lat="47.24644" lon="6.10821">
        <ele>522.6</ele>
        <time>2021-04-10T11:27:04Z</time>
      </trkpt>
      <trkpt lat="47.24642" lon="6.10826">
        <ele>522</ele>
        <time>2021-04-10T11:27:05Z</time>
      </trkpt>
      <trkpt lat="47.24642" lon="6.1083">
        <ele>520</ele>
        <time>2021-04-10T11:27:06Z</time>
      </trkpt>
      <trkpt lat="47.24641" lon="6.10832">
        <ele>519.2</ele>
        <time>2021-04-10T11:27:07Z</time>
      </trkpt>
      <trkpt lat="47.24641" lon="6.10832">
        <ele>517.6</ele>
        <time>2021-04-10T11:27:08Z</time>
      </trkpt>
      <trkpt lat="47.24641" lon="6.10832">
        <ele>516.2</ele>
        <time>2021-04-10T11:27:09Z</time>
      </trkpt>
      <trkpt lat="47.24641" lon="6.10832">
        <ele>514.6</ele>
        <time>2021-04-10T11:27:11Z</time>
      </trkpt>
      <trkpt lat="47.24641" lon="6.10835">
        <ele>513.6</ele>
        <time>2021-04-10T11:27:19Z</time>
      </trkpt>
      <trkpt lat="47.2464" lon="6.10842">
        <ele>513.6</ele>
        <time>2021-04-10T11:27:21Z</time>
      </trkpt>
      <trkpt lat="47.2464" lon="6.10842">
        <ele>513.4</ele>
        <time>2021-04-10T11:27:22Z</time>
      </trkpt>
      <trkpt lat="47.24636" lon="6.10867">
        <ele>513.2</ele>
        <time>2021-04-10T11:27:25Z</time>
      </trkpt>
      <trkpt lat="47.24633" lon="6.10881">
        <ele>512.4</ele>
        <time>2021-04-10T11:27:27Z</time>
      </trkpt>
      <trkpt lat="47.24627" lon="6.1091">
        <ele>511.8</ele>
        <time>2021-04-10T11:27:30Z</time>
      </trkpt>
      <trkpt lat="47.24621" lon="6.10931">
        <ele>511.2</ele>
        <time>2021-04-10T11:27:32Z</time>
      </trkpt>
      <trkpt lat="47.24617" lon="6.10953">
        <ele>510</ele>
        <time>2021-04-10T11:27:34Z</time>
      </trkpt>
      <trkpt lat="47.24615" lon="6.10964">
        <ele>508.4</ele>
        <time>2021-04-10T11:27:35Z</time>
      </trkpt>
      <trkpt lat="47.24612" lon="6.10983">
        <ele>506.2</ele>
        <time>2021-04-10T11:27:37Z</time>
      </trkpt>
      <trkpt lat="47.2461" lon="6.10992">
        <ele>505.4</ele>
        <time>2021-04-10T11:27:38Z</time>
      </trkpt>
      <trkpt lat="47.24609" lon="6.11">
        <ele>505</ele>
        <time>2021-04-10T11:27:39Z</time>
      </trkpt>
      <trkpt lat="47.24608" lon="6.11006">
        <ele>504.4</ele>
        <time>2021-04-10T11:27:40Z</time>
      </trkpt>
      <trkpt lat="47.24608" lon="6.11006">
        <ele>504.2</ele>
        <time>2021-04-10T11:27:41Z</time>
      </trkpt>
      <trkpt lat="47.24606" lon="6.11016">
        <ele>503.8</ele>
        <time>2021-04-10T11:27:42Z</time>
      </trkpt>
      <trkpt lat="47.24606" lon="6.11019">
        <ele>503.4</ele>
        <time>2021-04-10T11:27:43Z</time>
      </trkpt>
      <trkpt lat="47.24605" lon="6.11021">
        <ele>503</ele>
        <time>2021-04-10T11:27:44Z</time>
      </trkpt>
      <trkpt lat="47.24606" lon="6.11023">
        <ele>502.8</ele>
        <time>2021-04-10T11:27:45Z</time>
      </trkpt>
      <trkpt lat="47.24606" lon="6.11027">
        <ele>502.4</ele>
        <time>2021-04-10T11:27:46Z</time>
      </trkpt>
      <trkpt lat="47.24606" lon="6.11034">
        <ele>501.6</ele>
        <time>2021-04-10T11:27:48Z</time>
      </trkpt>
      <trkpt lat="47.24605" lon="6.11039">
        <ele>501</ele>
        <time>2021-04-10T11:27:50Z</time>
      </trkpt>
      <trkpt lat="47.24605" lon="6.11042">
        <ele>500.4</ele>
        <time>2021-04-10T11:27:51Z</time>
      </trkpt>
      <trkpt lat="47.24604" lon="6.11045">
        <ele>500.2</ele>
        <time>2021-04-10T11:27:52Z</time>
      </trkpt>
      <trkpt lat="47.24603" lon="6.11048">
        <ele>500</ele>
        <time>2021-04-10T11:27:53Z</time>
      </trkpt>
      <trkpt lat="47.24602" lon="6.11051">
        <ele>499.8</ele>
        <time>2021-04-10T11:27:54Z</time>
      </trkpt>
      <trkpt lat="47.24601" lon="6.11054">
        <ele>499.4</ele>
        <time>2021-04-10T11:27:55Z</time>
      </trkpt>
      <trkpt lat="47.24598" lon="6.11064">
        <ele>498.2</ele>
        <time>2021-04-10T11:27:58Z</time>
      </trkpt>
      <trkpt lat="47.24596" lon="6.11069">
        <ele>497.4</ele>
        <time>2021-04-10T11:28:00Z</time>
      </trkpt>
      <trkpt lat="47.24596" lon="6.11071">
        <ele>497.2</ele>
        <time>2021-04-10T11:28:01Z</time>
      </trkpt>
      <trkpt lat="47.24596" lon="6.11071">
        <ele>496.6</ele>
        <time>2021-04-10T11:28:02Z</time>
      </trkpt>
      <trkpt lat="47.24596" lon="6.11071">
        <ele>496.4</ele>
        <time>2021-04-10T11:28:03Z</time>
      </trkpt>
      <trkpt lat="47.24596" lon="6.11071">
        <ele>495.6</ele>
        <time>2021-04-10T11:28:04Z</time>
      </trkpt>
      <trkpt lat="47.24596" lon="6.11071">
        <ele>494.4</ele>
        <time>2021-04-10T11:28:07Z</time>
      </trkpt>
      <trkpt lat="47.24596" lon="6.11071">
        <ele>493.4</ele>
        <time>2021-04-10T11:28:18Z</time>
      </trkpt>
      <trkpt lat="47.24596" lon="6.11071">
        <ele>493.2</ele>
        <time>2021-04-10T11:28:20Z</time>
      </trkpt>
      <trkpt lat="47.24595" lon="6.11074">
        <ele>493</ele>
        <time>2021-04-10T11:28:25Z</time>
      </trkpt>
      <trkpt lat="47.24595" lon="6.11078">
        <ele>493</ele>
        <time>2021-04-10T11:28:27Z</time>
      </trkpt>
      <trkpt lat="47.24594" lon="6.11082">
        <ele>493</ele>
        <time>2021-04-10T11:28:29Z</time>
      </trkpt>
      <trkpt lat="47.24593" lon="6.11088">
        <ele>492.4</ele>
        <time>2021-04-10T11:28:31Z</time>
      </trkpt>
      <trkpt lat="47.24592" lon="6.11095">
        <ele>491.8</ele>
        <time>2021-04-10T11:28:33Z</time>
      </trkpt>
      <trkpt lat="47.24591" lon="6.11098">
        <ele>491</ele>
        <time>2021-04-10T11:28:34Z</time>
      </trkpt>
      <trkpt lat="47.2459" lon="6.11104">
        <ele>490</ele>
        <time>2021-04-10T11:28:36Z</time>
      </trkpt>
      <trkpt lat="47.2459" lon="6.11106">
        <ele>489.6</ele>
        <time>2021-04-10T11:28:37Z</time>
      </trkpt>
      <trkpt lat="47.2459" lon="6.11109">
        <ele>488.8</ele>
        <time>2021-04-10T11:28:38Z</time>
      </trkpt>
      <trkpt lat="47.24589" lon="6.11113">
        <ele>488.6</ele>
        <time>2021-04-10T11:28:39Z</time>
      </trkpt>
      <trkpt lat="47.24589" lon="6.11118">
        <ele>487.4</ele>
        <time>2021-04-10T11:28:40Z</time>
      </trkpt>
      <trkpt lat="47.2459" lon="6.11131">
        <ele>485.2</ele>
        <time>2021-04-10T11:28:43Z</time>
      </trkpt>
      <trkpt lat="47.2459" lon="6.1114">
        <ele>483.6</ele>
        <time>2021-04-10T11:28:45Z</time>
      </trkpt>
      <trkpt lat="47.2459" lon="6.11149">
        <ele>482.2</ele>
        <time>2021-04-10T11:28:47Z</time>
      </trkpt>
      <trkpt lat="47.2459" lon="6.11156">
        <ele>481.2</ele>
        <time>2021-04-10T11:28:49Z</time>
      </trkpt>
      <trkpt lat="47.24589" lon="6.11164">
        <ele>479.8</ele>
        <time>2021-04-10T11:28:52Z</time>
      </trkpt>
      <trkpt lat="47.24589" lon="6.11172">
        <ele>479.4</ele>
        <time>2021-04-10T11:28:53Z</time>
      </trkpt>
      <trkpt lat="47.24589" lon="6.11176">
        <ele>479</ele>
        <time>2021-04-10T11:28:54Z</time>
      </trkpt>
      <trkpt lat="47.24589" lon="6.11181">
        <ele>478.4</ele>
        <time>2021-04-10T11:28:55Z</time>
      </trkpt>
      <trkpt lat="47.24589" lon="6.11187">
        <ele>477.8</ele>
        <time>2021-04-10T11:28:56Z</time>
      </trkpt>
      <trkpt lat="47.24588" lon="6.1119">
        <ele>477.6</ele>
        <time>2021-04-10T11:28:57Z</time>
      </trkpt>
      <trkpt lat="47.24586" lon="6.11191">
        <ele>477</ele>
        <time>2021-04-10T11:28:58Z</time>
      </trkpt>
      <trkpt lat="47.24585" lon="6.1119">
        <ele>476.8</ele>
        <time>2021-04-10T11:28:59Z</time>
      </trkpt>
      <trkpt lat="47.24583" lon="6.11189">
        <ele>475.4</ele>
        <time>2021-04-10T11:29:00Z</time>
      </trkpt>
      <trkpt lat="47.24582" lon="6.11187">
        <ele>475</ele>
        <time>2021-04-10T11:29:01Z</time>
      </trkpt>
      <trkpt lat="47.2458" lon="6.11184">
        <ele>474</ele>
        <time>2021-04-10T11:29:02Z</time>
      </trkpt>
      <trkpt lat="47.24578" lon="6.1118">
        <ele>473.6</ele>
        <time>2021-04-10T11:29:03Z</time>
      </trkpt>
      <trkpt lat="47.24576" lon="6.11177">
        <ele>473.4</ele>
        <time>2021-04-10T11:29:04Z</time>
      </trkpt>
      <trkpt lat="47.24573" lon="6.11171">
        <ele>473.2</ele>
        <time>2021-04-10T11:29:05Z</time>
      </trkpt>
      <trkpt lat="47.2457" lon="6.11165">
        <ele>473</ele>
        <time>2021-04-10T11:29:06Z</time>
      </trkpt>
      <trkpt lat="47.24562" lon="6.11153">
        <ele>472.4</ele>
        <time>2021-04-10T11:29:08Z</time>
      </trkpt>
      <trkpt lat="47.24559" lon="6.11148">
        <ele>471.6</ele>
        <time>2021-04-10T11:29:09Z</time>
      </trkpt>
      <trkpt lat="47.24556" lon="6.11144">
        <ele>470.8</ele>
        <time>2021-04-10T11:29:10Z</time>
      </trkpt>
      <trkpt lat="47.24552" lon="6.1114">
        <ele>469.6</ele>
        <time>2021-04-10T11:29:11Z</time>
      </trkpt>
      <trkpt lat="47.2455" lon="6.11137">
        <ele>469</ele>
        <time>2021-04-10T11:29:12Z</time>
      </trkpt>
      <trkpt lat="47.24548" lon="6.11135">
        <ele>468.6</ele>
        <time>2021-04-10T11:29:13Z</time>
      </trkpt>
      <trkpt lat="47.24548" lon="6.11134">
        <ele>468</ele>
        <time>2021-04-10T11:29:14Z</time>
      </trkpt>
      <trkpt lat="47.24548" lon="6.11134">
        <ele>467.6</ele>
        <time>2021-04-10T11:29:15Z</time>
      </trkpt>
      <trkpt lat="47.24548" lon="6.11134">
        <ele>466.6</ele>
        <time>2021-04-10T11:29:22Z</time>
      </trkpt>
      <trkpt lat="47.24548" lon="6.11134">
        <ele>466.6</ele>
        <time>2021-04-10T11:29:30Z</time>
      </trkpt>
      <trkpt lat="47.24548" lon="6.11134">
        <ele>466.4</ele>
        <time>2021-04-10T11:30:00Z</time>
      </trkpt>
      <trkpt lat="47.24547" lon="6.11133">
        <ele>466.8</ele>
        <time>2021-04-10T11:30:23Z</time>
      </trkpt>
      <trkpt lat="47.24546" lon="6.11133">
        <ele>466.8</ele>
        <time>2021-04-10T11:30:24Z</time>
      </trkpt>
      <trkpt lat="47.24546" lon="6.11131">
        <ele>466.6</ele>
        <time>2021-04-10T11:30:25Z</time>
      </trkpt>
      <trkpt lat="47.24544" lon="6.1113">
        <ele>466.6</ele>
        <time>2021-04-10T11:30:27Z</time>
      </trkpt>
      <trkpt lat="47.24543" lon="6.1113">
        <ele>466.4</ele>
        <time>2021-04-10T11:30:28Z</time>
      </trkpt>
      <trkpt lat="47.24541" lon="6.1113">
        <ele>466.2</ele>
        <time>2021-04-10T11:30:29Z</time>
      </trkpt>
      <trkpt lat="47.24538" lon="6.11129">
        <ele>465</ele>
        <time>2021-04-10T11:30:32Z</time>
      </trkpt>
      <trkpt lat="47.24533" lon="6.11129">
        <ele>464.2</ele>
        <time>2021-04-10T11:30:34Z</time>
      </trkpt>
      <trkpt lat="47.2453" lon="6.11128">
        <ele>463.8</ele>
        <time>2021-04-10T11:30:35Z</time>
      </trkpt>
      <trkpt lat="47.24528" lon="6.11126">
        <ele>462.8</ele>
        <time>2021-04-10T11:30:37Z</time>
      </trkpt>
      <trkpt lat="47.24526" lon="6.11125">
        <ele>461.8</ele>
        <time>2021-04-10T11:30:38Z</time>
      </trkpt>
      <trkpt lat="47.24523" lon="6.11126">
        <ele>460.8</ele>
        <time>2021-04-10T11:30:39Z</time>
      </trkpt>
      <trkpt lat="47.24521" lon="6.11126">
        <ele>460</ele>
        <time>2021-04-10T11:30:40Z</time>
      </trkpt>
      <trkpt lat="47.2452" lon="6.11126">
        <ele>459.2</ele>
        <time>2021-04-10T11:30:41Z</time>
      </trkpt>
      <trkpt lat="47.2452" lon="6.11126">
        <ele>458.4</ele>
        <time>2021-04-10T11:30:42Z</time>
      </trkpt>
      <trkpt lat="47.2452" lon="6.11126">
        <ele>457.4</ele>
        <time>2021-04-10T11:30:43Z</time>
      </trkpt>
      <trkpt lat="47.2452" lon="6.11126">
        <ele>456.2</ele>
        <time>2021-04-10T11:30:45Z</time>
      </trkpt>
      <trkpt lat="47.2452" lon="6.11126">
        <ele>455</ele>
        <time>2021-04-10T11:30:48Z</time>
      </trkpt>
      <trkpt lat="47.24519" lon="6.11128">
        <ele>454.4</ele>
        <time>2021-04-10T11:30:54Z</time>
      </trkpt>
      <trkpt lat="47.24519" lon="6.11128">
        <ele>454</ele>
        <time>2021-04-10T11:31:08Z</time>
      </trkpt>
      <trkpt lat="47.24519" lon="6.11128">
        <ele>453.8</ele>
        <time>2021-04-10T11:31:11Z</time>
      </trkpt>
      <trkpt lat="47.24517" lon="6.1114">
        <ele>453.6</ele>
        <time>2021-04-10T11:31:14Z</time>
      </trkpt>
      <trkpt lat="47.24513" lon="6.11154">
        <ele>452.8</ele>
        <time>2021-04-10T11:31:17Z</time>
      </trkpt>
      <trkpt lat="47.24512" lon="6.11159">
        <ele>452.6</ele>
        <time>2021-04-10T11:31:18Z</time>
      </trkpt>
      <trkpt lat="47.2451" lon="6.11168">
        <ele>451.4</ele>
        <time>2021-04-10T11:31:20Z</time>
      </trkpt>
      <trkpt lat="47.24509" lon="6.11173">
        <ele>450.8</ele>
        <time>2021-04-10T11:31:21Z</time>
      </trkpt>
      <trkpt lat="47.24508" lon="6.11176">
        <ele>450.2</ele>
        <time>2021-04-10T11:31:22Z</time>
      </trkpt>
      <trkpt lat="47.24505" lon="6.11181">
        <ele>449</ele>
        <time>2021-04-10T11:31:24Z</time>
      </trkpt>
      <trkpt lat="47.24504" lon="6.11185">
        <ele>448.4</ele>
        <time>2021-04-10T11:31:25Z</time>
      </trkpt>
      <trkpt lat="47.24503" lon="6.11188">
        <ele>448</ele>
        <time>2021-04-10T11:31:26Z</time>
      </trkpt>
      <trkpt lat="47.24502" lon="6.11191">
        <ele>447.8</ele>
        <time>2021-04-10T11:31:27Z</time>
      </trkpt>
      <trkpt lat="47.24497" lon="6.11205">
        <ele>447</ele>
        <time>2021-04-10T11:31:31Z</time>
      </trkpt>
      <trkpt lat="47.24495" lon="6.11209">
        <ele>446.8</ele>
        <time>2021-04-10T11:31:32Z</time>
      </trkpt>
      <trkpt lat="47.24495" lon="6.11221">
        <ele>446.4</ele>
        <time>2021-04-10T11:31:35Z</time>
      </trkpt>
      <trkpt lat="47.24496" lon="6.11227">
        <ele>446.4</ele>
        <time>2021-04-10T11:31:37Z</time>
      </trkpt>
      <trkpt lat="47.24497" lon="6.11229">
        <ele>446.4</ele>
        <time>2021-04-10T11:31:38Z</time>
      </trkpt>
      <trkpt lat="47.24497" lon="6.11231">
        <ele>446.4</ele>
        <time>2021-04-10T11:31:39Z</time>
      </trkpt>
      <trkpt lat="47.24498" lon="6.11231">
        <ele>446.4</ele>
        <time>2021-04-10T11:31:40Z</time>
      </trkpt>
      <trkpt lat="47.24498" lon="6.11231">
        <ele>446.4</ele>
        <time>2021-04-10T11:31:41Z</time>
      </trkpt>
      <trkpt lat="47.24497" lon="6.11231">
        <ele>446.8</ele>
        <time>2021-04-10T11:31:43Z</time>
      </trkpt>
      <trkpt lat="47.24497" lon="6.11231">
        <ele>446.8</ele>
        <time>2021-04-10T11:31:44Z</time>
      </trkpt>
      <trkpt lat="47.24497" lon="6.11231">
        <ele>447.2</ele>
        <time>2021-04-10T11:31:46Z</time>
      </trkpt>
      <trkpt lat="47.24495" lon="6.11229">
        <ele>447.4</ele>
        <time>2021-04-10T11:31:48Z</time>
      </trkpt>
      <trkpt lat="47.24494" lon="6.11226">
        <ele>447.4</ele>
        <time>2021-04-10T11:31:49Z</time>
      </trkpt>
      <trkpt lat="47.24493" lon="6.11223">
        <ele>447.4</ele>
        <time>2021-04-10T11:31:50Z</time>
      </trkpt>
      <trkpt lat="47.24496" lon="6.1121">
        <ele>447.2</ele>
        <time>2021-04-10T11:31:54Z</time>
      </trkpt>
      <trkpt lat="47.24497" lon="6.11202">
        <ele>447</ele>
        <time>2021-04-10T11:31:55Z</time>
      </trkpt>
      <trkpt lat="47.24498" lon="6.11199">
        <ele>446.8</ele>
        <time>2021-04-10T11:31:56Z</time>
      </trkpt>
      <trkpt lat="47.24498" lon="6.11196">
        <ele>446.6</ele>
        <time>2021-04-10T11:31:57Z</time>
      </trkpt>
      <trkpt lat="47.24497" lon="6.11194">
        <ele>446.4</ele>
        <time>2021-04-10T11:31:58Z</time>
      </trkpt>
      <trkpt lat="47.24498" lon="6.11193">
        <ele>446.4</ele>
        <time>2021-04-10T11:31:59Z</time>
      </trkpt>
      <trkpt lat="47.24498" lon="6.11193">
        <ele>446.4</ele>
        <time>2021-04-10T11:32:00Z</time>
      </trkpt>
      <trkpt lat="47.24498" lon="6.11192">
        <ele>446.2</ele>
        <time>2021-04-10T11:32:01Z</time>
      </trkpt>
      <trkpt lat="47.24498" lon="6.11191">
        <ele>446.4</ele>
        <time>2021-04-10T11:32:02Z</time>
      </trkpt>
      <trkpt lat="47.24498" lon="6.11187">
        <ele>446.6</ele>
        <time>2021-04-10T11:32:04Z</time>
      </trkpt>
      <trkpt lat="47.24498" lon="6.11183">
        <ele>447</ele>
        <time>2021-04-10T11:32:06Z</time>
      </trkpt>
      <trkpt lat="47.24497" lon="6.11181">
        <ele>447</ele>
        <time>2021-04-10T11:32:07Z</time>
      </trkpt>
      <trkpt lat="47.24498" lon="6.11179">
        <ele>447</ele>
        <time>2021-04-10T11:32:08Z</time>
      </trkpt>
      <trkpt lat="47.24498" lon="6.11177">
        <ele>447</ele>
        <time>2021-04-10T11:32:09Z</time>
      </trkpt>
      <trkpt lat="47.24498" lon="6.11177">
        <ele>447</ele>
        <time>2021-04-10T11:32:10Z</time>
      </trkpt>
      <trkpt lat="47.24499" lon="6.11173">
        <ele>447</ele>
        <time>2021-04-10T11:32:11Z</time>
      </trkpt>
      <trkpt lat="47.24499" lon="6.11169">
        <ele>447.8</ele>
        <time>2021-04-10T11:32:13Z</time>
      </trkpt>
      <trkpt lat="47.24502" lon="6.11161">
        <ele>448.4</ele>
        <time>2021-04-10T11:32:16Z</time>
      </trkpt>
      <trkpt lat="47.24502" lon="6.11159">
        <ele>448.6</ele>
        <time>2021-04-10T11:32:17Z</time>
      </trkpt>
      <trkpt lat="47.24502" lon="6.11158">
        <ele>448.8</ele>
        <time>2021-04-10T11:32:18Z</time>
      </trkpt>
      <trkpt lat="47.24502" lon="6.11157">
        <ele>449</ele>
        <time>2021-04-10T11:32:19Z</time>
      </trkpt>
      <trkpt lat="47.24502" lon="6.11155">
        <ele>449.2</ele>
        <time>2021-04-10T11:32:20Z</time>
      </trkpt>
      <trkpt lat="47.24501" lon="6.11153">
        <ele>449.6</ele>
        <time>2021-04-10T11:32:21Z</time>
      </trkpt>
      <trkpt lat="47.24501" lon="6.11152">
        <ele>450</ele>
        <time>2021-04-10T11:32:22Z</time>
      </trkpt>
      <trkpt lat="47.245" lon="6.11151">
        <ele>450</ele>
        <time>2021-04-10T11:32:23Z</time>
      </trkpt>
      <trkpt lat="47.24499" lon="6.11149">
        <ele>450.2</ele>
        <time>2021-04-10T11:32:24Z</time>
      </trkpt>
      <trkpt lat="47.24501" lon="6.11147">
        <ele>450.4</ele>
        <time>2021-04-10T11:32:25Z</time>
      </trkpt>
      <trkpt lat="47.24499" lon="6.11145">
        <ele>450.6</ele>
        <time>2021-04-10T11:32:26Z</time>
      </trkpt>
      <trkpt lat="47.24499" lon="6.11144">
        <ele>450.8</ele>
        <time>2021-04-10T11:32:27Z</time>
      </trkpt>
      <trkpt lat="47.245" lon="6.11143">
        <ele>451.2</ele>
        <time>2021-04-10T11:32:28Z</time>
      </trkpt>
      <trkpt lat="47.245" lon="6.11142">
        <ele>451.2</ele>
        <time>2021-04-10T11:32:29Z</time>
      </trkpt>
      <trkpt lat="47.245" lon="6.11141">
        <ele>451.8</ele>
        <time>2021-04-10T11:32:30Z</time>
      </trkpt>
      <trkpt lat="47.245" lon="6.11141">
        <ele>452.2</ele>
        <time>2021-04-10T11:32:31Z</time>
      </trkpt>
      <trkpt lat="47.245" lon="6.11141">
        <ele>452.4</ele>
        <time>2021-04-10T11:32:32Z</time>
      </trkpt>
      <trkpt lat="47.24501" lon="6.1114">
        <ele>452.6</ele>
        <time>2021-04-10T11:32:33Z</time>
      </trkpt>
      <trkpt lat="47.24501" lon="6.11139">
        <ele>452.8</ele>
        <time>2021-04-10T11:32:34Z</time>
      </trkpt>
      <trkpt lat="47.24501" lon="6.11139">
        <ele>453</ele>
        <time>2021-04-10T11:32:35Z</time>
      </trkpt>
      <trkpt lat="47.245" lon="6.11139">
        <ele>453</ele>
        <time>2021-04-10T11:32:36Z</time>
      </trkpt>
      <trkpt lat="47.245" lon="6.11139">
        <ele>453.2</ele>
        <time>2021-04-10T11:32:37Z</time>
      </trkpt>
      <trkpt lat="47.24499" lon="6.11137">
        <ele>453.4</ele>
        <time>2021-04-10T11:32:38Z</time>
      </trkpt>
      <trkpt lat="47.24498" lon="6.11135">
        <ele>453.4</ele>
        <time>2021-04-10T11:32:39Z</time>
      </trkpt>
      <trkpt lat="47.24498" lon="6.11133">
        <ele>453.6</ele>
        <time>2021-04-10T11:32:40Z</time>
      </trkpt>
      <trkpt lat="47.24498" lon="6.1113">
        <ele>453.6</ele>
        <time>2021-04-10T11:32:41Z</time>
      </trkpt>
      <trkpt lat="47.24498" lon="6.11127">
        <ele>453.6</ele>
        <time>2021-04-10T11:32:42Z</time>
      </trkpt>
      <trkpt lat="47.24497" lon="6.11122">
        <ele>453.8</ele>
        <time>2021-04-10T11:32:43Z</time>
      </trkpt>
      <trkpt lat="47.24495" lon="6.11117">
        <ele>453.6</ele>
        <time>2021-04-10T11:32:44Z</time>
      </trkpt>
      <trkpt lat="47.24493" lon="6.11114">
        <ele>453</ele>
        <time>2021-04-10T11:32:45Z</time>
      </trkpt>
      <trkpt lat="47.2449" lon="6.1111">
        <ele>452</ele>
        <time>2021-04-10T11:32:46Z</time>
      </trkpt>
      <trkpt lat="47.24486" lon="6.11102">
        <ele>451.8</ele>
        <time>2021-04-10T11:32:47Z</time>
      </trkpt>
      <trkpt lat="47.24484" lon="6.11096">
        <ele>451</ele>
        <time>2021-04-10T11:32:48Z</time>
      </trkpt>
      <trkpt lat="47.24482" lon="6.1109">
        <ele>450</ele>
        <time>2021-04-10T11:32:49Z</time>
      </trkpt>
      <trkpt lat="47.2448" lon="6.11086">
        <ele>449.2</ele>
        <time>2021-04-10T11:32:50Z</time>
      </trkpt>
      <trkpt lat="47.24477" lon="6.11077">
        <ele>448</ele>
        <time>2021-04-10T11:32:51Z</time>
      </trkpt>
      <trkpt lat="47.24471" lon="6.1107">
        <ele>447.6</ele>
        <time>2021-04-10T11:32:52Z</time>
      </trkpt>
      <trkpt lat="47.24469" lon="6.11063">
        <ele>446.8</ele>
        <time>2021-04-10T11:32:53Z</time>
      </trkpt>
      <trkpt lat="47.24467" lon="6.11058">
        <ele>446.6</ele>
        <time>2021-04-10T11:32:54Z</time>
      </trkpt>
      <trkpt lat="47.24456" lon="6.11046">
        <ele>446</ele>
        <time>2021-04-10T11:32:56Z</time>
      </trkpt>
      <trkpt lat="47.24455" lon="6.11045">
        <ele>445</ele>
        <time>2021-04-10T11:32:57Z</time>
      </trkpt>
      <trkpt lat="47.24452" lon="6.11039">
        <ele>444</ele>
        <time>2021-04-10T11:32:58Z</time>
      </trkpt>
      <trkpt lat="47.24449" lon="6.11033">
        <ele>443.4</ele>
        <time>2021-04-10T11:32:59Z</time>
      </trkpt>
      <trkpt lat="47.24442" lon="6.11025">
        <ele>442.2</ele>
        <time>2021-04-10T11:33:00Z</time>
      </trkpt>
      <trkpt lat="47.24437" lon="6.11019">
        <ele>441.8</ele>
        <time>2021-04-10T11:33:01Z</time>
      </trkpt>
      <trkpt lat="47.24431" lon="6.11013">
        <ele>441</ele>
        <time>2021-04-10T11:33:02Z</time>
      </trkpt>
      <trkpt lat="47.24425" lon="6.11008">
        <ele>440.6</ele>
        <time>2021-04-10T11:33:03Z</time>
      </trkpt>
      <trkpt lat="47.24422" lon="6.11001">
        <ele>440</ele>
        <time>2021-04-10T11:33:04Z</time>
      </trkpt>
      <trkpt lat="47.24418" lon="6.10998">
        <ele>439.6</ele>
        <time>2021-04-10T11:33:05Z</time>
      </trkpt>
      <trkpt lat="47.24414" lon="6.10995">
        <ele>438.4</ele>
        <time>2021-04-10T11:33:06Z</time>
      </trkpt>
      <trkpt lat="47.2441" lon="6.10993">
        <ele>437</ele>
        <time>2021-04-10T11:33:07Z</time>
      </trkpt>
      <trkpt lat="47.24405" lon="6.1099">
        <ele>436.4</ele>
        <time>2021-04-10T11:33:08Z</time>
      </trkpt>
      <trkpt lat="47.24402" lon="6.10989">
        <ele>435.6</ele>
        <time>2021-04-10T11:33:09Z</time>
      </trkpt>
      <trkpt lat="47.24399" lon="6.10989">
        <ele>434.2</ele>
        <time>2021-04-10T11:33:10Z</time>
      </trkpt>
      <trkpt lat="47.24396" lon="6.10989">
        <ele>432.4</ele>
        <time>2021-04-10T11:33:11Z</time>
      </trkpt>
      <trkpt lat="47.24395" lon="6.10988">
        <ele>431.8</ele>
        <time>2021-04-10T11:33:12Z</time>
      </trkpt>
      <trkpt lat="47.24392" lon="6.10986">
        <ele>430.6</ele>
        <time>2021-04-10T11:33:13Z</time>
      </trkpt>
      <trkpt lat="47.24391" lon="6.10983">
        <ele>430.2</ele>
        <time>2021-04-10T11:33:14Z</time>
      </trkpt>
      <trkpt lat="47.2439" lon="6.10982">
        <ele>429.2</ele>
        <time>2021-04-10T11:33:15Z</time>
      </trkpt>
      <trkpt lat="47.2439" lon="6.10982">
        <ele>428.4</ele>
        <time>2021-04-10T11:33:16Z</time>
      </trkpt>
      <trkpt lat="47.2439" lon="6.10982">
        <ele>428</ele>
        <time>2021-04-10T11:33:17Z</time>
      </trkpt>
      <trkpt lat="47.2439" lon="6.10982">
        <ele>426.8</ele>
        <time>2021-04-10T11:33:20Z</time>
      </trkpt>
      <trkpt lat="47.24389" lon="6.10982">
        <ele>426.4</ele>
        <time>2021-04-10T11:33:25Z</time>
      </trkpt>
      <trkpt lat="47.24388" lon="6.10981">
        <ele>426.4</ele>
        <time>2021-04-10T11:33:26Z</time>
      </trkpt>
      <trkpt lat="47.24387" lon="6.1098">
        <ele>426.4</ele>
        <time>2021-04-10T11:33:32Z</time>
      </trkpt>
      <trkpt lat="47.24387" lon="6.1098">
        <ele>425.6</ele>
        <time>2021-04-10T11:33:41Z</time>
      </trkpt>
      <trkpt lat="47.24384" lon="6.10981">
        <ele>425.2</ele>
        <time>2021-04-10T11:34:19Z</time>
      </trkpt>
      <trkpt lat="47.24382" lon="6.10983">
        <ele>425.2</ele>
        <time>2021-04-10T11:34:20Z</time>
      </trkpt>
      <trkpt lat="47.24378" lon="6.10989">
        <ele>425.2</ele>
        <time>2021-04-10T11:34:22Z</time>
      </trkpt>
      <trkpt lat="47.24377" lon="6.10994">
        <ele>424.8</ele>
        <time>2021-04-10T11:34:23Z</time>
      </trkpt>
      <trkpt lat="47.24377" lon="6.10998">
        <ele>425</ele>
        <time>2021-04-10T11:34:24Z</time>
      </trkpt>
      <trkpt lat="47.24378" lon="6.11008">
        <ele>424.4</ele>
        <time>2021-04-10T11:34:26Z</time>
      </trkpt>
      <trkpt lat="47.24379" lon="6.11015">
        <ele>424.2</ele>
        <time>2021-04-10T11:34:27Z</time>
      </trkpt>
      <trkpt lat="47.2438" lon="6.11022">
        <ele>423.8</ele>
        <time>2021-04-10T11:34:28Z</time>
      </trkpt>
      <trkpt lat="47.24383" lon="6.11038">
        <ele>423.2</ele>
        <time>2021-04-10T11:34:30Z</time>
      </trkpt>
      <trkpt lat="47.24384" lon="6.11046">
        <ele>423</ele>
        <time>2021-04-10T11:34:31Z</time>
      </trkpt>
      <trkpt lat="47.24383" lon="6.11071">
        <ele>422</ele>
        <time>2021-04-10T11:34:34Z</time>
      </trkpt>
      <trkpt lat="47.24383" lon="6.11079">
        <ele>420.8</ele>
        <time>2021-04-10T11:34:35Z</time>
      </trkpt>
      <trkpt lat="47.24381" lon="6.11094">
        <ele>419.4</ele>
        <time>2021-04-10T11:34:37Z</time>
      </trkpt>
      <trkpt lat="47.24378" lon="6.11115">
        <ele>418.6</ele>
        <time>2021-04-10T11:34:40Z</time>
      </trkpt>
      <trkpt lat="47.24377" lon="6.11122">
        <ele>418.2</ele>
        <time>2021-04-10T11:34:41Z</time>
      </trkpt>
      <trkpt lat="47.24376" lon="6.11128">
        <ele>418.2</ele>
        <time>2021-04-10T11:34:42Z</time>
      </trkpt>
      <trkpt lat="47.24375" lon="6.11135">
        <ele>417.8</ele>
        <time>2021-04-10T11:34:43Z</time>
      </trkpt>
      <trkpt lat="47.24374" lon="6.11141">
        <ele>417.6</ele>
        <time>2021-04-10T11:34:44Z</time>
      </trkpt>
      <trkpt lat="47.24373" lon="6.11146">
        <ele>417.2</ele>
        <time>2021-04-10T11:34:45Z</time>
      </trkpt>
      <trkpt lat="47.24372" lon="6.11152">
        <ele>417</ele>
        <time>2021-04-10T11:34:46Z</time>
      </trkpt>
      <trkpt lat="47.2437" lon="6.11157">
        <ele>416.8</ele>
        <time>2021-04-10T11:34:47Z</time>
      </trkpt>
      <trkpt lat="47.24368" lon="6.11161">
        <ele>416.2</ele>
        <time>2021-04-10T11:34:48Z</time>
      </trkpt>
      <trkpt lat="47.24366" lon="6.11166">
        <ele>416.2</ele>
        <time>2021-04-10T11:34:49Z</time>
      </trkpt>
      <trkpt lat="47.24363" lon="6.11171">
        <ele>416</ele>
        <time>2021-04-10T11:34:50Z</time>
      </trkpt>
      <trkpt lat="47.2435" lon="6.11186">
        <ele>414.8</ele>
        <time>2021-04-10T11:34:53Z</time>
      </trkpt>
      <trkpt lat="47.24344" lon="6.11193">
        <ele>414.2</ele>
        <time>2021-04-10T11:34:55Z</time>
      </trkpt>
      <trkpt lat="47.24342" lon="6.11197">
        <ele>413.8</ele>
        <time>2021-04-10T11:34:56Z</time>
      </trkpt>
      <trkpt lat="47.2434" lon="6.11201">
        <ele>413.6</ele>
        <time>2021-04-10T11:34:57Z</time>
      </trkpt>
      <trkpt lat="47.24338" lon="6.11204">
        <ele>413.4</ele>
        <time>2021-04-10T11:34:58Z</time>
      </trkpt>
      <trkpt lat="47.24336" lon="6.11206">
        <ele>412.6</ele>
        <time>2021-04-10T11:34:59Z</time>
      </trkpt>
      <trkpt lat="47.24332" lon="6.11209">
        <ele>412.2</ele>
        <time>2021-04-10T11:35:00Z</time>
      </trkpt>
      <trkpt lat="47.24329" lon="6.11211">
        <ele>411.8</ele>
        <time>2021-04-10T11:35:01Z</time>
      </trkpt>
      <trkpt lat="47.24324" lon="6.11215">
        <ele>411.6</ele>
        <time>2021-04-10T11:35:02Z</time>
      </trkpt>
      <trkpt lat="47.24316" lon="6.11222">
        <ele>411.4</ele>
        <time>2021-04-10T11:35:04Z</time>
      </trkpt>
      <trkpt lat="47.24295" lon="6.11237">
        <ele>411.2</ele>
        <time>2021-04-10T11:35:08Z</time>
      </trkpt>
      <trkpt lat="47.24279" lon="6.11248">
        <ele>410.4</ele>
        <time>2021-04-10T11:35:11Z</time>
      </trkpt>
      <trkpt lat="47.24268" lon="6.11256">
        <ele>409.6</ele>
        <time>2021-04-10T11:35:13Z</time>
      </trkpt>
      <trkpt lat="47.24262" lon="6.1126">
        <ele>409.2</ele>
        <time>2021-04-10T11:35:14Z</time>
      </trkpt>
      <trkpt lat="47.24243" lon="6.11272">
        <ele>408</ele>
        <time>2021-04-10T11:35:17Z</time>
      </trkpt>
      <trkpt lat="47.24237" lon="6.11277">
        <ele>407.8</ele>
        <time>2021-04-10T11:35:18Z</time>
      </trkpt>
      <trkpt lat="47.24225" lon="6.11286">
        <ele>407</ele>
        <time>2021-04-10T11:35:20Z</time>
      </trkpt>
      <trkpt lat="47.24213" lon="6.11296">
        <ele>406.8</ele>
        <time>2021-04-10T11:35:23Z</time>
      </trkpt>
      <trkpt lat="47.24209" lon="6.11298">
        <ele>406.6</ele>
        <time>2021-04-10T11:35:24Z</time>
      </trkpt>
      <trkpt lat="47.24206" lon="6.113">
        <ele>406.4</ele>
        <time>2021-04-10T11:35:25Z</time>
      </trkpt>
      <trkpt lat="47.24203" lon="6.11302">
        <ele>406</ele>
        <time>2021-04-10T11:35:26Z</time>
      </trkpt>
      <trkpt lat="47.24202" lon="6.11303">
        <ele>405.8</ele>
        <time>2021-04-10T11:35:27Z</time>
      </trkpt>
      <trkpt lat="47.24201" lon="6.11303">
        <ele>405.4</ele>
        <time>2021-04-10T11:35:28Z</time>
      </trkpt>
      <trkpt lat="47.24201" lon="6.11303">
        <ele>404.8</ele>
        <time>2021-04-10T11:35:30Z</time>
      </trkpt>
      <trkpt lat="47.24204" lon="6.11303">
        <ele>403.8</ele>
        <time>2021-04-10T11:35:34Z</time>
      </trkpt>
      <trkpt lat="47.24204" lon="6.11303">
        <ele>403.6</ele>
        <time>2021-04-10T11:35:35Z</time>
      </trkpt>
      <trkpt lat="47.24206" lon="6.113">
        <ele>403.6</ele>
        <time>2021-04-10T11:35:38Z</time>
      </trkpt>
      <trkpt lat="47.24213" lon="6.11295">
        <ele>403.6</ele>
        <time>2021-04-10T11:35:41Z</time>
      </trkpt>
      <trkpt lat="47.24216" lon="6.11294">
        <ele>403.6</ele>
        <time>2021-04-10T11:35:42Z</time>
      </trkpt>
      <trkpt lat="47.24226" lon="6.11293">
        <ele>403.6</ele>
        <time>2021-04-10T11:35:45Z</time>
      </trkpt>
      <trkpt lat="47.24229" lon="6.11297">
        <ele>403.8</ele>
        <time>2021-04-10T11:35:46Z</time>
      </trkpt>
      <trkpt lat="47.24231" lon="6.11301">
        <ele>403.8</ele>
        <time>2021-04-10T11:35:47Z</time>
      </trkpt>
      <trkpt lat="47.24239" lon="6.11323">
        <ele>403.6</ele>
        <time>2021-04-10T11:35:51Z</time>
      </trkpt>
      <trkpt lat="47.24245" lon="6.1134">
        <ele>403.6</ele>
        <time>2021-04-10T11:35:54Z</time>
      </trkpt>
      <trkpt lat="47.24258" lon="6.11372">
        <ele>403.4</ele>
        <time>2021-04-10T11:36:00Z</time>
      </trkpt>
      <trkpt lat="47.24262" lon="6.11382">
        <ele>403.6</ele>
        <time>2021-04-10T11:36:02Z</time>
      </trkpt>
      <trkpt lat="47.24265" lon="6.11387">
        <ele>403.6</ele>
        <time>2021-04-10T11:36:03Z</time>
      </trkpt>
      <trkpt lat="47.24267" lon="6.11392">
        <ele>403.6</ele>
        <time>2021-04-10T11:36:04Z</time>
      </trkpt>
      <trkpt lat="47.24277" lon="6.11416">
        <ele>403.4</ele>
        <time>2021-04-10T11:36:08Z</time>
      </trkpt>
      <trkpt lat="47.24292" lon="6.11448">
        <ele>403</ele>
        <time>2021-04-10T11:36:13Z</time>
      </trkpt>
      <trkpt lat="47.24295" lon="6.11455">
        <ele>402.6</ele>
        <time>2021-04-10T11:36:14Z</time>
      </trkpt>
      <trkpt lat="47.24302" lon="6.11469">
        <ele>402.4</ele>
        <time>2021-04-10T11:36:16Z</time>
      </trkpt>
      <trkpt lat="47.24326" lon="6.11522">
        <ele>402.6</ele>
        <time>2021-04-10T11:36:24Z</time>
      </trkpt>
      <trkpt lat="47.24331" lon="6.11534">
        <ele>402.6</ele>
        <time>2021-04-10T11:36:26Z</time>
      </trkpt>
      <trkpt lat="47.24334" lon="6.1154">
        <ele>402.6</ele>
        <time>2021-04-10T11:36:27Z</time>
      </trkpt>
      <trkpt lat="47.24336" lon="6.11546">
        <ele>402.6</ele>
        <time>2021-04-10T11:36:28Z</time>
      </trkpt>
      <trkpt lat="47.24339" lon="6.11552">
        <ele>402.6</ele>
        <time>2021-04-10T11:36:29Z</time>
      </trkpt>
      <trkpt lat="47.24341" lon="6.11557">
        <ele>402.6</ele>
        <time>2021-04-10T11:36:30Z</time>
      </trkpt>
      <trkpt lat="47.24344" lon="6.11563">
        <ele>402.4</ele>
        <time>2021-04-10T11:36:31Z</time>
      </trkpt>
      <trkpt lat="47.24346" lon="6.11569">
        <ele>402.2</ele>
        <time>2021-04-10T11:36:32Z</time>
      </trkpt>
      <trkpt lat="47.24348" lon="6.11575">
        <ele>402.2</ele>
        <time>2021-04-10T11:36:33Z</time>
      </trkpt>
      <trkpt lat="47.2435" lon="6.11582">
        <ele>402.2</ele>
        <time>2021-04-10T11:36:34Z</time>
      </trkpt>
      <trkpt lat="47.24352" lon="6.11588">
        <ele>402.2</ele>
        <time>2021-04-10T11:36:35Z</time>
      </trkpt>
      <trkpt lat="47.24359" lon="6.1161">
        <ele>402</ele>
        <time>2021-04-10T11:36:38Z</time>
      </trkpt>
      <trkpt lat="47.24372" lon="6.11648">
        <ele>402</ele>
        <time>2021-04-10T11:36:43Z</time>
      </trkpt>
      <trkpt lat="47.24375" lon="6.11655">
        <ele>402</ele>
        <time>2021-04-10T11:36:44Z</time>
      </trkpt>
      <trkpt lat="47.2438" lon="6.11671">
        <ele>402</ele>
        <time>2021-04-10T11:36:46Z</time>
      </trkpt>
      <trkpt lat="47.24402" lon="6.1172">
        <ele>402.2</ele>
        <time>2021-04-10T11:36:53Z</time>
      </trkpt>
      <trkpt lat="47.2441" lon="6.11733">
        <ele>402.2</ele>
        <time>2021-04-10T11:36:55Z</time>
      </trkpt>
      <trkpt lat="47.24413" lon="6.11737">
        <ele>402.2</ele>
        <time>2021-04-10T11:36:56Z</time>
      </trkpt>
      <trkpt lat="47.24417" lon="6.11743">
        <ele>402.2</ele>
        <time>2021-04-10T11:36:57Z</time>
      </trkpt>
      <trkpt lat="47.2442" lon="6.11748">
        <ele>402.2</ele>
        <time>2021-04-10T11:36:58Z</time>
      </trkpt>
      <trkpt lat="47.24423" lon="6.11753">
        <ele>402.6</ele>
        <time>2021-04-10T11:36:59Z</time>
      </trkpt>
      <trkpt lat="47.24427" lon="6.11758">
        <ele>402.6</ele>
        <time>2021-04-10T11:37:00Z</time>
      </trkpt>
      <trkpt lat="47.2443" lon="6.11761">
        <ele>402.8</ele>
        <time>2021-04-10T11:37:01Z</time>
      </trkpt>
      <trkpt lat="47.24433" lon="6.11765">
        <ele>402.8</ele>
        <time>2021-04-10T11:37:02Z</time>
      </trkpt>
      <trkpt lat="47.24436" lon="6.11769">
        <ele>402.8</ele>
        <time>2021-04-10T11:37:03Z</time>
      </trkpt>
      <trkpt lat="47.24439" lon="6.11772">
        <ele>403</ele>
        <time>2021-04-10T11:37:04Z</time>
      </trkpt>
      <trkpt lat="47.24442" lon="6.11775">
        <ele>403</ele>
        <time>2021-04-10T11:37:05Z</time>
      </trkpt>
      <trkpt lat="47.24445" lon="6.11779">
        <ele>403.2</ele>
        <time>2021-04-10T11:37:06Z</time>
      </trkpt>
      <trkpt lat="47.24459" lon="6.11793">
        <ele>403.2</ele>
        <time>2021-04-10T11:37:10Z</time>
      </trkpt>
      <trkpt lat="47.24467" lon="6.11804">
        <ele>403.4</ele>
        <time>2021-04-10T11:37:13Z</time>
      </trkpt>
      <trkpt lat="47.2447" lon="6.11807">
        <ele>403.4</ele>
        <time>2021-04-10T11:37:14Z</time>
      </trkpt>
      <trkpt lat="47.24479" lon="6.11816">
        <ele>403.4</ele>
        <time>2021-04-10T11:37:17Z</time>
      </trkpt>
      <trkpt lat="47.24481" lon="6.11819">
        <ele>403.4</ele>
        <time>2021-04-10T11:37:18Z</time>
      </trkpt>
      <trkpt lat="47.24483" lon="6.11822">
        <ele>403.4</ele>
        <time>2021-04-10T11:37:19Z</time>
      </trkpt>
      <trkpt lat="47.24484" lon="6.11826">
        <ele>403.6</ele>
        <time>2021-04-10T11:37:20Z</time>
      </trkpt>
      <trkpt lat="47.24485" lon="6.11831">
        <ele>403.6</ele>
        <time>2021-04-10T11:37:21Z</time>
      </trkpt>
      <trkpt lat="47.24484" lon="6.11836">
        <ele>403.8</ele>
        <time>2021-04-10T11:37:22Z</time>
      </trkpt>
      <trkpt lat="47.24483" lon="6.11841">
        <ele>403.8</ele>
        <time>2021-04-10T11:37:23Z</time>
      </trkpt>
      <trkpt lat="47.2448" lon="6.11852">
        <ele>404</ele>
        <time>2021-04-10T11:37:25Z</time>
      </trkpt>
      <trkpt lat="47.2448" lon="6.11856">
        <ele>404</ele>
        <time>2021-04-10T11:37:26Z</time>
      </trkpt>
      <trkpt lat="47.24478" lon="6.11873">
        <ele>404.2</ele>
        <time>2021-04-10T11:37:29Z</time>
      </trkpt>
      <trkpt lat="47.24479" lon="6.11891">
        <ele>404.2</ele>
        <time>2021-04-10T11:37:32Z</time>
      </trkpt>
      <trkpt lat="47.24484" lon="6.11934">
        <ele>404.2</ele>
        <time>2021-04-10T11:37:40Z</time>
      </trkpt>
      <trkpt lat="47.24485" lon="6.11939">
        <ele>404.2</ele>
        <time>2021-04-10T11:37:41Z</time>
      </trkpt>
      <trkpt lat="47.24486" lon="6.11944">
        <ele>404.2</ele>
        <time>2021-04-10T11:37:42Z</time>
      </trkpt>
      <trkpt lat="47.24487" lon="6.1195">
        <ele>404.2</ele>
        <time>2021-04-10T11:37:43Z</time>
      </trkpt>
      <trkpt lat="47.24488" lon="6.11956">
        <ele>404.2</ele>
        <time>2021-04-10T11:37:44Z</time>
      </trkpt>
      <trkpt lat="47.24495" lon="6.11984">
        <ele>404.4</ele>
        <time>2021-04-10T11:37:49Z</time>
      </trkpt>
      <trkpt lat="47.24506" lon="6.12017">
        <ele>404.8</ele>
        <time>2021-04-10T11:37:56Z</time>
      </trkpt>
      <trkpt lat="47.24508" lon="6.12022">
        <ele>404.8</ele>
        <time>2021-04-10T11:37:57Z</time>
      </trkpt>
      <trkpt lat="47.24509" lon="6.12026">
        <ele>404.8</ele>
        <time>2021-04-10T11:37:58Z</time>
      </trkpt>
      <trkpt lat="47.2451" lon="6.12031">
        <ele>405</ele>
        <time>2021-04-10T11:37:59Z</time>
      </trkpt>
      <trkpt lat="47.2451" lon="6.12039">
        <ele>405.2</ele>
        <time>2021-04-10T11:38:01Z</time>
      </trkpt>
      <trkpt lat="47.24508" lon="6.12043">
        <ele>405.4</ele>
        <time>2021-04-10T11:38:02Z</time>
      </trkpt>
      <trkpt lat="47.24506" lon="6.12046">
        <ele>405.4</ele>
        <time>2021-04-10T11:38:03Z</time>
      </trkpt>
      <trkpt lat="47.24503" lon="6.12049">
        <ele>405.4</ele>
        <time>2021-04-10T11:38:04Z</time>
      </trkpt>
      <trkpt lat="47.24499" lon="6.12051">
        <ele>405.4</ele>
        <time>2021-04-10T11:38:05Z</time>
      </trkpt>
      <trkpt lat="47.24491" lon="6.12054">
        <ele>405.6</ele>
        <time>2021-04-10T11:38:07Z</time>
      </trkpt>
      <trkpt lat="47.24486" lon="6.12056">
        <ele>405.6</ele>
        <time>2021-04-10T11:38:08Z</time>
      </trkpt>
      <trkpt lat="47.24481" lon="6.12059">
        <ele>405.6</ele>
        <time>2021-04-10T11:38:09Z</time>
      </trkpt>
      <trkpt lat="47.24471" lon="6.12067">
        <ele>405.4</ele>
        <time>2021-04-10T11:38:11Z</time>
      </trkpt>
      <trkpt lat="47.2446" lon="6.12083">
        <ele>404.6</ele>
        <time>2021-04-10T11:38:14Z</time>
      </trkpt>
      <trkpt lat="47.24453" lon="6.12095">
        <ele>404.2</ele>
        <time>2021-04-10T11:38:16Z</time>
      </trkpt>
      <trkpt lat="47.24434" lon="6.12125">
        <ele>403.4</ele>
        <time>2021-04-10T11:38:21Z</time>
      </trkpt>
      <trkpt lat="47.24431" lon="6.12129">
        <ele>403.4</ele>
        <time>2021-04-10T11:38:22Z</time>
      </trkpt>
      <trkpt lat="47.24428" lon="6.12134">
        <ele>403.2</ele>
        <time>2021-04-10T11:38:23Z</time>
      </trkpt>
      <trkpt lat="47.24424" lon="6.1214">
        <ele>403</ele>
        <time>2021-04-10T11:38:24Z</time>
      </trkpt>
      <trkpt lat="47.2442" lon="6.12146">
        <ele>403</ele>
        <time>2021-04-10T11:38:25Z</time>
      </trkpt>
      <trkpt lat="47.244" lon="6.1218">
        <ele>402.4</ele>
        <time>2021-04-10T11:38:31Z</time>
      </trkpt>
      <trkpt lat="47.24383" lon="6.12213">
        <ele>402</ele>
        <time>2021-04-10T11:38:36Z</time>
      </trkpt>
      <trkpt lat="47.24372" lon="6.12234">
        <ele>402</ele>
        <time>2021-04-10T11:38:39Z</time>
      </trkpt>
      <trkpt lat="47.24352" lon="6.12281">
        <ele>402</ele>
        <time>2021-04-10T11:38:46Z</time>
      </trkpt>
      <trkpt lat="47.2435" lon="6.12287">
        <ele>402</ele>
        <time>2021-04-10T11:38:47Z</time>
      </trkpt>
      <trkpt lat="47.24348" lon="6.12293">
        <ele>402</ele>
        <time>2021-04-10T11:38:48Z</time>
      </trkpt>
      <trkpt lat="47.24346" lon="6.12299">
        <ele>402</ele>
        <time>2021-04-10T11:38:49Z</time>
      </trkpt>
      <trkpt lat="47.24343" lon="6.12304">
        <ele>402.2</ele>
        <time>2021-04-10T11:38:50Z</time>
      </trkpt>
      <trkpt lat="47.24341" lon="6.12309">
        <ele>402.2</ele>
        <time>2021-04-10T11:38:51Z</time>
      </trkpt>
      <trkpt lat="47.24339" lon="6.12314">
        <ele>402.2</ele>
        <time>2021-04-10T11:38:52Z</time>
      </trkpt>
      <trkpt lat="47.24336" lon="6.12318">
        <ele>402.2</ele>
        <time>2021-04-10T11:38:53Z</time>
      </trkpt>
      <trkpt lat="47.24334" lon="6.12322">
        <ele>402.2</ele>
        <time>2021-04-10T11:38:54Z</time>
      </trkpt>
      <trkpt lat="47.24332" lon="6.12326">
        <ele>402.2</ele>
        <time>2021-04-10T11:38:55Z</time>
      </trkpt>
      <trkpt lat="47.24329" lon="6.12329">
        <ele>402.2</ele>
        <time>2021-04-10T11:38:56Z</time>
      </trkpt>
      <trkpt lat="47.24327" lon="6.12331">
        <ele>402.4</ele>
        <time>2021-04-10T11:38:57Z</time>
      </trkpt>
      <trkpt lat="47.24324" lon="6.12333">
        <ele>402.4</ele>
        <time>2021-04-10T11:38:58Z</time>
      </trkpt>
      <trkpt lat="47.24321" lon="6.12335">
        <ele>402.4</ele>
        <time>2021-04-10T11:38:59Z</time>
      </trkpt>
      <trkpt lat="47.24319" lon="6.12337">
        <ele>402.4</ele>
        <time>2021-04-10T11:39:00Z</time>
      </trkpt>
      <trkpt lat="47.24314" lon="6.1234">
        <ele>402.2</ele>
        <time>2021-04-10T11:39:02Z</time>
      </trkpt>
      <trkpt lat="47.24311" lon="6.12341">
        <ele>402.2</ele>
        <time>2021-04-10T11:39:03Z</time>
      </trkpt>
      <trkpt lat="47.24309" lon="6.12343">
        <ele>402.2</ele>
        <time>2021-04-10T11:39:04Z</time>
      </trkpt>
      <trkpt lat="47.24308" lon="6.12345">
        <ele>402.2</ele>
        <time>2021-04-10T11:39:05Z</time>
      </trkpt>
      <trkpt lat="47.24308" lon="6.12347">
        <ele>402</ele>
        <time>2021-04-10T11:39:06Z</time>
      </trkpt>
      <trkpt lat="47.24309" lon="6.12347">
        <ele>402</ele>
        <time>2021-04-10T11:39:07Z</time>
      </trkpt>
      <trkpt lat="47.24311" lon="6.12347">
        <ele>402</ele>
        <time>2021-04-10T11:39:08Z</time>
      </trkpt>
      <trkpt lat="47.24313" lon="6.12345">
        <ele>402</ele>
        <time>2021-04-10T11:39:09Z</time>
      </trkpt>
      <trkpt lat="47.2432" lon="6.12339">
        <ele>401.8</ele>
        <time>2021-04-10T11:39:11Z</time>
      </trkpt>
      <trkpt lat="47.24323" lon="6.12338">
        <ele>401.8</ele>
        <time>2021-04-10T11:39:12Z</time>
      </trkpt>
      <trkpt lat="47.24326" lon="6.12339">
        <ele>401.8</ele>
        <time>2021-04-10T11:39:13Z</time>
      </trkpt>
      <trkpt lat="47.24326" lon="6.12339">
        <ele>401.8</ele>
        <time>2021-04-10T11:39:14Z</time>
      </trkpt>
      <trkpt lat="47.2433" lon="6.12346">
        <ele>401.8</ele>
        <time>2021-04-10T11:39:15Z</time>
      </trkpt>
      <trkpt lat="47.24329" lon="6.12351">
        <ele>402</ele>
        <time>2021-04-10T11:39:16Z</time>
      </trkpt>
      <trkpt lat="47.24327" lon="6.12367">
        <ele>402</ele>
        <time>2021-04-10T11:39:19Z</time>
      </trkpt>
      <trkpt lat="47.24326" lon="6.12373">
        <ele>402</ele>
        <time>2021-04-10T11:39:20Z</time>
      </trkpt>
      <trkpt lat="47.24319" lon="6.12387">
        <ele>402.4</ele>
        <time>2021-04-10T11:39:23Z</time>
      </trkpt>
      <trkpt lat="47.24316" lon="6.12391">
        <ele>402.4</ele>
        <time>2021-04-10T11:39:24Z</time>
      </trkpt>
      <trkpt lat="47.24312" lon="6.12394">
        <ele>402.6</ele>
        <time>2021-04-10T11:39:25Z</time>
      </trkpt>
      <trkpt lat="47.24309" lon="6.12396">
        <ele>402.8</ele>
        <time>2021-04-10T11:39:26Z</time>
      </trkpt>
      <trkpt lat="47.24305" lon="6.12399">
        <ele>403</ele>
        <time>2021-04-10T11:39:27Z</time>
      </trkpt>
      <trkpt lat="47.24293" lon="6.12408">
        <ele>403.2</ele>
        <time>2021-04-10T11:39:30Z</time>
      </trkpt>
      <trkpt lat="47.24289" lon="6.12411">
        <ele>403.2</ele>
        <time>2021-04-10T11:39:31Z</time>
      </trkpt>
      <trkpt lat="47.24282" lon="6.12418">
        <ele>403.4</ele>
        <time>2021-04-10T11:39:33Z</time>
      </trkpt>
      <trkpt lat="47.24272" lon="6.12424">
        <ele>403.4</ele>
        <time>2021-04-10T11:39:35Z</time>
      </trkpt>
      <trkpt lat="47.24268" lon="6.12427">
        <ele>403.6</ele>
        <time>2021-04-10T11:39:36Z</time>
      </trkpt>
      <trkpt lat="47.2425" lon="6.12436">
        <ele>403.6</ele>
        <time>2021-04-10T11:39:40Z</time>
      </trkpt>
      <trkpt lat="47.24241" lon="6.12436">
        <ele>403.6</ele>
        <time>2021-04-10T11:39:42Z</time>
      </trkpt>
      <trkpt lat="47.24238" lon="6.12434">
        <ele>403.6</ele>
        <time>2021-04-10T11:39:43Z</time>
      </trkpt>
      <trkpt lat="47.24234" lon="6.12432">
        <ele>403.6</ele>
        <time>2021-04-10T11:39:44Z</time>
      </trkpt>
      <trkpt lat="47.24229" lon="6.12428">
        <ele>403.4</ele>
        <time>2021-04-10T11:39:45Z</time>
      </trkpt>
      <trkpt lat="47.24225" lon="6.12425">
        <ele>403.4</ele>
        <time>2021-04-10T11:39:46Z</time>
      </trkpt>
      <trkpt lat="47.24221" lon="6.12423">
        <ele>403.2</ele>
        <time>2021-04-10T11:39:47Z</time>
      </trkpt>
      <trkpt lat="47.24214" lon="6.12422">
        <ele>403.2</ele>
        <time>2021-04-10T11:39:49Z</time>
      </trkpt>
      <trkpt lat="47.2421" lon="6.12421">
        <ele>403.2</ele>
        <time>2021-04-10T11:39:50Z</time>
      </trkpt>
      <trkpt lat="47.24207" lon="6.1242">
        <ele>403.2</ele>
        <time>2021-04-10T11:39:51Z</time>
      </trkpt>
      <trkpt lat="47.24204" lon="6.12418">
        <ele>403.2</ele>
        <time>2021-04-10T11:39:52Z</time>
      </trkpt>
      <trkpt lat="47.242" lon="6.12418">
        <ele>403.2</ele>
        <time>2021-04-10T11:39:53Z</time>
      </trkpt>
      <trkpt lat="47.24193" lon="6.12422">
        <ele>403.2</ele>
        <time>2021-04-10T11:39:55Z</time>
      </trkpt>
      <trkpt lat="47.24188" lon="6.12427">
        <ele>403.2</ele>
        <time>2021-04-10T11:39:56Z</time>
      </trkpt>
      <trkpt lat="47.24185" lon="6.1243">
        <ele>403.4</ele>
        <time>2021-04-10T11:39:57Z</time>
      </trkpt>
      <trkpt lat="47.24182" lon="6.12433">
        <ele>403.4</ele>
        <time>2021-04-10T11:39:58Z</time>
      </trkpt>
      <trkpt lat="47.24172" lon="6.12445">
        <ele>403.6</ele>
        <time>2021-04-10T11:40:01Z</time>
      </trkpt>
      <trkpt lat="47.24164" lon="6.12452">
        <ele>403.6</ele>
        <time>2021-04-10T11:40:03Z</time>
      </trkpt>
      <trkpt lat="47.24153" lon="6.12465">
        <ele>403.4</ele>
        <time>2021-04-10T11:40:06Z</time>
      </trkpt>
      <trkpt lat="47.24149" lon="6.1247">
        <ele>403.2</ele>
        <time>2021-04-10T11:40:07Z</time>
      </trkpt>
      <trkpt lat="47.24136" lon="6.12484">
        <ele>402.6</ele>
        <time>2021-04-10T11:40:11Z</time>
      </trkpt>
      <trkpt lat="47.24133" lon="6.12485">
        <ele>402.6</ele>
        <time>2021-04-10T11:40:12Z</time>
      </trkpt>
      <trkpt lat="47.2413" lon="6.12485">
        <ele>402.6</ele>
        <time>2021-04-10T11:40:13Z</time>
      </trkpt>
      <trkpt lat="47.24127" lon="6.12483">
        <ele>402.6</ele>
        <time>2021-04-10T11:40:14Z</time>
      </trkpt>
      <trkpt lat="47.24123" lon="6.12476">
        <ele>402.6</ele>
        <time>2021-04-10T11:40:16Z</time>
      </trkpt>
      <trkpt lat="47.24119" lon="6.12468">
        <ele>402.6</ele>
        <time>2021-04-10T11:40:18Z</time>
      </trkpt>
      <trkpt lat="47.24117" lon="6.12463">
        <ele>402.6</ele>
        <time>2021-04-10T11:40:19Z</time>
      </trkpt>
      <trkpt lat="47.24114" lon="6.12454">
        <ele>402.6</ele>
        <time>2021-04-10T11:40:21Z</time>
      </trkpt>
      <trkpt lat="47.24111" lon="6.12443">
        <ele>402.4</ele>
        <time>2021-04-10T11:40:23Z</time>
      </trkpt>
      <trkpt lat="47.24103" lon="6.12413">
        <ele>402.2</ele>
        <time>2021-04-10T11:40:28Z</time>
      </trkpt>
      <trkpt lat="47.24099" lon="6.12401">
        <ele>401.8</ele>
        <time>2021-04-10T11:40:30Z</time>
      </trkpt>
      <trkpt lat="47.24095" lon="6.12388">
        <ele>401.6</ele>
        <time>2021-04-10T11:40:32Z</time>
      </trkpt>
      <trkpt lat="47.24091" lon="6.12369">
        <ele>400.8</ele>
        <time>2021-04-10T11:40:35Z</time>
      </trkpt>
      <trkpt lat="47.2409" lon="6.12363">
        <ele>400.8</ele>
        <time>2021-04-10T11:40:36Z</time>
      </trkpt>
      <trkpt lat="47.24089" lon="6.12359">
        <ele>400.8</ele>
        <time>2021-04-10T11:40:37Z</time>
      </trkpt>
      <trkpt lat="47.24087" lon="6.12355">
        <ele>400.8</ele>
        <time>2021-04-10T11:40:38Z</time>
      </trkpt>
      <trkpt lat="47.24085" lon="6.12351">
        <ele>400.8</ele>
        <time>2021-04-10T11:40:39Z</time>
      </trkpt>
      <trkpt lat="47.24082" lon="6.12348">
        <ele>400.8</ele>
        <time>2021-04-10T11:40:40Z</time>
      </trkpt>
      <trkpt lat="47.2408" lon="6.12346">
        <ele>400.8</ele>
        <time>2021-04-10T11:40:41Z</time>
      </trkpt>
      <trkpt lat="47.24077" lon="6.12345">
        <ele>401</ele>
        <time>2021-04-10T11:40:42Z</time>
      </trkpt>
      <trkpt lat="47.24074" lon="6.12345">
        <ele>401</ele>
        <time>2021-04-10T11:40:43Z</time>
      </trkpt>
      <trkpt lat="47.24071" lon="6.12346">
        <ele>401.2</ele>
        <time>2021-04-10T11:40:44Z</time>
      </trkpt>
      <trkpt lat="47.24069" lon="6.12346">
        <ele>401.2</ele>
        <time>2021-04-10T11:40:45Z</time>
      </trkpt>
      <trkpt lat="47.24066" lon="6.12345">
        <ele>401.4</ele>
        <time>2021-04-10T11:40:46Z</time>
      </trkpt>
      <trkpt lat="47.24063" lon="6.12343">
        <ele>401.4</ele>
        <time>2021-04-10T11:40:47Z</time>
      </trkpt>
      <trkpt lat="47.24061" lon="6.12342">
        <ele>401.4</ele>
        <time>2021-04-10T11:40:48Z</time>
      </trkpt>
      <trkpt lat="47.24059" lon="6.12341">
        <ele>401.4</ele>
        <time>2021-04-10T11:40:49Z</time>
      </trkpt>
      <trkpt lat="47.24056" lon="6.12338">
        <ele>401.4</ele>
        <time>2021-04-10T11:40:50Z</time>
      </trkpt>
      <trkpt lat="47.24054" lon="6.12337">
        <ele>401.4</ele>
        <time>2021-04-10T11:40:51Z</time>
      </trkpt>
      <trkpt lat="47.24051" lon="6.12335">
        <ele>401.4</ele>
        <time>2021-04-10T11:40:52Z</time>
      </trkpt>
      <trkpt lat="47.24049" lon="6.12334">
        <ele>401.4</ele>
        <time>2021-04-10T11:40:53Z</time>
      </trkpt>
      <trkpt lat="47.24046" lon="6.12333">
        <ele>401.4</ele>
        <time>2021-04-10T11:40:54Z</time>
      </trkpt>
      <trkpt lat="47.24043" lon="6.12333">
        <ele>401.4</ele>
        <time>2021-04-10T11:40:55Z</time>
      </trkpt>
      <trkpt lat="47.2404" lon="6.12334">
        <ele>401.4</ele>
        <time>2021-04-10T11:40:56Z</time>
      </trkpt>
      <trkpt lat="47.24037" lon="6.12336">
        <ele>401.6</ele>
        <time>2021-04-10T11:40:57Z</time>
      </trkpt>
      <trkpt lat="47.24034" lon="6.12339">
        <ele>401.6</ele>
        <time>2021-04-10T11:40:58Z</time>
      </trkpt>
      <trkpt lat="47.24033" lon="6.12342">
        <ele>401.6</ele>
        <time>2021-04-10T11:40:59Z</time>
      </trkpt>
      <trkpt lat="47.24031" lon="6.12345">
        <ele>401.8</ele>
        <time>2021-04-10T11:41:00Z</time>
      </trkpt>
      <trkpt lat="47.24029" lon="6.12348">
        <ele>401.8</ele>
        <time>2021-04-10T11:41:01Z</time>
      </trkpt>
      <trkpt lat="47.24028" lon="6.12352">
        <ele>401.8</ele>
        <time>2021-04-10T11:41:02Z</time>
      </trkpt>
      <trkpt lat="47.24024" lon="6.12357">
        <ele>401.8</ele>
        <time>2021-04-10T11:41:04Z</time>
      </trkpt>
      <trkpt lat="47.24022" lon="6.1236">
        <ele>402</ele>
        <time>2021-04-10T11:41:05Z</time>
      </trkpt>
      <trkpt lat="47.24019" lon="6.12362">
        <ele>401.8</ele>
        <time>2021-04-10T11:41:06Z</time>
      </trkpt>
      <trkpt lat="47.24017" lon="6.12363">
        <ele>401.8</ele>
        <time>2021-04-10T11:41:07Z</time>
      </trkpt>
      <trkpt lat="47.24015" lon="6.12364">
        <ele>401.8</ele>
        <time>2021-04-10T11:41:08Z</time>
      </trkpt>
      <trkpt lat="47.24013" lon="6.12365">
        <ele>401.8</ele>
        <time>2021-04-10T11:41:09Z</time>
      </trkpt>
      <trkpt lat="47.24012" lon="6.12367">
        <ele>401.6</ele>
        <time>2021-04-10T11:41:10Z</time>
      </trkpt>
      <trkpt lat="47.2401" lon="6.12367">
        <ele>401.6</ele>
        <time>2021-04-10T11:41:11Z</time>
      </trkpt>
      <trkpt lat="47.24008" lon="6.12367">
        <ele>401.6</ele>
        <time>2021-04-10T11:41:12Z</time>
      </trkpt>
      <trkpt lat="47.24006" lon="6.12366">
        <ele>401.6</ele>
        <time>2021-04-10T11:41:13Z</time>
      </trkpt>
      <trkpt lat="47.24005" lon="6.12364">
        <ele>401.6</ele>
        <time>2021-04-10T11:41:14Z</time>
      </trkpt>
      <trkpt lat="47.24004" lon="6.12363">
        <ele>401.6</ele>
        <time>2021-04-10T11:41:15Z</time>
      </trkpt>
      <trkpt lat="47.24003" lon="6.12361">
        <ele>401.6</ele>
        <time>2021-04-10T11:41:16Z</time>
      </trkpt>
      <trkpt lat="47.24002" lon="6.12358">
        <ele>401.6</ele>
        <time>2021-04-10T11:41:17Z</time>
      </trkpt>
      <trkpt lat="47.24002" lon="6.12356">
        <ele>401.4</ele>
        <time>2021-04-10T11:41:18Z</time>
      </trkpt>
      <trkpt lat="47.24002" lon="6.12354">
        <ele>401.2</ele>
        <time>2021-04-10T11:41:19Z</time>
      </trkpt>
      <trkpt lat="47.24002" lon="6.12351">
        <ele>401</ele>
        <time>2021-04-10T11:41:20Z</time>
      </trkpt>
      <trkpt lat="47.24002" lon="6.12348">
        <ele>400.8</ele>
        <time>2021-04-10T11:41:21Z</time>
      </trkpt>
      <trkpt lat="47.24004" lon="6.12345">
        <ele>400.8</ele>
        <time>2021-04-10T11:41:22Z</time>
      </trkpt>
      <trkpt lat="47.24005" lon="6.1234">
        <ele>400.8</ele>
        <time>2021-04-10T11:41:23Z</time>
      </trkpt>
      <trkpt lat="47.24006" lon="6.12336">
        <ele>400.8</ele>
        <time>2021-04-10T11:41:24Z</time>
      </trkpt>
      <trkpt lat="47.24007" lon="6.12331">
        <ele>400.6</ele>
        <time>2021-04-10T11:41:25Z</time>
      </trkpt>
      <trkpt lat="47.24009" lon="6.12327">
        <ele>400.6</ele>
        <time>2021-04-10T11:41:26Z</time>
      </trkpt>
      <trkpt lat="47.24016" lon="6.12306">
        <ele>400.6</ele>
        <time>2021-04-10T11:41:30Z</time>
      </trkpt>
      <trkpt lat="47.24018" lon="6.12287">
        <ele>400.6</ele>
        <time>2021-04-10T11:41:33Z</time>
      </trkpt>
      <trkpt lat="47.24018" lon="6.12281">
        <ele>400.6</ele>
        <time>2021-04-10T11:41:34Z</time>
      </trkpt>
      <trkpt lat="47.24017" lon="6.12275">
        <ele>400.4</ele>
        <time>2021-04-10T11:41:35Z</time>
      </trkpt>
      <trkpt lat="47.24016" lon="6.12268">
        <ele>400.4</ele>
        <time>2021-04-10T11:41:36Z</time>
      </trkpt>
      <trkpt lat="47.24014" lon="6.12249">
        <ele>400.2</ele>
        <time>2021-04-10T11:41:39Z</time>
      </trkpt>
      <trkpt lat="47.24012" lon="6.12237">
        <ele>400</ele>
        <time>2021-04-10T11:41:41Z</time>
      </trkpt>
      <trkpt lat="47.24006" lon="6.12229">
        <ele>400</ele>
        <time>2021-04-10T11:41:43Z</time>
      </trkpt>
      <trkpt lat="47.24002" lon="6.12229">
        <ele>400</ele>
        <time>2021-04-10T11:41:44Z</time>
      </trkpt>
      <trkpt lat="47.23998" lon="6.1223">
        <ele>400</ele>
        <time>2021-04-10T11:41:45Z</time>
      </trkpt>
      <trkpt lat="47.23995" lon="6.12233">
        <ele>400</ele>
        <time>2021-04-10T11:41:46Z</time>
      </trkpt>
      <trkpt lat="47.23992" lon="6.12236">
        <ele>400</ele>
        <time>2021-04-10T11:41:47Z</time>
      </trkpt>
      <trkpt lat="47.23989" lon="6.12239">
        <ele>400</ele>
        <time>2021-04-10T11:41:48Z</time>
      </trkpt>
      <trkpt lat="47.23986" lon="6.12242">
        <ele>400</ele>
        <time>2021-04-10T11:41:49Z</time>
      </trkpt>
      <trkpt lat="47.23983" lon="6.12245">
        <ele>400</ele>
        <time>2021-04-10T11:41:50Z</time>
      </trkpt>
      <trkpt lat="47.2398" lon="6.12249">
        <ele>400.2</ele>
        <time>2021-04-10T11:41:51Z</time>
      </trkpt>
      <trkpt lat="47.23977" lon="6.12252">
        <ele>400.2</ele>
        <time>2021-04-10T11:41:52Z</time>
      </trkpt>
      <trkpt lat="47.23974" lon="6.12255">
        <ele>400.2</ele>
        <time>2021-04-10T11:41:53Z</time>
      </trkpt>
      <trkpt lat="47.2397" lon="6.12258">
        <ele>400.2</ele>
        <time>2021-04-10T11:41:54Z</time>
      </trkpt>
      <trkpt lat="47.23967" lon="6.12261">
        <ele>400.2</ele>
        <time>2021-04-10T11:41:55Z</time>
      </trkpt>
      <trkpt lat="47.2394" lon="6.12287">
        <ele>400.4</ele>
        <time>2021-04-10T11:42:04Z</time>
      </trkpt>
      <trkpt lat="47.23937" lon="6.1229">
        <ele>400.4</ele>
        <time>2021-04-10T11:42:05Z</time>
      </trkpt>
      <trkpt lat="47.23933" lon="6.12293">
        <ele>400.4</ele>
        <time>2021-04-10T11:42:06Z</time>
      </trkpt>
      <trkpt lat="47.23931" lon="6.12296">
        <ele>400.6</ele>
        <time>2021-04-10T11:42:07Z</time>
      </trkpt>
      <trkpt lat="47.23929" lon="6.12298">
        <ele>400.6</ele>
        <time>2021-04-10T11:42:08Z</time>
      </trkpt>
      <trkpt lat="47.23926" lon="6.12301">
        <ele>400.6</ele>
        <time>2021-04-10T11:42:09Z</time>
      </trkpt>
      <trkpt lat="47.23923" lon="6.12305">
        <ele>400.6</ele>
        <time>2021-04-10T11:42:10Z</time>
      </trkpt>
      <trkpt lat="47.23921" lon="6.12309">
        <ele>400.8</ele>
        <time>2021-04-10T11:42:11Z</time>
      </trkpt>
      <trkpt lat="47.23921" lon="6.12313">
        <ele>400.8</ele>
        <time>2021-04-10T11:42:12Z</time>
      </trkpt>
      <trkpt lat="47.23922" lon="6.12317">
        <ele>400.8</ele>
        <time>2021-04-10T11:42:13Z</time>
      </trkpt>
      <trkpt lat="47.23923" lon="6.12322">
        <ele>400.8</ele>
        <time>2021-04-10T11:42:14Z</time>
      </trkpt>
      <trkpt lat="47.23924" lon="6.12327">
        <ele>400.8</ele>
        <time>2021-04-10T11:42:15Z</time>
      </trkpt>
      <trkpt lat="47.23926" lon="6.12332">
        <ele>400.8</ele>
        <time>2021-04-10T11:42:16Z</time>
      </trkpt>
      <trkpt lat="47.23927" lon="6.12336">
        <ele>400.8</ele>
        <time>2021-04-10T11:42:17Z</time>
      </trkpt>
      <trkpt lat="47.23927" lon="6.12339">
        <ele>401</ele>
        <time>2021-04-10T11:42:18Z</time>
      </trkpt>
      <trkpt lat="47.23928" lon="6.12344">
        <ele>401</ele>
        <time>2021-04-10T11:42:19Z</time>
      </trkpt>
      <trkpt lat="47.23929" lon="6.12349">
        <ele>401.2</ele>
        <time>2021-04-10T11:42:20Z</time>
      </trkpt>
      <trkpt lat="47.23931" lon="6.12356">
        <ele>401.4</ele>
        <time>2021-04-10T11:42:22Z</time>
      </trkpt>
      <trkpt lat="47.23932" lon="6.12361">
        <ele>401.6</ele>
        <time>2021-04-10T11:42:23Z</time>
      </trkpt>
      <trkpt lat="47.23933" lon="6.12366">
        <ele>401.6</ele>
        <time>2021-04-10T11:42:24Z</time>
      </trkpt>
      <trkpt lat="47.23934" lon="6.1237">
        <ele>401.8</ele>
        <time>2021-04-10T11:42:25Z</time>
      </trkpt>
      <trkpt lat="47.23935" lon="6.12375">
        <ele>401.8</ele>
        <time>2021-04-10T11:42:26Z</time>
      </trkpt>
      <trkpt lat="47.23935" lon="6.12378">
        <ele>402</ele>
        <time>2021-04-10T11:42:27Z</time>
      </trkpt>
      <trkpt lat="47.23942" lon="6.1241">
        <ele>403</ele>
        <time>2021-04-10T11:42:34Z</time>
      </trkpt>
      <trkpt lat="47.23943" lon="6.12415">
        <ele>403.2</ele>
        <time>2021-04-10T11:42:35Z</time>
      </trkpt>
      <trkpt lat="47.23946" lon="6.12433">
        <ele>404</ele>
        <time>2021-04-10T11:42:39Z</time>
      </trkpt>
      <trkpt lat="47.23946" lon="6.12437">
        <ele>404.2</ele>
        <time>2021-04-10T11:42:40Z</time>
      </trkpt>
      <trkpt lat="47.23947" lon="6.12441">
        <ele>404.4</ele>
        <time>2021-04-10T11:42:41Z</time>
      </trkpt>
      <trkpt lat="47.23948" lon="6.12445">
        <ele>404.4</ele>
        <time>2021-04-10T11:42:42Z</time>
      </trkpt>
      <trkpt lat="47.23949" lon="6.1245">
        <ele>404.6</ele>
        <time>2021-04-10T11:42:43Z</time>
      </trkpt>
      <trkpt lat="47.2395" lon="6.12455">
        <ele>404.6</ele>
        <time>2021-04-10T11:42:44Z</time>
      </trkpt>
      <trkpt lat="47.2395" lon="6.12459">
        <ele>404.8</ele>
        <time>2021-04-10T11:42:45Z</time>
      </trkpt>
      <trkpt lat="47.23951" lon="6.12464">
        <ele>404.8</ele>
        <time>2021-04-10T11:42:46Z</time>
      </trkpt>
      <trkpt lat="47.23952" lon="6.12469">
        <ele>405</ele>
        <time>2021-04-10T11:42:47Z</time>
      </trkpt>
      <trkpt lat="47.23953" lon="6.12473">
        <ele>405</ele>
        <time>2021-04-10T11:42:48Z</time>
      </trkpt>
      <trkpt lat="47.23954" lon="6.12478">
        <ele>405</ele>
        <time>2021-04-10T11:42:49Z</time>
      </trkpt>
      <trkpt lat="47.23955" lon="6.12483">
        <ele>405.2</ele>
        <time>2021-04-10T11:42:50Z</time>
      </trkpt>
      <trkpt lat="47.23955" lon="6.12487">
        <ele>405.2</ele>
        <time>2021-04-10T11:42:51Z</time>
      </trkpt>
      <trkpt lat="47.23956" lon="6.12494">
        <ele>405.4</ele>
        <time>2021-04-10T11:42:52Z</time>
      </trkpt>
      <trkpt lat="47.23957" lon="6.12499">
        <ele>405.4</ele>
        <time>2021-04-10T11:42:53Z</time>
      </trkpt>
      <trkpt lat="47.23958" lon="6.12505">
        <ele>405.4</ele>
        <time>2021-04-10T11:42:54Z</time>
      </trkpt>
      <trkpt lat="47.23959" lon="6.1251">
        <ele>405.2</ele>
        <time>2021-04-10T11:42:55Z</time>
      </trkpt>
      <trkpt lat="47.2396" lon="6.12515">
        <ele>405.2</ele>
        <time>2021-04-10T11:42:56Z</time>
      </trkpt>
      <trkpt lat="47.23961" lon="6.12523">
        <ele>405.2</ele>
        <time>2021-04-10T11:42:57Z</time>
      </trkpt>
      <trkpt lat="47.23962" lon="6.12529">
        <ele>405.2</ele>
        <time>2021-04-10T11:42:58Z</time>
      </trkpt>
      <trkpt lat="47.23963" lon="6.12534">
        <ele>405</ele>
        <time>2021-04-10T11:42:59Z</time>
      </trkpt>
      <trkpt lat="47.23964" lon="6.12541">
        <ele>405</ele>
        <time>2021-04-10T11:43:00Z</time>
      </trkpt>
      <trkpt lat="47.23965" lon="6.1255">
        <ele>404.8</ele>
        <time>2021-04-10T11:43:01Z</time>
      </trkpt>
      <trkpt lat="47.23969" lon="6.12577">
        <ele>404.4</ele>
        <time>2021-04-10T11:43:05Z</time>
      </trkpt>
      <trkpt lat="47.2397" lon="6.12586">
        <ele>404.2</ele>
        <time>2021-04-10T11:43:06Z</time>
      </trkpt>
      <trkpt lat="47.23971" lon="6.12593">
        <ele>404</ele>
        <time>2021-04-10T11:43:07Z</time>
      </trkpt>
      <trkpt lat="47.23975" lon="6.12615">
        <ele>403.2</ele>
        <time>2021-04-10T11:43:10Z</time>
      </trkpt>
      <trkpt lat="47.23976" lon="6.12623">
        <ele>403</ele>
        <time>2021-04-10T11:43:11Z</time>
      </trkpt>
      <trkpt lat="47.23973" lon="6.12634">
        <ele>402.8</ele>
        <time>2021-04-10T11:43:13Z</time>
      </trkpt>
      <trkpt lat="47.23969" lon="6.12639">
        <ele>402.8</ele>
        <time>2021-04-10T11:43:14Z</time>
      </trkpt>
      <trkpt lat="47.23965" lon="6.12643">
        <ele>402.8</ele>
        <time>2021-04-10T11:43:15Z</time>
      </trkpt>
      <trkpt lat="47.23962" lon="6.12646">
        <ele>403</ele>
        <time>2021-04-10T11:43:16Z</time>
      </trkpt>
      <trkpt lat="47.23959" lon="6.12649">
        <ele>403.2</ele>
        <time>2021-04-10T11:43:17Z</time>
      </trkpt>
      <trkpt lat="47.23956" lon="6.12651">
        <ele>403.2</ele>
        <time>2021-04-10T11:43:18Z</time>
      </trkpt>
      <trkpt lat="47.23952" lon="6.12654">
        <ele>403.4</ele>
        <time>2021-04-10T11:43:19Z</time>
      </trkpt>
      <trkpt lat="47.23939" lon="6.12668">
        <ele>403.8</ele>
        <time>2021-04-10T11:43:23Z</time>
      </trkpt>
      <trkpt lat="47.23931" lon="6.12675">
        <ele>403.8</ele>
        <time>2021-04-10T11:43:25Z</time>
      </trkpt>
      <trkpt lat="47.23911" lon="6.12694">
        <ele>404.4</ele>
        <time>2021-04-10T11:43:31Z</time>
      </trkpt>
      <trkpt lat="47.23901" lon="6.12704">
        <ele>404.6</ele>
        <time>2021-04-10T11:43:34Z</time>
      </trkpt>
      <trkpt lat="47.23898" lon="6.12707">
        <ele>404.6</ele>
        <time>2021-04-10T11:43:35Z</time>
      </trkpt>
      <trkpt lat="47.23895" lon="6.1271">
        <ele>404.6</ele>
        <time>2021-04-10T11:43:36Z</time>
      </trkpt>
      <trkpt lat="47.23892" lon="6.12712">
        <ele>404.8</ele>
        <time>2021-04-10T11:43:37Z</time>
      </trkpt>
      <trkpt lat="47.23889" lon="6.12716">
        <ele>404.8</ele>
        <time>2021-04-10T11:43:38Z</time>
      </trkpt>
      <trkpt lat="47.23885" lon="6.1272">
        <ele>405</ele>
        <time>2021-04-10T11:43:39Z</time>
      </trkpt>
      <trkpt lat="47.23883" lon="6.12722">
        <ele>405</ele>
        <time>2021-04-10T11:43:40Z</time>
      </trkpt>
      <trkpt lat="47.2388" lon="6.12726">
        <ele>405.2</ele>
        <time>2021-04-10T11:43:41Z</time>
      </trkpt>
      <trkpt lat="47.23877" lon="6.12729">
        <ele>405.2</ele>
        <time>2021-04-10T11:43:42Z</time>
      </trkpt>
      <trkpt lat="47.23868" lon="6.12739">
        <ele>405.4</ele>
        <time>2021-04-10T11:43:45Z</time>
      </trkpt>
      <trkpt lat="47.23852" lon="6.12761">
        <ele>405.6</ele>
        <time>2021-04-10T11:43:51Z</time>
      </trkpt>
      <trkpt lat="47.23832" lon="6.12796">
        <ele>405.8</ele>
        <time>2021-04-10T11:44:00Z</time>
      </trkpt>
      <trkpt lat="47.2383" lon="6.128">
        <ele>406</ele>
        <time>2021-04-10T11:44:01Z</time>
      </trkpt>
      <trkpt lat="47.23828" lon="6.12805">
        <ele>406</ele>
        <time>2021-04-10T11:44:02Z</time>
      </trkpt>
      <trkpt lat="47.23816" lon="6.12842">
        <ele>406</ele>
        <time>2021-04-10T11:44:09Z</time>
      </trkpt>
      <trkpt lat="47.23805" lon="6.12878">
        <ele>405.8</ele>
        <time>2021-04-10T11:44:16Z</time>
      </trkpt>
      <trkpt lat="47.23804" lon="6.12883">
        <ele>405.8</ele>
        <time>2021-04-10T11:44:17Z</time>
      </trkpt>
      <trkpt lat="47.23801" lon="6.12889">
        <ele>405.8</ele>
        <time>2021-04-10T11:44:18Z</time>
      </trkpt>
      <trkpt lat="47.23783" lon="6.12945">
        <ele>406.4</ele>
        <time>2021-04-10T11:44:29Z</time>
      </trkpt>
      <trkpt lat="47.23773" lon="6.12975">
        <ele>406.4</ele>
        <time>2021-04-10T11:44:35Z</time>
      </trkpt>
      <trkpt lat="47.23766" lon="6.12997">
        <ele>406.6</ele>
        <time>2021-04-10T11:44:39Z</time>
      </trkpt>
      <trkpt lat="47.2375" lon="6.13031">
        <ele>407.6</ele>
        <time>2021-04-10T11:44:46Z</time>
      </trkpt>
      <trkpt lat="47.23748" lon="6.13034">
        <ele>407.6</ele>
        <time>2021-04-10T11:44:47Z</time>
      </trkpt>
      <trkpt lat="47.23742" lon="6.13043">
        <ele>408</ele>
        <time>2021-04-10T11:44:49Z</time>
      </trkpt>
      <trkpt lat="47.2374" lon="6.13045">
        <ele>408</ele>
        <time>2021-04-10T11:44:50Z</time>
      </trkpt>
      <trkpt lat="47.23737" lon="6.13049">
        <ele>408.2</ele>
        <time>2021-04-10T11:44:51Z</time>
      </trkpt>
      <trkpt lat="47.23734" lon="6.13052">
        <ele>408.2</ele>
        <time>2021-04-10T11:44:52Z</time>
      </trkpt>
      <trkpt lat="47.23723" lon="6.13064">
        <ele>408.6</ele>
        <time>2021-04-10T11:44:56Z</time>
      </trkpt>
      <trkpt lat="47.23721" lon="6.13067">
        <ele>408.8</ele>
        <time>2021-04-10T11:44:57Z</time>
      </trkpt>
      <trkpt lat="47.23719" lon="6.13069">
        <ele>408.8</ele>
        <time>2021-04-10T11:44:58Z</time>
      </trkpt>
      <trkpt lat="47.23717" lon="6.13072">
        <ele>408.8</ele>
        <time>2021-04-10T11:44:59Z</time>
      </trkpt>
      <trkpt lat="47.23713" lon="6.13077">
        <ele>409.2</ele>
        <time>2021-04-10T11:45:01Z</time>
      </trkpt>
      <trkpt lat="47.23711" lon="6.1308">
        <ele>409.6</ele>
        <time>2021-04-10T11:45:02Z</time>
      </trkpt>
      <trkpt lat="47.23709" lon="6.13084">
        <ele>409.6</ele>
        <time>2021-04-10T11:45:03Z</time>
      </trkpt>
      <trkpt lat="47.23707" lon="6.13087">
        <ele>410</ele>
        <time>2021-04-10T11:45:04Z</time>
      </trkpt>
      <trkpt lat="47.23706" lon="6.1309">
        <ele>410</ele>
        <time>2021-04-10T11:45:05Z</time>
      </trkpt>
      <trkpt lat="47.23704" lon="6.13093">
        <ele>410.2</ele>
        <time>2021-04-10T11:45:06Z</time>
      </trkpt>
      <trkpt lat="47.23702" lon="6.13096">
        <ele>410.4</ele>
        <time>2021-04-10T11:45:07Z</time>
      </trkpt>
      <trkpt lat="47.237" lon="6.13099">
        <ele>410.6</ele>
        <time>2021-04-10T11:45:08Z</time>
      </trkpt>
      <trkpt lat="47.23698" lon="6.13103">
        <ele>410.6</ele>
        <time>2021-04-10T11:45:09Z</time>
      </trkpt>
      <trkpt lat="47.23696" lon="6.13106">
        <ele>410.8</ele>
        <time>2021-04-10T11:45:10Z</time>
      </trkpt>
      <trkpt lat="47.23695" lon="6.13108">
        <ele>411.2</ele>
        <time>2021-04-10T11:45:11Z</time>
      </trkpt>
      <trkpt lat="47.23693" lon="6.13112">
        <ele>411.4</ele>
        <time>2021-04-10T11:45:12Z</time>
      </trkpt>
      <trkpt lat="47.23691" lon="6.13115">
        <ele>411.8</ele>
        <time>2021-04-10T11:45:13Z</time>
      </trkpt>
      <trkpt lat="47.23689" lon="6.13118">
        <ele>412</ele>
        <time>2021-04-10T11:45:14Z</time>
      </trkpt>
      <trkpt lat="47.23688" lon="6.1312">
        <ele>412.2</ele>
        <time>2021-04-10T11:45:15Z</time>
      </trkpt>
      <trkpt lat="47.23686" lon="6.13123">
        <ele>412.2</ele>
        <time>2021-04-10T11:45:16Z</time>
      </trkpt>
      <trkpt lat="47.23684" lon="6.13127">
        <ele>412.4</ele>
        <time>2021-04-10T11:45:17Z</time>
      </trkpt>
      <trkpt lat="47.23682" lon="6.1313">
        <ele>412.6</ele>
        <time>2021-04-10T11:45:18Z</time>
      </trkpt>
      <trkpt lat="47.23681" lon="6.13132">
        <ele>412.6</ele>
        <time>2021-04-10T11:45:19Z</time>
      </trkpt>
      <trkpt lat="47.23679" lon="6.13134">
        <ele>412.8</ele>
        <time>2021-04-10T11:45:20Z</time>
      </trkpt>
      <trkpt lat="47.23678" lon="6.13137">
        <ele>413</ele>
        <time>2021-04-10T11:45:21Z</time>
      </trkpt>
      <trkpt lat="47.23676" lon="6.1314">
        <ele>413.4</ele>
        <time>2021-04-10T11:45:22Z</time>
      </trkpt>
      <trkpt lat="47.23674" lon="6.13143">
        <ele>413.2</ele>
        <time>2021-04-10T11:45:23Z</time>
      </trkpt>
      <trkpt lat="47.23673" lon="6.13146">
        <ele>413.6</ele>
        <time>2021-04-10T11:45:24Z</time>
      </trkpt>
      <trkpt lat="47.23672" lon="6.13149">
        <ele>413.8</ele>
        <time>2021-04-10T11:45:25Z</time>
      </trkpt>
      <trkpt lat="47.2367" lon="6.13153">
        <ele>414</ele>
        <time>2021-04-10T11:45:26Z</time>
      </trkpt>
      <trkpt lat="47.23668" lon="6.13156">
        <ele>414.2</ele>
        <time>2021-04-10T11:45:27Z</time>
      </trkpt>
      <trkpt lat="47.23666" lon="6.13159">
        <ele>414.4</ele>
        <time>2021-04-10T11:45:28Z</time>
      </trkpt>
      <trkpt lat="47.23664" lon="6.13162">
        <ele>414.6</ele>
        <time>2021-04-10T11:45:29Z</time>
      </trkpt>
      <trkpt lat="47.23663" lon="6.13166">
        <ele>414.8</ele>
        <time>2021-04-10T11:45:30Z</time>
      </trkpt>
      <trkpt lat="47.23661" lon="6.1317">
        <ele>415</ele>
        <time>2021-04-10T11:45:31Z</time>
      </trkpt>
      <trkpt lat="47.23659" lon="6.13173">
        <ele>415</ele>
        <time>2021-04-10T11:45:32Z</time>
      </trkpt>
      <trkpt lat="47.23657" lon="6.13176">
        <ele>415</ele>
        <time>2021-04-10T11:45:33Z</time>
      </trkpt>
      <trkpt lat="47.23656" lon="6.13179">
        <ele>415.2</ele>
        <time>2021-04-10T11:45:34Z</time>
      </trkpt>
      <trkpt lat="47.23654" lon="6.13183">
        <ele>415.2</ele>
        <time>2021-04-10T11:45:35Z</time>
      </trkpt>
      <trkpt lat="47.23652" lon="6.13186">
        <ele>415.2</ele>
        <time>2021-04-10T11:45:36Z</time>
      </trkpt>
      <trkpt lat="47.2365" lon="6.13189">
        <ele>415.2</ele>
        <time>2021-04-10T11:45:37Z</time>
      </trkpt>
      <trkpt lat="47.23648" lon="6.13192">
        <ele>415.4</ele>
        <time>2021-04-10T11:45:38Z</time>
      </trkpt>
      <trkpt lat="47.23646" lon="6.13195">
        <ele>415.4</ele>
        <time>2021-04-10T11:45:39Z</time>
      </trkpt>
      <trkpt lat="47.23645" lon="6.13199">
        <ele>415.4</ele>
        <time>2021-04-10T11:45:40Z</time>
      </trkpt>
      <trkpt lat="47.23643" lon="6.13203">
        <ele>415.4</ele>
        <time>2021-04-10T11:45:41Z</time>
      </trkpt>
      <trkpt lat="47.23641" lon="6.13207">
        <ele>415.4</ele>
        <time>2021-04-10T11:45:42Z</time>
      </trkpt>
      <trkpt lat="47.23639" lon="6.1321">
        <ele>415.4</ele>
        <time>2021-04-10T11:45:43Z</time>
      </trkpt>
      <trkpt lat="47.23636" lon="6.13214">
        <ele>415.2</ele>
        <time>2021-04-10T11:45:44Z</time>
      </trkpt>
      <trkpt lat="47.23634" lon="6.13219">
        <ele>415.2</ele>
        <time>2021-04-10T11:45:45Z</time>
      </trkpt>
      <trkpt lat="47.23632" lon="6.13225">
        <ele>415.2</ele>
        <time>2021-04-10T11:45:46Z</time>
      </trkpt>
      <trkpt lat="47.2363" lon="6.13229">
        <ele>415.2</ele>
        <time>2021-04-10T11:45:47Z</time>
      </trkpt>
      <trkpt lat="47.23628" lon="6.13233">
        <ele>415.2</ele>
        <time>2021-04-10T11:45:48Z</time>
      </trkpt>
      <trkpt lat="47.2362" lon="6.13248">
        <ele>415</ele>
        <time>2021-04-10T11:45:51Z</time>
      </trkpt>
      <trkpt lat="47.23604" lon="6.13281">
        <ele>414.4</ele>
        <time>2021-04-10T11:45:57Z</time>
      </trkpt>
      <trkpt lat="47.23595" lon="6.13301">
        <ele>413.8</ele>
        <time>2021-04-10T11:46:00Z</time>
      </trkpt>
      <trkpt lat="47.23593" lon="6.13307">
        <ele>413.6</ele>
        <time>2021-04-10T11:46:01Z</time>
      </trkpt>
      <trkpt lat="47.23591" lon="6.13313">
        <ele>413.4</ele>
        <time>2021-04-10T11:46:02Z</time>
      </trkpt>
      <trkpt lat="47.23589" lon="6.13318">
        <ele>413.2</ele>
        <time>2021-04-10T11:46:03Z</time>
      </trkpt>
      <trkpt lat="47.23583" lon="6.13326">
        <ele>412.6</ele>
        <time>2021-04-10T11:46:05Z</time>
      </trkpt>
      <trkpt lat="47.23581" lon="6.13328">
        <ele>412.6</ele>
        <time>2021-04-10T11:46:06Z</time>
      </trkpt>
      <trkpt lat="47.23579" lon="6.13331">
        <ele>412.2</ele>
        <time>2021-04-10T11:46:07Z</time>
      </trkpt>
      <trkpt lat="47.23577" lon="6.13334">
        <ele>412</ele>
        <time>2021-04-10T11:46:08Z</time>
      </trkpt>
      <trkpt lat="47.23575" lon="6.13337">
        <ele>411.8</ele>
        <time>2021-04-10T11:46:09Z</time>
      </trkpt>
      <trkpt lat="47.23574" lon="6.1334">
        <ele>411.6</ele>
        <time>2021-04-10T11:46:10Z</time>
      </trkpt>
      <trkpt lat="47.2357" lon="6.13345">
        <ele>411.6</ele>
        <time>2021-04-10T11:46:12Z</time>
      </trkpt>
      <trkpt lat="47.23565" lon="6.13351">
        <ele>411.4</ele>
        <time>2021-04-10T11:46:14Z</time>
      </trkpt>
      <trkpt lat="47.23564" lon="6.13353">
        <ele>411.4</ele>
        <time>2021-04-10T11:46:15Z</time>
      </trkpt>
      <trkpt lat="47.23562" lon="6.13355">
        <ele>411.4</ele>
        <time>2021-04-10T11:46:16Z</time>
      </trkpt>
      <trkpt lat="47.2356" lon="6.13358">
        <ele>411.4</ele>
        <time>2021-04-10T11:46:17Z</time>
      </trkpt>
      <trkpt lat="47.23558" lon="6.1336">
        <ele>411.6</ele>
        <time>2021-04-10T11:46:18Z</time>
      </trkpt>
      <trkpt lat="47.23557" lon="6.13362">
        <ele>411.6</ele>
        <time>2021-04-10T11:46:19Z</time>
      </trkpt>
      <trkpt lat="47.23555" lon="6.13364">
        <ele>411.8</ele>
        <time>2021-04-10T11:46:20Z</time>
      </trkpt>
      <trkpt lat="47.23553" lon="6.13366">
        <ele>412</ele>
        <time>2021-04-10T11:46:21Z</time>
      </trkpt>
      <trkpt lat="47.23549" lon="6.13371">
        <ele>412.2</ele>
        <time>2021-04-10T11:46:23Z</time>
      </trkpt>
      <trkpt lat="47.23548" lon="6.13372">
        <ele>412.4</ele>
        <time>2021-04-10T11:46:24Z</time>
      </trkpt>
      <trkpt lat="47.23546" lon="6.13375">
        <ele>412.6</ele>
        <time>2021-04-10T11:46:25Z</time>
      </trkpt>
      <trkpt lat="47.23544" lon="6.13377">
        <ele>412.8</ele>
        <time>2021-04-10T11:46:26Z</time>
      </trkpt>
      <trkpt lat="47.23538" lon="6.13383">
        <ele>413.2</ele>
        <time>2021-04-10T11:46:29Z</time>
      </trkpt>
      <trkpt lat="47.23537" lon="6.13385">
        <ele>413.4</ele>
        <time>2021-04-10T11:46:30Z</time>
      </trkpt>
      <trkpt lat="47.23535" lon="6.13387">
        <ele>413.4</ele>
        <time>2021-04-10T11:46:31Z</time>
      </trkpt>
      <trkpt lat="47.23533" lon="6.13389">
        <ele>413.6</ele>
        <time>2021-04-10T11:46:32Z</time>
      </trkpt>
      <trkpt lat="47.23532" lon="6.13391">
        <ele>413.8</ele>
        <time>2021-04-10T11:46:33Z</time>
      </trkpt>
      <trkpt lat="47.23528" lon="6.13395">
        <ele>414</ele>
        <time>2021-04-10T11:46:35Z</time>
      </trkpt>
      <trkpt lat="47.23527" lon="6.13396">
        <ele>414.2</ele>
        <time>2021-04-10T11:46:36Z</time>
      </trkpt>
      <trkpt lat="47.23525" lon="6.13398">
        <ele>414.4</ele>
        <time>2021-04-10T11:46:37Z</time>
      </trkpt>
      <trkpt lat="47.23523" lon="6.13401">
        <ele>414.4</ele>
        <time>2021-04-10T11:46:38Z</time>
      </trkpt>
      <trkpt lat="47.23522" lon="6.13402">
        <ele>414.6</ele>
        <time>2021-04-10T11:46:39Z</time>
      </trkpt>
      <trkpt lat="47.2352" lon="6.13404">
        <ele>414.8</ele>
        <time>2021-04-10T11:46:40Z</time>
      </trkpt>
      <trkpt lat="47.23519" lon="6.13406">
        <ele>415</ele>
        <time>2021-04-10T11:46:41Z</time>
      </trkpt>
      <trkpt lat="47.23518" lon="6.13408">
        <ele>415.2</ele>
        <time>2021-04-10T11:46:42Z</time>
      </trkpt>
      <trkpt lat="47.23517" lon="6.1341">
        <ele>415.4</ele>
        <time>2021-04-10T11:46:43Z</time>
      </trkpt>
      <trkpt lat="47.23516" lon="6.13412">
        <ele>415.6</ele>
        <time>2021-04-10T11:46:44Z</time>
      </trkpt>
      <trkpt lat="47.23514" lon="6.13414">
        <ele>415.6</ele>
        <time>2021-04-10T11:46:45Z</time>
      </trkpt>
      <trkpt lat="47.23513" lon="6.13416">
        <ele>415.8</ele>
        <time>2021-04-10T11:46:46Z</time>
      </trkpt>
      <trkpt lat="47.23512" lon="6.13418">
        <ele>416</ele>
        <time>2021-04-10T11:46:47Z</time>
      </trkpt>
      <trkpt lat="47.23511" lon="6.13419">
        <ele>416.2</ele>
        <time>2021-04-10T11:46:48Z</time>
      </trkpt>
      <trkpt lat="47.2351" lon="6.1342">
        <ele>416.2</ele>
        <time>2021-04-10T11:46:49Z</time>
      </trkpt>
      <trkpt lat="47.23508" lon="6.13422">
        <ele>416.4</ele>
        <time>2021-04-10T11:46:50Z</time>
      </trkpt>
      <trkpt lat="47.23507" lon="6.13424">
        <ele>416.4</ele>
        <time>2021-04-10T11:46:51Z</time>
      </trkpt>
      <trkpt lat="47.23506" lon="6.13426">
        <ele>416.6</ele>
        <time>2021-04-10T11:46:52Z</time>
      </trkpt>
      <trkpt lat="47.23504" lon="6.13429">
        <ele>416.8</ele>
        <time>2021-04-10T11:46:53Z</time>
      </trkpt>
      <trkpt lat="47.23502" lon="6.13431">
        <ele>416.8</ele>
        <time>2021-04-10T11:46:54Z</time>
      </trkpt>
      <trkpt lat="47.235" lon="6.13433">
        <ele>417</ele>
        <time>2021-04-10T11:46:55Z</time>
      </trkpt>
      <trkpt lat="47.23499" lon="6.13435">
        <ele>417.2</ele>
        <time>2021-04-10T11:46:56Z</time>
      </trkpt>
      <trkpt lat="47.23497" lon="6.13437">
        <ele>417.4</ele>
        <time>2021-04-10T11:46:57Z</time>
      </trkpt>
      <trkpt lat="47.23495" lon="6.13439">
        <ele>417.4</ele>
        <time>2021-04-10T11:46:58Z</time>
      </trkpt>
      <trkpt lat="47.23494" lon="6.13441">
        <ele>417.6</ele>
        <time>2021-04-10T11:46:59Z</time>
      </trkpt>
      <trkpt lat="47.23492" lon="6.13443">
        <ele>417.8</ele>
        <time>2021-04-10T11:47:00Z</time>
      </trkpt>
      <trkpt lat="47.2349" lon="6.13445">
        <ele>417.8</ele>
        <time>2021-04-10T11:47:01Z</time>
      </trkpt>
      <trkpt lat="47.23488" lon="6.13447">
        <ele>418</ele>
        <time>2021-04-10T11:47:02Z</time>
      </trkpt>
      <trkpt lat="47.23487" lon="6.13449">
        <ele>418.2</ele>
        <time>2021-04-10T11:47:03Z</time>
      </trkpt>
      <trkpt lat="47.23485" lon="6.13451">
        <ele>418.4</ele>
        <time>2021-04-10T11:47:04Z</time>
      </trkpt>
      <trkpt lat="47.23483" lon="6.13453">
        <ele>418.6</ele>
        <time>2021-04-10T11:47:05Z</time>
      </trkpt>
      <trkpt lat="47.23481" lon="6.13455">
        <ele>418.8</ele>
        <time>2021-04-10T11:47:06Z</time>
      </trkpt>
      <trkpt lat="47.2348" lon="6.13457">
        <ele>419</ele>
        <time>2021-04-10T11:47:07Z</time>
      </trkpt>
      <trkpt lat="47.23478" lon="6.13459">
        <ele>419</ele>
        <time>2021-04-10T11:47:08Z</time>
      </trkpt>
      <trkpt lat="47.23477" lon="6.13461">
        <ele>419.2</ele>
        <time>2021-04-10T11:47:09Z</time>
      </trkpt>
      <trkpt lat="47.23475" lon="6.13464">
        <ele>419.2</ele>
        <time>2021-04-10T11:47:10Z</time>
      </trkpt>
      <trkpt lat="47.23474" lon="6.13466">
        <ele>419.2</ele>
        <time>2021-04-10T11:47:11Z</time>
      </trkpt>
      <trkpt lat="47.23472" lon="6.13468">
        <ele>419.4</ele>
        <time>2021-04-10T11:47:12Z</time>
      </trkpt>
      <trkpt lat="47.2347" lon="6.13471">
        <ele>419.8</ele>
        <time>2021-04-10T11:47:13Z</time>
      </trkpt>
      <trkpt lat="47.23468" lon="6.13473">
        <ele>419.8</ele>
        <time>2021-04-10T11:47:14Z</time>
      </trkpt>
      <trkpt lat="47.23467" lon="6.13475">
        <ele>420.2</ele>
        <time>2021-04-10T11:47:15Z</time>
      </trkpt>
      <trkpt lat="47.23465" lon="6.13477">
        <ele>420.2</ele>
        <time>2021-04-10T11:47:16Z</time>
      </trkpt>
      <trkpt lat="47.23463" lon="6.1348">
        <ele>420.4</ele>
        <time>2021-04-10T11:47:17Z</time>
      </trkpt>
      <trkpt lat="47.23461" lon="6.13482">
        <ele>420.4</ele>
        <time>2021-04-10T11:47:18Z</time>
      </trkpt>
      <trkpt lat="47.23459" lon="6.13484">
        <ele>420.4</ele>
        <time>2021-04-10T11:47:19Z</time>
      </trkpt>
      <trkpt lat="47.23456" lon="6.13487">
        <ele>420.4</ele>
        <time>2021-04-10T11:47:20Z</time>
      </trkpt>
      <trkpt lat="47.23454" lon="6.13489">
        <ele>420.6</ele>
        <time>2021-04-10T11:47:21Z</time>
      </trkpt>
      <trkpt lat="47.23452" lon="6.13492">
        <ele>420.8</ele>
        <time>2021-04-10T11:47:22Z</time>
      </trkpt>
      <trkpt lat="47.2345" lon="6.13494">
        <ele>420.8</ele>
        <time>2021-04-10T11:47:23Z</time>
      </trkpt>
      <trkpt lat="47.23448" lon="6.13497">
        <ele>420.8</ele>
        <time>2021-04-10T11:47:24Z</time>
      </trkpt>
      <trkpt lat="47.23446" lon="6.13499">
        <ele>420.8</ele>
        <time>2021-04-10T11:47:25Z</time>
      </trkpt>
      <trkpt lat="47.23444" lon="6.13502">
        <ele>421</ele>
        <time>2021-04-10T11:47:26Z</time>
      </trkpt>
      <trkpt lat="47.23442" lon="6.13504">
        <ele>421</ele>
        <time>2021-04-10T11:47:27Z</time>
      </trkpt>
      <trkpt lat="47.2344" lon="6.13507">
        <ele>421</ele>
        <time>2021-04-10T11:47:28Z</time>
      </trkpt>
      <trkpt lat="47.23438" lon="6.1351">
        <ele>421</ele>
        <time>2021-04-10T11:47:29Z</time>
      </trkpt>
      <trkpt lat="47.23436" lon="6.13512">
        <ele>421</ele>
        <time>2021-04-10T11:47:30Z</time>
      </trkpt>
      <trkpt lat="47.23434" lon="6.13514">
        <ele>421</ele>
        <time>2021-04-10T11:47:31Z</time>
      </trkpt>
      <trkpt lat="47.23433" lon="6.13516">
        <ele>421</ele>
        <time>2021-04-10T11:47:32Z</time>
      </trkpt>
      <trkpt lat="47.2343" lon="6.13519">
        <ele>421.2</ele>
        <time>2021-04-10T11:47:33Z</time>
      </trkpt>
      <trkpt lat="47.23428" lon="6.13521">
        <ele>421.2</ele>
        <time>2021-04-10T11:47:34Z</time>
      </trkpt>
      <trkpt lat="47.23426" lon="6.13524">
        <ele>421.4</ele>
        <time>2021-04-10T11:47:35Z</time>
      </trkpt>
      <trkpt lat="47.23424" lon="6.13526">
        <ele>421.4</ele>
        <time>2021-04-10T11:47:36Z</time>
      </trkpt>
      <trkpt lat="47.23422" lon="6.13527">
        <ele>421.4</ele>
        <time>2021-04-10T11:47:37Z</time>
      </trkpt>
      <trkpt lat="47.2342" lon="6.1353">
        <ele>421.6</ele>
        <time>2021-04-10T11:47:38Z</time>
      </trkpt>
      <trkpt lat="47.23418" lon="6.13532">
        <ele>421.6</ele>
        <time>2021-04-10T11:47:39Z</time>
      </trkpt>
      <trkpt lat="47.23416" lon="6.13534">
        <ele>421.8</ele>
        <time>2021-04-10T11:47:40Z</time>
      </trkpt>
      <trkpt lat="47.23414" lon="6.13536">
        <ele>421.8</ele>
        <time>2021-04-10T11:47:41Z</time>
      </trkpt>
      <trkpt lat="47.23412" lon="6.13538">
        <ele>422</ele>
        <time>2021-04-10T11:47:42Z</time>
      </trkpt>
      <trkpt lat="47.23407" lon="6.13546">
        <ele>422.4</ele>
        <time>2021-04-10T11:47:45Z</time>
      </trkpt>
      <trkpt lat="47.23407" lon="6.1355">
        <ele>422.4</ele>
        <time>2021-04-10T11:47:46Z</time>
      </trkpt>
      <trkpt lat="47.23407" lon="6.13553">
        <ele>422.6</ele>
        <time>2021-04-10T11:47:47Z</time>
      </trkpt>
      <trkpt lat="47.23407" lon="6.13558">
        <ele>422.8</ele>
        <time>2021-04-10T11:47:48Z</time>
      </trkpt>
      <trkpt lat="47.23408" lon="6.13562">
        <ele>422.8</ele>
        <time>2021-04-10T11:47:49Z</time>
      </trkpt>
      <trkpt lat="47.23409" lon="6.13566">
        <ele>422.8</ele>
        <time>2021-04-10T11:47:50Z</time>
      </trkpt>
      <trkpt lat="47.2341" lon="6.13569">
        <ele>423</ele>
        <time>2021-04-10T11:47:51Z</time>
      </trkpt>
      <trkpt lat="47.23412" lon="6.13577">
        <ele>423.2</ele>
        <time>2021-04-10T11:47:53Z</time>
      </trkpt>
      <trkpt lat="47.23421" lon="6.13603">
        <ele>423.2</ele>
        <time>2021-04-10T11:47:59Z</time>
      </trkpt>
      <trkpt lat="47.23433" lon="6.13636">
        <ele>422.4</ele>
        <time>2021-04-10T11:48:03Z</time>
      </trkpt>
      <trkpt lat="47.23446" lon="6.13674">
        <ele>420.8</ele>
        <time>2021-04-10T11:48:07Z</time>
      </trkpt>
      <trkpt lat="47.2345" lon="6.13683">
        <ele>420.6</ele>
        <time>2021-04-10T11:48:08Z</time>
      </trkpt>
      <trkpt lat="47.23452" lon="6.13692">
        <ele>419.8</ele>
        <time>2021-04-10T11:48:09Z</time>
      </trkpt>
      <trkpt lat="47.23455" lon="6.13701">
        <ele>419.6</ele>
        <time>2021-04-10T11:48:10Z</time>
      </trkpt>
      <trkpt lat="47.23456" lon="6.13709">
        <ele>419.4</ele>
        <time>2021-04-10T11:48:11Z</time>
      </trkpt>
      <trkpt lat="47.23455" lon="6.13717">
        <ele>419.4</ele>
        <time>2021-04-10T11:48:12Z</time>
      </trkpt>
      <trkpt lat="47.23453" lon="6.13724">
        <ele>419.4</ele>
        <time>2021-04-10T11:48:13Z</time>
      </trkpt>
      <trkpt lat="47.2345" lon="6.13729">
        <ele>419.4</ele>
        <time>2021-04-10T11:48:14Z</time>
      </trkpt>
      <trkpt lat="47.23447" lon="6.13733">
        <ele>419.4</ele>
        <time>2021-04-10T11:48:15Z</time>
      </trkpt>
      <trkpt lat="47.23443" lon="6.13737">
        <ele>419.6</ele>
        <time>2021-04-10T11:48:16Z</time>
      </trkpt>
      <trkpt lat="47.23439" lon="6.1374">
        <ele>419.6</ele>
        <time>2021-04-10T11:48:17Z</time>
      </trkpt>
      <trkpt lat="47.23437" lon="6.13743">
        <ele>419.8</ele>
        <time>2021-04-10T11:48:18Z</time>
      </trkpt>
      <trkpt lat="47.23434" lon="6.13745">
        <ele>420</ele>
        <time>2021-04-10T11:48:19Z</time>
      </trkpt>
      <trkpt lat="47.23432" lon="6.13747">
        <ele>420</ele>
        <time>2021-04-10T11:48:20Z</time>
      </trkpt>
      <trkpt lat="47.23429" lon="6.13749">
        <ele>420.2</ele>
        <time>2021-04-10T11:48:21Z</time>
      </trkpt>
      <trkpt lat="47.23426" lon="6.13752">
        <ele>420.2</ele>
        <time>2021-04-10T11:48:22Z</time>
      </trkpt>
      <trkpt lat="47.23421" lon="6.13756">
        <ele>420.8</ele>
        <time>2021-04-10T11:48:24Z</time>
      </trkpt>
      <trkpt lat="47.23419" lon="6.13758">
        <ele>421</ele>
        <time>2021-04-10T11:48:25Z</time>
      </trkpt>
      <trkpt lat="47.23417" lon="6.1376">
        <ele>421.2</ele>
        <time>2021-04-10T11:48:26Z</time>
      </trkpt>
      <trkpt lat="47.23414" lon="6.13762">
        <ele>421.4</ele>
        <time>2021-04-10T11:48:27Z</time>
      </trkpt>
      <trkpt lat="47.23411" lon="6.13764">
        <ele>421.8</ele>
        <time>2021-04-10T11:48:28Z</time>
      </trkpt>
      <trkpt lat="47.23409" lon="6.13766">
        <ele>422</ele>
        <time>2021-04-10T11:48:29Z</time>
      </trkpt>
      <trkpt lat="47.23407" lon="6.13768">
        <ele>422.4</ele>
        <time>2021-04-10T11:48:30Z</time>
      </trkpt>
      <trkpt lat="47.23405" lon="6.1377">
        <ele>422.6</ele>
        <time>2021-04-10T11:48:31Z</time>
      </trkpt>
      <trkpt lat="47.23402" lon="6.13772">
        <ele>422.8</ele>
        <time>2021-04-10T11:48:32Z</time>
      </trkpt>
      <trkpt lat="47.23399" lon="6.13774">
        <ele>423</ele>
        <time>2021-04-10T11:48:33Z</time>
      </trkpt>
      <trkpt lat="47.23397" lon="6.13776">
        <ele>423.2</ele>
        <time>2021-04-10T11:48:34Z</time>
      </trkpt>
      <trkpt lat="47.23394" lon="6.13777">
        <ele>423.4</ele>
        <time>2021-04-10T11:48:35Z</time>
      </trkpt>
      <trkpt lat="47.23392" lon="6.13779">
        <ele>424</ele>
        <time>2021-04-10T11:48:36Z</time>
      </trkpt>
      <trkpt lat="47.2339" lon="6.1378">
        <ele>424.4</ele>
        <time>2021-04-10T11:48:37Z</time>
      </trkpt>
      <trkpt lat="47.23387" lon="6.13782">
        <ele>424.6</ele>
        <time>2021-04-10T11:48:38Z</time>
      </trkpt>
      <trkpt lat="47.23385" lon="6.13783">
        <ele>425</ele>
        <time>2021-04-10T11:48:39Z</time>
      </trkpt>
      <trkpt lat="47.23383" lon="6.13785">
        <ele>425.2</ele>
        <time>2021-04-10T11:48:40Z</time>
      </trkpt>
      <trkpt lat="47.23381" lon="6.13786">
        <ele>425.6</ele>
        <time>2021-04-10T11:48:41Z</time>
      </trkpt>
      <trkpt lat="47.23379" lon="6.13788">
        <ele>425.6</ele>
        <time>2021-04-10T11:48:42Z</time>
      </trkpt>
      <trkpt lat="47.23377" lon="6.1379">
        <ele>425.8</ele>
        <time>2021-04-10T11:48:43Z</time>
      </trkpt>
      <trkpt lat="47.23375" lon="6.13791">
        <ele>426</ele>
        <time>2021-04-10T11:48:44Z</time>
      </trkpt>
      <trkpt lat="47.23373" lon="6.13792">
        <ele>426.2</ele>
        <time>2021-04-10T11:48:45Z</time>
      </trkpt>
      <trkpt lat="47.23371" lon="6.13792">
        <ele>426.6</ele>
        <time>2021-04-10T11:48:46Z</time>
      </trkpt>
      <trkpt lat="47.2337" lon="6.13794">
        <ele>426.8</ele>
        <time>2021-04-10T11:48:47Z</time>
      </trkpt>
      <trkpt lat="47.23369" lon="6.13794">
        <ele>427</ele>
        <time>2021-04-10T11:48:48Z</time>
      </trkpt>
      <trkpt lat="47.23369" lon="6.13795">
        <ele>427.2</ele>
        <time>2021-04-10T11:48:49Z</time>
      </trkpt>
      <trkpt lat="47.23368" lon="6.13795">
        <ele>427.6</ele>
        <time>2021-04-10T11:48:50Z</time>
      </trkpt>
      <trkpt lat="47.23366" lon="6.13794">
        <ele>427.6</ele>
        <time>2021-04-10T11:48:51Z</time>
      </trkpt>
      <trkpt lat="47.23364" lon="6.13794">
        <ele>427.8</ele>
        <time>2021-04-10T11:48:52Z</time>
      </trkpt>
      <trkpt lat="47.23361" lon="6.13793">
        <ele>427.8</ele>
        <time>2021-04-10T11:48:53Z</time>
      </trkpt>
      <trkpt lat="47.2336" lon="6.13792">
        <ele>428</ele>
        <time>2021-04-10T11:48:54Z</time>
      </trkpt>
      <trkpt lat="47.23357" lon="6.13791">
        <ele>428.2</ele>
        <time>2021-04-10T11:48:55Z</time>
      </trkpt>
      <trkpt lat="47.23355" lon="6.13788">
        <ele>428.4</ele>
        <time>2021-04-10T11:48:56Z</time>
      </trkpt>
      <trkpt lat="47.23353" lon="6.13786">
        <ele>428.6</ele>
        <time>2021-04-10T11:48:57Z</time>
      </trkpt>
      <trkpt lat="47.23351" lon="6.13783">
        <ele>428.6</ele>
        <time>2021-04-10T11:48:58Z</time>
      </trkpt>
      <trkpt lat="47.23349" lon="6.1378">
        <ele>428.8</ele>
        <time>2021-04-10T11:48:59Z</time>
      </trkpt>
      <trkpt lat="47.23346" lon="6.13776">
        <ele>429</ele>
        <time>2021-04-10T11:49:00Z</time>
      </trkpt>
      <trkpt lat="47.23345" lon="6.13773">
        <ele>429.2</ele>
        <time>2021-04-10T11:49:01Z</time>
      </trkpt>
      <trkpt lat="47.23343" lon="6.1377">
        <ele>429.4</ele>
        <time>2021-04-10T11:49:02Z</time>
      </trkpt>
      <trkpt lat="47.23341" lon="6.13766">
        <ele>429.4</ele>
        <time>2021-04-10T11:49:03Z</time>
      </trkpt>
      <trkpt lat="47.23339" lon="6.13762">
        <ele>429.4</ele>
        <time>2021-04-10T11:49:04Z</time>
      </trkpt>
      <trkpt lat="47.23338" lon="6.13759">
        <ele>429.4</ele>
        <time>2021-04-10T11:49:05Z</time>
      </trkpt>
      <trkpt lat="47.23336" lon="6.13754">
        <ele>429.6</ele>
        <time>2021-04-10T11:49:06Z</time>
      </trkpt>
      <trkpt lat="47.23334" lon="6.1375">
        <ele>429.6</ele>
        <time>2021-04-10T11:49:07Z</time>
      </trkpt>
      <trkpt lat="47.23332" lon="6.13747">
        <ele>429.6</ele>
        <time>2021-04-10T11:49:08Z</time>
      </trkpt>
      <trkpt lat="47.23331" lon="6.13743">
        <ele>429.6</ele>
        <time>2021-04-10T11:49:09Z</time>
      </trkpt>
      <trkpt lat="47.23329" lon="6.13739">
        <ele>429.6</ele>
        <time>2021-04-10T11:49:10Z</time>
      </trkpt>
      <trkpt lat="47.23326" lon="6.13734">
        <ele>429.8</ele>
        <time>2021-04-10T11:49:11Z</time>
      </trkpt>
      <trkpt lat="47.23324" lon="6.13729">
        <ele>429.8</ele>
        <time>2021-04-10T11:49:12Z</time>
      </trkpt>
      <trkpt lat="47.23322" lon="6.13725">
        <ele>430</ele>
        <time>2021-04-10T11:49:13Z</time>
      </trkpt>
      <trkpt lat="47.23321" lon="6.13721">
        <ele>430</ele>
        <time>2021-04-10T11:49:14Z</time>
      </trkpt>
      <trkpt lat="47.23319" lon="6.13715">
        <ele>430</ele>
        <time>2021-04-10T11:49:15Z</time>
      </trkpt>
      <trkpt lat="47.23318" lon="6.13712">
        <ele>430</ele>
        <time>2021-04-10T11:49:16Z</time>
      </trkpt>
      <trkpt lat="47.23315" lon="6.13706">
        <ele>430</ele>
        <time>2021-04-10T11:49:17Z</time>
      </trkpt>
      <trkpt lat="47.23314" lon="6.13703">
        <ele>430</ele>
        <time>2021-04-10T11:49:18Z</time>
      </trkpt>
      <trkpt lat="47.23312" lon="6.13698">
        <ele>430</ele>
        <time>2021-04-10T11:49:19Z</time>
      </trkpt>
      <trkpt lat="47.23309" lon="6.13693">
        <ele>430</ele>
        <time>2021-04-10T11:49:20Z</time>
      </trkpt>
      <trkpt lat="47.23307" lon="6.13689">
        <ele>430</ele>
        <time>2021-04-10T11:49:21Z</time>
      </trkpt>
      <trkpt lat="47.23298" lon="6.13681">
        <ele>430.2</ele>
        <time>2021-04-10T11:49:24Z</time>
      </trkpt>
      <trkpt lat="47.23294" lon="6.1368">
        <ele>430.2</ele>
        <time>2021-04-10T11:49:25Z</time>
      </trkpt>
      <trkpt lat="47.2329" lon="6.13679">
        <ele>430.4</ele>
        <time>2021-04-10T11:49:26Z</time>
      </trkpt>
      <trkpt lat="47.23287" lon="6.13679">
        <ele>430.4</ele>
        <time>2021-04-10T11:49:27Z</time>
      </trkpt>
      <trkpt lat="47.23284" lon="6.13679">
        <ele>430.6</ele>
        <time>2021-04-10T11:49:28Z</time>
      </trkpt>
      <trkpt lat="47.23273" lon="6.13678">
        <ele>430.6</ele>
        <time>2021-04-10T11:49:31Z</time>
      </trkpt>
      <trkpt lat="47.2327" lon="6.13678">
        <ele>430.6</ele>
        <time>2021-04-10T11:49:32Z</time>
      </trkpt>
      <trkpt lat="47.23268" lon="6.13677">
        <ele>430.6</ele>
        <time>2021-04-10T11:49:33Z</time>
      </trkpt>
      <trkpt lat="47.23264" lon="6.13675">
        <ele>430.8</ele>
        <time>2021-04-10T11:49:34Z</time>
      </trkpt>
      <trkpt lat="47.23261" lon="6.13674">
        <ele>431</ele>
        <time>2021-04-10T11:49:35Z</time>
      </trkpt>
      <trkpt lat="47.23258" lon="6.13672">
        <ele>431</ele>
        <time>2021-04-10T11:49:36Z</time>
      </trkpt>
      <trkpt lat="47.23256" lon="6.13669">
        <ele>431</ele>
        <time>2021-04-10T11:49:37Z</time>
      </trkpt>
      <trkpt lat="47.23253" lon="6.13667">
        <ele>431</ele>
        <time>2021-04-10T11:49:38Z</time>
      </trkpt>
      <trkpt lat="47.23242" lon="6.13648">
        <ele>431.4</ele>
        <time>2021-04-10T11:49:43Z</time>
      </trkpt>
      <trkpt lat="47.23234" lon="6.13644">
        <ele>431.6</ele>
        <time>2021-04-10T11:49:45Z</time>
      </trkpt>
      <trkpt lat="47.23231" lon="6.13644">
        <ele>431.8</ele>
        <time>2021-04-10T11:49:46Z</time>
      </trkpt>
      <trkpt lat="47.23228" lon="6.13646">
        <ele>431.8</ele>
        <time>2021-04-10T11:49:47Z</time>
      </trkpt>
      <trkpt lat="47.23222" lon="6.1365">
        <ele>432</ele>
        <time>2021-04-10T11:49:49Z</time>
      </trkpt>
      <trkpt lat="47.23219" lon="6.13653">
        <ele>432</ele>
        <time>2021-04-10T11:49:50Z</time>
      </trkpt>
      <trkpt lat="47.23216" lon="6.13655">
        <ele>432.2</ele>
        <time>2021-04-10T11:49:51Z</time>
      </trkpt>
      <trkpt lat="47.23211" lon="6.13659">
        <ele>432.4</ele>
        <time>2021-04-10T11:49:53Z</time>
      </trkpt>
      <trkpt lat="47.23208" lon="6.13661">
        <ele>432.6</ele>
        <time>2021-04-10T11:49:54Z</time>
      </trkpt>
      <trkpt lat="47.23205" lon="6.13664">
        <ele>432.8</ele>
        <time>2021-04-10T11:49:55Z</time>
      </trkpt>
      <trkpt lat="47.23202" lon="6.13666">
        <ele>433</ele>
        <time>2021-04-10T11:49:56Z</time>
      </trkpt>
      <trkpt lat="47.232" lon="6.13667">
        <ele>433</ele>
        <time>2021-04-10T11:49:57Z</time>
      </trkpt>
      <trkpt lat="47.23197" lon="6.13669">
        <ele>433.2</ele>
        <time>2021-04-10T11:49:58Z</time>
      </trkpt>
      <trkpt lat="47.23184" lon="6.1368">
        <ele>434.4</ele>
        <time>2021-04-10T11:50:03Z</time>
      </trkpt>
      <trkpt lat="47.23181" lon="6.13682">
        <ele>434.4</ele>
        <time>2021-04-10T11:50:04Z</time>
      </trkpt>
      <trkpt lat="47.23178" lon="6.13684">
        <ele>434.8</ele>
        <time>2021-04-10T11:50:05Z</time>
      </trkpt>
      <trkpt lat="47.23176" lon="6.13686">
        <ele>434.8</ele>
        <time>2021-04-10T11:50:06Z</time>
      </trkpt>
      <trkpt lat="47.23173" lon="6.13689">
        <ele>435</ele>
        <time>2021-04-10T11:50:07Z</time>
      </trkpt>
      <trkpt lat="47.23171" lon="6.13691">
        <ele>435</ele>
        <time>2021-04-10T11:50:08Z</time>
      </trkpt>
      <trkpt lat="47.23168" lon="6.13693">
        <ele>435.2</ele>
        <time>2021-04-10T11:50:09Z</time>
      </trkpt>
      <trkpt lat="47.23165" lon="6.13695">
        <ele>435.2</ele>
        <time>2021-04-10T11:50:10Z</time>
      </trkpt>
      <trkpt lat="47.23162" lon="6.13697">
        <ele>435.4</ele>
        <time>2021-04-10T11:50:11Z</time>
      </trkpt>
      <trkpt lat="47.2316" lon="6.13699">
        <ele>435.6</ele>
        <time>2021-04-10T11:50:12Z</time>
      </trkpt>
      <trkpt lat="47.23157" lon="6.13701">
        <ele>435.8</ele>
        <time>2021-04-10T11:50:13Z</time>
      </trkpt>
      <trkpt lat="47.23154" lon="6.13704">
        <ele>436</ele>
        <time>2021-04-10T11:50:14Z</time>
      </trkpt>
      <trkpt lat="47.23151" lon="6.13706">
        <ele>436.2</ele>
        <time>2021-04-10T11:50:15Z</time>
      </trkpt>
      <trkpt lat="47.23148" lon="6.13709">
        <ele>436.4</ele>
        <time>2021-04-10T11:50:16Z</time>
      </trkpt>
      <trkpt lat="47.23146" lon="6.13712">
        <ele>436.4</ele>
        <time>2021-04-10T11:50:17Z</time>
      </trkpt>
      <trkpt lat="47.23144" lon="6.13714">
        <ele>436.6</ele>
        <time>2021-04-10T11:50:18Z</time>
      </trkpt>
      <trkpt lat="47.23141" lon="6.13718">
        <ele>436.6</ele>
        <time>2021-04-10T11:50:19Z</time>
      </trkpt>
      <trkpt lat="47.23139" lon="6.13722">
        <ele>436.8</ele>
        <time>2021-04-10T11:50:20Z</time>
      </trkpt>
      <trkpt lat="47.23137" lon="6.13726">
        <ele>436.8</ele>
        <time>2021-04-10T11:50:21Z</time>
      </trkpt>
      <trkpt lat="47.23136" lon="6.13729">
        <ele>437</ele>
        <time>2021-04-10T11:50:22Z</time>
      </trkpt>
      <trkpt lat="47.23134" lon="6.13733">
        <ele>437.2</ele>
        <time>2021-04-10T11:50:23Z</time>
      </trkpt>
      <trkpt lat="47.23133" lon="6.13737">
        <ele>437.2</ele>
        <time>2021-04-10T11:50:24Z</time>
      </trkpt>
      <trkpt lat="47.23132" lon="6.13741">
        <ele>437.4</ele>
        <time>2021-04-10T11:50:25Z</time>
      </trkpt>
      <trkpt lat="47.23132" lon="6.13745">
        <ele>437.4</ele>
        <time>2021-04-10T11:50:26Z</time>
      </trkpt>
      <trkpt lat="47.23133" lon="6.13749">
        <ele>437.4</ele>
        <time>2021-04-10T11:50:27Z</time>
      </trkpt>
      <trkpt lat="47.23134" lon="6.13752">
        <ele>437.4</ele>
        <time>2021-04-10T11:50:28Z</time>
      </trkpt>
      <trkpt lat="47.23135" lon="6.13756">
        <ele>437.4</ele>
        <time>2021-04-10T11:50:29Z</time>
      </trkpt>
      <trkpt lat="47.23136" lon="6.13759">
        <ele>437.4</ele>
        <time>2021-04-10T11:50:30Z</time>
      </trkpt>
      <trkpt lat="47.23136" lon="6.13761">
        <ele>437.4</ele>
        <time>2021-04-10T11:50:31Z</time>
      </trkpt>
      <trkpt lat="47.23137" lon="6.13765">
        <ele>437.4</ele>
        <time>2021-04-10T11:50:32Z</time>
      </trkpt>
      <trkpt lat="47.23138" lon="6.13769">
        <ele>437.4</ele>
        <time>2021-04-10T11:50:33Z</time>
      </trkpt>
      <trkpt lat="47.23139" lon="6.13772">
        <ele>437.4</ele>
        <time>2021-04-10T11:50:34Z</time>
      </trkpt>
      <trkpt lat="47.2314" lon="6.13776">
        <ele>437.4</ele>
        <time>2021-04-10T11:50:35Z</time>
      </trkpt>
      <trkpt lat="47.2314" lon="6.13778">
        <ele>437.4</ele>
        <time>2021-04-10T11:50:36Z</time>
      </trkpt>
      <trkpt lat="47.23141" lon="6.13783">
        <ele>437.4</ele>
        <time>2021-04-10T11:50:37Z</time>
      </trkpt>
      <trkpt lat="47.23143" lon="6.13786">
        <ele>437.4</ele>
        <time>2021-04-10T11:50:38Z</time>
      </trkpt>
      <trkpt lat="47.23144" lon="6.13791">
        <ele>437.4</ele>
        <time>2021-04-10T11:50:39Z</time>
      </trkpt>
      <trkpt lat="47.23154" lon="6.13816">
        <ele>438.4</ele>
        <time>2021-04-10T11:50:46Z</time>
      </trkpt>
      <trkpt lat="47.23169" lon="6.13845">
        <ele>439.6</ele>
        <time>2021-04-10T11:50:54Z</time>
      </trkpt>
      <trkpt lat="47.23178" lon="6.13859">
        <ele>440.2</ele>
        <time>2021-04-10T11:50:58Z</time>
      </trkpt>
      <trkpt lat="47.23181" lon="6.13862">
        <ele>440.2</ele>
        <time>2021-04-10T11:50:59Z</time>
      </trkpt>
      <trkpt lat="47.23183" lon="6.13866">
        <ele>440.2</ele>
        <time>2021-04-10T11:51:00Z</time>
      </trkpt>
      <trkpt lat="47.23185" lon="6.13869">
        <ele>440.4</ele>
        <time>2021-04-10T11:51:01Z</time>
      </trkpt>
      <trkpt lat="47.23187" lon="6.13873">
        <ele>440.4</ele>
        <time>2021-04-10T11:51:02Z</time>
      </trkpt>
      <trkpt lat="47.23189" lon="6.13877">
        <ele>440.6</ele>
        <time>2021-04-10T11:51:03Z</time>
      </trkpt>
      <trkpt lat="47.2319" lon="6.1388">
        <ele>440.8</ele>
        <time>2021-04-10T11:51:04Z</time>
      </trkpt>
      <trkpt lat="47.23193" lon="6.13883">
        <ele>441</ele>
        <time>2021-04-10T11:51:05Z</time>
      </trkpt>
      <trkpt lat="47.23195" lon="6.13887">
        <ele>441.2</ele>
        <time>2021-04-10T11:51:06Z</time>
      </trkpt>
      <trkpt lat="47.23198" lon="6.13891">
        <ele>441.2</ele>
        <time>2021-04-10T11:51:07Z</time>
      </trkpt>
      <trkpt lat="47.232" lon="6.13895">
        <ele>441.4</ele>
        <time>2021-04-10T11:51:08Z</time>
      </trkpt>
      <trkpt lat="47.23202" lon="6.13898">
        <ele>441.6</ele>
        <time>2021-04-10T11:51:09Z</time>
      </trkpt>
      <trkpt lat="47.23204" lon="6.13902">
        <ele>441.8</ele>
        <time>2021-04-10T11:51:10Z</time>
      </trkpt>
      <trkpt lat="47.23206" lon="6.13905">
        <ele>442</ele>
        <time>2021-04-10T11:51:11Z</time>
      </trkpt>
      <trkpt lat="47.23208" lon="6.13909">
        <ele>442.2</ele>
        <time>2021-04-10T11:51:12Z</time>
      </trkpt>
      <trkpt lat="47.2321" lon="6.13913">
        <ele>442.6</ele>
        <time>2021-04-10T11:51:13Z</time>
      </trkpt>
      <trkpt lat="47.23211" lon="6.13915">
        <ele>442.6</ele>
        <time>2021-04-10T11:51:14Z</time>
      </trkpt>
      <trkpt lat="47.23213" lon="6.13919">
        <ele>442.8</ele>
        <time>2021-04-10T11:51:15Z</time>
      </trkpt>
      <trkpt lat="47.23215" lon="6.13922">
        <ele>442.8</ele>
        <time>2021-04-10T11:51:16Z</time>
      </trkpt>
      <trkpt lat="47.23218" lon="6.13925">
        <ele>443</ele>
        <time>2021-04-10T11:51:17Z</time>
      </trkpt>
      <trkpt lat="47.2322" lon="6.13929">
        <ele>443</ele>
        <time>2021-04-10T11:51:18Z</time>
      </trkpt>
      <trkpt lat="47.23222" lon="6.13932">
        <ele>443.2</ele>
        <time>2021-04-10T11:51:19Z</time>
      </trkpt>
      <trkpt lat="47.23224" lon="6.13936">
        <ele>443.2</ele>
        <time>2021-04-10T11:51:20Z</time>
      </trkpt>
      <trkpt lat="47.23226" lon="6.1394">
        <ele>443.4</ele>
        <time>2021-04-10T11:51:21Z</time>
      </trkpt>
      <trkpt lat="47.23228" lon="6.13945">
        <ele>443.4</ele>
        <time>2021-04-10T11:51:22Z</time>
      </trkpt>
      <trkpt lat="47.2323" lon="6.13949">
        <ele>443.6</ele>
        <time>2021-04-10T11:51:23Z</time>
      </trkpt>
      <trkpt lat="47.23232" lon="6.13953">
        <ele>443.6</ele>
        <time>2021-04-10T11:51:24Z</time>
      </trkpt>
      <trkpt lat="47.23234" lon="6.13957">
        <ele>443.6</ele>
        <time>2021-04-10T11:51:25Z</time>
      </trkpt>
      <trkpt lat="47.23236" lon="6.1396">
        <ele>443.8</ele>
        <time>2021-04-10T11:51:26Z</time>
      </trkpt>
      <trkpt lat="47.23238" lon="6.13964">
        <ele>443.8</ele>
        <time>2021-04-10T11:51:27Z</time>
      </trkpt>
      <trkpt lat="47.2324" lon="6.13967">
        <ele>444</ele>
        <time>2021-04-10T11:51:28Z</time>
      </trkpt>
      <trkpt lat="47.23241" lon="6.1397">
        <ele>444</ele>
        <time>2021-04-10T11:51:29Z</time>
      </trkpt>
      <trkpt lat="47.23244" lon="6.13974">
        <ele>444</ele>
        <time>2021-04-10T11:51:30Z</time>
      </trkpt>
      <trkpt lat="47.23246" lon="6.13978">
        <ele>444.2</ele>
        <time>2021-04-10T11:51:31Z</time>
      </trkpt>
      <trkpt lat="47.23248" lon="6.13981">
        <ele>444.2</ele>
        <time>2021-04-10T11:51:32Z</time>
      </trkpt>
      <trkpt lat="47.23251" lon="6.13985">
        <ele>444.4</ele>
        <time>2021-04-10T11:51:33Z</time>
      </trkpt>
      <trkpt lat="47.23253" lon="6.13989">
        <ele>444.4</ele>
        <time>2021-04-10T11:51:34Z</time>
      </trkpt>
      <trkpt lat="47.23256" lon="6.13993">
        <ele>444.6</ele>
        <time>2021-04-10T11:51:35Z</time>
      </trkpt>
      <trkpt lat="47.23259" lon="6.13997">
        <ele>444.6</ele>
        <time>2021-04-10T11:51:36Z</time>
      </trkpt>
      <trkpt lat="47.23261" lon="6.14">
        <ele>444.6</ele>
        <time>2021-04-10T11:51:37Z</time>
      </trkpt>
      <trkpt lat="47.23263" lon="6.14004">
        <ele>444.8</ele>
        <time>2021-04-10T11:51:38Z</time>
      </trkpt>
      <trkpt lat="47.23266" lon="6.14009">
        <ele>444.8</ele>
        <time>2021-04-10T11:51:39Z</time>
      </trkpt>
      <trkpt lat="47.23269" lon="6.14014">
        <ele>444.8</ele>
        <time>2021-04-10T11:51:40Z</time>
      </trkpt>
      <trkpt lat="47.23271" lon="6.14018">
        <ele>445</ele>
        <time>2021-04-10T11:51:41Z</time>
      </trkpt>
      <trkpt lat="47.23274" lon="6.14023">
        <ele>445</ele>
        <time>2021-04-10T11:51:42Z</time>
      </trkpt>
      <trkpt lat="47.23282" lon="6.14035">
        <ele>445.4</ele>
        <time>2021-04-10T11:51:45Z</time>
      </trkpt>
      <trkpt lat="47.23284" lon="6.14039">
        <ele>445.6</ele>
        <time>2021-04-10T11:51:46Z</time>
      </trkpt>
      <trkpt lat="47.23298" lon="6.14062">
        <ele>445.8</ele>
        <time>2021-04-10T11:51:51Z</time>
      </trkpt>
      <trkpt lat="47.23304" lon="6.14071">
        <ele>445.8</ele>
        <time>2021-04-10T11:51:53Z</time>
      </trkpt>
      <trkpt lat="47.23319" lon="6.14097">
        <ele>445.6</ele>
        <time>2021-04-10T11:51:59Z</time>
      </trkpt>
      <trkpt lat="47.23328" lon="6.14111">
        <ele>445.4</ele>
        <time>2021-04-10T11:52:02Z</time>
      </trkpt>
      <trkpt lat="47.2333" lon="6.14114">
        <ele>445.4</ele>
        <time>2021-04-10T11:52:03Z</time>
      </trkpt>
      <trkpt lat="47.23343" lon="6.14137">
        <ele>445</ele>
        <time>2021-04-10T11:52:08Z</time>
      </trkpt>
      <trkpt lat="47.23346" lon="6.14141">
        <ele>444.8</ele>
        <time>2021-04-10T11:52:09Z</time>
      </trkpt>
      <trkpt lat="47.23348" lon="6.14146">
        <ele>444.8</ele>
        <time>2021-04-10T11:52:10Z</time>
      </trkpt>
      <trkpt lat="47.2335" lon="6.14149">
        <ele>444.6</ele>
        <time>2021-04-10T11:52:11Z</time>
      </trkpt>
      <trkpt lat="47.23353" lon="6.14154">
        <ele>444.4</ele>
        <time>2021-04-10T11:52:12Z</time>
      </trkpt>
      <trkpt lat="47.23354" lon="6.14158">
        <ele>444.4</ele>
        <time>2021-04-10T11:52:13Z</time>
      </trkpt>
      <trkpt lat="47.23356" lon="6.14162">
        <ele>444.2</ele>
        <time>2021-04-10T11:52:14Z</time>
      </trkpt>
      <trkpt lat="47.23358" lon="6.14165">
        <ele>444.2</ele>
        <time>2021-04-10T11:52:15Z</time>
      </trkpt>
      <trkpt lat="47.2336" lon="6.14169">
        <ele>444.2</ele>
        <time>2021-04-10T11:52:16Z</time>
      </trkpt>
      <trkpt lat="47.23362" lon="6.14172">
        <ele>444.2</ele>
        <time>2021-04-10T11:52:17Z</time>
      </trkpt>
      <trkpt lat="47.23363" lon="6.14176">
        <ele>444.2</ele>
        <time>2021-04-10T11:52:18Z</time>
      </trkpt>
      <trkpt lat="47.23363" lon="6.1418">
        <ele>444.2</ele>
        <time>2021-04-10T11:52:19Z</time>
      </trkpt>
      <trkpt lat="47.23361" lon="6.14182">
        <ele>444.2</ele>
        <time>2021-04-10T11:52:20Z</time>
      </trkpt>
      <trkpt lat="47.23359" lon="6.14184">
        <ele>444.2</ele>
        <time>2021-04-10T11:52:21Z</time>
      </trkpt>
      <trkpt lat="47.23356" lon="6.14186">
        <ele>444.2</ele>
        <time>2021-04-10T11:52:22Z</time>
      </trkpt>
      <trkpt lat="47.23354" lon="6.14187">
        <ele>444.2</ele>
        <time>2021-04-10T11:52:23Z</time>
      </trkpt>
      <trkpt lat="47.23352" lon="6.14189">
        <ele>444.2</ele>
        <time>2021-04-10T11:52:24Z</time>
      </trkpt>
      <trkpt lat="47.23349" lon="6.14192">
        <ele>444.2</ele>
        <time>2021-04-10T11:52:25Z</time>
      </trkpt>
      <trkpt lat="47.23346" lon="6.14194">
        <ele>444.2</ele>
        <time>2021-04-10T11:52:26Z</time>
      </trkpt>
      <trkpt lat="47.23343" lon="6.14197">
        <ele>444.2</ele>
        <time>2021-04-10T11:52:27Z</time>
      </trkpt>
      <trkpt lat="47.2334" lon="6.14199">
        <ele>444.4</ele>
        <time>2021-04-10T11:52:28Z</time>
      </trkpt>
      <trkpt lat="47.23321" lon="6.14215">
        <ele>445.8</ele>
        <time>2021-04-10T11:52:35Z</time>
      </trkpt>
      <trkpt lat="47.23319" lon="6.14216">
        <ele>446.2</ele>
        <time>2021-04-10T11:52:36Z</time>
      </trkpt>
      <trkpt lat="47.23317" lon="6.14218">
        <ele>446.4</ele>
        <time>2021-04-10T11:52:37Z</time>
      </trkpt>
      <trkpt lat="47.23315" lon="6.1422">
        <ele>446.8</ele>
        <time>2021-04-10T11:52:38Z</time>
      </trkpt>
      <trkpt lat="47.23313" lon="6.14222">
        <ele>447</ele>
        <time>2021-04-10T11:52:39Z</time>
      </trkpt>
      <trkpt lat="47.23311" lon="6.14224">
        <ele>447.2</ele>
        <time>2021-04-10T11:52:40Z</time>
      </trkpt>
      <trkpt lat="47.23309" lon="6.14226">
        <ele>447</ele>
        <time>2021-04-10T11:52:41Z</time>
      </trkpt>
      <trkpt lat="47.23302" lon="6.14232">
        <ele>447.6</ele>
        <time>2021-04-10T11:52:44Z</time>
      </trkpt>
      <trkpt lat="47.233" lon="6.14234">
        <ele>447.6</ele>
        <time>2021-04-10T11:52:45Z</time>
      </trkpt>
      <trkpt lat="47.23297" lon="6.14236">
        <ele>447.8</ele>
        <time>2021-04-10T11:52:46Z</time>
      </trkpt>
      <trkpt lat="47.23295" lon="6.14238">
        <ele>447.8</ele>
        <time>2021-04-10T11:52:47Z</time>
      </trkpt>
      <trkpt lat="47.23293" lon="6.1424">
        <ele>447.8</ele>
        <time>2021-04-10T11:52:48Z</time>
      </trkpt>
      <trkpt lat="47.23291" lon="6.14242">
        <ele>447.8</ele>
        <time>2021-04-10T11:52:49Z</time>
      </trkpt>
      <trkpt lat="47.23288" lon="6.14244">
        <ele>448</ele>
        <time>2021-04-10T11:52:50Z</time>
      </trkpt>
      <trkpt lat="47.23286" lon="6.14245">
        <ele>448</ele>
        <time>2021-04-10T11:52:51Z</time>
      </trkpt>
      <trkpt lat="47.23283" lon="6.14248">
        <ele>448</ele>
        <time>2021-04-10T11:52:52Z</time>
      </trkpt>
      <trkpt lat="47.23279" lon="6.1425">
        <ele>448</ele>
        <time>2021-04-10T11:52:53Z</time>
      </trkpt>
      <trkpt lat="47.23276" lon="6.14253">
        <ele>448</ele>
        <time>2021-04-10T11:52:54Z</time>
      </trkpt>
      <trkpt lat="47.23273" lon="6.14254">
        <ele>447.8</ele>
        <time>2021-04-10T11:52:55Z</time>
      </trkpt>
      <trkpt lat="47.23271" lon="6.14256">
        <ele>447.6</ele>
        <time>2021-04-10T11:52:56Z</time>
      </trkpt>
      <trkpt lat="47.23268" lon="6.14258">
        <ele>447.6</ele>
        <time>2021-04-10T11:52:57Z</time>
      </trkpt>
      <trkpt lat="47.23267" lon="6.14259">
        <ele>447.4</ele>
        <time>2021-04-10T11:52:58Z</time>
      </trkpt>
      <trkpt lat="47.23266" lon="6.14259">
        <ele>447.4</ele>
        <time>2021-04-10T11:52:59Z</time>
      </trkpt>
      <trkpt lat="47.23266" lon="6.14259">
        <ele>446.8</ele>
        <time>2021-04-10T11:53:02Z</time>
      </trkpt>
      <trkpt lat="47.23267" lon="6.14259">
        <ele>446.6</ele>
        <time>2021-04-10T11:53:13Z</time>
      </trkpt>
      <trkpt lat="47.23274" lon="6.14254">
        <ele>446.6</ele>
        <time>2021-04-10T11:53:19Z</time>
      </trkpt>
      <trkpt lat="47.2329" lon="6.14242">
        <ele>446.8</ele>
        <time>2021-04-10T11:53:23Z</time>
      </trkpt>
      <trkpt lat="47.23315" lon="6.14223">
        <ele>447</ele>
        <time>2021-04-10T11:53:28Z</time>
      </trkpt>
      <trkpt lat="47.23325" lon="6.14215">
        <ele>447.2</ele>
        <time>2021-04-10T11:53:30Z</time>
      </trkpt>
      <trkpt lat="47.23341" lon="6.14202">
        <ele>447.2</ele>
        <time>2021-04-10T11:53:33Z</time>
      </trkpt>
      <trkpt lat="47.23346" lon="6.14198">
        <ele>447</ele>
        <time>2021-04-10T11:53:34Z</time>
      </trkpt>
      <trkpt lat="47.23355" lon="6.14191">
        <ele>447</ele>
        <time>2021-04-10T11:53:36Z</time>
      </trkpt>
      <trkpt lat="47.23359" lon="6.14188">
        <ele>446.8</ele>
        <time>2021-04-10T11:53:37Z</time>
      </trkpt>
      <trkpt lat="47.23362" lon="6.14187">
        <ele>446.8</ele>
        <time>2021-04-10T11:53:38Z</time>
      </trkpt>
      <trkpt lat="47.23365" lon="6.14187">
        <ele>446.2</ele>
        <time>2021-04-10T11:53:39Z</time>
      </trkpt>
      <trkpt lat="47.23368" lon="6.14189">
        <ele>445.8</ele>
        <time>2021-04-10T11:53:40Z</time>
      </trkpt>
      <trkpt lat="47.2337" lon="6.14192">
        <ele>445.4</ele>
        <time>2021-04-10T11:53:41Z</time>
      </trkpt>
      <trkpt lat="47.2337" lon="6.14195">
        <ele>445.2</ele>
        <time>2021-04-10T11:53:42Z</time>
      </trkpt>
      <trkpt lat="47.23371" lon="6.14199">
        <ele>445.2</ele>
        <time>2021-04-10T11:53:43Z</time>
      </trkpt>
      <trkpt lat="47.23372" lon="6.14201">
        <ele>445</ele>
        <time>2021-04-10T11:53:44Z</time>
      </trkpt>
      <trkpt lat="47.23374" lon="6.14205">
        <ele>445</ele>
        <time>2021-04-10T11:53:45Z</time>
      </trkpt>
      <trkpt lat="47.23379" lon="6.14227">
        <ele>445</ele>
        <time>2021-04-10T11:53:49Z</time>
      </trkpt>
      <trkpt lat="47.23389" lon="6.14269">
        <ele>445.4</ele>
        <time>2021-04-10T11:53:55Z</time>
      </trkpt>
      <trkpt lat="47.23398" lon="6.14319">
        <ele>445.8</ele>
        <time>2021-04-10T11:54:01Z</time>
      </trkpt>
      <trkpt lat="47.234" lon="6.14325">
        <ele>445.8</ele>
        <time>2021-04-10T11:54:02Z</time>
      </trkpt>
      <trkpt lat="47.23403" lon="6.1433">
        <ele>445.8</ele>
        <time>2021-04-10T11:54:03Z</time>
      </trkpt>
      <trkpt lat="47.23407" lon="6.14332">
        <ele>445.8</ele>
        <time>2021-04-10T11:54:04Z</time>
      </trkpt>
      <trkpt lat="47.23412" lon="6.14332">
        <ele>445.6</ele>
        <time>2021-04-10T11:54:05Z</time>
      </trkpt>
      <trkpt lat="47.23418" lon="6.14329">
        <ele>445.6</ele>
        <time>2021-04-10T11:54:06Z</time>
      </trkpt>
      <trkpt lat="47.23424" lon="6.14326">
        <ele>445.6</ele>
        <time>2021-04-10T11:54:07Z</time>
      </trkpt>
      <trkpt lat="47.23429" lon="6.14324">
        <ele>445.4</ele>
        <time>2021-04-10T11:54:08Z</time>
      </trkpt>
      <trkpt lat="47.23433" lon="6.14322">
        <ele>445.2</ele>
        <time>2021-04-10T11:54:09Z</time>
      </trkpt>
      <trkpt lat="47.23435" lon="6.14322">
        <ele>445</ele>
        <time>2021-04-10T11:54:10Z</time>
      </trkpt>
      <trkpt lat="47.23436" lon="6.14322">
        <ele>444.6</ele>
        <time>2021-04-10T11:54:11Z</time>
      </trkpt>
      <trkpt lat="47.23436" lon="6.14322">
        <ele>444.4</ele>
        <time>2021-04-10T11:54:12Z</time>
      </trkpt>
      <trkpt lat="47.23436" lon="6.14322">
        <ele>444</ele>
        <time>2021-04-10T11:54:17Z</time>
      </trkpt>
      <trkpt lat="47.23436" lon="6.14322">
        <ele>443.6</ele>
        <time>2021-04-10T11:54:34Z</time>
      </trkpt>
      <trkpt lat="47.23434" lon="6.14324">
        <ele>443.6</ele>
        <time>2021-04-10T11:54:54Z</time>
      </trkpt>
      <trkpt lat="47.23432" lon="6.14324">
        <ele>443.4</ele>
        <time>2021-04-10T11:54:58Z</time>
      </trkpt>
      <trkpt lat="47.23429" lon="6.14325">
        <ele>443.4</ele>
        <time>2021-04-10T11:55:01Z</time>
      </trkpt>
      <trkpt lat="47.23429" lon="6.14325">
        <ele>443.4</ele>
        <time>2021-04-10T11:55:02Z</time>
      </trkpt>
      <trkpt lat="47.23429" lon="6.14325">
        <ele>443.2</ele>
        <time>2021-04-10T11:55:05Z</time>
      </trkpt>
      <trkpt lat="47.2343" lon="6.14325">
        <ele>443.2</ele>
        <time>2021-04-10T11:55:07Z</time>
      </trkpt>
      <trkpt lat="47.2343" lon="6.14325">
        <ele>443.4</ele>
        <time>2021-04-10T11:55:08Z</time>
      </trkpt>
      <trkpt lat="47.2343" lon="6.14324">
        <ele>443.4</ele>
        <time>2021-04-10T11:55:17Z</time>
      </trkpt>
      <trkpt lat="47.23428" lon="6.14325">
        <ele>444</ele>
        <time>2021-04-10T11:55:39Z</time>
      </trkpt>
      <trkpt lat="47.23423" lon="6.14328">
        <ele>444</ele>
        <time>2021-04-10T11:55:41Z</time>
      </trkpt>
      <trkpt lat="47.23412" lon="6.14332">
        <ele>444</ele>
        <time>2021-04-10T11:55:45Z</time>
      </trkpt>
      <trkpt lat="47.2341" lon="6.14331">
        <ele>444</ele>
        <time>2021-04-10T11:55:46Z</time>
      </trkpt>
      <trkpt lat="47.23407" lon="6.1433">
        <ele>444</ele>
        <time>2021-04-10T11:55:47Z</time>
      </trkpt>
      <trkpt lat="47.23405" lon="6.14328">
        <ele>444.2</ele>
        <time>2021-04-10T11:55:48Z</time>
      </trkpt>
      <trkpt lat="47.23403" lon="6.14325">
        <ele>444.2</ele>
        <time>2021-04-10T11:55:49Z</time>
      </trkpt>
      <trkpt lat="47.23401" lon="6.14318">
        <ele>444.6</ele>
        <time>2021-04-10T11:55:51Z</time>
      </trkpt>
      <trkpt lat="47.234" lon="6.14314">
        <ele>444.8</ele>
        <time>2021-04-10T11:55:52Z</time>
      </trkpt>
      <trkpt lat="47.23399" lon="6.1431">
        <ele>444.8</ele>
        <time>2021-04-10T11:55:53Z</time>
      </trkpt>
      <trkpt lat="47.23399" lon="6.14306">
        <ele>445.2</ele>
        <time>2021-04-10T11:55:54Z</time>
      </trkpt>
      <trkpt lat="47.23398" lon="6.14302">
        <ele>445</ele>
        <time>2021-04-10T11:55:55Z</time>
      </trkpt>
      <trkpt lat="47.23397" lon="6.14297">
        <ele>445.2</ele>
        <time>2021-04-10T11:55:56Z</time>
      </trkpt>
      <trkpt lat="47.23393" lon="6.14269">
        <ele>446</ele>
        <time>2021-04-10T11:56:02Z</time>
      </trkpt>
      <trkpt lat="47.23389" lon="6.14253">
        <ele>446</ele>
        <time>2021-04-10T11:56:06Z</time>
      </trkpt>
      <trkpt lat="47.23386" lon="6.14238">
        <ele>445.8</ele>
        <time>2021-04-10T11:56:09Z</time>
      </trkpt>
      <trkpt lat="47.2338" lon="6.14211">
        <ele>445.2</ele>
        <time>2021-04-10T11:56:14Z</time>
      </trkpt>
      <trkpt lat="47.23379" lon="6.14207">
        <ele>445.2</ele>
        <time>2021-04-10T11:56:15Z</time>
      </trkpt>
      <trkpt lat="47.23378" lon="6.14203">
        <ele>445</ele>
        <time>2021-04-10T11:56:16Z</time>
      </trkpt>
      <trkpt lat="47.23377" lon="6.14199">
        <ele>445</ele>
        <time>2021-04-10T11:56:17Z</time>
      </trkpt>
      <trkpt lat="47.23376" lon="6.14197">
        <ele>445</ele>
        <time>2021-04-10T11:56:18Z</time>
      </trkpt>
      <trkpt lat="47.23375" lon="6.14193">
        <ele>445</ele>
        <time>2021-04-10T11:56:19Z</time>
      </trkpt>
      <trkpt lat="47.23373" lon="6.1419">
        <ele>444.8</ele>
        <time>2021-04-10T11:56:20Z</time>
      </trkpt>
      <trkpt lat="47.23371" lon="6.14188">
        <ele>444.8</ele>
        <time>2021-04-10T11:56:21Z</time>
      </trkpt>
      <trkpt lat="47.23368" lon="6.14187">
        <ele>444.8</ele>
        <time>2021-04-10T11:56:22Z</time>
      </trkpt>
      <trkpt lat="47.23365" lon="6.14187">
        <ele>444.8</ele>
        <time>2021-04-10T11:56:23Z</time>
      </trkpt>
      <trkpt lat="47.23362" lon="6.14188">
        <ele>444.8</ele>
        <time>2021-04-10T11:56:24Z</time>
      </trkpt>
      <trkpt lat="47.23358" lon="6.14191">
        <ele>444.8</ele>
        <time>2021-04-10T11:56:26Z</time>
      </trkpt>
      <trkpt lat="47.23355" lon="6.14193">
        <ele>444.8</ele>
        <time>2021-04-10T11:56:27Z</time>
      </trkpt>
      <trkpt lat="47.23353" lon="6.14194">
        <ele>444.8</ele>
        <time>2021-04-10T11:56:28Z</time>
      </trkpt>
      <trkpt lat="47.23346" lon="6.142">
        <ele>444.8</ele>
        <time>2021-04-10T11:56:31Z</time>
      </trkpt>
      <trkpt lat="47.23333" lon="6.14209">
        <ele>445.2</ele>
        <time>2021-04-10T11:56:36Z</time>
      </trkpt>
      <trkpt lat="47.2333" lon="6.14211">
        <ele>445.2</ele>
        <time>2021-04-10T11:56:37Z</time>
      </trkpt>
      <trkpt lat="47.23327" lon="6.14214">
        <ele>445.2</ele>
        <time>2021-04-10T11:56:38Z</time>
      </trkpt>
      <trkpt lat="47.23316" lon="6.14221">
        <ele>446.2</ele>
        <time>2021-04-10T11:56:42Z</time>
      </trkpt>
      <trkpt lat="47.23309" lon="6.14228">
        <ele>446.6</ele>
        <time>2021-04-10T11:56:45Z</time>
      </trkpt>
      <trkpt lat="47.23307" lon="6.14231">
        <ele>446.8</ele>
        <time>2021-04-10T11:56:46Z</time>
      </trkpt>
      <trkpt lat="47.23305" lon="6.14233">
        <ele>446.8</ele>
        <time>2021-04-10T11:56:47Z</time>
      </trkpt>
      <trkpt lat="47.23302" lon="6.14235">
        <ele>447</ele>
        <time>2021-04-10T11:56:48Z</time>
      </trkpt>
      <trkpt lat="47.233" lon="6.14237">
        <ele>447</ele>
        <time>2021-04-10T11:56:49Z</time>
      </trkpt>
      <trkpt lat="47.23297" lon="6.14239">
        <ele>447</ele>
        <time>2021-04-10T11:56:50Z</time>
      </trkpt>
      <trkpt lat="47.23293" lon="6.14241">
        <ele>447.2</ele>
        <time>2021-04-10T11:56:51Z</time>
      </trkpt>
      <trkpt lat="47.2329" lon="6.14244">
        <ele>447.4</ele>
        <time>2021-04-10T11:56:52Z</time>
      </trkpt>
      <trkpt lat="47.23272" lon="6.14257">
        <ele>447.4</ele>
        <time>2021-04-10T11:56:57Z</time>
      </trkpt>
      <trkpt lat="47.23268" lon="6.14261">
        <ele>447.4</ele>
        <time>2021-04-10T11:56:58Z</time>
      </trkpt>
      <trkpt lat="47.23265" lon="6.14264">
        <ele>447.4</ele>
        <time>2021-04-10T11:56:59Z</time>
      </trkpt>
      <trkpt lat="47.23245" lon="6.1428">
        <ele>446.8</ele>
        <time>2021-04-10T11:57:04Z</time>
      </trkpt>
      <trkpt lat="47.23241" lon="6.14286">
        <ele>446.6</ele>
        <time>2021-04-10T11:57:05Z</time>
      </trkpt>
      <trkpt lat="47.23237" lon="6.1429">
        <ele>446.6</ele>
        <time>2021-04-10T11:57:06Z</time>
      </trkpt>
      <trkpt lat="47.23234" lon="6.14295">
        <ele>446.4</ele>
        <time>2021-04-10T11:57:07Z</time>
      </trkpt>
      <trkpt lat="47.23231" lon="6.143">
        <ele>446.4</ele>
        <time>2021-04-10T11:57:08Z</time>
      </trkpt>
      <trkpt lat="47.23227" lon="6.14303">
        <ele>446.4</ele>
        <time>2021-04-10T11:57:09Z</time>
      </trkpt>
      <trkpt lat="47.23222" lon="6.14308">
        <ele>446.4</ele>
        <time>2021-04-10T11:57:11Z</time>
      </trkpt>
      <trkpt lat="47.23219" lon="6.1431">
        <ele>446.4</ele>
        <time>2021-04-10T11:57:12Z</time>
      </trkpt>
      <trkpt lat="47.23215" lon="6.14313">
        <ele>446.6</ele>
        <time>2021-04-10T11:57:13Z</time>
      </trkpt>
      <trkpt lat="47.23208" lon="6.14322">
        <ele>446.6</ele>
        <time>2021-04-10T11:57:16Z</time>
      </trkpt>
      <trkpt lat="47.23207" lon="6.14325">
        <ele>446.8</ele>
        <time>2021-04-10T11:57:17Z</time>
      </trkpt>
      <trkpt lat="47.23205" lon="6.14326">
        <ele>447</ele>
        <time>2021-04-10T11:57:18Z</time>
      </trkpt>
      <trkpt lat="47.23202" lon="6.14328">
        <ele>447</ele>
        <time>2021-04-10T11:57:19Z</time>
      </trkpt>
      <trkpt lat="47.23197" lon="6.14331">
        <ele>447.2</ele>
        <time>2021-04-10T11:57:20Z</time>
      </trkpt>
      <trkpt lat="47.23193" lon="6.14334">
        <ele>447.2</ele>
        <time>2021-04-10T11:57:21Z</time>
      </trkpt>
      <trkpt lat="47.2319" lon="6.14338">
        <ele>447.4</ele>
        <time>2021-04-10T11:57:22Z</time>
      </trkpt>
      <trkpt lat="47.23188" lon="6.14341">
        <ele>447.6</ele>
        <time>2021-04-10T11:57:23Z</time>
      </trkpt>
      <trkpt lat="47.23187" lon="6.14345">
        <ele>447.6</ele>
        <time>2021-04-10T11:57:24Z</time>
      </trkpt>
      <trkpt lat="47.23184" lon="6.14349">
        <ele>448</ele>
        <time>2021-04-10T11:57:25Z</time>
      </trkpt>
      <trkpt lat="47.23182" lon="6.14351">
        <ele>448.2</ele>
        <time>2021-04-10T11:57:26Z</time>
      </trkpt>
      <trkpt lat="47.23179" lon="6.14355">
        <ele>448.4</ele>
        <time>2021-04-10T11:57:27Z</time>
      </trkpt>
      <trkpt lat="47.23175" lon="6.14359">
        <ele>448.6</ele>
        <time>2021-04-10T11:57:28Z</time>
      </trkpt>
      <trkpt lat="47.23172" lon="6.14363">
        <ele>448.8</ele>
        <time>2021-04-10T11:57:29Z</time>
      </trkpt>
      <trkpt lat="47.23165" lon="6.14369">
        <ele>449.4</ele>
        <time>2021-04-10T11:57:32Z</time>
      </trkpt>
      <trkpt lat="47.23164" lon="6.14371">
        <ele>449.6</ele>
        <time>2021-04-10T11:57:33Z</time>
      </trkpt>
      <trkpt lat="47.23161" lon="6.14372">
        <ele>449.8</ele>
        <time>2021-04-10T11:57:34Z</time>
      </trkpt>
      <trkpt lat="47.23159" lon="6.14374">
        <ele>449.8</ele>
        <time>2021-04-10T11:57:35Z</time>
      </trkpt>
      <trkpt lat="47.23155" lon="6.14379">
        <ele>449.8</ele>
        <time>2021-04-10T11:57:36Z</time>
      </trkpt>
      <trkpt lat="47.23149" lon="6.14388">
        <ele>449.8</ele>
        <time>2021-04-10T11:57:37Z</time>
      </trkpt>
      <trkpt lat="47.23144" lon="6.14393">
        <ele>449.8</ele>
        <time>2021-04-10T11:57:38Z</time>
      </trkpt>
      <trkpt lat="47.2314" lon="6.14396">
        <ele>449.8</ele>
        <time>2021-04-10T11:57:39Z</time>
      </trkpt>
      <trkpt lat="47.23136" lon="6.144">
        <ele>449.8</ele>
        <time>2021-04-10T11:57:40Z</time>
      </trkpt>
      <trkpt lat="47.23131" lon="6.14404">
        <ele>449.8</ele>
        <time>2021-04-10T11:57:41Z</time>
      </trkpt>
      <trkpt lat="47.23126" lon="6.14408">
        <ele>449.8</ele>
        <time>2021-04-10T11:57:42Z</time>
      </trkpt>
      <trkpt lat="47.23122" lon="6.14411">
        <ele>449.4</ele>
        <time>2021-04-10T11:57:43Z</time>
      </trkpt>
      <trkpt lat="47.23116" lon="6.14414">
        <ele>449.2</ele>
        <time>2021-04-10T11:57:44Z</time>
      </trkpt>
      <trkpt lat="47.23111" lon="6.14417">
        <ele>448.6</ele>
        <time>2021-04-10T11:57:45Z</time>
      </trkpt>
      <trkpt lat="47.23107" lon="6.14422">
        <ele>448.2</ele>
        <time>2021-04-10T11:57:46Z</time>
      </trkpt>
      <trkpt lat="47.23103" lon="6.14426">
        <ele>447.6</ele>
        <time>2021-04-10T11:57:47Z</time>
      </trkpt>
      <trkpt lat="47.23097" lon="6.14433">
        <ele>447.4</ele>
        <time>2021-04-10T11:57:48Z</time>
      </trkpt>
      <trkpt lat="47.23091" lon="6.14442">
        <ele>447</ele>
        <time>2021-04-10T11:57:49Z</time>
      </trkpt>
      <trkpt lat="47.23078" lon="6.14462">
        <ele>446.4</ele>
        <time>2021-04-10T11:57:51Z</time>
      </trkpt>
      <trkpt lat="47.23074" lon="6.14467">
        <ele>445.4</ele>
        <time>2021-04-10T11:57:52Z</time>
      </trkpt>
      <trkpt lat="47.23065" lon="6.14478">
        <ele>445.2</ele>
        <time>2021-04-10T11:57:54Z</time>
      </trkpt>
      <trkpt lat="47.23062" lon="6.1448">
        <ele>445</ele>
        <time>2021-04-10T11:57:55Z</time>
      </trkpt>
      <trkpt lat="47.23059" lon="6.14481">
        <ele>445</ele>
        <time>2021-04-10T11:57:56Z</time>
      </trkpt>
      <trkpt lat="47.23059" lon="6.14482">
        <ele>445.2</ele>
        <time>2021-04-10T11:57:57Z</time>
      </trkpt>
      <trkpt lat="47.23056" lon="6.14483">
        <ele>445.2</ele>
        <time>2021-04-10T11:57:58Z</time>
      </trkpt>
      <trkpt lat="47.23054" lon="6.14485">
        <ele>445.4</ele>
        <time>2021-04-10T11:57:59Z</time>
      </trkpt>
      <trkpt lat="47.23043" lon="6.14502">
        <ele>447</ele>
        <time>2021-04-10T11:58:03Z</time>
      </trkpt>
      <trkpt lat="47.23041" lon="6.14503">
        <ele>447.4</ele>
        <time>2021-04-10T11:58:04Z</time>
      </trkpt>
      <trkpt lat="47.23037" lon="6.14506">
        <ele>447.8</ele>
        <time>2021-04-10T11:58:05Z</time>
      </trkpt>
      <trkpt lat="47.23035" lon="6.14511">
        <ele>448</ele>
        <time>2021-04-10T11:58:06Z</time>
      </trkpt>
      <trkpt lat="47.23032" lon="6.14513">
        <ele>448.4</ele>
        <time>2021-04-10T11:58:07Z</time>
      </trkpt>
      <trkpt lat="47.23029" lon="6.14516">
        <ele>449</ele>
        <time>2021-04-10T11:58:08Z</time>
      </trkpt>
      <trkpt lat="47.23026" lon="6.14518">
        <ele>449.4</ele>
        <time>2021-04-10T11:58:09Z</time>
      </trkpt>
      <trkpt lat="47.23024" lon="6.14518">
        <ele>449.8</ele>
        <time>2021-04-10T11:58:10Z</time>
      </trkpt>
      <trkpt lat="47.23023" lon="6.1452">
        <ele>450</ele>
        <time>2021-04-10T11:58:11Z</time>
      </trkpt>
      <trkpt lat="47.23022" lon="6.14521">
        <ele>450.6</ele>
        <time>2021-04-10T11:58:12Z</time>
      </trkpt>
      <trkpt lat="47.23021" lon="6.14522">
        <ele>450.6</ele>
        <time>2021-04-10T11:58:13Z</time>
      </trkpt>
      <trkpt lat="47.23018" lon="6.14526">
        <ele>451</ele>
        <time>2021-04-10T11:58:14Z</time>
      </trkpt>
      <trkpt lat="47.23017" lon="6.14528">
        <ele>451.2</ele>
        <time>2021-04-10T11:58:15Z</time>
      </trkpt>
      <trkpt lat="47.23015" lon="6.14529">
        <ele>451.6</ele>
        <time>2021-04-10T11:58:16Z</time>
      </trkpt>
      <trkpt lat="47.23014" lon="6.14531">
        <ele>452</ele>
        <time>2021-04-10T11:58:17Z</time>
      </trkpt>
      <trkpt lat="47.23012" lon="6.14533">
        <ele>452</ele>
        <time>2021-04-10T11:58:18Z</time>
      </trkpt>
      <trkpt lat="47.23009" lon="6.14535">
        <ele>452.2</ele>
        <time>2021-04-10T11:58:19Z</time>
      </trkpt>
      <trkpt lat="47.23006" lon="6.14537">
        <ele>452.4</ele>
        <time>2021-04-10T11:58:20Z</time>
      </trkpt>
      <trkpt lat="47.23004" lon="6.14538">
        <ele>452.8</ele>
        <time>2021-04-10T11:58:21Z</time>
      </trkpt>
      <trkpt lat="47.23001" lon="6.14541">
        <ele>453</ele>
        <time>2021-04-10T11:58:22Z</time>
      </trkpt>
      <trkpt lat="47.22999" lon="6.14544">
        <ele>453.2</ele>
        <time>2021-04-10T11:58:23Z</time>
      </trkpt>
      <trkpt lat="47.22997" lon="6.14546">
        <ele>453.4</ele>
        <time>2021-04-10T11:58:24Z</time>
      </trkpt>
      <trkpt lat="47.22995" lon="6.14548">
        <ele>454</ele>
        <time>2021-04-10T11:58:25Z</time>
      </trkpt>
      <trkpt lat="47.22993" lon="6.1455">
        <ele>454</ele>
        <time>2021-04-10T11:58:26Z</time>
      </trkpt>
      <trkpt lat="47.22991" lon="6.14552">
        <ele>454.2</ele>
        <time>2021-04-10T11:58:27Z</time>
      </trkpt>
      <trkpt lat="47.22989" lon="6.14553">
        <ele>454.2</ele>
        <time>2021-04-10T11:58:28Z</time>
      </trkpt>
      <trkpt lat="47.22988" lon="6.14554">
        <ele>454.2</ele>
        <time>2021-04-10T11:58:29Z</time>
      </trkpt>
      <trkpt lat="47.22986" lon="6.14555">
        <ele>454.4</ele>
        <time>2021-04-10T11:58:30Z</time>
      </trkpt>
      <trkpt lat="47.22984" lon="6.14556">
        <ele>454.4</ele>
        <time>2021-04-10T11:58:31Z</time>
      </trkpt>
      <trkpt lat="47.22982" lon="6.14558">
        <ele>454.6</ele>
        <time>2021-04-10T11:58:32Z</time>
      </trkpt>
      <trkpt lat="47.2298" lon="6.1456">
        <ele>454.6</ele>
        <time>2021-04-10T11:58:33Z</time>
      </trkpt>
      <trkpt lat="47.22979" lon="6.14562">
        <ele>454.8</ele>
        <time>2021-04-10T11:58:34Z</time>
      </trkpt>
      <trkpt lat="47.22978" lon="6.14564">
        <ele>455</ele>
        <time>2021-04-10T11:58:35Z</time>
      </trkpt>
      <trkpt lat="47.22975" lon="6.14567">
        <ele>455.2</ele>
        <time>2021-04-10T11:58:36Z</time>
      </trkpt>
      <trkpt lat="47.22973" lon="6.1457">
        <ele>455.4</ele>
        <time>2021-04-10T11:58:37Z</time>
      </trkpt>
      <trkpt lat="47.2297" lon="6.14576">
        <ele>455.4</ele>
        <time>2021-04-10T11:58:38Z</time>
      </trkpt>
      <trkpt lat="47.22968" lon="6.14579">
        <ele>455.8</ele>
        <time>2021-04-10T11:58:39Z</time>
      </trkpt>
      <trkpt lat="47.22966" lon="6.14582">
        <ele>455.8</ele>
        <time>2021-04-10T11:58:40Z</time>
      </trkpt>
      <trkpt lat="47.22963" lon="6.14586">
        <ele>456</ele>
        <time>2021-04-10T11:58:41Z</time>
      </trkpt>
      <trkpt lat="47.22962" lon="6.14587">
        <ele>456.2</ele>
        <time>2021-04-10T11:58:42Z</time>
      </trkpt>
      <trkpt lat="47.22959" lon="6.14589">
        <ele>456.2</ele>
        <time>2021-04-10T11:58:43Z</time>
      </trkpt>
      <trkpt lat="47.22958" lon="6.14589">
        <ele>456.4</ele>
        <time>2021-04-10T11:58:44Z</time>
      </trkpt>
      <trkpt lat="47.22956" lon="6.14592">
        <ele>456.6</ele>
        <time>2021-04-10T11:58:45Z</time>
      </trkpt>
      <trkpt lat="47.22954" lon="6.14595">
        <ele>456.6</ele>
        <time>2021-04-10T11:58:46Z</time>
      </trkpt>
      <trkpt lat="47.22953" lon="6.14596">
        <ele>456.8</ele>
        <time>2021-04-10T11:58:47Z</time>
      </trkpt>
      <trkpt lat="47.22952" lon="6.14598">
        <ele>456.8</ele>
        <time>2021-04-10T11:58:48Z</time>
      </trkpt>
      <trkpt lat="47.22952" lon="6.14599">
        <ele>456.6</ele>
        <time>2021-04-10T11:58:49Z</time>
      </trkpt>
      <trkpt lat="47.22951" lon="6.14602">
        <ele>456.8</ele>
        <time>2021-04-10T11:58:50Z</time>
      </trkpt>
      <trkpt lat="47.2295" lon="6.14605">
        <ele>456.8</ele>
        <time>2021-04-10T11:58:51Z</time>
      </trkpt>
      <trkpt lat="47.2295" lon="6.14607">
        <ele>456.6</ele>
        <time>2021-04-10T11:58:52Z</time>
      </trkpt>
      <trkpt lat="47.22947" lon="6.1461">
        <ele>456.4</ele>
        <time>2021-04-10T11:58:53Z</time>
      </trkpt>
      <trkpt lat="47.22945" lon="6.14612">
        <ele>456.4</ele>
        <time>2021-04-10T11:58:54Z</time>
      </trkpt>
      <trkpt lat="47.22945" lon="6.14612">
        <ele>456.2</ele>
        <time>2021-04-10T11:58:55Z</time>
      </trkpt>
      <trkpt lat="47.22943" lon="6.14615">
        <ele>456.2</ele>
        <time>2021-04-10T11:58:56Z</time>
      </trkpt>
      <trkpt lat="47.22941" lon="6.14618">
        <ele>456</ele>
        <time>2021-04-10T11:58:57Z</time>
      </trkpt>
      <trkpt lat="47.22941" lon="6.14618">
        <ele>456</ele>
        <time>2021-04-10T11:58:58Z</time>
      </trkpt>
      <trkpt lat="47.22941" lon="6.14618">
        <ele>455.4</ele>
        <time>2021-04-10T11:59:02Z</time>
      </trkpt>
      <trkpt lat="47.22941" lon="6.14618">
        <ele>455.4</ele>
        <time>2021-04-10T11:59:03Z</time>
      </trkpt>
      <trkpt lat="47.2294" lon="6.1462">
        <ele>455</ele>
        <time>2021-04-10T11:59:19Z</time>
      </trkpt>
      <trkpt lat="47.22936" lon="6.14629">
        <ele>455</ele>
        <time>2021-04-10T11:59:21Z</time>
      </trkpt>
      <trkpt lat="47.22933" lon="6.14635">
        <ele>455</ele>
        <time>2021-04-10T11:59:22Z</time>
      </trkpt>
      <trkpt lat="47.2293" lon="6.14639">
        <ele>454.8</ele>
        <time>2021-04-10T11:59:23Z</time>
      </trkpt>
      <trkpt lat="47.2292" lon="6.14652">
        <ele>454.6</ele>
        <time>2021-04-10T11:59:25Z</time>
      </trkpt>
      <trkpt lat="47.22917" lon="6.14657">
        <ele>454.4</ele>
        <time>2021-04-10T11:59:26Z</time>
      </trkpt>
      <trkpt lat="47.22912" lon="6.14666">
        <ele>453.8</ele>
        <time>2021-04-10T11:59:28Z</time>
      </trkpt>
      <trkpt lat="47.2291" lon="6.14672">
        <ele>453.2</ele>
        <time>2021-04-10T11:59:29Z</time>
      </trkpt>
      <trkpt lat="47.22907" lon="6.14676">
        <ele>452.8</ele>
        <time>2021-04-10T11:59:30Z</time>
      </trkpt>
      <trkpt lat="47.22905" lon="6.1468">
        <ele>452.6</ele>
        <time>2021-04-10T11:59:31Z</time>
      </trkpt>
      <trkpt lat="47.22903" lon="6.14682">
        <ele>452.4</ele>
        <time>2021-04-10T11:59:32Z</time>
      </trkpt>
      <trkpt lat="47.229" lon="6.14685">
        <ele>452.2</ele>
        <time>2021-04-10T11:59:33Z</time>
      </trkpt>
      <trkpt lat="47.22898" lon="6.14688">
        <ele>451.8</ele>
        <time>2021-04-10T11:59:34Z</time>
      </trkpt>
      <trkpt lat="47.22895" lon="6.14692">
        <ele>451.2</ele>
        <time>2021-04-10T11:59:35Z</time>
      </trkpt>
      <trkpt lat="47.22889" lon="6.14699">
        <ele>450.6</ele>
        <time>2021-04-10T11:59:37Z</time>
      </trkpt>
      <trkpt lat="47.22884" lon="6.14704">
        <ele>450.4</ele>
        <time>2021-04-10T11:59:38Z</time>
      </trkpt>
      <trkpt lat="47.2287" lon="6.14718">
        <ele>449.4</ele>
        <time>2021-04-10T11:59:41Z</time>
      </trkpt>
      <trkpt lat="47.22862" lon="6.14724">
        <ele>448.8</ele>
        <time>2021-04-10T11:59:42Z</time>
      </trkpt>
      <trkpt lat="47.22846" lon="6.14736">
        <ele>447.8</ele>
        <time>2021-04-10T11:59:44Z</time>
      </trkpt>
      <trkpt lat="47.22839" lon="6.1474">
        <ele>447.4</ele>
        <time>2021-04-10T11:59:45Z</time>
      </trkpt>
      <trkpt lat="47.22824" lon="6.14749">
        <ele>446.4</ele>
        <time>2021-04-10T11:59:47Z</time>
      </trkpt>
      <trkpt lat="47.22804" lon="6.1476">
        <ele>445.6</ele>
        <time>2021-04-10T11:59:50Z</time>
      </trkpt>
      <trkpt lat="47.22798" lon="6.14764">
        <ele>444.6</ele>
        <time>2021-04-10T11:59:51Z</time>
      </trkpt>
      <trkpt lat="47.22792" lon="6.14768">
        <ele>444.2</ele>
        <time>2021-04-10T11:59:52Z</time>
      </trkpt>
      <trkpt lat="47.22786" lon="6.14772">
        <ele>443.6</ele>
        <time>2021-04-10T11:59:53Z</time>
      </trkpt>
      <trkpt lat="47.2278" lon="6.14776">
        <ele>443</ele>
        <time>2021-04-10T11:59:54Z</time>
      </trkpt>
      <trkpt lat="47.22771" lon="6.14781">
        <ele>442.8</ele>
        <time>2021-04-10T11:59:55Z</time>
      </trkpt>
      <trkpt lat="47.22754" lon="6.14786">
        <ele>442</ele>
        <time>2021-04-10T11:59:58Z</time>
      </trkpt>
      <trkpt lat="47.22742" lon="6.14793">
        <ele>440.6</ele>
        <time>2021-04-10T12:00:00Z</time>
      </trkpt>
      <trkpt lat="47.22728" lon="6.14801">
        <ele>439</ele>
        <time>2021-04-10T12:00:02Z</time>
      </trkpt>
      <trkpt lat="47.22722" lon="6.14806">
        <ele>438.4</ele>
        <time>2021-04-10T12:00:03Z</time>
      </trkpt>
      <trkpt lat="47.22717" lon="6.1481">
        <ele>438.2</ele>
        <time>2021-04-10T12:00:04Z</time>
      </trkpt>
      <trkpt lat="47.22712" lon="6.14813">
        <ele>438</ele>
        <time>2021-04-10T12:00:05Z</time>
      </trkpt>
      <trkpt lat="47.22706" lon="6.14816">
        <ele>437.8</ele>
        <time>2021-04-10T12:00:06Z</time>
      </trkpt>
      <trkpt lat="47.22701" lon="6.1482">
        <ele>437.4</ele>
        <time>2021-04-10T12:00:07Z</time>
      </trkpt>
      <trkpt lat="47.22697" lon="6.14822">
        <ele>437.4</ele>
        <time>2021-04-10T12:00:08Z</time>
      </trkpt>
      <trkpt lat="47.22694" lon="6.14824">
        <ele>437.4</ele>
        <time>2021-04-10T12:00:09Z</time>
      </trkpt>
      <trkpt lat="47.22692" lon="6.14824">
        <ele>437.4</ele>
        <time>2021-04-10T12:00:10Z</time>
      </trkpt>
      <trkpt lat="47.22689" lon="6.14825">
        <ele>437.4</ele>
        <time>2021-04-10T12:00:11Z</time>
      </trkpt>
      <trkpt lat="47.22687" lon="6.14826">
        <ele>437.4</ele>
        <time>2021-04-10T12:00:12Z</time>
      </trkpt>
      <trkpt lat="47.22685" lon="6.14825">
        <ele>437.4</ele>
        <time>2021-04-10T12:00:13Z</time>
      </trkpt>
      <trkpt lat="47.22683" lon="6.14825">
        <ele>437.6</ele>
        <time>2021-04-10T12:00:14Z</time>
      </trkpt>
      <trkpt lat="47.22681" lon="6.14825">
        <ele>437.8</ele>
        <time>2021-04-10T12:00:15Z</time>
      </trkpt>
      <trkpt lat="47.22678" lon="6.14825">
        <ele>438</ele>
        <time>2021-04-10T12:00:16Z</time>
      </trkpt>
      <trkpt lat="47.22676" lon="6.14825">
        <ele>438</ele>
        <time>2021-04-10T12:00:17Z</time>
      </trkpt>
      <trkpt lat="47.22673" lon="6.14826">
        <ele>438.2</ele>
        <time>2021-04-10T12:00:18Z</time>
      </trkpt>
      <trkpt lat="47.2267" lon="6.14826">
        <ele>438.4</ele>
        <time>2021-04-10T12:00:19Z</time>
      </trkpt>
      <trkpt lat="47.22667" lon="6.14826">
        <ele>438.6</ele>
        <time>2021-04-10T12:00:20Z</time>
      </trkpt>
      <trkpt lat="47.22658" lon="6.14826">
        <ele>439</ele>
        <time>2021-04-10T12:00:23Z</time>
      </trkpt>
      <trkpt lat="47.22656" lon="6.14826">
        <ele>439</ele>
        <time>2021-04-10T12:00:24Z</time>
      </trkpt>
      <trkpt lat="47.22652" lon="6.14825">
        <ele>439.4</ele>
        <time>2021-04-10T12:00:26Z</time>
      </trkpt>
      <trkpt lat="47.22651" lon="6.14825">
        <ele>439.8</ele>
        <time>2021-04-10T12:00:27Z</time>
      </trkpt>
      <trkpt lat="47.22649" lon="6.14826">
        <ele>439.8</ele>
        <time>2021-04-10T12:00:28Z</time>
      </trkpt>
      <trkpt lat="47.22647" lon="6.14827">
        <ele>440</ele>
        <time>2021-04-10T12:00:29Z</time>
      </trkpt>
      <trkpt lat="47.22639" lon="6.14826">
        <ele>440.4</ele>
        <time>2021-04-10T12:00:32Z</time>
      </trkpt>
      <trkpt lat="47.22635" lon="6.14825">
        <ele>441</ele>
        <time>2021-04-10T12:00:34Z</time>
      </trkpt>
      <trkpt lat="47.22623" lon="6.14823">
        <ele>441.6</ele>
        <time>2021-04-10T12:00:40Z</time>
      </trkpt>
      <trkpt lat="47.22621" lon="6.14823">
        <ele>441.8</ele>
        <time>2021-04-10T12:00:41Z</time>
      </trkpt>
      <trkpt lat="47.22619" lon="6.14823">
        <ele>442.2</ele>
        <time>2021-04-10T12:00:42Z</time>
      </trkpt>
      <trkpt lat="47.22618" lon="6.14823">
        <ele>442.6</ele>
        <time>2021-04-10T12:00:43Z</time>
      </trkpt>
      <trkpt lat="47.22615" lon="6.14823">
        <ele>443</ele>
        <time>2021-04-10T12:00:44Z</time>
      </trkpt>
      <trkpt lat="47.22613" lon="6.14822">
        <ele>443.2</ele>
        <time>2021-04-10T12:00:45Z</time>
      </trkpt>
      <trkpt lat="47.22612" lon="6.14822">
        <ele>443.2</ele>
        <time>2021-04-10T12:00:46Z</time>
      </trkpt>
      <trkpt lat="47.2261" lon="6.14822">
        <ele>443.6</ele>
        <time>2021-04-10T12:00:47Z</time>
      </trkpt>
      <trkpt lat="47.22607" lon="6.14824">
        <ele>444.2</ele>
        <time>2021-04-10T12:00:48Z</time>
      </trkpt>
      <trkpt lat="47.22604" lon="6.14826">
        <ele>444.2</ele>
        <time>2021-04-10T12:00:49Z</time>
      </trkpt>
      <trkpt lat="47.22603" lon="6.14826">
        <ele>444.4</ele>
        <time>2021-04-10T12:00:50Z</time>
      </trkpt>
      <trkpt lat="47.226" lon="6.14826">
        <ele>444.6</ele>
        <time>2021-04-10T12:00:51Z</time>
      </trkpt>
      <trkpt lat="47.22598" lon="6.14827">
        <ele>444.6</ele>
        <time>2021-04-10T12:00:52Z</time>
      </trkpt>
      <trkpt lat="47.22596" lon="6.14827">
        <ele>444.8</ele>
        <time>2021-04-10T12:00:53Z</time>
      </trkpt>
      <trkpt lat="47.22595" lon="6.14828">
        <ele>444.8</ele>
        <time>2021-04-10T12:00:54Z</time>
      </trkpt>
      <trkpt lat="47.22592" lon="6.1483">
        <ele>445</ele>
        <time>2021-04-10T12:00:55Z</time>
      </trkpt>
      <trkpt lat="47.2259" lon="6.1483">
        <ele>445.4</ele>
        <time>2021-04-10T12:00:56Z</time>
      </trkpt>
      <trkpt lat="47.22589" lon="6.1483">
        <ele>445.8</ele>
        <time>2021-04-10T12:00:57Z</time>
      </trkpt>
      <trkpt lat="47.22587" lon="6.1483">
        <ele>446.4</ele>
        <time>2021-04-10T12:00:58Z</time>
      </trkpt>
      <trkpt lat="47.22585" lon="6.1483">
        <ele>446.6</ele>
        <time>2021-04-10T12:00:59Z</time>
      </trkpt>
      <trkpt lat="47.22584" lon="6.1483">
        <ele>446.8</ele>
        <time>2021-04-10T12:01:00Z</time>
      </trkpt>
      <trkpt lat="47.22581" lon="6.14829">
        <ele>447</ele>
        <time>2021-04-10T12:01:01Z</time>
      </trkpt>
      <trkpt lat="47.22579" lon="6.1483">
        <ele>447.2</ele>
        <time>2021-04-10T12:01:02Z</time>
      </trkpt>
      <trkpt lat="47.22578" lon="6.1483">
        <ele>447.4</ele>
        <time>2021-04-10T12:01:03Z</time>
      </trkpt>
      <trkpt lat="47.22576" lon="6.1483">
        <ele>447.4</ele>
        <time>2021-04-10T12:01:04Z</time>
      </trkpt>
      <trkpt lat="47.22573" lon="6.1483">
        <ele>447.8</ele>
        <time>2021-04-10T12:01:05Z</time>
      </trkpt>
      <trkpt lat="47.22569" lon="6.14829">
        <ele>448</ele>
        <time>2021-04-10T12:01:06Z</time>
      </trkpt>
      <trkpt lat="47.22565" lon="6.14826">
        <ele>448.2</ele>
        <time>2021-04-10T12:01:07Z</time>
      </trkpt>
      <trkpt lat="47.22563" lon="6.14825">
        <ele>448.6</ele>
        <time>2021-04-10T12:01:08Z</time>
      </trkpt>
      <trkpt lat="47.22562" lon="6.14825">
        <ele>448.6</ele>
        <time>2021-04-10T12:01:09Z</time>
      </trkpt>
      <trkpt lat="47.2256" lon="6.14826">
        <ele>448.8</ele>
        <time>2021-04-10T12:01:10Z</time>
      </trkpt>
      <trkpt lat="47.22558" lon="6.14825">
        <ele>449</ele>
        <time>2021-04-10T12:01:11Z</time>
      </trkpt>
      <trkpt lat="47.22556" lon="6.14825">
        <ele>449.2</ele>
        <time>2021-04-10T12:01:12Z</time>
      </trkpt>
      <trkpt lat="47.22555" lon="6.14825">
        <ele>449.4</ele>
        <time>2021-04-10T12:01:13Z</time>
      </trkpt>
      <trkpt lat="47.22552" lon="6.14826">
        <ele>449.6</ele>
        <time>2021-04-10T12:01:14Z</time>
      </trkpt>
      <trkpt lat="47.22551" lon="6.14826">
        <ele>449.6</ele>
        <time>2021-04-10T12:01:15Z</time>
      </trkpt>
      <trkpt lat="47.22549" lon="6.14826">
        <ele>450</ele>
        <time>2021-04-10T12:01:16Z</time>
      </trkpt>
      <trkpt lat="47.22547" lon="6.14826">
        <ele>450.2</ele>
        <time>2021-04-10T12:01:17Z</time>
      </trkpt>
      <trkpt lat="47.22545" lon="6.14826">
        <ele>450.4</ele>
        <time>2021-04-10T12:01:18Z</time>
      </trkpt>
      <trkpt lat="47.22544" lon="6.14826">
        <ele>450.6</ele>
        <time>2021-04-10T12:01:19Z</time>
      </trkpt>
      <trkpt lat="47.22542" lon="6.14826">
        <ele>450.8</ele>
        <time>2021-04-10T12:01:20Z</time>
      </trkpt>
      <trkpt lat="47.22541" lon="6.14827">
        <ele>451.2</ele>
        <time>2021-04-10T12:01:21Z</time>
      </trkpt>
      <trkpt lat="47.22539" lon="6.14827">
        <ele>451.4</ele>
        <time>2021-04-10T12:01:22Z</time>
      </trkpt>
      <trkpt lat="47.22538" lon="6.14827">
        <ele>451.6</ele>
        <time>2021-04-10T12:01:23Z</time>
      </trkpt>
      <trkpt lat="47.22536" lon="6.14828">
        <ele>451.8</ele>
        <time>2021-04-10T12:01:24Z</time>
      </trkpt>
      <trkpt lat="47.22535" lon="6.14828">
        <ele>452.4</ele>
        <time>2021-04-10T12:01:25Z</time>
      </trkpt>
      <trkpt lat="47.22534" lon="6.14829">
        <ele>452.6</ele>
        <time>2021-04-10T12:01:26Z</time>
      </trkpt>
      <trkpt lat="47.22533" lon="6.1483">
        <ele>452.6</ele>
        <time>2021-04-10T12:01:27Z</time>
      </trkpt>
      <trkpt lat="47.22531" lon="6.1483">
        <ele>453</ele>
        <time>2021-04-10T12:01:28Z</time>
      </trkpt>
      <trkpt lat="47.2253" lon="6.1483">
        <ele>453</ele>
        <time>2021-04-10T12:01:29Z</time>
      </trkpt>
      <trkpt lat="47.22528" lon="6.14831">
        <ele>453.4</ele>
        <time>2021-04-10T12:01:30Z</time>
      </trkpt>
      <trkpt lat="47.22527" lon="6.14831">
        <ele>453.6</ele>
        <time>2021-04-10T12:01:31Z</time>
      </trkpt>
      <trkpt lat="47.22526" lon="6.14831">
        <ele>454</ele>
        <time>2021-04-10T12:01:32Z</time>
      </trkpt>
      <trkpt lat="47.22525" lon="6.14831">
        <ele>454.2</ele>
        <time>2021-04-10T12:01:33Z</time>
      </trkpt>
      <trkpt lat="47.22525" lon="6.14831">
        <ele>454.6</ele>
        <time>2021-04-10T12:01:34Z</time>
      </trkpt>
      <trkpt lat="47.22525" lon="6.14831">
        <ele>454.8</ele>
        <time>2021-04-10T12:01:35Z</time>
      </trkpt>
      <trkpt lat="47.22525" lon="6.14831">
        <ele>454.8</ele>
        <time>2021-04-10T12:01:36Z</time>
      </trkpt>
      <trkpt lat="47.22524" lon="6.14832">
        <ele>455</ele>
        <time>2021-04-10T12:01:37Z</time>
      </trkpt>
      <trkpt lat="47.22522" lon="6.14832">
        <ele>455</ele>
        <time>2021-04-10T12:01:38Z</time>
      </trkpt>
      <trkpt lat="47.2252" lon="6.14832">
        <ele>455</ele>
        <time>2021-04-10T12:01:39Z</time>
      </trkpt>
      <trkpt lat="47.2252" lon="6.14832">
        <ele>455</ele>
        <time>2021-04-10T12:01:40Z</time>
      </trkpt>
      <trkpt lat="47.22519" lon="6.14833">
        <ele>455.2</ele>
        <time>2021-04-10T12:01:41Z</time>
      </trkpt>
      <trkpt lat="47.22517" lon="6.14833">
        <ele>455.2</ele>
        <time>2021-04-10T12:01:42Z</time>
      </trkpt>
      <trkpt lat="47.22516" lon="6.14834">
        <ele>455.2</ele>
        <time>2021-04-10T12:01:43Z</time>
      </trkpt>
      <trkpt lat="47.22515" lon="6.14834">
        <ele>455.2</ele>
        <time>2021-04-10T12:01:44Z</time>
      </trkpt>
      <trkpt lat="47.22513" lon="6.14835">
        <ele>455.2</ele>
        <time>2021-04-10T12:01:45Z</time>
      </trkpt>
      <trkpt lat="47.22511" lon="6.14835">
        <ele>455.2</ele>
        <time>2021-04-10T12:01:46Z</time>
      </trkpt>
      <trkpt lat="47.22509" lon="6.14836">
        <ele>455.2</ele>
        <time>2021-04-10T12:01:47Z</time>
      </trkpt>
      <trkpt lat="47.22506" lon="6.14836">
        <ele>455</ele>
        <time>2021-04-10T12:01:48Z</time>
      </trkpt>
      <trkpt lat="47.22506" lon="6.14837">
        <ele>455</ele>
        <time>2021-04-10T12:01:49Z</time>
      </trkpt>
      <trkpt lat="47.22504" lon="6.14837">
        <ele>455</ele>
        <time>2021-04-10T12:01:50Z</time>
      </trkpt>
      <trkpt lat="47.22503" lon="6.14837">
        <ele>455</ele>
        <time>2021-04-10T12:01:51Z</time>
      </trkpt>
      <trkpt lat="47.22501" lon="6.14838">
        <ele>455</ele>
        <time>2021-04-10T12:01:52Z</time>
      </trkpt>
      <trkpt lat="47.22498" lon="6.14839">
        <ele>455</ele>
        <time>2021-04-10T12:01:53Z</time>
      </trkpt>
      <trkpt lat="47.22496" lon="6.14839">
        <ele>455</ele>
        <time>2021-04-10T12:01:54Z</time>
      </trkpt>
      <trkpt lat="47.22494" lon="6.14839">
        <ele>455</ele>
        <time>2021-04-10T12:01:55Z</time>
      </trkpt>
      <trkpt lat="47.22491" lon="6.1484">
        <ele>455</ele>
        <time>2021-04-10T12:01:58Z</time>
      </trkpt>
      <trkpt lat="47.2249" lon="6.1484">
        <ele>454.8</ele>
        <time>2021-04-10T12:01:59Z</time>
      </trkpt>
      <trkpt lat="47.22488" lon="6.14842">
        <ele>454.8</ele>
        <time>2021-04-10T12:02:00Z</time>
      </trkpt>
      <trkpt lat="47.22485" lon="6.14843">
        <ele>454.8</ele>
        <time>2021-04-10T12:02:01Z</time>
      </trkpt>
      <trkpt lat="47.2247" lon="6.14847">
        <ele>454.4</ele>
        <time>2021-04-10T12:02:05Z</time>
      </trkpt>
      <trkpt lat="47.22465" lon="6.14848">
        <ele>454.4</ele>
        <time>2021-04-10T12:02:06Z</time>
      </trkpt>
      <trkpt lat="47.2245" lon="6.14853">
        <ele>453.6</ele>
        <time>2021-04-10T12:02:09Z</time>
      </trkpt>
      <trkpt lat="47.22445" lon="6.14854">
        <ele>453.2</ele>
        <time>2021-04-10T12:02:10Z</time>
      </trkpt>
      <trkpt lat="47.2244" lon="6.14855">
        <ele>453.2</ele>
        <time>2021-04-10T12:02:11Z</time>
      </trkpt>
      <trkpt lat="47.22426" lon="6.14859">
        <ele>452.2</ele>
        <time>2021-04-10T12:02:14Z</time>
      </trkpt>
      <trkpt lat="47.22417" lon="6.14862">
        <ele>451.8</ele>
        <time>2021-04-10T12:02:16Z</time>
      </trkpt>
      <trkpt lat="47.22412" lon="6.14863">
        <ele>451.6</ele>
        <time>2021-04-10T12:02:17Z</time>
      </trkpt>
      <trkpt lat="47.22408" lon="6.14864">
        <ele>451.6</ele>
        <time>2021-04-10T12:02:18Z</time>
      </trkpt>
      <trkpt lat="47.22396" lon="6.14867">
        <ele>450.6</ele>
        <time>2021-04-10T12:02:21Z</time>
      </trkpt>
      <trkpt lat="47.22393" lon="6.14868">
        <ele>450</ele>
        <time>2021-04-10T12:02:22Z</time>
      </trkpt>
      <trkpt lat="47.22389" lon="6.14867">
        <ele>450</ele>
        <time>2021-04-10T12:02:23Z</time>
      </trkpt>
      <trkpt lat="47.22386" lon="6.14867">
        <ele>449.4</ele>
        <time>2021-04-10T12:02:24Z</time>
      </trkpt>
      <trkpt lat="47.22382" lon="6.14867">
        <ele>449.2</ele>
        <time>2021-04-10T12:02:25Z</time>
      </trkpt>
      <trkpt lat="47.22375" lon="6.1487">
        <ele>448.2</ele>
        <time>2021-04-10T12:02:27Z</time>
      </trkpt>
      <trkpt lat="47.22369" lon="6.14872">
        <ele>447.4</ele>
        <time>2021-04-10T12:02:29Z</time>
      </trkpt>
      <trkpt lat="47.22367" lon="6.14873">
        <ele>447</ele>
        <time>2021-04-10T12:02:30Z</time>
      </trkpt>
      <trkpt lat="47.22364" lon="6.14874">
        <ele>446.8</ele>
        <time>2021-04-10T12:02:31Z</time>
      </trkpt>
      <trkpt lat="47.22362" lon="6.14873">
        <ele>446.6</ele>
        <time>2021-04-10T12:02:32Z</time>
      </trkpt>
      <trkpt lat="47.22361" lon="6.14873">
        <ele>446.6</ele>
        <time>2021-04-10T12:02:33Z</time>
      </trkpt>
      <trkpt lat="47.2236" lon="6.14875">
        <ele>446.6</ele>
        <time>2021-04-10T12:02:34Z</time>
      </trkpt>
      <trkpt lat="47.2236" lon="6.14874">
        <ele>446.4</ele>
        <time>2021-04-10T12:02:35Z</time>
      </trkpt>
      <trkpt lat="47.2236" lon="6.14874">
        <ele>446.4</ele>
        <time>2021-04-10T12:02:36Z</time>
      </trkpt>
      <trkpt lat="47.2236" lon="6.14874">
        <ele>446.2</ele>
        <time>2021-04-10T12:02:51Z</time>
      </trkpt>
      <trkpt lat="47.2236" lon="6.14874">
        <ele>446</ele>
        <time>2021-04-10T12:03:15Z</time>
      </trkpt>
      <trkpt lat="47.2236" lon="6.14874">
        <ele>446</ele>
        <time>2021-04-10T12:03:57Z</time>
      </trkpt>
      <trkpt lat="47.22353" lon="6.14872">
        <ele>446.2</ele>
        <time>2021-04-10T12:04:00Z</time>
      </trkpt>
      <trkpt lat="47.22338" lon="6.14863">
        <ele>446</ele>
        <time>2021-04-10T12:04:05Z</time>
      </trkpt>
      <trkpt lat="47.22331" lon="6.14859">
        <ele>445.6</ele>
        <time>2021-04-10T12:04:07Z</time>
      </trkpt>
      <trkpt lat="47.22329" lon="6.14858">
        <ele>445.4</ele>
        <time>2021-04-10T12:04:08Z</time>
      </trkpt>
      <trkpt lat="47.22327" lon="6.14857">
        <ele>445.2</ele>
        <time>2021-04-10T12:04:09Z</time>
      </trkpt>
      <trkpt lat="47.22323" lon="6.14853">
        <ele>444.6</ele>
        <time>2021-04-10T12:04:11Z</time>
      </trkpt>
      <trkpt lat="47.22321" lon="6.14852">
        <ele>444.4</ele>
        <time>2021-04-10T12:04:12Z</time>
      </trkpt>
      <trkpt lat="47.22319" lon="6.14852">
        <ele>444.2</ele>
        <time>2021-04-10T12:04:13Z</time>
      </trkpt>
      <trkpt lat="47.22317" lon="6.1485">
        <ele>444</ele>
        <time>2021-04-10T12:04:14Z</time>
      </trkpt>
      <trkpt lat="47.22314" lon="6.14848">
        <ele>444</ele>
        <time>2021-04-10T12:04:15Z</time>
      </trkpt>
      <trkpt lat="47.22306" lon="6.14842">
        <ele>443.8</ele>
        <time>2021-04-10T12:04:17Z</time>
      </trkpt>
      <trkpt lat="47.22302" lon="6.14839">
        <ele>443.4</ele>
        <time>2021-04-10T12:04:18Z</time>
      </trkpt>
      <trkpt lat="47.22285" lon="6.14831">
        <ele>442.4</ele>
        <time>2021-04-10T12:04:22Z</time>
      </trkpt>
      <trkpt lat="47.22261" lon="6.14815">
        <ele>441.6</ele>
        <time>2021-04-10T12:04:26Z</time>
      </trkpt>
      <trkpt lat="47.22255" lon="6.14812">
        <ele>441</ele>
        <time>2021-04-10T12:04:27Z</time>
      </trkpt>
      <trkpt lat="47.22238" lon="6.148">
        <ele>440.2</ele>
        <time>2021-04-10T12:04:30Z</time>
      </trkpt>
      <trkpt lat="47.22232" lon="6.14796">
        <ele>439.8</ele>
        <time>2021-04-10T12:04:31Z</time>
      </trkpt>
      <trkpt lat="47.22228" lon="6.14793">
        <ele>439.4</ele>
        <time>2021-04-10T12:04:32Z</time>
      </trkpt>
      <trkpt lat="47.22224" lon="6.1479">
        <ele>439.2</ele>
        <time>2021-04-10T12:04:33Z</time>
      </trkpt>
      <trkpt lat="47.2222" lon="6.14787">
        <ele>438.6</ele>
        <time>2021-04-10T12:04:34Z</time>
      </trkpt>
      <trkpt lat="47.22217" lon="6.14785">
        <ele>438.4</ele>
        <time>2021-04-10T12:04:35Z</time>
      </trkpt>
      <trkpt lat="47.22214" lon="6.14783">
        <ele>438.2</ele>
        <time>2021-04-10T12:04:36Z</time>
      </trkpt>
      <trkpt lat="47.22211" lon="6.14782">
        <ele>438.4</ele>
        <time>2021-04-10T12:04:37Z</time>
      </trkpt>
      <trkpt lat="47.22208" lon="6.14782">
        <ele>438.4</ele>
        <time>2021-04-10T12:04:38Z</time>
      </trkpt>
      <trkpt lat="47.22205" lon="6.14781">
        <ele>438.6</ele>
        <time>2021-04-10T12:04:39Z</time>
      </trkpt>
      <trkpt lat="47.22203" lon="6.14781">
        <ele>439</ele>
        <time>2021-04-10T12:04:40Z</time>
      </trkpt>
      <trkpt lat="47.22202" lon="6.1478">
        <ele>439.4</ele>
        <time>2021-04-10T12:04:41Z</time>
      </trkpt>
      <trkpt lat="47.22201" lon="6.14779">
        <ele>439.4</ele>
        <time>2021-04-10T12:04:42Z</time>
      </trkpt>
      <trkpt lat="47.22199" lon="6.14779">
        <ele>439.8</ele>
        <time>2021-04-10T12:04:43Z</time>
      </trkpt>
      <trkpt lat="47.22197" lon="6.14778">
        <ele>440</ele>
        <time>2021-04-10T12:04:44Z</time>
      </trkpt>
      <trkpt lat="47.22194" lon="6.14776">
        <ele>441.4</ele>
        <time>2021-04-10T12:04:45Z</time>
      </trkpt>
      <trkpt lat="47.22189" lon="6.14772">
        <ele>442.4</ele>
        <time>2021-04-10T12:04:47Z</time>
      </trkpt>
      <trkpt lat="47.22187" lon="6.14771">
        <ele>442.8</ele>
        <time>2021-04-10T12:04:48Z</time>
      </trkpt>
      <trkpt lat="47.22186" lon="6.1477">
        <ele>443.2</ele>
        <time>2021-04-10T12:04:49Z</time>
      </trkpt>
      <trkpt lat="47.22183" lon="6.14769">
        <ele>443.4</ele>
        <time>2021-04-10T12:04:50Z</time>
      </trkpt>
      <trkpt lat="47.22182" lon="6.14767">
        <ele>443.6</ele>
        <time>2021-04-10T12:04:51Z</time>
      </trkpt>
      <trkpt lat="47.22179" lon="6.14767">
        <ele>443.8</ele>
        <time>2021-04-10T12:04:52Z</time>
      </trkpt>
      <trkpt lat="47.22171" lon="6.14763">
        <ele>444.2</ele>
        <time>2021-04-10T12:04:55Z</time>
      </trkpt>
      <trkpt lat="47.22169" lon="6.14763">
        <ele>444.4</ele>
        <time>2021-04-10T12:04:56Z</time>
      </trkpt>
      <trkpt lat="47.22166" lon="6.14761">
        <ele>444.6</ele>
        <time>2021-04-10T12:04:57Z</time>
      </trkpt>
      <trkpt lat="47.22162" lon="6.1476">
        <ele>444.6</ele>
        <time>2021-04-10T12:04:58Z</time>
      </trkpt>
      <trkpt lat="47.2216" lon="6.14758">
        <ele>444.6</ele>
        <time>2021-04-10T12:04:59Z</time>
      </trkpt>
      <trkpt lat="47.22157" lon="6.14757">
        <ele>444.6</ele>
        <time>2021-04-10T12:05:00Z</time>
      </trkpt>
      <trkpt lat="47.22154" lon="6.14755">
        <ele>444.6</ele>
        <time>2021-04-10T12:05:01Z</time>
      </trkpt>
      <trkpt lat="47.22151" lon="6.14753">
        <ele>444.6</ele>
        <time>2021-04-10T12:05:02Z</time>
      </trkpt>
      <trkpt lat="47.22146" lon="6.1475">
        <ele>444.6</ele>
        <time>2021-04-10T12:05:03Z</time>
      </trkpt>
      <trkpt lat="47.22141" lon="6.14747">
        <ele>444.6</ele>
        <time>2021-04-10T12:05:04Z</time>
      </trkpt>
      <trkpt lat="47.22138" lon="6.14744">
        <ele>444.6</ele>
        <time>2021-04-10T12:05:05Z</time>
      </trkpt>
      <trkpt lat="47.22135" lon="6.14741">
        <ele>444.6</ele>
        <time>2021-04-10T12:05:06Z</time>
      </trkpt>
      <trkpt lat="47.22132" lon="6.14739">
        <ele>444.6</ele>
        <time>2021-04-10T12:05:07Z</time>
      </trkpt>
      <trkpt lat="47.22128" lon="6.14737">
        <ele>444.6</ele>
        <time>2021-04-10T12:05:08Z</time>
      </trkpt>
      <trkpt lat="47.22123" lon="6.14735">
        <ele>444.4</ele>
        <time>2021-04-10T12:05:09Z</time>
      </trkpt>
      <trkpt lat="47.22118" lon="6.14733">
        <ele>444.4</ele>
        <time>2021-04-10T12:05:10Z</time>
      </trkpt>
      <trkpt lat="47.22114" lon="6.14731">
        <ele>444.2</ele>
        <time>2021-04-10T12:05:11Z</time>
      </trkpt>
      <trkpt lat="47.22112" lon="6.14728">
        <ele>443.8</ele>
        <time>2021-04-10T12:05:12Z</time>
      </trkpt>
      <trkpt lat="47.22111" lon="6.14728">
        <ele>443.8</ele>
        <time>2021-04-10T12:05:13Z</time>
      </trkpt>
      <trkpt lat="47.22111" lon="6.14728">
        <ele>443.6</ele>
        <time>2021-04-10T12:05:14Z</time>
      </trkpt>
      <trkpt lat="47.22111" lon="6.14728">
        <ele>443.6</ele>
        <time>2021-04-10T12:05:15Z</time>
      </trkpt>
      <trkpt lat="47.2211" lon="6.14728">
        <ele>443.4</ele>
        <time>2021-04-10T12:05:16Z</time>
      </trkpt>
      <trkpt lat="47.22109" lon="6.14729">
        <ele>443.4</ele>
        <time>2021-04-10T12:05:17Z</time>
      </trkpt>
      <trkpt lat="47.22108" lon="6.1473">
        <ele>443.4</ele>
        <time>2021-04-10T12:05:18Z</time>
      </trkpt>
      <trkpt lat="47.22108" lon="6.14731">
        <ele>443.4</ele>
        <time>2021-04-10T12:05:19Z</time>
      </trkpt>
      <trkpt lat="47.22108" lon="6.14733">
        <ele>443.4</ele>
        <time>2021-04-10T12:05:22Z</time>
      </trkpt>
      <trkpt lat="47.22108" lon="6.14733">
        <ele>443.4</ele>
        <time>2021-04-10T12:05:23Z</time>
      </trkpt>
      <trkpt lat="47.22108" lon="6.14733">
        <ele>443.4</ele>
        <time>2021-04-10T12:05:24Z</time>
      </trkpt>
      <trkpt lat="47.22109" lon="6.14733">
        <ele>443.4</ele>
        <time>2021-04-10T12:05:27Z</time>
      </trkpt>
      <trkpt lat="47.2212" lon="6.14735">
        <ele>443.4</ele>
        <time>2021-04-10T12:05:32Z</time>
      </trkpt>
      <trkpt lat="47.22135" lon="6.14742">
        <ele>443.4</ele>
        <time>2021-04-10T12:05:37Z</time>
      </trkpt>
      <trkpt lat="47.22142" lon="6.14746">
        <ele>443.6</ele>
        <time>2021-04-10T12:05:39Z</time>
      </trkpt>
      <trkpt lat="47.22144" lon="6.14747">
        <ele>443.6</ele>
        <time>2021-04-10T12:05:40Z</time>
      </trkpt>
      <trkpt lat="47.22148" lon="6.14748">
        <ele>443.8</ele>
        <time>2021-04-10T12:05:41Z</time>
      </trkpt>
      <trkpt lat="47.22151" lon="6.1475">
        <ele>444</ele>
        <time>2021-04-10T12:05:42Z</time>
      </trkpt>
      <trkpt lat="47.22154" lon="6.14751">
        <ele>444.2</ele>
        <time>2021-04-10T12:05:43Z</time>
      </trkpt>
      <trkpt lat="47.22163" lon="6.14756">
        <ele>444.4</ele>
        <time>2021-04-10T12:05:46Z</time>
      </trkpt>
      <trkpt lat="47.22166" lon="6.14758">
        <ele>444.4</ele>
        <time>2021-04-10T12:05:47Z</time>
      </trkpt>
      <trkpt lat="47.22168" lon="6.14759">
        <ele>444.6</ele>
        <time>2021-04-10T12:05:48Z</time>
      </trkpt>
      <trkpt lat="47.22171" lon="6.14762">
        <ele>444.6</ele>
        <time>2021-04-10T12:05:49Z</time>
      </trkpt>
      <trkpt lat="47.22173" lon="6.14764">
        <ele>444.6</ele>
        <time>2021-04-10T12:05:50Z</time>
      </trkpt>
      <trkpt lat="47.22176" lon="6.14766">
        <ele>444.6</ele>
        <time>2021-04-10T12:05:51Z</time>
      </trkpt>
      <trkpt lat="47.2218" lon="6.14769">
        <ele>444.6</ele>
        <time>2021-04-10T12:05:52Z</time>
      </trkpt>
      <trkpt lat="47.22183" lon="6.14771">
        <ele>444.6</ele>
        <time>2021-04-10T12:05:53Z</time>
      </trkpt>
      <trkpt lat="47.22193" lon="6.14775">
        <ele>444.4</ele>
        <time>2021-04-10T12:05:55Z</time>
      </trkpt>
      <trkpt lat="47.22211" lon="6.14783">
        <ele>443.6</ele>
        <time>2021-04-10T12:05:58Z</time>
      </trkpt>
      <trkpt lat="47.22217" lon="6.14787">
        <ele>443.2</ele>
        <time>2021-04-10T12:05:59Z</time>
      </trkpt>
      <trkpt lat="47.22222" lon="6.14791">
        <ele>443</ele>
        <time>2021-04-10T12:06:00Z</time>
      </trkpt>
      <trkpt lat="47.22228" lon="6.14793">
        <ele>442.2</ele>
        <time>2021-04-10T12:06:01Z</time>
      </trkpt>
      <trkpt lat="47.22231" lon="6.14797">
        <ele>441.2</ele>
        <time>2021-04-10T12:06:02Z</time>
      </trkpt>
      <trkpt lat="47.22235" lon="6.14801">
        <ele>440</ele>
        <time>2021-04-10T12:06:03Z</time>
      </trkpt>
      <trkpt lat="47.22239" lon="6.14804">
        <ele>439.6</ele>
        <time>2021-04-10T12:06:04Z</time>
      </trkpt>
      <trkpt lat="47.22242" lon="6.14806">
        <ele>439.2</ele>
        <time>2021-04-10T12:06:05Z</time>
      </trkpt>
      <trkpt lat="47.22244" lon="6.14808">
        <ele>438.8</ele>
        <time>2021-04-10T12:06:06Z</time>
      </trkpt>
      <trkpt lat="47.22247" lon="6.1481">
        <ele>438.8</ele>
        <time>2021-04-10T12:06:07Z</time>
      </trkpt>
      <trkpt lat="47.22249" lon="6.14811">
        <ele>438.6</ele>
        <time>2021-04-10T12:06:08Z</time>
      </trkpt>
      <trkpt lat="47.22252" lon="6.14813">
        <ele>438.6</ele>
        <time>2021-04-10T12:06:09Z</time>
      </trkpt>
      <trkpt lat="47.22254" lon="6.14814">
        <ele>438.4</ele>
        <time>2021-04-10T12:06:10Z</time>
      </trkpt>
      <trkpt lat="47.22257" lon="6.14815">
        <ele>438.4</ele>
        <time>2021-04-10T12:06:11Z</time>
      </trkpt>
      <trkpt lat="47.22271" lon="6.14824">
        <ele>438.8</ele>
        <time>2021-04-10T12:06:16Z</time>
      </trkpt>
      <trkpt lat="47.22274" lon="6.14824">
        <ele>439.2</ele>
        <time>2021-04-10T12:06:17Z</time>
      </trkpt>
      <trkpt lat="47.22277" lon="6.14824">
        <ele>439.4</ele>
        <time>2021-04-10T12:06:18Z</time>
      </trkpt>
      <trkpt lat="47.22279" lon="6.14825">
        <ele>440</ele>
        <time>2021-04-10T12:06:19Z</time>
      </trkpt>
      <trkpt lat="47.22292" lon="6.14833">
        <ele>441.4</ele>
        <time>2021-04-10T12:06:23Z</time>
      </trkpt>
      <trkpt lat="47.22305" lon="6.14842">
        <ele>442.4</ele>
        <time>2021-04-10T12:06:28Z</time>
      </trkpt>
      <trkpt lat="47.22308" lon="6.14844">
        <ele>442.6</ele>
        <time>2021-04-10T12:06:29Z</time>
      </trkpt>
      <trkpt lat="47.22311" lon="6.14845">
        <ele>442.6</ele>
        <time>2021-04-10T12:06:30Z</time>
      </trkpt>
      <trkpt lat="47.22314" lon="6.14848">
        <ele>442.6</ele>
        <time>2021-04-10T12:06:31Z</time>
      </trkpt>
      <trkpt lat="47.22319" lon="6.14851">
        <ele>443</ele>
        <time>2021-04-10T12:06:33Z</time>
      </trkpt>
      <trkpt lat="47.22322" lon="6.14853">
        <ele>443</ele>
        <time>2021-04-10T12:06:34Z</time>
      </trkpt>
      <trkpt lat="47.22324" lon="6.14856">
        <ele>443.2</ele>
        <time>2021-04-10T12:06:35Z</time>
      </trkpt>
      <trkpt lat="47.22327" lon="6.14858">
        <ele>443.4</ele>
        <time>2021-04-10T12:06:36Z</time>
      </trkpt>
      <trkpt lat="47.2233" lon="6.1486">
        <ele>443.8</ele>
        <time>2021-04-10T12:06:37Z</time>
      </trkpt>
      <trkpt lat="47.22332" lon="6.14861">
        <ele>443.8</ele>
        <time>2021-04-10T12:06:38Z</time>
      </trkpt>
      <trkpt lat="47.22335" lon="6.14863">
        <ele>444</ele>
        <time>2021-04-10T12:06:39Z</time>
      </trkpt>
      <trkpt lat="47.22339" lon="6.14866">
        <ele>444.2</ele>
        <time>2021-04-10T12:06:40Z</time>
      </trkpt>
      <trkpt lat="47.22341" lon="6.14868">
        <ele>444.6</ele>
        <time>2021-04-10T12:06:41Z</time>
      </trkpt>
      <trkpt lat="47.22342" lon="6.14871">
        <ele>444.8</ele>
        <time>2021-04-10T12:06:42Z</time>
      </trkpt>
      <trkpt lat="47.22343" lon="6.14875">
        <ele>445</ele>
        <time>2021-04-10T12:06:43Z</time>
      </trkpt>
      <trkpt lat="47.22343" lon="6.14877">
        <ele>445.2</ele>
        <time>2021-04-10T12:06:44Z</time>
      </trkpt>
      <trkpt lat="47.22341" lon="6.14882">
        <ele>445.2</ele>
        <time>2021-04-10T12:06:45Z</time>
      </trkpt>
      <trkpt lat="47.22341" lon="6.14886">
        <ele>445.4</ele>
        <time>2021-04-10T12:06:46Z</time>
      </trkpt>
      <trkpt lat="47.22341" lon="6.1489">
        <ele>445.4</ele>
        <time>2021-04-10T12:06:47Z</time>
      </trkpt>
      <trkpt lat="47.22342" lon="6.14895">
        <ele>445.4</ele>
        <time>2021-04-10T12:06:48Z</time>
      </trkpt>
      <trkpt lat="47.22341" lon="6.14899">
        <ele>445.4</ele>
        <time>2021-04-10T12:06:49Z</time>
      </trkpt>
      <trkpt lat="47.22339" lon="6.14906">
        <ele>445.4</ele>
        <time>2021-04-10T12:06:50Z</time>
      </trkpt>
      <trkpt lat="47.22337" lon="6.14913">
        <ele>445.4</ele>
        <time>2021-04-10T12:06:51Z</time>
      </trkpt>
      <trkpt lat="47.22336" lon="6.14921">
        <ele>445.4</ele>
        <time>2021-04-10T12:06:52Z</time>
      </trkpt>
      <trkpt lat="47.22334" lon="6.14928">
        <ele>445.2</ele>
        <time>2021-04-10T12:06:53Z</time>
      </trkpt>
      <trkpt lat="47.22333" lon="6.14934">
        <ele>445.2</ele>
        <time>2021-04-10T12:06:54Z</time>
      </trkpt>
      <trkpt lat="47.22331" lon="6.14941">
        <ele>445</ele>
        <time>2021-04-10T12:06:55Z</time>
      </trkpt>
      <trkpt lat="47.22329" lon="6.14949">
        <ele>444.8</ele>
        <time>2021-04-10T12:06:56Z</time>
      </trkpt>
      <trkpt lat="47.22328" lon="6.14956">
        <ele>444.8</ele>
        <time>2021-04-10T12:06:57Z</time>
      </trkpt>
      <trkpt lat="47.22326" lon="6.14963">
        <ele>444.6</ele>
        <time>2021-04-10T12:06:58Z</time>
      </trkpt>
      <trkpt lat="47.22324" lon="6.1497">
        <ele>444.2</ele>
        <time>2021-04-10T12:06:59Z</time>
      </trkpt>
      <trkpt lat="47.22321" lon="6.14985">
        <ele>443.8</ele>
        <time>2021-04-10T12:07:01Z</time>
      </trkpt>
      <trkpt lat="47.22315" lon="6.15009">
        <ele>443.4</ele>
        <time>2021-04-10T12:07:04Z</time>
      </trkpt>
      <trkpt lat="47.22304" lon="6.15055">
        <ele>443.4</ele>
        <time>2021-04-10T12:07:11Z</time>
      </trkpt>
      <trkpt lat="47.22302" lon="6.15061">
        <ele>443.4</ele>
        <time>2021-04-10T12:07:12Z</time>
      </trkpt>
      <trkpt lat="47.22301" lon="6.15067">
        <ele>443.4</ele>
        <time>2021-04-10T12:07:13Z</time>
      </trkpt>
      <trkpt lat="47.22299" lon="6.15072">
        <ele>443.4</ele>
        <time>2021-04-10T12:07:14Z</time>
      </trkpt>
      <trkpt lat="47.22298" lon="6.15076">
        <ele>443.6</ele>
        <time>2021-04-10T12:07:15Z</time>
      </trkpt>
      <trkpt lat="47.22297" lon="6.15081">
        <ele>443.6</ele>
        <time>2021-04-10T12:07:16Z</time>
      </trkpt>
      <trkpt lat="47.22296" lon="6.15085">
        <ele>443.6</ele>
        <time>2021-04-10T12:07:17Z</time>
      </trkpt>
      <trkpt lat="47.22295" lon="6.1509">
        <ele>443.4</ele>
        <time>2021-04-10T12:07:18Z</time>
      </trkpt>
      <trkpt lat="47.22294" lon="6.15095">
        <ele>443.4</ele>
        <time>2021-04-10T12:07:19Z</time>
      </trkpt>
      <trkpt lat="47.22286" lon="6.15129">
        <ele>443</ele>
        <time>2021-04-10T12:07:25Z</time>
      </trkpt>
      <trkpt lat="47.22284" lon="6.15134">
        <ele>442.6</ele>
        <time>2021-04-10T12:07:26Z</time>
      </trkpt>
      <trkpt lat="47.22275" lon="6.15175">
        <ele>443</ele>
        <time>2021-04-10T12:07:34Z</time>
      </trkpt>
      <trkpt lat="47.22274" lon="6.1518">
        <ele>443</ele>
        <time>2021-04-10T12:07:35Z</time>
      </trkpt>
      <trkpt lat="47.22273" lon="6.15185">
        <ele>443</ele>
        <time>2021-04-10T12:07:36Z</time>
      </trkpt>
      <trkpt lat="47.22272" lon="6.1519">
        <ele>443.2</ele>
        <time>2021-04-10T12:07:37Z</time>
      </trkpt>
      <trkpt lat="47.22271" lon="6.15194">
        <ele>443.4</ele>
        <time>2021-04-10T12:07:38Z</time>
      </trkpt>
      <trkpt lat="47.2227" lon="6.15199">
        <ele>443.6</ele>
        <time>2021-04-10T12:07:39Z</time>
      </trkpt>
      <trkpt lat="47.22269" lon="6.15203">
        <ele>443.8</ele>
        <time>2021-04-10T12:07:40Z</time>
      </trkpt>
      <trkpt lat="47.22268" lon="6.15208">
        <ele>443.8</ele>
        <time>2021-04-10T12:07:41Z</time>
      </trkpt>
      <trkpt lat="47.22267" lon="6.15212">
        <ele>444</ele>
        <time>2021-04-10T12:07:42Z</time>
      </trkpt>
      <trkpt lat="47.22265" lon="6.15217">
        <ele>444.2</ele>
        <time>2021-04-10T12:07:43Z</time>
      </trkpt>
      <trkpt lat="47.22264" lon="6.15221">
        <ele>444.2</ele>
        <time>2021-04-10T12:07:44Z</time>
      </trkpt>
      <trkpt lat="47.22263" lon="6.15226">
        <ele>444.2</ele>
        <time>2021-04-10T12:07:45Z</time>
      </trkpt>
      <trkpt lat="47.22262" lon="6.1523">
        <ele>444.4</ele>
        <time>2021-04-10T12:07:46Z</time>
      </trkpt>
      <trkpt lat="47.22261" lon="6.15234">
        <ele>444.6</ele>
        <time>2021-04-10T12:07:47Z</time>
      </trkpt>
      <trkpt lat="47.2226" lon="6.15238">
        <ele>444.6</ele>
        <time>2021-04-10T12:07:48Z</time>
      </trkpt>
      <trkpt lat="47.22259" lon="6.15243">
        <ele>445</ele>
        <time>2021-04-10T12:07:49Z</time>
      </trkpt>
      <trkpt lat="47.22258" lon="6.15247">
        <ele>445</ele>
        <time>2021-04-10T12:07:50Z</time>
      </trkpt>
      <trkpt lat="47.22256" lon="6.15251">
        <ele>445.2</ele>
        <time>2021-04-10T12:07:51Z</time>
      </trkpt>
      <trkpt lat="47.22255" lon="6.15255">
        <ele>445.4</ele>
        <time>2021-04-10T12:07:52Z</time>
      </trkpt>
      <trkpt lat="47.22254" lon="6.15258">
        <ele>445.8</ele>
        <time>2021-04-10T12:07:53Z</time>
      </trkpt>
      <trkpt lat="47.22254" lon="6.15262">
        <ele>445.8</ele>
        <time>2021-04-10T12:07:54Z</time>
      </trkpt>
      <trkpt lat="47.22253" lon="6.15266">
        <ele>446</ele>
        <time>2021-04-10T12:07:55Z</time>
      </trkpt>
      <trkpt lat="47.22252" lon="6.1527">
        <ele>446</ele>
        <time>2021-04-10T12:07:56Z</time>
      </trkpt>
      <trkpt lat="47.22251" lon="6.15274">
        <ele>446.2</ele>
        <time>2021-04-10T12:07:57Z</time>
      </trkpt>
      <trkpt lat="47.2225" lon="6.15278">
        <ele>446.4</ele>
        <time>2021-04-10T12:07:58Z</time>
      </trkpt>
      <trkpt lat="47.22249" lon="6.15282">
        <ele>446.4</ele>
        <time>2021-04-10T12:07:59Z</time>
      </trkpt>
      <trkpt lat="47.22248" lon="6.15285">
        <ele>446.6</ele>
        <time>2021-04-10T12:08:00Z</time>
      </trkpt>
      <trkpt lat="47.22247" lon="6.15288">
        <ele>446.6</ele>
        <time>2021-04-10T12:08:01Z</time>
      </trkpt>
      <trkpt lat="47.22246" lon="6.15292">
        <ele>447</ele>
        <time>2021-04-10T12:08:02Z</time>
      </trkpt>
      <trkpt lat="47.22245" lon="6.15296">
        <ele>447.2</ele>
        <time>2021-04-10T12:08:03Z</time>
      </trkpt>
      <trkpt lat="47.22244" lon="6.153">
        <ele>447.4</ele>
        <time>2021-04-10T12:08:04Z</time>
      </trkpt>
      <trkpt lat="47.22243" lon="6.15304">
        <ele>447.4</ele>
        <time>2021-04-10T12:08:05Z</time>
      </trkpt>
      <trkpt lat="47.22242" lon="6.15308">
        <ele>447.8</ele>
        <time>2021-04-10T12:08:06Z</time>
      </trkpt>
      <trkpt lat="47.2224" lon="6.15313">
        <ele>448</ele>
        <time>2021-04-10T12:08:07Z</time>
      </trkpt>
      <trkpt lat="47.22239" lon="6.15317">
        <ele>448</ele>
        <time>2021-04-10T12:08:08Z</time>
      </trkpt>
      <trkpt lat="47.22238" lon="6.15321">
        <ele>448.2</ele>
        <time>2021-04-10T12:08:09Z</time>
      </trkpt>
      <trkpt lat="47.22237" lon="6.15325">
        <ele>448.4</ele>
        <time>2021-04-10T12:08:10Z</time>
      </trkpt>
      <trkpt lat="47.22236" lon="6.1533">
        <ele>448.6</ele>
        <time>2021-04-10T12:08:11Z</time>
      </trkpt>
      <trkpt lat="47.22234" lon="6.15334">
        <ele>448.6</ele>
        <time>2021-04-10T12:08:12Z</time>
      </trkpt>
      <trkpt lat="47.22233" lon="6.15338">
        <ele>448.6</ele>
        <time>2021-04-10T12:08:13Z</time>
      </trkpt>
      <trkpt lat="47.22232" lon="6.15343">
        <ele>448.8</ele>
        <time>2021-04-10T12:08:14Z</time>
      </trkpt>
      <trkpt lat="47.2223" lon="6.15347">
        <ele>448.8</ele>
        <time>2021-04-10T12:08:15Z</time>
      </trkpt>
      <trkpt lat="47.22229" lon="6.15352">
        <ele>448.8</ele>
        <time>2021-04-10T12:08:16Z</time>
      </trkpt>
      <trkpt lat="47.22228" lon="6.15357">
        <ele>449</ele>
        <time>2021-04-10T12:08:17Z</time>
      </trkpt>
      <trkpt lat="47.22227" lon="6.15361">
        <ele>449</ele>
        <time>2021-04-10T12:08:18Z</time>
      </trkpt>
      <trkpt lat="47.22226" lon="6.15366">
        <ele>449</ele>
        <time>2021-04-10T12:08:19Z</time>
      </trkpt>
      <trkpt lat="47.22224" lon="6.15372">
        <ele>449.2</ele>
        <time>2021-04-10T12:08:20Z</time>
      </trkpt>
      <trkpt lat="47.22223" lon="6.15376">
        <ele>449.2</ele>
        <time>2021-04-10T12:08:21Z</time>
      </trkpt>
      <trkpt lat="47.22221" lon="6.15381">
        <ele>449.4</ele>
        <time>2021-04-10T12:08:22Z</time>
      </trkpt>
      <trkpt lat="47.2222" lon="6.15385">
        <ele>449.4</ele>
        <time>2021-04-10T12:08:23Z</time>
      </trkpt>
      <trkpt lat="47.22219" lon="6.1539">
        <ele>449.4</ele>
        <time>2021-04-10T12:08:24Z</time>
      </trkpt>
      <trkpt lat="47.22218" lon="6.15395">
        <ele>449.4</ele>
        <time>2021-04-10T12:08:25Z</time>
      </trkpt>
      <trkpt lat="47.22216" lon="6.15399">
        <ele>449.4</ele>
        <time>2021-04-10T12:08:26Z</time>
      </trkpt>
      <trkpt lat="47.22215" lon="6.15404">
        <ele>449.4</ele>
        <time>2021-04-10T12:08:27Z</time>
      </trkpt>
      <trkpt lat="47.22214" lon="6.1541">
        <ele>449.6</ele>
        <time>2021-04-10T12:08:28Z</time>
      </trkpt>
      <trkpt lat="47.22213" lon="6.15416">
        <ele>449.4</ele>
        <time>2021-04-10T12:08:29Z</time>
      </trkpt>
      <trkpt lat="47.22211" lon="6.15421">
        <ele>449.4</ele>
        <time>2021-04-10T12:08:30Z</time>
      </trkpt>
      <trkpt lat="47.22208" lon="6.15433">
        <ele>449.2</ele>
        <time>2021-04-10T12:08:32Z</time>
      </trkpt>
      <trkpt lat="47.22204" lon="6.15451">
        <ele>449.2</ele>
        <time>2021-04-10T12:08:35Z</time>
      </trkpt>
      <trkpt lat="47.22195" lon="6.15484">
        <ele>448.8</ele>
        <time>2021-04-10T12:08:40Z</time>
      </trkpt>
      <trkpt lat="47.22182" lon="6.15535">
        <ele>448</ele>
        <time>2021-04-10T12:08:47Z</time>
      </trkpt>
      <trkpt lat="47.22178" lon="6.1555">
        <ele>447.8</ele>
        <time>2021-04-10T12:08:49Z</time>
      </trkpt>
      <trkpt lat="47.22174" lon="6.15558">
        <ele>447.6</ele>
        <time>2021-04-10T12:08:50Z</time>
      </trkpt>
      <trkpt lat="47.2217" lon="6.15564">
        <ele>447.4</ele>
        <time>2021-04-10T12:08:51Z</time>
      </trkpt>
      <trkpt lat="47.22165" lon="6.15569">
        <ele>447.4</ele>
        <time>2021-04-10T12:08:52Z</time>
      </trkpt>
      <trkpt lat="47.22159" lon="6.15573">
        <ele>447</ele>
        <time>2021-04-10T12:08:53Z</time>
      </trkpt>
      <trkpt lat="47.22153" lon="6.15575">
        <ele>446.8</ele>
        <time>2021-04-10T12:08:54Z</time>
      </trkpt>
      <trkpt lat="47.22146" lon="6.15575">
        <ele>446.2</ele>
        <time>2021-04-10T12:08:55Z</time>
      </trkpt>
      <trkpt lat="47.2214" lon="6.15576">
        <ele>445.8</ele>
        <time>2021-04-10T12:08:56Z</time>
      </trkpt>
      <trkpt lat="47.22134" lon="6.15577">
        <ele>445.6</ele>
        <time>2021-04-10T12:08:57Z</time>
      </trkpt>
      <trkpt lat="47.22127" lon="6.15578">
        <ele>444.6</ele>
        <time>2021-04-10T12:08:58Z</time>
      </trkpt>
      <trkpt lat="47.22116" lon="6.1558">
        <ele>443.4</ele>
        <time>2021-04-10T12:09:00Z</time>
      </trkpt>
      <trkpt lat="47.22111" lon="6.1558">
        <ele>443.2</ele>
        <time>2021-04-10T12:09:01Z</time>
      </trkpt>
      <trkpt lat="47.22106" lon="6.15582">
        <ele>442.8</ele>
        <time>2021-04-10T12:09:02Z</time>
      </trkpt>
      <trkpt lat="47.22101" lon="6.15583">
        <ele>442.8</ele>
        <time>2021-04-10T12:09:03Z</time>
      </trkpt>
      <trkpt lat="47.22096" lon="6.15584">
        <ele>442.6</ele>
        <time>2021-04-10T12:09:04Z</time>
      </trkpt>
      <trkpt lat="47.22091" lon="6.15584">
        <ele>442.6</ele>
        <time>2021-04-10T12:09:05Z</time>
      </trkpt>
      <trkpt lat="47.22087" lon="6.15585">
        <ele>442.4</ele>
        <time>2021-04-10T12:09:06Z</time>
      </trkpt>
      <trkpt lat="47.22083" lon="6.15586">
        <ele>442.4</ele>
        <time>2021-04-10T12:09:07Z</time>
      </trkpt>
      <trkpt lat="47.22079" lon="6.15587">
        <ele>442.4</ele>
        <time>2021-04-10T12:09:08Z</time>
      </trkpt>
      <trkpt lat="47.22075" lon="6.15587">
        <ele>442.4</ele>
        <time>2021-04-10T12:09:09Z</time>
      </trkpt>
      <trkpt lat="47.22072" lon="6.15587">
        <ele>442.2</ele>
        <time>2021-04-10T12:09:10Z</time>
      </trkpt>
      <trkpt lat="47.22069" lon="6.15588">
        <ele>442.2</ele>
        <time>2021-04-10T12:09:11Z</time>
      </trkpt>
      <trkpt lat="47.22066" lon="6.15588">
        <ele>442.2</ele>
        <time>2021-04-10T12:09:12Z</time>
      </trkpt>
      <trkpt lat="47.22062" lon="6.15589">
        <ele>442</ele>
        <time>2021-04-10T12:09:13Z</time>
      </trkpt>
      <trkpt lat="47.22056" lon="6.1559">
        <ele>441.8</ele>
        <time>2021-04-10T12:09:15Z</time>
      </trkpt>
      <trkpt lat="47.22052" lon="6.15591">
        <ele>441.4</ele>
        <time>2021-04-10T12:09:16Z</time>
      </trkpt>
      <trkpt lat="47.22049" lon="6.15592">
        <ele>441.2</ele>
        <time>2021-04-10T12:09:17Z</time>
      </trkpt>
      <trkpt lat="47.22042" lon="6.15593">
        <ele>441</ele>
        <time>2021-04-10T12:09:19Z</time>
      </trkpt>
      <trkpt lat="47.22038" lon="6.15593">
        <ele>441</ele>
        <time>2021-04-10T12:09:20Z</time>
      </trkpt>
      <trkpt lat="47.22036" lon="6.15593">
        <ele>441</ele>
        <time>2021-04-10T12:09:21Z</time>
      </trkpt>
      <trkpt lat="47.22034" lon="6.15593">
        <ele>440.8</ele>
        <time>2021-04-10T12:09:22Z</time>
      </trkpt>
      <trkpt lat="47.22031" lon="6.15593">
        <ele>440.8</ele>
        <time>2021-04-10T12:09:23Z</time>
      </trkpt>
      <trkpt lat="47.22029" lon="6.15594">
        <ele>440.6</ele>
        <time>2021-04-10T12:09:24Z</time>
      </trkpt>
      <trkpt lat="47.22027" lon="6.15596">
        <ele>440.6</ele>
        <time>2021-04-10T12:09:25Z</time>
      </trkpt>
      <trkpt lat="47.22025" lon="6.15596">
        <ele>440.4</ele>
        <time>2021-04-10T12:09:26Z</time>
      </trkpt>
      <trkpt lat="47.22023" lon="6.15597">
        <ele>440.4</ele>
        <time>2021-04-10T12:09:27Z</time>
      </trkpt>
      <trkpt lat="47.22018" lon="6.15597">
        <ele>440.2</ele>
        <time>2021-04-10T12:09:29Z</time>
      </trkpt>
      <trkpt lat="47.22016" lon="6.15598">
        <ele>440</ele>
        <time>2021-04-10T12:09:30Z</time>
      </trkpt>
      <trkpt lat="47.22008" lon="6.156">
        <ele>439.8</ele>
        <time>2021-04-10T12:09:33Z</time>
      </trkpt>
      <trkpt lat="47.21994" lon="6.15603">
        <ele>439.4</ele>
        <time>2021-04-10T12:09:39Z</time>
      </trkpt>
      <trkpt lat="47.2199" lon="6.15604">
        <ele>439.2</ele>
        <time>2021-04-10T12:09:41Z</time>
      </trkpt>
      <trkpt lat="47.21987" lon="6.15604">
        <ele>439.2</ele>
        <time>2021-04-10T12:09:42Z</time>
      </trkpt>
      <trkpt lat="47.21982" lon="6.15604">
        <ele>439.2</ele>
        <time>2021-04-10T12:09:44Z</time>
      </trkpt>
      <trkpt lat="47.2198" lon="6.15604">
        <ele>439</ele>
        <time>2021-04-10T12:09:45Z</time>
      </trkpt>
      <trkpt lat="47.21975" lon="6.15605">
        <ele>439</ele>
        <time>2021-04-10T12:09:47Z</time>
      </trkpt>
      <trkpt lat="47.2196" lon="6.15608">
        <ele>439.4</ele>
        <time>2021-04-10T12:09:54Z</time>
      </trkpt>
      <trkpt lat="47.21959" lon="6.15609">
        <ele>439.4</ele>
        <time>2021-04-10T12:09:55Z</time>
      </trkpt>
      <trkpt lat="47.21957" lon="6.15609">
        <ele>439.4</ele>
        <time>2021-04-10T12:09:56Z</time>
      </trkpt>
      <trkpt lat="47.21954" lon="6.15609">
        <ele>439.4</ele>
        <time>2021-04-10T12:09:57Z</time>
      </trkpt>
      <trkpt lat="47.21938" lon="6.15612">
        <ele>439.6</ele>
        <time>2021-04-10T12:10:01Z</time>
      </trkpt>
      <trkpt lat="47.2191" lon="6.15617">
        <ele>439</ele>
        <time>2021-04-10T12:10:07Z</time>
      </trkpt>
      <trkpt lat="47.21907" lon="6.15617">
        <ele>438.8</ele>
        <time>2021-04-10T12:10:08Z</time>
      </trkpt>
      <trkpt lat="47.21903" lon="6.15618">
        <ele>438.8</ele>
        <time>2021-04-10T12:10:09Z</time>
      </trkpt>
      <trkpt lat="47.21899" lon="6.15618">
        <ele>438.6</ele>
        <time>2021-04-10T12:10:10Z</time>
      </trkpt>
      <trkpt lat="47.21896" lon="6.15619">
        <ele>438.6</ele>
        <time>2021-04-10T12:10:11Z</time>
      </trkpt>
      <trkpt lat="47.21893" lon="6.1562">
        <ele>438.6</ele>
        <time>2021-04-10T12:10:12Z</time>
      </trkpt>
      <trkpt lat="47.21891" lon="6.15621">
        <ele>438.6</ele>
        <time>2021-04-10T12:10:13Z</time>
      </trkpt>
      <trkpt lat="47.21888" lon="6.15622">
        <ele>438.6</ele>
        <time>2021-04-10T12:10:14Z</time>
      </trkpt>
      <trkpt lat="47.21884" lon="6.15623">
        <ele>438.6</ele>
        <time>2021-04-10T12:10:15Z</time>
      </trkpt>
      <trkpt lat="47.21875" lon="6.15624">
        <ele>438.4</ele>
        <time>2021-04-10T12:10:18Z</time>
      </trkpt>
      <trkpt lat="47.21871" lon="6.15625">
        <ele>438.4</ele>
        <time>2021-04-10T12:10:19Z</time>
      </trkpt>
      <trkpt lat="47.21868" lon="6.15625">
        <ele>438.4</ele>
        <time>2021-04-10T12:10:20Z</time>
      </trkpt>
      <trkpt lat="47.21843" lon="6.15634">
        <ele>439.4</ele>
        <time>2021-04-10T12:10:28Z</time>
      </trkpt>
      <trkpt lat="47.21837" lon="6.15635">
        <ele>439.4</ele>
        <time>2021-04-10T12:10:30Z</time>
      </trkpt>
      <trkpt lat="47.21834" lon="6.15637">
        <ele>439.4</ele>
        <time>2021-04-10T12:10:31Z</time>
      </trkpt>
      <trkpt lat="47.21832" lon="6.15638">
        <ele>439.4</ele>
        <time>2021-04-10T12:10:32Z</time>
      </trkpt>
      <trkpt lat="47.21829" lon="6.15639">
        <ele>439.4</ele>
        <time>2021-04-10T12:10:33Z</time>
      </trkpt>
      <trkpt lat="47.21826" lon="6.15639">
        <ele>439.4</ele>
        <time>2021-04-10T12:10:34Z</time>
      </trkpt>
      <trkpt lat="47.21823" lon="6.1564">
        <ele>439.4</ele>
        <time>2021-04-10T12:10:35Z</time>
      </trkpt>
      <trkpt lat="47.2182" lon="6.15641">
        <ele>439.4</ele>
        <time>2021-04-10T12:10:36Z</time>
      </trkpt>
      <trkpt lat="47.21816" lon="6.15641">
        <ele>439.4</ele>
        <time>2021-04-10T12:10:37Z</time>
      </trkpt>
      <trkpt lat="47.21807" lon="6.15642">
        <ele>439.4</ele>
        <time>2021-04-10T12:10:39Z</time>
      </trkpt>
      <trkpt lat="47.21778" lon="6.1564">
        <ele>439.4</ele>
        <time>2021-04-10T12:10:45Z</time>
      </trkpt>
      <trkpt lat="47.21773" lon="6.1564">
        <ele>439.2</ele>
        <time>2021-04-10T12:10:46Z</time>
      </trkpt>
      <trkpt lat="47.21767" lon="6.15641">
        <ele>439</ele>
        <time>2021-04-10T12:10:47Z</time>
      </trkpt>
      <trkpt lat="47.21755" lon="6.15643">
        <ele>438.6</ele>
        <time>2021-04-10T12:10:50Z</time>
      </trkpt>
      <trkpt lat="47.21752" lon="6.15644">
        <ele>438.4</ele>
        <time>2021-04-10T12:10:51Z</time>
      </trkpt>
      <trkpt lat="47.21748" lon="6.15644">
        <ele>438</ele>
        <time>2021-04-10T12:10:52Z</time>
      </trkpt>
      <trkpt lat="47.21746" lon="6.15644">
        <ele>438</ele>
        <time>2021-04-10T12:10:53Z</time>
      </trkpt>
      <trkpt lat="47.21743" lon="6.15644">
        <ele>437.8</ele>
        <time>2021-04-10T12:10:54Z</time>
      </trkpt>
      <trkpt lat="47.2174" lon="6.15645">
        <ele>437.8</ele>
        <time>2021-04-10T12:10:55Z</time>
      </trkpt>
      <trkpt lat="47.21727" lon="6.15644">
        <ele>438</ele>
        <time>2021-04-10T12:10:59Z</time>
      </trkpt>
      <trkpt lat="47.21721" lon="6.15644">
        <ele>438</ele>
        <time>2021-04-10T12:11:01Z</time>
      </trkpt>
      <trkpt lat="47.21718" lon="6.15644">
        <ele>438.2</ele>
        <time>2021-04-10T12:11:02Z</time>
      </trkpt>
      <trkpt lat="47.21709" lon="6.15646">
        <ele>439.2</ele>
        <time>2021-04-10T12:11:05Z</time>
      </trkpt>
      <trkpt lat="47.21705" lon="6.15648">
        <ele>439.6</ele>
        <time>2021-04-10T12:11:06Z</time>
      </trkpt>
      <trkpt lat="47.21702" lon="6.15649">
        <ele>439.8</ele>
        <time>2021-04-10T12:11:07Z</time>
      </trkpt>
      <trkpt lat="47.21699" lon="6.15649">
        <ele>440.2</ele>
        <time>2021-04-10T12:11:08Z</time>
      </trkpt>
      <trkpt lat="47.21696" lon="6.15649">
        <ele>440.4</ele>
        <time>2021-04-10T12:11:09Z</time>
      </trkpt>
      <trkpt lat="47.21692" lon="6.15648">
        <ele>440.6</ele>
        <time>2021-04-10T12:11:10Z</time>
      </trkpt>
      <trkpt lat="47.2169" lon="6.15648">
        <ele>440.8</ele>
        <time>2021-04-10T12:11:11Z</time>
      </trkpt>
      <trkpt lat="47.21686" lon="6.15646">
        <ele>441.2</ele>
        <time>2021-04-10T12:11:12Z</time>
      </trkpt>
      <trkpt lat="47.21681" lon="6.15644">
        <ele>441.8</ele>
        <time>2021-04-10T12:11:14Z</time>
      </trkpt>
      <trkpt lat="47.21679" lon="6.15642">
        <ele>442</ele>
        <time>2021-04-10T12:11:15Z</time>
      </trkpt>
      <trkpt lat="47.21677" lon="6.1564">
        <ele>442.2</ele>
        <time>2021-04-10T12:11:16Z</time>
      </trkpt>
      <trkpt lat="47.21674" lon="6.15639">
        <ele>442.4</ele>
        <time>2021-04-10T12:11:17Z</time>
      </trkpt>
      <trkpt lat="47.21672" lon="6.15638">
        <ele>442.6</ele>
        <time>2021-04-10T12:11:18Z</time>
      </trkpt>
      <trkpt lat="47.21671" lon="6.15637">
        <ele>442.8</ele>
        <time>2021-04-10T12:11:19Z</time>
      </trkpt>
      <trkpt lat="47.21669" lon="6.15637">
        <ele>442.8</ele>
        <time>2021-04-10T12:11:20Z</time>
      </trkpt>
      <trkpt lat="47.21668" lon="6.15636">
        <ele>443</ele>
        <time>2021-04-10T12:11:21Z</time>
      </trkpt>
      <trkpt lat="47.21668" lon="6.15636">
        <ele>443</ele>
        <time>2021-04-10T12:11:22Z</time>
      </trkpt>
      <trkpt lat="47.21667" lon="6.15636">
        <ele>443</ele>
        <time>2021-04-10T12:11:23Z</time>
      </trkpt>
      <trkpt lat="47.21666" lon="6.15637">
        <ele>443</ele>
        <time>2021-04-10T12:11:24Z</time>
      </trkpt>
      <trkpt lat="47.21664" lon="6.15639">
        <ele>443</ele>
        <time>2021-04-10T12:11:25Z</time>
      </trkpt>
      <trkpt lat="47.21662" lon="6.15639">
        <ele>443</ele>
        <time>2021-04-10T12:11:26Z</time>
      </trkpt>
      <trkpt lat="47.2166" lon="6.15638">
        <ele>443</ele>
        <time>2021-04-10T12:11:27Z</time>
      </trkpt>
      <trkpt lat="47.2166" lon="6.15637">
        <ele>443.2</ele>
        <time>2021-04-10T12:11:28Z</time>
      </trkpt>
      <trkpt lat="47.21659" lon="6.15636">
        <ele>443.2</ele>
        <time>2021-04-10T12:11:29Z</time>
      </trkpt>
      <trkpt lat="47.21659" lon="6.15635">
        <ele>443.2</ele>
        <time>2021-04-10T12:11:30Z</time>
      </trkpt>
      <trkpt lat="47.21659" lon="6.15635">
        <ele>443</ele>
        <time>2021-04-10T12:11:31Z</time>
      </trkpt>
      <trkpt lat="47.21659" lon="6.15635">
        <ele>442.8</ele>
        <time>2021-04-10T12:11:35Z</time>
      </trkpt>
      <trkpt lat="47.21659" lon="6.15635">
        <ele>441.6</ele>
        <time>2021-04-10T12:11:52Z</time>
      </trkpt>
      <trkpt lat="47.21659" lon="6.15635">
        <ele>442</ele>
        <time>2021-04-10T12:12:43Z</time>
      </trkpt>
      <trkpt lat="47.21659" lon="6.15635">
        <ele>441.8</ele>
        <time>2021-04-10T12:13:11Z</time>
      </trkpt>
      <trkpt lat="47.21659" lon="6.15635">
        <ele>442.8</ele>
        <time>2021-04-10T12:13:25Z</time>
      </trkpt>
      <trkpt lat="47.21659" lon="6.15635">
        <ele>441.8</ele>
        <time>2021-04-10T12:13:34Z</time>
      </trkpt>
      <trkpt lat="47.21659" lon="6.15635">
        <ele>441.6</ele>
        <time>2021-04-10T12:13:36Z</time>
      </trkpt>
      <trkpt lat="47.21659" lon="6.15635">
        <ele>442.2</ele>
        <time>2021-04-10T12:14:03Z</time>
      </trkpt>
      <trkpt lat="47.21659" lon="6.15635">
        <ele>442.8</ele>
        <time>2021-04-10T12:14:12Z</time>
      </trkpt>
      <trkpt lat="47.21659" lon="6.15635">
        <ele>442.2</ele>
        <time>2021-04-10T12:14:33Z</time>
      </trkpt>
      <trkpt lat="47.21659" lon="6.15635">
        <ele>441.8</ele>
        <time>2021-04-10T12:14:49Z</time>
      </trkpt>
      <trkpt lat="47.21659" lon="6.15635">
        <ele>441.4</ele>
        <time>2021-04-10T12:15:10Z</time>
      </trkpt>
      <trkpt lat="47.21659" lon="6.15635">
        <ele>442.2</ele>
        <time>2021-04-10T12:15:52Z</time>
      </trkpt>
      <trkpt lat="47.21659" lon="6.15635">
        <ele>442.4</ele>
        <time>2021-04-10T12:16:36Z</time>
      </trkpt>
      <trkpt lat="47.21659" lon="6.15635">
        <ele>441.8</ele>
        <time>2021-04-10T12:17:17Z</time>
      </trkpt>
      <trkpt lat="47.21659" lon="6.15635">
        <ele>441.4</ele>
        <time>2021-04-10T12:18:16Z</time>
      </trkpt>
      <trkpt lat="47.21659" lon="6.15635">
        <ele>441.8</ele>
        <time>2021-04-10T12:19:22Z</time>
      </trkpt>
      <trkpt lat="47.21659" lon="6.15635">
        <ele>442.6</ele>
        <time>2021-04-10T12:20:36Z</time>
      </trkpt>
      <trkpt lat="47.21659" lon="6.15637">
        <ele>443.4</ele>
        <time>2021-04-10T12:22:42Z</time>
      </trkpt>
      <trkpt lat="47.21659" lon="6.15637">
        <ele>443.4</ele>
        <time>2021-04-10T12:22:43Z</time>
      </trkpt>
      <trkpt lat="47.2166" lon="6.15635">
        <ele>444</ele>
        <time>2021-04-10T12:22:48Z</time>
      </trkpt>
      <trkpt lat="47.21661" lon="6.15633">
        <ele>444.2</ele>
        <time>2021-04-10T12:22:55Z</time>
      </trkpt>
      <trkpt lat="47.21663" lon="6.15633">
        <ele>444.2</ele>
        <time>2021-04-10T12:22:56Z</time>
      </trkpt>
      <trkpt lat="47.21663" lon="6.15632">
        <ele>444.2</ele>
        <time>2021-04-10T12:22:57Z</time>
      </trkpt>
      <trkpt lat="47.21665" lon="6.15632">
        <ele>444.4</ele>
        <time>2021-04-10T12:22:58Z</time>
      </trkpt>
      <trkpt lat="47.21667" lon="6.15632">
        <ele>444.4</ele>
        <time>2021-04-10T12:22:59Z</time>
      </trkpt>
      <trkpt lat="47.21669" lon="6.15631">
        <ele>444.4</ele>
        <time>2021-04-10T12:23:00Z</time>
      </trkpt>
      <trkpt lat="47.21671" lon="6.15632">
        <ele>444.6</ele>
        <time>2021-04-10T12:23:02Z</time>
      </trkpt>
      <trkpt lat="47.21672" lon="6.15632">
        <ele>444.6</ele>
        <time>2021-04-10T12:23:03Z</time>
      </trkpt>
      <trkpt lat="47.21676" lon="6.15634">
        <ele>444.8</ele>
        <time>2021-04-10T12:23:05Z</time>
      </trkpt>
      <trkpt lat="47.21677" lon="6.15635">
        <ele>444.8</ele>
        <time>2021-04-10T12:23:06Z</time>
      </trkpt>
      <trkpt lat="47.21678" lon="6.15636">
        <ele>444.8</ele>
        <time>2021-04-10T12:23:07Z</time>
      </trkpt>
      <trkpt lat="47.21679" lon="6.15636">
        <ele>444.8</ele>
        <time>2021-04-10T12:23:08Z</time>
      </trkpt>
      <trkpt lat="47.2168" lon="6.15637">
        <ele>444.8</ele>
        <time>2021-04-10T12:23:09Z</time>
      </trkpt>
      <trkpt lat="47.21682" lon="6.1564">
        <ele>444.8</ele>
        <time>2021-04-10T12:23:11Z</time>
      </trkpt>
      <trkpt lat="47.21683" lon="6.1564">
        <ele>444.6</ele>
        <time>2021-04-10T12:23:12Z</time>
      </trkpt>
      <trkpt lat="47.21684" lon="6.1564">
        <ele>444.6</ele>
        <time>2021-04-10T12:23:13Z</time>
      </trkpt>
      <trkpt lat="47.21685" lon="6.1564">
        <ele>444.6</ele>
        <time>2021-04-10T12:23:14Z</time>
      </trkpt>
      <trkpt lat="47.21686" lon="6.15641">
        <ele>444.6</ele>
        <time>2021-04-10T12:23:15Z</time>
      </trkpt>
      <trkpt lat="47.21688" lon="6.15642">
        <ele>444.4</ele>
        <time>2021-04-10T12:23:16Z</time>
      </trkpt>
      <trkpt lat="47.2169" lon="6.15642">
        <ele>444.4</ele>
        <time>2021-04-10T12:23:17Z</time>
      </trkpt>
      <trkpt lat="47.21693" lon="6.1564">
        <ele>444</ele>
        <time>2021-04-10T12:23:19Z</time>
      </trkpt>
      <trkpt lat="47.21695" lon="6.15639">
        <ele>443.8</ele>
        <time>2021-04-10T12:23:20Z</time>
      </trkpt>
      <trkpt lat="47.21698" lon="6.15639">
        <ele>443.6</ele>
        <time>2021-04-10T12:23:21Z</time>
      </trkpt>
      <trkpt lat="47.217" lon="6.15638">
        <ele>443.6</ele>
        <time>2021-04-10T12:23:22Z</time>
      </trkpt>
      <trkpt lat="47.21702" lon="6.15639">
        <ele>443.2</ele>
        <time>2021-04-10T12:23:23Z</time>
      </trkpt>
      <trkpt lat="47.2171" lon="6.1564">
        <ele>443</ele>
        <time>2021-04-10T12:23:25Z</time>
      </trkpt>
      <trkpt lat="47.21727" lon="6.15646">
        <ele>442.2</ele>
        <time>2021-04-10T12:23:29Z</time>
      </trkpt>
      <trkpt lat="47.21749" lon="6.15645">
        <ele>441</ele>
        <time>2021-04-10T12:23:32Z</time>
      </trkpt>
      <trkpt lat="47.21773" lon="6.15642">
        <ele>439.8</ele>
        <time>2021-04-10T12:23:35Z</time>
      </trkpt>
      <trkpt lat="47.21781" lon="6.15642">
        <ele>439.8</ele>
        <time>2021-04-10T12:23:36Z</time>
      </trkpt>
      <trkpt lat="47.21786" lon="6.15643">
        <ele>439.6</ele>
        <time>2021-04-10T12:23:37Z</time>
      </trkpt>
      <trkpt lat="47.21793" lon="6.15644">
        <ele>439.6</ele>
        <time>2021-04-10T12:23:38Z</time>
      </trkpt>
      <trkpt lat="47.21798" lon="6.15644">
        <ele>439.6</ele>
        <time>2021-04-10T12:23:39Z</time>
      </trkpt>
      <trkpt lat="47.21802" lon="6.15644">
        <ele>439.6</ele>
        <time>2021-04-10T12:23:40Z</time>
      </trkpt>
      <trkpt lat="47.21804" lon="6.15644">
        <ele>439.6</ele>
        <time>2021-04-10T12:23:41Z</time>
      </trkpt>
      <trkpt lat="47.21808" lon="6.15644">
        <ele>439.6</ele>
        <time>2021-04-10T12:23:42Z</time>
      </trkpt>
      <trkpt lat="47.21812" lon="6.15643">
        <ele>439.6</ele>
        <time>2021-04-10T12:23:43Z</time>
      </trkpt>
      <trkpt lat="47.21815" lon="6.15642">
        <ele>440</ele>
        <time>2021-04-10T12:23:44Z</time>
      </trkpt>
      <trkpt lat="47.21818" lon="6.15641">
        <ele>440</ele>
        <time>2021-04-10T12:23:45Z</time>
      </trkpt>
      <trkpt lat="47.2182" lon="6.1564">
        <ele>440.2</ele>
        <time>2021-04-10T12:23:46Z</time>
      </trkpt>
      <trkpt lat="47.21823" lon="6.1564">
        <ele>440.2</ele>
        <time>2021-04-10T12:23:47Z</time>
      </trkpt>
      <trkpt lat="47.21829" lon="6.15638">
        <ele>440.6</ele>
        <time>2021-04-10T12:23:49Z</time>
      </trkpt>
      <trkpt lat="47.2185" lon="6.15632">
        <ele>441</ele>
        <time>2021-04-10T12:23:55Z</time>
      </trkpt>
      <trkpt lat="47.21858" lon="6.15629">
        <ele>441.2</ele>
        <time>2021-04-10T12:23:57Z</time>
      </trkpt>
      <trkpt lat="47.21891" lon="6.15619">
        <ele>441.2</ele>
        <time>2021-04-10T12:24:06Z</time>
      </trkpt>
      <trkpt lat="47.2191" lon="6.15614">
        <ele>441</ele>
        <time>2021-04-10T12:24:11Z</time>
      </trkpt>
      <trkpt lat="47.21913" lon="6.15614">
        <ele>440.8</ele>
        <time>2021-04-10T12:24:12Z</time>
      </trkpt>
      <trkpt lat="47.21916" lon="6.15614">
        <ele>440.8</ele>
        <time>2021-04-10T12:24:13Z</time>
      </trkpt>
      <trkpt lat="47.21933" lon="6.15611">
        <ele>440.6</ele>
        <time>2021-04-10T12:24:17Z</time>
      </trkpt>
      <trkpt lat="47.21953" lon="6.15606">
        <ele>440.4</ele>
        <time>2021-04-10T12:24:21Z</time>
      </trkpt>
      <trkpt lat="47.21968" lon="6.15604">
        <ele>440.4</ele>
        <time>2021-04-10T12:24:24Z</time>
      </trkpt>
      <trkpt lat="47.21973" lon="6.15604">
        <ele>440.6</ele>
        <time>2021-04-10T12:24:25Z</time>
      </trkpt>
      <trkpt lat="47.21997" lon="6.15599">
        <ele>440.8</ele>
        <time>2021-04-10T12:24:30Z</time>
      </trkpt>
      <trkpt lat="47.22" lon="6.15599">
        <ele>440.8</ele>
        <time>2021-04-10T12:24:31Z</time>
      </trkpt>
      <trkpt lat="47.22004" lon="6.15598">
        <ele>440.8</ele>
        <time>2021-04-10T12:24:32Z</time>
      </trkpt>
      <trkpt lat="47.22008" lon="6.15597">
        <ele>440.8</ele>
        <time>2021-04-10T12:24:33Z</time>
      </trkpt>
      <trkpt lat="47.22013" lon="6.15596">
        <ele>440.8</ele>
        <time>2021-04-10T12:24:34Z</time>
      </trkpt>
      <trkpt lat="47.22025" lon="6.15595">
        <ele>440.6</ele>
        <time>2021-04-10T12:24:37Z</time>
      </trkpt>
      <trkpt lat="47.22029" lon="6.15594">
        <ele>440.6</ele>
        <time>2021-04-10T12:24:38Z</time>
      </trkpt>
      <trkpt lat="47.22033" lon="6.15593">
        <ele>440.6</ele>
        <time>2021-04-10T12:24:39Z</time>
      </trkpt>
      <trkpt lat="47.22037" lon="6.15593">
        <ele>440.6</ele>
        <time>2021-04-10T12:24:40Z</time>
      </trkpt>
      <trkpt lat="47.2204" lon="6.15593">
        <ele>440.6</ele>
        <time>2021-04-10T12:24:41Z</time>
      </trkpt>
      <trkpt lat="47.22043" lon="6.15592">
        <ele>440.6</ele>
        <time>2021-04-10T12:24:42Z</time>
      </trkpt>
      <trkpt lat="47.22048" lon="6.15592">
        <ele>440.8</ele>
        <time>2021-04-10T12:24:43Z</time>
      </trkpt>
      <trkpt lat="47.22052" lon="6.15591">
        <ele>441</ele>
        <time>2021-04-10T12:24:44Z</time>
      </trkpt>
      <trkpt lat="47.2206" lon="6.1559">
        <ele>441.2</ele>
        <time>2021-04-10T12:24:46Z</time>
      </trkpt>
      <trkpt lat="47.22064" lon="6.15589">
        <ele>441.2</ele>
        <time>2021-04-10T12:24:47Z</time>
      </trkpt>
      <trkpt lat="47.22067" lon="6.15589">
        <ele>441.2</ele>
        <time>2021-04-10T12:24:48Z</time>
      </trkpt>
      <trkpt lat="47.22071" lon="6.15588">
        <ele>441.2</ele>
        <time>2021-04-10T12:24:49Z</time>
      </trkpt>
      <trkpt lat="47.22074" lon="6.15587">
        <ele>441.4</ele>
        <time>2021-04-10T12:24:50Z</time>
      </trkpt>
      <trkpt lat="47.22077" lon="6.15587">
        <ele>441.6</ele>
        <time>2021-04-10T12:24:51Z</time>
      </trkpt>
      <trkpt lat="47.22081" lon="6.15587">
        <ele>441.6</ele>
        <time>2021-04-10T12:24:52Z</time>
      </trkpt>
      <trkpt lat="47.22085" lon="6.15586">
        <ele>441.8</ele>
        <time>2021-04-10T12:24:53Z</time>
      </trkpt>
      <trkpt lat="47.22088" lon="6.15586">
        <ele>441.8</ele>
        <time>2021-04-10T12:24:54Z</time>
      </trkpt>
      <trkpt lat="47.22092" lon="6.15586">
        <ele>442</ele>
        <time>2021-04-10T12:24:55Z</time>
      </trkpt>
      <trkpt lat="47.22095" lon="6.15585">
        <ele>442</ele>
        <time>2021-04-10T12:24:56Z</time>
      </trkpt>
      <trkpt lat="47.22099" lon="6.15585">
        <ele>442.2</ele>
        <time>2021-04-10T12:24:57Z</time>
      </trkpt>
      <trkpt lat="47.22118" lon="6.15581">
        <ele>443.2</ele>
        <time>2021-04-10T12:25:02Z</time>
      </trkpt>
      <trkpt lat="47.22134" lon="6.15578">
        <ele>443.4</ele>
        <time>2021-04-10T12:25:06Z</time>
      </trkpt>
      <trkpt lat="47.22141" lon="6.15577">
        <ele>443.6</ele>
        <time>2021-04-10T12:25:08Z</time>
      </trkpt>
      <trkpt lat="47.22147" lon="6.15576">
        <ele>443.6</ele>
        <time>2021-04-10T12:25:10Z</time>
      </trkpt>
      <trkpt lat="47.22152" lon="6.15576">
        <ele>443.8</ele>
        <time>2021-04-10T12:25:11Z</time>
      </trkpt>
      <trkpt lat="47.22155" lon="6.15576">
        <ele>443.8</ele>
        <time>2021-04-10T12:25:12Z</time>
      </trkpt>
      <trkpt lat="47.22158" lon="6.15576">
        <ele>444</ele>
        <time>2021-04-10T12:25:13Z</time>
      </trkpt>
      <trkpt lat="47.22161" lon="6.15576">
        <ele>444.2</ele>
        <time>2021-04-10T12:25:14Z</time>
      </trkpt>
      <trkpt lat="47.22163" lon="6.15576">
        <ele>444.4</ele>
        <time>2021-04-10T12:25:15Z</time>
      </trkpt>
      <trkpt lat="47.22166" lon="6.15576">
        <ele>444.6</ele>
        <time>2021-04-10T12:25:16Z</time>
      </trkpt>
      <trkpt lat="47.22168" lon="6.15576">
        <ele>444.8</ele>
        <time>2021-04-10T12:25:17Z</time>
      </trkpt>
      <trkpt lat="47.2217" lon="6.15575">
        <ele>445</ele>
        <time>2021-04-10T12:25:18Z</time>
      </trkpt>
      <trkpt lat="47.22172" lon="6.15574">
        <ele>445.2</ele>
        <time>2021-04-10T12:25:19Z</time>
      </trkpt>
      <trkpt lat="47.22174" lon="6.15572">
        <ele>445.2</ele>
        <time>2021-04-10T12:25:20Z</time>
      </trkpt>
      <trkpt lat="47.22176" lon="6.15569">
        <ele>445.6</ele>
        <time>2021-04-10T12:25:21Z</time>
      </trkpt>
      <trkpt lat="47.22177" lon="6.15566">
        <ele>445.6</ele>
        <time>2021-04-10T12:25:22Z</time>
      </trkpt>
      <trkpt lat="47.22179" lon="6.15562">
        <ele>445.8</ele>
        <time>2021-04-10T12:25:23Z</time>
      </trkpt>
      <trkpt lat="47.2218" lon="6.15558">
        <ele>445.8</ele>
        <time>2021-04-10T12:25:24Z</time>
      </trkpt>
      <trkpt lat="47.22181" lon="6.15554">
        <ele>446</ele>
        <time>2021-04-10T12:25:25Z</time>
      </trkpt>
      <trkpt lat="47.22182" lon="6.15551">
        <ele>446.2</ele>
        <time>2021-04-10T12:25:26Z</time>
      </trkpt>
      <trkpt lat="47.22183" lon="6.15547">
        <ele>446.4</ele>
        <time>2021-04-10T12:25:27Z</time>
      </trkpt>
      <trkpt lat="47.22184" lon="6.15543">
        <ele>446.6</ele>
        <time>2021-04-10T12:25:28Z</time>
      </trkpt>
      <trkpt lat="47.22185" lon="6.15539">
        <ele>446.8</ele>
        <time>2021-04-10T12:25:29Z</time>
      </trkpt>
      <trkpt lat="47.22187" lon="6.15535">
        <ele>446.8</ele>
        <time>2021-04-10T12:25:30Z</time>
      </trkpt>
      <trkpt lat="47.22188" lon="6.15532">
        <ele>447</ele>
        <time>2021-04-10T12:25:31Z</time>
      </trkpt>
      <trkpt lat="47.22189" lon="6.15528">
        <ele>447.2</ele>
        <time>2021-04-10T12:25:32Z</time>
      </trkpt>
      <trkpt lat="47.22189" lon="6.15525">
        <ele>447.2</ele>
        <time>2021-04-10T12:25:33Z</time>
      </trkpt>
      <trkpt lat="47.22191" lon="6.15521">
        <ele>447.4</ele>
        <time>2021-04-10T12:25:34Z</time>
      </trkpt>
      <trkpt lat="47.22192" lon="6.15517">
        <ele>447.6</ele>
        <time>2021-04-10T12:25:35Z</time>
      </trkpt>
      <trkpt lat="47.22192" lon="6.15513">
        <ele>447.6</ele>
        <time>2021-04-10T12:25:36Z</time>
      </trkpt>
      <trkpt lat="47.22193" lon="6.15509">
        <ele>447.8</ele>
        <time>2021-04-10T12:25:37Z</time>
      </trkpt>
      <trkpt lat="47.22194" lon="6.15506">
        <ele>447.8</ele>
        <time>2021-04-10T12:25:38Z</time>
      </trkpt>
      <trkpt lat="47.22196" lon="6.15501">
        <ele>447.8</ele>
        <time>2021-04-10T12:25:39Z</time>
      </trkpt>
      <trkpt lat="47.22197" lon="6.15498">
        <ele>448</ele>
        <time>2021-04-10T12:25:40Z</time>
      </trkpt>
      <trkpt lat="47.22198" lon="6.15494">
        <ele>448</ele>
        <time>2021-04-10T12:25:41Z</time>
      </trkpt>
      <trkpt lat="47.22199" lon="6.1549">
        <ele>448</ele>
        <time>2021-04-10T12:25:42Z</time>
      </trkpt>
      <trkpt lat="47.222" lon="6.15486">
        <ele>448.2</ele>
        <time>2021-04-10T12:25:43Z</time>
      </trkpt>
      <trkpt lat="47.22201" lon="6.15482">
        <ele>448.2</ele>
        <time>2021-04-10T12:25:44Z</time>
      </trkpt>
      <trkpt lat="47.22202" lon="6.15478">
        <ele>448.2</ele>
        <time>2021-04-10T12:25:45Z</time>
      </trkpt>
      <trkpt lat="47.22203" lon="6.15474">
        <ele>448.4</ele>
        <time>2021-04-10T12:25:46Z</time>
      </trkpt>
      <trkpt lat="47.22204" lon="6.1547">
        <ele>448.4</ele>
        <time>2021-04-10T12:25:47Z</time>
      </trkpt>
      <trkpt lat="47.22205" lon="6.15467">
        <ele>448.6</ele>
        <time>2021-04-10T12:25:48Z</time>
      </trkpt>
      <trkpt lat="47.22207" lon="6.15462">
        <ele>448.6</ele>
        <time>2021-04-10T12:25:49Z</time>
      </trkpt>
      <trkpt lat="47.22208" lon="6.15458">
        <ele>448.6</ele>
        <time>2021-04-10T12:25:50Z</time>
      </trkpt>
      <trkpt lat="47.22209" lon="6.15454">
        <ele>448.8</ele>
        <time>2021-04-10T12:25:51Z</time>
      </trkpt>
      <trkpt lat="47.2221" lon="6.15451">
        <ele>449</ele>
        <time>2021-04-10T12:25:52Z</time>
      </trkpt>
      <trkpt lat="47.22211" lon="6.15446">
        <ele>449.2</ele>
        <time>2021-04-10T12:25:53Z</time>
      </trkpt>
      <trkpt lat="47.22212" lon="6.15442">
        <ele>449.2</ele>
        <time>2021-04-10T12:25:54Z</time>
      </trkpt>
      <trkpt lat="47.22213" lon="6.15439">
        <ele>449.4</ele>
        <time>2021-04-10T12:25:55Z</time>
      </trkpt>
      <trkpt lat="47.22214" lon="6.15434">
        <ele>449.4</ele>
        <time>2021-04-10T12:25:56Z</time>
      </trkpt>
      <trkpt lat="47.22215" lon="6.1543">
        <ele>449.4</ele>
        <time>2021-04-10T12:25:57Z</time>
      </trkpt>
      <trkpt lat="47.22217" lon="6.15426">
        <ele>449.6</ele>
        <time>2021-04-10T12:25:58Z</time>
      </trkpt>
      <trkpt lat="47.22218" lon="6.15422">
        <ele>449.8</ele>
        <time>2021-04-10T12:25:59Z</time>
      </trkpt>
      <trkpt lat="47.22219" lon="6.15418">
        <ele>449.8</ele>
        <time>2021-04-10T12:26:00Z</time>
      </trkpt>
      <trkpt lat="47.22219" lon="6.15415">
        <ele>450</ele>
        <time>2021-04-10T12:26:01Z</time>
      </trkpt>
      <trkpt lat="47.22221" lon="6.1541">
        <ele>450</ele>
        <time>2021-04-10T12:26:02Z</time>
      </trkpt>
      <trkpt lat="47.22222" lon="6.15406">
        <ele>450</ele>
        <time>2021-04-10T12:26:03Z</time>
      </trkpt>
      <trkpt lat="47.22223" lon="6.15402">
        <ele>450.2</ele>
        <time>2021-04-10T12:26:04Z</time>
      </trkpt>
      <trkpt lat="47.22223" lon="6.15398">
        <ele>450.2</ele>
        <time>2021-04-10T12:26:05Z</time>
      </trkpt>
      <trkpt lat="47.22224" lon="6.15395">
        <ele>450.4</ele>
        <time>2021-04-10T12:26:06Z</time>
      </trkpt>
      <trkpt lat="47.22226" lon="6.1539">
        <ele>450.4</ele>
        <time>2021-04-10T12:26:07Z</time>
      </trkpt>
      <trkpt lat="47.22232" lon="6.15367">
        <ele>450.6</ele>
        <time>2021-04-10T12:26:12Z</time>
      </trkpt>
      <trkpt lat="47.22238" lon="6.1534">
        <ele>450.8</ele>
        <time>2021-04-10T12:26:17Z</time>
      </trkpt>
      <trkpt lat="47.22241" lon="6.15328">
        <ele>450.8</ele>
        <time>2021-04-10T12:26:19Z</time>
      </trkpt>
      <trkpt lat="47.22257" lon="6.15269">
        <ele>449.8</ele>
        <time>2021-04-10T12:26:28Z</time>
      </trkpt>
      <trkpt lat="47.22268" lon="6.15226">
        <ele>449</ele>
        <time>2021-04-10T12:26:33Z</time>
      </trkpt>
      <trkpt lat="47.2227" lon="6.15219">
        <ele>448.6</ele>
        <time>2021-04-10T12:26:34Z</time>
      </trkpt>
      <trkpt lat="47.22277" lon="6.15189">
        <ele>448</ele>
        <time>2021-04-10T12:26:37Z</time>
      </trkpt>
      <trkpt lat="47.22287" lon="6.15149">
        <ele>446.8</ele>
        <time>2021-04-10T12:26:41Z</time>
      </trkpt>
      <trkpt lat="47.22289" lon="6.15141">
        <ele>446.8</ele>
        <time>2021-04-10T12:26:42Z</time>
      </trkpt>
      <trkpt lat="47.22299" lon="6.151">
        <ele>445.8</ele>
        <time>2021-04-10T12:26:46Z</time>
      </trkpt>
      <trkpt lat="47.22301" lon="6.15091">
        <ele>445.4</ele>
        <time>2021-04-10T12:26:47Z</time>
      </trkpt>
      <trkpt lat="47.22303" lon="6.15083">
        <ele>445.2</ele>
        <time>2021-04-10T12:26:48Z</time>
      </trkpt>
      <trkpt lat="47.22305" lon="6.15074">
        <ele>444.8</ele>
        <time>2021-04-10T12:26:49Z</time>
      </trkpt>
      <trkpt lat="47.22306" lon="6.15067">
        <ele>444.6</ele>
        <time>2021-04-10T12:26:50Z</time>
      </trkpt>
      <trkpt lat="47.22308" lon="6.1506">
        <ele>444.4</ele>
        <time>2021-04-10T12:26:51Z</time>
      </trkpt>
      <trkpt lat="47.2231" lon="6.15054">
        <ele>444.2</ele>
        <time>2021-04-10T12:26:52Z</time>
      </trkpt>
      <trkpt lat="47.22312" lon="6.15046">
        <ele>444.2</ele>
        <time>2021-04-10T12:26:53Z</time>
      </trkpt>
      <trkpt lat="47.22314" lon="6.1504">
        <ele>444</ele>
        <time>2021-04-10T12:26:54Z</time>
      </trkpt>
      <trkpt lat="47.22315" lon="6.15034">
        <ele>444</ele>
        <time>2021-04-10T12:26:55Z</time>
      </trkpt>
      <trkpt lat="47.22317" lon="6.15028">
        <ele>444</ele>
        <time>2021-04-10T12:26:56Z</time>
      </trkpt>
      <trkpt lat="47.22318" lon="6.15023">
        <ele>444</ele>
        <time>2021-04-10T12:26:57Z</time>
      </trkpt>
      <trkpt lat="47.22321" lon="6.15011">
        <ele>444</ele>
        <time>2021-04-10T12:26:59Z</time>
      </trkpt>
      <trkpt lat="47.22323" lon="6.15005">
        <ele>444</ele>
        <time>2021-04-10T12:27:00Z</time>
      </trkpt>
      <trkpt lat="47.22324" lon="6.14999">
        <ele>444</ele>
        <time>2021-04-10T12:27:01Z</time>
      </trkpt>
      <trkpt lat="47.22325" lon="6.14994">
        <ele>444</ele>
        <time>2021-04-10T12:27:02Z</time>
      </trkpt>
      <trkpt lat="47.22327" lon="6.14988">
        <ele>444</ele>
        <time>2021-04-10T12:27:03Z</time>
      </trkpt>
      <trkpt lat="47.22329" lon="6.14983">
        <ele>444</ele>
        <time>2021-04-10T12:27:04Z</time>
      </trkpt>
      <trkpt lat="47.2233" lon="6.14978">
        <ele>444</ele>
        <time>2021-04-10T12:27:05Z</time>
      </trkpt>
      <trkpt lat="47.22331" lon="6.14973">
        <ele>444</ele>
        <time>2021-04-10T12:27:06Z</time>
      </trkpt>
      <trkpt lat="47.22332" lon="6.14969">
        <ele>444</ele>
        <time>2021-04-10T12:27:07Z</time>
      </trkpt>
      <trkpt lat="47.22334" lon="6.14963">
        <ele>444.2</ele>
        <time>2021-04-10T12:27:08Z</time>
      </trkpt>
      <trkpt lat="47.22335" lon="6.14958">
        <ele>444.2</ele>
        <time>2021-04-10T12:27:09Z</time>
      </trkpt>
      <trkpt lat="47.22336" lon="6.14953">
        <ele>444.4</ele>
        <time>2021-04-10T12:27:10Z</time>
      </trkpt>
      <trkpt lat="47.22338" lon="6.14948">
        <ele>444.4</ele>
        <time>2021-04-10T12:27:11Z</time>
      </trkpt>
      <trkpt lat="47.22339" lon="6.14943">
        <ele>444.4</ele>
        <time>2021-04-10T12:27:12Z</time>
      </trkpt>
      <trkpt lat="47.2234" lon="6.14938">
        <ele>444.6</ele>
        <time>2021-04-10T12:27:13Z</time>
      </trkpt>
      <trkpt lat="47.22342" lon="6.14933">
        <ele>444.6</ele>
        <time>2021-04-10T12:27:14Z</time>
      </trkpt>
      <trkpt lat="47.22349" lon="6.14904">
        <ele>445.6</ele>
        <time>2021-04-10T12:27:20Z</time>
      </trkpt>
      <trkpt lat="47.22351" lon="6.14895">
        <ele>446</ele>
        <time>2021-04-10T12:27:22Z</time>
      </trkpt>
      <trkpt lat="47.22352" lon="6.14891">
        <ele>446</ele>
        <time>2021-04-10T12:27:23Z</time>
      </trkpt>
      <trkpt lat="47.22353" lon="6.14887">
        <ele>446.2</ele>
        <time>2021-04-10T12:27:24Z</time>
      </trkpt>
      <trkpt lat="47.22354" lon="6.14883">
        <ele>446.2</ele>
        <time>2021-04-10T12:27:25Z</time>
      </trkpt>
      <trkpt lat="47.22356" lon="6.14879">
        <ele>446.4</ele>
        <time>2021-04-10T12:27:26Z</time>
      </trkpt>
      <trkpt lat="47.22357" lon="6.14874">
        <ele>446.4</ele>
        <time>2021-04-10T12:27:27Z</time>
      </trkpt>
      <trkpt lat="47.22358" lon="6.1487">
        <ele>446.8</ele>
        <time>2021-04-10T12:27:28Z</time>
      </trkpt>
      <trkpt lat="47.22359" lon="6.14867">
        <ele>447.4</ele>
        <time>2021-04-10T12:27:29Z</time>
      </trkpt>
      <trkpt lat="47.22361" lon="6.14863">
        <ele>447.6</ele>
        <time>2021-04-10T12:27:30Z</time>
      </trkpt>
      <trkpt lat="47.22362" lon="6.14859">
        <ele>447.8</ele>
        <time>2021-04-10T12:27:31Z</time>
      </trkpt>
      <trkpt lat="47.22363" lon="6.14855">
        <ele>447.6</ele>
        <time>2021-04-10T12:27:32Z</time>
      </trkpt>
      <trkpt lat="47.22365" lon="6.14851">
        <ele>448</ele>
        <time>2021-04-10T12:27:33Z</time>
      </trkpt>
      <trkpt lat="47.22366" lon="6.14847">
        <ele>448</ele>
        <time>2021-04-10T12:27:34Z</time>
      </trkpt>
      <trkpt lat="47.22367" lon="6.14843">
        <ele>448.2</ele>
        <time>2021-04-10T12:27:35Z</time>
      </trkpt>
      <trkpt lat="47.22368" lon="6.14839">
        <ele>448.2</ele>
        <time>2021-04-10T12:27:36Z</time>
      </trkpt>
      <trkpt lat="47.22369" lon="6.14835">
        <ele>448.6</ele>
        <time>2021-04-10T12:27:37Z</time>
      </trkpt>
      <trkpt lat="47.2237" lon="6.14832">
        <ele>448.8</ele>
        <time>2021-04-10T12:27:38Z</time>
      </trkpt>
      <trkpt lat="47.22371" lon="6.14828">
        <ele>449</ele>
        <time>2021-04-10T12:27:39Z</time>
      </trkpt>
      <trkpt lat="47.22373" lon="6.14823">
        <ele>449.2</ele>
        <time>2021-04-10T12:27:40Z</time>
      </trkpt>
      <trkpt lat="47.22374" lon="6.1482">
        <ele>449.2</ele>
        <time>2021-04-10T12:27:41Z</time>
      </trkpt>
      <trkpt lat="47.22375" lon="6.14816">
        <ele>449.6</ele>
        <time>2021-04-10T12:27:42Z</time>
      </trkpt>
      <trkpt lat="47.22376" lon="6.14812">
        <ele>449.6</ele>
        <time>2021-04-10T12:27:43Z</time>
      </trkpt>
      <trkpt lat="47.22378" lon="6.14808">
        <ele>449.8</ele>
        <time>2021-04-10T12:27:44Z</time>
      </trkpt>
      <trkpt lat="47.2238" lon="6.14804">
        <ele>450</ele>
        <time>2021-04-10T12:27:45Z</time>
      </trkpt>
      <trkpt lat="47.22381" lon="6.148">
        <ele>450.2</ele>
        <time>2021-04-10T12:27:46Z</time>
      </trkpt>
      <trkpt lat="47.22383" lon="6.14796">
        <ele>450.6</ele>
        <time>2021-04-10T12:27:47Z</time>
      </trkpt>
      <trkpt lat="47.22384" lon="6.14793">
        <ele>450.8</ele>
        <time>2021-04-10T12:27:48Z</time>
      </trkpt>
      <trkpt lat="47.22385" lon="6.14789">
        <ele>451</ele>
        <time>2021-04-10T12:27:49Z</time>
      </trkpt>
      <trkpt lat="47.22385" lon="6.14784">
        <ele>451</ele>
        <time>2021-04-10T12:27:50Z</time>
      </trkpt>
      <trkpt lat="47.22385" lon="6.1478">
        <ele>451.2</ele>
        <time>2021-04-10T12:27:51Z</time>
      </trkpt>
      <trkpt lat="47.22385" lon="6.14775">
        <ele>451.2</ele>
        <time>2021-04-10T12:27:52Z</time>
      </trkpt>
      <trkpt lat="47.22385" lon="6.14771">
        <ele>451</ele>
        <time>2021-04-10T12:27:53Z</time>
      </trkpt>
      <trkpt lat="47.22386" lon="6.14767">
        <ele>451.4</ele>
        <time>2021-04-10T12:27:54Z</time>
      </trkpt>
      <trkpt lat="47.22386" lon="6.14762">
        <ele>451.4</ele>
        <time>2021-04-10T12:27:55Z</time>
      </trkpt>
      <trkpt lat="47.22387" lon="6.14757">
        <ele>451.6</ele>
        <time>2021-04-10T12:27:56Z</time>
      </trkpt>
      <trkpt lat="47.22387" lon="6.14753">
        <ele>451.6</ele>
        <time>2021-04-10T12:27:57Z</time>
      </trkpt>
      <trkpt lat="47.22387" lon="6.14749">
        <ele>452</ele>
        <time>2021-04-10T12:27:58Z</time>
      </trkpt>
      <trkpt lat="47.22388" lon="6.14744">
        <ele>452</ele>
        <time>2021-04-10T12:27:59Z</time>
      </trkpt>
      <trkpt lat="47.22388" lon="6.1474">
        <ele>452.2</ele>
        <time>2021-04-10T12:28:00Z</time>
      </trkpt>
      <trkpt lat="47.22389" lon="6.14736">
        <ele>452.4</ele>
        <time>2021-04-10T12:28:01Z</time>
      </trkpt>
      <trkpt lat="47.22389" lon="6.14732">
        <ele>452.4</ele>
        <time>2021-04-10T12:28:02Z</time>
      </trkpt>
      <trkpt lat="47.22389" lon="6.14728">
        <ele>452.6</ele>
        <time>2021-04-10T12:28:03Z</time>
      </trkpt>
      <trkpt lat="47.2239" lon="6.14724">
        <ele>452.6</ele>
        <time>2021-04-10T12:28:04Z</time>
      </trkpt>
      <trkpt lat="47.2239" lon="6.14719">
        <ele>452.8</ele>
        <time>2021-04-10T12:28:05Z</time>
      </trkpt>
      <trkpt lat="47.2239" lon="6.14716">
        <ele>452.8</ele>
        <time>2021-04-10T12:28:06Z</time>
      </trkpt>
      <trkpt lat="47.2239" lon="6.14713">
        <ele>453</ele>
        <time>2021-04-10T12:28:07Z</time>
      </trkpt>
      <trkpt lat="47.22389" lon="6.14708">
        <ele>453</ele>
        <time>2021-04-10T12:28:08Z</time>
      </trkpt>
      <trkpt lat="47.22389" lon="6.14703">
        <ele>453.2</ele>
        <time>2021-04-10T12:28:09Z</time>
      </trkpt>
      <trkpt lat="47.22389" lon="6.147">
        <ele>453.2</ele>
        <time>2021-04-10T12:28:10Z</time>
      </trkpt>
      <trkpt lat="47.22389" lon="6.14697">
        <ele>453.4</ele>
        <time>2021-04-10T12:28:11Z</time>
      </trkpt>
      <trkpt lat="47.22389" lon="6.14693">
        <ele>453.6</ele>
        <time>2021-04-10T12:28:12Z</time>
      </trkpt>
      <trkpt lat="47.22389" lon="6.1469">
        <ele>453.8</ele>
        <time>2021-04-10T12:28:13Z</time>
      </trkpt>
      <trkpt lat="47.22388" lon="6.14686">
        <ele>454</ele>
        <time>2021-04-10T12:28:14Z</time>
      </trkpt>
      <trkpt lat="47.22388" lon="6.14682">
        <ele>454.2</ele>
        <time>2021-04-10T12:28:15Z</time>
      </trkpt>
      <trkpt lat="47.22388" lon="6.14679">
        <ele>454.4</ele>
        <time>2021-04-10T12:28:16Z</time>
      </trkpt>
      <trkpt lat="47.22387" lon="6.14675">
        <ele>454.4</ele>
        <time>2021-04-10T12:28:17Z</time>
      </trkpt>
      <trkpt lat="47.22387" lon="6.14671">
        <ele>454.8</ele>
        <time>2021-04-10T12:28:18Z</time>
      </trkpt>
      <trkpt lat="47.22387" lon="6.14668">
        <ele>455</ele>
        <time>2021-04-10T12:28:19Z</time>
      </trkpt>
      <trkpt lat="47.22387" lon="6.14665">
        <ele>455.2</ele>
        <time>2021-04-10T12:28:20Z</time>
      </trkpt>
      <trkpt lat="47.22386" lon="6.14661">
        <ele>455.4</ele>
        <time>2021-04-10T12:28:21Z</time>
      </trkpt>
      <trkpt lat="47.22386" lon="6.14657">
        <ele>455.6</ele>
        <time>2021-04-10T12:28:22Z</time>
      </trkpt>
      <trkpt lat="47.22386" lon="6.14654">
        <ele>455.8</ele>
        <time>2021-04-10T12:28:23Z</time>
      </trkpt>
      <trkpt lat="47.22385" lon="6.1465">
        <ele>455.8</ele>
        <time>2021-04-10T12:28:24Z</time>
      </trkpt>
      <trkpt lat="47.22382" lon="6.14646">
        <ele>456</ele>
        <time>2021-04-10T12:28:25Z</time>
      </trkpt>
      <trkpt lat="47.22381" lon="6.14642">
        <ele>456.2</ele>
        <time>2021-04-10T12:28:26Z</time>
      </trkpt>
      <trkpt lat="47.2238" lon="6.14637">
        <ele>456.4</ele>
        <time>2021-04-10T12:28:27Z</time>
      </trkpt>
      <trkpt lat="47.22379" lon="6.14632">
        <ele>456.6</ele>
        <time>2021-04-10T12:28:28Z</time>
      </trkpt>
      <trkpt lat="47.22376" lon="6.14628">
        <ele>456.6</ele>
        <time>2021-04-10T12:28:29Z</time>
      </trkpt>
      <trkpt lat="47.22375" lon="6.14625">
        <ele>456.8</ele>
        <time>2021-04-10T12:28:30Z</time>
      </trkpt>
      <trkpt lat="47.22375" lon="6.14621">
        <ele>456.8</ele>
        <time>2021-04-10T12:28:31Z</time>
      </trkpt>
      <trkpt lat="47.22374" lon="6.14618">
        <ele>457</ele>
        <time>2021-04-10T12:28:32Z</time>
      </trkpt>
      <trkpt lat="47.22374" lon="6.14614">
        <ele>457</ele>
        <time>2021-04-10T12:28:33Z</time>
      </trkpt>
      <trkpt lat="47.22373" lon="6.14611">
        <ele>457.2</ele>
        <time>2021-04-10T12:28:34Z</time>
      </trkpt>
      <trkpt lat="47.22373" lon="6.14608">
        <ele>457.2</ele>
        <time>2021-04-10T12:28:35Z</time>
      </trkpt>
      <trkpt lat="47.22371" lon="6.14604">
        <ele>457.2</ele>
        <time>2021-04-10T12:28:36Z</time>
      </trkpt>
      <trkpt lat="47.2237" lon="6.14599">
        <ele>457.4</ele>
        <time>2021-04-10T12:28:37Z</time>
      </trkpt>
      <trkpt lat="47.22369" lon="6.14595">
        <ele>457.4</ele>
        <time>2021-04-10T12:28:38Z</time>
      </trkpt>
      <trkpt lat="47.22368" lon="6.1459">
        <ele>457.4</ele>
        <time>2021-04-10T12:28:39Z</time>
      </trkpt>
      <trkpt lat="47.22367" lon="6.14586">
        <ele>457.4</ele>
        <time>2021-04-10T12:28:40Z</time>
      </trkpt>
      <trkpt lat="47.22366" lon="6.14581">
        <ele>457.6</ele>
        <time>2021-04-10T12:28:41Z</time>
      </trkpt>
      <trkpt lat="47.22365" lon="6.14576">
        <ele>457.6</ele>
        <time>2021-04-10T12:28:42Z</time>
      </trkpt>
      <trkpt lat="47.22364" lon="6.14571">
        <ele>457.6</ele>
        <time>2021-04-10T12:28:43Z</time>
      </trkpt>
      <trkpt lat="47.22363" lon="6.14566">
        <ele>457.6</ele>
        <time>2021-04-10T12:28:44Z</time>
      </trkpt>
      <trkpt lat="47.22363" lon="6.14563">
        <ele>457.6</ele>
        <time>2021-04-10T12:28:45Z</time>
      </trkpt>
      <trkpt lat="47.22362" lon="6.14558">
        <ele>457.6</ele>
        <time>2021-04-10T12:28:46Z</time>
      </trkpt>
      <trkpt lat="47.22361" lon="6.14554">
        <ele>457.6</ele>
        <time>2021-04-10T12:28:47Z</time>
      </trkpt>
      <trkpt lat="47.2236" lon="6.14549">
        <ele>457.6</ele>
        <time>2021-04-10T12:28:48Z</time>
      </trkpt>
      <trkpt lat="47.2236" lon="6.14546">
        <ele>457.6</ele>
        <time>2021-04-10T12:28:49Z</time>
      </trkpt>
      <trkpt lat="47.22358" lon="6.14537">
        <ele>457.6</ele>
        <time>2021-04-10T12:28:51Z</time>
      </trkpt>
      <trkpt lat="47.22357" lon="6.14532">
        <ele>457.4</ele>
        <time>2021-04-10T12:28:52Z</time>
      </trkpt>
      <trkpt lat="47.22357" lon="6.14528">
        <ele>457.2</ele>
        <time>2021-04-10T12:28:53Z</time>
      </trkpt>
      <trkpt lat="47.22357" lon="6.14525">
        <ele>457.2</ele>
        <time>2021-04-10T12:28:54Z</time>
      </trkpt>
      <trkpt lat="47.22357" lon="6.14521">
        <ele>457</ele>
        <time>2021-04-10T12:28:55Z</time>
      </trkpt>
      <trkpt lat="47.22357" lon="6.14518">
        <ele>457</ele>
        <time>2021-04-10T12:28:56Z</time>
      </trkpt>
      <trkpt lat="47.22357" lon="6.14515">
        <ele>457</ele>
        <time>2021-04-10T12:28:57Z</time>
      </trkpt>
      <trkpt lat="47.22357" lon="6.14513">
        <ele>457</ele>
        <time>2021-04-10T12:28:58Z</time>
      </trkpt>
      <trkpt lat="47.22357" lon="6.14507">
        <ele>456.8</ele>
        <time>2021-04-10T12:29:00Z</time>
      </trkpt>
      <trkpt lat="47.22357" lon="6.14499">
        <ele>456.8</ele>
        <time>2021-04-10T12:29:02Z</time>
      </trkpt>
      <trkpt lat="47.22357" lon="6.14496">
        <ele>456.8</ele>
        <time>2021-04-10T12:29:03Z</time>
      </trkpt>
      <trkpt lat="47.22355" lon="6.14491">
        <ele>456.6</ele>
        <time>2021-04-10T12:29:04Z</time>
      </trkpt>
      <trkpt lat="47.22355" lon="6.14487">
        <ele>456.6</ele>
        <time>2021-04-10T12:29:05Z</time>
      </trkpt>
      <trkpt lat="47.22355" lon="6.14483">
        <ele>456.6</ele>
        <time>2021-04-10T12:29:06Z</time>
      </trkpt>
      <trkpt lat="47.22356" lon="6.14471">
        <ele>456.4</ele>
        <time>2021-04-10T12:29:08Z</time>
      </trkpt>
      <trkpt lat="47.22357" lon="6.14465">
        <ele>456.4</ele>
        <time>2021-04-10T12:29:09Z</time>
      </trkpt>
      <trkpt lat="47.22359" lon="6.14453">
        <ele>456.2</ele>
        <time>2021-04-10T12:29:11Z</time>
      </trkpt>
      <trkpt lat="47.22361" lon="6.14429">
        <ele>455.6</ele>
        <time>2021-04-10T12:29:15Z</time>
      </trkpt>
      <trkpt lat="47.22364" lon="6.14402">
        <ele>454.8</ele>
        <time>2021-04-10T12:29:19Z</time>
      </trkpt>
      <trkpt lat="47.22365" lon="6.14394">
        <ele>454.6</ele>
        <time>2021-04-10T12:29:20Z</time>
      </trkpt>
      <trkpt lat="47.22365" lon="6.14387">
        <ele>454.4</ele>
        <time>2021-04-10T12:29:21Z</time>
      </trkpt>
      <trkpt lat="47.22368" lon="6.14366">
        <ele>453.4</ele>
        <time>2021-04-10T12:29:24Z</time>
      </trkpt>
      <trkpt lat="47.22369" lon="6.14358">
        <ele>453.2</ele>
        <time>2021-04-10T12:29:25Z</time>
      </trkpt>
      <trkpt lat="47.2237" lon="6.14344">
        <ele>452.2</ele>
        <time>2021-04-10T12:29:27Z</time>
      </trkpt>
      <trkpt lat="47.22373" lon="6.14308">
        <ele>450.8</ele>
        <time>2021-04-10T12:29:31Z</time>
      </trkpt>
      <trkpt lat="47.22376" lon="6.14289">
        <ele>450.4</ele>
        <time>2021-04-10T12:29:33Z</time>
      </trkpt>
      <trkpt lat="47.22378" lon="6.14268">
        <ele>449.8</ele>
        <time>2021-04-10T12:29:35Z</time>
      </trkpt>
      <trkpt lat="47.2238" lon="6.14259">
        <ele>449.4</ele>
        <time>2021-04-10T12:29:36Z</time>
      </trkpt>
      <trkpt lat="47.22381" lon="6.14246">
        <ele>449.4</ele>
        <time>2021-04-10T12:29:37Z</time>
      </trkpt>
      <trkpt lat="47.22384" lon="6.14223">
        <ele>448.6</ele>
        <time>2021-04-10T12:29:39Z</time>
      </trkpt>
      <trkpt lat="47.22389" lon="6.14188">
        <ele>447.6</ele>
        <time>2021-04-10T12:29:42Z</time>
      </trkpt>
      <trkpt lat="47.22392" lon="6.14166">
        <ele>447</ele>
        <time>2021-04-10T12:29:44Z</time>
      </trkpt>
      <trkpt lat="47.22393" lon="6.14158">
        <ele>446.2</ele>
        <time>2021-04-10T12:29:45Z</time>
      </trkpt>
      <trkpt lat="47.22396" lon="6.14135">
        <ele>445.2</ele>
        <time>2021-04-10T12:29:47Z</time>
      </trkpt>
      <trkpt lat="47.22397" lon="6.14125">
        <ele>445</ele>
        <time>2021-04-10T12:29:48Z</time>
      </trkpt>
      <trkpt lat="47.22398" lon="6.14117">
        <ele>444.8</ele>
        <time>2021-04-10T12:29:49Z</time>
      </trkpt>
      <trkpt lat="47.22399" lon="6.14105">
        <ele>444.6</ele>
        <time>2021-04-10T12:29:50Z</time>
      </trkpt>
      <trkpt lat="47.224" lon="6.14095">
        <ele>444.6</ele>
        <time>2021-04-10T12:29:51Z</time>
      </trkpt>
      <trkpt lat="47.22405" lon="6.14054">
        <ele>444</ele>
        <time>2021-04-10T12:29:55Z</time>
      </trkpt>
      <trkpt lat="47.22409" lon="6.14022">
        <ele>443</ele>
        <time>2021-04-10T12:29:58Z</time>
      </trkpt>
      <trkpt lat="47.22411" lon="6.14011">
        <ele>442.8</ele>
        <time>2021-04-10T12:29:59Z</time>
      </trkpt>
      <trkpt lat="47.22415" lon="6.13978">
        <ele>441.8</ele>
        <time>2021-04-10T12:30:02Z</time>
      </trkpt>
      <trkpt lat="47.22419" lon="6.13946">
        <ele>440.4</ele>
        <time>2021-04-10T12:30:05Z</time>
      </trkpt>
      <trkpt lat="47.22423" lon="6.13917">
        <ele>439.8</ele>
        <time>2021-04-10T12:30:08Z</time>
      </trkpt>
      <trkpt lat="47.22424" lon="6.13904">
        <ele>439.6</ele>
        <time>2021-04-10T12:30:09Z</time>
      </trkpt>
      <trkpt lat="47.22426" lon="6.13894">
        <ele>439.2</ele>
        <time>2021-04-10T12:30:10Z</time>
      </trkpt>
      <trkpt lat="47.22427" lon="6.13884">
        <ele>439</ele>
        <time>2021-04-10T12:30:11Z</time>
      </trkpt>
      <trkpt lat="47.22428" lon="6.13874">
        <ele>438.6</ele>
        <time>2021-04-10T12:30:12Z</time>
      </trkpt>
      <trkpt lat="47.22433" lon="6.13834">
        <ele>437.8</ele>
        <time>2021-04-10T12:30:16Z</time>
      </trkpt>
      <trkpt lat="47.22435" lon="6.13824">
        <ele>437.4</ele>
        <time>2021-04-10T12:30:17Z</time>
      </trkpt>
      <trkpt lat="47.22436" lon="6.13817">
        <ele>437.4</ele>
        <time>2021-04-10T12:30:18Z</time>
      </trkpt>
      <trkpt lat="47.22438" lon="6.13797">
        <ele>437</ele>
        <time>2021-04-10T12:30:20Z</time>
      </trkpt>
      <trkpt lat="47.22439" lon="6.13788">
        <ele>436.8</ele>
        <time>2021-04-10T12:30:21Z</time>
      </trkpt>
      <trkpt lat="47.22441" lon="6.13779">
        <ele>436.6</ele>
        <time>2021-04-10T12:30:22Z</time>
      </trkpt>
      <trkpt lat="47.22442" lon="6.13771">
        <ele>436.4</ele>
        <time>2021-04-10T12:30:23Z</time>
      </trkpt>
      <trkpt lat="47.22443" lon="6.13764">
        <ele>436.4</ele>
        <time>2021-04-10T12:30:24Z</time>
      </trkpt>
      <trkpt lat="47.22444" lon="6.13757">
        <ele>436.4</ele>
        <time>2021-04-10T12:30:25Z</time>
      </trkpt>
      <trkpt lat="47.22445" lon="6.1375">
        <ele>436.2</ele>
        <time>2021-04-10T12:30:26Z</time>
      </trkpt>
      <trkpt lat="47.22446" lon="6.13745">
        <ele>436.2</ele>
        <time>2021-04-10T12:30:27Z</time>
      </trkpt>
      <trkpt lat="47.22447" lon="6.13737">
        <ele>436.2</ele>
        <time>2021-04-10T12:30:28Z</time>
      </trkpt>
      <trkpt lat="47.22448" lon="6.1373">
        <ele>436.2</ele>
        <time>2021-04-10T12:30:29Z</time>
      </trkpt>
      <trkpt lat="47.22449" lon="6.13724">
        <ele>436</ele>
        <time>2021-04-10T12:30:30Z</time>
      </trkpt>
      <trkpt lat="47.2245" lon="6.13718">
        <ele>436</ele>
        <time>2021-04-10T12:30:31Z</time>
      </trkpt>
      <trkpt lat="47.22451" lon="6.13707">
        <ele>436</ele>
        <time>2021-04-10T12:30:33Z</time>
      </trkpt>
      <trkpt lat="47.22453" lon="6.13702">
        <ele>436</ele>
        <time>2021-04-10T12:30:34Z</time>
      </trkpt>
      <trkpt lat="47.22453" lon="6.13697">
        <ele>436</ele>
        <time>2021-04-10T12:30:35Z</time>
      </trkpt>
      <trkpt lat="47.22454" lon="6.13691">
        <ele>436</ele>
        <time>2021-04-10T12:30:36Z</time>
      </trkpt>
      <trkpt lat="47.22455" lon="6.13685">
        <ele>436</ele>
        <time>2021-04-10T12:30:37Z</time>
      </trkpt>
      <trkpt lat="47.22456" lon="6.13679">
        <ele>436</ele>
        <time>2021-04-10T12:30:38Z</time>
      </trkpt>
      <trkpt lat="47.22456" lon="6.13674">
        <ele>436</ele>
        <time>2021-04-10T12:30:39Z</time>
      </trkpt>
      <trkpt lat="47.22457" lon="6.1367">
        <ele>435.8</ele>
        <time>2021-04-10T12:30:40Z</time>
      </trkpt>
      <trkpt lat="47.22458" lon="6.13663">
        <ele>435.8</ele>
        <time>2021-04-10T12:30:41Z</time>
      </trkpt>
      <trkpt lat="47.22459" lon="6.13658">
        <ele>435.8</ele>
        <time>2021-04-10T12:30:42Z</time>
      </trkpt>
      <trkpt lat="47.22459" lon="6.13653">
        <ele>435.8</ele>
        <time>2021-04-10T12:30:43Z</time>
      </trkpt>
      <trkpt lat="47.2246" lon="6.13648">
        <ele>435.6</ele>
        <time>2021-04-10T12:30:44Z</time>
      </trkpt>
      <trkpt lat="47.22461" lon="6.13642">
        <ele>435.6</ele>
        <time>2021-04-10T12:30:45Z</time>
      </trkpt>
      <trkpt lat="47.22464" lon="6.13622">
        <ele>435.6</ele>
        <time>2021-04-10T12:30:49Z</time>
      </trkpt>
      <trkpt lat="47.22465" lon="6.13613">
        <ele>435.4</ele>
        <time>2021-04-10T12:30:51Z</time>
      </trkpt>
      <trkpt lat="47.22466" lon="6.13609">
        <ele>435.4</ele>
        <time>2021-04-10T12:30:52Z</time>
      </trkpt>
      <trkpt lat="47.22467" lon="6.13604">
        <ele>435.4</ele>
        <time>2021-04-10T12:30:53Z</time>
      </trkpt>
      <trkpt lat="47.22468" lon="6.13599">
        <ele>435.6</ele>
        <time>2021-04-10T12:30:54Z</time>
      </trkpt>
      <trkpt lat="47.22469" lon="6.13595">
        <ele>435.6</ele>
        <time>2021-04-10T12:30:55Z</time>
      </trkpt>
      <trkpt lat="47.2247" lon="6.1359">
        <ele>435.6</ele>
        <time>2021-04-10T12:30:56Z</time>
      </trkpt>
      <trkpt lat="47.22471" lon="6.13582">
        <ele>435.8</ele>
        <time>2021-04-10T12:30:58Z</time>
      </trkpt>
      <trkpt lat="47.22472" lon="6.13578">
        <ele>435.8</ele>
        <time>2021-04-10T12:30:59Z</time>
      </trkpt>
      <trkpt lat="47.22473" lon="6.13575">
        <ele>436</ele>
        <time>2021-04-10T12:31:00Z</time>
      </trkpt>
      <trkpt lat="47.22474" lon="6.13571">
        <ele>436.2</ele>
        <time>2021-04-10T12:31:01Z</time>
      </trkpt>
      <trkpt lat="47.22474" lon="6.13568">
        <ele>436.4</ele>
        <time>2021-04-10T12:31:02Z</time>
      </trkpt>
      <trkpt lat="47.22475" lon="6.13565">
        <ele>436.6</ele>
        <time>2021-04-10T12:31:03Z</time>
      </trkpt>
      <trkpt lat="47.22476" lon="6.13563">
        <ele>436.6</ele>
        <time>2021-04-10T12:31:04Z</time>
      </trkpt>
      <trkpt lat="47.22477" lon="6.13559">
        <ele>436.8</ele>
        <time>2021-04-10T12:31:05Z</time>
      </trkpt>
      <trkpt lat="47.22477" lon="6.13556">
        <ele>437</ele>
        <time>2021-04-10T12:31:06Z</time>
      </trkpt>
      <trkpt lat="47.22478" lon="6.13553">
        <ele>437.2</ele>
        <time>2021-04-10T12:31:07Z</time>
      </trkpt>
      <trkpt lat="47.22479" lon="6.13549">
        <ele>437.4</ele>
        <time>2021-04-10T12:31:08Z</time>
      </trkpt>
      <trkpt lat="47.2248" lon="6.13546">
        <ele>437.4</ele>
        <time>2021-04-10T12:31:09Z</time>
      </trkpt>
      <trkpt lat="47.22482" lon="6.13541">
        <ele>437.8</ele>
        <time>2021-04-10T12:31:10Z</time>
      </trkpt>
      <trkpt lat="47.22483" lon="6.13537">
        <ele>438</ele>
        <time>2021-04-10T12:31:11Z</time>
      </trkpt>
      <trkpt lat="47.22487" lon="6.13527">
        <ele>438.2</ele>
        <time>2021-04-10T12:31:13Z</time>
      </trkpt>
      <trkpt lat="47.22503" lon="6.13491">
        <ele>438.2</ele>
        <time>2021-04-10T12:31:19Z</time>
      </trkpt>
      <trkpt lat="47.2252" lon="6.13456">
        <ele>437.4</ele>
        <time>2021-04-10T12:31:24Z</time>
      </trkpt>
      <trkpt lat="47.22527" lon="6.13442">
        <ele>437.2</ele>
        <time>2021-04-10T12:31:26Z</time>
      </trkpt>
      <trkpt lat="47.22533" lon="6.13427">
        <ele>437</ele>
        <time>2021-04-10T12:31:28Z</time>
      </trkpt>
      <trkpt lat="47.22547" lon="6.13388">
        <ele>436.2</ele>
        <time>2021-04-10T12:31:33Z</time>
      </trkpt>
      <trkpt lat="47.2255" lon="6.13372">
        <ele>435.8</ele>
        <time>2021-04-10T12:31:35Z</time>
      </trkpt>
      <trkpt lat="47.22555" lon="6.13349">
        <ele>435.4</ele>
        <time>2021-04-10T12:31:38Z</time>
      </trkpt>
      <trkpt lat="47.22556" lon="6.13341">
        <ele>435.2</ele>
        <time>2021-04-10T12:31:39Z</time>
      </trkpt>
      <trkpt lat="47.22557" lon="6.13334">
        <ele>435</ele>
        <time>2021-04-10T12:31:40Z</time>
      </trkpt>
      <trkpt lat="47.22558" lon="6.13329">
        <ele>434.8</ele>
        <time>2021-04-10T12:31:41Z</time>
      </trkpt>
      <trkpt lat="47.22559" lon="6.1332">
        <ele>434.8</ele>
        <time>2021-04-10T12:31:42Z</time>
      </trkpt>
      <trkpt lat="47.2256" lon="6.13302">
        <ele>434.6</ele>
        <time>2021-04-10T12:31:45Z</time>
      </trkpt>
      <trkpt lat="47.2256" lon="6.13295">
        <ele>434.6</ele>
        <time>2021-04-10T12:31:46Z</time>
      </trkpt>
      <trkpt lat="47.2256" lon="6.13288">
        <ele>434.6</ele>
        <time>2021-04-10T12:31:47Z</time>
      </trkpt>
      <trkpt lat="47.2256" lon="6.13282">
        <ele>434.8</ele>
        <time>2021-04-10T12:31:48Z</time>
      </trkpt>
      <trkpt lat="47.22559" lon="6.13276">
        <ele>435</ele>
        <time>2021-04-10T12:31:49Z</time>
      </trkpt>
      <trkpt lat="47.22559" lon="6.13271">
        <ele>435.2</ele>
        <time>2021-04-10T12:31:50Z</time>
      </trkpt>
      <trkpt lat="47.22558" lon="6.13264">
        <ele>435.4</ele>
        <time>2021-04-10T12:31:51Z</time>
      </trkpt>
      <trkpt lat="47.22557" lon="6.13258">
        <ele>435.6</ele>
        <time>2021-04-10T12:31:52Z</time>
      </trkpt>
      <trkpt lat="47.22557" lon="6.13252">
        <ele>435.8</ele>
        <time>2021-04-10T12:31:53Z</time>
      </trkpt>
      <trkpt lat="47.22555" lon="6.13246">
        <ele>435.8</ele>
        <time>2021-04-10T12:31:54Z</time>
      </trkpt>
      <trkpt lat="47.22555" lon="6.13242">
        <ele>436</ele>
        <time>2021-04-10T12:31:55Z</time>
      </trkpt>
      <trkpt lat="47.22552" lon="6.1323">
        <ele>436</ele>
        <time>2021-04-10T12:31:57Z</time>
      </trkpt>
      <trkpt lat="47.2255" lon="6.13224">
        <ele>436.2</ele>
        <time>2021-04-10T12:31:58Z</time>
      </trkpt>
      <trkpt lat="47.22547" lon="6.13207">
        <ele>436.2</ele>
        <time>2021-04-10T12:32:01Z</time>
      </trkpt>
      <trkpt lat="47.22545" lon="6.13195">
        <ele>436.2</ele>
        <time>2021-04-10T12:32:03Z</time>
      </trkpt>
      <trkpt lat="47.22544" lon="6.1319">
        <ele>436.2</ele>
        <time>2021-04-10T12:32:04Z</time>
      </trkpt>
      <trkpt lat="47.22543" lon="6.13184">
        <ele>436.2</ele>
        <time>2021-04-10T12:32:05Z</time>
      </trkpt>
      <trkpt lat="47.22542" lon="6.13172">
        <ele>436.4</ele>
        <time>2021-04-10T12:32:07Z</time>
      </trkpt>
      <trkpt lat="47.22542" lon="6.13161">
        <ele>436.4</ele>
        <time>2021-04-10T12:32:09Z</time>
      </trkpt>
      <trkpt lat="47.22542" lon="6.13155">
        <ele>436.6</ele>
        <time>2021-04-10T12:32:10Z</time>
      </trkpt>
      <trkpt lat="47.22545" lon="6.13116">
        <ele>437.2</ele>
        <time>2021-04-10T12:32:16Z</time>
      </trkpt>
      <trkpt lat="47.22546" lon="6.1311">
        <ele>437.2</ele>
        <time>2021-04-10T12:32:17Z</time>
      </trkpt>
      <trkpt lat="47.22547" lon="6.13105">
        <ele>437.2</ele>
        <time>2021-04-10T12:32:18Z</time>
      </trkpt>
      <trkpt lat="47.22557" lon="6.13075">
        <ele>437.4</ele>
        <time>2021-04-10T12:32:23Z</time>
      </trkpt>
      <trkpt lat="47.22562" lon="6.13065">
        <ele>437.6</ele>
        <time>2021-04-10T12:32:25Z</time>
      </trkpt>
      <trkpt lat="47.22565" lon="6.13062">
        <ele>437.6</ele>
        <time>2021-04-10T12:32:26Z</time>
      </trkpt>
      <trkpt lat="47.22567" lon="6.13058">
        <ele>437.4</ele>
        <time>2021-04-10T12:32:27Z</time>
      </trkpt>
      <trkpt lat="47.22569" lon="6.13055">
        <ele>437.8</ele>
        <time>2021-04-10T12:32:28Z</time>
      </trkpt>
      <trkpt lat="47.22572" lon="6.13052">
        <ele>438</ele>
        <time>2021-04-10T12:32:29Z</time>
      </trkpt>
      <trkpt lat="47.22576" lon="6.13045">
        <ele>438.4</ele>
        <time>2021-04-10T12:32:31Z</time>
      </trkpt>
      <trkpt lat="47.22578" lon="6.13042">
        <ele>438.6</ele>
        <time>2021-04-10T12:32:32Z</time>
      </trkpt>
      <trkpt lat="47.2258" lon="6.13039">
        <ele>438.8</ele>
        <time>2021-04-10T12:32:33Z</time>
      </trkpt>
      <trkpt lat="47.22581" lon="6.13036">
        <ele>439.2</ele>
        <time>2021-04-10T12:32:34Z</time>
      </trkpt>
      <trkpt lat="47.22582" lon="6.13034">
        <ele>439.4</ele>
        <time>2021-04-10T12:32:35Z</time>
      </trkpt>
      <trkpt lat="47.22583" lon="6.13032">
        <ele>439.8</ele>
        <time>2021-04-10T12:32:36Z</time>
      </trkpt>
      <trkpt lat="47.22584" lon="6.1303">
        <ele>439.8</ele>
        <time>2021-04-10T12:32:37Z</time>
      </trkpt>
      <trkpt lat="47.22588" lon="6.13025">
        <ele>440.2</ele>
        <time>2021-04-10T12:32:39Z</time>
      </trkpt>
      <trkpt lat="47.22589" lon="6.13022">
        <ele>440.4</ele>
        <time>2021-04-10T12:32:40Z</time>
      </trkpt>
      <trkpt lat="47.2259" lon="6.13019">
        <ele>440.4</ele>
        <time>2021-04-10T12:32:41Z</time>
      </trkpt>
      <trkpt lat="47.22591" lon="6.13017">
        <ele>440.4</ele>
        <time>2021-04-10T12:32:42Z</time>
      </trkpt>
      <trkpt lat="47.22592" lon="6.13014">
        <ele>440.6</ele>
        <time>2021-04-10T12:32:43Z</time>
      </trkpt>
      <trkpt lat="47.22593" lon="6.13011">
        <ele>440.8</ele>
        <time>2021-04-10T12:32:44Z</time>
      </trkpt>
      <trkpt lat="47.22594" lon="6.13008">
        <ele>441</ele>
        <time>2021-04-10T12:32:45Z</time>
      </trkpt>
      <trkpt lat="47.22595" lon="6.13005">
        <ele>441.2</ele>
        <time>2021-04-10T12:32:46Z</time>
      </trkpt>
      <trkpt lat="47.22596" lon="6.13002">
        <ele>441.4</ele>
        <time>2021-04-10T12:32:47Z</time>
      </trkpt>
      <trkpt lat="47.22597" lon="6.12999">
        <ele>441.6</ele>
        <time>2021-04-10T12:32:48Z</time>
      </trkpt>
      <trkpt lat="47.22598" lon="6.12996">
        <ele>441.6</ele>
        <time>2021-04-10T12:32:49Z</time>
      </trkpt>
      <trkpt lat="47.22598" lon="6.12992">
        <ele>441.8</ele>
        <time>2021-04-10T12:32:50Z</time>
      </trkpt>
      <trkpt lat="47.22599" lon="6.12989">
        <ele>441.8</ele>
        <time>2021-04-10T12:32:51Z</time>
      </trkpt>
      <trkpt lat="47.226" lon="6.12986">
        <ele>442</ele>
        <time>2021-04-10T12:32:52Z</time>
      </trkpt>
      <trkpt lat="47.226" lon="6.12983">
        <ele>442</ele>
        <time>2021-04-10T12:32:53Z</time>
      </trkpt>
      <trkpt lat="47.22601" lon="6.12979">
        <ele>442.2</ele>
        <time>2021-04-10T12:32:54Z</time>
      </trkpt>
      <trkpt lat="47.22601" lon="6.12976">
        <ele>442.2</ele>
        <time>2021-04-10T12:32:55Z</time>
      </trkpt>
      <trkpt lat="47.22601" lon="6.12973">
        <ele>442.6</ele>
        <time>2021-04-10T12:32:56Z</time>
      </trkpt>
      <trkpt lat="47.22601" lon="6.1297">
        <ele>442.6</ele>
        <time>2021-04-10T12:32:57Z</time>
      </trkpt>
      <trkpt lat="47.22602" lon="6.12967">
        <ele>442.8</ele>
        <time>2021-04-10T12:32:58Z</time>
      </trkpt>
      <trkpt lat="47.22602" lon="6.12963">
        <ele>443</ele>
        <time>2021-04-10T12:32:59Z</time>
      </trkpt>
      <trkpt lat="47.22603" lon="6.1296">
        <ele>443</ele>
        <time>2021-04-10T12:33:00Z</time>
      </trkpt>
      <trkpt lat="47.22603" lon="6.12956">
        <ele>443.2</ele>
        <time>2021-04-10T12:33:01Z</time>
      </trkpt>
      <trkpt lat="47.22604" lon="6.12952">
        <ele>443.2</ele>
        <time>2021-04-10T12:33:02Z</time>
      </trkpt>
      <trkpt lat="47.22604" lon="6.12947">
        <ele>443.2</ele>
        <time>2021-04-10T12:33:03Z</time>
      </trkpt>
      <trkpt lat="47.22604" lon="6.12943">
        <ele>443.2</ele>
        <time>2021-04-10T12:33:04Z</time>
      </trkpt>
      <trkpt lat="47.22605" lon="6.12939">
        <ele>443.4</ele>
        <time>2021-04-10T12:33:05Z</time>
      </trkpt>
      <trkpt lat="47.22605" lon="6.12935">
        <ele>443.4</ele>
        <time>2021-04-10T12:33:06Z</time>
      </trkpt>
      <trkpt lat="47.22606" lon="6.1293">
        <ele>443.4</ele>
        <time>2021-04-10T12:33:07Z</time>
      </trkpt>
      <trkpt lat="47.22606" lon="6.12926">
        <ele>443.6</ele>
        <time>2021-04-10T12:33:08Z</time>
      </trkpt>
      <trkpt lat="47.22607" lon="6.12922">
        <ele>443.6</ele>
        <time>2021-04-10T12:33:09Z</time>
      </trkpt>
      <trkpt lat="47.22608" lon="6.12919">
        <ele>443.6</ele>
        <time>2021-04-10T12:33:10Z</time>
      </trkpt>
      <trkpt lat="47.22609" lon="6.12915">
        <ele>443.6</ele>
        <time>2021-04-10T12:33:11Z</time>
      </trkpt>
      <trkpt lat="47.2261" lon="6.12911">
        <ele>443.4</ele>
        <time>2021-04-10T12:33:12Z</time>
      </trkpt>
      <trkpt lat="47.22611" lon="6.12907">
        <ele>443.4</ele>
        <time>2021-04-10T12:33:13Z</time>
      </trkpt>
      <trkpt lat="47.22612" lon="6.12903">
        <ele>443.4</ele>
        <time>2021-04-10T12:33:14Z</time>
      </trkpt>
      <trkpt lat="47.22614" lon="6.12899">
        <ele>443.4</ele>
        <time>2021-04-10T12:33:15Z</time>
      </trkpt>
      <trkpt lat="47.22615" lon="6.12896">
        <ele>443.4</ele>
        <time>2021-04-10T12:33:16Z</time>
      </trkpt>
      <trkpt lat="47.22616" lon="6.12893">
        <ele>443.4</ele>
        <time>2021-04-10T12:33:17Z</time>
      </trkpt>
      <trkpt lat="47.22618" lon="6.1289">
        <ele>443.4</ele>
        <time>2021-04-10T12:33:18Z</time>
      </trkpt>
      <trkpt lat="47.22619" lon="6.12887">
        <ele>443.6</ele>
        <time>2021-04-10T12:33:19Z</time>
      </trkpt>
      <trkpt lat="47.2262" lon="6.12884">
        <ele>443.6</ele>
        <time>2021-04-10T12:33:20Z</time>
      </trkpt>
      <trkpt lat="47.22621" lon="6.12881">
        <ele>443.8</ele>
        <time>2021-04-10T12:33:21Z</time>
      </trkpt>
      <trkpt lat="47.22622" lon="6.12878">
        <ele>444</ele>
        <time>2021-04-10T12:33:22Z</time>
      </trkpt>
      <trkpt lat="47.22624" lon="6.12876">
        <ele>444.4</ele>
        <time>2021-04-10T12:33:23Z</time>
      </trkpt>
      <trkpt lat="47.22625" lon="6.12873">
        <ele>444.4</ele>
        <time>2021-04-10T12:33:24Z</time>
      </trkpt>
      <trkpt lat="47.22626" lon="6.12871">
        <ele>444.8</ele>
        <time>2021-04-10T12:33:25Z</time>
      </trkpt>
      <trkpt lat="47.22628" lon="6.12868">
        <ele>445</ele>
        <time>2021-04-10T12:33:26Z</time>
      </trkpt>
      <trkpt lat="47.22629" lon="6.12865">
        <ele>445</ele>
        <time>2021-04-10T12:33:27Z</time>
      </trkpt>
      <trkpt lat="47.22633" lon="6.12858">
        <ele>445.4</ele>
        <time>2021-04-10T12:33:30Z</time>
      </trkpt>
      <trkpt lat="47.22635" lon="6.12855">
        <ele>445.6</ele>
        <time>2021-04-10T12:33:31Z</time>
      </trkpt>
      <trkpt lat="47.22636" lon="6.12853">
        <ele>446</ele>
        <time>2021-04-10T12:33:32Z</time>
      </trkpt>
      <trkpt lat="47.2264" lon="6.12844">
        <ele>446.2</ele>
        <time>2021-04-10T12:33:35Z</time>
      </trkpt>
      <trkpt lat="47.22641" lon="6.12842">
        <ele>446.2</ele>
        <time>2021-04-10T12:33:36Z</time>
      </trkpt>
      <trkpt lat="47.22642" lon="6.12839">
        <ele>446.4</ele>
        <time>2021-04-10T12:33:37Z</time>
      </trkpt>
      <trkpt lat="47.22643" lon="6.12836">
        <ele>446.4</ele>
        <time>2021-04-10T12:33:38Z</time>
      </trkpt>
      <trkpt lat="47.22644" lon="6.12834">
        <ele>446.4</ele>
        <time>2021-04-10T12:33:39Z</time>
      </trkpt>
      <trkpt lat="47.22645" lon="6.12831">
        <ele>446.4</ele>
        <time>2021-04-10T12:33:40Z</time>
      </trkpt>
      <trkpt lat="47.22647" lon="6.12828">
        <ele>446.6</ele>
        <time>2021-04-10T12:33:41Z</time>
      </trkpt>
      <trkpt lat="47.22648" lon="6.12826">
        <ele>446.6</ele>
        <time>2021-04-10T12:33:42Z</time>
      </trkpt>
      <trkpt lat="47.22649" lon="6.12825">
        <ele>446.8</ele>
        <time>2021-04-10T12:33:43Z</time>
      </trkpt>
      <trkpt lat="47.22649" lon="6.12824">
        <ele>446.8</ele>
        <time>2021-04-10T12:33:44Z</time>
      </trkpt>
      <trkpt lat="47.22649" lon="6.12824">
        <ele>447</ele>
        <time>2021-04-10T12:33:45Z</time>
      </trkpt>
      <trkpt lat="47.22649" lon="6.12824">
        <ele>447.2</ele>
        <time>2021-04-10T12:33:49Z</time>
      </trkpt>
      <trkpt lat="47.2265" lon="6.12822">
        <ele>447.4</ele>
        <time>2021-04-10T12:33:55Z</time>
      </trkpt>
      <trkpt lat="47.2265" lon="6.1282">
        <ele>447.4</ele>
        <time>2021-04-10T12:33:56Z</time>
      </trkpt>
      <trkpt lat="47.22651" lon="6.12818">
        <ele>447.6</ele>
        <time>2021-04-10T12:33:57Z</time>
      </trkpt>
      <trkpt lat="47.22657" lon="6.12798">
        <ele>447.6</ele>
        <time>2021-04-10T12:34:03Z</time>
      </trkpt>
      <trkpt lat="47.22669" lon="6.12762">
        <ele>447.8</ele>
        <time>2021-04-10T12:34:11Z</time>
      </trkpt>
      <trkpt lat="47.22673" lon="6.12752">
        <ele>447.8</ele>
        <time>2021-04-10T12:34:13Z</time>
      </trkpt>
      <trkpt lat="47.22678" lon="6.12726">
        <ele>447.4</ele>
        <time>2021-04-10T12:34:18Z</time>
      </trkpt>
      <trkpt lat="47.22685" lon="6.12672">
        <ele>446.8</ele>
        <time>2021-04-10T12:34:27Z</time>
      </trkpt>
      <trkpt lat="47.22689" lon="6.12634">
        <ele>446</ele>
        <time>2021-04-10T12:34:33Z</time>
      </trkpt>
      <trkpt lat="47.2269" lon="6.12627">
        <ele>446</ele>
        <time>2021-04-10T12:34:34Z</time>
      </trkpt>
      <trkpt lat="47.22698" lon="6.1256">
        <ele>445</ele>
        <time>2021-04-10T12:34:44Z</time>
      </trkpt>
      <trkpt lat="47.22698" lon="6.12554">
        <ele>445</ele>
        <time>2021-04-10T12:34:45Z</time>
      </trkpt>
      <trkpt lat="47.22699" lon="6.12541">
        <ele>444.8</ele>
        <time>2021-04-10T12:34:47Z</time>
      </trkpt>
      <trkpt lat="47.227" lon="6.12535">
        <ele>444.8</ele>
        <time>2021-04-10T12:34:48Z</time>
      </trkpt>
      <trkpt lat="47.22701" lon="6.12529">
        <ele>444.6</ele>
        <time>2021-04-10T12:34:49Z</time>
      </trkpt>
      <trkpt lat="47.22701" lon="6.12524">
        <ele>444.6</ele>
        <time>2021-04-10T12:34:50Z</time>
      </trkpt>
      <trkpt lat="47.22702" lon="6.12517">
        <ele>444.6</ele>
        <time>2021-04-10T12:34:51Z</time>
      </trkpt>
      <trkpt lat="47.22703" lon="6.12511">
        <ele>444.6</ele>
        <time>2021-04-10T12:34:52Z</time>
      </trkpt>
      <trkpt lat="47.22704" lon="6.12499">
        <ele>444.6</ele>
        <time>2021-04-10T12:34:54Z</time>
      </trkpt>
      <trkpt lat="47.22705" lon="6.12476">
        <ele>444.2</ele>
        <time>2021-04-10T12:34:58Z</time>
      </trkpt>
      <trkpt lat="47.22705" lon="6.12465">
        <ele>444.2</ele>
        <time>2021-04-10T12:35:00Z</time>
      </trkpt>
      <trkpt lat="47.22704" lon="6.12459">
        <ele>444</ele>
        <time>2021-04-10T12:35:01Z</time>
      </trkpt>
      <trkpt lat="47.22704" lon="6.12447">
        <ele>444</ele>
        <time>2021-04-10T12:35:03Z</time>
      </trkpt>
      <trkpt lat="47.227" lon="6.12427">
        <ele>443.6</ele>
        <time>2021-04-10T12:35:06Z</time>
      </trkpt>
      <trkpt lat="47.22697" lon="6.12415">
        <ele>443.2</ele>
        <time>2021-04-10T12:35:08Z</time>
      </trkpt>
      <trkpt lat="47.22691" lon="6.12395">
        <ele>442.8</ele>
        <time>2021-04-10T12:35:11Z</time>
      </trkpt>
      <trkpt lat="47.22682" lon="6.1236">
        <ele>441.8</ele>
        <time>2021-04-10T12:35:16Z</time>
      </trkpt>
      <trkpt lat="47.22679" lon="6.12345">
        <ele>441.6</ele>
        <time>2021-04-10T12:35:18Z</time>
      </trkpt>
      <trkpt lat="47.22672" lon="6.12311">
        <ele>440.8</ele>
        <time>2021-04-10T12:35:22Z</time>
      </trkpt>
      <trkpt lat="47.2267" lon="6.12302">
        <ele>440.4</ele>
        <time>2021-04-10T12:35:23Z</time>
      </trkpt>
      <trkpt lat="47.22667" lon="6.12284">
        <ele>439.8</ele>
        <time>2021-04-10T12:35:25Z</time>
      </trkpt>
      <trkpt lat="47.22663" lon="6.12266">
        <ele>439.2</ele>
        <time>2021-04-10T12:35:27Z</time>
      </trkpt>
      <trkpt lat="47.22661" lon="6.12256">
        <ele>439</ele>
        <time>2021-04-10T12:35:28Z</time>
      </trkpt>
      <trkpt lat="47.22657" lon="6.1224">
        <ele>438.4</ele>
        <time>2021-04-10T12:35:30Z</time>
      </trkpt>
      <trkpt lat="47.22655" lon="6.12234">
        <ele>438</ele>
        <time>2021-04-10T12:35:31Z</time>
      </trkpt>
      <trkpt lat="47.22653" lon="6.12228">
        <ele>437.4</ele>
        <time>2021-04-10T12:35:32Z</time>
      </trkpt>
      <trkpt lat="47.22653" lon="6.12223">
        <ele>437.2</ele>
        <time>2021-04-10T12:35:33Z</time>
      </trkpt>
      <trkpt lat="47.22651" lon="6.12218">
        <ele>436.8</ele>
        <time>2021-04-10T12:35:34Z</time>
      </trkpt>
      <trkpt lat="47.22651" lon="6.12214">
        <ele>436.6</ele>
        <time>2021-04-10T12:35:35Z</time>
      </trkpt>
      <trkpt lat="47.22652" lon="6.1221">
        <ele>436.2</ele>
        <time>2021-04-10T12:35:36Z</time>
      </trkpt>
      <trkpt lat="47.22654" lon="6.12206">
        <ele>436.2</ele>
        <time>2021-04-10T12:35:37Z</time>
      </trkpt>
      <trkpt lat="47.22661" lon="6.122">
        <ele>435.8</ele>
        <time>2021-04-10T12:35:39Z</time>
      </trkpt>
      <trkpt lat="47.22665" lon="6.12196">
        <ele>435.6</ele>
        <time>2021-04-10T12:35:40Z</time>
      </trkpt>
      <trkpt lat="47.2267" lon="6.12193">
        <ele>435.4</ele>
        <time>2021-04-10T12:35:41Z</time>
      </trkpt>
      <trkpt lat="47.22675" lon="6.12189">
        <ele>435.4</ele>
        <time>2021-04-10T12:35:42Z</time>
      </trkpt>
      <trkpt lat="47.22685" lon="6.12186">
        <ele>435</ele>
        <time>2021-04-10T12:35:44Z</time>
      </trkpt>
      <trkpt lat="47.2269" lon="6.12187">
        <ele>434.6</ele>
        <time>2021-04-10T12:35:45Z</time>
      </trkpt>
      <trkpt lat="47.22695" lon="6.1219">
        <ele>434.4</ele>
        <time>2021-04-10T12:35:46Z</time>
      </trkpt>
      <trkpt lat="47.22699" lon="6.12195">
        <ele>434.2</ele>
        <time>2021-04-10T12:35:47Z</time>
      </trkpt>
      <trkpt lat="47.22703" lon="6.122">
        <ele>434</ele>
        <time>2021-04-10T12:35:48Z</time>
      </trkpt>
      <trkpt lat="47.22706" lon="6.12205">
        <ele>433.8</ele>
        <time>2021-04-10T12:35:49Z</time>
      </trkpt>
      <trkpt lat="47.2271" lon="6.1221">
        <ele>433.8</ele>
        <time>2021-04-10T12:35:50Z</time>
      </trkpt>
      <trkpt lat="47.22732" lon="6.12254">
        <ele>434</ele>
        <time>2021-04-10T12:35:57Z</time>
      </trkpt>
      <trkpt lat="47.22735" lon="6.12259">
        <ele>434.2</ele>
        <time>2021-04-10T12:35:58Z</time>
      </trkpt>
      <trkpt lat="47.22737" lon="6.12264">
        <ele>434.4</ele>
        <time>2021-04-10T12:35:59Z</time>
      </trkpt>
      <trkpt lat="47.22739" lon="6.12268">
        <ele>434.6</ele>
        <time>2021-04-10T12:36:00Z</time>
      </trkpt>
      <trkpt lat="47.22741" lon="6.12269">
        <ele>434.8</ele>
        <time>2021-04-10T12:36:01Z</time>
      </trkpt>
      <trkpt lat="47.22742" lon="6.12267">
        <ele>434.8</ele>
        <time>2021-04-10T12:36:02Z</time>
      </trkpt>
      <trkpt lat="47.22742" lon="6.12264">
        <ele>435</ele>
        <time>2021-04-10T12:36:03Z</time>
      </trkpt>
      <trkpt lat="47.22741" lon="6.12262">
        <ele>435</ele>
        <time>2021-04-10T12:36:04Z</time>
      </trkpt>
      <trkpt lat="47.22733" lon="6.1225">
        <ele>435.4</ele>
        <time>2021-04-10T12:36:07Z</time>
      </trkpt>
      <trkpt lat="47.2273" lon="6.12244">
        <ele>435.4</ele>
        <time>2021-04-10T12:36:08Z</time>
      </trkpt>
      <trkpt lat="47.22711" lon="6.12207">
        <ele>435</ele>
        <time>2021-04-10T12:36:14Z</time>
      </trkpt>
      <trkpt lat="47.22707" lon="6.12202">
        <ele>435</ele>
        <time>2021-04-10T12:36:15Z</time>
      </trkpt>
      <trkpt lat="47.22703" lon="6.12197">
        <ele>434.6</ele>
        <time>2021-04-10T12:36:16Z</time>
      </trkpt>
      <trkpt lat="47.22694" lon="6.1219">
        <ele>434.2</ele>
        <time>2021-04-10T12:36:18Z</time>
      </trkpt>
      <trkpt lat="47.22689" lon="6.12188">
        <ele>433.8</ele>
        <time>2021-04-10T12:36:19Z</time>
      </trkpt>
      <trkpt lat="47.22684" lon="6.12188">
        <ele>433.8</ele>
        <time>2021-04-10T12:36:20Z</time>
      </trkpt>
      <trkpt lat="47.2268" lon="6.12188">
        <ele>433.6</ele>
        <time>2021-04-10T12:36:21Z</time>
      </trkpt>
      <trkpt lat="47.22676" lon="6.1219">
        <ele>433.4</ele>
        <time>2021-04-10T12:36:22Z</time>
      </trkpt>
      <trkpt lat="47.22672" lon="6.12192">
        <ele>433.4</ele>
        <time>2021-04-10T12:36:23Z</time>
      </trkpt>
      <trkpt lat="47.22668" lon="6.12194">
        <ele>433.4</ele>
        <time>2021-04-10T12:36:24Z</time>
      </trkpt>
      <trkpt lat="47.22658" lon="6.12201">
        <ele>433.4</ele>
        <time>2021-04-10T12:36:27Z</time>
      </trkpt>
      <trkpt lat="47.22655" lon="6.12203">
        <ele>433.8</ele>
        <time>2021-04-10T12:36:28Z</time>
      </trkpt>
      <trkpt lat="47.22653" lon="6.12206">
        <ele>434</ele>
        <time>2021-04-10T12:36:29Z</time>
      </trkpt>
      <trkpt lat="47.22651" lon="6.12207">
        <ele>434.2</ele>
        <time>2021-04-10T12:36:30Z</time>
      </trkpt>
      <trkpt lat="47.2265" lon="6.12208">
        <ele>434.2</ele>
        <time>2021-04-10T12:36:31Z</time>
      </trkpt>
      <trkpt lat="47.2265" lon="6.12208">
        <ele>434.6</ele>
        <time>2021-04-10T12:36:32Z</time>
      </trkpt>
      <trkpt lat="47.2265" lon="6.12208">
        <ele>434.8</ele>
        <time>2021-04-10T12:36:33Z</time>
      </trkpt>
      <trkpt lat="47.22647" lon="6.12205">
        <ele>435.6</ele>
        <time>2021-04-10T12:36:38Z</time>
      </trkpt>
      <trkpt lat="47.22645" lon="6.12202">
        <ele>435.6</ele>
        <time>2021-04-10T12:36:39Z</time>
      </trkpt>
      <trkpt lat="47.22641" lon="6.12193">
        <ele>435.6</ele>
        <time>2021-04-10T12:36:41Z</time>
      </trkpt>
      <trkpt lat="47.22639" lon="6.12188">
        <ele>435.6</ele>
        <time>2021-04-10T12:36:42Z</time>
      </trkpt>
      <trkpt lat="47.22636" lon="6.12182">
        <ele>435.6</ele>
        <time>2021-04-10T12:36:43Z</time>
      </trkpt>
      <trkpt lat="47.22617" lon="6.12142">
        <ele>434.4</ele>
        <time>2021-04-10T12:36:49Z</time>
      </trkpt>
      <trkpt lat="47.22606" lon="6.12117">
        <ele>433.6</ele>
        <time>2021-04-10T12:36:52Z</time>
      </trkpt>
      <trkpt lat="47.22596" lon="6.1209">
        <ele>432</ele>
        <time>2021-04-10T12:36:55Z</time>
      </trkpt>
      <trkpt lat="47.22593" lon="6.12079">
        <ele>431.8</ele>
        <time>2021-04-10T12:36:56Z</time>
      </trkpt>
      <trkpt lat="47.22588" lon="6.12058">
        <ele>430.8</ele>
        <time>2021-04-10T12:36:58Z</time>
      </trkpt>
      <trkpt lat="47.22587" lon="6.12046">
        <ele>430.2</ele>
        <time>2021-04-10T12:36:59Z</time>
      </trkpt>
      <trkpt lat="47.22585" lon="6.12035">
        <ele>429.8</ele>
        <time>2021-04-10T12:37:00Z</time>
      </trkpt>
      <trkpt lat="47.22588" lon="6.1201">
        <ele>428.2</ele>
        <time>2021-04-10T12:37:02Z</time>
      </trkpt>
      <trkpt lat="47.22591" lon="6.11999">
        <ele>427.8</ele>
        <time>2021-04-10T12:37:03Z</time>
      </trkpt>
      <trkpt lat="47.22595" lon="6.1199">
        <ele>427.4</ele>
        <time>2021-04-10T12:37:04Z</time>
      </trkpt>
      <trkpt lat="47.226" lon="6.11977">
        <ele>427</ele>
        <time>2021-04-10T12:37:05Z</time>
      </trkpt>
      <trkpt lat="47.22604" lon="6.11967">
        <ele>426.2</ele>
        <time>2021-04-10T12:37:06Z</time>
      </trkpt>
      <trkpt lat="47.22607" lon="6.11959">
        <ele>426</ele>
        <time>2021-04-10T12:37:07Z</time>
      </trkpt>
      <trkpt lat="47.22609" lon="6.1195">
        <ele>425.4</ele>
        <time>2021-04-10T12:37:08Z</time>
      </trkpt>
      <trkpt lat="47.2261" lon="6.11941">
        <ele>425.2</ele>
        <time>2021-04-10T12:37:09Z</time>
      </trkpt>
      <trkpt lat="47.22612" lon="6.11933">
        <ele>424.2</ele>
        <time>2021-04-10T12:37:10Z</time>
      </trkpt>
      <trkpt lat="47.22613" lon="6.11925">
        <ele>423.4</ele>
        <time>2021-04-10T12:37:11Z</time>
      </trkpt>
      <trkpt lat="47.22615" lon="6.11918">
        <ele>423</ele>
        <time>2021-04-10T12:37:12Z</time>
      </trkpt>
      <trkpt lat="47.22617" lon="6.11911">
        <ele>422.4</ele>
        <time>2021-04-10T12:37:13Z</time>
      </trkpt>
      <trkpt lat="47.22619" lon="6.11903">
        <ele>422</ele>
        <time>2021-04-10T12:37:14Z</time>
      </trkpt>
      <trkpt lat="47.2263" lon="6.11873">
        <ele>420.6</ele>
        <time>2021-04-10T12:37:17Z</time>
      </trkpt>
      <trkpt lat="47.22634" lon="6.11861">
        <ele>420.4</ele>
        <time>2021-04-10T12:37:18Z</time>
      </trkpt>
      <trkpt lat="47.22638" lon="6.1185">
        <ele>419</ele>
        <time>2021-04-10T12:37:19Z</time>
      </trkpt>
      <trkpt lat="47.22642" lon="6.11838">
        <ele>417.6</ele>
        <time>2021-04-10T12:37:20Z</time>
      </trkpt>
      <trkpt lat="47.2265" lon="6.11814">
        <ele>415.8</ele>
        <time>2021-04-10T12:37:22Z</time>
      </trkpt>
      <trkpt lat="47.22654" lon="6.11803">
        <ele>415.2</ele>
        <time>2021-04-10T12:37:23Z</time>
      </trkpt>
      <trkpt lat="47.22658" lon="6.11794">
        <ele>414.6</ele>
        <time>2021-04-10T12:37:24Z</time>
      </trkpt>
      <trkpt lat="47.22661" lon="6.11786">
        <ele>413.8</ele>
        <time>2021-04-10T12:37:25Z</time>
      </trkpt>
      <trkpt lat="47.22663" lon="6.11777">
        <ele>412.6</ele>
        <time>2021-04-10T12:37:26Z</time>
      </trkpt>
      <trkpt lat="47.22664" lon="6.11771">
        <ele>412.2</ele>
        <time>2021-04-10T12:37:27Z</time>
      </trkpt>
      <trkpt lat="47.22666" lon="6.11764">
        <ele>411.6</ele>
        <time>2021-04-10T12:37:28Z</time>
      </trkpt>
      <trkpt lat="47.22668" lon="6.11757">
        <ele>411.4</ele>
        <time>2021-04-10T12:37:29Z</time>
      </trkpt>
      <trkpt lat="47.2267" lon="6.1175">
        <ele>411.2</ele>
        <time>2021-04-10T12:37:30Z</time>
      </trkpt>
      <trkpt lat="47.22676" lon="6.11731">
        <ele>411</ele>
        <time>2021-04-10T12:37:33Z</time>
      </trkpt>
      <trkpt lat="47.22679" lon="6.11725">
        <ele>411</ele>
        <time>2021-04-10T12:37:34Z</time>
      </trkpt>
      <trkpt lat="47.22681" lon="6.11719">
        <ele>411</ele>
        <time>2021-04-10T12:37:35Z</time>
      </trkpt>
      <trkpt lat="47.22682" lon="6.11715">
        <ele>410.8</ele>
        <time>2021-04-10T12:37:36Z</time>
      </trkpt>
      <trkpt lat="47.22684" lon="6.1171">
        <ele>410.4</ele>
        <time>2021-04-10T12:37:37Z</time>
      </trkpt>
      <trkpt lat="47.22686" lon="6.11705">
        <ele>410</ele>
        <time>2021-04-10T12:37:38Z</time>
      </trkpt>
      <trkpt lat="47.22688" lon="6.11701">
        <ele>409.8</ele>
        <time>2021-04-10T12:37:39Z</time>
      </trkpt>
      <trkpt lat="47.2269" lon="6.11696">
        <ele>409.6</ele>
        <time>2021-04-10T12:37:40Z</time>
      </trkpt>
      <trkpt lat="47.22689" lon="6.11691">
        <ele>409.4</ele>
        <time>2021-04-10T12:37:41Z</time>
      </trkpt>
      <trkpt lat="47.22687" lon="6.11688">
        <ele>409</ele>
        <time>2021-04-10T12:37:42Z</time>
      </trkpt>
      <trkpt lat="47.22679" lon="6.1168">
        <ele>408.4</ele>
        <time>2021-04-10T12:37:44Z</time>
      </trkpt>
      <trkpt lat="47.22669" lon="6.11672">
        <ele>407.8</ele>
        <time>2021-04-10T12:37:46Z</time>
      </trkpt>
      <trkpt lat="47.22664" lon="6.11667">
        <ele>407.4</ele>
        <time>2021-04-10T12:37:47Z</time>
      </trkpt>
      <trkpt lat="47.22654" lon="6.11655">
        <ele>406.8</ele>
        <time>2021-04-10T12:37:49Z</time>
      </trkpt>
      <trkpt lat="47.22649" lon="6.11648">
        <ele>406.6</ele>
        <time>2021-04-10T12:37:50Z</time>
      </trkpt>
      <trkpt lat="47.22647" lon="6.11644">
        <ele>406.2</ele>
        <time>2021-04-10T12:37:51Z</time>
      </trkpt>
      <trkpt lat="47.22644" lon="6.11638">
        <ele>405.8</ele>
        <time>2021-04-10T12:37:52Z</time>
      </trkpt>
      <trkpt lat="47.22643" lon="6.11633">
        <ele>405.2</ele>
        <time>2021-04-10T12:37:53Z</time>
      </trkpt>
      <trkpt lat="47.22642" lon="6.11628">
        <ele>405</ele>
        <time>2021-04-10T12:37:54Z</time>
      </trkpt>
      <trkpt lat="47.22641" lon="6.11624">
        <ele>404.6</ele>
        <time>2021-04-10T12:37:55Z</time>
      </trkpt>
      <trkpt lat="47.22641" lon="6.11619">
        <ele>404</ele>
        <time>2021-04-10T12:37:56Z</time>
      </trkpt>
      <trkpt lat="47.22644" lon="6.11615">
        <ele>403.6</ele>
        <time>2021-04-10T12:37:57Z</time>
      </trkpt>
      <trkpt lat="47.22655" lon="6.11603">
        <ele>402.6</ele>
        <time>2021-04-10T12:38:00Z</time>
      </trkpt>
      <trkpt lat="47.22669" lon="6.11585">
        <ele>401.4</ele>
        <time>2021-04-10T12:38:04Z</time>
      </trkpt>
      <trkpt lat="47.22681" lon="6.11567">
        <ele>400.8</ele>
        <time>2021-04-10T12:38:08Z</time>
      </trkpt>
      <trkpt lat="47.22691" lon="6.11553">
        <ele>400.4</ele>
        <time>2021-04-10T12:38:11Z</time>
      </trkpt>
      <trkpt lat="47.22697" lon="6.11545">
        <ele>400.2</ele>
        <time>2021-04-10T12:38:13Z</time>
      </trkpt>
      <trkpt lat="47.22699" lon="6.11541">
        <ele>400.2</ele>
        <time>2021-04-10T12:38:14Z</time>
      </trkpt>
      <trkpt lat="47.22705" lon="6.11533">
        <ele>400</ele>
        <time>2021-04-10T12:38:16Z</time>
      </trkpt>
      <trkpt lat="47.22707" lon="6.11528">
        <ele>400</ele>
        <time>2021-04-10T12:38:17Z</time>
      </trkpt>
      <trkpt lat="47.2271" lon="6.11523">
        <ele>400</ele>
        <time>2021-04-10T12:38:18Z</time>
      </trkpt>
      <trkpt lat="47.22713" lon="6.11519">
        <ele>400</ele>
        <time>2021-04-10T12:38:19Z</time>
      </trkpt>
      <trkpt lat="47.22719" lon="6.11511">
        <ele>399.8</ele>
        <time>2021-04-10T12:38:21Z</time>
      </trkpt>
      <trkpt lat="47.22726" lon="6.11503">
        <ele>399.8</ele>
        <time>2021-04-10T12:38:23Z</time>
      </trkpt>
      <trkpt lat="47.22736" lon="6.11489">
        <ele>399.6</ele>
        <time>2021-04-10T12:38:26Z</time>
      </trkpt>
      <trkpt lat="47.22751" lon="6.1147">
        <ele>399.6</ele>
        <time>2021-04-10T12:38:30Z</time>
      </trkpt>
      <trkpt lat="47.22755" lon="6.11466">
        <ele>399.6</ele>
        <time>2021-04-10T12:38:31Z</time>
      </trkpt>
      <trkpt lat="47.22773" lon="6.11451">
        <ele>399.6</ele>
        <time>2021-04-10T12:38:35Z</time>
      </trkpt>
      <trkpt lat="47.22779" lon="6.1144">
        <ele>399.8</ele>
        <time>2021-04-10T12:38:37Z</time>
      </trkpt>
      <trkpt lat="47.22786" lon="6.11429">
        <ele>399.8</ele>
        <time>2021-04-10T12:38:39Z</time>
      </trkpt>
      <trkpt lat="47.228" lon="6.11406">
        <ele>399.8</ele>
        <time>2021-04-10T12:38:43Z</time>
      </trkpt>
      <trkpt lat="47.22804" lon="6.114">
        <ele>399.8</ele>
        <time>2021-04-10T12:38:44Z</time>
      </trkpt>
      <trkpt lat="47.22816" lon="6.11385">
        <ele>399.6</ele>
        <time>2021-04-10T12:38:47Z</time>
      </trkpt>
      <trkpt lat="47.22824" lon="6.11376">
        <ele>399.4</ele>
        <time>2021-04-10T12:38:49Z</time>
      </trkpt>
      <trkpt lat="47.22831" lon="6.11367">
        <ele>399.4</ele>
        <time>2021-04-10T12:38:51Z</time>
      </trkpt>
      <trkpt lat="47.22835" lon="6.11362">
        <ele>399.2</ele>
        <time>2021-04-10T12:38:52Z</time>
      </trkpt>
      <trkpt lat="47.22837" lon="6.11359">
        <ele>399.2</ele>
        <time>2021-04-10T12:38:53Z</time>
      </trkpt>
      <trkpt lat="47.2284" lon="6.11354">
        <ele>399.2</ele>
        <time>2021-04-10T12:38:54Z</time>
      </trkpt>
      <trkpt lat="47.22844" lon="6.11349">
        <ele>399.2</ele>
        <time>2021-04-10T12:38:55Z</time>
      </trkpt>
      <trkpt lat="47.22872" lon="6.11313">
        <ele>399</ele>
        <time>2021-04-10T12:39:03Z</time>
      </trkpt>
      <trkpt lat="47.2291" lon="6.11264">
        <ele>398.8</ele>
        <time>2021-04-10T12:39:13Z</time>
      </trkpt>
      <trkpt lat="47.22955" lon="6.11208">
        <ele>398.8</ele>
        <time>2021-04-10T12:39:24Z</time>
      </trkpt>
      <trkpt lat="47.22963" lon="6.11199">
        <ele>398.6</ele>
        <time>2021-04-10T12:39:26Z</time>
      </trkpt>
      <trkpt lat="47.22992" lon="6.11163">
        <ele>399</ele>
        <time>2021-04-10T12:39:33Z</time>
      </trkpt>
      <trkpt lat="47.23015" lon="6.11135">
        <ele>399</ele>
        <time>2021-04-10T12:39:39Z</time>
      </trkpt>
      <trkpt lat="47.23019" lon="6.11131">
        <ele>399</ele>
        <time>2021-04-10T12:39:40Z</time>
      </trkpt>
      <trkpt lat="47.23023" lon="6.11126">
        <ele>399</ele>
        <time>2021-04-10T12:39:41Z</time>
      </trkpt>
      <trkpt lat="47.23027" lon="6.11121">
        <ele>399.2</ele>
        <time>2021-04-10T12:39:42Z</time>
      </trkpt>
      <trkpt lat="47.23031" lon="6.11117">
        <ele>399</ele>
        <time>2021-04-10T12:39:43Z</time>
      </trkpt>
      <trkpt lat="47.23035" lon="6.11112">
        <ele>399</ele>
        <time>2021-04-10T12:39:44Z</time>
      </trkpt>
      <trkpt lat="47.23059" lon="6.11084">
        <ele>398.4</ele>
        <time>2021-04-10T12:39:50Z</time>
      </trkpt>
      <trkpt lat="47.23071" lon="6.11071">
        <ele>398</ele>
        <time>2021-04-10T12:39:53Z</time>
      </trkpt>
      <trkpt lat="47.23074" lon="6.11066">
        <ele>398</ele>
        <time>2021-04-10T12:39:54Z</time>
      </trkpt>
      <trkpt lat="47.23078" lon="6.11061">
        <ele>397.8</ele>
        <time>2021-04-10T12:39:55Z</time>
      </trkpt>
      <trkpt lat="47.23081" lon="6.11056">
        <ele>397.8</ele>
        <time>2021-04-10T12:39:56Z</time>
      </trkpt>
      <trkpt lat="47.23085" lon="6.11051">
        <ele>397.8</ele>
        <time>2021-04-10T12:39:57Z</time>
      </trkpt>
      <trkpt lat="47.23104" lon="6.11027">
        <ele>397.8</ele>
        <time>2021-04-10T12:40:02Z</time>
      </trkpt>
      <trkpt lat="47.23143" lon="6.1097">
        <ele>398</ele>
        <time>2021-04-10T12:40:13Z</time>
      </trkpt>
      <trkpt lat="47.23145" lon="6.10965">
        <ele>398</ele>
        <time>2021-04-10T12:40:14Z</time>
      </trkpt>
      <trkpt lat="47.23148" lon="6.1096">
        <ele>398.2</ele>
        <time>2021-04-10T12:40:15Z</time>
      </trkpt>
      <trkpt lat="47.23151" lon="6.10955">
        <ele>398.2</ele>
        <time>2021-04-10T12:40:16Z</time>
      </trkpt>
      <trkpt lat="47.23154" lon="6.1095">
        <ele>398.4</ele>
        <time>2021-04-10T12:40:17Z</time>
      </trkpt>
      <trkpt lat="47.23157" lon="6.10944">
        <ele>398.4</ele>
        <time>2021-04-10T12:40:18Z</time>
      </trkpt>
      <trkpt lat="47.2316" lon="6.10939">
        <ele>398.4</ele>
        <time>2021-04-10T12:40:19Z</time>
      </trkpt>
      <trkpt lat="47.23166" lon="6.10928">
        <ele>398.6</ele>
        <time>2021-04-10T12:40:21Z</time>
      </trkpt>
      <trkpt lat="47.23195" lon="6.10881">
        <ele>398.4</ele>
        <time>2021-04-10T12:40:30Z</time>
      </trkpt>
      <trkpt lat="47.23227" lon="6.10828">
        <ele>398.6</ele>
        <time>2021-04-10T12:40:40Z</time>
      </trkpt>
      <trkpt lat="47.2323" lon="6.10823">
        <ele>398.6</ele>
        <time>2021-04-10T12:40:41Z</time>
      </trkpt>
      <trkpt lat="47.23233" lon="6.10818">
        <ele>398.6</ele>
        <time>2021-04-10T12:40:42Z</time>
      </trkpt>
      <trkpt lat="47.23235" lon="6.10813">
        <ele>398.4</ele>
        <time>2021-04-10T12:40:43Z</time>
      </trkpt>
      <trkpt lat="47.23238" lon="6.10807">
        <ele>398.4</ele>
        <time>2021-04-10T12:40:44Z</time>
      </trkpt>
      <trkpt lat="47.23241" lon="6.10802">
        <ele>398.2</ele>
        <time>2021-04-10T12:40:45Z</time>
      </trkpt>
      <trkpt lat="47.23244" lon="6.10797">
        <ele>398.2</ele>
        <time>2021-04-10T12:40:46Z</time>
      </trkpt>
      <trkpt lat="47.23246" lon="6.10792">
        <ele>398.2</ele>
        <time>2021-04-10T12:40:47Z</time>
      </trkpt>
      <trkpt lat="47.23249" lon="6.10787">
        <ele>398.2</ele>
        <time>2021-04-10T12:40:48Z</time>
      </trkpt>
      <trkpt lat="47.23251" lon="6.10782">
        <ele>398.4</ele>
        <time>2021-04-10T12:40:49Z</time>
      </trkpt>
      <trkpt lat="47.23254" lon="6.10777">
        <ele>398.4</ele>
        <time>2021-04-10T12:40:50Z</time>
      </trkpt>
      <trkpt lat="47.23256" lon="6.10771">
        <ele>398.6</ele>
        <time>2021-04-10T12:40:51Z</time>
      </trkpt>
      <trkpt lat="47.23258" lon="6.10766">
        <ele>398.6</ele>
        <time>2021-04-10T12:40:52Z</time>
      </trkpt>
      <trkpt lat="47.23261" lon="6.10761">
        <ele>398.8</ele>
        <time>2021-04-10T12:40:53Z</time>
      </trkpt>
      <trkpt lat="47.23263" lon="6.10756">
        <ele>398.8</ele>
        <time>2021-04-10T12:40:54Z</time>
      </trkpt>
      <trkpt lat="47.23268" lon="6.10746">
        <ele>399</ele>
        <time>2021-04-10T12:40:56Z</time>
      </trkpt>
      <trkpt lat="47.2327" lon="6.10741">
        <ele>399</ele>
        <time>2021-04-10T12:40:57Z</time>
      </trkpt>
      <trkpt lat="47.23272" lon="6.10736">
        <ele>399</ele>
        <time>2021-04-10T12:40:58Z</time>
      </trkpt>
      <trkpt lat="47.23274" lon="6.10731">
        <ele>399</ele>
        <time>2021-04-10T12:40:59Z</time>
      </trkpt>
      <trkpt lat="47.23276" lon="6.10727">
        <ele>398.8</ele>
        <time>2021-04-10T12:41:00Z</time>
      </trkpt>
      <trkpt lat="47.23278" lon="6.10722">
        <ele>398.8</ele>
        <time>2021-04-10T12:41:01Z</time>
      </trkpt>
      <trkpt lat="47.2328" lon="6.10717">
        <ele>398.8</ele>
        <time>2021-04-10T12:41:02Z</time>
      </trkpt>
      <trkpt lat="47.23281" lon="6.10712">
        <ele>398.8</ele>
        <time>2021-04-10T12:41:03Z</time>
      </trkpt>
      <trkpt lat="47.23283" lon="6.10706">
        <ele>398.8</ele>
        <time>2021-04-10T12:41:04Z</time>
      </trkpt>
      <trkpt lat="47.23285" lon="6.10701">
        <ele>398.8</ele>
        <time>2021-04-10T12:41:05Z</time>
      </trkpt>
      <trkpt lat="47.23291" lon="6.10685">
        <ele>398.6</ele>
        <time>2021-04-10T12:41:08Z</time>
      </trkpt>
      <trkpt lat="47.23299" lon="6.10656">
        <ele>398.8</ele>
        <time>2021-04-10T12:41:14Z</time>
      </trkpt>
      <trkpt lat="47.233" lon="6.10652">
        <ele>398.8</ele>
        <time>2021-04-10T12:41:15Z</time>
      </trkpt>
      <trkpt lat="47.23301" lon="6.10648">
        <ele>398.6</ele>
        <time>2021-04-10T12:41:16Z</time>
      </trkpt>
      <trkpt lat="47.23302" lon="6.10644">
        <ele>398.6</ele>
        <time>2021-04-10T12:41:17Z</time>
      </trkpt>
      <trkpt lat="47.23303" lon="6.10636">
        <ele>398.6</ele>
        <time>2021-04-10T12:41:19Z</time>
      </trkpt>
      <trkpt lat="47.23304" lon="6.10633">
        <ele>398.4</ele>
        <time>2021-04-10T12:41:20Z</time>
      </trkpt>
      <trkpt lat="47.23305" lon="6.10631">
        <ele>398.4</ele>
        <time>2021-04-10T12:41:21Z</time>
      </trkpt>
      <trkpt lat="47.23306" lon="6.10628">
        <ele>398.4</ele>
        <time>2021-04-10T12:41:22Z</time>
      </trkpt>
      <trkpt lat="47.23307" lon="6.10625">
        <ele>398.4</ele>
        <time>2021-04-10T12:41:23Z</time>
      </trkpt>
      <trkpt lat="47.23312" lon="6.10601">
        <ele>398.4</ele>
        <time>2021-04-10T12:41:30Z</time>
      </trkpt>
      <trkpt lat="47.23322" lon="6.10563">
        <ele>398.4</ele>
        <time>2021-04-10T12:41:39Z</time>
      </trkpt>
      <trkpt lat="47.23325" lon="6.10549">
        <ele>398.4</ele>
        <time>2021-04-10T12:41:42Z</time>
      </trkpt>
      <trkpt lat="47.23333" lon="6.10518">
        <ele>399</ele>
        <time>2021-04-10T12:41:48Z</time>
      </trkpt>
      <trkpt lat="47.23342" lon="6.10484">
        <ele>398.8</ele>
        <time>2021-04-10T12:41:55Z</time>
      </trkpt>
      <trkpt lat="47.23344" lon="6.10479">
        <ele>399</ele>
        <time>2021-04-10T12:41:56Z</time>
      </trkpt>
      <trkpt lat="47.23345" lon="6.10475">
        <ele>398.6</ele>
        <time>2021-04-10T12:41:57Z</time>
      </trkpt>
      <trkpt lat="47.23346" lon="6.1047">
        <ele>398.6</ele>
        <time>2021-04-10T12:41:58Z</time>
      </trkpt>
      <trkpt lat="47.23347" lon="6.10465">
        <ele>398.6</ele>
        <time>2021-04-10T12:41:59Z</time>
      </trkpt>
      <trkpt lat="47.23357" lon="6.10425">
        <ele>399</ele>
        <time>2021-04-10T12:42:07Z</time>
      </trkpt>
      <trkpt lat="47.23372" lon="6.10368">
        <ele>399.2</ele>
        <time>2021-04-10T12:42:18Z</time>
      </trkpt>
      <trkpt lat="47.23375" lon="6.10359">
        <ele>399.2</ele>
        <time>2021-04-10T12:42:20Z</time>
      </trkpt>
      <trkpt lat="47.23376" lon="6.10354">
        <ele>399.2</ele>
        <time>2021-04-10T12:42:21Z</time>
      </trkpt>
      <trkpt lat="47.23377" lon="6.1035">
        <ele>399.2</ele>
        <time>2021-04-10T12:42:22Z</time>
      </trkpt>
      <trkpt lat="47.23378" lon="6.10345">
        <ele>399.2</ele>
        <time>2021-04-10T12:42:23Z</time>
      </trkpt>
      <trkpt lat="47.23386" lon="6.10314">
        <ele>399.8</ele>
        <time>2021-04-10T12:42:29Z</time>
      </trkpt>
      <trkpt lat="47.23397" lon="6.10273">
        <ele>400.2</ele>
        <time>2021-04-10T12:42:37Z</time>
      </trkpt>
      <trkpt lat="47.23404" lon="6.10248">
        <ele>400</ele>
        <time>2021-04-10T12:42:42Z</time>
      </trkpt>
      <trkpt lat="47.23408" lon="6.10227">
        <ele>400.2</ele>
        <time>2021-04-10T12:42:46Z</time>
      </trkpt>
      <trkpt lat="47.23409" lon="6.10222">
        <ele>400.4</ele>
        <time>2021-04-10T12:42:47Z</time>
      </trkpt>
      <trkpt lat="47.23421" lon="6.10178">
        <ele>400.6</ele>
        <time>2021-04-10T12:42:56Z</time>
      </trkpt>
      <trkpt lat="47.23422" lon="6.10175">
        <ele>400.6</ele>
        <time>2021-04-10T12:42:57Z</time>
      </trkpt>
      <trkpt lat="47.23423" lon="6.10173">
        <ele>400.8</ele>
        <time>2021-04-10T12:42:58Z</time>
      </trkpt>
      <trkpt lat="47.23423" lon="6.10172">
        <ele>400.8</ele>
        <time>2021-04-10T12:43:00Z</time>
      </trkpt>
      <trkpt lat="47.23423" lon="6.10169">
        <ele>400.8</ele>
        <time>2021-04-10T12:43:56Z</time>
      </trkpt>
      <trkpt lat="47.23425" lon="6.10163">
        <ele>400.8</ele>
        <time>2021-04-10T12:43:58Z</time>
      </trkpt>
      <trkpt lat="47.23427" lon="6.10154">
        <ele>400.8</ele>
        <time>2021-04-10T12:44:01Z</time>
      </trkpt>
      <trkpt lat="47.23428" lon="6.10151">
        <ele>400.8</ele>
        <time>2021-04-10T12:44:02Z</time>
      </trkpt>
      <trkpt lat="47.23429" lon="6.10144">
        <ele>400.8</ele>
        <time>2021-04-10T12:44:04Z</time>
      </trkpt>
      <trkpt lat="47.23435" lon="6.10117">
        <ele>401.2</ele>
        <time>2021-04-10T12:44:12Z</time>
      </trkpt>
      <trkpt lat="47.23439" lon="6.10099">
        <ele>401.6</ele>
        <time>2021-04-10T12:44:16Z</time>
      </trkpt>
      <trkpt lat="47.23441" lon="6.10086">
        <ele>401.6</ele>
        <time>2021-04-10T12:44:19Z</time>
      </trkpt>
      <trkpt lat="47.23446" lon="6.10057">
        <ele>402.2</ele>
        <time>2021-04-10T12:44:26Z</time>
      </trkpt>
      <trkpt lat="47.23447" lon="6.10053">
        <ele>402.4</ele>
        <time>2021-04-10T12:44:27Z</time>
      </trkpt>
      <trkpt lat="47.23447" lon="6.10049">
        <ele>402.4</ele>
        <time>2021-04-10T12:44:28Z</time>
      </trkpt>
      <trkpt lat="47.23448" lon="6.10045">
        <ele>402.6</ele>
        <time>2021-04-10T12:44:29Z</time>
      </trkpt>
      <trkpt lat="47.23448" lon="6.10041">
        <ele>402.6</ele>
        <time>2021-04-10T12:44:30Z</time>
      </trkpt>
      <trkpt lat="47.23453" lon="6.10012">
        <ele>403.8</ele>
        <time>2021-04-10T12:44:37Z</time>
      </trkpt>
      <trkpt lat="47.23454" lon="6.10004">
        <ele>404.2</ele>
        <time>2021-04-10T12:44:39Z</time>
      </trkpt>
      <trkpt lat="47.23455" lon="6.09996">
        <ele>404.4</ele>
        <time>2021-04-10T12:44:41Z</time>
      </trkpt>
      <trkpt lat="47.23456" lon="6.09993">
        <ele>404.4</ele>
        <time>2021-04-10T12:44:42Z</time>
      </trkpt>
      <trkpt lat="47.23457" lon="6.0999">
        <ele>404.6</ele>
        <time>2021-04-10T12:44:43Z</time>
      </trkpt>
      <trkpt lat="47.23457" lon="6.09987">
        <ele>404.6</ele>
        <time>2021-04-10T12:44:44Z</time>
      </trkpt>
      <trkpt lat="47.23458" lon="6.09983">
        <ele>404.6</ele>
        <time>2021-04-10T12:44:45Z</time>
      </trkpt>
      <trkpt lat="47.23458" lon="6.0998">
        <ele>404.8</ele>
        <time>2021-04-10T12:44:46Z</time>
      </trkpt>
      <trkpt lat="47.23458" lon="6.09977">
        <ele>404.8</ele>
        <time>2021-04-10T12:44:47Z</time>
      </trkpt>
      <trkpt lat="47.23459" lon="6.09973">
        <ele>405</ele>
        <time>2021-04-10T12:44:48Z</time>
      </trkpt>
      <trkpt lat="47.23459" lon="6.09969">
        <ele>405</ele>
        <time>2021-04-10T12:44:49Z</time>
      </trkpt>
      <trkpt lat="47.2346" lon="6.09964">
        <ele>405.2</ele>
        <time>2021-04-10T12:44:50Z</time>
      </trkpt>
      <trkpt lat="47.23461" lon="6.0996">
        <ele>405.2</ele>
        <time>2021-04-10T12:44:51Z</time>
      </trkpt>
      <trkpt lat="47.23462" lon="6.09956">
        <ele>405.4</ele>
        <time>2021-04-10T12:44:52Z</time>
      </trkpt>
      <trkpt lat="47.23462" lon="6.09951">
        <ele>405.4</ele>
        <time>2021-04-10T12:44:53Z</time>
      </trkpt>
      <trkpt lat="47.23463" lon="6.09947">
        <ele>405.6</ele>
        <time>2021-04-10T12:44:54Z</time>
      </trkpt>
      <trkpt lat="47.23463" lon="6.09942">
        <ele>405.6</ele>
        <time>2021-04-10T12:44:55Z</time>
      </trkpt>
      <trkpt lat="47.23464" lon="6.09938">
        <ele>405.8</ele>
        <time>2021-04-10T12:44:56Z</time>
      </trkpt>
      <trkpt lat="47.23465" lon="6.09933">
        <ele>405.8</ele>
        <time>2021-04-10T12:44:57Z</time>
      </trkpt>
      <trkpt lat="47.23465" lon="6.09929">
        <ele>406</ele>
        <time>2021-04-10T12:44:58Z</time>
      </trkpt>
      <trkpt lat="47.23466" lon="6.09924">
        <ele>406</ele>
        <time>2021-04-10T12:44:59Z</time>
      </trkpt>
      <trkpt lat="47.23466" lon="6.09919">
        <ele>406.2</ele>
        <time>2021-04-10T12:45:00Z</time>
      </trkpt>
      <trkpt lat="47.23467" lon="6.09914">
        <ele>406.4</ele>
        <time>2021-04-10T12:45:01Z</time>
      </trkpt>
      <trkpt lat="47.23467" lon="6.09909">
        <ele>406.4</ele>
        <time>2021-04-10T12:45:02Z</time>
      </trkpt>
      <trkpt lat="47.23468" lon="6.09904">
        <ele>406.6</ele>
        <time>2021-04-10T12:45:03Z</time>
      </trkpt>
      <trkpt lat="47.23468" lon="6.09899">
        <ele>406.8</ele>
        <time>2021-04-10T12:45:04Z</time>
      </trkpt>
      <trkpt lat="47.23468" lon="6.09894">
        <ele>406.8</ele>
        <time>2021-04-10T12:45:05Z</time>
      </trkpt>
      <trkpt lat="47.23469" lon="6.09889">
        <ele>407</ele>
        <time>2021-04-10T12:45:06Z</time>
      </trkpt>
      <trkpt lat="47.2347" lon="6.09884">
        <ele>407.2</ele>
        <time>2021-04-10T12:45:07Z</time>
      </trkpt>
      <trkpt lat="47.23471" lon="6.0988">
        <ele>407.2</ele>
        <time>2021-04-10T12:45:08Z</time>
      </trkpt>
      <trkpt lat="47.23471" lon="6.09875">
        <ele>407.2</ele>
        <time>2021-04-10T12:45:09Z</time>
      </trkpt>
      <trkpt lat="47.23472" lon="6.0987">
        <ele>407.4</ele>
        <time>2021-04-10T12:45:10Z</time>
      </trkpt>
      <trkpt lat="47.23473" lon="6.09864">
        <ele>407.4</ele>
        <time>2021-04-10T12:45:11Z</time>
      </trkpt>
      <trkpt lat="47.23473" lon="6.09859">
        <ele>407.4</ele>
        <time>2021-04-10T12:45:12Z</time>
      </trkpt>
      <trkpt lat="47.23474" lon="6.09854">
        <ele>407.4</ele>
        <time>2021-04-10T12:45:13Z</time>
      </trkpt>
      <trkpt lat="47.23475" lon="6.09849">
        <ele>407.6</ele>
        <time>2021-04-10T12:45:14Z</time>
      </trkpt>
      <trkpt lat="47.23476" lon="6.09844">
        <ele>407.6</ele>
        <time>2021-04-10T12:45:15Z</time>
      </trkpt>
      <trkpt lat="47.23476" lon="6.09839">
        <ele>407.4</ele>
        <time>2021-04-10T12:45:16Z</time>
      </trkpt>
      <trkpt lat="47.23477" lon="6.09834">
        <ele>407.6</ele>
        <time>2021-04-10T12:45:17Z</time>
      </trkpt>
      <trkpt lat="47.23477" lon="6.09829">
        <ele>407.6</ele>
        <time>2021-04-10T12:45:18Z</time>
      </trkpt>
      <trkpt lat="47.23479" lon="6.09814">
        <ele>407.6</ele>
        <time>2021-04-10T12:45:21Z</time>
      </trkpt>
      <trkpt lat="47.2348" lon="6.0981">
        <ele>407.8</ele>
        <time>2021-04-10T12:45:22Z</time>
      </trkpt>
      <trkpt lat="47.2348" lon="6.09805">
        <ele>407.8</ele>
        <time>2021-04-10T12:45:23Z</time>
      </trkpt>
      <trkpt lat="47.2348" lon="6.098">
        <ele>407.8</ele>
        <time>2021-04-10T12:45:24Z</time>
      </trkpt>
      <trkpt lat="47.23481" lon="6.09795">
        <ele>408</ele>
        <time>2021-04-10T12:45:25Z</time>
      </trkpt>
      <trkpt lat="47.23482" lon="6.09781">
        <ele>408.2</ele>
        <time>2021-04-10T12:45:28Z</time>
      </trkpt>
      <trkpt lat="47.23483" lon="6.09768">
        <ele>408.4</ele>
        <time>2021-04-10T12:45:31Z</time>
      </trkpt>
      <trkpt lat="47.23483" lon="6.09763">
        <ele>408.4</ele>
        <time>2021-04-10T12:45:32Z</time>
      </trkpt>
      <trkpt lat="47.23483" lon="6.0976">
        <ele>408.6</ele>
        <time>2021-04-10T12:45:33Z</time>
      </trkpt>
      <trkpt lat="47.23483" lon="6.09755">
        <ele>408.8</ele>
        <time>2021-04-10T12:45:34Z</time>
      </trkpt>
      <trkpt lat="47.23483" lon="6.09751">
        <ele>408.8</ele>
        <time>2021-04-10T12:45:35Z</time>
      </trkpt>
      <trkpt lat="47.23484" lon="6.09747">
        <ele>409</ele>
        <time>2021-04-10T12:45:36Z</time>
      </trkpt>
      <trkpt lat="47.23484" lon="6.09743">
        <ele>409</ele>
        <time>2021-04-10T12:45:37Z</time>
      </trkpt>
      <trkpt lat="47.23484" lon="6.09739">
        <ele>409</ele>
        <time>2021-04-10T12:45:38Z</time>
      </trkpt>
      <trkpt lat="47.23484" lon="6.09735">
        <ele>409.2</ele>
        <time>2021-04-10T12:45:39Z</time>
      </trkpt>
      <trkpt lat="47.23484" lon="6.09732">
        <ele>409.2</ele>
        <time>2021-04-10T12:45:40Z</time>
      </trkpt>
      <trkpt lat="47.23484" lon="6.09728">
        <ele>409.2</ele>
        <time>2021-04-10T12:45:41Z</time>
      </trkpt>
      <trkpt lat="47.23484" lon="6.09715">
        <ele>409.6</ele>
        <time>2021-04-10T12:45:44Z</time>
      </trkpt>
      <trkpt lat="47.23481" lon="6.09682">
        <ele>410.2</ele>
        <time>2021-04-10T12:45:52Z</time>
      </trkpt>
      <trkpt lat="47.23481" lon="6.09674">
        <ele>410.4</ele>
        <time>2021-04-10T12:45:54Z</time>
      </trkpt>
      <trkpt lat="47.2348" lon="6.0967">
        <ele>410.4</ele>
        <time>2021-04-10T12:45:55Z</time>
      </trkpt>
      <trkpt lat="47.2348" lon="6.09666">
        <ele>410.4</ele>
        <time>2021-04-10T12:45:56Z</time>
      </trkpt>
      <trkpt lat="47.23479" lon="6.09659">
        <ele>410.8</ele>
        <time>2021-04-10T12:45:58Z</time>
      </trkpt>
      <trkpt lat="47.23478" lon="6.09655">
        <ele>410.8</ele>
        <time>2021-04-10T12:45:59Z</time>
      </trkpt>
      <trkpt lat="47.23478" lon="6.09652">
        <ele>410.8</ele>
        <time>2021-04-10T12:46:00Z</time>
      </trkpt>
      <trkpt lat="47.23477" lon="6.09648">
        <ele>411</ele>
        <time>2021-04-10T12:46:01Z</time>
      </trkpt>
      <trkpt lat="47.23477" lon="6.09645">
        <ele>411</ele>
        <time>2021-04-10T12:46:02Z</time>
      </trkpt>
      <trkpt lat="47.23476" lon="6.09641">
        <ele>411</ele>
        <time>2021-04-10T12:46:03Z</time>
      </trkpt>
      <trkpt lat="47.23476" lon="6.09638">
        <ele>411.2</ele>
        <time>2021-04-10T12:46:04Z</time>
      </trkpt>
      <trkpt lat="47.23475" lon="6.09634">
        <ele>411.2</ele>
        <time>2021-04-10T12:46:05Z</time>
      </trkpt>
      <trkpt lat="47.23474" lon="6.0963">
        <ele>411.4</ele>
        <time>2021-04-10T12:46:06Z</time>
      </trkpt>
      <trkpt lat="47.23468" lon="6.09599">
        <ele>412.2</ele>
        <time>2021-04-10T12:46:14Z</time>
      </trkpt>
      <trkpt lat="47.23467" lon="6.09595">
        <ele>412.4</ele>
        <time>2021-04-10T12:46:15Z</time>
      </trkpt>
      <trkpt lat="47.23464" lon="6.0957">
        <ele>412.8</ele>
        <time>2021-04-10T12:46:22Z</time>
      </trkpt>
      <trkpt lat="47.23463" lon="6.09567">
        <ele>413</ele>
        <time>2021-04-10T12:46:23Z</time>
      </trkpt>
      <trkpt lat="47.23463" lon="6.09564">
        <ele>413.2</ele>
        <time>2021-04-10T12:46:24Z</time>
      </trkpt>
      <trkpt lat="47.23463" lon="6.09561">
        <ele>413.2</ele>
        <time>2021-04-10T12:46:25Z</time>
      </trkpt>
      <trkpt lat="47.23463" lon="6.09558">
        <ele>413.4</ele>
        <time>2021-04-10T12:46:26Z</time>
      </trkpt>
      <trkpt lat="47.23462" lon="6.09555">
        <ele>413.6</ele>
        <time>2021-04-10T12:46:27Z</time>
      </trkpt>
      <trkpt lat="47.23461" lon="6.09552">
        <ele>413.8</ele>
        <time>2021-04-10T12:46:28Z</time>
      </trkpt>
      <trkpt lat="47.23461" lon="6.09549">
        <ele>414</ele>
        <time>2021-04-10T12:46:29Z</time>
      </trkpt>
      <trkpt lat="47.2346" lon="6.09546">
        <ele>414</ele>
        <time>2021-04-10T12:46:30Z</time>
      </trkpt>
      <trkpt lat="47.2346" lon="6.09543">
        <ele>414.4</ele>
        <time>2021-04-10T12:46:31Z</time>
      </trkpt>
      <trkpt lat="47.2346" lon="6.0954">
        <ele>414.8</ele>
        <time>2021-04-10T12:46:32Z</time>
      </trkpt>
      <trkpt lat="47.23459" lon="6.09537">
        <ele>415.2</ele>
        <time>2021-04-10T12:46:33Z</time>
      </trkpt>
      <trkpt lat="47.23459" lon="6.09534">
        <ele>415.2</ele>
        <time>2021-04-10T12:46:34Z</time>
      </trkpt>
      <trkpt lat="47.23459" lon="6.09532">
        <ele>415.4</ele>
        <time>2021-04-10T12:46:35Z</time>
      </trkpt>
      <trkpt lat="47.23459" lon="6.09529">
        <ele>415.4</ele>
        <time>2021-04-10T12:46:36Z</time>
      </trkpt>
      <trkpt lat="47.23458" lon="6.09526">
        <ele>415.6</ele>
        <time>2021-04-10T12:46:37Z</time>
      </trkpt>
      <trkpt lat="47.23458" lon="6.09523">
        <ele>415.8</ele>
        <time>2021-04-10T12:46:38Z</time>
      </trkpt>
      <trkpt lat="47.23458" lon="6.09521">
        <ele>416</ele>
        <time>2021-04-10T12:46:39Z</time>
      </trkpt>
      <trkpt lat="47.23458" lon="6.09518">
        <ele>416.4</ele>
        <time>2021-04-10T12:46:40Z</time>
      </trkpt>
      <trkpt lat="47.23458" lon="6.09515">
        <ele>416.6</ele>
        <time>2021-04-10T12:46:41Z</time>
      </trkpt>
      <trkpt lat="47.23457" lon="6.09513">
        <ele>416.8</ele>
        <time>2021-04-10T12:46:42Z</time>
      </trkpt>
      <trkpt lat="47.23457" lon="6.09511">
        <ele>416.8</ele>
        <time>2021-04-10T12:46:43Z</time>
      </trkpt>
      <trkpt lat="47.23457" lon="6.09509">
        <ele>417</ele>
        <time>2021-04-10T12:46:44Z</time>
      </trkpt>
      <trkpt lat="47.23456" lon="6.09506">
        <ele>417</ele>
        <time>2021-04-10T12:46:45Z</time>
      </trkpt>
      <trkpt lat="47.23456" lon="6.09504">
        <ele>417.4</ele>
        <time>2021-04-10T12:46:46Z</time>
      </trkpt>
      <trkpt lat="47.23456" lon="6.09501">
        <ele>417.4</ele>
        <time>2021-04-10T12:46:47Z</time>
      </trkpt>
      <trkpt lat="47.23456" lon="6.09499">
        <ele>417.6</ele>
        <time>2021-04-10T12:46:48Z</time>
      </trkpt>
      <trkpt lat="47.23456" lon="6.09496">
        <ele>417.6</ele>
        <time>2021-04-10T12:46:49Z</time>
      </trkpt>
      <trkpt lat="47.23455" lon="6.09493">
        <ele>417.8</ele>
        <time>2021-04-10T12:46:50Z</time>
      </trkpt>
      <trkpt lat="47.23456" lon="6.09491">
        <ele>417.8</ele>
        <time>2021-04-10T12:46:51Z</time>
      </trkpt>
      <trkpt lat="47.23456" lon="6.09488">
        <ele>418</ele>
        <time>2021-04-10T12:46:52Z</time>
      </trkpt>
      <trkpt lat="47.23456" lon="6.09487">
        <ele>418.4</ele>
        <time>2021-04-10T12:46:53Z</time>
      </trkpt>
      <trkpt lat="47.23457" lon="6.09485">
        <ele>418.6</ele>
        <time>2021-04-10T12:46:54Z</time>
      </trkpt>
      <trkpt lat="47.23458" lon="6.09484">
        <ele>419</ele>
        <time>2021-04-10T12:46:55Z</time>
      </trkpt>
      <trkpt lat="47.2346" lon="6.09482">
        <ele>419.2</ele>
        <time>2021-04-10T12:46:56Z</time>
      </trkpt>
      <trkpt lat="47.23461" lon="6.09481">
        <ele>419.4</ele>
        <time>2021-04-10T12:46:57Z</time>
      </trkpt>
      <trkpt lat="47.23462" lon="6.0948">
        <ele>419.6</ele>
        <time>2021-04-10T12:46:58Z</time>
      </trkpt>
      <trkpt lat="47.23464" lon="6.09479">
        <ele>419.6</ele>
        <time>2021-04-10T12:46:59Z</time>
      </trkpt>
      <trkpt lat="47.23466" lon="6.09478">
        <ele>419.8</ele>
        <time>2021-04-10T12:47:00Z</time>
      </trkpt>
      <trkpt lat="47.23468" lon="6.09478">
        <ele>419.8</ele>
        <time>2021-04-10T12:47:01Z</time>
      </trkpt>
      <trkpt lat="47.23471" lon="6.09478">
        <ele>419.8</ele>
        <time>2021-04-10T12:47:02Z</time>
      </trkpt>
      <trkpt lat="47.23473" lon="6.09478">
        <ele>420</ele>
        <time>2021-04-10T12:47:03Z</time>
      </trkpt>
      <trkpt lat="47.23475" lon="6.09478">
        <ele>420</ele>
        <time>2021-04-10T12:47:04Z</time>
      </trkpt>
      <trkpt lat="47.23478" lon="6.09476">
        <ele>420</ele>
        <time>2021-04-10T12:47:05Z</time>
      </trkpt>
      <trkpt lat="47.2348" lon="6.09474">
        <ele>420</ele>
        <time>2021-04-10T12:47:06Z</time>
      </trkpt>
      <trkpt lat="47.23482" lon="6.09472">
        <ele>420</ele>
        <time>2021-04-10T12:47:07Z</time>
      </trkpt>
      <trkpt lat="47.23483" lon="6.09468">
        <ele>420</ele>
        <time>2021-04-10T12:47:08Z</time>
      </trkpt>
      <trkpt lat="47.23484" lon="6.09465">
        <ele>420</ele>
        <time>2021-04-10T12:47:09Z</time>
      </trkpt>
      <trkpt lat="47.23485" lon="6.09461">
        <ele>420</ele>
        <time>2021-04-10T12:47:10Z</time>
      </trkpt>
      <trkpt lat="47.23485" lon="6.09457">
        <ele>420.2</ele>
        <time>2021-04-10T12:47:11Z</time>
      </trkpt>
      <trkpt lat="47.23485" lon="6.09453">
        <ele>420.2</ele>
        <time>2021-04-10T12:47:12Z</time>
      </trkpt>
      <trkpt lat="47.23485" lon="6.09449">
        <ele>420.2</ele>
        <time>2021-04-10T12:47:13Z</time>
      </trkpt>
      <trkpt lat="47.23485" lon="6.09446">
        <ele>420.2</ele>
        <time>2021-04-10T12:47:14Z</time>
      </trkpt>
      <trkpt lat="47.23484" lon="6.09442">
        <ele>420.2</ele>
        <time>2021-04-10T12:47:15Z</time>
      </trkpt>
      <trkpt lat="47.23483" lon="6.09439">
        <ele>420.4</ele>
        <time>2021-04-10T12:47:16Z</time>
      </trkpt>
      <trkpt lat="47.23481" lon="6.09437">
        <ele>420.4</ele>
        <time>2021-04-10T12:47:17Z</time>
      </trkpt>
      <trkpt lat="47.2348" lon="6.09435">
        <ele>420.4</ele>
        <time>2021-04-10T12:47:18Z</time>
      </trkpt>
      <trkpt lat="47.23478" lon="6.09434">
        <ele>420.6</ele>
        <time>2021-04-10T12:47:19Z</time>
      </trkpt>
      <trkpt lat="47.23476" lon="6.09432">
        <ele>420.8</ele>
        <time>2021-04-10T12:47:20Z</time>
      </trkpt>
      <trkpt lat="47.23473" lon="6.0943">
        <ele>420.8</ele>
        <time>2021-04-10T12:47:21Z</time>
      </trkpt>
      <trkpt lat="47.2347" lon="6.09429">
        <ele>420.8</ele>
        <time>2021-04-10T12:47:22Z</time>
      </trkpt>
      <trkpt lat="47.23462" lon="6.09424">
        <ele>421</ele>
        <time>2021-04-10T12:47:25Z</time>
      </trkpt>
      <trkpt lat="47.23452" lon="6.09408">
        <ele>421</ele>
        <time>2021-04-10T12:47:30Z</time>
      </trkpt>
      <trkpt lat="47.23433" lon="6.09367">
        <ele>420.4</ele>
        <time>2021-04-10T12:47:40Z</time>
      </trkpt>
      <trkpt lat="47.23417" lon="6.09339">
        <ele>420.4</ele>
        <time>2021-04-10T12:47:46Z</time>
      </trkpt>
      <trkpt lat="47.23416" lon="6.09336">
        <ele>420.6</ele>
        <time>2021-04-10T12:47:47Z</time>
      </trkpt>
      <trkpt lat="47.23414" lon="6.09333">
        <ele>420.6</ele>
        <time>2021-04-10T12:47:48Z</time>
      </trkpt>
      <trkpt lat="47.23411" lon="6.0933">
        <ele>420.6</ele>
        <time>2021-04-10T12:47:49Z</time>
      </trkpt>
      <trkpt lat="47.23409" lon="6.09326">
        <ele>420.6</ele>
        <time>2021-04-10T12:47:50Z</time>
      </trkpt>
      <trkpt lat="47.23407" lon="6.09324">
        <ele>420.6</ele>
        <time>2021-04-10T12:47:51Z</time>
      </trkpt>
      <trkpt lat="47.23402" lon="6.09316">
        <ele>420.8</ele>
        <time>2021-04-10T12:47:54Z</time>
      </trkpt>
      <trkpt lat="47.23401" lon="6.09313">
        <ele>420.8</ele>
        <time>2021-04-10T12:47:55Z</time>
      </trkpt>
      <trkpt lat="47.234" lon="6.0931">
        <ele>420.8</ele>
        <time>2021-04-10T12:47:56Z</time>
      </trkpt>
      <trkpt lat="47.23398" lon="6.09307">
        <ele>420.8</ele>
        <time>2021-04-10T12:47:57Z</time>
      </trkpt>
      <trkpt lat="47.23397" lon="6.09305">
        <ele>421</ele>
        <time>2021-04-10T12:47:58Z</time>
      </trkpt>
      <trkpt lat="47.23395" lon="6.09302">
        <ele>421</ele>
        <time>2021-04-10T12:47:59Z</time>
      </trkpt>
      <trkpt lat="47.23394" lon="6.09299">
        <ele>421</ele>
        <time>2021-04-10T12:48:00Z</time>
      </trkpt>
      <trkpt lat="47.23392" lon="6.09296">
        <ele>421</ele>
        <time>2021-04-10T12:48:01Z</time>
      </trkpt>
      <trkpt lat="47.23381" lon="6.09274">
        <ele>421</ele>
        <time>2021-04-10T12:48:08Z</time>
      </trkpt>
      <trkpt lat="47.23367" lon="6.09251">
        <ele>421</ele>
        <time>2021-04-10T12:48:15Z</time>
      </trkpt>
      <trkpt lat="47.23362" lon="6.09242">
        <ele>421</ele>
        <time>2021-04-10T12:48:18Z</time>
      </trkpt>
      <trkpt lat="47.23358" lon="6.09235">
        <ele>421.2</ele>
        <time>2021-04-10T12:48:20Z</time>
      </trkpt>
      <trkpt lat="47.23354" lon="6.09227">
        <ele>421.2</ele>
        <time>2021-04-10T12:48:22Z</time>
      </trkpt>
      <trkpt lat="47.23353" lon="6.09224">
        <ele>421.2</ele>
        <time>2021-04-10T12:48:23Z</time>
      </trkpt>
      <trkpt lat="47.23352" lon="6.09221">
        <ele>421.4</ele>
        <time>2021-04-10T12:48:24Z</time>
      </trkpt>
      <trkpt lat="47.2335" lon="6.09218">
        <ele>421.4</ele>
        <time>2021-04-10T12:48:25Z</time>
      </trkpt>
      <trkpt lat="47.23349" lon="6.09215">
        <ele>421.6</ele>
        <time>2021-04-10T12:48:26Z</time>
      </trkpt>
      <trkpt lat="47.23347" lon="6.09213">
        <ele>421.6</ele>
        <time>2021-04-10T12:48:27Z</time>
      </trkpt>
      <trkpt lat="47.23344" lon="6.09209">
        <ele>421.6</ele>
        <time>2021-04-10T12:48:28Z</time>
      </trkpt>
      <trkpt lat="47.2334" lon="6.09206">
        <ele>421.8</ele>
        <time>2021-04-10T12:48:29Z</time>
      </trkpt>
      <trkpt lat="47.23339" lon="6.09202">
        <ele>421.8</ele>
        <time>2021-04-10T12:48:30Z</time>
      </trkpt>
      <trkpt lat="47.23337" lon="6.09199">
        <ele>421.8</ele>
        <time>2021-04-10T12:48:31Z</time>
      </trkpt>
      <trkpt lat="47.23335" lon="6.09191">
        <ele>422</ele>
        <time>2021-04-10T12:48:33Z</time>
      </trkpt>
      <trkpt lat="47.23333" lon="6.09187">
        <ele>422</ele>
        <time>2021-04-10T12:48:34Z</time>
      </trkpt>
      <trkpt lat="47.23324" lon="6.09169">
        <ele>422.4</ele>
        <time>2021-04-10T12:48:39Z</time>
      </trkpt>
      <trkpt lat="47.2332" lon="6.09161">
        <ele>422.6</ele>
        <time>2021-04-10T12:48:41Z</time>
      </trkpt>
      <trkpt lat="47.23309" lon="6.09143">
        <ele>423.8</ele>
        <time>2021-04-10T12:48:46Z</time>
      </trkpt>
      <trkpt lat="47.23305" lon="6.09136">
        <ele>424</ele>
        <time>2021-04-10T12:48:48Z</time>
      </trkpt>
      <trkpt lat="47.23303" lon="6.09132">
        <ele>424.2</ele>
        <time>2021-04-10T12:48:49Z</time>
      </trkpt>
      <trkpt lat="47.23301" lon="6.09128">
        <ele>424.4</ele>
        <time>2021-04-10T12:48:50Z</time>
      </trkpt>
      <trkpt lat="47.233" lon="6.09125">
        <ele>424.4</ele>
        <time>2021-04-10T12:48:51Z</time>
      </trkpt>
      <trkpt lat="47.23298" lon="6.09121">
        <ele>424.4</ele>
        <time>2021-04-10T12:48:52Z</time>
      </trkpt>
      <trkpt lat="47.23296" lon="6.09118">
        <ele>424.6</ele>
        <time>2021-04-10T12:48:53Z</time>
      </trkpt>
      <trkpt lat="47.23294" lon="6.09114">
        <ele>424.6</ele>
        <time>2021-04-10T12:48:54Z</time>
      </trkpt>
      <trkpt lat="47.23292" lon="6.09111">
        <ele>424.6</ele>
        <time>2021-04-10T12:48:55Z</time>
      </trkpt>
      <trkpt lat="47.2329" lon="6.09107">
        <ele>424.8</ele>
        <time>2021-04-10T12:48:56Z</time>
      </trkpt>
      <trkpt lat="47.23289" lon="6.09104">
        <ele>425</ele>
        <time>2021-04-10T12:48:57Z</time>
      </trkpt>
      <trkpt lat="47.23286" lon="6.091">
        <ele>425.2</ele>
        <time>2021-04-10T12:48:58Z</time>
      </trkpt>
      <trkpt lat="47.23284" lon="6.09096">
        <ele>425.2</ele>
        <time>2021-04-10T12:48:59Z</time>
      </trkpt>
      <trkpt lat="47.23282" lon="6.09093">
        <ele>425.4</ele>
        <time>2021-04-10T12:49:00Z</time>
      </trkpt>
      <trkpt lat="47.23279" lon="6.09089">
        <ele>425.4</ele>
        <time>2021-04-10T12:49:01Z</time>
      </trkpt>
      <trkpt lat="47.23278" lon="6.09086">
        <ele>425.6</ele>
        <time>2021-04-10T12:49:02Z</time>
      </trkpt>
      <trkpt lat="47.23277" lon="6.09083">
        <ele>425.6</ele>
        <time>2021-04-10T12:49:03Z</time>
      </trkpt>
      <trkpt lat="47.23276" lon="6.09081">
        <ele>425.6</ele>
        <time>2021-04-10T12:49:04Z</time>
      </trkpt>
      <trkpt lat="47.23274" lon="6.09078">
        <ele>425.8</ele>
        <time>2021-04-10T12:49:05Z</time>
      </trkpt>
      <trkpt lat="47.23272" lon="6.09075">
        <ele>425.8</ele>
        <time>2021-04-10T12:49:06Z</time>
      </trkpt>
      <trkpt lat="47.2327" lon="6.09072">
        <ele>425.8</ele>
        <time>2021-04-10T12:49:07Z</time>
      </trkpt>
      <trkpt lat="47.23269" lon="6.09069">
        <ele>426</ele>
        <time>2021-04-10T12:49:08Z</time>
      </trkpt>
      <trkpt lat="47.23267" lon="6.09066">
        <ele>426</ele>
        <time>2021-04-10T12:49:09Z</time>
      </trkpt>
      <trkpt lat="47.23265" lon="6.09062">
        <ele>426</ele>
        <time>2021-04-10T12:49:10Z</time>
      </trkpt>
      <trkpt lat="47.23264" lon="6.09059">
        <ele>426</ele>
        <time>2021-04-10T12:49:11Z</time>
      </trkpt>
      <trkpt lat="47.23262" lon="6.09055">
        <ele>426.2</ele>
        <time>2021-04-10T12:49:12Z</time>
      </trkpt>
      <trkpt lat="47.23261" lon="6.09051">
        <ele>426.2</ele>
        <time>2021-04-10T12:49:13Z</time>
      </trkpt>
      <trkpt lat="47.2326" lon="6.09048">
        <ele>426.2</ele>
        <time>2021-04-10T12:49:14Z</time>
      </trkpt>
      <trkpt lat="47.23255" lon="6.09034">
        <ele>426.8</ele>
        <time>2021-04-10T12:49:18Z</time>
      </trkpt>
      <trkpt lat="47.23249" lon="6.0902">
        <ele>427.4</ele>
        <time>2021-04-10T12:49:22Z</time>
      </trkpt>
      <trkpt lat="47.23246" lon="6.09012">
        <ele>427.8</ele>
        <time>2021-04-10T12:49:24Z</time>
      </trkpt>
      <trkpt lat="47.23243" lon="6.09004">
        <ele>428.6</ele>
        <time>2021-04-10T12:49:26Z</time>
      </trkpt>
      <trkpt lat="47.23242" lon="6.09">
        <ele>428.6</ele>
        <time>2021-04-10T12:49:27Z</time>
      </trkpt>
      <trkpt lat="47.23241" lon="6.08996">
        <ele>428.6</ele>
        <time>2021-04-10T12:49:28Z</time>
      </trkpt>
      <trkpt lat="47.2324" lon="6.08992">
        <ele>428.8</ele>
        <time>2021-04-10T12:49:29Z</time>
      </trkpt>
      <trkpt lat="47.23239" lon="6.08989">
        <ele>428.8</ele>
        <time>2021-04-10T12:49:30Z</time>
      </trkpt>
      <trkpt lat="47.23238" lon="6.08985">
        <ele>428.8</ele>
        <time>2021-04-10T12:49:31Z</time>
      </trkpt>
      <trkpt lat="47.23237" lon="6.08982">
        <ele>429</ele>
        <time>2021-04-10T12:49:32Z</time>
      </trkpt>
      <trkpt lat="47.23236" lon="6.08978">
        <ele>429</ele>
        <time>2021-04-10T12:49:33Z</time>
      </trkpt>
      <trkpt lat="47.23235" lon="6.08975">
        <ele>429</ele>
        <time>2021-04-10T12:49:34Z</time>
      </trkpt>
      <trkpt lat="47.23234" lon="6.08971">
        <ele>429</ele>
        <time>2021-04-10T12:49:35Z</time>
      </trkpt>
      <trkpt lat="47.23233" lon="6.08968">
        <ele>429.2</ele>
        <time>2021-04-10T12:49:36Z</time>
      </trkpt>
      <trkpt lat="47.23232" lon="6.08964">
        <ele>429.2</ele>
        <time>2021-04-10T12:49:37Z</time>
      </trkpt>
      <trkpt lat="47.23231" lon="6.08961">
        <ele>429.4</ele>
        <time>2021-04-10T12:49:38Z</time>
      </trkpt>
      <trkpt lat="47.2323" lon="6.08957">
        <ele>429.4</ele>
        <time>2021-04-10T12:49:39Z</time>
      </trkpt>
      <trkpt lat="47.23229" lon="6.08954">
        <ele>429.6</ele>
        <time>2021-04-10T12:49:40Z</time>
      </trkpt>
      <trkpt lat="47.23228" lon="6.0895">
        <ele>429.6</ele>
        <time>2021-04-10T12:49:41Z</time>
      </trkpt>
      <trkpt lat="47.23227" lon="6.08947">
        <ele>429.8</ele>
        <time>2021-04-10T12:49:42Z</time>
      </trkpt>
      <trkpt lat="47.23227" lon="6.08944">
        <ele>429.8</ele>
        <time>2021-04-10T12:49:43Z</time>
      </trkpt>
      <trkpt lat="47.23226" lon="6.08941">
        <ele>430</ele>
        <time>2021-04-10T12:49:44Z</time>
      </trkpt>
      <trkpt lat="47.23224" lon="6.08938">
        <ele>430</ele>
        <time>2021-04-10T12:49:45Z</time>
      </trkpt>
      <trkpt lat="47.23223" lon="6.08934">
        <ele>430</ele>
        <time>2021-04-10T12:49:46Z</time>
      </trkpt>
      <trkpt lat="47.23221" lon="6.0893">
        <ele>430.2</ele>
        <time>2021-04-10T12:49:47Z</time>
      </trkpt>
      <trkpt lat="47.2322" lon="6.08926">
        <ele>430.2</ele>
        <time>2021-04-10T12:49:48Z</time>
      </trkpt>
      <trkpt lat="47.23214" lon="6.08903">
        <ele>431</ele>
        <time>2021-04-10T12:49:54Z</time>
      </trkpt>
      <trkpt lat="47.23211" lon="6.08896">
        <ele>431.4</ele>
        <time>2021-04-10T12:49:56Z</time>
      </trkpt>
      <trkpt lat="47.23207" lon="6.08886">
        <ele>431.6</ele>
        <time>2021-04-10T12:49:59Z</time>
      </trkpt>
      <trkpt lat="47.23206" lon="6.08883">
        <ele>431.8</ele>
        <time>2021-04-10T12:50:00Z</time>
      </trkpt>
      <trkpt lat="47.23205" lon="6.0888">
        <ele>432</ele>
        <time>2021-04-10T12:50:01Z</time>
      </trkpt>
      <trkpt lat="47.23205" lon="6.08878">
        <ele>432</ele>
        <time>2021-04-10T12:50:02Z</time>
      </trkpt>
      <trkpt lat="47.23204" lon="6.08876">
        <ele>432</ele>
        <time>2021-04-10T12:50:03Z</time>
      </trkpt>
      <trkpt lat="47.23203" lon="6.08874">
        <ele>432.2</ele>
        <time>2021-04-10T12:50:04Z</time>
      </trkpt>
      <trkpt lat="47.23202" lon="6.08872">
        <ele>432.4</ele>
        <time>2021-04-10T12:50:05Z</time>
      </trkpt>
      <trkpt lat="47.23201" lon="6.08869">
        <ele>432.4</ele>
        <time>2021-04-10T12:50:06Z</time>
      </trkpt>
      <trkpt lat="47.232" lon="6.08867">
        <ele>432.4</ele>
        <time>2021-04-10T12:50:07Z</time>
      </trkpt>
      <trkpt lat="47.23199" lon="6.08865">
        <ele>432.6</ele>
        <time>2021-04-10T12:50:08Z</time>
      </trkpt>
      <trkpt lat="47.23198" lon="6.08862">
        <ele>432.6</ele>
        <time>2021-04-10T12:50:09Z</time>
      </trkpt>
      <trkpt lat="47.23197" lon="6.08859">
        <ele>432.8</ele>
        <time>2021-04-10T12:50:10Z</time>
      </trkpt>
      <trkpt lat="47.23195" lon="6.08856">
        <ele>433.2</ele>
        <time>2021-04-10T12:50:11Z</time>
      </trkpt>
      <trkpt lat="47.23193" lon="6.08852">
        <ele>433.4</ele>
        <time>2021-04-10T12:50:12Z</time>
      </trkpt>
      <trkpt lat="47.2319" lon="6.08849">
        <ele>433.4</ele>
        <time>2021-04-10T12:50:13Z</time>
      </trkpt>
      <trkpt lat="47.23188" lon="6.08846">
        <ele>433.8</ele>
        <time>2021-04-10T12:50:14Z</time>
      </trkpt>
      <trkpt lat="47.23185" lon="6.08842">
        <ele>433.8</ele>
        <time>2021-04-10T12:50:15Z</time>
      </trkpt>
      <trkpt lat="47.23183" lon="6.08839">
        <ele>434</ele>
        <time>2021-04-10T12:50:16Z</time>
      </trkpt>
      <trkpt lat="47.2318" lon="6.08836">
        <ele>434.2</ele>
        <time>2021-04-10T12:50:17Z</time>
      </trkpt>
      <trkpt lat="47.23177" lon="6.08833">
        <ele>434</ele>
        <time>2021-04-10T12:50:18Z</time>
      </trkpt>
      <trkpt lat="47.23174" lon="6.0883">
        <ele>434.4</ele>
        <time>2021-04-10T12:50:19Z</time>
      </trkpt>
      <trkpt lat="47.23172" lon="6.08827">
        <ele>434.6</ele>
        <time>2021-04-10T12:50:20Z</time>
      </trkpt>
      <trkpt lat="47.23169" lon="6.08824">
        <ele>434.6</ele>
        <time>2021-04-10T12:50:21Z</time>
      </trkpt>
      <trkpt lat="47.23167" lon="6.08821">
        <ele>434.8</ele>
        <time>2021-04-10T12:50:22Z</time>
      </trkpt>
      <trkpt lat="47.23164" lon="6.08818">
        <ele>434.8</ele>
        <time>2021-04-10T12:50:23Z</time>
      </trkpt>
      <trkpt lat="47.23161" lon="6.08816">
        <ele>434.8</ele>
        <time>2021-04-10T12:50:24Z</time>
      </trkpt>
      <trkpt lat="47.23158" lon="6.08813">
        <ele>434.8</ele>
        <time>2021-04-10T12:50:25Z</time>
      </trkpt>
      <trkpt lat="47.23156" lon="6.08812">
        <ele>434.8</ele>
        <time>2021-04-10T12:50:26Z</time>
      </trkpt>
      <trkpt lat="47.23153" lon="6.08809">
        <ele>435</ele>
        <time>2021-04-10T12:50:27Z</time>
      </trkpt>
      <trkpt lat="47.23151" lon="6.08807">
        <ele>435</ele>
        <time>2021-04-10T12:50:28Z</time>
      </trkpt>
      <trkpt lat="47.23149" lon="6.08806">
        <ele>435.2</ele>
        <time>2021-04-10T12:50:29Z</time>
      </trkpt>
      <trkpt lat="47.23148" lon="6.08805">
        <ele>435.2</ele>
        <time>2021-04-10T12:50:30Z</time>
      </trkpt>
      <trkpt lat="47.23146" lon="6.08804">
        <ele>435.4</ele>
        <time>2021-04-10T12:50:31Z</time>
      </trkpt>
      <trkpt lat="47.23145" lon="6.08803">
        <ele>435.4</ele>
        <time>2021-04-10T12:50:32Z</time>
      </trkpt>
      <trkpt lat="47.23144" lon="6.08802">
        <ele>435.4</ele>
        <time>2021-04-10T12:50:33Z</time>
      </trkpt>
      <trkpt lat="47.23142" lon="6.08801">
        <ele>435.8</ele>
        <time>2021-04-10T12:50:34Z</time>
      </trkpt>
      <trkpt lat="47.23141" lon="6.088">
        <ele>435.8</ele>
        <time>2021-04-10T12:50:35Z</time>
      </trkpt>
      <trkpt lat="47.23139" lon="6.08798">
        <ele>435.8</ele>
        <time>2021-04-10T12:50:36Z</time>
      </trkpt>
      <trkpt lat="47.23136" lon="6.08797">
        <ele>435.8</ele>
        <time>2021-04-10T12:50:37Z</time>
      </trkpt>
      <trkpt lat="47.23134" lon="6.08796">
        <ele>436</ele>
        <time>2021-04-10T12:50:38Z</time>
      </trkpt>
      <trkpt lat="47.23131" lon="6.08795">
        <ele>436</ele>
        <time>2021-04-10T12:50:39Z</time>
      </trkpt>
      <trkpt lat="47.23129" lon="6.08794">
        <ele>436</ele>
        <time>2021-04-10T12:50:40Z</time>
      </trkpt>
      <trkpt lat="47.23127" lon="6.08792">
        <ele>436</ele>
        <time>2021-04-10T12:50:41Z</time>
      </trkpt>
      <trkpt lat="47.23125" lon="6.0879">
        <ele>436.2</ele>
        <time>2021-04-10T12:50:42Z</time>
      </trkpt>
      <trkpt lat="47.23123" lon="6.08789">
        <ele>436.2</ele>
        <time>2021-04-10T12:50:43Z</time>
      </trkpt>
      <trkpt lat="47.23121" lon="6.08787">
        <ele>436.4</ele>
        <time>2021-04-10T12:50:44Z</time>
      </trkpt>
      <trkpt lat="47.23113" lon="6.08782">
        <ele>436.2</ele>
        <time>2021-04-10T12:50:47Z</time>
      </trkpt>
      <trkpt lat="47.23107" lon="6.08778">
        <ele>436.4</ele>
        <time>2021-04-10T12:50:49Z</time>
      </trkpt>
      <trkpt lat="47.23091" lon="6.08762">
        <ele>437.2</ele>
        <time>2021-04-10T12:50:55Z</time>
      </trkpt>
      <trkpt lat="47.23084" lon="6.08754">
        <ele>437.6</ele>
        <time>2021-04-10T12:50:58Z</time>
      </trkpt>
      <trkpt lat="47.23072" lon="6.08738">
        <ele>437.8</ele>
        <time>2021-04-10T12:51:04Z</time>
      </trkpt>
      <trkpt lat="47.23071" lon="6.08736">
        <ele>438</ele>
        <time>2021-04-10T12:51:05Z</time>
      </trkpt>
      <trkpt lat="47.23069" lon="6.08733">
        <ele>438.2</ele>
        <time>2021-04-10T12:51:06Z</time>
      </trkpt>
      <trkpt lat="47.23067" lon="6.0873">
        <ele>438.4</ele>
        <time>2021-04-10T12:51:07Z</time>
      </trkpt>
      <trkpt lat="47.23065" lon="6.08727">
        <ele>438.6</ele>
        <time>2021-04-10T12:51:08Z</time>
      </trkpt>
      <trkpt lat="47.23064" lon="6.08725">
        <ele>438.6</ele>
        <time>2021-04-10T12:51:09Z</time>
      </trkpt>
      <trkpt lat="47.23062" lon="6.08723">
        <ele>439</ele>
        <time>2021-04-10T12:51:10Z</time>
      </trkpt>
      <trkpt lat="47.2306" lon="6.0872">
        <ele>438.8</ele>
        <time>2021-04-10T12:51:11Z</time>
      </trkpt>
      <trkpt lat="47.23056" lon="6.08715">
        <ele>439.2</ele>
        <time>2021-04-10T12:51:13Z</time>
      </trkpt>
      <trkpt lat="47.23055" lon="6.08712">
        <ele>439</ele>
        <time>2021-04-10T12:51:14Z</time>
      </trkpt>
      <trkpt lat="47.23053" lon="6.08709">
        <ele>439.2</ele>
        <time>2021-04-10T12:51:15Z</time>
      </trkpt>
      <trkpt lat="47.23052" lon="6.08706">
        <ele>439</ele>
        <time>2021-04-10T12:51:16Z</time>
      </trkpt>
      <trkpt lat="47.23051" lon="6.08703">
        <ele>439.4</ele>
        <time>2021-04-10T12:51:17Z</time>
      </trkpt>
      <trkpt lat="47.2305" lon="6.087">
        <ele>439.4</ele>
        <time>2021-04-10T12:51:19Z</time>
      </trkpt>
      <trkpt lat="47.23045" lon="6.08689">
        <ele>439.6</ele>
        <time>2021-04-10T12:51:23Z</time>
      </trkpt>
      <trkpt lat="47.23044" lon="6.08687">
        <ele>439.6</ele>
        <time>2021-04-10T12:51:24Z</time>
      </trkpt>
      <trkpt lat="47.23043" lon="6.08684">
        <ele>439.6</ele>
        <time>2021-04-10T12:51:25Z</time>
      </trkpt>
      <trkpt lat="47.23042" lon="6.08682">
        <ele>439.6</ele>
        <time>2021-04-10T12:51:26Z</time>
      </trkpt>
      <trkpt lat="47.23041" lon="6.08679">
        <ele>439.8</ele>
        <time>2021-04-10T12:51:27Z</time>
      </trkpt>
      <trkpt lat="47.23032" lon="6.08659">
        <ele>440.6</ele>
        <time>2021-04-10T12:51:33Z</time>
      </trkpt>
      <trkpt lat="47.23023" lon="6.08639">
        <ele>441</ele>
        <time>2021-04-10T12:51:39Z</time>
      </trkpt>
      <trkpt lat="47.23018" lon="6.08628">
        <ele>441.4</ele>
        <time>2021-04-10T12:51:42Z</time>
      </trkpt>
      <trkpt lat="47.23011" lon="6.08612">
        <ele>442</ele>
        <time>2021-04-10T12:51:47Z</time>
      </trkpt>
      <trkpt lat="47.23007" lon="6.08604">
        <ele>442.2</ele>
        <time>2021-04-10T12:51:49Z</time>
      </trkpt>
      <trkpt lat="47.23001" lon="6.0859">
        <ele>442.8</ele>
        <time>2021-04-10T12:51:53Z</time>
      </trkpt>
      <trkpt lat="47.23" lon="6.08586">
        <ele>443</ele>
        <time>2021-04-10T12:51:54Z</time>
      </trkpt>
      <trkpt lat="47.22998" lon="6.08583">
        <ele>443.2</ele>
        <time>2021-04-10T12:51:55Z</time>
      </trkpt>
      <trkpt lat="47.22997" lon="6.0858">
        <ele>443.4</ele>
        <time>2021-04-10T12:51:56Z</time>
      </trkpt>
      <trkpt lat="47.22996" lon="6.08577">
        <ele>443.6</ele>
        <time>2021-04-10T12:51:57Z</time>
      </trkpt>
      <trkpt lat="47.22994" lon="6.08574">
        <ele>443.8</ele>
        <time>2021-04-10T12:51:58Z</time>
      </trkpt>
      <trkpt lat="47.22993" lon="6.08571">
        <ele>443.8</ele>
        <time>2021-04-10T12:51:59Z</time>
      </trkpt>
      <trkpt lat="47.22991" lon="6.08568">
        <ele>444</ele>
        <time>2021-04-10T12:52:00Z</time>
      </trkpt>
      <trkpt lat="47.22989" lon="6.08564">
        <ele>444</ele>
        <time>2021-04-10T12:52:01Z</time>
      </trkpt>
      <trkpt lat="47.22986" lon="6.08561">
        <ele>444</ele>
        <time>2021-04-10T12:52:02Z</time>
      </trkpt>
      <trkpt lat="47.22983" lon="6.08557">
        <ele>444.2</ele>
        <time>2021-04-10T12:52:03Z</time>
      </trkpt>
      <trkpt lat="47.2298" lon="6.08554">
        <ele>444.2</ele>
        <time>2021-04-10T12:52:04Z</time>
      </trkpt>
      <trkpt lat="47.22978" lon="6.0855">
        <ele>444.4</ele>
        <time>2021-04-10T12:52:05Z</time>
      </trkpt>
      <trkpt lat="47.22977" lon="6.08547">
        <ele>444.4</ele>
        <time>2021-04-10T12:52:06Z</time>
      </trkpt>
      <trkpt lat="47.22975" lon="6.08544">
        <ele>444.6</ele>
        <time>2021-04-10T12:52:07Z</time>
      </trkpt>
      <trkpt lat="47.22973" lon="6.08541">
        <ele>444.6</ele>
        <time>2021-04-10T12:52:08Z</time>
      </trkpt>
      <trkpt lat="47.22971" lon="6.08538">
        <ele>444.8</ele>
        <time>2021-04-10T12:52:09Z</time>
      </trkpt>
      <trkpt lat="47.22969" lon="6.08534">
        <ele>445</ele>
        <time>2021-04-10T12:52:10Z</time>
      </trkpt>
      <trkpt lat="47.22968" lon="6.08531">
        <ele>445.2</ele>
        <time>2021-04-10T12:52:11Z</time>
      </trkpt>
      <trkpt lat="47.22966" lon="6.08528">
        <ele>445.2</ele>
        <time>2021-04-10T12:52:12Z</time>
      </trkpt>
      <trkpt lat="47.22964" lon="6.08525">
        <ele>445.4</ele>
        <time>2021-04-10T12:52:13Z</time>
      </trkpt>
      <trkpt lat="47.22963" lon="6.08523">
        <ele>445.6</ele>
        <time>2021-04-10T12:52:14Z</time>
      </trkpt>
      <trkpt lat="47.22959" lon="6.08519">
        <ele>445.6</ele>
        <time>2021-04-10T12:52:15Z</time>
      </trkpt>
      <trkpt lat="47.22958" lon="6.08516">
        <ele>445.8</ele>
        <time>2021-04-10T12:52:16Z</time>
      </trkpt>
      <trkpt lat="47.22956" lon="6.08514">
        <ele>445.8</ele>
        <time>2021-04-10T12:52:17Z</time>
      </trkpt>
      <trkpt lat="47.22953" lon="6.08511">
        <ele>446</ele>
        <time>2021-04-10T12:52:18Z</time>
      </trkpt>
      <trkpt lat="47.2295" lon="6.08508">
        <ele>446</ele>
        <time>2021-04-10T12:52:19Z</time>
      </trkpt>
      <trkpt lat="47.22948" lon="6.08504">
        <ele>446.2</ele>
        <time>2021-04-10T12:52:20Z</time>
      </trkpt>
      <trkpt lat="47.22945" lon="6.08502">
        <ele>446.4</ele>
        <time>2021-04-10T12:52:21Z</time>
      </trkpt>
      <trkpt lat="47.22943" lon="6.08498">
        <ele>446.4</ele>
        <time>2021-04-10T12:52:22Z</time>
      </trkpt>
      <trkpt lat="47.2294" lon="6.08495">
        <ele>446.6</ele>
        <time>2021-04-10T12:52:23Z</time>
      </trkpt>
      <trkpt lat="47.22937" lon="6.08491">
        <ele>446.6</ele>
        <time>2021-04-10T12:52:24Z</time>
      </trkpt>
      <trkpt lat="47.22934" lon="6.08488">
        <ele>446.8</ele>
        <time>2021-04-10T12:52:25Z</time>
      </trkpt>
      <trkpt lat="47.22932" lon="6.08485">
        <ele>446.8</ele>
        <time>2021-04-10T12:52:26Z</time>
      </trkpt>
      <trkpt lat="47.2293" lon="6.08483">
        <ele>446.8</ele>
        <time>2021-04-10T12:52:27Z</time>
      </trkpt>
      <trkpt lat="47.22927" lon="6.0848">
        <ele>447</ele>
        <time>2021-04-10T12:52:28Z</time>
      </trkpt>
      <trkpt lat="47.22924" lon="6.08477">
        <ele>447.2</ele>
        <time>2021-04-10T12:52:29Z</time>
      </trkpt>
      <trkpt lat="47.22921" lon="6.08474">
        <ele>447.2</ele>
        <time>2021-04-10T12:52:30Z</time>
      </trkpt>
      <trkpt lat="47.2292" lon="6.08472">
        <ele>447.4</ele>
        <time>2021-04-10T12:52:31Z</time>
      </trkpt>
      <trkpt lat="47.22918" lon="6.08469">
        <ele>447.4</ele>
        <time>2021-04-10T12:52:32Z</time>
      </trkpt>
      <trkpt lat="47.22915" lon="6.08466">
        <ele>447.4</ele>
        <time>2021-04-10T12:52:33Z</time>
      </trkpt>
      <trkpt lat="47.22912" lon="6.08463">
        <ele>447.6</ele>
        <time>2021-04-10T12:52:34Z</time>
      </trkpt>
      <trkpt lat="47.22911" lon="6.0846">
        <ele>447.8</ele>
        <time>2021-04-10T12:52:35Z</time>
      </trkpt>
      <trkpt lat="47.2291" lon="6.08457">
        <ele>447.8</ele>
        <time>2021-04-10T12:52:36Z</time>
      </trkpt>
      <trkpt lat="47.22908" lon="6.08455">
        <ele>448.2</ele>
        <time>2021-04-10T12:52:37Z</time>
      </trkpt>
      <trkpt lat="47.22904" lon="6.08454">
        <ele>448.2</ele>
        <time>2021-04-10T12:52:38Z</time>
      </trkpt>
      <trkpt lat="47.22901" lon="6.08452">
        <ele>448.4</ele>
        <time>2021-04-10T12:52:39Z</time>
      </trkpt>
      <trkpt lat="47.22898" lon="6.08449">
        <ele>448.4</ele>
        <time>2021-04-10T12:52:40Z</time>
      </trkpt>
      <trkpt lat="47.22897" lon="6.08447">
        <ele>448.6</ele>
        <time>2021-04-10T12:52:41Z</time>
      </trkpt>
      <trkpt lat="47.22895" lon="6.08444">
        <ele>448.6</ele>
        <time>2021-04-10T12:52:42Z</time>
      </trkpt>
      <trkpt lat="47.22893" lon="6.08441">
        <ele>448.8</ele>
        <time>2021-04-10T12:52:43Z</time>
      </trkpt>
      <trkpt lat="47.22891" lon="6.08438">
        <ele>448.8</ele>
        <time>2021-04-10T12:52:44Z</time>
      </trkpt>
      <trkpt lat="47.22889" lon="6.08435">
        <ele>449</ele>
        <time>2021-04-10T12:52:45Z</time>
      </trkpt>
      <trkpt lat="47.22886" lon="6.08432">
        <ele>449</ele>
        <time>2021-04-10T12:52:46Z</time>
      </trkpt>
      <trkpt lat="47.22884" lon="6.08429">
        <ele>449.2</ele>
        <time>2021-04-10T12:52:47Z</time>
      </trkpt>
      <trkpt lat="47.22882" lon="6.08427">
        <ele>449.4</ele>
        <time>2021-04-10T12:52:48Z</time>
      </trkpt>
      <trkpt lat="47.2288" lon="6.08424">
        <ele>449.4</ele>
        <time>2021-04-10T12:52:49Z</time>
      </trkpt>
      <trkpt lat="47.22877" lon="6.0842">
        <ele>449.6</ele>
        <time>2021-04-10T12:52:50Z</time>
      </trkpt>
      <trkpt lat="47.22875" lon="6.08417">
        <ele>449.6</ele>
        <time>2021-04-10T12:52:51Z</time>
      </trkpt>
      <trkpt lat="47.22873" lon="6.08412">
        <ele>449.8</ele>
        <time>2021-04-10T12:52:52Z</time>
      </trkpt>
      <trkpt lat="47.22871" lon="6.08408">
        <ele>449.8</ele>
        <time>2021-04-10T12:52:53Z</time>
      </trkpt>
      <trkpt lat="47.22869" lon="6.08404">
        <ele>449.8</ele>
        <time>2021-04-10T12:52:54Z</time>
      </trkpt>
      <trkpt lat="47.22867" lon="6.084">
        <ele>449.6</ele>
        <time>2021-04-10T12:52:55Z</time>
      </trkpt>
      <trkpt lat="47.22865" lon="6.08396">
        <ele>449.6</ele>
        <time>2021-04-10T12:52:56Z</time>
      </trkpt>
      <trkpt lat="47.22863" lon="6.08392">
        <ele>449.6</ele>
        <time>2021-04-10T12:52:57Z</time>
      </trkpt>
      <trkpt lat="47.22861" lon="6.08388">
        <ele>449.6</ele>
        <time>2021-04-10T12:52:58Z</time>
      </trkpt>
      <trkpt lat="47.22846" lon="6.08353">
        <ele>449.4</ele>
        <time>2021-04-10T12:53:06Z</time>
      </trkpt>
      <trkpt lat="47.2284" lon="6.08322">
        <ele>449</ele>
        <time>2021-04-10T12:53:12Z</time>
      </trkpt>
      <trkpt lat="47.22827" lon="6.08286">
        <ele>448.2</ele>
        <time>2021-04-10T12:53:18Z</time>
      </trkpt>
      <trkpt lat="47.22826" lon="6.0828">
        <ele>448</ele>
        <time>2021-04-10T12:53:19Z</time>
      </trkpt>
      <trkpt lat="47.22822" lon="6.08263">
        <ele>447.8</ele>
        <time>2021-04-10T12:53:22Z</time>
      </trkpt>
      <trkpt lat="47.22821" lon="6.08259">
        <ele>447.8</ele>
        <time>2021-04-10T12:53:23Z</time>
      </trkpt>
      <trkpt lat="47.2282" lon="6.08254">
        <ele>447.6</ele>
        <time>2021-04-10T12:53:24Z</time>
      </trkpt>
      <trkpt lat="47.22819" lon="6.08249">
        <ele>447.4</ele>
        <time>2021-04-10T12:53:25Z</time>
      </trkpt>
      <trkpt lat="47.22818" lon="6.0824">
        <ele>447.4</ele>
        <time>2021-04-10T12:53:27Z</time>
      </trkpt>
      <trkpt lat="47.22817" lon="6.08236">
        <ele>447.4</ele>
        <time>2021-04-10T12:53:28Z</time>
      </trkpt>
      <trkpt lat="47.22817" lon="6.08233">
        <ele>447.2</ele>
        <time>2021-04-10T12:53:29Z</time>
      </trkpt>
      <trkpt lat="47.22815" lon="6.08229">
        <ele>447.2</ele>
        <time>2021-04-10T12:53:30Z</time>
      </trkpt>
      <trkpt lat="47.22815" lon="6.08225">
        <ele>447.2</ele>
        <time>2021-04-10T12:53:31Z</time>
      </trkpt>
      <trkpt lat="47.22809" lon="6.08208">
        <ele>447.2</ele>
        <time>2021-04-10T12:53:35Z</time>
      </trkpt>
      <trkpt lat="47.228" lon="6.08182">
        <ele>447.2</ele>
        <time>2021-04-10T12:53:40Z</time>
      </trkpt>
      <trkpt lat="47.22798" lon="6.08178">
        <ele>447.2</ele>
        <time>2021-04-10T12:53:41Z</time>
      </trkpt>
      <trkpt lat="47.22796" lon="6.08173">
        <ele>447.2</ele>
        <time>2021-04-10T12:53:42Z</time>
      </trkpt>
      <trkpt lat="47.22795" lon="6.0817">
        <ele>447.2</ele>
        <time>2021-04-10T12:53:43Z</time>
      </trkpt>
      <trkpt lat="47.22794" lon="6.08168">
        <ele>447.2</ele>
        <time>2021-04-10T12:53:44Z</time>
      </trkpt>
      <trkpt lat="47.22792" lon="6.08164">
        <ele>447.2</ele>
        <time>2021-04-10T12:53:45Z</time>
      </trkpt>
      <trkpt lat="47.22791" lon="6.08161">
        <ele>447</ele>
        <time>2021-04-10T12:53:46Z</time>
      </trkpt>
      <trkpt lat="47.22789" lon="6.08158">
        <ele>447</ele>
        <time>2021-04-10T12:53:47Z</time>
      </trkpt>
      <trkpt lat="47.22789" lon="6.08155">
        <ele>447</ele>
        <time>2021-04-10T12:53:48Z</time>
      </trkpt>
      <trkpt lat="47.22787" lon="6.08152">
        <ele>447</ele>
        <time>2021-04-10T12:53:49Z</time>
      </trkpt>
      <trkpt lat="47.22776" lon="6.08128">
        <ele>446.8</ele>
        <time>2021-04-10T12:53:55Z</time>
      </trkpt>
      <trkpt lat="47.22769" lon="6.08116">
        <ele>446.6</ele>
        <time>2021-04-10T12:53:58Z</time>
      </trkpt>
      <trkpt lat="47.22754" lon="6.08093">
        <ele>446.2</ele>
        <time>2021-04-10T12:54:04Z</time>
      </trkpt>
      <trkpt lat="47.22726" lon="6.08063">
        <ele>446.4</ele>
        <time>2021-04-10T12:54:13Z</time>
      </trkpt>
      <trkpt lat="47.22698" lon="6.08041">
        <ele>446.4</ele>
        <time>2021-04-10T12:54:21Z</time>
      </trkpt>
      <trkpt lat="47.22695" lon="6.08038">
        <ele>446.4</ele>
        <time>2021-04-10T12:54:22Z</time>
      </trkpt>
      <trkpt lat="47.22692" lon="6.08035">
        <ele>446.4</ele>
        <time>2021-04-10T12:54:23Z</time>
      </trkpt>
      <trkpt lat="47.22688" lon="6.08032">
        <ele>446.4</ele>
        <time>2021-04-10T12:54:24Z</time>
      </trkpt>
      <trkpt lat="47.22685" lon="6.08029">
        <ele>446.4</ele>
        <time>2021-04-10T12:54:25Z</time>
      </trkpt>
      <trkpt lat="47.22677" lon="6.08025">
        <ele>446.4</ele>
        <time>2021-04-10T12:54:27Z</time>
      </trkpt>
      <trkpt lat="47.22674" lon="6.08022">
        <ele>446.4</ele>
        <time>2021-04-10T12:54:28Z</time>
      </trkpt>
      <trkpt lat="47.22667" lon="6.08018">
        <ele>446.6</ele>
        <time>2021-04-10T12:54:30Z</time>
      </trkpt>
      <trkpt lat="47.22657" lon="6.08011">
        <ele>446.2</ele>
        <time>2021-04-10T12:54:33Z</time>
      </trkpt>
      <trkpt lat="47.22654" lon="6.08009">
        <ele>446.2</ele>
        <time>2021-04-10T12:54:34Z</time>
      </trkpt>
      <trkpt lat="47.2265" lon="6.08007">
        <ele>446</ele>
        <time>2021-04-10T12:54:35Z</time>
      </trkpt>
      <trkpt lat="47.22647" lon="6.08005">
        <ele>445.8</ele>
        <time>2021-04-10T12:54:36Z</time>
      </trkpt>
      <trkpt lat="47.22644" lon="6.08003">
        <ele>446</ele>
        <time>2021-04-10T12:54:37Z</time>
      </trkpt>
      <trkpt lat="47.2264" lon="6.08">
        <ele>445.8</ele>
        <time>2021-04-10T12:54:38Z</time>
      </trkpt>
      <trkpt lat="47.22633" lon="6.07996">
        <ele>445.8</ele>
        <time>2021-04-10T12:54:40Z</time>
      </trkpt>
      <trkpt lat="47.22604" lon="6.07974">
        <ele>444.8</ele>
        <time>2021-04-10T12:54:47Z</time>
      </trkpt>
      <trkpt lat="47.22599" lon="6.0797">
        <ele>444.6</ele>
        <time>2021-04-10T12:54:48Z</time>
      </trkpt>
      <trkpt lat="47.22581" lon="6.07952">
        <ele>443.6</ele>
        <time>2021-04-10T12:54:52Z</time>
      </trkpt>
      <trkpt lat="47.22571" lon="6.07942">
        <ele>443.2</ele>
        <time>2021-04-10T12:54:54Z</time>
      </trkpt>
      <trkpt lat="47.22555" lon="6.07925">
        <ele>442.4</ele>
        <time>2021-04-10T12:54:57Z</time>
      </trkpt>
      <trkpt lat="47.22544" lon="6.07912">
        <ele>441.4</ele>
        <time>2021-04-10T12:54:59Z</time>
      </trkpt>
      <trkpt lat="47.22538" lon="6.07906">
        <ele>441.2</ele>
        <time>2021-04-10T12:55:00Z</time>
      </trkpt>
      <trkpt lat="47.2252" lon="6.07885">
        <ele>439.8</ele>
        <time>2021-04-10T12:55:03Z</time>
      </trkpt>
      <trkpt lat="47.22508" lon="6.0787">
        <ele>439</ele>
        <time>2021-04-10T12:55:05Z</time>
      </trkpt>
      <trkpt lat="47.22502" lon="6.07863">
        <ele>438.6</ele>
        <time>2021-04-10T12:55:06Z</time>
      </trkpt>
      <trkpt lat="47.22495" lon="6.07856">
        <ele>437.8</ele>
        <time>2021-04-10T12:55:07Z</time>
      </trkpt>
      <trkpt lat="47.22489" lon="6.07849">
        <ele>437</ele>
        <time>2021-04-10T12:55:08Z</time>
      </trkpt>
      <trkpt lat="47.22477" lon="6.07835">
        <ele>436</ele>
        <time>2021-04-10T12:55:10Z</time>
      </trkpt>
      <trkpt lat="47.22465" lon="6.07819">
        <ele>435.4</ele>
        <time>2021-04-10T12:55:12Z</time>
      </trkpt>
      <trkpt lat="47.22457" lon="6.07798">
        <ele>434.4</ele>
        <time>2021-04-10T12:55:14Z</time>
      </trkpt>
      <trkpt lat="47.22454" lon="6.07787">
        <ele>434</ele>
        <time>2021-04-10T12:55:15Z</time>
      </trkpt>
      <trkpt lat="47.22453" lon="6.07776">
        <ele>433.4</ele>
        <time>2021-04-10T12:55:16Z</time>
      </trkpt>
      <trkpt lat="47.22455" lon="6.07766">
        <ele>432.8</ele>
        <time>2021-04-10T12:55:17Z</time>
      </trkpt>
      <trkpt lat="47.22458" lon="6.07758">
        <ele>432.6</ele>
        <time>2021-04-10T12:55:18Z</time>
      </trkpt>
      <trkpt lat="47.2246" lon="6.07751">
        <ele>432.2</ele>
        <time>2021-04-10T12:55:19Z</time>
      </trkpt>
      <trkpt lat="47.22463" lon="6.07745">
        <ele>432.2</ele>
        <time>2021-04-10T12:55:20Z</time>
      </trkpt>
      <trkpt lat="47.22465" lon="6.07739">
        <ele>432.2</ele>
        <time>2021-04-10T12:55:21Z</time>
      </trkpt>
      <trkpt lat="47.22467" lon="6.07734">
        <ele>432.2</ele>
        <time>2021-04-10T12:55:22Z</time>
      </trkpt>
      <trkpt lat="47.22469" lon="6.07729">
        <ele>432</ele>
        <time>2021-04-10T12:55:23Z</time>
      </trkpt>
      <trkpt lat="47.2247" lon="6.07725">
        <ele>432.2</ele>
        <time>2021-04-10T12:55:24Z</time>
      </trkpt>
      <trkpt lat="47.22471" lon="6.0772">
        <ele>432.2</ele>
        <time>2021-04-10T12:55:25Z</time>
      </trkpt>
      <trkpt lat="47.22473" lon="6.07714">
        <ele>432.6</ele>
        <time>2021-04-10T12:55:26Z</time>
      </trkpt>
      <trkpt lat="47.22474" lon="6.07695">
        <ele>433.6</ele>
        <time>2021-04-10T12:55:30Z</time>
      </trkpt>
      <trkpt lat="47.22473" lon="6.07691">
        <ele>433.6</ele>
        <time>2021-04-10T12:55:31Z</time>
      </trkpt>
      <trkpt lat="47.22472" lon="6.07686">
        <ele>433.8</ele>
        <time>2021-04-10T12:55:32Z</time>
      </trkpt>
      <trkpt lat="47.2247" lon="6.0768">
        <ele>434</ele>
        <time>2021-04-10T12:55:33Z</time>
      </trkpt>
      <trkpt lat="47.22469" lon="6.07676">
        <ele>434</ele>
        <time>2021-04-10T12:55:34Z</time>
      </trkpt>
      <trkpt lat="47.22467" lon="6.07671">
        <ele>434.4</ele>
        <time>2021-04-10T12:55:35Z</time>
      </trkpt>
      <trkpt lat="47.22461" lon="6.07658">
        <ele>435.2</ele>
        <time>2021-04-10T12:55:39Z</time>
      </trkpt>
      <trkpt lat="47.22459" lon="6.07655">
        <ele>435.2</ele>
        <time>2021-04-10T12:55:40Z</time>
      </trkpt>
      <trkpt lat="47.22458" lon="6.07652">
        <ele>435.4</ele>
        <time>2021-04-10T12:55:41Z</time>
      </trkpt>
      <trkpt lat="47.22457" lon="6.07648">
        <ele>435.6</ele>
        <time>2021-04-10T12:55:42Z</time>
      </trkpt>
      <trkpt lat="47.22456" lon="6.07637">
        <ele>435.6</ele>
        <time>2021-04-10T12:55:44Z</time>
      </trkpt>
      <trkpt lat="47.22456" lon="6.07631">
        <ele>435.6</ele>
        <time>2021-04-10T12:55:45Z</time>
      </trkpt>
      <trkpt lat="47.22457" lon="6.07626">
        <ele>435.8</ele>
        <time>2021-04-10T12:55:46Z</time>
      </trkpt>
      <trkpt lat="47.22457" lon="6.07621">
        <ele>436</ele>
        <time>2021-04-10T12:55:47Z</time>
      </trkpt>
      <trkpt lat="47.22456" lon="6.07617">
        <ele>436.2</ele>
        <time>2021-04-10T12:55:48Z</time>
      </trkpt>
      <trkpt lat="47.22454" lon="6.07613">
        <ele>436.2</ele>
        <time>2021-04-10T12:55:49Z</time>
      </trkpt>
      <trkpt lat="47.22453" lon="6.07608">
        <ele>436.4</ele>
        <time>2021-04-10T12:55:50Z</time>
      </trkpt>
      <trkpt lat="47.22453" lon="6.07599">
        <ele>437.2</ele>
        <time>2021-04-10T12:55:52Z</time>
      </trkpt>
      <trkpt lat="47.22454" lon="6.07595">
        <ele>437.4</ele>
        <time>2021-04-10T12:55:53Z</time>
      </trkpt>
      <trkpt lat="47.22456" lon="6.07591">
        <ele>437.6</ele>
        <time>2021-04-10T12:55:54Z</time>
      </trkpt>
      <trkpt lat="47.22457" lon="6.07588">
        <ele>437.8</ele>
        <time>2021-04-10T12:55:55Z</time>
      </trkpt>
      <trkpt lat="47.22459" lon="6.07585">
        <ele>438</ele>
        <time>2021-04-10T12:55:56Z</time>
      </trkpt>
      <trkpt lat="47.2246" lon="6.07581">
        <ele>438.2</ele>
        <time>2021-04-10T12:55:57Z</time>
      </trkpt>
      <trkpt lat="47.22462" lon="6.07578">
        <ele>438.2</ele>
        <time>2021-04-10T12:55:58Z</time>
      </trkpt>
      <trkpt lat="47.22464" lon="6.07574">
        <ele>438.4</ele>
        <time>2021-04-10T12:55:59Z</time>
      </trkpt>
      <trkpt lat="47.22465" lon="6.07571">
        <ele>438.6</ele>
        <time>2021-04-10T12:56:00Z</time>
      </trkpt>
      <trkpt lat="47.22466" lon="6.07569">
        <ele>438.6</ele>
        <time>2021-04-10T12:56:01Z</time>
      </trkpt>
      <trkpt lat="47.22466" lon="6.07566">
        <ele>438.8</ele>
        <time>2021-04-10T12:56:02Z</time>
      </trkpt>
      <trkpt lat="47.22466" lon="6.07563">
        <ele>439</ele>
        <time>2021-04-10T12:56:03Z</time>
      </trkpt>
      <trkpt lat="47.22467" lon="6.07561">
        <ele>439</ele>
        <time>2021-04-10T12:56:04Z</time>
      </trkpt>
      <trkpt lat="47.22467" lon="6.0756">
        <ele>439.2</ele>
        <time>2021-04-10T12:56:05Z</time>
      </trkpt>
      <trkpt lat="47.22468" lon="6.07558">
        <ele>439.4</ele>
        <time>2021-04-10T12:56:06Z</time>
      </trkpt>
      <trkpt lat="47.22468" lon="6.07555">
        <ele>439.6</ele>
        <time>2021-04-10T12:56:07Z</time>
      </trkpt>
      <trkpt lat="47.22469" lon="6.07553">
        <ele>439.8</ele>
        <time>2021-04-10T12:56:08Z</time>
      </trkpt>
      <trkpt lat="47.22469" lon="6.0755">
        <ele>439.8</ele>
        <time>2021-04-10T12:56:09Z</time>
      </trkpt>
      <trkpt lat="47.2247" lon="6.07547">
        <ele>440</ele>
        <time>2021-04-10T12:56:10Z</time>
      </trkpt>
      <trkpt lat="47.2247" lon="6.07544">
        <ele>440</ele>
        <time>2021-04-10T12:56:11Z</time>
      </trkpt>
      <trkpt lat="47.2247" lon="6.07541">
        <ele>440</ele>
        <time>2021-04-10T12:56:12Z</time>
      </trkpt>
      <trkpt lat="47.22471" lon="6.07538">
        <ele>440.2</ele>
        <time>2021-04-10T12:56:13Z</time>
      </trkpt>
      <trkpt lat="47.22472" lon="6.07535">
        <ele>440.2</ele>
        <time>2021-04-10T12:56:14Z</time>
      </trkpt>
      <trkpt lat="47.22473" lon="6.07533">
        <ele>440.4</ele>
        <time>2021-04-10T12:56:15Z</time>
      </trkpt>
      <trkpt lat="47.22473" lon="6.07531">
        <ele>440.4</ele>
        <time>2021-04-10T12:56:16Z</time>
      </trkpt>
      <trkpt lat="47.22474" lon="6.07529">
        <ele>440.4</ele>
        <time>2021-04-10T12:56:17Z</time>
      </trkpt>
      <trkpt lat="47.22474" lon="6.07528">
        <ele>440.4</ele>
        <time>2021-04-10T12:56:18Z</time>
      </trkpt>
      <trkpt lat="47.22474" lon="6.07528">
        <ele>440.4</ele>
        <time>2021-04-10T12:56:19Z</time>
      </trkpt>
      <trkpt lat="47.22475" lon="6.07527">
        <ele>440.6</ele>
        <time>2021-04-10T12:56:23Z</time>
      </trkpt>
      <trkpt lat="47.22475" lon="6.07525">
        <ele>440.6</ele>
        <time>2021-04-10T12:56:24Z</time>
      </trkpt>
      <trkpt lat="47.22476" lon="6.07522">
        <ele>440.8</ele>
        <time>2021-04-10T12:56:25Z</time>
      </trkpt>
      <trkpt lat="47.22477" lon="6.07519">
        <ele>441</ele>
        <time>2021-04-10T12:56:26Z</time>
      </trkpt>
      <trkpt lat="47.2248" lon="6.07496">
        <ele>441</ele>
        <time>2021-04-10T12:56:30Z</time>
      </trkpt>
      <trkpt lat="47.22484" lon="6.07473">
        <ele>441.2</ele>
        <time>2021-04-10T12:56:34Z</time>
      </trkpt>
      <trkpt lat="47.22484" lon="6.07466">
        <ele>441.2</ele>
        <time>2021-04-10T12:56:35Z</time>
      </trkpt>
      <trkpt lat="47.22486" lon="6.07454">
        <ele>441.4</ele>
        <time>2021-04-10T12:56:37Z</time>
      </trkpt>
      <trkpt lat="47.22488" lon="6.07435">
        <ele>441.6</ele>
        <time>2021-04-10T12:56:40Z</time>
      </trkpt>
      <trkpt lat="47.22488" lon="6.07431">
        <ele>441.4</ele>
        <time>2021-04-10T12:56:41Z</time>
      </trkpt>
      <trkpt lat="47.22489" lon="6.07427">
        <ele>441.4</ele>
        <time>2021-04-10T12:56:42Z</time>
      </trkpt>
      <trkpt lat="47.2249" lon="6.07424">
        <ele>441.4</ele>
        <time>2021-04-10T12:56:43Z</time>
      </trkpt>
      <trkpt lat="47.22491" lon="6.07421">
        <ele>441.4</ele>
        <time>2021-04-10T12:56:44Z</time>
      </trkpt>
      <trkpt lat="47.2252" lon="6.07324">
        <ele>440</ele>
        <time>2021-04-10T12:56:58Z</time>
      </trkpt>
      <trkpt lat="47.22517" lon="6.07316">
        <ele>439.6</ele>
        <time>2021-04-10T12:56:59Z</time>
      </trkpt>
      <trkpt lat="47.22517" lon="6.07306">
        <ele>439.4</ele>
        <time>2021-04-10T12:57:00Z</time>
      </trkpt>
      <trkpt lat="47.22512" lon="6.07298">
        <ele>439.2</ele>
        <time>2021-04-10T12:57:01Z</time>
      </trkpt>
      <trkpt lat="47.22505" lon="6.0729">
        <ele>439</ele>
        <time>2021-04-10T12:57:02Z</time>
      </trkpt>
      <trkpt lat="47.22494" lon="6.07274">
        <ele>438.4</ele>
        <time>2021-04-10T12:57:04Z</time>
      </trkpt>
      <trkpt lat="47.2249" lon="6.07264">
        <ele>438</ele>
        <time>2021-04-10T12:57:05Z</time>
      </trkpt>
      <trkpt lat="47.22488" lon="6.07258">
        <ele>437.8</ele>
        <time>2021-04-10T12:57:06Z</time>
      </trkpt>
      <trkpt lat="47.22484" lon="6.0725">
        <ele>437.2</ele>
        <time>2021-04-10T12:57:07Z</time>
      </trkpt>
      <trkpt lat="47.22476" lon="6.07236">
        <ele>436.8</ele>
        <time>2021-04-10T12:57:09Z</time>
      </trkpt>
      <trkpt lat="47.2247" lon="6.0723">
        <ele>436.6</ele>
        <time>2021-04-10T12:57:10Z</time>
      </trkpt>
      <trkpt lat="47.22465" lon="6.07222">
        <ele>436.4</ele>
        <time>2021-04-10T12:57:11Z</time>
      </trkpt>
      <trkpt lat="47.2246" lon="6.07215">
        <ele>435.6</ele>
        <time>2021-04-10T12:57:12Z</time>
      </trkpt>
      <trkpt lat="47.2244" lon="6.07182">
        <ele>434.4</ele>
        <time>2021-04-10T12:57:16Z</time>
      </trkpt>
      <trkpt lat="47.22421" lon="6.07144">
        <ele>433.4</ele>
        <time>2021-04-10T12:57:20Z</time>
      </trkpt>
      <trkpt lat="47.22412" lon="6.07127">
        <ele>432.4</ele>
        <time>2021-04-10T12:57:22Z</time>
      </trkpt>
      <trkpt lat="47.22403" lon="6.07108">
        <ele>431.4</ele>
        <time>2021-04-10T12:57:24Z</time>
      </trkpt>
      <trkpt lat="47.22398" lon="6.07099">
        <ele>431</ele>
        <time>2021-04-10T12:57:25Z</time>
      </trkpt>
      <trkpt lat="47.2238" lon="6.07063">
        <ele>429.8</ele>
        <time>2021-04-10T12:57:29Z</time>
      </trkpt>
      <trkpt lat="47.22373" lon="6.07045">
        <ele>428.6</ele>
        <time>2021-04-10T12:57:31Z</time>
      </trkpt>
      <trkpt lat="47.2237" lon="6.07038">
        <ele>428</ele>
        <time>2021-04-10T12:57:32Z</time>
      </trkpt>
      <trkpt lat="47.22369" lon="6.07031">
        <ele>428</ele>
        <time>2021-04-10T12:57:33Z</time>
      </trkpt>
      <trkpt lat="47.22368" lon="6.07024">
        <ele>427.4</ele>
        <time>2021-04-10T12:57:34Z</time>
      </trkpt>
      <trkpt lat="47.22367" lon="6.07019">
        <ele>427.2</ele>
        <time>2021-04-10T12:57:35Z</time>
      </trkpt>
      <trkpt lat="47.22366" lon="6.07013">
        <ele>427</ele>
        <time>2021-04-10T12:57:36Z</time>
      </trkpt>
      <trkpt lat="47.22364" lon="6.07007">
        <ele>427</ele>
        <time>2021-04-10T12:57:37Z</time>
      </trkpt>
      <trkpt lat="47.22363" lon="6.07003">
        <ele>426.6</ele>
        <time>2021-04-10T12:57:38Z</time>
      </trkpt>
      <trkpt lat="47.22363" lon="6.06999">
        <ele>426.2</ele>
        <time>2021-04-10T12:57:39Z</time>
      </trkpt>
      <trkpt lat="47.22362" lon="6.06997">
        <ele>426</ele>
        <time>2021-04-10T12:57:40Z</time>
      </trkpt>
      <trkpt lat="47.22361" lon="6.06994">
        <ele>425.4</ele>
        <time>2021-04-10T12:57:41Z</time>
      </trkpt>
      <trkpt lat="47.22361" lon="6.06992">
        <ele>425</ele>
        <time>2021-04-10T12:57:42Z</time>
      </trkpt>
      <trkpt lat="47.2236" lon="6.06989">
        <ele>424.4</ele>
        <time>2021-04-10T12:57:43Z</time>
      </trkpt>
      <trkpt lat="47.22361" lon="6.06986">
        <ele>424</ele>
        <time>2021-04-10T12:57:44Z</time>
      </trkpt>
      <trkpt lat="47.22361" lon="6.06983">
        <ele>423.4</ele>
        <time>2021-04-10T12:57:45Z</time>
      </trkpt>
      <trkpt lat="47.2236" lon="6.06972">
        <ele>422.8</ele>
        <time>2021-04-10T12:57:47Z</time>
      </trkpt>
      <trkpt lat="47.22359" lon="6.06956">
        <ele>422.4</ele>
        <time>2021-04-10T12:57:49Z</time>
      </trkpt>
      <trkpt lat="47.22358" lon="6.06946">
        <ele>421.8</ele>
        <time>2021-04-10T12:57:50Z</time>
      </trkpt>
      <trkpt lat="47.22358" lon="6.06931">
        <ele>421</ele>
        <time>2021-04-10T12:57:52Z</time>
      </trkpt>
      <trkpt lat="47.22357" lon="6.06925">
        <ele>420.8</ele>
        <time>2021-04-10T12:57:53Z</time>
      </trkpt>
      <trkpt lat="47.22356" lon="6.06915">
        <ele>419.8</ele>
        <time>2021-04-10T12:57:54Z</time>
      </trkpt>
      <trkpt lat="47.22355" lon="6.06906">
        <ele>419.6</ele>
        <time>2021-04-10T12:57:55Z</time>
      </trkpt>
      <trkpt lat="47.22354" lon="6.0689">
        <ele>418</ele>
        <time>2021-04-10T12:57:57Z</time>
      </trkpt>
      <trkpt lat="47.22352" lon="6.06867">
        <ele>416.4</ele>
        <time>2021-04-10T12:57:59Z</time>
      </trkpt>
      <trkpt lat="47.22351" lon="6.06848">
        <ele>415</ele>
        <time>2021-04-10T12:58:01Z</time>
      </trkpt>
      <trkpt lat="47.22352" lon="6.06829">
        <ele>413.4</ele>
        <time>2021-04-10T12:58:03Z</time>
      </trkpt>
      <trkpt lat="47.22352" lon="6.06821">
        <ele>412.8</ele>
        <time>2021-04-10T12:58:04Z</time>
      </trkpt>
      <trkpt lat="47.22353" lon="6.06815">
        <ele>411.6</ele>
        <time>2021-04-10T12:58:05Z</time>
      </trkpt>
      <trkpt lat="47.22353" lon="6.06811">
        <ele>410.6</ele>
        <time>2021-04-10T12:58:06Z</time>
      </trkpt>
      <trkpt lat="47.22354" lon="6.06808">
        <ele>409.6</ele>
        <time>2021-04-10T12:58:07Z</time>
      </trkpt>
      <trkpt lat="47.22354" lon="6.06806">
        <ele>408.2</ele>
        <time>2021-04-10T12:58:08Z</time>
      </trkpt>
      <trkpt lat="47.22354" lon="6.06803">
        <ele>407.8</ele>
        <time>2021-04-10T12:58:09Z</time>
      </trkpt>
      <trkpt lat="47.22355" lon="6.06801">
        <ele>406.8</ele>
        <time>2021-04-10T12:58:10Z</time>
      </trkpt>
      <trkpt lat="47.22355" lon="6.06798">
        <ele>406.4</ele>
        <time>2021-04-10T12:58:11Z</time>
      </trkpt>
      <trkpt lat="47.22355" lon="6.06796">
        <ele>405.8</ele>
        <time>2021-04-10T12:58:12Z</time>
      </trkpt>
      <trkpt lat="47.22355" lon="6.06794">
        <ele>405.4</ele>
        <time>2021-04-10T12:58:13Z</time>
      </trkpt>
      <trkpt lat="47.22355" lon="6.06792">
        <ele>404.8</ele>
        <time>2021-04-10T12:58:14Z</time>
      </trkpt>
      <trkpt lat="47.22355" lon="6.0679">
        <ele>404.2</ele>
        <time>2021-04-10T12:58:15Z</time>
      </trkpt>
      <trkpt lat="47.22355" lon="6.06787">
        <ele>404</ele>
        <time>2021-04-10T12:58:16Z</time>
      </trkpt>
      <trkpt lat="47.22355" lon="6.06785">
        <ele>403.6</ele>
        <time>2021-04-10T12:58:17Z</time>
      </trkpt>
      <trkpt lat="47.22354" lon="6.06778">
        <ele>403.2</ele>
        <time>2021-04-10T12:58:19Z</time>
      </trkpt>
      <trkpt lat="47.22354" lon="6.06761">
        <ele>402</ele>
        <time>2021-04-10T12:58:23Z</time>
      </trkpt>
      <trkpt lat="47.22356" lon="6.06744">
        <ele>401</ele>
        <time>2021-04-10T12:58:26Z</time>
      </trkpt>
      <trkpt lat="47.2236" lon="6.0673">
        <ele>400</ele>
        <time>2021-04-10T12:58:28Z</time>
      </trkpt>
      <trkpt lat="47.22364" lon="6.06722">
        <ele>399.6</ele>
        <time>2021-04-10T12:58:29Z</time>
      </trkpt>
      <trkpt lat="47.22369" lon="6.06715">
        <ele>398.8</ele>
        <time>2021-04-10T12:58:30Z</time>
      </trkpt>
      <trkpt lat="47.22375" lon="6.06707">
        <ele>397.8</ele>
        <time>2021-04-10T12:58:31Z</time>
      </trkpt>
      <trkpt lat="47.22381" lon="6.06699">
        <ele>397.4</ele>
        <time>2021-04-10T12:58:32Z</time>
      </trkpt>
      <trkpt lat="47.22388" lon="6.06693">
        <ele>396.4</ele>
        <time>2021-04-10T12:58:33Z</time>
      </trkpt>
      <trkpt lat="47.22395" lon="6.06687">
        <ele>395.4</ele>
        <time>2021-04-10T12:58:34Z</time>
      </trkpt>
      <trkpt lat="47.22403" lon="6.06683">
        <ele>393.8</ele>
        <time>2021-04-10T12:58:35Z</time>
      </trkpt>
      <trkpt lat="47.22421" lon="6.06678">
        <ele>391</ele>
        <time>2021-04-10T12:58:37Z</time>
      </trkpt>
      <trkpt lat="47.2243" lon="6.06677">
        <ele>390.4</ele>
        <time>2021-04-10T12:58:38Z</time>
      </trkpt>
      <trkpt lat="47.22439" lon="6.06678">
        <ele>388.4</ele>
        <time>2021-04-10T12:58:39Z</time>
      </trkpt>
      <trkpt lat="47.22447" lon="6.06679">
        <ele>386.8</ele>
        <time>2021-04-10T12:58:40Z</time>
      </trkpt>
      <trkpt lat="47.22456" lon="6.06681">
        <ele>386.2</ele>
        <time>2021-04-10T12:58:41Z</time>
      </trkpt>
      <trkpt lat="47.22464" lon="6.06684">
        <ele>384.4</ele>
        <time>2021-04-10T12:58:42Z</time>
      </trkpt>
      <trkpt lat="47.22472" lon="6.06688">
        <ele>383.8</ele>
        <time>2021-04-10T12:58:43Z</time>
      </trkpt>
      <trkpt lat="47.22479" lon="6.06692">
        <ele>382.6</ele>
        <time>2021-04-10T12:58:44Z</time>
      </trkpt>
      <trkpt lat="47.22486" lon="6.06696">
        <ele>382.2</ele>
        <time>2021-04-10T12:58:45Z</time>
      </trkpt>
      <trkpt lat="47.22493" lon="6.06697">
        <ele>381</ele>
        <time>2021-04-10T12:58:46Z</time>
      </trkpt>
      <trkpt lat="47.225" lon="6.06697">
        <ele>380.2</ele>
        <time>2021-04-10T12:58:47Z</time>
      </trkpt>
      <trkpt lat="47.22507" lon="6.06693">
        <ele>378.6</ele>
        <time>2021-04-10T12:58:48Z</time>
      </trkpt>
      <trkpt lat="47.22515" lon="6.06689">
        <ele>377.2</ele>
        <time>2021-04-10T12:58:49Z</time>
      </trkpt>
      <trkpt lat="47.22522" lon="6.06685">
        <ele>376.6</ele>
        <time>2021-04-10T12:58:50Z</time>
      </trkpt>
      <trkpt lat="47.22529" lon="6.0668">
        <ele>375.4</ele>
        <time>2021-04-10T12:58:51Z</time>
      </trkpt>
      <trkpt lat="47.22535" lon="6.06676">
        <ele>375</ele>
        <time>2021-04-10T12:58:52Z</time>
      </trkpt>
      <trkpt lat="47.22543" lon="6.0667">
        <ele>373.8</ele>
        <time>2021-04-10T12:58:53Z</time>
      </trkpt>
      <trkpt lat="47.22548" lon="6.06666">
        <ele>373.2</ele>
        <time>2021-04-10T12:58:54Z</time>
      </trkpt>
      <trkpt lat="47.22554" lon="6.0666">
        <ele>371.4</ele>
        <time>2021-04-10T12:58:55Z</time>
      </trkpt>
      <trkpt lat="47.22561" lon="6.06654">
        <ele>370.6</ele>
        <time>2021-04-10T12:58:56Z</time>
      </trkpt>
      <trkpt lat="47.22568" lon="6.06648">
        <ele>369.6</ele>
        <time>2021-04-10T12:58:57Z</time>
      </trkpt>
      <trkpt lat="47.22575" lon="6.06642">
        <ele>368.2</ele>
        <time>2021-04-10T12:58:58Z</time>
      </trkpt>
      <trkpt lat="47.2258" lon="6.06635">
        <ele>367.4</ele>
        <time>2021-04-10T12:58:59Z</time>
      </trkpt>
      <trkpt lat="47.22586" lon="6.06626">
        <ele>365.4</ele>
        <time>2021-04-10T12:59:00Z</time>
      </trkpt>
      <trkpt lat="47.22591" lon="6.06617">
        <ele>364.8</ele>
        <time>2021-04-10T12:59:01Z</time>
      </trkpt>
      <trkpt lat="47.22595" lon="6.06608">
        <ele>363.8</ele>
        <time>2021-04-10T12:59:02Z</time>
      </trkpt>
      <trkpt lat="47.22598" lon="6.06599">
        <ele>363.2</ele>
        <time>2021-04-10T12:59:03Z</time>
      </trkpt>
      <trkpt lat="47.22601" lon="6.06591">
        <ele>362.6</ele>
        <time>2021-04-10T12:59:04Z</time>
      </trkpt>
      <trkpt lat="47.22603" lon="6.06583">
        <ele>362</ele>
        <time>2021-04-10T12:59:05Z</time>
      </trkpt>
      <trkpt lat="47.22605" lon="6.06576">
        <ele>360.6</ele>
        <time>2021-04-10T12:59:06Z</time>
      </trkpt>
      <trkpt lat="47.22607" lon="6.06571">
        <ele>359.4</ele>
        <time>2021-04-10T12:59:07Z</time>
      </trkpt>
      <trkpt lat="47.2261" lon="6.06567">
        <ele>359.2</ele>
        <time>2021-04-10T12:59:08Z</time>
      </trkpt>
      <trkpt lat="47.22614" lon="6.06563">
        <ele>358.6</ele>
        <time>2021-04-10T12:59:09Z</time>
      </trkpt>
      <trkpt lat="47.22618" lon="6.06558">
        <ele>358.4</ele>
        <time>2021-04-10T12:59:10Z</time>
      </trkpt>
      <trkpt lat="47.22622" lon="6.06552">
        <ele>357.8</ele>
        <time>2021-04-10T12:59:11Z</time>
      </trkpt>
      <trkpt lat="47.2263" lon="6.06537">
        <ele>357.6</ele>
        <time>2021-04-10T12:59:13Z</time>
      </trkpt>
      <trkpt lat="47.2264" lon="6.06513">
        <ele>356.8</ele>
        <time>2021-04-10T12:59:16Z</time>
      </trkpt>
      <trkpt lat="47.22651" lon="6.06486">
        <ele>355.8</ele>
        <time>2021-04-10T12:59:19Z</time>
      </trkpt>
      <trkpt lat="47.22654" lon="6.06476">
        <ele>355.4</ele>
        <time>2021-04-10T12:59:20Z</time>
      </trkpt>
      <trkpt lat="47.22659" lon="6.06456">
        <ele>354.8</ele>
        <time>2021-04-10T12:59:22Z</time>
      </trkpt>
      <trkpt lat="47.22662" lon="6.06445">
        <ele>354.6</ele>
        <time>2021-04-10T12:59:23Z</time>
      </trkpt>
      <trkpt lat="47.22664" lon="6.06437">
        <ele>354</ele>
        <time>2021-04-10T12:59:24Z</time>
      </trkpt>
      <trkpt lat="47.22673" lon="6.06409">
        <ele>352.8</ele>
        <time>2021-04-10T12:59:27Z</time>
      </trkpt>
      <trkpt lat="47.22675" lon="6.064">
        <ele>352.6</ele>
        <time>2021-04-10T12:59:28Z</time>
      </trkpt>
      <trkpt lat="47.22677" lon="6.06392">
        <ele>352.2</ele>
        <time>2021-04-10T12:59:29Z</time>
      </trkpt>
      <trkpt lat="47.2268" lon="6.06386">
        <ele>352</ele>
        <time>2021-04-10T12:59:30Z</time>
      </trkpt>
      <trkpt lat="47.22682" lon="6.0638">
        <ele>351.6</ele>
        <time>2021-04-10T12:59:31Z</time>
      </trkpt>
      <trkpt lat="47.22684" lon="6.06373">
        <ele>351.4</ele>
        <time>2021-04-10T12:59:32Z</time>
      </trkpt>
      <trkpt lat="47.22687" lon="6.06367">
        <ele>351.2</ele>
        <time>2021-04-10T12:59:33Z</time>
      </trkpt>
      <trkpt lat="47.22694" lon="6.06356">
        <ele>350.8</ele>
        <time>2021-04-10T12:59:35Z</time>
      </trkpt>
      <trkpt lat="47.22697" lon="6.0635">
        <ele>350.6</ele>
        <time>2021-04-10T12:59:36Z</time>
      </trkpt>
      <trkpt lat="47.22705" lon="6.06341">
        <ele>350.2</ele>
        <time>2021-04-10T12:59:38Z</time>
      </trkpt>
      <trkpt lat="47.22709" lon="6.06336">
        <ele>350</ele>
        <time>2021-04-10T12:59:39Z</time>
      </trkpt>
      <trkpt lat="47.22712" lon="6.06329">
        <ele>349.8</ele>
        <time>2021-04-10T12:59:40Z</time>
      </trkpt>
      <trkpt lat="47.22721" lon="6.06315">
        <ele>349.4</ele>
        <time>2021-04-10T12:59:42Z</time>
      </trkpt>
      <trkpt lat="47.22736" lon="6.06294">
        <ele>348.8</ele>
        <time>2021-04-10T12:59:45Z</time>
      </trkpt>
      <trkpt lat="47.22751" lon="6.06268">
        <ele>348.6</ele>
        <time>2021-04-10T12:59:48Z</time>
      </trkpt>
      <trkpt lat="47.22756" lon="6.06259">
        <ele>348.2</ele>
        <time>2021-04-10T12:59:49Z</time>
      </trkpt>
      <trkpt lat="47.22762" lon="6.06252">
        <ele>348</ele>
        <time>2021-04-10T12:59:50Z</time>
      </trkpt>
      <trkpt lat="47.22767" lon="6.06245">
        <ele>347.6</ele>
        <time>2021-04-10T12:59:51Z</time>
      </trkpt>
      <trkpt lat="47.22779" lon="6.06235">
        <ele>347</ele>
        <time>2021-04-10T12:59:53Z</time>
      </trkpt>
      <trkpt lat="47.22787" lon="6.0623">
        <ele>346.6</ele>
        <time>2021-04-10T12:59:54Z</time>
      </trkpt>
      <trkpt lat="47.22802" lon="6.06227">
        <ele>345.6</ele>
        <time>2021-04-10T12:59:56Z</time>
      </trkpt>
      <trkpt lat="47.22809" lon="6.06226">
        <ele>345.2</ele>
        <time>2021-04-10T12:59:57Z</time>
      </trkpt>
      <trkpt lat="47.22822" lon="6.06229">
        <ele>344.6</ele>
        <time>2021-04-10T12:59:59Z</time>
      </trkpt>
      <trkpt lat="47.22828" lon="6.06231">
        <ele>344.2</ele>
        <time>2021-04-10T13:00:00Z</time>
      </trkpt>
      <trkpt lat="47.22835" lon="6.06233">
        <ele>344</ele>
        <time>2021-04-10T13:00:01Z</time>
      </trkpt>
      <trkpt lat="47.22841" lon="6.06235">
        <ele>343.8</ele>
        <time>2021-04-10T13:00:02Z</time>
      </trkpt>
      <trkpt lat="47.22846" lon="6.06236">
        <ele>343.8</ele>
        <time>2021-04-10T13:00:03Z</time>
      </trkpt>
      <trkpt lat="47.22853" lon="6.06236">
        <ele>343.6</ele>
        <time>2021-04-10T13:00:04Z</time>
      </trkpt>
      <trkpt lat="47.22859" lon="6.06235">
        <ele>343.4</ele>
        <time>2021-04-10T13:00:05Z</time>
      </trkpt>
      <trkpt lat="47.22864" lon="6.06234">
        <ele>343.4</ele>
        <time>2021-04-10T13:00:06Z</time>
      </trkpt>
      <trkpt lat="47.22869" lon="6.06234">
        <ele>343.2</ele>
        <time>2021-04-10T13:00:07Z</time>
      </trkpt>
      <trkpt lat="47.22875" lon="6.06233">
        <ele>343</ele>
        <time>2021-04-10T13:00:08Z</time>
      </trkpt>
      <trkpt lat="47.22882" lon="6.06232">
        <ele>342.8</ele>
        <time>2021-04-10T13:00:09Z</time>
      </trkpt>
      <trkpt lat="47.22888" lon="6.0623">
        <ele>342.6</ele>
        <time>2021-04-10T13:00:10Z</time>
      </trkpt>
      <trkpt lat="47.22901" lon="6.06227">
        <ele>342</ele>
        <time>2021-04-10T13:00:12Z</time>
      </trkpt>
      <trkpt lat="47.22921" lon="6.06223">
        <ele>341.6</ele>
        <time>2021-04-10T13:00:15Z</time>
      </trkpt>
      <trkpt lat="47.22957" lon="6.06215">
        <ele>340.8</ele>
        <time>2021-04-10T13:00:21Z</time>
      </trkpt>
      <trkpt lat="47.22982" lon="6.06204">
        <ele>340.2</ele>
        <time>2021-04-10T13:00:25Z</time>
      </trkpt>
      <trkpt lat="47.22994" lon="6.06195">
        <ele>339.6</ele>
        <time>2021-04-10T13:00:27Z</time>
      </trkpt>
      <trkpt lat="47.23011" lon="6.06176">
        <ele>338.8</ele>
        <time>2021-04-10T13:00:30Z</time>
      </trkpt>
      <trkpt lat="47.23021" lon="6.0616">
        <ele>338.4</ele>
        <time>2021-04-10T13:00:32Z</time>
      </trkpt>
      <trkpt lat="47.23028" lon="6.06141">
        <ele>338</ele>
        <time>2021-04-10T13:00:34Z</time>
      </trkpt>
      <trkpt lat="47.23035" lon="6.06111">
        <ele>337.2</ele>
        <time>2021-04-10T13:00:37Z</time>
      </trkpt>
      <trkpt lat="47.23037" lon="6.061">
        <ele>337.2</ele>
        <time>2021-04-10T13:00:38Z</time>
      </trkpt>
      <trkpt lat="47.23038" lon="6.06078">
        <ele>336.6</ele>
        <time>2021-04-10T13:00:40Z</time>
      </trkpt>
      <trkpt lat="47.23037" lon="6.06056">
        <ele>336.2</ele>
        <time>2021-04-10T13:00:42Z</time>
      </trkpt>
      <trkpt lat="47.23028" lon="6.06022">
        <ele>335.8</ele>
        <time>2021-04-10T13:00:45Z</time>
      </trkpt>
      <trkpt lat="47.23024" lon="6.06012">
        <ele>335.6</ele>
        <time>2021-04-10T13:00:46Z</time>
      </trkpt>
      <trkpt lat="47.23011" lon="6.05984">
        <ele>335.2</ele>
        <time>2021-04-10T13:00:49Z</time>
      </trkpt>
      <trkpt lat="47.22997" lon="6.0596">
        <ele>334.2</ele>
        <time>2021-04-10T13:00:52Z</time>
      </trkpt>
      <trkpt lat="47.22992" lon="6.05952">
        <ele>333.8</ele>
        <time>2021-04-10T13:00:53Z</time>
      </trkpt>
      <trkpt lat="47.22981" lon="6.05933">
        <ele>333.2</ele>
        <time>2021-04-10T13:00:55Z</time>
      </trkpt>
      <trkpt lat="47.22971" lon="6.05918">
        <ele>332.4</ele>
        <time>2021-04-10T13:00:57Z</time>
      </trkpt>
      <trkpt lat="47.22942" lon="6.05878">
        <ele>331.4</ele>
        <time>2021-04-10T13:01:02Z</time>
      </trkpt>
      <trkpt lat="47.22926" lon="6.05854">
        <ele>330.6</ele>
        <time>2021-04-10T13:01:05Z</time>
      </trkpt>
      <trkpt lat="47.2292" lon="6.05846">
        <ele>330.2</ele>
        <time>2021-04-10T13:01:06Z</time>
      </trkpt>
      <trkpt lat="47.22909" lon="6.05829">
        <ele>329.6</ele>
        <time>2021-04-10T13:01:08Z</time>
      </trkpt>
      <trkpt lat="47.22894" lon="6.05809">
        <ele>328.6</ele>
        <time>2021-04-10T13:01:11Z</time>
      </trkpt>
      <trkpt lat="47.22883" lon="6.05793">
        <ele>328</ele>
        <time>2021-04-10T13:01:13Z</time>
      </trkpt>
      <trkpt lat="47.22877" lon="6.05786">
        <ele>327.8</ele>
        <time>2021-04-10T13:01:14Z</time>
      </trkpt>
      <trkpt lat="47.22872" lon="6.05778">
        <ele>327.6</ele>
        <time>2021-04-10T13:01:15Z</time>
      </trkpt>
      <trkpt lat="47.22861" lon="6.05763">
        <ele>327.2</ele>
        <time>2021-04-10T13:01:17Z</time>
      </trkpt>
      <trkpt lat="47.2284" lon="6.05732">
        <ele>326</ele>
        <time>2021-04-10T13:01:21Z</time>
      </trkpt>
      <trkpt lat="47.22835" lon="6.05725">
        <ele>325.8</ele>
        <time>2021-04-10T13:01:22Z</time>
      </trkpt>
      <trkpt lat="47.22806" lon="6.05686">
        <ele>324.8</ele>
        <time>2021-04-10T13:01:27Z</time>
      </trkpt>
      <trkpt lat="47.22799" lon="6.05677">
        <ele>324.6</ele>
        <time>2021-04-10T13:01:28Z</time>
      </trkpt>
      <trkpt lat="47.22787" lon="6.05661">
        <ele>324.2</ele>
        <time>2021-04-10T13:01:30Z</time>
      </trkpt>
      <trkpt lat="47.22777" lon="6.05643">
        <ele>323.8</ele>
        <time>2021-04-10T13:01:32Z</time>
      </trkpt>
      <trkpt lat="47.22771" lon="6.05634">
        <ele>323.6</ele>
        <time>2021-04-10T13:01:33Z</time>
      </trkpt>
      <trkpt lat="47.22757" lon="6.05606">
        <ele>322.8</ele>
        <time>2021-04-10T13:01:36Z</time>
      </trkpt>
      <trkpt lat="47.22745" lon="6.05573">
        <ele>321.8</ele>
        <time>2021-04-10T13:01:39Z</time>
      </trkpt>
      <trkpt lat="47.22742" lon="6.05562">
        <ele>321.6</ele>
        <time>2021-04-10T13:01:40Z</time>
      </trkpt>
      <trkpt lat="47.22724" lon="6.05497">
        <ele>320.2</ele>
        <time>2021-04-10T13:01:46Z</time>
      </trkpt>
      <trkpt lat="47.22722" lon="6.05487">
        <ele>319.8</ele>
        <time>2021-04-10T13:01:47Z</time>
      </trkpt>
      <trkpt lat="47.22716" lon="6.05467">
        <ele>319.4</ele>
        <time>2021-04-10T13:01:49Z</time>
      </trkpt>
      <trkpt lat="47.22714" lon="6.05459">
        <ele>319.4</ele>
        <time>2021-04-10T13:01:50Z</time>
      </trkpt>
      <trkpt lat="47.2271" lon="6.05447">
        <ele>319</ele>
        <time>2021-04-10T13:01:51Z</time>
      </trkpt>
      <trkpt lat="47.22707" lon="6.05437">
        <ele>319</ele>
        <time>2021-04-10T13:01:52Z</time>
      </trkpt>
      <trkpt lat="47.22692" lon="6.05397">
        <ele>318</ele>
        <time>2021-04-10T13:01:56Z</time>
      </trkpt>
      <trkpt lat="47.22685" lon="6.05376">
        <ele>317.8</ele>
        <time>2021-04-10T13:01:58Z</time>
      </trkpt>
      <trkpt lat="47.22673" lon="6.05334">
        <ele>316.4</ele>
        <time>2021-04-10T13:02:02Z</time>
      </trkpt>
      <trkpt lat="47.22665" lon="6.05302">
        <ele>315.2</ele>
        <time>2021-04-10T13:02:05Z</time>
      </trkpt>
      <trkpt lat="47.22662" lon="6.05292">
        <ele>315</ele>
        <time>2021-04-10T13:02:06Z</time>
      </trkpt>
      <trkpt lat="47.22648" lon="6.05255">
        <ele>314.4</ele>
        <time>2021-04-10T13:02:10Z</time>
      </trkpt>
      <trkpt lat="47.22644" lon="6.05244">
        <ele>314.2</ele>
        <time>2021-04-10T13:02:11Z</time>
      </trkpt>
      <trkpt lat="47.22638" lon="6.05224">
        <ele>313.6</ele>
        <time>2021-04-10T13:02:13Z</time>
      </trkpt>
      <trkpt lat="47.22633" lon="6.05202">
        <ele>313</ele>
        <time>2021-04-10T13:02:15Z</time>
      </trkpt>
      <trkpt lat="47.22627" lon="6.0517">
        <ele>312</ele>
        <time>2021-04-10T13:02:18Z</time>
      </trkpt>
      <trkpt lat="47.22626" lon="6.05161">
        <ele>311.8</ele>
        <time>2021-04-10T13:02:19Z</time>
      </trkpt>
      <trkpt lat="47.22616" lon="6.05093">
        <ele>310.8</ele>
        <time>2021-04-10T13:02:25Z</time>
      </trkpt>
      <trkpt lat="47.22614" lon="6.05082">
        <ele>310.8</ele>
        <time>2021-04-10T13:02:26Z</time>
      </trkpt>
      <trkpt lat="47.22608" lon="6.05042">
        <ele>309.6</ele>
        <time>2021-04-10T13:02:30Z</time>
      </trkpt>
      <trkpt lat="47.22606" lon="6.05031">
        <ele>309.4</ele>
        <time>2021-04-10T13:02:31Z</time>
      </trkpt>
      <trkpt lat="47.22598" lon="6.04987">
        <ele>308.6</ele>
        <time>2021-04-10T13:02:35Z</time>
      </trkpt>
      <trkpt lat="47.22594" lon="6.04968">
        <ele>308.2</ele>
        <time>2021-04-10T13:02:37Z</time>
      </trkpt>
      <trkpt lat="47.22591" lon="6.04959">
        <ele>308</ele>
        <time>2021-04-10T13:02:38Z</time>
      </trkpt>
      <trkpt lat="47.22589" lon="6.04952">
        <ele>307.6</ele>
        <time>2021-04-10T13:02:39Z</time>
      </trkpt>
      <trkpt lat="47.22587" lon="6.04943">
        <ele>307.2</ele>
        <time>2021-04-10T13:02:40Z</time>
      </trkpt>
      <trkpt lat="47.22584" lon="6.04932">
        <ele>306.8</ele>
        <time>2021-04-10T13:02:41Z</time>
      </trkpt>
      <trkpt lat="47.22577" lon="6.04913">
        <ele>306.2</ele>
        <time>2021-04-10T13:02:43Z</time>
      </trkpt>
      <trkpt lat="47.22574" lon="6.04903">
        <ele>306</ele>
        <time>2021-04-10T13:02:44Z</time>
      </trkpt>
      <trkpt lat="47.22562" lon="6.04865">
        <ele>305</ele>
        <time>2021-04-10T13:02:48Z</time>
      </trkpt>
      <trkpt lat="47.22558" lon="6.04855">
        <ele>304.8</ele>
        <time>2021-04-10T13:02:49Z</time>
      </trkpt>
      <trkpt lat="47.22548" lon="6.04817">
        <ele>304</ele>
        <time>2021-04-10T13:02:53Z</time>
      </trkpt>
      <trkpt lat="47.22545" lon="6.04794">
        <ele>303.6</ele>
        <time>2021-04-10T13:02:55Z</time>
      </trkpt>
      <trkpt lat="47.22544" lon="6.04783">
        <ele>303.6</ele>
        <time>2021-04-10T13:02:56Z</time>
      </trkpt>
      <trkpt lat="47.22543" lon="6.0474">
        <ele>302.6</ele>
        <time>2021-04-10T13:03:00Z</time>
      </trkpt>
      <trkpt lat="47.22543" lon="6.04726">
        <ele>302.2</ele>
        <time>2021-04-10T13:03:01Z</time>
      </trkpt>
      <trkpt lat="47.22541" lon="6.04668">
        <ele>300.8</ele>
        <time>2021-04-10T13:03:06Z</time>
      </trkpt>
      <trkpt lat="47.22539" lon="6.04645">
        <ele>300</ele>
        <time>2021-04-10T13:03:08Z</time>
      </trkpt>
      <trkpt lat="47.22538" lon="6.04634">
        <ele>299.8</ele>
        <time>2021-04-10T13:03:09Z</time>
      </trkpt>
      <trkpt lat="47.22535" lon="6.046">
        <ele>298.8</ele>
        <time>2021-04-10T13:03:12Z</time>
      </trkpt>
      <trkpt lat="47.22534" lon="6.04577">
        <ele>298.2</ele>
        <time>2021-04-10T13:03:14Z</time>
      </trkpt>
      <trkpt lat="47.22532" lon="6.04555">
        <ele>297.6</ele>
        <time>2021-04-10T13:03:16Z</time>
      </trkpt>
      <trkpt lat="47.22533" lon="6.04489">
        <ele>296.4</ele>
        <time>2021-04-10T13:03:22Z</time>
      </trkpt>
      <trkpt lat="47.22541" lon="6.04424">
        <ele>295.2</ele>
        <time>2021-04-10T13:03:28Z</time>
      </trkpt>
      <trkpt lat="47.22547" lon="6.04393">
        <ele>294.2</ele>
        <time>2021-04-10T13:03:31Z</time>
      </trkpt>
      <trkpt lat="47.22549" lon="6.04383">
        <ele>294</ele>
        <time>2021-04-10T13:03:32Z</time>
      </trkpt>
      <trkpt lat="47.22552" lon="6.04373">
        <ele>293.6</ele>
        <time>2021-04-10T13:03:33Z</time>
      </trkpt>
      <trkpt lat="47.22556" lon="6.04354">
        <ele>293.2</ele>
        <time>2021-04-10T13:03:35Z</time>
      </trkpt>
      <trkpt lat="47.22559" lon="6.04344">
        <ele>293.2</ele>
        <time>2021-04-10T13:03:36Z</time>
      </trkpt>
      <trkpt lat="47.22561" lon="6.04334">
        <ele>292.8</ele>
        <time>2021-04-10T13:03:37Z</time>
      </trkpt>
      <trkpt lat="47.22563" lon="6.04325">
        <ele>292.6</ele>
        <time>2021-04-10T13:03:38Z</time>
      </trkpt>
      <trkpt lat="47.22566" lon="6.04315">
        <ele>292.4</ele>
        <time>2021-04-10T13:03:39Z</time>
      </trkpt>
      <trkpt lat="47.22568" lon="6.04306">
        <ele>292.2</ele>
        <time>2021-04-10T13:03:40Z</time>
      </trkpt>
      <trkpt lat="47.22571" lon="6.04296">
        <ele>292</ele>
        <time>2021-04-10T13:03:41Z</time>
      </trkpt>
      <trkpt lat="47.22578" lon="6.04267">
        <ele>291.4</ele>
        <time>2021-04-10T13:03:44Z</time>
      </trkpt>
      <trkpt lat="47.22585" lon="6.0425">
        <ele>291</ele>
        <time>2021-04-10T13:03:46Z</time>
      </trkpt>
      <trkpt lat="47.22598" lon="6.04215">
        <ele>290.4</ele>
        <time>2021-04-10T13:03:50Z</time>
      </trkpt>
      <trkpt lat="47.22603" lon="6.042">
        <ele>289.8</ele>
        <time>2021-04-10T13:03:52Z</time>
      </trkpt>
      <trkpt lat="47.22606" lon="6.04189">
        <ele>289.4</ele>
        <time>2021-04-10T13:03:53Z</time>
      </trkpt>
      <trkpt lat="47.22611" lon="6.0417">
        <ele>289</ele>
        <time>2021-04-10T13:03:55Z</time>
      </trkpt>
      <trkpt lat="47.22614" lon="6.04153">
        <ele>288.8</ele>
        <time>2021-04-10T13:03:57Z</time>
      </trkpt>
      <trkpt lat="47.22617" lon="6.04142">
        <ele>288.6</ele>
        <time>2021-04-10T13:03:58Z</time>
      </trkpt>
      <trkpt lat="47.22628" lon="6.04098">
        <ele>287.4</ele>
        <time>2021-04-10T13:04:03Z</time>
      </trkpt>
      <trkpt lat="47.22635" lon="6.04078">
        <ele>287.2</ele>
        <time>2021-04-10T13:04:05Z</time>
      </trkpt>
      <trkpt lat="47.22644" lon="6.04051">
        <ele>286.2</ele>
        <time>2021-04-10T13:04:08Z</time>
      </trkpt>
      <trkpt lat="47.2266" lon="6.04017">
        <ele>285.2</ele>
        <time>2021-04-10T13:04:12Z</time>
      </trkpt>
      <trkpt lat="47.22677" lon="6.03987">
        <ele>284</ele>
        <time>2021-04-10T13:04:16Z</time>
      </trkpt>
      <trkpt lat="47.22687" lon="6.03973">
        <ele>283.6</ele>
        <time>2021-04-10T13:04:18Z</time>
      </trkpt>
      <trkpt lat="47.22691" lon="6.03967">
        <ele>283.4</ele>
        <time>2021-04-10T13:04:19Z</time>
      </trkpt>
      <trkpt lat="47.22705" lon="6.03947">
        <ele>283</ele>
        <time>2021-04-10T13:04:22Z</time>
      </trkpt>
      <trkpt lat="47.22725" lon="6.03921">
        <ele>282.4</ele>
        <time>2021-04-10T13:04:26Z</time>
      </trkpt>
      <trkpt lat="47.22741" lon="6.039">
        <ele>282</ele>
        <time>2021-04-10T13:04:29Z</time>
      </trkpt>
      <trkpt lat="47.22762" lon="6.0387">
        <ele>280.4</ele>
        <time>2021-04-10T13:04:33Z</time>
      </trkpt>
      <trkpt lat="47.22778" lon="6.0385">
        <ele>279.8</ele>
        <time>2021-04-10T13:04:36Z</time>
      </trkpt>
      <trkpt lat="47.22791" lon="6.03841">
        <ele>279.4</ele>
        <time>2021-04-10T13:04:38Z</time>
      </trkpt>
      <trkpt lat="47.22805" lon="6.03836">
        <ele>279</ele>
        <time>2021-04-10T13:04:40Z</time>
      </trkpt>
      <trkpt lat="47.22811" lon="6.03834">
        <ele>278.8</ele>
        <time>2021-04-10T13:04:41Z</time>
      </trkpt>
      <trkpt lat="47.22824" lon="6.03834">
        <ele>278</ele>
        <time>2021-04-10T13:04:43Z</time>
      </trkpt>
      <trkpt lat="47.2283" lon="6.03833">
        <ele>277.6</ele>
        <time>2021-04-10T13:04:44Z</time>
      </trkpt>
      <trkpt lat="47.22837" lon="6.03832">
        <ele>277</ele>
        <time>2021-04-10T13:04:45Z</time>
      </trkpt>
      <trkpt lat="47.22844" lon="6.03831">
        <ele>276.8</ele>
        <time>2021-04-10T13:04:46Z</time>
      </trkpt>
      <trkpt lat="47.22851" lon="6.03829">
        <ele>276.6</ele>
        <time>2021-04-10T13:04:47Z</time>
      </trkpt>
      <trkpt lat="47.22857" lon="6.03827">
        <ele>276.4</ele>
        <time>2021-04-10T13:04:48Z</time>
      </trkpt>
      <trkpt lat="47.22864" lon="6.03824">
        <ele>276.2</ele>
        <time>2021-04-10T13:04:49Z</time>
      </trkpt>
      <trkpt lat="47.22878" lon="6.03817">
        <ele>276</ele>
        <time>2021-04-10T13:04:51Z</time>
      </trkpt>
      <trkpt lat="47.22887" lon="6.03811">
        <ele>275.8</ele>
        <time>2021-04-10T13:04:52Z</time>
      </trkpt>
      <trkpt lat="47.22892" lon="6.03806">
        <ele>275.8</ele>
        <time>2021-04-10T13:04:53Z</time>
      </trkpt>
      <trkpt lat="47.22907" lon="6.03794">
        <ele>274.4</ele>
        <time>2021-04-10T13:04:55Z</time>
      </trkpt>
      <trkpt lat="47.22927" lon="6.03776">
        <ele>273.2</ele>
        <time>2021-04-10T13:04:58Z</time>
      </trkpt>
      <trkpt lat="47.22933" lon="6.03771">
        <ele>273</ele>
        <time>2021-04-10T13:04:59Z</time>
      </trkpt>
      <trkpt lat="47.22938" lon="6.03767">
        <ele>272.4</ele>
        <time>2021-04-10T13:05:00Z</time>
      </trkpt>
      <trkpt lat="47.22943" lon="6.03764">
        <ele>271.8</ele>
        <time>2021-04-10T13:05:01Z</time>
      </trkpt>
      <trkpt lat="47.22947" lon="6.03763">
        <ele>271.6</ele>
        <time>2021-04-10T13:05:02Z</time>
      </trkpt>
      <trkpt lat="47.22949" lon="6.03762">
        <ele>271.2</ele>
        <time>2021-04-10T13:05:03Z</time>
      </trkpt>
      <trkpt lat="47.22951" lon="6.03762">
        <ele>271.2</ele>
        <time>2021-04-10T13:05:04Z</time>
      </trkpt>
      <trkpt lat="47.22953" lon="6.03762">
        <ele>270.6</ele>
        <time>2021-04-10T13:05:05Z</time>
      </trkpt>
      <trkpt lat="47.22956" lon="6.03762">
        <ele>270.6</ele>
        <time>2021-04-10T13:05:06Z</time>
      </trkpt>
      <trkpt lat="47.22957" lon="6.03762">
        <ele>270.4</ele>
        <time>2021-04-10T13:05:07Z</time>
      </trkpt>
      <trkpt lat="47.22958" lon="6.03761">
        <ele>270</ele>
        <time>2021-04-10T13:05:10Z</time>
      </trkpt>
      <trkpt lat="47.22959" lon="6.03761">
        <ele>270</ele>
        <time>2021-04-10T13:05:35Z</time>
      </trkpt>
      <trkpt lat="47.22964" lon="6.03757">
        <ele>270.2</ele>
        <time>2021-04-10T13:05:44Z</time>
      </trkpt>
      <trkpt lat="47.22976" lon="6.03747">
        <ele>270.2</ele>
        <time>2021-04-10T13:05:49Z</time>
      </trkpt>
      <trkpt lat="47.22978" lon="6.03745">
        <ele>270.2</ele>
        <time>2021-04-10T13:05:50Z</time>
      </trkpt>
      <trkpt lat="47.22992" lon="6.03734">
        <ele>270</ele>
        <time>2021-04-10T13:05:56Z</time>
      </trkpt>
      <trkpt lat="47.23014" lon="6.03718">
        <ele>269.6</ele>
        <time>2021-04-10T13:06:03Z</time>
      </trkpt>
      <trkpt lat="47.23018" lon="6.03716">
        <ele>269.8</ele>
        <time>2021-04-10T13:06:04Z</time>
      </trkpt>
      <trkpt lat="47.23025" lon="6.03711">
        <ele>269.4</ele>
        <time>2021-04-10T13:06:06Z</time>
      </trkpt>
      <trkpt lat="47.23028" lon="6.03707">
        <ele>269.2</ele>
        <time>2021-04-10T13:06:07Z</time>
      </trkpt>
      <trkpt lat="47.23037" lon="6.03699">
        <ele>268.8</ele>
        <time>2021-04-10T13:06:10Z</time>
      </trkpt>
      <trkpt lat="47.23069" lon="6.03669">
        <ele>267.8</ele>
        <time>2021-04-10T13:06:19Z</time>
      </trkpt>
      <trkpt lat="47.23076" lon="6.03661">
        <ele>267.6</ele>
        <time>2021-04-10T13:06:21Z</time>
      </trkpt>
      <trkpt lat="47.23089" lon="6.03649">
        <ele>267.4</ele>
        <time>2021-04-10T13:06:25Z</time>
      </trkpt>
      <trkpt lat="47.23092" lon="6.03647">
        <ele>267.2</ele>
        <time>2021-04-10T13:06:26Z</time>
      </trkpt>
      <trkpt lat="47.23094" lon="6.03644">
        <ele>267.2</ele>
        <time>2021-04-10T13:06:27Z</time>
      </trkpt>
      <trkpt lat="47.23097" lon="6.03642">
        <ele>267</ele>
        <time>2021-04-10T13:06:28Z</time>
      </trkpt>
      <trkpt lat="47.23107" lon="6.03634">
        <ele>266.8</ele>
        <time>2021-04-10T13:06:31Z</time>
      </trkpt>
      <trkpt lat="47.2312" lon="6.03617">
        <ele>266.6</ele>
        <time>2021-04-10T13:06:35Z</time>
      </trkpt>
      <trkpt lat="47.23123" lon="6.03612">
        <ele>266.6</ele>
        <time>2021-04-10T13:06:36Z</time>
      </trkpt>
      <trkpt lat="47.23134" lon="6.03599">
        <ele>266.6</ele>
        <time>2021-04-10T13:06:40Z</time>
      </trkpt>
      <trkpt lat="47.23137" lon="6.03595">
        <ele>266.6</ele>
        <time>2021-04-10T13:06:41Z</time>
      </trkpt>
      <trkpt lat="47.23139" lon="6.03592">
        <ele>266.6</ele>
        <time>2021-04-10T13:06:42Z</time>
      </trkpt>
      <trkpt lat="47.23141" lon="6.03589">
        <ele>266.8</ele>
        <time>2021-04-10T13:06:43Z</time>
      </trkpt>
      <trkpt lat="47.23144" lon="6.03587">
        <ele>266.8</ele>
        <time>2021-04-10T13:06:44Z</time>
      </trkpt>
      <trkpt lat="47.23149" lon="6.03582">
        <ele>267</ele>
        <time>2021-04-10T13:06:46Z</time>
      </trkpt>
      <trkpt lat="47.23155" lon="6.03578">
        <ele>267.2</ele>
        <time>2021-04-10T13:06:48Z</time>
      </trkpt>
      <trkpt lat="47.23162" lon="6.03577">
        <ele>267.2</ele>
        <time>2021-04-10T13:06:50Z</time>
      </trkpt>
      <trkpt lat="47.23165" lon="6.03579">
        <ele>267.4</ele>
        <time>2021-04-10T13:06:51Z</time>
      </trkpt>
      <trkpt lat="47.23169" lon="6.0358">
        <ele>267.4</ele>
        <time>2021-04-10T13:06:52Z</time>
      </trkpt>
      <trkpt lat="47.23172" lon="6.03582">
        <ele>267.4</ele>
        <time>2021-04-10T13:06:53Z</time>
      </trkpt>
      <trkpt lat="47.23176" lon="6.03584">
        <ele>267.4</ele>
        <time>2021-04-10T13:06:54Z</time>
      </trkpt>
      <trkpt lat="47.2318" lon="6.03587">
        <ele>267.2</ele>
        <time>2021-04-10T13:06:55Z</time>
      </trkpt>
      <trkpt lat="47.23184" lon="6.03589">
        <ele>267.2</ele>
        <time>2021-04-10T13:06:56Z</time>
      </trkpt>
      <trkpt lat="47.23204" lon="6.03594">
        <ele>266.6</ele>
        <time>2021-04-10T13:07:00Z</time>
      </trkpt>
      <trkpt lat="47.23209" lon="6.03595">
        <ele>266.6</ele>
        <time>2021-04-10T13:07:01Z</time>
      </trkpt>
      <trkpt lat="47.23219" lon="6.03596">
        <ele>266.2</ele>
        <time>2021-04-10T13:07:03Z</time>
      </trkpt>
      <trkpt lat="47.23224" lon="6.03596">
        <ele>265.8</ele>
        <time>2021-04-10T13:07:04Z</time>
      </trkpt>
      <trkpt lat="47.23234" lon="6.03596">
        <ele>265.4</ele>
        <time>2021-04-10T13:07:06Z</time>
      </trkpt>
      <trkpt lat="47.23239" lon="6.03595">
        <ele>265</ele>
        <time>2021-04-10T13:07:07Z</time>
      </trkpt>
      <trkpt lat="47.23251" lon="6.0359">
        <ele>264.8</ele>
        <time>2021-04-10T13:07:10Z</time>
      </trkpt>
      <trkpt lat="47.23254" lon="6.03588">
        <ele>264.8</ele>
        <time>2021-04-10T13:07:11Z</time>
      </trkpt>
      <trkpt lat="47.23258" lon="6.03587">
        <ele>264.8</ele>
        <time>2021-04-10T13:07:12Z</time>
      </trkpt>
      <trkpt lat="47.23269" lon="6.03582">
        <ele>264.6</ele>
        <time>2021-04-10T13:07:15Z</time>
      </trkpt>
      <trkpt lat="47.23272" lon="6.0358">
        <ele>264.6</ele>
        <time>2021-04-10T13:07:16Z</time>
      </trkpt>
      <trkpt lat="47.23276" lon="6.03578">
        <ele>264.6</ele>
        <time>2021-04-10T13:07:17Z</time>
      </trkpt>
      <trkpt lat="47.23279" lon="6.03576">
        <ele>264.6</ele>
        <time>2021-04-10T13:07:18Z</time>
      </trkpt>
      <trkpt lat="47.23283" lon="6.03574">
        <ele>264.6</ele>
        <time>2021-04-10T13:07:19Z</time>
      </trkpt>
      <trkpt lat="47.23313" lon="6.03559">
        <ele>264.6</ele>
        <time>2021-04-10T13:07:27Z</time>
      </trkpt>
      <trkpt lat="47.23349" lon="6.03542">
        <ele>264.4</ele>
        <time>2021-04-10T13:07:36Z</time>
      </trkpt>
      <trkpt lat="47.23357" lon="6.03538">
        <ele>264.4</ele>
        <time>2021-04-10T13:07:38Z</time>
      </trkpt>
      <trkpt lat="47.23363" lon="6.03533">
        <ele>264.4</ele>
        <time>2021-04-10T13:07:40Z</time>
      </trkpt>
      <trkpt lat="47.23367" lon="6.03531">
        <ele>264.4</ele>
        <time>2021-04-10T13:07:41Z</time>
      </trkpt>
      <trkpt lat="47.2337" lon="6.03529">
        <ele>264.4</ele>
        <time>2021-04-10T13:07:42Z</time>
      </trkpt>
      <trkpt lat="47.23372" lon="6.03527">
        <ele>264.4</ele>
        <time>2021-04-10T13:07:43Z</time>
      </trkpt>
      <trkpt lat="47.23375" lon="6.03524">
        <ele>264.6</ele>
        <time>2021-04-10T13:07:44Z</time>
      </trkpt>
      <trkpt lat="47.23378" lon="6.03521">
        <ele>264.6</ele>
        <time>2021-04-10T13:07:45Z</time>
      </trkpt>
      <trkpt lat="47.23381" lon="6.03519">
        <ele>264.6</ele>
        <time>2021-04-10T13:07:46Z</time>
      </trkpt>
      <trkpt lat="47.23384" lon="6.03517">
        <ele>264.6</ele>
        <time>2021-04-10T13:07:47Z</time>
      </trkpt>
      <trkpt lat="47.23387" lon="6.03515">
        <ele>264.6</ele>
        <time>2021-04-10T13:07:48Z</time>
      </trkpt>
      <trkpt lat="47.2341" lon="6.03506">
        <ele>264.6</ele>
        <time>2021-04-10T13:07:54Z</time>
      </trkpt>
      <trkpt lat="47.2343" lon="6.03493">
        <ele>264.4</ele>
        <time>2021-04-10T13:08:00Z</time>
      </trkpt>
      <trkpt lat="47.23432" lon="6.03491">
        <ele>264.4</ele>
        <time>2021-04-10T13:08:01Z</time>
      </trkpt>
      <trkpt lat="47.23435" lon="6.0349">
        <ele>264.4</ele>
        <time>2021-04-10T13:08:02Z</time>
      </trkpt>
      <trkpt lat="47.23437" lon="6.03489">
        <ele>264.4</ele>
        <time>2021-04-10T13:08:03Z</time>
      </trkpt>
      <trkpt lat="47.2344" lon="6.03487">
        <ele>264.4</ele>
        <time>2021-04-10T13:08:04Z</time>
      </trkpt>
      <trkpt lat="47.2345" lon="6.0348">
        <ele>264.6</ele>
        <time>2021-04-10T13:08:08Z</time>
      </trkpt>
      <trkpt lat="47.23452" lon="6.03478">
        <ele>264.6</ele>
        <time>2021-04-10T13:08:09Z</time>
      </trkpt>
      <trkpt lat="47.23454" lon="6.03476">
        <ele>264.8</ele>
        <time>2021-04-10T13:08:10Z</time>
      </trkpt>
      <trkpt lat="47.23457" lon="6.03474">
        <ele>264.8</ele>
        <time>2021-04-10T13:08:11Z</time>
      </trkpt>
      <trkpt lat="47.23469" lon="6.03463">
        <ele>264.6</ele>
        <time>2021-04-10T13:08:15Z</time>
      </trkpt>
      <trkpt lat="47.23474" lon="6.03456">
        <ele>264.6</ele>
        <time>2021-04-10T13:08:17Z</time>
      </trkpt>
      <trkpt lat="47.23477" lon="6.03452">
        <ele>264.6</ele>
        <time>2021-04-10T13:08:18Z</time>
      </trkpt>
      <trkpt lat="47.2348" lon="6.03449">
        <ele>264.6</ele>
        <time>2021-04-10T13:08:19Z</time>
      </trkpt>
      <trkpt lat="47.23486" lon="6.03444">
        <ele>264.6</ele>
        <time>2021-04-10T13:08:21Z</time>
      </trkpt>
      <trkpt lat="47.23489" lon="6.03442">
        <ele>264.6</ele>
        <time>2021-04-10T13:08:22Z</time>
      </trkpt>
      <trkpt lat="47.23494" lon="6.03438">
        <ele>264.4</ele>
        <time>2021-04-10T13:08:24Z</time>
      </trkpt>
      <trkpt lat="47.23497" lon="6.03437">
        <ele>264.2</ele>
        <time>2021-04-10T13:08:25Z</time>
      </trkpt>
      <trkpt lat="47.23499" lon="6.03435">
        <ele>264.2</ele>
        <time>2021-04-10T13:08:26Z</time>
      </trkpt>
      <trkpt lat="47.23502" lon="6.03434">
        <ele>264.2</ele>
        <time>2021-04-10T13:08:27Z</time>
      </trkpt>
      <trkpt lat="47.23505" lon="6.03432">
        <ele>264.2</ele>
        <time>2021-04-10T13:08:28Z</time>
      </trkpt>
      <trkpt lat="47.23508" lon="6.03431">
        <ele>264</ele>
        <time>2021-04-10T13:08:29Z</time>
      </trkpt>
      <trkpt lat="47.23511" lon="6.0343">
        <ele>264</ele>
        <time>2021-04-10T13:08:30Z</time>
      </trkpt>
      <trkpt lat="47.23514" lon="6.03429">
        <ele>264</ele>
        <time>2021-04-10T13:08:31Z</time>
      </trkpt>
      <trkpt lat="47.23522" lon="6.03427">
        <ele>263.8</ele>
        <time>2021-04-10T13:08:33Z</time>
      </trkpt>
      <trkpt lat="47.2353" lon="6.03429">
        <ele>263.8</ele>
        <time>2021-04-10T13:08:35Z</time>
      </trkpt>
      <trkpt lat="47.23534" lon="6.03431">
        <ele>263.8</ele>
        <time>2021-04-10T13:08:36Z</time>
      </trkpt>
      <trkpt lat="47.23538" lon="6.03433">
        <ele>263.8</ele>
        <time>2021-04-10T13:08:37Z</time>
      </trkpt>
      <trkpt lat="47.23542" lon="6.03435">
        <ele>263.8</ele>
        <time>2021-04-10T13:08:38Z</time>
      </trkpt>
      <trkpt lat="47.23563" lon="6.03438">
        <ele>264</ele>
        <time>2021-04-10T13:08:43Z</time>
      </trkpt>
      <trkpt lat="47.2358" lon="6.03431">
        <ele>264</ele>
        <time>2021-04-10T13:08:47Z</time>
      </trkpt>
      <trkpt lat="47.23588" lon="6.03425">
        <ele>264</ele>
        <time>2021-04-10T13:08:49Z</time>
      </trkpt>
      <trkpt lat="47.23641" lon="6.03389">
        <ele>264.6</ele>
        <time>2021-04-10T13:09:01Z</time>
      </trkpt>
      <trkpt lat="47.23658" lon="6.03376">
        <ele>264.6</ele>
        <time>2021-04-10T13:09:05Z</time>
      </trkpt>
      <trkpt lat="47.23667" lon="6.0337">
        <ele>264.8</ele>
        <time>2021-04-10T13:09:07Z</time>
      </trkpt>
      <trkpt lat="47.23671" lon="6.03367">
        <ele>264.8</ele>
        <time>2021-04-10T13:09:08Z</time>
      </trkpt>
      <trkpt lat="47.23683" lon="6.0336">
        <ele>264.8</ele>
        <time>2021-04-10T13:09:11Z</time>
      </trkpt>
      <trkpt lat="47.23687" lon="6.03358">
        <ele>264.8</ele>
        <time>2021-04-10T13:09:12Z</time>
      </trkpt>
      <trkpt lat="47.2369" lon="6.03356">
        <ele>264.8</ele>
        <time>2021-04-10T13:09:13Z</time>
      </trkpt>
      <trkpt lat="47.23694" lon="6.03354">
        <ele>264.8</ele>
        <time>2021-04-10T13:09:14Z</time>
      </trkpt>
      <trkpt lat="47.23725" lon="6.0333">
        <ele>264.8</ele>
        <time>2021-04-10T13:09:22Z</time>
      </trkpt>
      <trkpt lat="47.23749" lon="6.03311">
        <ele>264.8</ele>
        <time>2021-04-10T13:09:28Z</time>
      </trkpt>
      <trkpt lat="47.23753" lon="6.03307">
        <ele>264.8</ele>
        <time>2021-04-10T13:09:29Z</time>
      </trkpt>
      <trkpt lat="47.2376" lon="6.03298">
        <ele>264.6</ele>
        <time>2021-04-10T13:09:31Z</time>
      </trkpt>
      <trkpt lat="47.23771" lon="6.03278">
        <ele>264.4</ele>
        <time>2021-04-10T13:09:35Z</time>
      </trkpt>
      <trkpt lat="47.23773" lon="6.03273">
        <ele>264.4</ele>
        <time>2021-04-10T13:09:36Z</time>
      </trkpt>
      <trkpt lat="47.23776" lon="6.03269">
        <ele>264.4</ele>
        <time>2021-04-10T13:09:37Z</time>
      </trkpt>
      <trkpt lat="47.23778" lon="6.03265">
        <ele>264.6</ele>
        <time>2021-04-10T13:09:38Z</time>
      </trkpt>
      <trkpt lat="47.2378" lon="6.03262">
        <ele>264.6</ele>
        <time>2021-04-10T13:09:39Z</time>
      </trkpt>
      <trkpt lat="47.23782" lon="6.03259">
        <ele>264.6</ele>
        <time>2021-04-10T13:09:40Z</time>
      </trkpt>
      <trkpt lat="47.23783" lon="6.03257">
        <ele>264.4</ele>
        <time>2021-04-10T13:09:41Z</time>
      </trkpt>
      <trkpt lat="47.23784" lon="6.03254">
        <ele>264.4</ele>
        <time>2021-04-10T13:09:42Z</time>
      </trkpt>
      <trkpt lat="47.23786" lon="6.03253">
        <ele>264.4</ele>
        <time>2021-04-10T13:09:43Z</time>
      </trkpt>
      <trkpt lat="47.23788" lon="6.03253">
        <ele>264.6</ele>
        <time>2021-04-10T13:09:44Z</time>
      </trkpt>
      <trkpt lat="47.23792" lon="6.03259">
        <ele>264.6</ele>
        <time>2021-04-10T13:09:46Z</time>
      </trkpt>
      <trkpt lat="47.23792" lon="6.03262">
        <ele>264.6</ele>
        <time>2021-04-10T13:09:47Z</time>
      </trkpt>
      <trkpt lat="47.23793" lon="6.03264">
        <ele>264.6</ele>
        <time>2021-04-10T13:09:48Z</time>
      </trkpt>
      <trkpt lat="47.23794" lon="6.03268">
        <ele>264.6</ele>
        <time>2021-04-10T13:09:49Z</time>
      </trkpt>
      <trkpt lat="47.23795" lon="6.03272">
        <ele>264.8</ele>
        <time>2021-04-10T13:09:50Z</time>
      </trkpt>
      <trkpt lat="47.23803" lon="6.03295">
        <ele>265.2</ele>
        <time>2021-04-10T13:09:56Z</time>
      </trkpt>
      <trkpt lat="47.2381" lon="6.03317">
        <ele>265.4</ele>
        <time>2021-04-10T13:10:01Z</time>
      </trkpt>
      <trkpt lat="47.2382" lon="6.03346">
        <ele>265.6</ele>
        <time>2021-04-10T13:10:07Z</time>
      </trkpt>
      <trkpt lat="47.23831" lon="6.03377">
        <ele>265.4</ele>
        <time>2021-04-10T13:10:13Z</time>
      </trkpt>
      <trkpt lat="47.23834" lon="6.0338">
        <ele>265.4</ele>
        <time>2021-04-10T13:10:14Z</time>
      </trkpt>
      <trkpt lat="47.23837" lon="6.03381">
        <ele>265.4</ele>
        <time>2021-04-10T13:10:15Z</time>
      </trkpt>
      <trkpt lat="47.23839" lon="6.03381">
        <ele>265.4</ele>
        <time>2021-04-10T13:10:16Z</time>
      </trkpt>
      <trkpt lat="47.23841" lon="6.0338">
        <ele>265.4</ele>
        <time>2021-04-10T13:10:17Z</time>
      </trkpt>
      <trkpt lat="47.23844" lon="6.03381">
        <ele>265.4</ele>
        <time>2021-04-10T13:10:18Z</time>
      </trkpt>
      <trkpt lat="47.2385" lon="6.03382">
        <ele>265.4</ele>
        <time>2021-04-10T13:10:20Z</time>
      </trkpt>
      <trkpt lat="47.23867" lon="6.03378">
        <ele>265.2</ele>
        <time>2021-04-10T13:10:25Z</time>
      </trkpt>
      <trkpt lat="47.23884" lon="6.03368">
        <ele>264.6</ele>
        <time>2021-04-10T13:10:31Z</time>
      </trkpt>
      <trkpt lat="47.23887" lon="6.03366">
        <ele>264.4</ele>
        <time>2021-04-10T13:10:32Z</time>
      </trkpt>
      <trkpt lat="47.23894" lon="6.03363">
        <ele>264</ele>
        <time>2021-04-10T13:10:34Z</time>
      </trkpt>
      <trkpt lat="47.23908" lon="6.03362">
        <ele>263.6</ele>
        <time>2021-04-10T13:10:37Z</time>
      </trkpt>
      <trkpt lat="47.23922" lon="6.0336">
        <ele>263.4</ele>
        <time>2021-04-10T13:10:40Z</time>
      </trkpt>
      <trkpt lat="47.23928" lon="6.03359">
        <ele>263.2</ele>
        <time>2021-04-10T13:10:41Z</time>
      </trkpt>
      <trkpt lat="47.23933" lon="6.03358">
        <ele>263.2</ele>
        <time>2021-04-10T13:10:42Z</time>
      </trkpt>
      <trkpt lat="47.23938" lon="6.03357">
        <ele>263.2</ele>
        <time>2021-04-10T13:10:43Z</time>
      </trkpt>
      <trkpt lat="47.23943" lon="6.03355">
        <ele>263</ele>
        <time>2021-04-10T13:10:44Z</time>
      </trkpt>
      <trkpt lat="47.23947" lon="6.03354">
        <ele>263</ele>
        <time>2021-04-10T13:10:45Z</time>
      </trkpt>
      <trkpt lat="47.23955" lon="6.03352">
        <ele>262.8</ele>
        <time>2021-04-10T13:10:47Z</time>
      </trkpt>
      <trkpt lat="47.23958" lon="6.0335">
        <ele>262.8</ele>
        <time>2021-04-10T13:10:48Z</time>
      </trkpt>
      <trkpt lat="47.23962" lon="6.03348">
        <ele>262.6</ele>
        <time>2021-04-10T13:10:49Z</time>
      </trkpt>
      <trkpt lat="47.23965" lon="6.03347">
        <ele>262.6</ele>
        <time>2021-04-10T13:10:50Z</time>
      </trkpt>
      <trkpt lat="47.23967" lon="6.03344">
        <ele>262.4</ele>
        <time>2021-04-10T13:10:51Z</time>
      </trkpt>
      <trkpt lat="47.23968" lon="6.03341">
        <ele>262.4</ele>
        <time>2021-04-10T13:10:52Z</time>
      </trkpt>
      <trkpt lat="47.23971" lon="6.0334">
        <ele>262.2</ele>
        <time>2021-04-10T13:10:53Z</time>
      </trkpt>
      <trkpt lat="47.23974" lon="6.03339">
        <ele>262.2</ele>
        <time>2021-04-10T13:10:54Z</time>
      </trkpt>
      <trkpt lat="47.23979" lon="6.03334">
        <ele>262.2</ele>
        <time>2021-04-10T13:10:56Z</time>
      </trkpt>
      <trkpt lat="47.23982" lon="6.03332">
        <ele>262</ele>
        <time>2021-04-10T13:10:57Z</time>
      </trkpt>
      <trkpt lat="47.23984" lon="6.03329">
        <ele>262</ele>
        <time>2021-04-10T13:10:58Z</time>
      </trkpt>
      <trkpt lat="47.23986" lon="6.03329">
        <ele>261.8</ele>
        <time>2021-04-10T13:10:59Z</time>
      </trkpt>
      <trkpt lat="47.23988" lon="6.03328">
        <ele>261.8</ele>
        <time>2021-04-10T13:11:00Z</time>
      </trkpt>
      <trkpt lat="47.23993" lon="6.03328">
        <ele>261.8</ele>
        <time>2021-04-10T13:11:01Z</time>
      </trkpt>
      <trkpt lat="47.23998" lon="6.03327">
        <ele>261.6</ele>
        <time>2021-04-10T13:11:02Z</time>
      </trkpt>
      <trkpt lat="47.24002" lon="6.03325">
        <ele>261.6</ele>
        <time>2021-04-10T13:11:03Z</time>
      </trkpt>
      <trkpt lat="47.24008" lon="6.03319">
        <ele>261.6</ele>
        <time>2021-04-10T13:11:06Z</time>
      </trkpt>
      <trkpt lat="47.2401" lon="6.03316">
        <ele>261.6</ele>
        <time>2021-04-10T13:11:07Z</time>
      </trkpt>
      <trkpt lat="47.2402" lon="6.03307">
        <ele>261.6</ele>
        <time>2021-04-10T13:11:08Z</time>
      </trkpt>
      <trkpt lat="47.24022" lon="6.03303">
        <ele>261.6</ele>
        <time>2021-04-10T13:11:09Z</time>
      </trkpt>
      <trkpt lat="47.24024" lon="6.03301">
        <ele>261.6</ele>
        <time>2021-04-10T13:11:10Z</time>
      </trkpt>
      <trkpt lat="47.24025" lon="6.03298">
        <ele>261.6</ele>
        <time>2021-04-10T13:11:11Z</time>
      </trkpt>
      <trkpt lat="47.24035" lon="6.03288">
        <ele>261.6</ele>
        <time>2021-04-10T13:11:15Z</time>
      </trkpt>
      <trkpt lat="47.24037" lon="6.03286">
        <ele>261.4</ele>
        <time>2021-04-10T13:11:16Z</time>
      </trkpt>
      <trkpt lat="47.24039" lon="6.03284">
        <ele>261.4</ele>
        <time>2021-04-10T13:11:17Z</time>
      </trkpt>
      <trkpt lat="47.24043" lon="6.03278">
        <ele>261.4</ele>
        <time>2021-04-10T13:11:18Z</time>
      </trkpt>
      <trkpt lat="47.24043" lon="6.03277">
        <ele>261.4</ele>
        <time>2021-04-10T13:11:19Z</time>
      </trkpt>
      <trkpt lat="47.24044" lon="6.03272">
        <ele>261.2</ele>
        <time>2021-04-10T13:11:21Z</time>
      </trkpt>
      <trkpt lat="47.24045" lon="6.03271">
        <ele>261</ele>
        <time>2021-04-10T13:11:22Z</time>
      </trkpt>
      <trkpt lat="47.24047" lon="6.03269">
        <ele>261</ele>
        <time>2021-04-10T13:11:23Z</time>
      </trkpt>
      <trkpt lat="47.24047" lon="6.03266">
        <ele>261</ele>
        <time>2021-04-10T13:11:24Z</time>
      </trkpt>
      <trkpt lat="47.2405" lon="6.03261">
        <ele>261</ele>
        <time>2021-04-10T13:11:25Z</time>
      </trkpt>
      <trkpt lat="47.24052" lon="6.03255">
        <ele>260.8</ele>
        <time>2021-04-10T13:11:26Z</time>
      </trkpt>
      <trkpt lat="47.24055" lon="6.03253">
        <ele>260.8</ele>
        <time>2021-04-10T13:11:27Z</time>
      </trkpt>
      <trkpt lat="47.24057" lon="6.03249">
        <ele>260.8</ele>
        <time>2021-04-10T13:11:29Z</time>
      </trkpt>
      <trkpt lat="47.24059" lon="6.03248">
        <ele>260.8</ele>
        <time>2021-04-10T13:11:30Z</time>
      </trkpt>
      <trkpt lat="47.2406" lon="6.03247">
        <ele>260.8</ele>
        <time>2021-04-10T13:11:31Z</time>
      </trkpt>
      <trkpt lat="47.24072" lon="6.03236">
        <ele>260.6</ele>
        <time>2021-04-10T13:11:38Z</time>
      </trkpt>
      <trkpt lat="47.24075" lon="6.03229">
        <ele>260.6</ele>
        <time>2021-04-10T13:11:40Z</time>
      </trkpt>
      <trkpt lat="47.24077" lon="6.03227">
        <ele>260.6</ele>
        <time>2021-04-10T13:11:41Z</time>
      </trkpt>
      <trkpt lat="47.24081" lon="6.03222">
        <ele>260.6</ele>
        <time>2021-04-10T13:11:43Z</time>
      </trkpt>
      <trkpt lat="47.24084" lon="6.03214">
        <ele>260.8</ele>
        <time>2021-04-10T13:11:45Z</time>
      </trkpt>
      <trkpt lat="47.24085" lon="6.0321">
        <ele>260.8</ele>
        <time>2021-04-10T13:11:46Z</time>
      </trkpt>
      <trkpt lat="47.24092" lon="6.03199">
        <ele>261</ele>
        <time>2021-04-10T13:11:49Z</time>
      </trkpt>
      <trkpt lat="47.241" lon="6.03188">
        <ele>261.2</ele>
        <time>2021-04-10T13:11:52Z</time>
      </trkpt>
      <trkpt lat="47.2411" lon="6.03172">
        <ele>261.2</ele>
        <time>2021-04-10T13:11:56Z</time>
      </trkpt>
      <trkpt lat="47.24116" lon="6.03161">
        <ele>261.2</ele>
        <time>2021-04-10T13:11:59Z</time>
      </trkpt>
      <trkpt lat="47.24118" lon="6.03158">
        <ele>261.2</ele>
        <time>2021-04-10T13:12:00Z</time>
      </trkpt>
      <trkpt lat="47.24121" lon="6.03153">
        <ele>261.4</ele>
        <time>2021-04-10T13:12:01Z</time>
      </trkpt>
      <trkpt lat="47.24123" lon="6.03147">
        <ele>261.4</ele>
        <time>2021-04-10T13:12:02Z</time>
      </trkpt>
      <trkpt lat="47.24125" lon="6.03143">
        <ele>261.4</ele>
        <time>2021-04-10T13:12:03Z</time>
      </trkpt>
      <trkpt lat="47.24127" lon="6.0314">
        <ele>261.4</ele>
        <time>2021-04-10T13:12:04Z</time>
      </trkpt>
      <trkpt lat="47.24129" lon="6.03137">
        <ele>261.4</ele>
        <time>2021-04-10T13:12:05Z</time>
      </trkpt>
      <trkpt lat="47.24131" lon="6.03134">
        <ele>261.4</ele>
        <time>2021-04-10T13:12:06Z</time>
      </trkpt>
      <trkpt lat="47.24133" lon="6.03132">
        <ele>261.4</ele>
        <time>2021-04-10T13:12:07Z</time>
      </trkpt>
      <trkpt lat="47.24136" lon="6.03129">
        <ele>261.4</ele>
        <time>2021-04-10T13:12:08Z</time>
      </trkpt>
      <trkpt lat="47.24138" lon="6.03126">
        <ele>261.4</ele>
        <time>2021-04-10T13:12:09Z</time>
      </trkpt>
      <trkpt lat="47.24142" lon="6.03119">
        <ele>261.4</ele>
        <time>2021-04-10T13:12:11Z</time>
      </trkpt>
      <trkpt lat="47.24144" lon="6.03116">
        <ele>261.4</ele>
        <time>2021-04-10T13:12:12Z</time>
      </trkpt>
      <trkpt lat="47.24159" lon="6.03103">
        <ele>261.6</ele>
        <time>2021-04-10T13:12:17Z</time>
      </trkpt>
      <trkpt lat="47.24171" lon="6.03082">
        <ele>261.4</ele>
        <time>2021-04-10T13:12:22Z</time>
      </trkpt>
      <trkpt lat="47.24173" lon="6.03079">
        <ele>261.4</ele>
        <time>2021-04-10T13:12:23Z</time>
      </trkpt>
      <trkpt lat="47.24174" lon="6.03076">
        <ele>261.4</ele>
        <time>2021-04-10T13:12:24Z</time>
      </trkpt>
      <trkpt lat="47.24175" lon="6.03073">
        <ele>261.4</ele>
        <time>2021-04-10T13:12:25Z</time>
      </trkpt>
      <trkpt lat="47.24177" lon="6.03071">
        <ele>261.4</ele>
        <time>2021-04-10T13:12:26Z</time>
      </trkpt>
      <trkpt lat="47.24178" lon="6.03069">
        <ele>261.4</ele>
        <time>2021-04-10T13:12:27Z</time>
      </trkpt>
      <trkpt lat="47.24184" lon="6.03047">
        <ele>261.4</ele>
        <time>2021-04-10T13:12:31Z</time>
      </trkpt>
      <trkpt lat="47.24192" lon="6.03025">
        <ele>261.4</ele>
        <time>2021-04-10T13:12:35Z</time>
      </trkpt>
      <trkpt lat="47.24193" lon="6.03021">
        <ele>261.4</ele>
        <time>2021-04-10T13:12:36Z</time>
      </trkpt>
      <trkpt lat="47.24195" lon="6.03016">
        <ele>261.4</ele>
        <time>2021-04-10T13:12:37Z</time>
      </trkpt>
      <trkpt lat="47.24201" lon="6.02998">
        <ele>261.4</ele>
        <time>2021-04-10T13:12:42Z</time>
      </trkpt>
      <trkpt lat="47.24203" lon="6.02998">
        <ele>261.6</ele>
        <time>2021-04-10T13:12:43Z</time>
      </trkpt>
      <trkpt lat="47.24206" lon="6.02998">
        <ele>261.8</ele>
        <time>2021-04-10T13:12:44Z</time>
      </trkpt>
      <trkpt lat="47.24207" lon="6.02995">
        <ele>261.8</ele>
        <time>2021-04-10T13:12:45Z</time>
      </trkpt>
      <trkpt lat="47.24208" lon="6.02992">
        <ele>262</ele>
        <time>2021-04-10T13:12:46Z</time>
      </trkpt>
      <trkpt lat="47.2421" lon="6.02989">
        <ele>262.2</ele>
        <time>2021-04-10T13:12:47Z</time>
      </trkpt>
      <trkpt lat="47.24211" lon="6.02988">
        <ele>262.4</ele>
        <time>2021-04-10T13:12:48Z</time>
      </trkpt>
      <trkpt lat="47.24213" lon="6.02988">
        <ele>262.4</ele>
        <time>2021-04-10T13:12:49Z</time>
      </trkpt>
      <trkpt lat="47.24214" lon="6.02986">
        <ele>262.6</ele>
        <time>2021-04-10T13:12:50Z</time>
      </trkpt>
      <trkpt lat="47.24218" lon="6.02982">
        <ele>263</ele>
        <time>2021-04-10T13:12:51Z</time>
      </trkpt>
      <trkpt lat="47.24222" lon="6.02978">
        <ele>263.2</ele>
        <time>2021-04-10T13:12:52Z</time>
      </trkpt>
      <trkpt lat="47.24226" lon="6.02975">
        <ele>263.4</ele>
        <time>2021-04-10T13:12:53Z</time>
      </trkpt>
      <trkpt lat="47.24228" lon="6.02973">
        <ele>263.4</ele>
        <time>2021-04-10T13:12:54Z</time>
      </trkpt>
      <trkpt lat="47.24229" lon="6.02971">
        <ele>263.6</ele>
        <time>2021-04-10T13:12:55Z</time>
      </trkpt>
      <trkpt lat="47.24231" lon="6.0297">
        <ele>263.8</ele>
        <time>2021-04-10T13:12:56Z</time>
      </trkpt>
      <trkpt lat="47.24233" lon="6.0296">
        <ele>264.4</ele>
        <time>2021-04-10T13:13:00Z</time>
      </trkpt>
      <trkpt lat="47.24236" lon="6.02959">
        <ele>264.4</ele>
        <time>2021-04-10T13:13:01Z</time>
      </trkpt>
      <trkpt lat="47.24236" lon="6.02957">
        <ele>264.6</ele>
        <time>2021-04-10T13:13:02Z</time>
      </trkpt>
      <trkpt lat="47.24238" lon="6.02956">
        <ele>264.8</ele>
        <time>2021-04-10T13:13:03Z</time>
      </trkpt>
      <trkpt lat="47.24239" lon="6.02957">
        <ele>264.8</ele>
        <time>2021-04-10T13:13:04Z</time>
      </trkpt>
      <trkpt lat="47.2424" lon="6.02957">
        <ele>264.8</ele>
        <time>2021-04-10T13:13:05Z</time>
      </trkpt>
      <trkpt lat="47.24241" lon="6.02957">
        <ele>265</ele>
        <time>2021-04-10T13:13:06Z</time>
      </trkpt>
      <trkpt lat="47.24242" lon="6.02957">
        <ele>265</ele>
        <time>2021-04-10T13:13:07Z</time>
      </trkpt>
      <trkpt lat="47.24243" lon="6.02957">
        <ele>265</ele>
        <time>2021-04-10T13:13:08Z</time>
      </trkpt>
      <trkpt lat="47.24243" lon="6.02957">
        <ele>265</ele>
        <time>2021-04-10T13:13:13Z</time>
      </trkpt>
      <trkpt lat="47.24245" lon="6.02956">
        <ele>265.2</ele>
        <time>2021-04-10T13:13:28Z</time>
      </trkpt>
      <trkpt lat="47.24247" lon="6.02954">
        <ele>265.2</ele>
        <time>2021-04-10T13:13:29Z</time>
      </trkpt>
      <trkpt lat="47.24249" lon="6.02951">
        <ele>265.2</ele>
        <time>2021-04-10T13:13:30Z</time>
      </trkpt>
      <trkpt lat="47.24251" lon="6.02948">
        <ele>265</ele>
        <time>2021-04-10T13:13:31Z</time>
      </trkpt>
      <trkpt lat="47.24252" lon="6.02945">
        <ele>264.8</ele>
        <time>2021-04-10T13:13:32Z</time>
      </trkpt>
      <trkpt lat="47.24253" lon="6.02942">
        <ele>264.8</ele>
        <time>2021-04-10T13:13:33Z</time>
      </trkpt>
      <trkpt lat="47.24261" lon="6.0293">
        <ele>264.4</ele>
        <time>2021-04-10T13:13:37Z</time>
      </trkpt>
      <trkpt lat="47.24262" lon="6.02926">
        <ele>264.4</ele>
        <time>2021-04-10T13:13:38Z</time>
      </trkpt>
      <trkpt lat="47.24263" lon="6.02922">
        <ele>264.4</ele>
        <time>2021-04-10T13:13:39Z</time>
      </trkpt>
      <trkpt lat="47.24265" lon="6.02913">
        <ele>264.4</ele>
        <time>2021-04-10T13:13:41Z</time>
      </trkpt>
      <trkpt lat="47.24269" lon="6.02899">
        <ele>264</ele>
        <time>2021-04-10T13:13:45Z</time>
      </trkpt>
      <trkpt lat="47.2427" lon="6.02896">
        <ele>264</ele>
        <time>2021-04-10T13:13:46Z</time>
      </trkpt>
      <trkpt lat="47.24271" lon="6.02895">
        <ele>263.8</ele>
        <time>2021-04-10T13:13:47Z</time>
      </trkpt>
      <trkpt lat="47.24273" lon="6.02894">
        <ele>263.8</ele>
        <time>2021-04-10T13:13:48Z</time>
      </trkpt>
      <trkpt lat="47.24274" lon="6.02892">
        <ele>263.8</ele>
        <time>2021-04-10T13:13:49Z</time>
      </trkpt>
      <trkpt lat="47.24276" lon="6.02887">
        <ele>263.8</ele>
        <time>2021-04-10T13:13:51Z</time>
      </trkpt>
      <trkpt lat="47.24277" lon="6.02883">
        <ele>263.8</ele>
        <time>2021-04-10T13:13:52Z</time>
      </trkpt>
      <trkpt lat="47.24278" lon="6.02879">
        <ele>263.8</ele>
        <time>2021-04-10T13:13:53Z</time>
      </trkpt>
      <trkpt lat="47.24284" lon="6.02871">
        <ele>263.8</ele>
        <time>2021-04-10T13:13:55Z</time>
      </trkpt>
      <trkpt lat="47.24286" lon="6.02867">
        <ele>263.8</ele>
        <time>2021-04-10T13:13:56Z</time>
      </trkpt>
      <trkpt lat="47.24289" lon="6.02863">
        <ele>263.8</ele>
        <time>2021-04-10T13:13:57Z</time>
      </trkpt>
      <trkpt lat="47.24301" lon="6.02844">
        <ele>264</ele>
        <time>2021-04-10T13:14:01Z</time>
      </trkpt>
      <trkpt lat="47.24324" lon="6.02812">
        <ele>264.2</ele>
        <time>2021-04-10T13:14:08Z</time>
      </trkpt>
      <trkpt lat="47.24337" lon="6.02795">
        <ele>264.6</ele>
        <time>2021-04-10T13:14:12Z</time>
      </trkpt>
      <trkpt lat="47.2434" lon="6.02791">
        <ele>264.6</ele>
        <time>2021-04-10T13:14:13Z</time>
      </trkpt>
      <trkpt lat="47.24346" lon="6.02784">
        <ele>264.8</ele>
        <time>2021-04-10T13:14:15Z</time>
      </trkpt>
      <trkpt lat="47.24348" lon="6.02781">
        <ele>264.8</ele>
        <time>2021-04-10T13:14:16Z</time>
      </trkpt>
      <trkpt lat="47.24351" lon="6.02778">
        <ele>264.8</ele>
        <time>2021-04-10T13:14:17Z</time>
      </trkpt>
      <trkpt lat="47.24353" lon="6.02774">
        <ele>264.8</ele>
        <time>2021-04-10T13:14:18Z</time>
      </trkpt>
      <trkpt lat="47.24356" lon="6.0277">
        <ele>265</ele>
        <time>2021-04-10T13:14:19Z</time>
      </trkpt>
      <trkpt lat="47.24358" lon="6.02767">
        <ele>265</ele>
        <time>2021-04-10T13:14:20Z</time>
      </trkpt>
      <trkpt lat="47.24361" lon="6.02764">
        <ele>265</ele>
        <time>2021-04-10T13:14:21Z</time>
      </trkpt>
      <trkpt lat="47.24363" lon="6.02761">
        <ele>265.4</ele>
        <time>2021-04-10T13:14:22Z</time>
      </trkpt>
      <trkpt lat="47.24365" lon="6.02758">
        <ele>265.4</ele>
        <time>2021-04-10T13:14:23Z</time>
      </trkpt>
      <trkpt lat="47.24367" lon="6.02755">
        <ele>265.6</ele>
        <time>2021-04-10T13:14:24Z</time>
      </trkpt>
      <trkpt lat="47.24369" lon="6.02752">
        <ele>265.6</ele>
        <time>2021-04-10T13:14:25Z</time>
      </trkpt>
      <trkpt lat="47.24371" lon="6.0275">
        <ele>265.8</ele>
        <time>2021-04-10T13:14:26Z</time>
      </trkpt>
      <trkpt lat="47.24372" lon="6.02749">
        <ele>265.8</ele>
        <time>2021-04-10T13:14:27Z</time>
      </trkpt>
      <trkpt lat="47.24373" lon="6.02747">
        <ele>266</ele>
        <time>2021-04-10T13:14:28Z</time>
      </trkpt>
      <trkpt lat="47.24375" lon="6.02745">
        <ele>266.2</ele>
        <time>2021-04-10T13:14:29Z</time>
      </trkpt>
      <trkpt lat="47.24383" lon="6.02735">
        <ele>266.6</ele>
        <time>2021-04-10T13:14:33Z</time>
      </trkpt>
      <trkpt lat="47.24387" lon="6.0273">
        <ele>267</ele>
        <time>2021-04-10T13:14:35Z</time>
      </trkpt>
      <trkpt lat="47.24389" lon="6.02727">
        <ele>267</ele>
        <time>2021-04-10T13:14:36Z</time>
      </trkpt>
      <trkpt lat="47.24399" lon="6.02717">
        <ele>267.4</ele>
        <time>2021-04-10T13:14:41Z</time>
      </trkpt>
      <trkpt lat="47.244" lon="6.02715">
        <ele>267.6</ele>
        <time>2021-04-10T13:14:42Z</time>
      </trkpt>
      <trkpt lat="47.24402" lon="6.02713">
        <ele>267.6</ele>
        <time>2021-04-10T13:14:43Z</time>
      </trkpt>
      <trkpt lat="47.24403" lon="6.02711">
        <ele>267.6</ele>
        <time>2021-04-10T13:14:44Z</time>
      </trkpt>
      <trkpt lat="47.24404" lon="6.02709">
        <ele>267.6</ele>
        <time>2021-04-10T13:14:45Z</time>
      </trkpt>
      <trkpt lat="47.24405" lon="6.02708">
        <ele>267.8</ele>
        <time>2021-04-10T13:14:46Z</time>
      </trkpt>
      <trkpt lat="47.24407" lon="6.02707">
        <ele>267.8</ele>
        <time>2021-04-10T13:14:47Z</time>
      </trkpt>
      <trkpt lat="47.24418" lon="6.02696">
        <ele>268.2</ele>
        <time>2021-04-10T13:14:53Z</time>
      </trkpt>
      <trkpt lat="47.24422" lon="6.02691">
        <ele>268.6</ele>
        <time>2021-04-10T13:14:55Z</time>
      </trkpt>
      <trkpt lat="47.24424" lon="6.02688">
        <ele>268.8</ele>
        <time>2021-04-10T13:14:56Z</time>
      </trkpt>
      <trkpt lat="47.24426" lon="6.02686">
        <ele>269</ele>
        <time>2021-04-10T13:14:57Z</time>
      </trkpt>
      <trkpt lat="47.24428" lon="6.02685">
        <ele>269</ele>
        <time>2021-04-10T13:14:58Z</time>
      </trkpt>
      <trkpt lat="47.2443" lon="6.02683">
        <ele>269.2</ele>
        <time>2021-04-10T13:14:59Z</time>
      </trkpt>
      <trkpt lat="47.24436" lon="6.02677">
        <ele>269.8</ele>
        <time>2021-04-10T13:15:02Z</time>
      </trkpt>
      <trkpt lat="47.24439" lon="6.02676">
        <ele>269.8</ele>
        <time>2021-04-10T13:15:03Z</time>
      </trkpt>
      <trkpt lat="47.24441" lon="6.02674">
        <ele>270</ele>
        <time>2021-04-10T13:15:04Z</time>
      </trkpt>
      <trkpt lat="47.24443" lon="6.02672">
        <ele>270.2</ele>
        <time>2021-04-10T13:15:05Z</time>
      </trkpt>
      <trkpt lat="47.24445" lon="6.02671">
        <ele>270.4</ele>
        <time>2021-04-10T13:15:06Z</time>
      </trkpt>
      <trkpt lat="47.24447" lon="6.0267">
        <ele>270.4</ele>
        <time>2021-04-10T13:15:07Z</time>
      </trkpt>
      <trkpt lat="47.24449" lon="6.02668">
        <ele>270.4</ele>
        <time>2021-04-10T13:15:08Z</time>
      </trkpt>
      <trkpt lat="47.24451" lon="6.02667">
        <ele>270.6</ele>
        <time>2021-04-10T13:15:09Z</time>
      </trkpt>
      <trkpt lat="47.24454" lon="6.02665">
        <ele>270.8</ele>
        <time>2021-04-10T13:15:10Z</time>
      </trkpt>
      <trkpt lat="47.24456" lon="6.02663">
        <ele>271</ele>
        <time>2021-04-10T13:15:11Z</time>
      </trkpt>
      <trkpt lat="47.24458" lon="6.0266">
        <ele>271</ele>
        <time>2021-04-10T13:15:12Z</time>
      </trkpt>
      <trkpt lat="47.2446" lon="6.02657">
        <ele>271.2</ele>
        <time>2021-04-10T13:15:13Z</time>
      </trkpt>
      <trkpt lat="47.24463" lon="6.02654">
        <ele>271.2</ele>
        <time>2021-04-10T13:15:14Z</time>
      </trkpt>
      <trkpt lat="47.24465" lon="6.02652">
        <ele>271.2</ele>
        <time>2021-04-10T13:15:15Z</time>
      </trkpt>
      <trkpt lat="47.24467" lon="6.02651">
        <ele>271.4</ele>
        <time>2021-04-10T13:15:16Z</time>
      </trkpt>
      <trkpt lat="47.24469" lon="6.0265">
        <ele>271.4</ele>
        <time>2021-04-10T13:15:17Z</time>
      </trkpt>
      <trkpt lat="47.24472" lon="6.02648">
        <ele>271.4</ele>
        <time>2021-04-10T13:15:18Z</time>
      </trkpt>
      <trkpt lat="47.24475" lon="6.02645">
        <ele>271.6</ele>
        <time>2021-04-10T13:15:19Z</time>
      </trkpt>
      <trkpt lat="47.24477" lon="6.02644">
        <ele>271.6</ele>
        <time>2021-04-10T13:15:20Z</time>
      </trkpt>
      <trkpt lat="47.24481" lon="6.02642">
        <ele>271.6</ele>
        <time>2021-04-10T13:15:21Z</time>
      </trkpt>
      <trkpt lat="47.24483" lon="6.02642">
        <ele>271.6</ele>
        <time>2021-04-10T13:15:22Z</time>
      </trkpt>
      <trkpt lat="47.24485" lon="6.02642">
        <ele>272</ele>
        <time>2021-04-10T13:15:23Z</time>
      </trkpt>
      <trkpt lat="47.24487" lon="6.02641">
        <ele>272.2</ele>
        <time>2021-04-10T13:15:24Z</time>
      </trkpt>
      <trkpt lat="47.24489" lon="6.02643">
        <ele>272.4</ele>
        <time>2021-04-10T13:15:25Z</time>
      </trkpt>
      <trkpt lat="47.2449" lon="6.02645">
        <ele>272.4</ele>
        <time>2021-04-10T13:15:26Z</time>
      </trkpt>
      <trkpt lat="47.24492" lon="6.02647">
        <ele>272.6</ele>
        <time>2021-04-10T13:15:27Z</time>
      </trkpt>
      <trkpt lat="47.24493" lon="6.02649">
        <ele>272.8</ele>
        <time>2021-04-10T13:15:28Z</time>
      </trkpt>
      <trkpt lat="47.24494" lon="6.02651">
        <ele>272.8</ele>
        <time>2021-04-10T13:15:29Z</time>
      </trkpt>
      <trkpt lat="47.24496" lon="6.02655">
        <ele>273</ele>
        <time>2021-04-10T13:15:30Z</time>
      </trkpt>
      <trkpt lat="47.24498" lon="6.02658">
        <ele>273</ele>
        <time>2021-04-10T13:15:31Z</time>
      </trkpt>
      <trkpt lat="47.24499" lon="6.02661">
        <ele>273.2</ele>
        <time>2021-04-10T13:15:32Z</time>
      </trkpt>
      <trkpt lat="47.245" lon="6.02664">
        <ele>273.4</ele>
        <time>2021-04-10T13:15:33Z</time>
      </trkpt>
      <trkpt lat="47.24501" lon="6.02667">
        <ele>273.4</ele>
        <time>2021-04-10T13:15:34Z</time>
      </trkpt>
      <trkpt lat="47.24503" lon="6.0267">
        <ele>273.6</ele>
        <time>2021-04-10T13:15:35Z</time>
      </trkpt>
      <trkpt lat="47.24504" lon="6.02673">
        <ele>273.8</ele>
        <time>2021-04-10T13:15:36Z</time>
      </trkpt>
      <trkpt lat="47.24506" lon="6.02676">
        <ele>273.8</ele>
        <time>2021-04-10T13:15:37Z</time>
      </trkpt>
      <trkpt lat="47.24508" lon="6.02679">
        <ele>274</ele>
        <time>2021-04-10T13:15:38Z</time>
      </trkpt>
      <trkpt lat="47.24509" lon="6.02681">
        <ele>274.2</ele>
        <time>2021-04-10T13:15:39Z</time>
      </trkpt>
      <trkpt lat="47.2451" lon="6.02683">
        <ele>274.4</ele>
        <time>2021-04-10T13:15:40Z</time>
      </trkpt>
      <trkpt lat="47.24511" lon="6.02684">
        <ele>274.4</ele>
        <time>2021-04-10T13:15:41Z</time>
      </trkpt>
      <trkpt lat="47.24512" lon="6.02686">
        <ele>274.4</ele>
        <time>2021-04-10T13:15:42Z</time>
      </trkpt>
      <trkpt lat="47.24514" lon="6.02689">
        <ele>274.8</ele>
        <time>2021-04-10T13:15:43Z</time>
      </trkpt>
      <trkpt lat="47.24516" lon="6.02692">
        <ele>274.8</ele>
        <time>2021-04-10T13:15:44Z</time>
      </trkpt>
      <trkpt lat="47.24517" lon="6.02694">
        <ele>274.8</ele>
        <time>2021-04-10T13:15:45Z</time>
      </trkpt>
      <trkpt lat="47.24519" lon="6.02696">
        <ele>274.8</ele>
        <time>2021-04-10T13:15:46Z</time>
      </trkpt>
      <trkpt lat="47.2452" lon="6.027">
        <ele>274.8</ele>
        <time>2021-04-10T13:15:47Z</time>
      </trkpt>
      <trkpt lat="47.24522" lon="6.02702">
        <ele>275</ele>
        <time>2021-04-10T13:15:48Z</time>
      </trkpt>
      <trkpt lat="47.24523" lon="6.02705">
        <ele>275</ele>
        <time>2021-04-10T13:15:49Z</time>
      </trkpt>
      <trkpt lat="47.24524" lon="6.02707">
        <ele>275</ele>
        <time>2021-04-10T13:15:50Z</time>
      </trkpt>
      <trkpt lat="47.24525" lon="6.02711">
        <ele>275</ele>
        <time>2021-04-10T13:15:51Z</time>
      </trkpt>
      <trkpt lat="47.24526" lon="6.02713">
        <ele>275.2</ele>
        <time>2021-04-10T13:15:52Z</time>
      </trkpt>
      <trkpt lat="47.24528" lon="6.02716">
        <ele>275.2</ele>
        <time>2021-04-10T13:15:53Z</time>
      </trkpt>
      <trkpt lat="47.24529" lon="6.0272">
        <ele>275.4</ele>
        <time>2021-04-10T13:15:54Z</time>
      </trkpt>
      <trkpt lat="47.24531" lon="6.02722">
        <ele>275.4</ele>
        <time>2021-04-10T13:15:55Z</time>
      </trkpt>
      <trkpt lat="47.24532" lon="6.02725">
        <ele>275.4</ele>
        <time>2021-04-10T13:15:56Z</time>
      </trkpt>
      <trkpt lat="47.24533" lon="6.02728">
        <ele>275.8</ele>
        <time>2021-04-10T13:15:57Z</time>
      </trkpt>
      <trkpt lat="47.24535" lon="6.02731">
        <ele>275.8</ele>
        <time>2021-04-10T13:15:58Z</time>
      </trkpt>
      <trkpt lat="47.24536" lon="6.02733">
        <ele>275.8</ele>
        <time>2021-04-10T13:15:59Z</time>
      </trkpt>
      <trkpt lat="47.24537" lon="6.02735">
        <ele>275.8</ele>
        <time>2021-04-10T13:16:00Z</time>
      </trkpt>
      <trkpt lat="47.24538" lon="6.02737">
        <ele>275.8</ele>
        <time>2021-04-10T13:16:01Z</time>
      </trkpt>
      <trkpt lat="47.2454" lon="6.02741">
        <ele>276.4</ele>
        <time>2021-04-10T13:16:03Z</time>
      </trkpt>
      <trkpt lat="47.24543" lon="6.02746">
        <ele>277</ele>
        <time>2021-04-10T13:16:06Z</time>
      </trkpt>
      <trkpt lat="47.24543" lon="6.02746">
        <ele>277</ele>
        <time>2021-04-10T13:16:07Z</time>
      </trkpt>
      <trkpt lat="47.24544" lon="6.02747">
        <ele>277</ele>
        <time>2021-04-10T13:16:08Z</time>
      </trkpt>
      <trkpt lat="47.24546" lon="6.02747">
        <ele>277.2</ele>
        <time>2021-04-10T13:16:09Z</time>
      </trkpt>
      <trkpt lat="47.24547" lon="6.02747">
        <ele>277.2</ele>
        <time>2021-04-10T13:16:10Z</time>
      </trkpt>
      <trkpt lat="47.24549" lon="6.02746">
        <ele>277.4</ele>
        <time>2021-04-10T13:16:11Z</time>
      </trkpt>
      <trkpt lat="47.24551" lon="6.02745">
        <ele>277.4</ele>
        <time>2021-04-10T13:16:12Z</time>
      </trkpt>
      <trkpt lat="47.24552" lon="6.02743">
        <ele>277.4</ele>
        <time>2021-04-10T13:16:13Z</time>
      </trkpt>
      <trkpt lat="47.24553" lon="6.0274">
        <ele>277.4</ele>
        <time>2021-04-10T13:16:14Z</time>
      </trkpt>
      <trkpt lat="47.24555" lon="6.02737">
        <ele>277.4</ele>
        <time>2021-04-10T13:16:15Z</time>
      </trkpt>
      <trkpt lat="47.24555" lon="6.02732">
        <ele>277.4</ele>
        <time>2021-04-10T13:16:16Z</time>
      </trkpt>
      <trkpt lat="47.24556" lon="6.02728">
        <ele>277.4</ele>
        <time>2021-04-10T13:16:17Z</time>
      </trkpt>
      <trkpt lat="47.24556" lon="6.02725">
        <ele>277.4</ele>
        <time>2021-04-10T13:16:18Z</time>
      </trkpt>
      <trkpt lat="47.24558" lon="6.0272">
        <ele>277.6</ele>
        <time>2021-04-10T13:16:20Z</time>
      </trkpt>
      <trkpt lat="47.2456" lon="6.02718">
        <ele>277.6</ele>
        <time>2021-04-10T13:16:21Z</time>
      </trkpt>
      <trkpt lat="47.24561" lon="6.02716">
        <ele>277.6</ele>
        <time>2021-04-10T13:16:22Z</time>
      </trkpt>
      <trkpt lat="47.24562" lon="6.02713">
        <ele>277.6</ele>
        <time>2021-04-10T13:16:23Z</time>
      </trkpt>
      <trkpt lat="47.24564" lon="6.02708">
        <ele>277.6</ele>
        <time>2021-04-10T13:16:25Z</time>
      </trkpt>
      <trkpt lat="47.24566" lon="6.02706">
        <ele>277.8</ele>
        <time>2021-04-10T13:16:26Z</time>
      </trkpt>
      <trkpt lat="47.24567" lon="6.02704">
        <ele>277.8</ele>
        <time>2021-04-10T13:16:27Z</time>
      </trkpt>
      <trkpt lat="47.24569" lon="6.02702">
        <ele>277.8</ele>
        <time>2021-04-10T13:16:28Z</time>
      </trkpt>
      <trkpt lat="47.2457" lon="6.027">
        <ele>278</ele>
        <time>2021-04-10T13:16:29Z</time>
      </trkpt>
      <trkpt lat="47.24571" lon="6.02698">
        <ele>278</ele>
        <time>2021-04-10T13:16:30Z</time>
      </trkpt>
      <trkpt lat="47.24573" lon="6.02695">
        <ele>278.2</ele>
        <time>2021-04-10T13:16:31Z</time>
      </trkpt>
      <trkpt lat="47.24575" lon="6.02693">
        <ele>278.2</ele>
        <time>2021-04-10T13:16:32Z</time>
      </trkpt>
      <trkpt lat="47.24576" lon="6.0269">
        <ele>278.2</ele>
        <time>2021-04-10T13:16:33Z</time>
      </trkpt>
      <trkpt lat="47.24578" lon="6.02687">
        <ele>278.2</ele>
        <time>2021-04-10T13:16:34Z</time>
      </trkpt>
      <trkpt lat="47.24579" lon="6.02683">
        <ele>278.2</ele>
        <time>2021-04-10T13:16:35Z</time>
      </trkpt>
      <trkpt lat="47.2459" lon="6.02664">
        <ele>278.6</ele>
        <time>2021-04-10T13:16:42Z</time>
      </trkpt>
      <trkpt lat="47.24593" lon="6.02664">
        <ele>278.8</ele>
        <time>2021-04-10T13:16:43Z</time>
      </trkpt>
      <trkpt lat="47.24595" lon="6.02663">
        <ele>278.8</ele>
        <time>2021-04-10T13:16:44Z</time>
      </trkpt>
      <trkpt lat="47.24598" lon="6.02662">
        <ele>279</ele>
        <time>2021-04-10T13:16:45Z</time>
      </trkpt>
      <trkpt lat="47.24603" lon="6.02658">
        <ele>279</ele>
        <time>2021-04-10T13:16:47Z</time>
      </trkpt>
      <trkpt lat="47.24605" lon="6.02656">
        <ele>279</ele>
        <time>2021-04-10T13:16:48Z</time>
      </trkpt>
      <trkpt lat="47.24613" lon="6.02642">
        <ele>279.4</ele>
        <time>2021-04-10T13:16:53Z</time>
      </trkpt>
      <trkpt lat="47.24619" lon="6.02629">
        <ele>280.2</ele>
        <time>2021-04-10T13:16:57Z</time>
      </trkpt>
      <trkpt lat="47.24621" lon="6.02626">
        <ele>281</ele>
        <time>2021-04-10T13:16:58Z</time>
      </trkpt>
      <trkpt lat="47.24622" lon="6.0262">
        <ele>281.6</ele>
        <time>2021-04-10T13:17:00Z</time>
      </trkpt>
      <trkpt lat="47.24624" lon="6.02617">
        <ele>281.8</ele>
        <time>2021-04-10T13:17:01Z</time>
      </trkpt>
      <trkpt lat="47.24625" lon="6.02614">
        <ele>282</ele>
        <time>2021-04-10T13:17:02Z</time>
      </trkpt>
      <trkpt lat="47.24626" lon="6.02611">
        <ele>282.2</ele>
        <time>2021-04-10T13:17:03Z</time>
      </trkpt>
      <trkpt lat="47.24627" lon="6.02609">
        <ele>282.4</ele>
        <time>2021-04-10T13:17:04Z</time>
      </trkpt>
      <trkpt lat="47.24628" lon="6.02606">
        <ele>282.4</ele>
        <time>2021-04-10T13:17:05Z</time>
      </trkpt>
      <trkpt lat="47.2463" lon="6.02603">
        <ele>282.4</ele>
        <time>2021-04-10T13:17:06Z</time>
      </trkpt>
      <trkpt lat="47.24631" lon="6.026">
        <ele>282.6</ele>
        <time>2021-04-10T13:17:07Z</time>
      </trkpt>
      <trkpt lat="47.24632" lon="6.02598">
        <ele>282.6</ele>
        <time>2021-04-10T13:17:08Z</time>
      </trkpt>
      <trkpt lat="47.24633" lon="6.02595">
        <ele>282.8</ele>
        <time>2021-04-10T13:17:09Z</time>
      </trkpt>
      <trkpt lat="47.24635" lon="6.02593">
        <ele>282.8</ele>
        <time>2021-04-10T13:17:10Z</time>
      </trkpt>
      <trkpt lat="47.24636" lon="6.02592">
        <ele>282.8</ele>
        <time>2021-04-10T13:17:11Z</time>
      </trkpt>
      <trkpt lat="47.24638" lon="6.0259">
        <ele>283</ele>
        <time>2021-04-10T13:17:12Z</time>
      </trkpt>
      <trkpt lat="47.24638" lon="6.02588">
        <ele>283</ele>
        <time>2021-04-10T13:17:13Z</time>
      </trkpt>
      <trkpt lat="47.24639" lon="6.02587">
        <ele>283</ele>
        <time>2021-04-10T13:17:14Z</time>
      </trkpt>
      <trkpt lat="47.2464" lon="6.02586">
        <ele>283</ele>
        <time>2021-04-10T13:17:15Z</time>
      </trkpt>
      <trkpt lat="47.2464" lon="6.02585">
        <ele>283</ele>
        <time>2021-04-10T13:17:16Z</time>
      </trkpt>
      <trkpt lat="47.2464" lon="6.02585">
        <ele>283.2</ele>
        <time>2021-04-10T13:17:17Z</time>
      </trkpt>
      <trkpt lat="47.2464" lon="6.02585">
        <ele>283.4</ele>
        <time>2021-04-10T13:17:21Z</time>
      </trkpt>
      <trkpt lat="47.2464" lon="6.02585">
        <ele>283.6</ele>
        <time>2021-04-10T13:17:33Z</time>
      </trkpt>
      <trkpt lat="47.24641" lon="6.02577">
        <ele>283.6</ele>
        <time>2021-04-10T13:17:35Z</time>
      </trkpt>
      <trkpt lat="47.24641" lon="6.02573">
        <ele>283.6</ele>
        <time>2021-04-10T13:17:36Z</time>
      </trkpt>
      <trkpt lat="47.24645" lon="6.02567">
        <ele>283.8</ele>
        <time>2021-04-10T13:17:38Z</time>
      </trkpt>
      <trkpt lat="47.24647" lon="6.02563">
        <ele>283.8</ele>
        <time>2021-04-10T13:17:39Z</time>
      </trkpt>
      <trkpt lat="47.24649" lon="6.0256">
        <ele>283.8</ele>
        <time>2021-04-10T13:17:40Z</time>
      </trkpt>
      <trkpt lat="47.24653" lon="6.02556">
        <ele>284</ele>
        <time>2021-04-10T13:17:42Z</time>
      </trkpt>
      <trkpt lat="47.24658" lon="6.0255">
        <ele>284.4</ele>
        <time>2021-04-10T13:17:45Z</time>
      </trkpt>
      <trkpt lat="47.24665" lon="6.02541">
        <ele>285.2</ele>
        <time>2021-04-10T13:17:49Z</time>
      </trkpt>
      <trkpt lat="47.24667" lon="6.02539">
        <ele>285.4</ele>
        <time>2021-04-10T13:17:50Z</time>
      </trkpt>
      <trkpt lat="47.24668" lon="6.02537">
        <ele>285.6</ele>
        <time>2021-04-10T13:17:51Z</time>
      </trkpt>
      <trkpt lat="47.24669" lon="6.02535">
        <ele>285.8</ele>
        <time>2021-04-10T13:17:52Z</time>
      </trkpt>
      <trkpt lat="47.24671" lon="6.02533">
        <ele>286</ele>
        <time>2021-04-10T13:17:53Z</time>
      </trkpt>
      <trkpt lat="47.24672" lon="6.02531">
        <ele>286.2</ele>
        <time>2021-04-10T13:17:54Z</time>
      </trkpt>
      <trkpt lat="47.24676" lon="6.02526">
        <ele>286.8</ele>
        <time>2021-04-10T13:17:56Z</time>
      </trkpt>
      <trkpt lat="47.24678" lon="6.02525">
        <ele>287</ele>
        <time>2021-04-10T13:17:57Z</time>
      </trkpt>
      <trkpt lat="47.24679" lon="6.02524">
        <ele>287.4</ele>
        <time>2021-04-10T13:17:58Z</time>
      </trkpt>
      <trkpt lat="47.2468" lon="6.02522">
        <ele>287.6</ele>
        <time>2021-04-10T13:17:59Z</time>
      </trkpt>
      <trkpt lat="47.24681" lon="6.02521">
        <ele>287.8</ele>
        <time>2021-04-10T13:18:00Z</time>
      </trkpt>
      <trkpt lat="47.24681" lon="6.02521">
        <ele>287.8</ele>
        <time>2021-04-10T13:18:01Z</time>
      </trkpt>
      <trkpt lat="47.24681" lon="6.02521">
        <ele>288.2</ele>
        <time>2021-04-10T13:18:05Z</time>
      </trkpt>
      <trkpt lat="47.24681" lon="6.02521">
        <ele>288.4</ele>
        <time>2021-04-10T13:18:06Z</time>
      </trkpt>
      <trkpt lat="47.24681" lon="6.02521">
        <ele>288.6</ele>
        <time>2021-04-10T13:18:11Z</time>
      </trkpt>
    </trkseg>
  </trk>
</gpx>